<?xml version='1.0' encoding='UTF-8'?><gpx version="1.1" creator="JPX - https://github.com/jenetics/jpx" xmlns="http://www.topografix.com/GPX/1/1"><trk><trkseg><trkpt lat="45.67577322161049" lon="10.08193484818558"><ele>191.0</ele><time>2026-04-04T06:23:30Z</time></trkpt><trkpt lat="45.675728822044796" lon="10.081858049819532"><ele>191.0</ele><time>2026-04-04T06:23:33Z</time></trkpt><trkpt lat="45.67567336430566" lon="10.081769513199987"><ele>191.0</ele><time>2026-04-04T06:23:36Z</time></trkpt><trkpt lat="45.67561575509168" lon="10.081681224048133"><ele>191.0</ele><time>2026-04-04T06:23:39Z</time></trkpt><trkpt lat="45.67556294537477" lon="10.081609344660793"><ele>191.0</ele><time>2026-04-04T06:23:41Z</time></trkpt><trkpt lat="45.67549284817322" lon="10.08154409749221"><ele>191.0</ele><time>2026-04-04T06:23:43Z</time></trkpt><trkpt lat="45.67542876834756" lon="10.081465809112192"><ele>191.20000000000002</ele><time>2026-04-04T06:23:45Z</time></trkpt><trkpt lat="45.675366256890854" lon="10.08136945858947"><ele>191.4</ele><time>2026-04-04T06:23:47Z</time></trkpt><trkpt lat="45.67528962996594" lon="10.081279518085895"><ele>191.6</ele><time>2026-04-04T06:23:49Z</time></trkpt><trkpt lat="45.675221905649146" lon="10.08116869505572"><ele>191.8</ele><time>2026-04-04T06:23:51Z</time></trkpt><trkpt lat="45.675142263485775" lon="10.08107005333393"><ele>192.0</ele><time>2026-04-04T06:23:53Z</time></trkpt><trkpt lat="45.67506154190927" lon="10.080957914363935"><ele>192.0</ele><time>2026-04-04T06:23:55Z</time></trkpt><trkpt lat="45.6749831655251" lon="10.080829178354136"><ele>192.0</ele><time>2026-04-04T06:23:57Z</time></trkpt><trkpt lat="45.67490312377021" lon="10.080720385017994"><ele>192.0</ele><time>2026-04-04T06:23:59Z</time></trkpt><trkpt lat="45.674819552775794" lon="10.080615022840309"><ele>192.0</ele><time>2026-04-04T06:24:01Z</time></trkpt><trkpt lat="45.67474131765827" lon="10.080497175719032"><ele>191.8</ele><time>2026-04-04T06:24:03Z</time></trkpt><trkpt lat="45.674658468625246" lon="10.080388585954672"><ele>191.6</ele><time>2026-04-04T06:24:04.999Z</time></trkpt><trkpt lat="45.67457728595092" lon="10.080275453369541"><ele>191.4</ele><time>2026-04-04T06:24:06.999Z</time></trkpt><trkpt lat="45.67449548798205" lon="10.08016084553098"><ele>191.20000000000002</ele><time>2026-04-04T06:24:08.999Z</time></trkpt><trkpt lat="45.674417325205575" lon="10.080051366607005"><ele>191.0</ele><time>2026-04-04T06:24:10.999Z</time></trkpt><trkpt lat="45.67435132005857" lon="10.079929912279082"><ele>191.0</ele><time>2026-04-04T06:24:12.999Z</time></trkpt><trkpt lat="45.674272560518034" lon="10.079807218496581"><ele>191.0</ele><time>2026-04-04T06:24:14.999Z</time></trkpt><trkpt lat="45.67419665846138" lon="10.079694793719812"><ele>191.0</ele><time>2026-04-04T06:24:16.999Z</time></trkpt><trkpt lat="45.67410798873321" lon="10.079572723508653"><ele>191.0</ele><time>2026-04-04T06:24:18.999Z</time></trkpt><trkpt lat="45.67405720827348" lon="10.079511350734556"><ele>191.0</ele><time>2026-04-04T06:24:19.999Z</time></trkpt><trkpt lat="45.674009878117246" lon="10.079451200419953"><ele>191.0</ele><time>2026-04-04T06:24:20.999Z</time></trkpt><trkpt lat="45.67395921762301" lon="10.079390786311938"><ele>191.0</ele><time>2026-04-04T06:24:21.999Z</time></trkpt><trkpt lat="45.6739047771792" lon="10.07932530481136"><ele>191.0</ele><time>2026-04-04T06:24:22.999Z</time></trkpt><trkpt lat="45.67385310274919" lon="10.079252673505803"><ele>191.0</ele><time>2026-04-04T06:24:23.999Z</time></trkpt><trkpt lat="45.67380607956603" lon="10.079182699678322"><ele>191.0</ele><time>2026-04-04T06:24:24.999Z</time></trkpt><trkpt lat="45.67375457522746" lon="10.079114020728486"><ele>191.0</ele><time>2026-04-04T06:24:25.999Z</time></trkpt><trkpt lat="45.67369961004531" lon="10.07905086776017"><ele>191.0</ele><time>2026-04-04T06:24:26.999Z</time></trkpt><trkpt lat="45.6736444550555" lon="10.078978175975662"><ele>191.0</ele><time>2026-04-04T06:24:27.999Z</time></trkpt><trkpt lat="45.67358418053057" lon="10.078910324225832"><ele>191.0</ele><time>2026-04-04T06:24:28.999Z</time></trkpt><trkpt lat="45.67352414433444" lon="10.078843140359275"><ele>191.0</ele><time>2026-04-04T06:24:29.999Z</time></trkpt><trkpt lat="45.67346307193384" lon="10.078778284947811"><ele>191.0</ele><time>2026-04-04T06:24:30.999Z</time></trkpt><trkpt lat="45.673401361040234" lon="10.07872032695304"><ele>191.0</ele><time>2026-04-04T06:24:31.999Z</time></trkpt><trkpt lat="45.67334001773432" lon="10.078659886484672"><ele>191.0</ele><time>2026-04-04T06:24:32.999Z</time></trkpt><trkpt lat="45.6732715694465" lon="10.078605713669548"><ele>191.0</ele><time>2026-04-04T06:24:33.999Z</time></trkpt><trkpt lat="45.673201390666556" lon="10.078552033208387"><ele>191.0</ele><time>2026-04-04T06:24:34.999Z</time></trkpt><trkpt lat="45.67313562323509" lon="10.07850598109096"><ele>191.0</ele><time>2026-04-04T06:24:35.999Z</time></trkpt><trkpt lat="45.67306931619582" lon="10.078451949768297"><ele>191.0</ele><time>2026-04-04T06:24:36.999Z</time></trkpt><trkpt lat="45.673004885671716" lon="10.078391777682878"><ele>191.0</ele><time>2026-04-04T06:24:37.999Z</time></trkpt><trkpt lat="45.67293857528901" lon="10.07833287072109"><ele>191.0</ele><time>2026-04-04T06:24:38.999Z</time></trkpt><trkpt lat="45.67287751581395" lon="10.078267236868909"><ele>190.83333333333331</ele><time>2026-04-04T06:24:39.999Z</time></trkpt><trkpt lat="45.67281562738511" lon="10.078202511861775"><ele>190.66666666666666</ele><time>2026-04-04T06:24:40.999Z</time></trkpt><trkpt lat="45.67275516835838" lon="10.078135920011288"><ele>190.5</ele><time>2026-04-04T06:24:41.999Z</time></trkpt><trkpt lat="45.6726958307007" lon="10.078059558522343"><ele>190.33333333333334</ele><time>2026-04-04T06:24:42.999Z</time></trkpt><trkpt lat="45.672636640497196" lon="10.077980868181841"><ele>190.16666666666669</ele><time>2026-04-04T06:24:43.999Z</time></trkpt><trkpt lat="45.672575704198486" lon="10.07790419799026"><ele>190.0</ele><time>2026-04-04T06:24:44.999Z</time></trkpt><trkpt lat="45.67251942417278" lon="10.077823101101496"><ele>190.0</ele><time>2026-04-04T06:24:45.999Z</time></trkpt><trkpt lat="45.6724585060086" lon="10.077739716935582"><ele>190.0</ele><time>2026-04-04T06:24:46.999Z</time></trkpt><trkpt lat="45.67239720544853" lon="10.07765791666236"><ele>190.0</ele><time>2026-04-04T06:24:47.999Z</time></trkpt><trkpt lat="45.6723356183909" lon="10.077576262455523"><ele>190.0</ele><time>2026-04-04T06:24:48.999Z</time></trkpt><trkpt lat="45.67227488958883" lon="10.077494803732776"><ele>190.0</ele><time>2026-04-04T06:24:49.999Z</time></trkpt><trkpt lat="45.672213495721536" lon="10.0774126580006"><ele>190.0</ele><time>2026-04-04T06:24:50.999Z</time></trkpt><trkpt lat="45.67215186920828" lon="10.07733102144646"><ele>189.83333333333334</ele><time>2026-04-04T06:24:51.999Z</time></trkpt><trkpt lat="45.672091948508594" lon="10.077248919113051"><ele>189.66666666666669</ele><time>2026-04-04T06:24:52.999Z</time></trkpt><trkpt lat="45.67203136021719" lon="10.077167731392215"><ele>189.5</ele><time>2026-04-04T06:24:53.999Z</time></trkpt><trkpt lat="45.67196945878026" lon="10.077087646612313"><ele>189.33333333333334</ele><time>2026-04-04T06:24:54.999Z</time></trkpt><trkpt lat="45.67190665192771" lon="10.07700822340905"><ele>189.16666666666666</ele><time>2026-04-04T06:24:55.999Z</time></trkpt><trkpt lat="45.671849844326076" lon="10.07692516336724"><ele>189.0</ele><time>2026-04-04T06:24:56.999Z</time></trkpt><trkpt lat="45.67179215929786" lon="10.07684271558367"><ele>189.0</ele><time>2026-04-04T06:24:57.998Z</time></trkpt><trkpt lat="45.671733179236575" lon="10.07675975792622"><ele>189.0</ele><time>2026-04-04T06:24:58.998Z</time></trkpt><trkpt lat="45.671673883556096" lon="10.076675903949301"><ele>189.0</ele><time>2026-04-04T06:24:59.998Z</time></trkpt><trkpt lat="45.671614732819876" lon="10.07659687512137"><ele>189.0</ele><time>2026-04-04T06:25:00.998Z</time></trkpt><trkpt lat="45.671555585407326" lon="10.076517795232474"><ele>189.0</ele><time>2026-04-04T06:25:01.998Z</time></trkpt><trkpt lat="45.67149706103247" lon="10.07643918327981"><ele>189.0</ele><time>2026-04-04T06:25:02.998Z</time></trkpt><trkpt lat="45.67143619672388" lon="10.076358140956476"><ele>189.0</ele><time>2026-04-04T06:25:03.998Z</time></trkpt><trkpt lat="45.67137197344807" lon="10.076278807634807"><ele>189.0</ele><time>2026-04-04T06:25:04.998Z</time></trkpt><trkpt lat="45.6713109767377" lon="10.076199452871883"><ele>189.0</ele><time>2026-04-04T06:25:05.998Z</time></trkpt><trkpt lat="45.67124464704629" lon="10.07612279097387"><ele>189.0</ele><time>2026-04-04T06:25:06.998Z</time></trkpt><trkpt lat="45.671178952067315" lon="10.076048517484898"><ele>189.0</ele><time>2026-04-04T06:25:07.998Z</time></trkpt><trkpt lat="45.671112833502896" lon="10.075977213566057"><ele>189.0</ele><time>2026-04-04T06:25:08.998Z</time></trkpt><trkpt lat="45.671050713875495" lon="10.075902386114342"><ele>189.0</ele><time>2026-04-04T06:25:09.998Z</time></trkpt><trkpt lat="45.67098788421255" lon="10.075827354074494"><ele>189.0</ele><time>2026-04-04T06:25:10.998Z</time></trkpt><trkpt lat="45.67092503527991" lon="10.075753207518149"><ele>189.0</ele><time>2026-04-04T06:25:11.998Z</time></trkpt><trkpt lat="45.67086129279397" lon="10.075681645161309"><ele>189.0</ele><time>2026-04-04T06:25:12.998Z</time></trkpt><trkpt lat="45.67079891638003" lon="10.075611101409038"><ele>189.0</ele><time>2026-04-04T06:25:13.998Z</time></trkpt><trkpt lat="45.67073789098647" lon="10.075541411117188"><ele>189.0</ele><time>2026-04-04T06:25:14.998Z</time></trkpt><trkpt lat="45.67067441204529" lon="10.075470865399682"><ele>188.5</ele><time>2026-04-04T06:25:15.998Z</time></trkpt><trkpt lat="45.67061401869066" lon="10.0754059584224"><ele>188.0</ele><time>2026-04-04T06:25:16.998Z</time></trkpt><trkpt lat="45.67054926642483" lon="10.075338292287332"><ele>187.5</ele><time>2026-04-04T06:25:17.998Z</time></trkpt><trkpt lat="45.670490677820816" lon="10.07527112996183"><ele>187.0</ele><time>2026-04-04T06:25:18.998Z</time></trkpt><trkpt lat="45.67042361979531" lon="10.075207213869705"><ele>186.5</ele><time>2026-04-04T06:25:19.998Z</time></trkpt><trkpt lat="45.67036189841151" lon="10.075137914906712"><ele>186.0</ele><time>2026-04-04T06:25:20.998Z</time></trkpt><trkpt lat="45.67029879607238" lon="10.075072751150735"><ele>186.33333333333334</ele><time>2026-04-04T06:25:21.998Z</time></trkpt><trkpt lat="45.670238551849366" lon="10.075003529133348"><ele>186.66666666666666</ele><time>2026-04-04T06:25:23Z</time></trkpt><trkpt lat="45.67017848073746" lon="10.07493198607365"><ele>187.0</ele><time>2026-04-04T06:25:24Z</time></trkpt><trkpt lat="45.67012224598648" lon="10.074856849919875"><ele>187.33333333333331</ele><time>2026-04-04T06:25:25Z</time></trkpt><trkpt lat="45.67006963068323" lon="10.074777058931137"><ele>187.66666666666666</ele><time>2026-04-04T06:25:26Z</time></trkpt><trkpt lat="45.670017545681" lon="10.074695019795133"><ele>188.0</ele><time>2026-04-04T06:25:27Z</time></trkpt><trkpt lat="45.66996632453182" lon="10.074611071641524"><ele>188.0</ele><time>2026-04-04T06:25:28Z</time></trkpt><trkpt lat="45.66991761558699" lon="10.074526425885377"><ele>188.0</ele><time>2026-04-04T06:25:29Z</time></trkpt><trkpt lat="45.669871642543015" lon="10.074439418671755"><ele>188.0</ele><time>2026-04-04T06:25:30Z</time></trkpt><trkpt lat="45.669826997745396" lon="10.07434747329905"><ele>188.0</ele><time>2026-04-04T06:25:31Z</time></trkpt><trkpt lat="45.66977753959108" lon="10.074258784957431"><ele>188.0</ele><time>2026-04-04T06:25:32Z</time></trkpt><trkpt lat="45.66973071235473" lon="10.07417192833328"><ele>188.0</ele><time>2026-04-04T06:25:33Z</time></trkpt><trkpt lat="45.66968353827387" lon="10.074083902041547"><ele>188.5</ele><time>2026-04-04T06:25:34Z</time></trkpt><trkpt lat="45.6696383763886" lon="10.07399579313887"><ele>189.0</ele><time>2026-04-04T06:25:35Z</time></trkpt><trkpt lat="45.669588985057594" lon="10.073908429370181"><ele>189.5</ele><time>2026-04-04T06:25:36Z</time></trkpt><trkpt lat="45.669545784010076" lon="10.07381959033779"><ele>190.0</ele><time>2026-04-04T06:25:37Z</time></trkpt><trkpt lat="45.669499706256076" lon="10.073731105810841"><ele>190.5</ele><time>2026-04-04T06:25:38Z</time></trkpt><trkpt lat="45.66945440293532" lon="10.073644747802124"><ele>191.0</ele><time>2026-04-04T06:25:39Z</time></trkpt><trkpt lat="45.66940914233981" lon="10.073555682035925"><ele>191.0</ele><time>2026-04-04T06:25:40Z</time></trkpt><trkpt lat="45.66936547598877" lon="10.073469047753298"><ele>191.0</ele><time>2026-04-04T06:25:41Z</time></trkpt><trkpt lat="45.66932277926387" lon="10.073379133557095"><ele>191.0</ele><time>2026-04-04T06:25:42Z</time></trkpt><trkpt lat="45.66928358244546" lon="10.073289389102767"><ele>191.0</ele><time>2026-04-04T06:25:43Z</time></trkpt><trkpt lat="45.66924160347456" lon="10.073199706315108"><ele>191.0</ele><time>2026-04-04T06:25:44Z</time></trkpt><trkpt lat="45.66919991914438" lon="10.073108983143342"><ele>191.0</ele><time>2026-04-04T06:25:45Z</time></trkpt><trkpt lat="45.66916188726737" lon="10.073016797966167"><ele>190.71428571428572</ele><time>2026-04-04T06:25:46Z</time></trkpt><trkpt lat="45.669122423968474" lon="10.072924223711567"><ele>190.42857142857142</ele><time>2026-04-04T06:25:47Z</time></trkpt><trkpt lat="45.669085059731906" lon="10.072829437736187"><ele>190.14285714285714</ele><time>2026-04-04T06:25:48Z</time></trkpt><trkpt lat="45.66904690995744" lon="10.072736497505826"><ele>189.85714285714286</ele><time>2026-04-04T06:25:49Z</time></trkpt><trkpt lat="45.66901097208567" lon="10.072642699128279"><ele>189.57142857142856</ele><time>2026-04-04T06:25:50Z</time></trkpt><trkpt lat="45.66897391363911" lon="10.072552309124598"><ele>189.28571428571428</ele><time>2026-04-04T06:25:51Z</time></trkpt><trkpt lat="45.66893952714274" lon="10.072462269397498"><ele>189.0</ele><time>2026-04-04T06:25:52Z</time></trkpt><trkpt lat="45.66890388938891" lon="10.07237368068609"><ele>188.85714285714286</ele><time>2026-04-04T06:25:53Z</time></trkpt><trkpt lat="45.668868964405625" lon="10.072282807828024"><ele>188.71428571428572</ele><time>2026-04-04T06:25:54Z</time></trkpt><trkpt lat="45.66883400154841" lon="10.07219145078988"><ele>188.57142857142856</ele><time>2026-04-04T06:25:55Z</time></trkpt><trkpt lat="45.66879742044666" lon="10.072099377978905"><ele>188.42857142857144</ele><time>2026-04-04T06:25:56Z</time></trkpt><trkpt lat="45.66876293053655" lon="10.07200571565841"><ele>188.28571428571428</ele><time>2026-04-04T06:25:57Z</time></trkpt><trkpt lat="45.66872464639546" lon="10.071911829088354"><ele>188.14285714285714</ele><time>2026-04-04T06:25:58Z</time></trkpt><trkpt lat="45.66868976969639" lon="10.071817383636285"><ele>188.0</ele><time>2026-04-04T06:25:59Z</time></trkpt><trkpt lat="45.668655330614406" lon="10.071721325950989"><ele>188.0</ele><time>2026-04-04T06:26:00Z</time></trkpt><trkpt lat="45.66861652175046" lon="10.071627578118141"><ele>188.0</ele><time>2026-04-04T06:26:01Z</time></trkpt><trkpt lat="45.668576281763606" lon="10.071532434874493"><ele>188.0</ele><time>2026-04-04T06:26:02Z</time></trkpt><trkpt lat="45.66853795077158" lon="10.071438712633938"><ele>188.0</ele><time>2026-04-04T06:26:03Z</time></trkpt><trkpt lat="45.66849995273637" lon="10.07134293487221"><ele>188.0</ele><time>2026-04-04T06:26:04Z</time></trkpt><trkpt lat="45.668463144040985" lon="10.071250484111571"><ele>188.0</ele><time>2026-04-04T06:26:05Z</time></trkpt><trkpt lat="45.668426319129985" lon="10.071156901512387"><ele>187.85714285714286</ele><time>2026-04-04T06:26:06Z</time></trkpt><trkpt lat="45.668391212861515" lon="10.071064575116404"><ele>187.71428571428572</ele><time>2026-04-04T06:26:07Z</time></trkpt><trkpt lat="45.668356169551224" lon="10.070972729047773"><ele>187.57142857142856</ele><time>2026-04-04T06:26:08Z</time></trkpt><trkpt lat="45.66832444148164" lon="10.070878735056452"><ele>187.42857142857144</ele><time>2026-04-04T06:26:09Z</time></trkpt><trkpt lat="45.66829347605949" lon="10.070780531134229"><ele>187.2857142857143</ele><time>2026-04-04T06:26:10Z</time></trkpt><trkpt lat="45.668260687106596" lon="10.070686340749795"><ele>187.14285714285714</ele><time>2026-04-04T06:26:10.999Z</time></trkpt><trkpt lat="45.66822501759501" lon="10.070590000908247"><ele>187.0</ele><time>2026-04-04T06:26:11.999Z</time></trkpt><trkpt lat="45.668192444439896" lon="10.070492328704175"><ele>187.33333333333334</ele><time>2026-04-04T06:26:12.999Z</time></trkpt><trkpt lat="45.66815439237315" lon="10.07039791986953"><ele>187.66666666666669</ele><time>2026-04-04T06:26:13.999Z</time></trkpt><trkpt lat="45.66812093945847" lon="10.070299982457893"><ele>188.0</ele><time>2026-04-04T06:26:14.999Z</time></trkpt><trkpt lat="45.6680861384114" lon="10.070204343334463"><ele>188.33333333333334</ele><time>2026-04-04T06:26:15.999Z</time></trkpt><trkpt lat="45.66804758902348" lon="10.070109499761434"><ele>188.66666666666666</ele><time>2026-04-04T06:26:16.999Z</time></trkpt><trkpt lat="45.668007547411314" lon="10.070014926161686"><ele>189.0</ele><time>2026-04-04T06:26:17.999Z</time></trkpt><trkpt lat="45.6679688553153" lon="10.069921311381904"><ele>189.14285714285714</ele><time>2026-04-04T06:26:18.999Z</time></trkpt><trkpt lat="45.66793318324768" lon="10.069826385405241"><ele>189.28571428571428</ele><time>2026-04-04T06:26:19.999Z</time></trkpt><trkpt lat="45.667898327192596" lon="10.069732490568073"><ele>189.42857142857144</ele><time>2026-04-04T06:26:20.999Z</time></trkpt><trkpt lat="45.66786354061261" lon="10.069643144956542"><ele>189.57142857142856</ele><time>2026-04-04T06:26:21.999Z</time></trkpt><trkpt lat="45.66783259854089" lon="10.069556222057095"><ele>189.71428571428572</ele><time>2026-04-04T06:26:22.999Z</time></trkpt><trkpt lat="45.667795221937176" lon="10.06947257690289"><ele>189.85714285714286</ele><time>2026-04-04T06:26:23.999Z</time></trkpt><trkpt lat="45.66775565520953" lon="10.069387541522067"><ele>190.0</ele><time>2026-04-04T06:26:24.999Z</time></trkpt><trkpt lat="45.667713831322786" lon="10.0692977398075"><ele>190.28571428571428</ele><time>2026-04-04T06:26:25.999Z</time></trkpt><trkpt lat="45.66767402890567" lon="10.069213181371452"><ele>190.57142857142858</ele><time>2026-04-04T06:26:26.999Z</time></trkpt><trkpt lat="45.66763029861302" lon="10.069125701983806"><ele>190.85714285714283</ele><time>2026-04-04T06:26:27.999Z</time></trkpt><trkpt lat="45.667584807200456" lon="10.069042161402185"><ele>191.14285714285714</ele><time>2026-04-04T06:26:28.999Z</time></trkpt><trkpt lat="45.667538249284895" lon="10.068959201084489"><ele>191.42857142857142</ele><time>2026-04-04T06:26:29.999Z</time></trkpt><trkpt lat="45.66749437413223" lon="10.068877901878395"><ele>191.7142857142857</ele><time>2026-04-04T06:26:30.999Z</time></trkpt><trkpt lat="45.6674513744498" lon="10.068796307246608"><ele>192.0</ele><time>2026-04-04T06:26:31.999Z</time></trkpt><trkpt lat="45.66740788943006" lon="10.068716529040815"><ele>191.28571428571428</ele><time>2026-04-04T06:26:32.999Z</time></trkpt><trkpt lat="45.6673633897315" lon="10.068632653698613"><ele>190.57142857142856</ele><time>2026-04-04T06:26:33.999Z</time></trkpt><trkpt lat="45.66731737152719" lon="10.06854872677926"><ele>189.85714285714283</ele><time>2026-04-04T06:26:34.999Z</time></trkpt><trkpt lat="45.66726760150972" lon="10.068469643640302"><ele>189.14285714285714</ele><time>2026-04-04T06:26:35.999Z</time></trkpt><trkpt lat="45.66721673552826" lon="10.068389847376762"><ele>188.42857142857144</ele><time>2026-04-04T06:26:36.999Z</time></trkpt><trkpt lat="45.66716663649086" lon="10.068310528347592"><ele>187.7142857142857</ele><time>2026-04-04T06:26:37.999Z</time></trkpt><trkpt lat="45.6671177614918" lon="10.068233000921124"><ele>187.0</ele><time>2026-04-04T06:26:38.999Z</time></trkpt><trkpt lat="45.66706882077065" lon="10.068154013890831"><ele>187.42857142857142</ele><time>2026-04-04T06:26:39.999Z</time></trkpt><trkpt lat="45.6670185777365" lon="10.06807547838958"><ele>187.85714285714286</ele><time>2026-04-04T06:26:40.999Z</time></trkpt><trkpt lat="45.66697006369353" lon="10.06799726298996"><ele>188.28571428571428</ele><time>2026-04-04T06:26:41.999Z</time></trkpt><trkpt lat="45.66692078303266" lon="10.06791883430503"><ele>188.71428571428572</ele><time>2026-04-04T06:26:42.999Z</time></trkpt><trkpt lat="45.66687081843369" lon="10.067842219856042"><ele>189.14285714285717</ele><time>2026-04-04T06:26:43.999Z</time></trkpt><trkpt lat="45.66682079169383" lon="10.067763688013788"><ele>189.57142857142858</ele><time>2026-04-04T06:26:44.999Z</time></trkpt><trkpt lat="45.66677283671153" lon="10.067684493548846"><ele>190.0</ele><time>2026-04-04T06:26:45.999Z</time></trkpt><trkpt lat="45.66672351102622" lon="10.06760754557507"><ele>190.0</ele><time>2026-04-04T06:26:46.999Z</time></trkpt><trkpt lat="45.66667229408057" lon="10.067528543683318"><ele>190.0</ele><time>2026-04-04T06:26:47.999Z</time></trkpt><trkpt lat="45.66662332132428" lon="10.067452657469957"><ele>190.0</ele><time>2026-04-04T06:26:48.999Z</time></trkpt><trkpt lat="45.666570675295425" lon="10.067377416691672"><ele>190.0</ele><time>2026-04-04T06:26:49.999Z</time></trkpt><trkpt lat="45.66652061056111" lon="10.067300681513018"><ele>190.0</ele><time>2026-04-04T06:26:50.999Z</time></trkpt><trkpt lat="45.666468830770434" lon="10.067223396922115"><ele>190.0</ele><time>2026-04-04T06:26:51.999Z</time></trkpt><trkpt lat="45.66641581277066" lon="10.067148803583716"><ele>190.0</ele><time>2026-04-04T06:26:52.999Z</time></trkpt><trkpt lat="45.66635889153464" lon="10.06707790906002"><ele>189.16666666666669</ele><time>2026-04-04T06:26:53.999Z</time></trkpt><trkpt lat="45.66629931300044" lon="10.067013045729379"><ele>188.33333333333334</ele><time>2026-04-04T06:26:54.999Z</time></trkpt><trkpt lat="45.666237078140256" lon="10.066952518433052"><ele>187.5</ele><time>2026-04-04T06:26:55.999Z</time></trkpt><trkpt lat="45.66617208741712" lon="10.066899899630371"><ele>186.66666666666666</ele><time>2026-04-04T06:26:56.999Z</time></trkpt><trkpt lat="45.6660991090031" lon="10.066857451011924"><ele>185.83333333333331</ele><time>2026-04-04T06:26:57.999Z</time></trkpt><trkpt lat="45.666043128639714" lon="10.066790592527237"><ele>185.0</ele><time>2026-04-04T06:26:58.999Z</time></trkpt><trkpt lat="45.66597791366821" lon="10.066727680024083"><ele>185.83333333333331</ele><time>2026-04-04T06:26:59.999Z</time></trkpt><trkpt lat="45.66591656415294" lon="10.066655832687761"><ele>186.66666666666666</ele><time>2026-04-04T06:27:00.999Z</time></trkpt><trkpt lat="45.66585860749253" lon="10.066574783063292"><ele>187.5</ele><time>2026-04-04T06:27:01.999Z</time></trkpt><trkpt lat="45.665805189796174" lon="10.06648609400142"><ele>188.33333333333334</ele><time>2026-04-04T06:27:02.999Z</time></trkpt><trkpt lat="45.66576259566265" lon="10.066387806500746"><ele>189.16666666666669</ele><time>2026-04-04T06:27:03.999Z</time></trkpt><trkpt lat="45.66572254625466" lon="10.06629317850325"><ele>190.0</ele><time>2026-04-04T06:27:04.998Z</time></trkpt><trkpt lat="45.66568771490594" lon="10.066195265813489"><ele>190.0</ele><time>2026-04-04T06:27:05.998Z</time></trkpt><trkpt lat="45.66565898329451" lon="10.066092867133673"><ele>190.0</ele><time>2026-04-04T06:27:06.998Z</time></trkpt><trkpt lat="45.665634425236775" lon="10.065988020506882"><ele>190.0</ele><time>2026-04-04T06:27:07.998Z</time></trkpt><trkpt lat="45.665613627458484" lon="10.065879535798558"><ele>190.0</ele><time>2026-04-04T06:27:08.998Z</time></trkpt><trkpt lat="45.66559503245778" lon="10.065771388278828"><ele>190.0</ele><time>2026-04-04T06:27:09.998Z</time></trkpt><trkpt lat="45.66557506022726" lon="10.065666665240283"><ele>190.0</ele><time>2026-04-04T06:27:10.998Z</time></trkpt><trkpt lat="45.66555429101402" lon="10.065568165939744"><ele>189.71428571428572</ele><time>2026-04-04T06:27:11.998Z</time></trkpt><trkpt lat="45.66552903921684" lon="10.065472803273547"><ele>189.42857142857144</ele><time>2026-04-04T06:27:12.998Z</time></trkpt><trkpt lat="45.66550272762841" lon="10.065372138598512"><ele>189.14285714285714</ele><time>2026-04-04T06:27:13.998Z</time></trkpt><trkpt lat="45.665489170851636" lon="10.065267276573318"><ele>188.85714285714286</ele><time>2026-04-04T06:27:14.998Z</time></trkpt><trkpt lat="45.66547997852468" lon="10.065159851603365"><ele>188.57142857142856</ele><time>2026-04-04T06:27:15.998Z</time></trkpt><trkpt lat="45.66546433831884" lon="10.065053503394598"><ele>188.28571428571428</ele><time>2026-04-04T06:27:16.998Z</time></trkpt><trkpt lat="45.66544145557586" lon="10.064951407259645"><ele>188.0</ele><time>2026-04-04T06:27:17.998Z</time></trkpt><trkpt lat="45.66541721159231" lon="10.064851080604406"><ele>188.0</ele><time>2026-04-04T06:27:18.998Z</time></trkpt><trkpt lat="45.66540229185684" lon="10.0647396326844"><ele>188.0</ele><time>2026-04-04T06:27:19.998Z</time></trkpt><trkpt lat="45.665383016864304" lon="10.064640612070974"><ele>188.0</ele><time>2026-04-04T06:27:20.998Z</time></trkpt><trkpt lat="45.66536367555799" lon="10.064538649440507"><ele>188.0</ele><time>2026-04-04T06:27:21.998Z</time></trkpt><trkpt lat="45.66534596830721" lon="10.064436973926188"><ele>188.0</ele><time>2026-04-04T06:27:22.998Z</time></trkpt><trkpt lat="45.66533060113776" lon="10.064333425743452"><ele>188.0</ele><time>2026-04-04T06:27:23.998Z</time></trkpt><trkpt lat="45.6653168353202" lon="10.064232599510696"><ele>188.0</ele><time>2026-04-04T06:27:24.998Z</time></trkpt><trkpt lat="45.66530083348414" lon="10.064129227880452"><ele>187.85714285714286</ele><time>2026-04-04T06:27:25.998Z</time></trkpt><trkpt lat="45.66528586018404" lon="10.06402609934599"><ele>187.71428571428572</ele><time>2026-04-04T06:27:26.998Z</time></trkpt><trkpt lat="45.665269282142106" lon="10.0639304544895"><ele>187.57142857142856</ele><time>2026-04-04T06:27:27.998Z</time></trkpt><trkpt lat="45.66524860227425" lon="10.063821176844609"><ele>187.42857142857144</ele><time>2026-04-04T06:27:29Z</time></trkpt><trkpt lat="45.66523871243636" lon="10.063721061150044"><ele>187.2857142857143</ele><time>2026-04-04T06:27:30Z</time></trkpt><trkpt lat="45.665220883052584" lon="10.063613770048352"><ele>187.14285714285714</ele><time>2026-04-04T06:27:31Z</time></trkpt><trkpt lat="45.665205032048284" lon="10.063511890584152"><ele>187.0</ele><time>2026-04-04T06:27:32Z</time></trkpt><trkpt lat="45.665186039889726" lon="10.063409139083687"><ele>187.66666666666669</ele><time>2026-04-04T06:27:33Z</time></trkpt><trkpt lat="45.665168646939094" lon="10.063304705917787"><ele>188.33333333333334</ele><time>2026-04-04T06:27:34Z</time></trkpt><trkpt lat="45.66514793512147" lon="10.063200014724574"><ele>189.0</ele><time>2026-04-04T06:27:35Z</time></trkpt><trkpt lat="45.665138341134586" lon="10.063102172150032"><ele>189.66666666666666</ele><time>2026-04-04T06:27:36Z</time></trkpt><trkpt lat="45.66512482489053" lon="10.063004161784884"><ele>190.33333333333331</ele><time>2026-04-04T06:27:37Z</time></trkpt><trkpt lat="45.665087976996375" lon="10.06281427821497"><ele>191.0</ele><time>2026-04-04T06:27:39Z</time></trkpt><trkpt lat="45.66507105186107" lon="10.06271181537295"><ele>191.16666666666666</ele><time>2026-04-04T06:27:40Z</time></trkpt><trkpt lat="45.66505215892704" lon="10.062607477323558"><ele>191.33333333333331</ele><time>2026-04-04T06:27:41Z</time></trkpt><trkpt lat="45.66503338368042" lon="10.062497003319374"><ele>191.5</ele><time>2026-04-04T06:27:42Z</time></trkpt><trkpt lat="45.6650134584369" lon="10.062393090482118"><ele>191.66666666666666</ele><time>2026-04-04T06:27:43Z</time></trkpt><trkpt lat="45.664984347730766" lon="10.062290462463414"><ele>191.83333333333334</ele><time>2026-04-04T06:27:44Z</time></trkpt><trkpt lat="45.664955745047294" lon="10.06219044964497"><ele>192.0</ele><time>2026-04-04T06:27:45Z</time></trkpt><trkpt lat="45.664926102854274" lon="10.062092673515261"><ele>192.0</ele><time>2026-04-04T06:27:46Z</time></trkpt><trkpt lat="45.66489062745011" lon="10.061995225619087"><ele>192.0</ele><time>2026-04-04T06:27:47Z</time></trkpt><trkpt lat="45.664851790191086" lon="10.061903026828192"><ele>192.0</ele><time>2026-04-04T06:27:48Z</time></trkpt><trkpt lat="45.664813261011105" lon="10.061812085013118"><ele>192.0</ele><time>2026-04-04T06:27:49Z</time></trkpt><trkpt lat="45.66477069067179" lon="10.061721242242896"><ele>192.0</ele><time>2026-04-04T06:27:50Z</time></trkpt><trkpt lat="45.664728413627955" lon="10.061632109767425"><ele>192.0</ele><time>2026-04-04T06:27:51Z</time></trkpt><trkpt lat="45.66468499732293" lon="10.061543733013451"><ele>191.57142857142856</ele><time>2026-04-04T06:27:52Z</time></trkpt><trkpt lat="45.66464095572753" lon="10.061458636424277"><ele>191.14285714285714</ele><time>2026-04-04T06:27:53Z</time></trkpt><trkpt lat="45.6646001979814" lon="10.061369085169478"><ele>190.71428571428572</ele><time>2026-04-04T06:27:54Z</time></trkpt><trkpt lat="45.66455803962547" lon="10.061282866084264"><ele>190.28571428571428</ele><time>2026-04-04T06:27:55Z</time></trkpt><trkpt lat="45.664514318030115" lon="10.061195479815071"><ele>189.85714285714286</ele><time>2026-04-04T06:27:56Z</time></trkpt><trkpt lat="45.66447241217264" lon="10.061109428771127"><ele>189.42857142857142</ele><time>2026-04-04T06:27:57Z</time></trkpt><trkpt lat="45.664428860071894" lon="10.061022166050217"><ele>189.0</ele><time>2026-04-04T06:27:58Z</time></trkpt><trkpt lat="45.66438678524531" lon="10.060934591837256"><ele>189.66666666666666</ele><time>2026-04-04T06:27:59Z</time></trkpt><trkpt lat="45.66434644332211" lon="10.06084375041577"><ele>190.33333333333331</ele><time>2026-04-04T06:28:00Z</time></trkpt><trkpt lat="45.66430244032506" lon="10.060756902644547"><ele>191.0</ele><time>2026-04-04T06:28:01Z</time></trkpt><trkpt lat="45.66425833039863" lon="10.060668016274624"><ele>191.66666666666666</ele><time>2026-04-04T06:28:02Z</time></trkpt><trkpt lat="45.66421637998824" lon="10.060580861161773"><ele>192.33333333333331</ele><time>2026-04-04T06:28:03Z</time></trkpt><trkpt lat="45.6641791425895" lon="10.060488766843674"><ele>193.0</ele><time>2026-04-04T06:28:04Z</time></trkpt><trkpt lat="45.66413217772807" lon="10.060401012122261"><ele>192.99999999999997</ele><time>2026-04-04T06:28:05Z</time></trkpt><trkpt lat="45.664087746235246" lon="10.060312505122058"><ele>193.0</ele><time>2026-04-04T06:28:06Z</time></trkpt><trkpt lat="45.664043490756896" lon="10.060224877820897"><ele>193.0</ele><time>2026-04-04T06:28:07Z</time></trkpt><trkpt lat="45.664003619172675" lon="10.060139341199566"><ele>193.0</ele><time>2026-04-04T06:28:08Z</time></trkpt><trkpt lat="45.663958964007534" lon="10.060048097209409"><ele>192.99999999999997</ele><time>2026-04-04T06:28:09Z</time></trkpt><trkpt lat="45.663913969316106" lon="10.059965367694213"><ele>193.0</ele><time>2026-04-04T06:28:10Z</time></trkpt><trkpt lat="45.66386909128816" lon="10.059874829826763"><ele>192.66666666666666</ele><time>2026-04-04T06:28:11Z</time></trkpt><trkpt lat="45.66382543930582" lon="10.05978518061999"><ele>192.33333333333331</ele><time>2026-04-04T06:28:12Z</time></trkpt><trkpt lat="45.66378410547" lon="10.059698574122143"><ele>192.0</ele><time>2026-04-04T06:28:13Z</time></trkpt><trkpt lat="45.66373888427885" lon="10.059605780954175"><ele>191.66666666666666</ele><time>2026-04-04T06:28:14Z</time></trkpt><trkpt lat="45.663693557343464" lon="10.059515599201518"><ele>191.33333333333331</ele><time>2026-04-04T06:28:15Z</time></trkpt><trkpt lat="45.663651122199866" lon="10.059423311525775"><ele>191.0</ele><time>2026-04-04T06:28:15.999Z</time></trkpt><trkpt lat="45.66360787151239" lon="10.059334692811579"><ele>191.14285714285714</ele><time>2026-04-04T06:28:16.999Z</time></trkpt><trkpt lat="45.66356296712028" lon="10.059250290842042"><ele>191.28571428571428</ele><time>2026-04-04T06:28:17.999Z</time></trkpt><trkpt lat="45.66352083902863" lon="10.059164350602536"><ele>191.42857142857142</ele><time>2026-04-04T06:28:18.999Z</time></trkpt><trkpt lat="45.66347915396093" lon="10.059074969240783"><ele>191.57142857142856</ele><time>2026-04-04T06:28:19.999Z</time></trkpt><trkpt lat="45.6634377482466" lon="10.058988103622434"><ele>191.71428571428572</ele><time>2026-04-04T06:28:20.999Z</time></trkpt><trkpt lat="45.66339633027757" lon="10.058900010069934"><ele>191.85714285714283</ele><time>2026-04-04T06:28:21.999Z</time></trkpt><trkpt lat="45.66335544267589" lon="10.058812271678033"><ele>192.0</ele><time>2026-04-04T06:28:22.999Z</time></trkpt><trkpt lat="45.663309534634834" lon="10.058728014994413"><ele>191.99999999999997</ele><time>2026-04-04T06:28:23.999Z</time></trkpt><trkpt lat="45.663266307204516" lon="10.058634430600565"><ele>192.0</ele><time>2026-04-04T06:28:24.999Z</time></trkpt><trkpt lat="45.66322851009126" lon="10.058550136192542"><ele>192.0</ele><time>2026-04-04T06:28:25.999Z</time></trkpt><trkpt lat="45.663183967026285" lon="10.058463798311475"><ele>192.0</ele><time>2026-04-04T06:28:26.999Z</time></trkpt><trkpt lat="45.66313900485042" lon="10.05838244785993"><ele>192.0</ele><time>2026-04-04T06:28:27.999Z</time></trkpt><trkpt lat="45.66309831140618" lon="10.05829351195345"><ele>191.99999999999997</ele><time>2026-04-04T06:28:28.999Z</time></trkpt><trkpt lat="45.66305384153835" lon="10.058202718690485"><ele>192.0</ele><time>2026-04-04T06:28:29.999Z</time></trkpt><trkpt lat="45.66301287693137" lon="10.058109200910852"><ele>191.66666666666666</ele><time>2026-04-04T06:28:30.999Z</time></trkpt><trkpt lat="45.6629685012619" lon="10.05802500107447"><ele>191.33333333333334</ele><time>2026-04-04T06:28:31.999Z</time></trkpt><trkpt lat="45.662926456295615" lon="10.057938179383"><ele>191.0</ele><time>2026-04-04T06:28:32.999Z</time></trkpt><trkpt lat="45.662879547416985" lon="10.057849129973397"><ele>190.66666666666669</ele><time>2026-04-04T06:28:33.999Z</time></trkpt><trkpt lat="45.66283640759548" lon="10.057764297636018"><ele>190.33333333333334</ele><time>2026-04-04T06:28:34.999Z</time></trkpt><trkpt lat="45.66279296197276" lon="10.057672969866964"><ele>190.0</ele><time>2026-04-04T06:28:35.999Z</time></trkpt><trkpt lat="45.66275066629513" lon="10.057586041177547"><ele>190.57142857142858</ele><time>2026-04-04T06:28:36.999Z</time></trkpt><trkpt lat="45.66270691067638" lon="10.057499135255798"><ele>191.14285714285717</ele><time>2026-04-04T06:28:37.999Z</time></trkpt><trkpt lat="45.66266225187815" lon="10.057413939529692"><ele>191.71428571428572</ele><time>2026-04-04T06:28:38.999Z</time></trkpt><trkpt lat="45.66262247046149" lon="10.05732733822991"><ele>192.28571428571428</ele><time>2026-04-04T06:28:39.999Z</time></trkpt><trkpt lat="45.662583827706186" lon="10.057238470966688"><ele>192.85714285714286</ele><time>2026-04-04T06:28:40.999Z</time></trkpt><trkpt lat="45.662542788762906" lon="10.057148183901653"><ele>193.42857142857142</ele><time>2026-04-04T06:28:41.999Z</time></trkpt><trkpt lat="45.662499520660155" lon="10.057061815345163"><ele>194.0</ele><time>2026-04-04T06:28:42.999Z</time></trkpt><trkpt lat="45.662458242898914" lon="10.056974603234524"><ele>194.0</ele><time>2026-04-04T06:28:43.999Z</time></trkpt><trkpt lat="45.66241621800937" lon="10.056885764747417"><ele>194.0</ele><time>2026-04-04T06:28:44.999Z</time></trkpt><trkpt lat="45.66237284307689" lon="10.056802453533576"><ele>194.0</ele><time>2026-04-04T06:28:45.999Z</time></trkpt><trkpt lat="45.662331951056636" lon="10.056711312163056"><ele>194.0</ele><time>2026-04-04T06:28:46.999Z</time></trkpt><trkpt lat="45.66228776943534" lon="10.056621267654515"><ele>194.0</ele><time>2026-04-04T06:28:47.999Z</time></trkpt><trkpt lat="45.66224035303049" lon="10.05653186590989"><ele>194.0</ele><time>2026-04-04T06:28:48.999Z</time></trkpt><trkpt lat="45.66219983745488" lon="10.056450579593053"><ele>194.0</ele><time>2026-04-04T06:28:49.999Z</time></trkpt><trkpt lat="45.662160803753544" lon="10.056351687276226"><ele>193.85714285714286</ele><time>2026-04-04T06:28:50.999Z</time></trkpt><trkpt lat="45.662113754830735" lon="10.056268433977461"><ele>193.71428571428572</ele><time>2026-04-04T06:28:51.999Z</time></trkpt><trkpt lat="45.662069931574884" lon="10.056181178419354"><ele>193.57142857142858</ele><time>2026-04-04T06:28:52.999Z</time></trkpt><trkpt lat="45.6620277405323" lon="10.056093059507447"><ele>193.42857142857144</ele><time>2026-04-04T06:28:53.999Z</time></trkpt><trkpt lat="45.66198763729801" lon="10.056007543373507"><ele>193.28571428571428</ele><time>2026-04-04T06:28:54.999Z</time></trkpt><trkpt lat="45.66194540770554" lon="10.055928679597761"><ele>193.14285714285717</ele><time>2026-04-04T06:28:55.999Z</time></trkpt><trkpt lat="45.66190250379112" lon="10.055848039102404"><ele>193.0</ele><time>2026-04-04T06:28:56.999Z</time></trkpt><trkpt lat="45.66185470003851" lon="10.055763148519649"><ele>193.83333333333331</ele><time>2026-04-04T06:28:57.999Z</time></trkpt><trkpt lat="45.66180909803986" lon="10.055680598404074"><ele>194.66666666666666</ele><time>2026-04-04T06:28:58.999Z</time></trkpt><trkpt lat="45.661765952948635" lon="10.055604070967117"><ele>195.5</ele><time>2026-04-04T06:28:59.999Z</time></trkpt><trkpt lat="45.661723401431225" lon="10.055528655544137"><ele>196.33333333333331</ele><time>2026-04-04T06:29:00.999Z</time></trkpt><trkpt lat="45.66168296907979" lon="10.055439368609262"><ele>197.16666666666666</ele><time>2026-04-04T06:29:01.999Z</time></trkpt><trkpt lat="45.66163714901603" lon="10.055285304756591"><ele>198.0</ele><time>2026-04-04T06:29:03.999Z</time></trkpt><trkpt lat="45.661606719231585" lon="10.055121871395508"><ele>198.0</ele><time>2026-04-04T06:29:05.999Z</time></trkpt><trkpt lat="45.6615076602571" lon="10.055031046640917"><ele>198.0</ele><time>2026-04-04T06:29:07.999Z</time></trkpt><trkpt lat="45.661442206330335" lon="10.055048974324327"><ele>198.0</ele><time>2026-04-04T06:29:08.999Z</time></trkpt><trkpt lat="45.66133092662829" lon="10.055059715046108"><ele>198.0</ele><time>2026-04-04T06:29:10.998Z</time></trkpt><trkpt lat="45.66127539775026" lon="10.055002459686765"><ele>198.0</ele><time>2026-04-04T06:29:11.998Z</time></trkpt><trkpt lat="45.6612227178049" lon="10.054942870492647"><ele>198.0</ele><time>2026-04-04T06:29:12.998Z</time></trkpt><trkpt lat="45.66111035788112" lon="10.054853212564355"><ele>197.83333333333334</ele><time>2026-04-04T06:29:14.998Z</time></trkpt><trkpt lat="45.66105844538203" lon="10.05478757111936"><ele>197.66666666666669</ele><time>2026-04-04T06:29:15.998Z</time></trkpt><trkpt lat="45.66095581423205" lon="10.054680825834332"><ele>197.5</ele><time>2026-04-04T06:29:17.998Z</time></trkpt><trkpt lat="45.660898307143846" lon="10.054623429816111"><ele>197.33333333333334</ele><time>2026-04-04T06:29:18.998Z</time></trkpt><trkpt lat="45.66083705386516" lon="10.054570522661475"><ele>197.16666666666669</ele><time>2026-04-04T06:29:19.998Z</time></trkpt><trkpt lat="45.66077651289845" lon="10.054515139686924"><ele>197.0</ele><time>2026-04-04T06:29:20.998Z</time></trkpt><trkpt lat="45.660716928786535" lon="10.05446315420757"><ele>197.00000000000003</ele><time>2026-04-04T06:29:21.998Z</time></trkpt><trkpt lat="45.660653584672126" lon="10.05440754955272"><ele>197.0</ele><time>2026-04-04T06:29:22.998Z</time></trkpt><trkpt lat="45.66059739546508" lon="10.054355254762035"><ele>197.0</ele><time>2026-04-04T06:29:23.998Z</time></trkpt><trkpt lat="45.66051983000887" lon="10.054344017281915"><ele>197.0</ele><time>2026-04-04T06:29:24.998Z</time></trkpt><trkpt lat="45.6604197754079" lon="10.054261276186443"><ele>197.00000000000003</ele><time>2026-04-04T06:29:26.998Z</time></trkpt><trkpt lat="45.6603527419806" lon="10.054222486365145"><ele>197.0</ele><time>2026-04-04T06:29:27.998Z</time></trkpt><trkpt lat="45.66032085711234" lon="10.054105466178388"><ele>196.83333333333334</ele><time>2026-04-04T06:29:28.998Z</time></trkpt><trkpt lat="45.660301930507764" lon="10.054004617454936"><ele>196.66666666666669</ele><time>2026-04-04T06:29:29.998Z</time></trkpt><trkpt lat="45.660267866325995" lon="10.05392168344162"><ele>196.5</ele><time>2026-04-04T06:29:30.998Z</time></trkpt><trkpt lat="45.66020730412573" lon="10.053875453218685"><ele>196.33333333333331</ele><time>2026-04-04T06:29:31.998Z</time></trkpt><trkpt lat="45.66014121976693" lon="10.053867794064773"><ele>196.16666666666666</ele><time>2026-04-04T06:29:32.998Z</time></trkpt><trkpt lat="45.66002688812697" lon="10.053829570457374"><ele>196.0</ele><time>2026-04-04T06:29:35Z</time></trkpt><trkpt lat="45.65992527789018" lon="10.05374881018544"><ele>196.33333333333331</ele><time>2026-04-04T06:29:37Z</time></trkpt><trkpt lat="45.6598250113265" lon="10.053637492911125"><ele>196.66666666666666</ele><time>2026-04-04T06:29:39Z</time></trkpt><trkpt lat="45.65977144715319" lon="10.05357955661728"><ele>197.0</ele><time>2026-04-04T06:29:40Z</time></trkpt><trkpt lat="45.65971375103439" lon="10.053521223627788"><ele>197.33333333333331</ele><time>2026-04-04T06:29:41Z</time></trkpt><trkpt lat="45.65965087791759" lon="10.053459464556937"><ele>197.66666666666666</ele><time>2026-04-04T06:29:42Z</time></trkpt><trkpt lat="45.65958856707092" lon="10.053394980641967"><ele>198.0</ele><time>2026-04-04T06:29:43Z</time></trkpt><trkpt lat="45.65952832426068" lon="10.053331244058512"><ele>197.5</ele><time>2026-04-04T06:29:44Z</time></trkpt><trkpt lat="45.65946766590423" lon="10.053265351612072"><ele>197.0</ele><time>2026-04-04T06:29:45Z</time></trkpt><trkpt lat="45.65941193834449" lon="10.053200335441664"><ele>196.5</ele><time>2026-04-04T06:29:46Z</time></trkpt><trkpt lat="45.65934346180098" lon="10.053143610815841"><ele>196.0</ele><time>2026-04-04T06:29:47Z</time></trkpt><trkpt lat="45.659284021387926" lon="10.053071518456473"><ele>195.5</ele><time>2026-04-04T06:29:48Z</time></trkpt><trkpt lat="45.65921783900299" lon="10.053007553805692"><ele>195.0</ele><time>2026-04-04T06:29:49Z</time></trkpt><trkpt lat="45.65915097661325" lon="10.052942902574507"><ele>195.0</ele><time>2026-04-04T06:29:50Z</time></trkpt><trkpt lat="45.65908280286624" lon="10.052885062155147"><ele>195.0</ele><time>2026-04-04T06:29:51Z</time></trkpt><trkpt lat="45.65901987948796" lon="10.05281391266841"><ele>195.0</ele><time>2026-04-04T06:29:52Z</time></trkpt><trkpt lat="45.658951222689055" lon="10.052744418078007"><ele>195.0</ele><time>2026-04-04T06:29:53Z</time></trkpt><trkpt lat="45.65888520843498" lon="10.052680044113856"><ele>195.0</ele><time>2026-04-04T06:29:54Z</time></trkpt><trkpt lat="45.65881608511861" lon="10.052610052824052"><ele>195.0</ele><time>2026-04-04T06:29:55Z</time></trkpt><trkpt lat="45.658748657952835" lon="10.052535314791111"><ele>195.0</ele><time>2026-04-04T06:29:56Z</time></trkpt><trkpt lat="45.65867973331604" lon="10.052465337730998"><ele>195.0</ele><time>2026-04-04T06:29:57Z</time></trkpt><trkpt lat="45.65860963098047" lon="10.0523915358058"><ele>195.0</ele><time>2026-04-04T06:29:58Z</time></trkpt><trkpt lat="45.658536975908575" lon="10.052322948113092"><ele>195.0</ele><time>2026-04-04T06:29:59Z</time></trkpt><trkpt lat="45.658465165084415" lon="10.052253984084917"><ele>195.0</ele><time>2026-04-04T06:30:00Z</time></trkpt><trkpt lat="45.65840381452849" lon="10.052174929697697"><ele>195.0</ele><time>2026-04-04T06:30:01Z</time></trkpt><trkpt lat="45.658345780755326" lon="10.05209387407045"><ele>194.8</ele><time>2026-04-04T06:30:03Z</time></trkpt><trkpt lat="45.658283033651685" lon="10.05201206683924"><ele>194.6</ele><time>2026-04-04T06:30:20Z</time></trkpt><trkpt lat="45.65821617020931" lon="10.051950282395026"><ele>194.39999999999998</ele><time>2026-04-04T06:30:21.999Z</time></trkpt><trkpt lat="45.658127748123626" lon="10.051865840260216"><ele>194.2</ele><time>2026-04-04T06:30:23.999Z</time></trkpt><trkpt lat="45.65802288078604" lon="10.051758572086866"><ele>194.0</ele><time>2026-04-04T06:30:25.999Z</time></trkpt><trkpt lat="45.65796156852784" lon="10.051702414431508"><ele>194.00000000000003</ele><time>2026-04-04T06:30:26.999Z</time></trkpt><trkpt lat="45.657896499489674" lon="10.051653039605265"><ele>194.0</ele><time>2026-04-04T06:30:27.999Z</time></trkpt><trkpt lat="45.65783900897758" lon="10.051594764112139"><ele>194.0</ele><time>2026-04-04T06:30:28.999Z</time></trkpt><trkpt lat="45.65776861493685" lon="10.051528657098329"><ele>194.0</ele><time>2026-04-04T06:30:29.999Z</time></trkpt><trkpt lat="45.65770372803432" lon="10.051465997050096"><ele>194.00000000000003</ele><time>2026-04-04T06:30:30.999Z</time></trkpt><trkpt lat="45.657632748094635" lon="10.051403429547257"><ele>194.0</ele><time>2026-04-04T06:30:31.999Z</time></trkpt><trkpt lat="45.657559859618964" lon="10.051339112397036"><ele>193.33333333333334</ele><time>2026-04-04T06:30:32.999Z</time></trkpt><trkpt lat="45.65748130924544" lon="10.051282958309839"><ele>192.66666666666669</ele><time>2026-04-04T06:30:33.999Z</time></trkpt><trkpt lat="45.65741088910623" lon="10.051225009125309"><ele>192.0</ele><time>2026-04-04T06:30:34.999Z</time></trkpt><trkpt lat="45.657340047197934" lon="10.05116900954952"><ele>191.33333333333334</ele><time>2026-04-04T06:30:35.999Z</time></trkpt><trkpt lat="45.65726887953839" lon="10.05111838996815"><ele>190.66666666666669</ele><time>2026-04-04T06:30:36.999Z</time></trkpt><trkpt lat="45.65719700277594" lon="10.051068486688813"><ele>190.0</ele><time>2026-04-04T06:30:37.999Z</time></trkpt><trkpt lat="45.65712531953497" lon="10.051016093858136"><ele>190.0</ele><time>2026-04-04T06:30:38.999Z</time></trkpt><trkpt lat="45.6570507365901" lon="10.050973655481199"><ele>190.0</ele><time>2026-04-04T06:30:39.999Z</time></trkpt><trkpt lat="45.65697327405634" lon="10.050932656978455"><ele>190.0</ele><time>2026-04-04T06:30:40.999Z</time></trkpt><trkpt lat="45.65688844982839" lon="10.050884460149312"><ele>190.0</ele><time>2026-04-04T06:30:41.999Z</time></trkpt><trkpt lat="45.65680158590305" lon="10.050860366890818"><ele>190.0</ele><time>2026-04-04T06:30:42.999Z</time></trkpt><trkpt lat="45.65672229507078" lon="10.05081721784333"><ele>190.0</ele><time>2026-04-04T06:30:43.999Z</time></trkpt><trkpt lat="45.656635876873494" lon="10.050779649987346"><ele>190.0</ele><time>2026-04-04T06:30:44.999Z</time></trkpt><trkpt lat="45.65654943170895" lon="10.050743922562534"><ele>190.0</ele><time>2026-04-04T06:30:45.999Z</time></trkpt><trkpt lat="45.65646097716559" lon="10.050708369387978"><ele>190.0</ele><time>2026-04-04T06:30:46.999Z</time></trkpt><trkpt lat="45.656372105577745" lon="10.050668150798389"><ele>190.0</ele><time>2026-04-04T06:30:47.999Z</time></trkpt><trkpt lat="45.65628233729041" lon="10.050638165013247"><ele>190.0</ele><time>2026-04-04T06:30:48.999Z</time></trkpt><trkpt lat="45.65619280533575" lon="10.050608405788964"><ele>190.0</ele><time>2026-04-04T06:30:49.999Z</time></trkpt><trkpt lat="45.656098638623824" lon="10.050577965861477"><ele>190.0</ele><time>2026-04-04T06:30:50.999Z</time></trkpt><trkpt lat="45.65600970773488" lon="10.05054259708688"><ele>190.0</ele><time>2026-04-04T06:30:51.999Z</time></trkpt><trkpt lat="45.65591808351634" lon="10.050509930895188"><ele>190.0</ele><time>2026-04-04T06:30:52.999Z</time></trkpt><trkpt lat="45.655830104035" lon="10.05047270369771"><ele>190.0</ele><time>2026-04-04T06:30:53.999Z</time></trkpt><trkpt lat="45.655738233518306" lon="10.05044251392939"><ele>190.0</ele><time>2026-04-04T06:30:54.999Z</time></trkpt><trkpt lat="45.65564031413014" lon="10.050401664571577"><ele>190.0</ele><time>2026-04-04T06:30:55.999Z</time></trkpt><trkpt lat="45.655549257670486" lon="10.050361064199368"><ele>190.0</ele><time>2026-04-04T06:30:56.999Z</time></trkpt><trkpt lat="45.65545778667942" lon="10.050314585372023"><ele>190.0</ele><time>2026-04-04T06:30:57.999Z</time></trkpt><trkpt lat="45.65536573159214" lon="10.050267342991136"><ele>190.0</ele><time>2026-04-04T06:30:58.999Z</time></trkpt><trkpt lat="45.65527005532859" lon="10.05022618618618"><ele>189.8</ele><time>2026-04-04T06:30:59.999Z</time></trkpt><trkpt lat="45.65517221841477" lon="10.05018845715501"><ele>189.6</ele><time>2026-04-04T06:31:00.999Z</time></trkpt><trkpt lat="45.655071652254236" lon="10.05015484563239"><ele>189.39999999999998</ele><time>2026-04-04T06:31:01.999Z</time></trkpt><trkpt lat="45.65497187441596" lon="10.050119718284632"><ele>189.2</ele><time>2026-04-04T06:31:02.999Z</time></trkpt><trkpt lat="45.654874260946634" lon="10.050083596395647"><ele>189.0</ele><time>2026-04-04T06:31:03.999Z</time></trkpt><trkpt lat="45.654773710639596" lon="10.05005255075474"><ele>189.0</ele><time>2026-04-04T06:31:04.999Z</time></trkpt><trkpt lat="45.654671555773014" lon="10.050017018993385"><ele>189.0</ele><time>2026-04-04T06:31:05.999Z</time></trkpt><trkpt lat="45.65456964197021" lon="10.049977457613524"><ele>189.0</ele><time>2026-04-04T06:31:06.999Z</time></trkpt><trkpt lat="45.654471341743395" lon="10.049940153722112"><ele>189.0</ele><time>2026-04-04T06:31:07.999Z</time></trkpt><trkpt lat="45.654371386681305" lon="10.049906122894377"><ele>189.0</ele><time>2026-04-04T06:31:08.999Z</time></trkpt><trkpt lat="45.654271061113704" lon="10.04987150192718"><ele>188.79999999999998</ele><time>2026-04-04T06:31:09.999Z</time></trkpt><trkpt lat="45.654173170400576" lon="10.049838374504128"><ele>188.6</ele><time>2026-04-04T06:31:10.999Z</time></trkpt><trkpt lat="45.65407588410356" lon="10.049801993688325"><ele>188.4</ele><time>2026-04-04T06:31:11.999Z</time></trkpt><trkpt lat="45.65397718860415" lon="10.049769907986015"><ele>188.2</ele><time>2026-04-04T06:31:12.999Z</time></trkpt><trkpt lat="45.653877068758376" lon="10.04974118871664"><ele>188.0</ele><time>2026-04-04T06:31:13.999Z</time></trkpt><trkpt lat="45.653780237921666" lon="10.049713521091588"><ele>188.0</ele><time>2026-04-04T06:31:14.999Z</time></trkpt><trkpt lat="45.65368207840413" lon="10.049679211386536"><ele>188.0</ele><time>2026-04-04T06:31:15.999Z</time></trkpt><trkpt lat="45.65358683928208" lon="10.049646612202585"><ele>188.0</ele><time>2026-04-04T06:31:16.999Z</time></trkpt><trkpt lat="45.65349700812735" lon="10.049608538097743"><ele>188.0</ele><time>2026-04-04T06:31:17.998Z</time></trkpt><trkpt lat="45.65340332835512" lon="10.049573186655438"><ele>188.0</ele><time>2026-04-04T06:31:18.998Z</time></trkpt><trkpt lat="45.653311154805934" lon="10.049539095936009"><ele>188.16666666666666</ele><time>2026-04-04T06:31:19.998Z</time></trkpt><trkpt lat="45.65322533626697" lon="10.049504980532786"><ele>188.33333333333331</ele><time>2026-04-04T06:31:20.998Z</time></trkpt><trkpt lat="45.65314129692227" lon="10.049461818795516"><ele>188.5</ele><time>2026-04-04T06:31:21.998Z</time></trkpt><trkpt lat="45.65306717249956" lon="10.049393031908687"><ele>188.66666666666666</ele><time>2026-04-04T06:31:22.998Z</time></trkpt><trkpt lat="45.65300208254274" lon="10.049300529439943"><ele>188.83333333333334</ele><time>2026-04-04T06:31:23.998Z</time></trkpt><trkpt lat="45.65294227989537" lon="10.049202730981085"><ele>189.0</ele><time>2026-04-04T06:31:24.998Z</time></trkpt><trkpt lat="45.6528919112652" lon="10.049104685105915"><ele>188.39999999999998</ele><time>2026-04-04T06:31:25.998Z</time></trkpt><trkpt lat="45.65283426759617" lon="10.049010079775062"><ele>187.8</ele><time>2026-04-04T06:31:26.998Z</time></trkpt><trkpt lat="45.652763350186135" lon="10.048923451389426"><ele>187.2</ele><time>2026-04-04T06:31:27.998Z</time></trkpt><trkpt lat="45.65268303541655" lon="10.048855969892502"><ele>186.60000000000002</ele><time>2026-04-04T06:31:28.998Z</time></trkpt><trkpt lat="45.652589926387115" lon="10.048814331996446"><ele>186.0</ele><time>2026-04-04T06:31:29.998Z</time></trkpt><trkpt lat="45.652496790153975" lon="10.048786287652938"><ele>186.0</ele><time>2026-04-04T06:31:30.998Z</time></trkpt><trkpt lat="45.652404302776525" lon="10.048757948538892"><ele>186.0</ele><time>2026-04-04T06:31:31.998Z</time></trkpt><trkpt lat="45.652310790603885" lon="10.048720464269218"><ele>186.0</ele><time>2026-04-04T06:31:32.998Z</time></trkpt><trkpt lat="45.65222038988568" lon="10.048679103287537"><ele>186.0</ele><time>2026-04-04T06:31:33.998Z</time></trkpt><trkpt lat="45.65213255937033" lon="10.048623672856705"><ele>186.0</ele><time>2026-04-04T06:31:34.998Z</time></trkpt><trkpt lat="45.65204759878622" lon="10.048557708660086"><ele>186.0</ele><time>2026-04-04T06:31:35.998Z</time></trkpt><trkpt lat="45.65196433490029" lon="10.048492806461029"><ele>186.0</ele><time>2026-04-04T06:31:36.998Z</time></trkpt><trkpt lat="45.65187720089346" lon="10.048428960515274"><ele>186.0</ele><time>2026-04-04T06:31:37.998Z</time></trkpt><trkpt lat="45.65179280392268" lon="10.04836759874863"><ele>186.0</ele><time>2026-04-04T06:31:38.998Z</time></trkpt><trkpt lat="45.651707353134725" lon="10.04830083930219"><ele>186.0</ele><time>2026-04-04T06:31:39.998Z</time></trkpt><trkpt lat="45.651623648153915" lon="10.048242611499765"><ele>186.4</ele><time>2026-04-04T06:31:41Z</time></trkpt><trkpt lat="45.651540160323066" lon="10.048178372195755"><ele>186.8</ele><time>2026-04-04T06:31:42Z</time></trkpt><trkpt lat="45.651455103124704" lon="10.04811958422597"><ele>187.20000000000002</ele><time>2026-04-04T06:31:43Z</time></trkpt><trkpt lat="45.65137020462298" lon="10.048058426408724"><ele>187.60000000000002</ele><time>2026-04-04T06:31:44Z</time></trkpt><trkpt lat="45.65128628647893" lon="10.048000757711208"><ele>188.0</ele><time>2026-04-04T06:31:45Z</time></trkpt><trkpt lat="45.65120248172081" lon="10.047938337338385"><ele>188.2</ele><time>2026-04-04T06:31:46Z</time></trkpt><trkpt lat="45.65111948619581" lon="10.047878446905418"><ele>188.4</ele><time>2026-04-04T06:31:47Z</time></trkpt><trkpt lat="45.65103709992259" lon="10.04782177665272"><ele>188.6</ele><time>2026-04-04T06:31:48Z</time></trkpt><trkpt lat="45.65095517148863" lon="10.047761566623183"><ele>188.79999999999998</ele><time>2026-04-04T06:31:49Z</time></trkpt><trkpt lat="45.650871115638815" lon="10.047705861760303"><ele>189.0</ele><time>2026-04-04T06:31:50Z</time></trkpt><trkpt lat="45.65078953474361" lon="10.047648687948222"><ele>189.0</ele><time>2026-04-04T06:31:51Z</time></trkpt><trkpt lat="45.65070605715204" lon="10.047585915654642"><ele>189.0</ele><time>2026-04-04T06:31:52Z</time></trkpt><trkpt lat="45.65062829618175" lon="10.047516612883033"><ele>189.0</ele><time>2026-04-04T06:31:53Z</time></trkpt><trkpt lat="45.65055194064685" lon="10.047448514859278"><ele>189.0</ele><time>2026-04-04T06:31:54Z</time></trkpt><trkpt lat="45.6504764315724" lon="10.047380825686297"><ele>189.0</ele><time>2026-04-04T06:31:55Z</time></trkpt><trkpt lat="45.65040716504848" lon="10.04730092921416"><ele>189.16666666666666</ele><time>2026-04-04T06:31:56Z</time></trkpt><trkpt lat="45.650342421979275" lon="10.047213670681726"><ele>189.33333333333334</ele><time>2026-04-04T06:31:57Z</time></trkpt><trkpt lat="45.65027708349241" lon="10.047127733912303"><ele>189.5</ele><time>2026-04-04T06:31:58Z</time></trkpt><trkpt lat="45.650211281830366" lon="10.047039417306861"><ele>189.66666666666669</ele><time>2026-04-04T06:31:59Z</time></trkpt><trkpt lat="45.650143998468224" lon="10.04695575733043"><ele>189.83333333333334</ele><time>2026-04-04T06:32:00Z</time></trkpt><trkpt lat="45.65007903654011" lon="10.046867549234715"><ele>190.0</ele><time>2026-04-04T06:32:01Z</time></trkpt><trkpt lat="45.650020404951896" lon="10.046775587200187"><ele>190.0</ele><time>2026-04-04T06:32:02Z</time></trkpt><trkpt lat="45.64996335054407" lon="10.046679256329675"><ele>190.0</ele><time>2026-04-04T06:32:03Z</time></trkpt><trkpt lat="45.64991204834103" lon="10.046583759583477"><ele>190.0</ele><time>2026-04-04T06:32:04Z</time></trkpt><trkpt lat="45.64986267407173" lon="10.046484157841945"><ele>190.0</ele><time>2026-04-04T06:32:05Z</time></trkpt><trkpt lat="45.64981393934123" lon="10.046387236175393"><ele>190.0</ele><time>2026-04-04T06:32:06Z</time></trkpt><trkpt lat="45.64976730676018" lon="10.04629060570824"><ele>190.0</ele><time>2026-04-04T06:32:07Z</time></trkpt><trkpt lat="45.6497209489668" lon="10.04619438446003"><ele>190.16666666666669</ele><time>2026-04-04T06:32:08Z</time></trkpt><trkpt lat="45.64967363769332" lon="10.046099573693146"><ele>190.33333333333334</ele><time>2026-04-04T06:32:09Z</time></trkpt><trkpt lat="45.64962671624835" lon="10.046005084888055"><ele>190.5</ele><time>2026-04-04T06:32:10Z</time></trkpt><trkpt lat="45.649581468356615" lon="10.045912241084032"><ele>190.66666666666666</ele><time>2026-04-04T06:32:11Z</time></trkpt><trkpt lat="45.64953730739254" lon="10.045815830187772"><ele>190.83333333333331</ele><time>2026-04-04T06:32:12Z</time></trkpt><trkpt lat="45.64949301718213" lon="10.045727172886766"><ele>191.0</ele><time>2026-04-04T06:32:13Z</time></trkpt><trkpt lat="45.649448919028934" lon="10.045631105019856"><ele>191.0</ele><time>2026-04-04T06:32:14Z</time></trkpt><trkpt lat="45.64940519719887" lon="10.045538578286699"><ele>191.0</ele><time>2026-04-04T06:32:15Z</time></trkpt><trkpt lat="45.649363971841474" lon="10.045440581273954"><ele>191.0</ele><time>2026-04-04T06:32:16Z</time></trkpt><trkpt lat="45.64932813518928" lon="10.045346259557766"><ele>191.0</ele><time>2026-04-04T06:32:17Z</time></trkpt><trkpt lat="45.649292055067704" lon="10.045245199232188"><ele>191.0</ele><time>2026-04-04T06:32:18Z</time></trkpt><trkpt lat="45.649261564544155" lon="10.045143899306506"><ele>191.0</ele><time>2026-04-04T06:32:19Z</time></trkpt><trkpt lat="45.64922698759283" lon="10.045048039388293"><ele>190.33333333333331</ele><time>2026-04-04T06:32:20Z</time></trkpt><trkpt lat="45.64919195005289" lon="10.0449500018379"><ele>189.66666666666666</ele><time>2026-04-04T06:32:21Z</time></trkpt><trkpt lat="45.6491567781824" lon="10.044848966796698"><ele>189.0</ele><time>2026-04-04T06:32:22Z</time></trkpt><trkpt lat="45.64912529791387" lon="10.044753802810531"><ele>188.33333333333334</ele><time>2026-04-04T06:32:23Z</time></trkpt><trkpt lat="45.64909932700132" lon="10.04465009060128"><ele>187.66666666666669</ele><time>2026-04-04T06:32:24Z</time></trkpt><trkpt lat="45.64907776271575" lon="10.04454200763254"><ele>187.0</ele><time>2026-04-04T06:32:25Z</time></trkpt><trkpt lat="45.64905656303011" lon="10.044435629466927"><ele>187.0</ele><time>2026-04-04T06:32:26Z</time></trkpt><trkpt lat="45.649054184188685" lon="10.044325026101237"><ele>187.0</ele><time>2026-04-04T06:32:27Z</time></trkpt><trkpt lat="45.649062022541415" lon="10.044204999269233"><ele>187.0</ele><time>2026-04-04T06:32:28Z</time></trkpt><trkpt lat="45.649081374721725" lon="10.044090057738611"><ele>187.0</ele><time>2026-04-04T06:32:28.999Z</time></trkpt><trkpt lat="45.64910828670432" lon="10.043973582825489"><ele>187.0</ele><time>2026-04-04T06:32:29.999Z</time></trkpt><trkpt lat="45.64914935335587" lon="10.043861277731187"><ele>187.0</ele><time>2026-04-04T06:32:30.999Z</time></trkpt><trkpt lat="45.64919634971251" lon="10.043753828260275"><ele>186.6</ele><time>2026-04-04T06:32:31.999Z</time></trkpt><trkpt lat="45.64925403414833" lon="10.043654081336994"><ele>186.2</ele><time>2026-04-04T06:32:32.999Z</time></trkpt><trkpt lat="45.64932084409305" lon="10.043567281368075"><ele>185.8</ele><time>2026-04-04T06:32:33.999Z</time></trkpt><trkpt lat="45.649396585114175" lon="10.043486601523117"><ele>185.4</ele><time>2026-04-04T06:32:34.999Z</time></trkpt><trkpt lat="45.64947776849085" lon="10.043410850347197"><ele>185.0</ele><time>2026-04-04T06:32:35.999Z</time></trkpt><trkpt lat="45.64955461444405" lon="10.043331116209506"><ele>185.0</ele><time>2026-04-04T06:32:36.999Z</time></trkpt><trkpt lat="45.64963392048638" lon="10.043247096552214"><ele>185.0</ele><time>2026-04-04T06:32:37.999Z</time></trkpt><trkpt lat="45.64971240026353" lon="10.043161084553754"><ele>185.0</ele><time>2026-04-04T06:32:38.999Z</time></trkpt><trkpt lat="45.6497912403186" lon="10.043073640927906"><ele>185.0</ele><time>2026-04-04T06:32:39.999Z</time></trkpt><trkpt lat="45.64987145975606" lon="10.042988503880757"><ele>185.0</ele><time>2026-04-04T06:32:40.999Z</time></trkpt><trkpt lat="45.64994863327726" lon="10.04290662788858"><ele>185.0</ele><time>2026-04-04T06:32:41.999Z</time></trkpt><trkpt lat="45.6500296762114" lon="10.042830096045934"><ele>185.0</ele><time>2026-04-04T06:32:42.999Z</time></trkpt><trkpt lat="45.650111852767324" lon="10.042762796643006"><ele>185.0</ele><time>2026-04-04T06:32:43.999Z</time></trkpt><trkpt lat="45.65019769494839" lon="10.042708863621824"><ele>185.0</ele><time>2026-04-04T06:32:44.999Z</time></trkpt><trkpt lat="45.650285155072176" lon="10.04266486385177"><ele>185.0</ele><time>2026-04-04T06:32:45.999Z</time></trkpt><trkpt lat="45.65037132544981" lon="10.042628128626637"><ele>184.6</ele><time>2026-04-04T06:32:46.999Z</time></trkpt><trkpt lat="45.65045663072956" lon="10.042603226046733"><ele>184.2</ele><time>2026-04-04T06:32:47.999Z</time></trkpt><trkpt lat="45.65054102480086" lon="10.042569912710269"><ele>183.8</ele><time>2026-04-04T06:32:48.999Z</time></trkpt><trkpt lat="45.650632146858136" lon="10.042539692118812"><ele>183.4</ele><time>2026-04-04T06:32:49.999Z</time></trkpt><trkpt lat="45.650712166543286" lon="10.042451417080885"><ele>183.0</ele><time>2026-04-04T06:32:50.999Z</time></trkpt><trkpt lat="45.650817790260646" lon="10.042452239723934"><ele>182.8</ele><time>2026-04-04T06:32:51.999Z</time></trkpt><trkpt lat="45.65090778809733" lon="10.042392672455504"><ele>182.60000000000002</ele><time>2026-04-04T06:32:52.999Z</time></trkpt><trkpt lat="45.65098938783129" lon="10.042310487672843"><ele>182.39999999999998</ele><time>2026-04-04T06:32:53.999Z</time></trkpt><trkpt lat="45.65106050152517" lon="10.042205257485517"><ele>182.2</ele><time>2026-04-04T06:32:54.999Z</time></trkpt><trkpt lat="45.651120164251765" lon="10.042086327565587"><ele>182.0</ele><time>2026-04-04T06:32:55.999Z</time></trkpt><trkpt lat="45.65115895918464" lon="10.041945856405434"><ele>182.39999999999998</ele><time>2026-04-04T06:32:56.999Z</time></trkpt><trkpt lat="45.65117625754052" lon="10.041798268550474"><ele>182.79999999999998</ele><time>2026-04-04T06:32:57.999Z</time></trkpt><trkpt lat="45.6511797156598" lon="10.041650735577477"><ele>183.2</ele><time>2026-04-04T06:32:58.999Z</time></trkpt><trkpt lat="45.65117727602798" lon="10.04150719909605"><ele>183.6</ele><time>2026-04-04T06:32:59.999Z</time></trkpt><trkpt lat="45.65117610997794" lon="10.041364528258667"><ele>184.0</ele><time>2026-04-04T06:33:00.999Z</time></trkpt><trkpt lat="45.65116940199775" lon="10.04122542054231"><ele>184.2</ele><time>2026-04-04T06:33:01.999Z</time></trkpt><trkpt lat="45.65118225757742" lon="10.041087025785137"><ele>184.39999999999998</ele><time>2026-04-04T06:33:02.999Z</time></trkpt><trkpt lat="45.651220611914205" lon="10.040954605445789"><ele>184.6</ele><time>2026-04-04T06:33:03.999Z</time></trkpt><trkpt lat="45.65128145422989" lon="10.040842481486"><ele>184.8</ele><time>2026-04-04T06:33:04.999Z</time></trkpt><trkpt lat="45.65136621009081" lon="10.040763824045465"><ele>185.0</ele><time>2026-04-04T06:33:05.999Z</time></trkpt><trkpt lat="45.65146095810935" lon="10.040711248114368"><ele>185.4</ele><time>2026-04-04T06:33:06.999Z</time></trkpt><trkpt lat="45.65155314655397" lon="10.040662040458333"><ele>185.8</ele><time>2026-04-04T06:33:07.999Z</time></trkpt><trkpt lat="45.65164305112411" lon="10.040603478250267"><ele>186.2</ele><time>2026-04-04T06:33:08.999Z</time></trkpt><trkpt lat="45.65172939065894" lon="10.040539048933043"><ele>186.6</ele><time>2026-04-04T06:33:09.999Z</time></trkpt><trkpt lat="45.65181597234815" lon="10.040475884724032"><ele>187.0</ele><time>2026-04-04T06:33:10.999Z</time></trkpt><trkpt lat="45.65190356705681" lon="10.040417577719756"><ele>186.8</ele><time>2026-04-04T06:33:11.999Z</time></trkpt><trkpt lat="45.65199190368664" lon="10.040358500571182"><ele>186.6</ele><time>2026-04-04T06:33:12.999Z</time></trkpt><trkpt lat="45.652079763401936" lon="10.040297863248387"><ele>186.4</ele><time>2026-04-04T06:33:13.999Z</time></trkpt><trkpt lat="45.652168241905734" lon="10.040236766873873"><ele>186.20000000000002</ele><time>2026-04-04T06:33:14.999Z</time></trkpt><trkpt lat="45.652254394097305" lon="10.040176126968534"><ele>186.0</ele><time>2026-04-04T06:33:15.999Z</time></trkpt><trkpt lat="45.652341104615665" lon="10.040114615479094"><ele>186.0</ele><time>2026-04-04T06:33:16.999Z</time></trkpt><trkpt lat="45.65242705714521" lon="10.040059894496384"><ele>186.0</ele><time>2026-04-04T06:33:17.999Z</time></trkpt><trkpt lat="45.65250677427085" lon="10.040006432314517"><ele>186.0</ele><time>2026-04-04T06:33:18.999Z</time></trkpt><trkpt lat="45.65258469703258" lon="10.039953824629064"><ele>186.0</ele><time>2026-04-04T06:33:19.999Z</time></trkpt><trkpt lat="45.65266257323253" lon="10.039902812289968"><ele>186.0</ele><time>2026-04-04T06:33:20.999Z</time></trkpt><trkpt lat="45.652738770657436" lon="10.039850493022822"><ele>186.0</ele><time>2026-04-04T06:33:21.999Z</time></trkpt><trkpt lat="45.65281354407766" lon="10.039795712608376"><ele>185.83333333333334</ele><time>2026-04-04T06:33:22.999Z</time></trkpt><trkpt lat="45.65288967808727" lon="10.03974626230502"><ele>185.66666666666666</ele><time>2026-04-04T06:33:23.998Z</time></trkpt><trkpt lat="45.65296674004724" lon="10.039696856055937"><ele>185.5</ele><time>2026-04-04T06:33:24.998Z</time></trkpt><trkpt lat="45.65304333326107" lon="10.039647604144857"><ele>185.33333333333331</ele><time>2026-04-04T06:33:25.998Z</time></trkpt><trkpt lat="45.65311267169647" lon="10.03959259329492"><ele>185.16666666666666</ele><time>2026-04-04T06:33:26.998Z</time></trkpt><trkpt lat="45.65318636975129" lon="10.039541686224332"><ele>185.0</ele><time>2026-04-04T06:33:27.998Z</time></trkpt><trkpt lat="45.653260833173945" lon="10.039488138195678"><ele>185.0</ele><time>2026-04-04T06:33:28.998Z</time></trkpt><trkpt lat="45.65333285443334" lon="10.039435208850144"><ele>185.0</ele><time>2026-04-04T06:33:29.998Z</time></trkpt><trkpt lat="45.65340619174842" lon="10.039384643189422"><ele>185.0</ele><time>2026-04-04T06:33:30.998Z</time></trkpt><trkpt lat="45.65347717784946" lon="10.039332334146815"><ele>185.0</ele><time>2026-04-04T06:33:31.998Z</time></trkpt><trkpt lat="45.65355528267008" lon="10.039279452509627"><ele>185.0</ele><time>2026-04-04T06:33:32.998Z</time></trkpt><trkpt lat="45.65362968544761" lon="10.039221068771006"><ele>185.0</ele><time>2026-04-04T06:33:33.998Z</time></trkpt><trkpt lat="45.65370498559406" lon="10.039165684372541"><ele>185.16666666666666</ele><time>2026-04-04T06:33:34.998Z</time></trkpt><trkpt lat="45.65377612177816" lon="10.03910281156541"><ele>185.33333333333331</ele><time>2026-04-04T06:33:35.998Z</time></trkpt><trkpt lat="45.653842622199974" lon="10.039038614216217"><ele>185.5</ele><time>2026-04-04T06:33:36.998Z</time></trkpt><trkpt lat="45.653908620754635" lon="10.038976442392826"><ele>185.66666666666666</ele><time>2026-04-04T06:33:37.998Z</time></trkpt><trkpt lat="45.65396825777723" lon="10.038914307500198"><ele>185.83333333333334</ele><time>2026-04-04T06:33:38.998Z</time></trkpt><trkpt lat="45.65403111878626" lon="10.038849607903563"><ele>186.0</ele><time>2026-04-04T06:33:39.998Z</time></trkpt><trkpt lat="45.654094426969976" lon="10.038778725426468"><ele>186.0</ele><time>2026-04-04T06:33:40.998Z</time></trkpt><trkpt lat="45.654155756751365" lon="10.038708586638"><ele>186.0</ele><time>2026-04-04T06:33:41.998Z</time></trkpt><trkpt lat="45.65421828263444" lon="10.038636575386901"><ele>186.0</ele><time>2026-04-04T06:33:42.998Z</time></trkpt><trkpt lat="45.65427661529563" lon="10.038558083515442"><ele>186.0</ele><time>2026-04-04T06:33:43.998Z</time></trkpt><trkpt lat="45.65433297684162" lon="10.038477705199602"><ele>186.0</ele><time>2026-04-04T06:33:44.998Z</time></trkpt><trkpt lat="45.65439013913638" lon="10.038397631770568"><ele>186.0</ele><time>2026-04-04T06:33:45.998Z</time></trkpt><trkpt lat="45.65444451523317" lon="10.038313342253234"><ele>186.0</ele><time>2026-04-04T06:33:47Z</time></trkpt><trkpt lat="45.65449807615874" lon="10.038225551988162"><ele>186.0</ele><time>2026-04-04T06:33:48Z</time></trkpt><trkpt lat="45.65454700206439" lon="10.038133826820296"><ele>186.0</ele><time>2026-04-04T06:33:49Z</time></trkpt><trkpt lat="45.654599777473656" lon="10.038042462079158"><ele>186.0</ele><time>2026-04-04T06:33:50Z</time></trkpt><trkpt lat="45.654651623594575" lon="10.037952520991901"><ele>186.0</ele><time>2026-04-04T06:33:51Z</time></trkpt><trkpt lat="45.65469842074601" lon="10.037858783984506"><ele>186.0</ele><time>2026-04-04T06:33:52Z</time></trkpt><trkpt lat="45.65474622497857" lon="10.037763380286556"><ele>186.0</ele><time>2026-04-04T06:33:53Z</time></trkpt><trkpt lat="45.65479152297214" lon="10.037666822968895"><ele>186.0</ele><time>2026-04-04T06:33:54Z</time></trkpt><trkpt lat="45.6548336684904" lon="10.037571610686674"><ele>186.0</ele><time>2026-04-04T06:33:55Z</time></trkpt><trkpt lat="45.6548734591691" lon="10.037475932503856"><ele>186.0</ele><time>2026-04-04T06:33:56Z</time></trkpt><trkpt lat="45.6549123675" lon="10.037382000011508"><ele>186.0</ele><time>2026-04-04T06:33:57Z</time></trkpt><trkpt lat="45.654948162832085" lon="10.037281771842256"><ele>186.0</ele><time>2026-04-04T06:33:58Z</time></trkpt><trkpt lat="45.6549848915959" lon="10.03717806681593"><ele>186.0</ele><time>2026-04-04T06:33:59Z</time></trkpt><trkpt lat="45.65501883274746" lon="10.037067891758687"><ele>186.0</ele><time>2026-04-04T06:34:00Z</time></trkpt><trkpt lat="45.655053915300044" lon="10.036962063335277"><ele>186.0</ele><time>2026-04-04T06:34:01Z</time></trkpt><trkpt lat="45.65508325908591" lon="10.036854644932774"><ele>186.0</ele><time>2026-04-04T06:34:02Z</time></trkpt><trkpt lat="45.65511364825692" lon="10.036748458711159"><ele>186.0</ele><time>2026-04-04T06:34:03Z</time></trkpt><trkpt lat="45.655139520149326" lon="10.036645427061472"><ele>186.0</ele><time>2026-04-04T06:34:04Z</time></trkpt><trkpt lat="45.65516257400852" lon="10.036538638079445"><ele>185.83333333333334</ele><time>2026-04-04T06:34:05Z</time></trkpt><trkpt lat="45.65518406275388" lon="10.036426440314882"><ele>185.66666666666666</ele><time>2026-04-04T06:34:06Z</time></trkpt><trkpt lat="45.65520457524288" lon="10.036313775481668"><ele>185.5</ele><time>2026-04-04T06:34:07Z</time></trkpt><trkpt lat="45.6552227121583" lon="10.036198287023492"><ele>185.33333333333331</ele><time>2026-04-04T06:34:08Z</time></trkpt><trkpt lat="45.65523698889903" lon="10.036080416003587"><ele>185.16666666666666</ele><time>2026-04-04T06:34:09Z</time></trkpt><trkpt lat="45.655249316913626" lon="10.035962949823977"><ele>185.0</ele><time>2026-04-04T06:34:10Z</time></trkpt><trkpt lat="45.65525433046476" lon="10.035848066873381"><ele>185.0</ele><time>2026-04-04T06:34:11Z</time></trkpt><trkpt lat="45.65525471582318" lon="10.035736613883767"><ele>185.0</ele><time>2026-04-04T06:34:12Z</time></trkpt><trkpt lat="45.655251804747046" lon="10.035627093029756"><ele>185.0</ele><time>2026-04-04T06:34:13Z</time></trkpt><trkpt lat="45.6552474954846" lon="10.035512211236117"><ele>185.0</ele><time>2026-04-04T06:34:14Z</time></trkpt><trkpt lat="45.65524546554372" lon="10.035393629998257"><ele>185.0</ele><time>2026-04-04T06:34:15Z</time></trkpt><trkpt lat="45.65524054902635" lon="10.035274535512551"><ele>185.0</ele><time>2026-04-04T06:34:16Z</time></trkpt><trkpt lat="45.65522638245" lon="10.035154263013652"><ele>185.0</ele><time>2026-04-04T06:34:17Z</time></trkpt><trkpt lat="45.65520809913706" lon="10.035036111622212"><ele>185.0</ele><time>2026-04-04T06:34:18Z</time></trkpt><trkpt lat="45.65519166179535" lon="10.034915111686788"><ele>185.0</ele><time>2026-04-04T06:34:19Z</time></trkpt><trkpt lat="45.65517584183863" lon="10.034795729586973"><ele>185.0</ele><time>2026-04-04T06:34:20Z</time></trkpt><trkpt lat="45.65515384433572" lon="10.034681016961981"><ele>185.0</ele><time>2026-04-04T06:34:21Z</time></trkpt><trkpt lat="45.655125741472574" lon="10.03457092818525"><ele>185.0</ele><time>2026-04-04T06:34:22Z</time></trkpt><trkpt lat="45.655095276743516" lon="10.034464875472437"><ele>185.0</ele><time>2026-04-04T06:34:23Z</time></trkpt><trkpt lat="45.655062236727" lon="10.034362416137757"><ele>185.0</ele><time>2026-04-04T06:34:24Z</time></trkpt><trkpt lat="45.65502719320242" lon="10.034255685664759"><ele>185.0</ele><time>2026-04-04T06:34:25Z</time></trkpt><trkpt lat="45.65498659777012" lon="10.034151806147246"><ele>185.0</ele><time>2026-04-04T06:34:26Z</time></trkpt><trkpt lat="45.65494125914068" lon="10.034048440695024"><ele>185.0</ele><time>2026-04-04T06:34:27Z</time></trkpt><trkpt lat="45.6548964218166" lon="10.03394491834601"><ele>185.0</ele><time>2026-04-04T06:34:28Z</time></trkpt><trkpt lat="45.654857161186996" lon="10.033843215117274"><ele>185.16666666666666</ele><time>2026-04-04T06:34:29Z</time></trkpt><trkpt lat="45.65480978765112" lon="10.033748463343775"><ele>185.33333333333331</ele><time>2026-04-04T06:34:30Z</time></trkpt><trkpt lat="45.65476237174449" lon="10.033655988821968"><ele>185.5</ele><time>2026-04-04T06:34:31Z</time></trkpt><trkpt lat="45.65471430610865" lon="10.033564281856052"><ele>185.66666666666666</ele><time>2026-04-04T06:34:32Z</time></trkpt><trkpt lat="45.65466554120233" lon="10.033470581893237"><ele>185.83333333333334</ele><time>2026-04-04T06:34:32.999Z</time></trkpt><trkpt lat="45.65462102717727" lon="10.033370717141386"><ele>186.0</ele><time>2026-04-04T06:34:33.999Z</time></trkpt><trkpt lat="45.65457551020599" lon="10.033268000207569"><ele>186.0</ele><time>2026-04-04T06:34:34.999Z</time></trkpt><trkpt lat="45.65452819317599" lon="10.033168329524743"><ele>186.0</ele><time>2026-04-04T06:34:35.999Z</time></trkpt><trkpt lat="45.65447982246384" lon="10.033069041968751"><ele>186.0</ele><time>2026-04-04T06:34:36.999Z</time></trkpt><trkpt lat="45.65443473557868" lon="10.032966707308805"><ele>186.0</ele><time>2026-04-04T06:34:37.999Z</time></trkpt><trkpt lat="45.654398663858146" lon="10.032860463929083"><ele>186.0</ele><time>2026-04-04T06:34:38.999Z</time></trkpt><trkpt lat="45.65436893260772" lon="10.032747329739506"><ele>186.0</ele><time>2026-04-04T06:34:39.999Z</time></trkpt><trkpt lat="45.65434371548047" lon="10.032633168887722"><ele>186.0</ele><time>2026-04-04T06:34:40.999Z</time></trkpt><trkpt lat="45.65432342494051" lon="10.032518038503683"><ele>186.0</ele><time>2026-04-04T06:34:41.999Z</time></trkpt><trkpt lat="45.65430727792233" lon="10.032401932721926"><ele>186.0</ele><time>2026-04-04T06:34:42.999Z</time></trkpt><trkpt lat="45.654289405740705" lon="10.032289026935414"><ele>186.0</ele><time>2026-04-04T06:34:43.999Z</time></trkpt><trkpt lat="45.6542688616049" lon="10.032176835837927"><ele>186.0</ele><time>2026-04-04T06:34:44.999Z</time></trkpt><trkpt lat="45.65425035670555" lon="10.032066349590629"><ele>186.0</ele><time>2026-04-04T06:34:45.999Z</time></trkpt><trkpt lat="45.65423081837664" lon="10.031954584333569"><ele>186.0</ele><time>2026-04-04T06:34:46.999Z</time></trkpt><trkpt lat="45.65421074485336" lon="10.031841373603774"><ele>186.0</ele><time>2026-04-04T06:34:47.999Z</time></trkpt><trkpt lat="45.65419319262859" lon="10.031728505858934"><ele>186.0</ele><time>2026-04-04T06:34:48.999Z</time></trkpt><trkpt lat="45.654175833564715" lon="10.031615002036299"><ele>186.0</ele><time>2026-04-04T06:34:49.999Z</time></trkpt><trkpt lat="45.65415697057289" lon="10.031504389003882"><ele>186.0</ele><time>2026-04-04T06:34:50.999Z</time></trkpt><trkpt lat="45.65413588774162" lon="10.031394519648618"><ele>186.0</ele><time>2026-04-04T06:34:51.999Z</time></trkpt><trkpt lat="45.65411665880194" lon="10.031284327173738"><ele>185.83333333333334</ele><time>2026-04-04T06:34:52.999Z</time></trkpt><trkpt lat="45.65409944005084" lon="10.0311701534118"><ele>185.66666666666666</ele><time>2026-04-04T06:34:53.999Z</time></trkpt><trkpt lat="45.65408131951864" lon="10.031055668436018"><ele>185.5</ele><time>2026-04-04T06:34:54.999Z</time></trkpt><trkpt lat="45.654060670401606" lon="10.030942066215417"><ele>185.33333333333331</ele><time>2026-04-04T06:34:55.999Z</time></trkpt><trkpt lat="45.65404066415876" lon="10.030826711621973"><ele>185.16666666666666</ele><time>2026-04-04T06:34:56.999Z</time></trkpt><trkpt lat="45.654022003002325" lon="10.030711272980398"><ele>185.0</ele><time>2026-04-04T06:34:57.999Z</time></trkpt><trkpt lat="45.654002278231545" lon="10.030598729005838"><ele>185.5</ele><time>2026-04-04T06:34:58.999Z</time></trkpt><trkpt lat="45.65398216561706" lon="10.030488367981073"><ele>186.0</ele><time>2026-04-04T06:34:59.999Z</time></trkpt><trkpt lat="45.65396184286417" lon="10.03037636969004"><ele>186.5</ele><time>2026-04-04T06:35:00.999Z</time></trkpt><trkpt lat="45.65393756230755" lon="10.0302669814347"><ele>187.0</ele><time>2026-04-04T06:35:01.999Z</time></trkpt><trkpt lat="45.653907907846566" lon="10.030158429656701"><ele>187.5</ele><time>2026-04-04T06:35:02.999Z</time></trkpt><trkpt lat="45.653872115913614" lon="10.030056601363182"><ele>188.0</ele><time>2026-04-04T06:35:03.999Z</time></trkpt><trkpt lat="45.65383790558669" lon="10.029952871269238"><ele>187.66666666666666</ele><time>2026-04-04T06:35:04.999Z</time></trkpt><trkpt lat="45.65380132801999" lon="10.029851248755982"><ele>187.33333333333331</ele><time>2026-04-04T06:35:05.999Z</time></trkpt><trkpt lat="45.65376294935981" lon="10.02975058303854"><ele>187.0</ele><time>2026-04-04T06:35:06.999Z</time></trkpt><trkpt lat="45.65372654471222" lon="10.029648211017163"><ele>186.66666666666666</ele><time>2026-04-04T06:35:07.999Z</time></trkpt><trkpt lat="45.65368724418472" lon="10.02954648559424"><ele>186.33333333333334</ele><time>2026-04-04T06:35:08.999Z</time></trkpt><trkpt lat="45.653648723077964" lon="10.029443186488674"><ele>186.0</ele><time>2026-04-04T06:35:09.999Z</time></trkpt><trkpt lat="45.65361119840697" lon="10.029338573543301"><ele>186.0</ele><time>2026-04-04T06:35:10.999Z</time></trkpt><trkpt lat="45.65357344973531" lon="10.029230109978839"><ele>186.0</ele><time>2026-04-04T06:35:11.999Z</time></trkpt><trkpt lat="45.65353560136335" lon="10.029125269958607"><ele>186.0</ele><time>2026-04-04T06:35:12.999Z</time></trkpt><trkpt lat="45.65349882246264" lon="10.029017263668878"><ele>186.0</ele><time>2026-04-04T06:35:13.999Z</time></trkpt><trkpt lat="45.65345876648148" lon="10.028911745486337"><ele>186.0</ele><time>2026-04-04T06:35:14.999Z</time></trkpt><trkpt lat="45.653418640108455" lon="10.028803949892565"><ele>186.0</ele><time>2026-04-04T06:35:15.999Z</time></trkpt><trkpt lat="45.65337965456243" lon="10.028699822876998"><ele>186.66666666666666</ele><time>2026-04-04T06:35:16.999Z</time></trkpt><trkpt lat="45.65334002245379" lon="10.028598558570096"><ele>187.33333333333334</ele><time>2026-04-04T06:35:17.999Z</time></trkpt><trkpt lat="45.65330279926504" lon="10.028495274089561"><ele>188.0</ele><time>2026-04-04T06:35:18.999Z</time></trkpt><trkpt lat="45.65326856063065" lon="10.028388626196957"><ele>188.66666666666669</ele><time>2026-04-04T06:35:19.999Z</time></trkpt><trkpt lat="45.653232339117515" lon="10.028281438035407"><ele>189.33333333333334</ele><time>2026-04-04T06:35:20.999Z</time></trkpt><trkpt lat="45.653195519746596" lon="10.028176535159997"><ele>190.0</ele><time>2026-04-04T06:35:21.999Z</time></trkpt><trkpt lat="45.653156245298774" lon="10.028070044529722"><ele>189.83333333333334</ele><time>2026-04-04T06:35:22.999Z</time></trkpt><trkpt lat="45.6531183189447" lon="10.02796566342059"><ele>189.66666666666669</ele><time>2026-04-04T06:35:23.999Z</time></trkpt><trkpt lat="45.65308115699888" lon="10.027864459400606"><ele>189.5</ele><time>2026-04-04T06:35:24.999Z</time></trkpt><trkpt lat="45.65304376332277" lon="10.027762085200397"><ele>189.33333333333334</ele><time>2026-04-04T06:35:25.999Z</time></trkpt><trkpt lat="45.653006273616796" lon="10.027658795924431"><ele>189.16666666666666</ele><time>2026-04-04T06:35:26.999Z</time></trkpt><trkpt lat="45.65297280457156" lon="10.02755269466006"><ele>189.0</ele><time>2026-04-04T06:35:27.998Z</time></trkpt><trkpt lat="45.6529357576089" lon="10.027448627074003"><ele>189.0</ele><time>2026-04-04T06:35:28.998Z</time></trkpt><trkpt lat="45.65289638481876" lon="10.027345861935897"><ele>189.0</ele><time>2026-04-04T06:35:29.998Z</time></trkpt><trkpt lat="45.65285841720089" lon="10.027242558262643"><ele>189.0</ele><time>2026-04-04T06:35:30.998Z</time></trkpt><trkpt lat="45.65282087985157" lon="10.027136347448739"><ele>189.0</ele><time>2026-04-04T06:35:31.998Z</time></trkpt><trkpt lat="45.65278210038451" lon="10.027028273517097"><ele>189.0</ele><time>2026-04-04T06:35:32.998Z</time></trkpt><trkpt lat="45.65274277586357" lon="10.026920898938522"><ele>189.0</ele><time>2026-04-04T06:35:33.998Z</time></trkpt><trkpt lat="45.652704965580526" lon="10.026818822325488"><ele>188.83333333333334</ele><time>2026-04-04T06:35:34.998Z</time></trkpt><trkpt lat="45.65266530175509" lon="10.02671041087901"><ele>188.66666666666666</ele><time>2026-04-04T06:35:35.998Z</time></trkpt><trkpt lat="45.652627328755656" lon="10.026598605069994"><ele>188.5</ele><time>2026-04-04T06:35:36.998Z</time></trkpt><trkpt lat="45.6525890406203" lon="10.0264890666699"><ele>188.33333333333331</ele><time>2026-04-04T06:35:37.998Z</time></trkpt><trkpt lat="45.65254874738218" lon="10.026378950796204"><ele>188.16666666666666</ele><time>2026-04-04T06:35:38.998Z</time></trkpt><trkpt lat="45.65250806198084" lon="10.026273246646797"><ele>188.0</ele><time>2026-04-04T06:35:39.998Z</time></trkpt><trkpt lat="45.65247029673844" lon="10.026163612300207"><ele>188.0</ele><time>2026-04-04T06:35:40.998Z</time></trkpt><trkpt lat="45.65243166918204" lon="10.026053800603071"><ele>188.0</ele><time>2026-04-04T06:35:41.998Z</time></trkpt><trkpt lat="45.65239154727134" lon="10.025945279803812"><ele>188.0</ele><time>2026-04-04T06:35:42.998Z</time></trkpt><trkpt lat="45.652353315847826" lon="10.025837661458485"><ele>188.0</ele><time>2026-04-04T06:35:43.998Z</time></trkpt><trkpt lat="45.65231546315927" lon="10.02573214506805"><ele>188.0</ele><time>2026-04-04T06:35:44.998Z</time></trkpt><trkpt lat="45.65228069311729" lon="10.025629740403067"><ele>188.0</ele><time>2026-04-04T06:35:45.998Z</time></trkpt><trkpt lat="45.65224448171599" lon="10.025530282910125"><ele>188.33333333333331</ele><time>2026-04-04T06:35:46.998Z</time></trkpt><trkpt lat="45.65220911063326" lon="10.025429264151354"><ele>188.66666666666666</ele><time>2026-04-04T06:35:47.998Z</time></trkpt><trkpt lat="45.652175158100356" lon="10.025328390406939"><ele>189.0</ele><time>2026-04-04T06:35:48.998Z</time></trkpt><trkpt lat="45.65213974722505" lon="10.025226777675917"><ele>189.33333333333334</ele><time>2026-04-04T06:35:49.998Z</time></trkpt><trkpt lat="45.65210391213241" lon="10.025121130835034"><ele>189.66666666666669</ele><time>2026-04-04T06:35:50.998Z</time></trkpt><trkpt lat="45.652065207997765" lon="10.025014612757978"><ele>190.0</ele><time>2026-04-04T06:35:52Z</time></trkpt><trkpt lat="45.65202569266893" lon="10.02490928285465"><ele>189.66666666666669</ele><time>2026-04-04T06:35:53Z</time></trkpt><trkpt lat="45.65198567494197" lon="10.024804238818628"><ele>189.33333333333334</ele><time>2026-04-04T06:35:54Z</time></trkpt><trkpt lat="45.65194760199661" lon="10.024699782729705"><ele>189.0</ele><time>2026-04-04T06:35:55Z</time></trkpt><trkpt lat="45.65191053176941" lon="10.024595343983522"><ele>188.66666666666666</ele><time>2026-04-04T06:35:56Z</time></trkpt><trkpt lat="45.65186962846681" lon="10.02448940461202"><ele>188.33333333333331</ele><time>2026-04-04T06:35:57Z</time></trkpt><trkpt lat="45.65183098793524" lon="10.024382379031183"><ele>188.0</ele><time>2026-04-04T06:35:58Z</time></trkpt><trkpt lat="45.651793193234816" lon="10.02427590818025"><ele>188.0</ele><time>2026-04-04T06:35:59Z</time></trkpt><trkpt lat="45.65175351123418" lon="10.024174126212094"><ele>188.0</ele><time>2026-04-04T06:36:00Z</time></trkpt><trkpt lat="45.65171943713521" lon="10.024071513738031"><ele>188.0</ele><time>2026-04-04T06:36:01Z</time></trkpt><trkpt lat="45.65168372677564" lon="10.02396770588345"><ele>188.0</ele><time>2026-04-04T06:36:02Z</time></trkpt><trkpt lat="45.65165758003047" lon="10.023859321757898"><ele>188.0</ele><time>2026-04-04T06:36:03Z</time></trkpt><trkpt lat="45.65164978529106" lon="10.023746650223234"><ele>188.0</ele><time>2026-04-04T06:36:04Z</time></trkpt><trkpt lat="45.65164670964646" lon="10.023632438798234"><ele>187.83333333333331</ele><time>2026-04-04T06:36:05Z</time></trkpt><trkpt lat="45.651647141443185" lon="10.023518180212175"><ele>187.66666666666666</ele><time>2026-04-04T06:36:06Z</time></trkpt><trkpt lat="45.65164103637698" lon="10.023402718371683"><ele>187.5</ele><time>2026-04-04T06:36:07Z</time></trkpt><trkpt lat="45.65163204462764" lon="10.023289656667487"><ele>187.33333333333334</ele><time>2026-04-04T06:36:08Z</time></trkpt><trkpt lat="45.65162555554953" lon="10.023174051079813"><ele>187.16666666666669</ele><time>2026-04-04T06:36:09Z</time></trkpt><trkpt lat="45.651622058450734" lon="10.023058790745019"><ele>187.0</ele><time>2026-04-04T06:36:10Z</time></trkpt><trkpt lat="45.65161554769134" lon="10.022947780615043"><ele>187.0</ele><time>2026-04-04T06:36:11Z</time></trkpt><trkpt lat="45.65161036193515" lon="10.022834950546242"><ele>187.0</ele><time>2026-04-04T06:36:12Z</time></trkpt><trkpt lat="45.65160423421638" lon="10.022724955233521"><ele>187.0</ele><time>2026-04-04T06:36:13Z</time></trkpt><trkpt lat="45.65160176617721" lon="10.022615414025216"><ele>187.0</ele><time>2026-04-04T06:36:14Z</time></trkpt><trkpt lat="45.651605469121364" lon="10.022506433746246"><ele>187.0</ele><time>2026-04-04T06:36:15Z</time></trkpt><trkpt lat="45.65162431375761" lon="10.022401629323356"><ele>187.0</ele><time>2026-04-04T06:36:16Z</time></trkpt><trkpt lat="45.651652078733086" lon="10.022304069393641"><ele>187.5</ele><time>2026-04-04T06:36:17Z</time></trkpt><trkpt lat="45.6516844580401" lon="10.022210122220796"><ele>188.0</ele><time>2026-04-04T06:36:18Z</time></trkpt><trkpt lat="45.651725594449644" lon="10.022123270236866"><ele>188.5</ele><time>2026-04-04T06:36:19Z</time></trkpt><trkpt lat="45.651768713808295" lon="10.022031388056957"><ele>189.0</ele><time>2026-04-04T06:36:20Z</time></trkpt><trkpt lat="45.65181771784296" lon="10.021942723119757"><ele>189.5</ele><time>2026-04-04T06:36:21Z</time></trkpt><trkpt lat="45.651861475255274" lon="10.021857472150371"><ele>190.0</ele><time>2026-04-04T06:36:22Z</time></trkpt><trkpt lat="45.65190749037986" lon="10.021769608166444"><ele>190.0</ele><time>2026-04-04T06:36:23Z</time></trkpt><trkpt lat="45.65195461810122" lon="10.021679985025196"><ele>190.0</ele><time>2026-04-04T06:36:24Z</time></trkpt><trkpt lat="45.65199788097454" lon="10.021590832247727"><ele>190.0</ele><time>2026-04-04T06:36:25Z</time></trkpt><trkpt lat="45.65204615704213" lon="10.02150640893784"><ele>190.0</ele><time>2026-04-04T06:36:26Z</time></trkpt><trkpt lat="45.652091422938874" lon="10.021419567480471"><ele>190.0</ele><time>2026-04-04T06:36:27Z</time></trkpt><trkpt lat="45.652134159949576" lon="10.02132845337625"><ele>190.0</ele><time>2026-04-04T06:36:28Z</time></trkpt><trkpt lat="45.65217882951767" lon="10.021237247082128"><ele>189.83333333333334</ele><time>2026-04-04T06:36:29Z</time></trkpt><trkpt lat="45.65222740997815" lon="10.02115613113266"><ele>189.66666666666669</ele><time>2026-04-04T06:36:30Z</time></trkpt><trkpt lat="45.65227474691107" lon="10.021067179515782"><ele>189.5</ele><time>2026-04-04T06:36:31Z</time></trkpt><trkpt lat="45.65232145886434" lon="10.020977935561524"><ele>189.33333333333334</ele><time>2026-04-04T06:36:32Z</time></trkpt><trkpt lat="45.65236756374624" lon="10.020888639190176"><ele>189.16666666666666</ele><time>2026-04-04T06:36:33Z</time></trkpt><trkpt lat="45.65241472042132" lon="10.020803390292652"><ele>189.0</ele><time>2026-04-04T06:36:34Z</time></trkpt><trkpt lat="45.65246674974623" lon="10.020714365804"><ele>189.0</ele><time>2026-04-04T06:36:35Z</time></trkpt><trkpt lat="45.652515601770666" lon="10.02062521046175"><ele>189.0</ele><time>2026-04-04T06:36:36Z</time></trkpt><trkpt lat="45.652561483499554" lon="10.0205362266921"><ele>189.0</ele><time>2026-04-04T06:36:36.999Z</time></trkpt><trkpt lat="45.652608463873975" lon="10.020445907225778"><ele>189.0</ele><time>2026-04-04T06:36:37.999Z</time></trkpt><trkpt lat="45.65265510409551" lon="10.020355304372462"><ele>189.0</ele><time>2026-04-04T06:36:38.999Z</time></trkpt><trkpt lat="45.65270162263463" lon="10.020263507779571"><ele>189.0</ele><time>2026-04-04T06:36:39.999Z</time></trkpt><trkpt lat="45.652748232352664" lon="10.020174584265376"><ele>189.0</ele><time>2026-04-04T06:36:40.999Z</time></trkpt><trkpt lat="45.6527939853245" lon="10.020087519262836"><ele>189.0</ele><time>2026-04-04T06:36:41.999Z</time></trkpt><trkpt lat="45.652840331303956" lon="10.020003506139323"><ele>189.0</ele><time>2026-04-04T06:36:42.999Z</time></trkpt><trkpt lat="45.652887451774234" lon="10.019916665933037"><ele>189.0</ele><time>2026-04-04T06:36:43.999Z</time></trkpt><trkpt lat="45.65293369493174" lon="10.019830325827192"><ele>189.0</ele><time>2026-04-04T06:36:44.999Z</time></trkpt><trkpt lat="45.65297963545197" lon="10.019744891378924"><ele>189.0</ele><time>2026-04-04T06:36:45.999Z</time></trkpt><trkpt lat="45.6530243574535" lon="10.019659762151136"><ele>189.0</ele><time>2026-04-04T06:36:46.999Z</time></trkpt><trkpt lat="45.653071341062656" lon="10.019573879410249"><ele>189.0</ele><time>2026-04-04T06:36:47.999Z</time></trkpt><trkpt lat="45.65311981800273" lon="10.019488094199064"><ele>189.0</ele><time>2026-04-04T06:36:48.999Z</time></trkpt><trkpt lat="45.653166864647275" lon="10.019400121994106"><ele>189.0</ele><time>2026-04-04T06:36:49.999Z</time></trkpt><trkpt lat="45.653211466443516" lon="10.019309816554882"><ele>189.0</ele><time>2026-04-04T06:36:50.999Z</time></trkpt><trkpt lat="45.65325813158165" lon="10.019220596420954"><ele>189.0</ele><time>2026-04-04T06:36:51.999Z</time></trkpt><trkpt lat="45.653308092245084" lon="10.019133228147654"><ele>188.83333333333334</ele><time>2026-04-04T06:36:52.999Z</time></trkpt><trkpt lat="45.653354159905206" lon="10.01904605789813"><ele>188.66666666666666</ele><time>2026-04-04T06:36:53.999Z</time></trkpt><trkpt lat="45.653400764918416" lon="10.018956800768898"><ele>188.5</ele><time>2026-04-04T06:36:54.999Z</time></trkpt><trkpt lat="45.65344814449437" lon="10.018866237828478"><ele>188.33333333333331</ele><time>2026-04-04T06:36:55.999Z</time></trkpt><trkpt lat="45.653494032276726" lon="10.018777731498513"><ele>188.16666666666666</ele><time>2026-04-04T06:36:56.999Z</time></trkpt><trkpt lat="45.65354037379377" lon="10.018689703537596"><ele>188.0</ele><time>2026-04-04T06:36:57.999Z</time></trkpt><trkpt lat="45.65358596089646" lon="10.01860304912618"><ele>188.16666666666666</ele><time>2026-04-04T06:36:58.999Z</time></trkpt><trkpt lat="45.653631010632736" lon="10.018511598899117"><ele>188.33333333333331</ele><time>2026-04-04T06:36:59.999Z</time></trkpt><trkpt lat="45.65367707882499" lon="10.018427716539238"><ele>188.5</ele><time>2026-04-04T06:37:00.999Z</time></trkpt><trkpt lat="45.6537240787952" lon="10.018338753862693"><ele>188.66666666666666</ele><time>2026-04-04T06:37:01.999Z</time></trkpt><trkpt lat="45.653769041180325" lon="10.01824909930047"><ele>188.83333333333334</ele><time>2026-04-04T06:37:02.999Z</time></trkpt><trkpt lat="45.65381050848115" lon="10.01815722455393"><ele>189.0</ele><time>2026-04-04T06:37:03.999Z</time></trkpt><trkpt lat="45.65385198486193" lon="10.018065637089087"><ele>188.66666666666666</ele><time>2026-04-04T06:37:04.999Z</time></trkpt><trkpt lat="45.65389277094808" lon="10.017973699361272"><ele>188.33333333333334</ele><time>2026-04-04T06:37:05.999Z</time></trkpt><trkpt lat="45.653932465035396" lon="10.017879432829776"><ele>188.0</ele><time>2026-04-04T06:37:06.999Z</time></trkpt><trkpt lat="45.65396921090001" lon="10.017782806141806"><ele>187.66666666666669</ele><time>2026-04-04T06:37:07.999Z</time></trkpt><trkpt lat="45.654001742721455" lon="10.017682488837341"><ele>187.33333333333334</ele><time>2026-04-04T06:37:08.999Z</time></trkpt><trkpt lat="45.65403125915932" lon="10.017581312838848"><ele>187.0</ele><time>2026-04-04T06:37:09.999Z</time></trkpt><trkpt lat="45.654058052463874" lon="10.017477156175259"><ele>187.0</ele><time>2026-04-04T06:37:10.999Z</time></trkpt><trkpt lat="45.654083639275356" lon="10.017370771388476"><ele>187.0</ele><time>2026-04-04T06:37:11.999Z</time></trkpt><trkpt lat="45.65410555482689" lon="10.017262988677263"><ele>187.0</ele><time>2026-04-04T06:37:12.999Z</time></trkpt><trkpt lat="45.654124487989186" lon="10.017157250136966"><ele>187.0</ele><time>2026-04-04T06:37:13.999Z</time></trkpt><trkpt lat="45.65414215822634" lon="10.017049202195514"><ele>187.0</ele><time>2026-04-04T06:37:14.999Z</time></trkpt><trkpt lat="45.65416188221504" lon="10.016939748265772"><ele>187.0</ele><time>2026-04-04T06:37:15.999Z</time></trkpt><trkpt lat="45.654179224447944" lon="10.016829435555989"><ele>187.0</ele><time>2026-04-04T06:37:16.999Z</time></trkpt><trkpt lat="45.65419657694387" lon="10.016722630998942"><ele>187.0</ele><time>2026-04-04T06:37:17.999Z</time></trkpt><trkpt lat="45.65421378205174" lon="10.016614720633346"><ele>187.0</ele><time>2026-04-04T06:37:18.999Z</time></trkpt><trkpt lat="45.65422854509228" lon="10.01651008429513"><ele>187.0</ele><time>2026-04-04T06:37:19.999Z</time></trkpt><trkpt lat="45.654245405226334" lon="10.016405045609869"><ele>187.0</ele><time>2026-04-04T06:37:20.999Z</time></trkpt><trkpt lat="45.65426294185265" lon="10.016300313127703"><ele>187.0</ele><time>2026-04-04T06:37:21.999Z</time></trkpt><trkpt lat="45.65428075584891" lon="10.01619485915883"><ele>187.16666666666669</ele><time>2026-04-04T06:37:22.999Z</time></trkpt><trkpt lat="45.65429791461954" lon="10.016087847875493"><ele>187.33333333333334</ele><time>2026-04-04T06:37:23.999Z</time></trkpt><trkpt lat="45.65431804818316" lon="10.015981829843646"><ele>187.5</ele><time>2026-04-04T06:37:24.999Z</time></trkpt><trkpt lat="45.654335277021886" lon="10.01587713791732"><ele>187.66666666666666</ele><time>2026-04-04T06:37:25.999Z</time></trkpt><trkpt lat="45.654352167236006" lon="10.01577207853994"><ele>187.83333333333331</ele><time>2026-04-04T06:37:26.999Z</time></trkpt><trkpt lat="45.654369711841824" lon="10.015663250965938"><ele>188.0</ele><time>2026-04-04T06:37:27.999Z</time></trkpt><trkpt lat="45.65438598021746" lon="10.015556623794843"><ele>188.33333333333331</ele><time>2026-04-04T06:37:28.999Z</time></trkpt><trkpt lat="45.65440061903982" lon="10.01544993001946"><ele>188.66666666666666</ele><time>2026-04-04T06:37:29.999Z</time></trkpt><trkpt lat="45.65442154990259" lon="10.01534341628411"><ele>189.0</ele><time>2026-04-04T06:37:30.998Z</time></trkpt><trkpt lat="45.65444156943046" lon="10.015237511036986"><ele>189.33333333333334</ele><time>2026-04-04T06:37:31.998Z</time></trkpt><trkpt lat="45.654456134605304" lon="10.01512999725094"><ele>189.66666666666669</ele><time>2026-04-04T06:37:32.998Z</time></trkpt><trkpt lat="45.65447364047431" lon="10.015024836561548"><ele>190.0</ele><time>2026-04-04T06:37:33.998Z</time></trkpt><trkpt lat="45.6544878640672" lon="10.014919836947545"><ele>189.42857142857144</ele><time>2026-04-04T06:37:34.998Z</time></trkpt><trkpt lat="45.65450320091561" lon="10.014815504248936"><ele>188.85714285714286</ele><time>2026-04-04T06:37:35.998Z</time></trkpt><trkpt lat="45.65452104129759" lon="10.014709008697782"><ele>188.28571428571428</ele><time>2026-04-04T06:37:36.998Z</time></trkpt><trkpt lat="45.65453387356593" lon="10.014602369259844"><ele>187.71428571428572</ele><time>2026-04-04T06:37:37.998Z</time></trkpt><trkpt lat="45.6545530999554" lon="10.014497503796267"><ele>187.14285714285714</ele><time>2026-04-04T06:37:38.998Z</time></trkpt><trkpt lat="45.65456788724334" lon="10.014397114239076"><ele>186.57142857142858</ele><time>2026-04-04T06:37:39.998Z</time></trkpt><trkpt lat="45.65458500140331" lon="10.014295889942069"><ele>186.0</ele><time>2026-04-04T06:37:40.998Z</time></trkpt><trkpt lat="45.65460287219775" lon="10.01419067762914"><ele>186.2857142857143</ele><time>2026-04-04T06:37:41.998Z</time></trkpt><trkpt lat="45.65461895536817" lon="10.014089878993932"><ele>186.57142857142858</ele><time>2026-04-04T06:37:42.998Z</time></trkpt><trkpt lat="45.65463408452448" lon="10.013987139663074"><ele>186.85714285714286</ele><time>2026-04-04T06:37:43.998Z</time></trkpt><trkpt lat="45.654651043585766" lon="10.01388051124866"><ele>187.14285714285717</ele><time>2026-04-04T06:37:44.998Z</time></trkpt><trkpt lat="45.65466797982928" lon="10.013779258830146"><ele>187.42857142857142</ele><time>2026-04-04T06:37:45.998Z</time></trkpt><trkpt lat="45.654682356147404" lon="10.013679237681387"><ele>187.71428571428572</ele><time>2026-04-04T06:37:46.998Z</time></trkpt><trkpt lat="45.65470033657814" lon="10.013577320299914"><ele>188.0</ele><time>2026-04-04T06:37:47.998Z</time></trkpt><trkpt lat="45.65471696928989" lon="10.013475780964669"><ele>188.0</ele><time>2026-04-04T06:37:48.998Z</time></trkpt><trkpt lat="45.65473436642584" lon="10.013373683812999"><ele>188.0</ele><time>2026-04-04T06:37:49.998Z</time></trkpt><trkpt lat="45.65474602997472" lon="10.013274698850738"><ele>188.0</ele><time>2026-04-04T06:37:50.998Z</time></trkpt><trkpt lat="45.65476406638167" lon="10.013174141042054"><ele>188.0</ele><time>2026-04-04T06:37:51.998Z</time></trkpt><trkpt lat="45.65478235317337" lon="10.013073677960731"><ele>188.0</ele><time>2026-04-04T06:37:52.998Z</time></trkpt><trkpt lat="45.654794915402924" lon="10.012975205560199"><ele>188.0</ele><time>2026-04-04T06:37:53.998Z</time></trkpt><trkpt lat="45.65481101835528" lon="10.012877164096855"><ele>188.0</ele><time>2026-04-04T06:37:54.998Z</time></trkpt><trkpt lat="45.65482657814684" lon="10.012787087154987"><ele>188.28571428571428</ele><time>2026-04-04T06:37:55.998Z</time></trkpt><trkpt lat="45.65483977490172" lon="10.012696109883132"><ele>188.57142857142856</ele><time>2026-04-04T06:37:56.998Z</time></trkpt><trkpt lat="45.65485594404104" lon="10.01259969029194"><ele>188.85714285714286</ele><time>2026-04-04T06:37:58Z</time></trkpt><trkpt lat="45.65487024761024" lon="10.012503416458438"><ele>189.14285714285714</ele><time>2026-04-04T06:37:59Z</time></trkpt><trkpt lat="45.654885825423996" lon="10.012405244637335"><ele>189.42857142857144</ele><time>2026-04-04T06:38:00Z</time></trkpt><trkpt lat="45.654899297388795" lon="10.012306140627842"><ele>189.71428571428572</ele><time>2026-04-04T06:38:01Z</time></trkpt><trkpt lat="45.65491542045797" lon="10.012207641778078"><ele>190.0</ele><time>2026-04-04T06:38:02Z</time></trkpt><trkpt lat="45.65493105036614" lon="10.01211400410574"><ele>190.14285714285714</ele><time>2026-04-04T06:38:03Z</time></trkpt><trkpt lat="45.65495047066739" lon="10.012013664051947"><ele>190.28571428571428</ele><time>2026-04-04T06:38:04Z</time></trkpt><trkpt lat="45.65496709253137" lon="10.011919336150555"><ele>190.42857142857144</ele><time>2026-04-04T06:38:05Z</time></trkpt><trkpt lat="45.65498214624873" lon="10.01182162585326"><ele>190.57142857142856</ele><time>2026-04-04T06:38:06Z</time></trkpt><trkpt lat="45.65499669775474" lon="10.0117218978208"><ele>190.7142857142857</ele><time>2026-04-04T06:38:07Z</time></trkpt><trkpt lat="45.6550146987272" lon="10.011620921693293"><ele>190.85714285714286</ele><time>2026-04-04T06:38:08Z</time></trkpt><trkpt lat="45.65503025146586" lon="10.011521292567153"><ele>191.0</ele><time>2026-04-04T06:38:09Z</time></trkpt><trkpt lat="45.65504430288444" lon="10.011422674014256"><ele>191.0</ele><time>2026-04-04T06:38:10Z</time></trkpt><trkpt lat="45.65506061349633" lon="10.01132528788949"><ele>191.0</ele><time>2026-04-04T06:38:11Z</time></trkpt><trkpt lat="45.655075750681135" lon="10.011226900149914"><ele>191.0</ele><time>2026-04-04T06:38:12Z</time></trkpt><trkpt lat="45.65508834221936" lon="10.011126865493537"><ele>191.0</ele><time>2026-04-04T06:38:13Z</time></trkpt><trkpt lat="45.655105442370434" lon="10.011027849393816"><ele>191.0</ele><time>2026-04-04T06:38:14Z</time></trkpt><trkpt lat="45.65511880699997" lon="10.01092745301386"><ele>191.0</ele><time>2026-04-04T06:38:15Z</time></trkpt><trkpt lat="45.65513607552459" lon="10.010829830565804"><ele>191.0</ele><time>2026-04-04T06:38:16Z</time></trkpt><trkpt lat="45.65515165798258" lon="10.010730021509243"><ele>191.42857142857144</ele><time>2026-04-04T06:38:17Z</time></trkpt><trkpt lat="45.65516797223958" lon="10.010630597508051"><ele>191.85714285714283</ele><time>2026-04-04T06:38:18Z</time></trkpt><trkpt lat="45.6551813956978" lon="10.010532002753704"><ele>192.28571428571428</ele><time>2026-04-04T06:38:19Z</time></trkpt><trkpt lat="45.655195454023925" lon="10.010433053897108"><ele>192.71428571428572</ele><time>2026-04-04T06:38:20Z</time></trkpt><trkpt lat="45.655212023290225" lon="10.010335453473756"><ele>193.14285714285717</ele><time>2026-04-04T06:38:21Z</time></trkpt><trkpt lat="45.65523288349779" lon="10.010237074957766"><ele>193.57142857142856</ele><time>2026-04-04T06:38:22Z</time></trkpt><trkpt lat="45.65525421216866" lon="10.010137708094486"><ele>194.0</ele><time>2026-04-04T06:38:23Z</time></trkpt><trkpt lat="45.65527456533051" lon="10.010035935536596"><ele>194.28571428571428</ele><time>2026-04-04T06:38:24Z</time></trkpt><trkpt lat="45.6552979508046" lon="10.009942382692973"><ele>194.57142857142858</ele><time>2026-04-04T06:38:25Z</time></trkpt><trkpt lat="45.65532713354048" lon="10.009853488552695"><ele>194.85714285714286</ele><time>2026-04-04T06:38:26Z</time></trkpt><trkpt lat="45.65536070024785" lon="10.009764991446854"><ele>195.14285714285714</ele><time>2026-04-04T06:38:27Z</time></trkpt><trkpt lat="45.65539536637975" lon="10.00967827157154"><ele>195.42857142857144</ele><time>2026-04-04T06:38:28Z</time></trkpt><trkpt lat="45.655433758720996" lon="10.00958996114283"><ele>195.71428571428572</ele><time>2026-04-04T06:38:29Z</time></trkpt><trkpt lat="45.65547652923675" lon="10.009504637610839"><ele>196.0</ele><time>2026-04-04T06:38:30Z</time></trkpt><trkpt lat="45.65552004379298" lon="10.009423788623591"><ele>196.0</ele><time>2026-04-04T06:38:31Z</time></trkpt><trkpt lat="45.65556755133308" lon="10.009348206117558"><ele>196.0</ele><time>2026-04-04T06:38:32Z</time></trkpt><trkpt lat="45.65562003114178" lon="10.009276795250662"><ele>196.0</ele><time>2026-04-04T06:38:33Z</time></trkpt><trkpt lat="45.65567340960149" lon="10.009207049564052"><ele>196.0</ele><time>2026-04-04T06:38:34Z</time></trkpt><trkpt lat="45.655731026637085" lon="10.009144462053346"><ele>196.0</ele><time>2026-04-04T06:38:35Z</time></trkpt><trkpt lat="45.65579077362352" lon="10.009083716684538"><ele>196.0</ele><time>2026-04-04T06:38:36Z</time></trkpt><trkpt lat="45.65584986854121" lon="10.009026813929596"><ele>196.0</ele><time>2026-04-04T06:38:37Z</time></trkpt><trkpt lat="45.65591289766187" lon="10.008969544768942"><ele>196.0</ele><time>2026-04-04T06:38:38Z</time></trkpt><trkpt lat="45.655975422032384" lon="10.008914308356198"><ele>196.0</ele><time>2026-04-04T06:38:39Z</time></trkpt><trkpt lat="45.65603706141939" lon="10.008862271261787"><ele>196.0</ele><time>2026-04-04T06:38:40Z</time></trkpt><trkpt lat="45.65609501492009" lon="10.008807738335538"><ele>196.0</ele><time>2026-04-04T06:38:41Z</time></trkpt><trkpt lat="45.656155884207216" lon="10.0087568460612"><ele>196.0</ele><time>2026-04-04T06:38:42Z</time></trkpt><trkpt lat="45.65621568340481" lon="10.008703043973254"><ele>196.0</ele><time>2026-04-04T06:38:42.999Z</time></trkpt><trkpt lat="45.6562752003558" lon="10.00864982815827"><ele>196.0</ele><time>2026-04-04T06:38:43.999Z</time></trkpt><trkpt lat="45.65633703945647" lon="10.008596655113973"><ele>196.0</ele><time>2026-04-04T06:38:44.999Z</time></trkpt><trkpt lat="45.65640125276266" lon="10.008544316038243"><ele>196.0</ele><time>2026-04-04T06:38:45.999Z</time></trkpt><trkpt lat="45.65646277980842" lon="10.008489798904954"><ele>196.0</ele><time>2026-04-04T06:38:46.999Z</time></trkpt><trkpt lat="45.65652516143195" lon="10.008436070972857"><ele>196.0</ele><time>2026-04-04T06:38:47.999Z</time></trkpt><trkpt lat="45.65658615665686" lon="10.008383013474955"><ele>196.0</ele><time>2026-04-04T06:38:48.999Z</time></trkpt><trkpt lat="45.656646310116535" lon="10.00832610998368"><ele>196.0</ele><time>2026-04-04T06:38:49.999Z</time></trkpt><trkpt lat="45.656707172058645" lon="10.008270206758226"><ele>196.0</ele><time>2026-04-04T06:38:50.999Z</time></trkpt><trkpt lat="45.656769908344806" lon="10.00821666153157"><ele>196.0</ele><time>2026-04-04T06:38:51.999Z</time></trkpt><trkpt lat="45.656832615076254" lon="10.008161868151623"><ele>196.0</ele><time>2026-04-04T06:38:52.999Z</time></trkpt><trkpt lat="45.65689658124516" lon="10.008109138411486"><ele>196.0</ele><time>2026-04-04T06:38:53.999Z</time></trkpt><trkpt lat="45.656959655009715" lon="10.00805285895142"><ele>196.0</ele><time>2026-04-04T06:38:54.999Z</time></trkpt><trkpt lat="45.657024991094524" lon="10.007997904712687"><ele>196.0</ele><time>2026-04-04T06:38:55.999Z</time></trkpt><trkpt lat="45.65708819043507" lon="10.007941440026643"><ele>196.0</ele><time>2026-04-04T06:38:56.999Z</time></trkpt><trkpt lat="45.657151573612744" lon="10.007885670003487"><ele>196.0</ele><time>2026-04-04T06:38:57.999Z</time></trkpt><trkpt lat="45.65721349875583" lon="10.007825937818165"><ele>195.99999999999997</ele><time>2026-04-04T06:38:58.999Z</time></trkpt><trkpt lat="45.65727672036489" lon="10.007766359074473"><ele>196.0</ele><time>2026-04-04T06:38:59.999Z</time></trkpt><trkpt lat="45.65734059713349" lon="10.007705846268488"><ele>196.0</ele><time>2026-04-04T06:39:00.999Z</time></trkpt><trkpt lat="45.65740353494408" lon="10.007641545405772"><ele>196.0</ele><time>2026-04-04T06:39:01.999Z</time></trkpt><trkpt lat="45.65746545883762" lon="10.007571190731193"><ele>195.99999999999997</ele><time>2026-04-04T06:39:02.999Z</time></trkpt><trkpt lat="45.657528065076775" lon="10.00750330169402"><ele>196.0</ele><time>2026-04-04T06:39:03.999Z</time></trkpt><trkpt lat="45.65758959967088" lon="10.007428651614056"><ele>195.66666666666666</ele><time>2026-04-04T06:39:04.999Z</time></trkpt><trkpt lat="45.65765036645073" lon="10.0073505026053"><ele>195.33333333333331</ele><time>2026-04-04T06:39:05.999Z</time></trkpt><trkpt lat="45.65770997532257" lon="10.007270347756368"><ele>195.0</ele><time>2026-04-04T06:39:06.999Z</time></trkpt><trkpt lat="45.65776670083314" lon="10.007187364638169"><ele>194.66666666666669</ele><time>2026-04-04T06:39:07.999Z</time></trkpt><trkpt lat="45.657823612237976" lon="10.007102639923227"><ele>194.33333333333334</ele><time>2026-04-04T06:39:08.999Z</time></trkpt><trkpt lat="45.657876978541545" lon="10.00701143828691"><ele>194.0</ele><time>2026-04-04T06:39:09.999Z</time></trkpt><trkpt lat="45.657927502597744" lon="10.006919211355092"><ele>194.00000000000003</ele><time>2026-04-04T06:39:10.999Z</time></trkpt><trkpt lat="45.65797658059356" lon="10.006825623719035"><ele>194.0</ele><time>2026-04-04T06:39:11.999Z</time></trkpt><trkpt lat="45.658027021931304" lon="10.006730924233327"><ele>194.0</ele><time>2026-04-04T06:39:12.999Z</time></trkpt><trkpt lat="45.65807343078164" lon="10.0066326518269"><ele>194.0</ele><time>2026-04-04T06:39:13.999Z</time></trkpt><trkpt lat="45.65811963260629" lon="10.006533476918923"><ele>194.00000000000003</ele><time>2026-04-04T06:39:14.999Z</time></trkpt><trkpt lat="45.658164801226135" lon="10.00643101817216"><ele>194.0</ele><time>2026-04-04T06:39:15.999Z</time></trkpt><trkpt lat="45.65821115599707" lon="10.006328227251798"><ele>193.66666666666669</ele><time>2026-04-04T06:39:16.999Z</time></trkpt><trkpt lat="45.65825864377745" lon="10.006224414693824"><ele>193.33333333333334</ele><time>2026-04-04T06:39:17.999Z</time></trkpt><trkpt lat="45.65830787096869" lon="10.006123152464735"><ele>193.0</ele><time>2026-04-04T06:39:18.999Z</time></trkpt><trkpt lat="45.65835816579271" lon="10.00601951386"><ele>192.66666666666669</ele><time>2026-04-04T06:39:19.999Z</time></trkpt><trkpt lat="45.65840590051426" lon="10.005916915566814"><ele>192.33333333333334</ele><time>2026-04-04T06:39:20.999Z</time></trkpt><trkpt lat="45.65845272210495" lon="10.005812215180805"><ele>192.0</ele><time>2026-04-04T06:39:21.999Z</time></trkpt><trkpt lat="45.658499438537966" lon="10.005707699831397"><ele>191.83333333333334</ele><time>2026-04-04T06:39:22.999Z</time></trkpt><trkpt lat="45.65854613087927" lon="10.005605093346366"><ele>191.66666666666666</ele><time>2026-04-04T06:39:23.999Z</time></trkpt><trkpt lat="45.65859283492804" lon="10.005502224974204"><ele>191.5</ele><time>2026-04-04T06:39:24.999Z</time></trkpt><trkpt lat="45.65864001474362" lon="10.005399542108838"><ele>191.33333333333331</ele><time>2026-04-04T06:39:25.999Z</time></trkpt><trkpt lat="45.65868722951097" lon="10.005296592591556"><ele>191.16666666666666</ele><time>2026-04-04T06:39:26.999Z</time></trkpt><trkpt lat="45.65873389073289" lon="10.005194849646632"><ele>191.0</ele><time>2026-04-04T06:39:27.999Z</time></trkpt><trkpt lat="45.658781712609354" lon="10.005093257290854"><ele>191.0</ele><time>2026-04-04T06:39:28.999Z</time></trkpt><trkpt lat="45.65882802506833" lon="10.00499073631891"><ele>191.0</ele><time>2026-04-04T06:39:29.999Z</time></trkpt><trkpt lat="45.65887633069696" lon="10.004890909828738"><ele>191.0</ele><time>2026-04-04T06:39:30.999Z</time></trkpt><trkpt lat="45.658929679827956" lon="10.004796541780525"><ele>191.0</ele><time>2026-04-04T06:39:31.999Z</time></trkpt><trkpt lat="45.6589822230848" lon="10.004702653893382"><ele>191.0</ele><time>2026-04-04T06:39:32.999Z</time></trkpt><trkpt lat="45.65903821604666" lon="10.00461349395341"><ele>191.0</ele><time>2026-04-04T06:39:33.999Z</time></trkpt><trkpt lat="45.65909545079037" lon="10.00452659816608"><ele>191.0</ele><time>2026-04-04T06:39:34.999Z</time></trkpt><trkpt lat="45.65915323271986" lon="10.004439936607122"><ele>191.0</ele><time>2026-04-04T06:39:35.999Z</time></trkpt><trkpt lat="45.65921469699232" lon="10.004352468991176"><ele>191.0</ele><time>2026-04-04T06:39:36.998Z</time></trkpt><trkpt lat="45.659272960174604" lon="10.004269998143423"><ele>191.0</ele><time>2026-04-04T06:39:37.998Z</time></trkpt><trkpt lat="45.65933940256668" lon="10.004192342188862"><ele>191.0</ele><time>2026-04-04T06:39:38.998Z</time></trkpt><trkpt lat="45.659400679010325" lon="10.004114929941087"><ele>191.0</ele><time>2026-04-04T06:39:39.998Z</time></trkpt><trkpt lat="45.65946598467323" lon="10.00403903006777"><ele>191.16666666666666</ele><time>2026-04-04T06:39:40.998Z</time></trkpt><trkpt lat="45.659525994792446" lon="10.003960111071482"><ele>191.33333333333331</ele><time>2026-04-04T06:39:41.998Z</time></trkpt><trkpt lat="45.659587634235976" lon="10.003880579288472"><ele>191.5</ele><time>2026-04-04T06:39:42.998Z</time></trkpt><trkpt lat="45.65964784714631" lon="10.003802706996728"><ele>191.66666666666666</ele><time>2026-04-04T06:39:43.998Z</time></trkpt><trkpt lat="45.65970794229302" lon="10.003726471375295"><ele>191.83333333333334</ele><time>2026-04-04T06:39:44.998Z</time></trkpt><trkpt lat="45.659767382125345" lon="10.003650970954679"><ele>192.0</ele><time>2026-04-04T06:39:45.998Z</time></trkpt><trkpt lat="45.65982590537309" lon="10.003578809049964"><ele>191.99999999999997</ele><time>2026-04-04T06:39:46.998Z</time></trkpt><trkpt lat="45.65988305359034" lon="10.003506470578683"><ele>192.0</ele><time>2026-04-04T06:39:47.998Z</time></trkpt><trkpt lat="45.65994027870536" lon="10.003435884523956"><ele>192.0</ele><time>2026-04-04T06:39:48.998Z</time></trkpt><trkpt lat="45.65999706712245" lon="10.003368171521263"><ele>192.0</ele><time>2026-04-04T06:39:49.998Z</time></trkpt><trkpt lat="45.66005336417846" lon="10.003304177981644"><ele>192.0</ele><time>2026-04-04T06:39:50.998Z</time></trkpt><trkpt lat="45.660108259788515" lon="10.003236033958641"><ele>191.99999999999997</ele><time>2026-04-04T06:39:51.998Z</time></trkpt><trkpt lat="45.66016363652571" lon="10.003172975213552"><ele>192.0</ele><time>2026-04-04T06:39:52.998Z</time></trkpt><trkpt lat="45.66021942526326" lon="10.003110174978733"><ele>192.28571428571428</ele><time>2026-04-04T06:39:53.998Z</time></trkpt><trkpt lat="45.660270010481405" lon="10.00303625619177"><ele>192.57142857142856</ele><time>2026-04-04T06:39:54.998Z</time></trkpt><trkpt lat="45.66031855791121" lon="10.002961129044241"><ele>192.85714285714283</ele><time>2026-04-04T06:39:55.998Z</time></trkpt><trkpt lat="45.66037007702032" lon="10.00288586790988"><ele>193.14285714285714</ele><time>2026-04-04T06:39:56.998Z</time></trkpt><trkpt lat="45.66042053364478" lon="10.002808784642289"><ele>193.42857142857144</ele><time>2026-04-04T06:39:57.998Z</time></trkpt><trkpt lat="45.66047179347486" lon="10.002733592149731"><ele>193.7142857142857</ele><time>2026-04-04T06:39:58.998Z</time></trkpt><trkpt lat="45.660527070338595" lon="10.002661324669305"><ele>194.0</ele><time>2026-04-04T06:39:59.998Z</time></trkpt><trkpt lat="45.66058058167531" lon="10.002585256652063"><ele>194.0</ele><time>2026-04-04T06:40:00.998Z</time></trkpt><trkpt lat="45.66062941813558" lon="10.00250225878124"><ele>194.0</ele><time>2026-04-04T06:40:01.998Z</time></trkpt><trkpt lat="45.660677544836425" lon="10.002416126406573"><ele>194.0</ele><time>2026-04-04T06:40:02.998Z</time></trkpt><trkpt lat="45.66072313028219" lon="10.002332912183254"><ele>194.0</ele><time>2026-04-04T06:40:04Z</time></trkpt><trkpt lat="45.66077093487194" lon="10.002251943214882"><ele>194.0</ele><time>2026-04-04T06:40:05Z</time></trkpt><trkpt lat="45.66081521097829" lon="10.002169395422877"><ele>194.0</ele><time>2026-04-04T06:40:06Z</time></trkpt><trkpt lat="45.66086774683616" lon="10.002091139586216"><ele>194.0</ele><time>2026-04-04T06:40:07Z</time></trkpt><trkpt lat="45.66091619079583" lon="10.002008772820362"><ele>194.00000000000003</ele><time>2026-04-04T06:40:08Z</time></trkpt><trkpt lat="45.660965202772076" lon="10.00192552197788"><ele>194.0</ele><time>2026-04-04T06:40:09Z</time></trkpt><trkpt lat="45.66101581036678" lon="10.001842339740472"><ele>194.0</ele><time>2026-04-04T06:40:10Z</time></trkpt><trkpt lat="45.66106258797129" lon="10.001757445258857"><ele>194.0</ele><time>2026-04-04T06:40:11Z</time></trkpt><trkpt lat="45.66111200296776" lon="10.001677039583736"><ele>194.00000000000003</ele><time>2026-04-04T06:40:12Z</time></trkpt><trkpt lat="45.661156504201614" lon="10.001589837766694"><ele>194.0</ele><time>2026-04-04T06:40:13Z</time></trkpt><trkpt lat="45.66120622504403" lon="10.001508759488553"><ele>194.14285714285714</ele><time>2026-04-04T06:40:14Z</time></trkpt><trkpt lat="45.66125917432584" lon="10.001425626872287"><ele>194.2857142857143</ele><time>2026-04-04T06:40:15Z</time></trkpt><trkpt lat="45.6613064615453" lon="10.00133744868642"><ele>194.42857142857144</ele><time>2026-04-04T06:40:16Z</time></trkpt><trkpt lat="45.66135598498985" lon="10.001260118347187"><ele>194.57142857142856</ele><time>2026-04-04T06:40:17Z</time></trkpt><trkpt lat="45.661399822448125" lon="10.001176583067446"><ele>194.71428571428572</ele><time>2026-04-04T06:40:18Z</time></trkpt><trkpt lat="45.661455003610484" lon="10.001106656296528"><ele>194.85714285714286</ele><time>2026-04-04T06:40:19Z</time></trkpt><trkpt lat="45.66150437430572" lon="10.001030734476563"><ele>195.0</ele><time>2026-04-04T06:40:20Z</time></trkpt><trkpt lat="45.661557269490416" lon="10.000963244553027"><ele>195.0</ele><time>2026-04-04T06:40:21Z</time></trkpt><trkpt lat="45.661613093238316" lon="10.000897614275905"><ele>195.0</ele><time>2026-04-04T06:40:22Z</time></trkpt><trkpt lat="45.6616691634412" lon="10.0008317246253"><ele>195.0</ele><time>2026-04-04T06:40:23Z</time></trkpt><trkpt lat="45.661730855554545" lon="10.00076957064201"><ele>195.0</ele><time>2026-04-04T06:40:24Z</time></trkpt><trkpt lat="45.66179001859469" lon="10.000706221814518"><ele>195.0</ele><time>2026-04-04T06:40:25Z</time></trkpt><trkpt lat="45.661850900322456" lon="10.000639916077931"><ele>195.0</ele><time>2026-04-04T06:40:26Z</time></trkpt><trkpt lat="45.661912801995186" lon="10.000573601078312"><ele>195.0</ele><time>2026-04-04T06:40:27Z</time></trkpt><trkpt lat="45.661972540959376" lon="10.000509903342993"><ele>194.5</ele><time>2026-04-04T06:40:28Z</time></trkpt><trkpt lat="45.66203480639618" lon="10.000445035107994"><ele>194.0</ele><time>2026-04-04T06:40:29Z</time></trkpt><trkpt lat="45.66209385491305" lon="10.000377938569926"><ele>193.5</ele><time>2026-04-04T06:40:30Z</time></trkpt><trkpt lat="45.662158665215586" lon="10.000312819796815"><ele>193.0</ele><time>2026-04-04T06:40:31Z</time></trkpt><trkpt lat="45.66222250503864" lon="10.000245310870381"><ele>192.5</ele><time>2026-04-04T06:40:32Z</time></trkpt><trkpt lat="45.662281156606724" lon="10.000172402049738"><ele>192.0</ele><time>2026-04-04T06:40:33Z</time></trkpt><trkpt lat="45.66235557092043" lon="10.00010737837857"><ele>192.0</ele><time>2026-04-04T06:40:34Z</time></trkpt><trkpt lat="45.662419508274645" lon="10.000039508745282"><ele>192.0</ele><time>2026-04-04T06:40:35Z</time></trkpt><trkpt lat="45.66248801846726" lon="9.99996804321136"><ele>192.0</ele><time>2026-04-04T06:40:36Z</time></trkpt><trkpt lat="45.66255214546998" lon="9.999896214258323"><ele>192.0</ele><time>2026-04-04T06:40:37Z</time></trkpt><trkpt lat="45.662616672259844" lon="9.999821516852322"><ele>192.0</ele><time>2026-04-04T06:40:38Z</time></trkpt><trkpt lat="45.66268107764712" lon="9.999748378567448"><ele>192.0</ele><time>2026-04-04T06:40:39Z</time></trkpt><trkpt lat="45.66274767869838" lon="9.999676107839514"><ele>191.66666666666666</ele><time>2026-04-04T06:40:40Z</time></trkpt><trkpt lat="45.66281432477437" lon="9.999602028510568"><ele>191.33333333333334</ele><time>2026-04-04T06:40:41Z</time></trkpt><trkpt lat="45.66287957829865" lon="9.999526631563135"><ele>191.0</ele><time>2026-04-04T06:40:42Z</time></trkpt><trkpt lat="45.66294703686636" lon="9.999451841042136"><ele>190.66666666666669</ele><time>2026-04-04T06:40:43Z</time></trkpt><trkpt lat="45.66301478382934" lon="9.999376856107464"><ele>190.33333333333334</ele><time>2026-04-04T06:40:44Z</time></trkpt><trkpt lat="45.66308250112999" lon="9.999300122190364"><ele>190.0</ele><time>2026-04-04T06:40:45Z</time></trkpt><trkpt lat="45.66315144284227" lon="9.999223609208412"><ele>189.8</ele><time>2026-04-04T06:40:46Z</time></trkpt><trkpt lat="45.663228478546756" lon="9.999148603744532"><ele>189.6</ele><time>2026-04-04T06:40:46.999Z</time></trkpt><trkpt lat="45.663302411532314" lon="9.999072624441872"><ele>189.39999999999998</ele><time>2026-04-04T06:40:47.999Z</time></trkpt><trkpt lat="45.663377265086645" lon="9.998993487587303"><ele>189.2</ele><time>2026-04-04T06:40:48.999Z</time></trkpt><trkpt lat="45.663452758563295" lon="9.998915975990467"><ele>189.0</ele><time>2026-04-04T06:40:49.999Z</time></trkpt><trkpt lat="45.66352751845477" lon="9.998835787492387"><ele>189.0</ele><time>2026-04-04T06:40:50.999Z</time></trkpt><trkpt lat="45.663601892552386" lon="9.99875581197449"><ele>189.0</ele><time>2026-04-04T06:40:51.999Z</time></trkpt><trkpt lat="45.66367751677325" lon="9.998675288128487"><ele>189.0</ele><time>2026-04-04T06:40:52.999Z</time></trkpt><trkpt lat="45.66375316801538" lon="9.998594641191591"><ele>189.0</ele><time>2026-04-04T06:40:53.999Z</time></trkpt><trkpt lat="45.66382583848828" lon="9.998515449177019"><ele>189.0</ele><time>2026-04-04T06:40:54.999Z</time></trkpt><trkpt lat="45.66389909151247" lon="9.99843292257309"><ele>188.79999999999998</ele><time>2026-04-04T06:40:55.999Z</time></trkpt><trkpt lat="45.66397024066872" lon="9.998355377815468"><ele>188.6</ele><time>2026-04-04T06:40:56.999Z</time></trkpt><trkpt lat="45.66404179707693" lon="9.998275025505276"><ele>188.4</ele><time>2026-04-04T06:40:57.999Z</time></trkpt><trkpt lat="45.664113680914696" lon="9.998192438916087"><ele>188.2</ele><time>2026-04-04T06:40:58.999Z</time></trkpt><trkpt lat="45.664183887849795" lon="9.998106825148495"><ele>188.0</ele><time>2026-04-04T06:40:59.999Z</time></trkpt><trkpt lat="45.66424739321256" lon="9.998015516049106"><ele>188.0</ele><time>2026-04-04T06:41:00.999Z</time></trkpt><trkpt lat="45.66430693861401" lon="9.99791949901456"><ele>188.0</ele><time>2026-04-04T06:41:01.999Z</time></trkpt><trkpt lat="45.6643624704286" lon="9.997822820107759"><ele>188.0</ele><time>2026-04-04T06:41:02.999Z</time></trkpt><trkpt lat="45.66441910989596" lon="9.997724587890966"><ele>188.0</ele><time>2026-04-04T06:41:03.999Z</time></trkpt><trkpt lat="45.66447285218502" lon="9.997624258777977"><ele>188.0</ele><time>2026-04-04T06:41:04.999Z</time></trkpt><trkpt lat="45.66452240993781" lon="9.997522404505762"><ele>188.0</ele><time>2026-04-04T06:41:05.999Z</time></trkpt><trkpt lat="45.664568076009935" lon="9.997415741752286"><ele>187.83333333333331</ele><time>2026-04-04T06:41:06.999Z</time></trkpt><trkpt lat="45.66460835345686" lon="9.99730772268537"><ele>187.66666666666666</ele><time>2026-04-04T06:41:07.999Z</time></trkpt><trkpt lat="45.66464670402322" lon="9.99720028823552"><ele>187.5</ele><time>2026-04-04T06:41:08.999Z</time></trkpt><trkpt lat="45.664683152292476" lon="9.997091560713153"><ele>187.33333333333334</ele><time>2026-04-04T06:41:09.999Z</time></trkpt><trkpt lat="45.664716836779945" lon="9.996981786517562"><ele>187.16666666666669</ele><time>2026-04-04T06:41:10.999Z</time></trkpt><trkpt lat="45.664746717348656" lon="9.996868708944262"><ele>187.0</ele><time>2026-04-04T06:41:11.999Z</time></trkpt><trkpt lat="45.66477536372514" lon="9.996752291546157"><ele>187.16666666666669</ele><time>2026-04-04T06:41:12.999Z</time></trkpt><trkpt lat="45.664801233709795" lon="9.996636291982279"><ele>187.33333333333334</ele><time>2026-04-04T06:41:13.999Z</time></trkpt><trkpt lat="45.66482328803826" lon="9.996518206181781"><ele>187.5</ele><time>2026-04-04T06:41:14.999Z</time></trkpt><trkpt lat="45.66484212723062" lon="9.9964003620846"><ele>187.66666666666666</ele><time>2026-04-04T06:41:15.999Z</time></trkpt><trkpt lat="45.66485960297893" lon="9.996280074194026"><ele>187.83333333333331</ele><time>2026-04-04T06:41:16.999Z</time></trkpt><trkpt lat="45.664875082710545" lon="9.996160412566427"><ele>188.0</ele><time>2026-04-04T06:41:17.999Z</time></trkpt><trkpt lat="45.664891874860594" lon="9.996036938442591"><ele>188.0</ele><time>2026-04-04T06:41:18.999Z</time></trkpt><trkpt lat="45.66490784458572" lon="9.99591267317475"><ele>188.0</ele><time>2026-04-04T06:41:19.999Z</time></trkpt><trkpt lat="45.66492327809781" lon="9.995788921529567"><ele>188.0</ele><time>2026-04-04T06:41:20.999Z</time></trkpt><trkpt lat="45.664937599329676" lon="9.995664771133336"><ele>188.0</ele><time>2026-04-04T06:41:21.999Z</time></trkpt><trkpt lat="45.66495263194095" lon="9.995544039724544"><ele>188.0</ele><time>2026-04-04T06:41:22.999Z</time></trkpt><trkpt lat="45.6649717467629" lon="9.995419082436902"><ele>188.0</ele><time>2026-04-04T06:41:23.999Z</time></trkpt><trkpt lat="45.6649873651146" lon="9.995297332972905"><ele>188.33333333333331</ele><time>2026-04-04T06:41:24.999Z</time></trkpt><trkpt lat="45.66500383787413" lon="9.995173603762176"><ele>188.66666666666666</ele><time>2026-04-04T06:41:25.999Z</time></trkpt><trkpt lat="45.665020301381574" lon="9.99505115619324"><ele>189.0</ele><time>2026-04-04T06:41:26.999Z</time></trkpt><trkpt lat="45.66503492836309" lon="9.994927612188997"><ele>189.33333333333334</ele><time>2026-04-04T06:41:27.999Z</time></trkpt><trkpt lat="45.66504802979976" lon="9.994806621419109"><ele>189.66666666666669</ele><time>2026-04-04T06:41:28.999Z</time></trkpt><trkpt lat="45.66506415754821" lon="9.994689152919182"><ele>190.0</ele><time>2026-04-04T06:41:29.999Z</time></trkpt><trkpt lat="45.66508037462553" lon="9.994568958063509"><ele>190.16666666666669</ele><time>2026-04-04T06:41:30.999Z</time></trkpt><trkpt lat="45.66509486603531" lon="9.99444999652727"><ele>190.33333333333334</ele><time>2026-04-04T06:41:31.999Z</time></trkpt><trkpt lat="45.66510919327394" lon="9.99433152503242"><ele>190.5</ele><time>2026-04-04T06:41:32.999Z</time></trkpt><trkpt lat="45.665124543073766" lon="9.99421384539513"><ele>190.66666666666666</ele><time>2026-04-04T06:41:33.999Z</time></trkpt><trkpt lat="45.66514024599789" lon="9.994095867029996"><ele>190.83333333333331</ele><time>2026-04-04T06:41:34.999Z</time></trkpt><trkpt lat="45.6651544047516" lon="9.993978019322805"><ele>191.0</ele><time>2026-04-04T06:41:35.999Z</time></trkpt><trkpt lat="45.66517020082249" lon="9.993859686428415"><ele>191.33333333333331</ele><time>2026-04-04T06:41:36.999Z</time></trkpt><trkpt lat="45.66518534766707" lon="9.99374232666781"><ele>191.66666666666666</ele><time>2026-04-04T06:41:37.999Z</time></trkpt><trkpt lat="45.66520034391359" lon="9.99362404253455"><ele>192.0</ele><time>2026-04-04T06:41:38.999Z</time></trkpt><trkpt lat="45.665214967915354" lon="9.99350629071409"><ele>192.33333333333331</ele><time>2026-04-04T06:41:39.999Z</time></trkpt><trkpt lat="45.665231526298705" lon="9.993387760797097"><ele>192.66666666666666</ele><time>2026-04-04T06:41:40.998Z</time></trkpt><trkpt lat="45.66524630554511" lon="9.99326846618584"><ele>193.0</ele><time>2026-04-04T06:41:41.998Z</time></trkpt><trkpt lat="45.665262628879496" lon="9.993147820759356"><ele>193.66666666666666</ele><time>2026-04-04T06:41:42.998Z</time></trkpt><trkpt lat="45.66527844310582" lon="9.993026901985667"><ele>194.33333333333331</ele><time>2026-04-04T06:41:43.998Z</time></trkpt><trkpt lat="45.665294863998334" lon="9.99290401851037"><ele>195.0</ele><time>2026-04-04T06:41:44.998Z</time></trkpt><trkpt lat="45.66531332498379" lon="9.992781726859581"><ele>195.66666666666669</ele><time>2026-04-04T06:41:45.998Z</time></trkpt><trkpt lat="45.66533097615872" lon="9.992660295163867"><ele>196.33333333333334</ele><time>2026-04-04T06:41:46.998Z</time></trkpt><trkpt lat="45.6653472073259" lon="9.992536500455197"><ele>197.0</ele><time>2026-04-04T06:41:47.998Z</time></trkpt><trkpt lat="45.66536167979037" lon="9.99241235146516"><ele>195.16666666666669</ele><time>2026-04-04T06:41:48.998Z</time></trkpt><trkpt lat="45.66537711694224" lon="9.992290077070345"><ele>193.33333333333334</ele><time>2026-04-04T06:41:49.998Z</time></trkpt><trkpt lat="45.665394187588284" lon="9.992168723264173"><ele>191.5</ele><time>2026-04-04T06:41:50.998Z</time></trkpt><trkpt lat="45.665410902698284" lon="9.992048526145023"><ele>189.66666666666669</ele><time>2026-04-04T06:41:51.998Z</time></trkpt><trkpt lat="45.66543019081765" lon="9.991929545789652"><ele>187.83333333333334</ele><time>2026-04-04T06:41:52.998Z</time></trkpt><trkpt lat="45.66544398479268" lon="9.99181104976341"><ele>186.0</ele><time>2026-04-04T06:41:53.998Z</time></trkpt><trkpt lat="45.665459719797674" lon="9.99169486367017"><ele>186.16666666666666</ele><time>2026-04-04T06:41:54.998Z</time></trkpt><trkpt lat="45.66547439268034" lon="9.991576775260196"><ele>186.33333333333334</ele><time>2026-04-04T06:41:55.998Z</time></trkpt><trkpt lat="45.66549050088224" lon="9.991458950115025"><ele>186.5</ele><time>2026-04-04T06:41:56.998Z</time></trkpt><trkpt lat="45.66550281729763" lon="9.99133731171615"><ele>186.66666666666669</ele><time>2026-04-04T06:41:57.998Z</time></trkpt><trkpt lat="45.66551089842759" lon="9.991217848223181"><ele>186.83333333333334</ele><time>2026-04-04T06:41:58.998Z</time></trkpt><trkpt lat="45.665517875452274" lon="9.991095469766481"><ele>187.0</ele><time>2026-04-04T06:41:59.998Z</time></trkpt><trkpt lat="45.66551899348019" lon="9.990974884623826"><ele>187.0</ele><time>2026-04-04T06:42:00.998Z</time></trkpt><trkpt lat="45.665513836161445" lon="9.99084971068797"><ele>187.0</ele><time>2026-04-04T06:42:01.998Z</time></trkpt><trkpt lat="45.665505609501" lon="9.990728674638229"><ele>187.0</ele><time>2026-04-04T06:42:02.998Z</time></trkpt><trkpt lat="45.665495214478405" lon="9.990606638586527"><ele>187.0</ele><time>2026-04-04T06:42:03.998Z</time></trkpt><trkpt lat="45.66548093247845" lon="9.990485280648171"><ele>187.0</ele><time>2026-04-04T06:42:04.998Z</time></trkpt><trkpt lat="45.665462096020576" lon="9.990366483065179"><ele>187.0</ele><time>2026-04-04T06:42:05.998Z</time></trkpt><trkpt lat="45.66544308778746" lon="9.990247533277829"><ele>187.0</ele><time>2026-04-04T06:42:06.998Z</time></trkpt><trkpt lat="45.66542238213226" lon="9.990126910382545"><ele>187.0</ele><time>2026-04-04T06:42:07.998Z</time></trkpt><trkpt lat="45.6654003660552" lon="9.990006331849038"><ele>187.0</ele><time>2026-04-04T06:42:08.998Z</time></trkpt><trkpt lat="45.66537961459844" lon="9.989886064773508"><ele>187.0</ele><time>2026-04-04T06:42:10Z</time></trkpt><trkpt lat="45.66536047581489" lon="9.989763638386707"><ele>187.0</ele><time>2026-04-04T06:42:11Z</time></trkpt><trkpt lat="45.66533866311455" lon="9.989642080285543"><ele>187.0</ele><time>2026-04-04T06:42:12Z</time></trkpt><trkpt lat="45.66531706620472" lon="9.98952161247577"><ele>187.0</ele><time>2026-04-04T06:42:13Z</time></trkpt><trkpt lat="45.66529730690941" lon="9.989400807591139"><ele>187.0</ele><time>2026-04-04T06:42:14Z</time></trkpt><trkpt lat="45.665273245187834" lon="9.989281380861783"><ele>187.0</ele><time>2026-04-04T06:42:15Z</time></trkpt><trkpt lat="45.665251843725976" lon="9.989159487967878"><ele>187.0</ele><time>2026-04-04T06:42:16Z</time></trkpt><trkpt lat="45.665232017608346" lon="9.989040262169828"><ele>187.0</ele><time>2026-04-04T06:42:17Z</time></trkpt><trkpt lat="45.66521100155921" lon="9.988920601758785"><ele>187.0</ele><time>2026-04-04T06:42:18Z</time></trkpt><trkpt lat="45.6651904748078" lon="9.988803438685837"><ele>187.5</ele><time>2026-04-04T06:42:19Z</time></trkpt><trkpt lat="45.66517069521245" lon="9.988683643178595"><ele>188.0</ele><time>2026-04-04T06:42:20Z</time></trkpt><trkpt lat="45.6651474332389" lon="9.988565600593802"><ele>188.5</ele><time>2026-04-04T06:42:21Z</time></trkpt><trkpt lat="45.6651244571522" lon="9.988443740445577"><ele>189.0</ele><time>2026-04-04T06:42:22Z</time></trkpt><trkpt lat="45.665102997403864" lon="9.988324516287987"><ele>189.5</ele><time>2026-04-04T06:42:23Z</time></trkpt><trkpt lat="45.66508021010346" lon="9.988204796614664"><ele>190.0</ele><time>2026-04-04T06:42:24Z</time></trkpt><trkpt lat="45.665060716656036" lon="9.988084751829232"><ele>190.0</ele><time>2026-04-04T06:42:25Z</time></trkpt><trkpt lat="45.66503912600135" lon="9.987960992759836"><ele>190.0</ele><time>2026-04-04T06:42:26Z</time></trkpt><trkpt lat="45.665018276087935" lon="9.987838931511574"><ele>190.0</ele><time>2026-04-04T06:42:27Z</time></trkpt><trkpt lat="45.664998991445955" lon="9.98771579931332"><ele>190.0</ele><time>2026-04-04T06:42:28Z</time></trkpt><trkpt lat="45.6649780141554" lon="9.987594931438299"><ele>190.0</ele><time>2026-04-04T06:42:29Z</time></trkpt><trkpt lat="45.66495705012129" lon="9.987474327160259"><ele>190.0</ele><time>2026-04-04T06:42:30Z</time></trkpt><trkpt lat="45.664939291713054" lon="9.987351513485349"><ele>189.83333333333334</ele><time>2026-04-04T06:42:31Z</time></trkpt><trkpt lat="45.66491722598589" lon="9.987231998850232"><ele>189.66666666666669</ele><time>2026-04-04T06:42:32Z</time></trkpt><trkpt lat="45.66489473528175" lon="9.987113486916245"><ele>189.5</ele><time>2026-04-04T06:42:33Z</time></trkpt><trkpt lat="45.66487328530746" lon="9.986994101318166"><ele>189.33333333333334</ele><time>2026-04-04T06:42:34Z</time></trkpt><trkpt lat="45.66485416649525" lon="9.986872108038913"><ele>189.16666666666666</ele><time>2026-04-04T06:42:35Z</time></trkpt><trkpt lat="45.66483286971075" lon="9.986748337278732"><ele>189.0</ele><time>2026-04-04T06:42:36Z</time></trkpt><trkpt lat="45.66480914999782" lon="9.986626776594063"><ele>189.0</ele><time>2026-04-04T06:42:37Z</time></trkpt><trkpt lat="45.66478601362752" lon="9.986505541210727"><ele>189.0</ele><time>2026-04-04T06:42:38Z</time></trkpt><trkpt lat="45.6647644947285" lon="9.986384493499564"><ele>189.0</ele><time>2026-04-04T06:42:39Z</time></trkpt><trkpt lat="45.664744281754764" lon="9.98626193547949"><ele>189.0</ele><time>2026-04-04T06:42:40Z</time></trkpt><trkpt lat="45.664721912172624" lon="9.986142380006697"><ele>189.0</ele><time>2026-04-04T06:42:41Z</time></trkpt><trkpt lat="45.66470227555395" lon="9.986019106810547"><ele>189.0</ele><time>2026-04-04T06:42:42Z</time></trkpt><trkpt lat="45.66468040581211" lon="9.985897398772915"><ele>189.0</ele><time>2026-04-04T06:42:43Z</time></trkpt><trkpt lat="45.66465843450878" lon="9.985777424575563"><ele>189.0</ele><time>2026-04-04T06:42:44Z</time></trkpt><trkpt lat="45.66463703292587" lon="9.985656459559877"><ele>189.0</ele><time>2026-04-04T06:42:45Z</time></trkpt><trkpt lat="45.664615584575564" lon="9.98553675034498"><ele>189.0</ele><time>2026-04-04T06:42:46Z</time></trkpt><trkpt lat="45.664594823916566" lon="9.985414120950653"><ele>189.0</ele><time>2026-04-04T06:42:47Z</time></trkpt><trkpt lat="45.66457253120463" lon="9.985293187598176"><ele>189.0</ele><time>2026-04-04T06:42:48Z</time></trkpt><trkpt lat="45.664549671372924" lon="9.985171683691817"><ele>189.0</ele><time>2026-04-04T06:42:49Z</time></trkpt><trkpt lat="45.66452908594854" lon="9.985049566421399"><ele>189.0</ele><time>2026-04-04T06:42:50Z</time></trkpt><trkpt lat="45.664507840677366" lon="9.98492557434318"><ele>189.0</ele><time>2026-04-04T06:42:51Z</time></trkpt><trkpt lat="45.66448813253348" lon="9.984808240925158"><ele>189.0</ele><time>2026-04-04T06:42:51.999Z</time></trkpt><trkpt lat="45.664467871522" lon="9.98469296698516"><ele>189.0</ele><time>2026-04-04T06:42:52.999Z</time></trkpt><trkpt lat="45.664446416086484" lon="9.984575063772617"><ele>189.0</ele><time>2026-04-04T06:42:53.999Z</time></trkpt><trkpt lat="45.664425748927655" lon="9.984453066934833"><ele>189.5</ele><time>2026-04-04T06:42:54.999Z</time></trkpt><trkpt lat="45.664406534560314" lon="9.984329599095279"><ele>190.0</ele><time>2026-04-04T06:42:55.999Z</time></trkpt><trkpt lat="45.664385134001705" lon="9.984210008063862"><ele>190.5</ele><time>2026-04-04T06:42:56.999Z</time></trkpt><trkpt lat="45.66436290277447" lon="9.984093330320299"><ele>191.0</ele><time>2026-04-04T06:42:57.999Z</time></trkpt><trkpt lat="45.664342897664355" lon="9.983974216388154"><ele>191.5</ele><time>2026-04-04T06:42:58.999Z</time></trkpt><trkpt lat="45.66432266413338" lon="9.983857360608335"><ele>192.0</ele><time>2026-04-04T06:42:59.999Z</time></trkpt><trkpt lat="45.664302328667574" lon="9.983740702789634"><ele>192.0</ele><time>2026-04-04T06:43:00.999Z</time></trkpt><trkpt lat="45.664280532126035" lon="9.983623331162063"><ele>192.0</ele><time>2026-04-04T06:43:01.999Z</time></trkpt><trkpt lat="45.66425971180597" lon="9.983505382424369"><ele>192.0</ele><time>2026-04-04T06:43:02.999Z</time></trkpt><trkpt lat="45.664239992982004" lon="9.983386571435686"><ele>192.0</ele><time>2026-04-04T06:43:03.999Z</time></trkpt><trkpt lat="45.664219176631526" lon="9.983268046408224"><ele>192.0</ele><time>2026-04-04T06:43:04.999Z</time></trkpt><trkpt lat="45.6641973730413" lon="9.98315013992936"><ele>192.0</ele><time>2026-04-04T06:43:05.999Z</time></trkpt><trkpt lat="45.66417529749387" lon="9.983033597946212"><ele>191.66666666666666</ele><time>2026-04-04T06:43:06.999Z</time></trkpt><trkpt lat="45.664154120169044" lon="9.982918703898298"><ele>191.33333333333334</ele><time>2026-04-04T06:43:07.999Z</time></trkpt><trkpt lat="45.66413455504936" lon="9.982801854206253"><ele>191.0</ele><time>2026-04-04T06:43:08.999Z</time></trkpt><trkpt lat="45.66411334487624" lon="9.98268889993185"><ele>190.66666666666669</ele><time>2026-04-04T06:43:09.999Z</time></trkpt><trkpt lat="45.66409531395158" lon="9.98257601295443"><ele>190.33333333333334</ele><time>2026-04-04T06:43:10.999Z</time></trkpt><trkpt lat="45.66407803681799" lon="9.98246401176992"><ele>190.0</ele><time>2026-04-04T06:43:11.999Z</time></trkpt><trkpt lat="45.66405797759574" lon="9.982352357827063"><ele>189.66666666666669</ele><time>2026-04-04T06:43:12.999Z</time></trkpt><trkpt lat="45.66403764491717" lon="9.982239390549683"><ele>189.33333333333334</ele><time>2026-04-04T06:43:13.999Z</time></trkpt><trkpt lat="45.66401730189216" lon="9.9821262754573"><ele>189.0</ele><time>2026-04-04T06:43:14.999Z</time></trkpt><trkpt lat="45.66399530643254" lon="9.98201181200316"><ele>188.66666666666666</ele><time>2026-04-04T06:43:15.999Z</time></trkpt><trkpt lat="45.6639394458477" lon="9.981911787427615"><ele>188.33333333333331</ele><time>2026-04-04T06:43:16.999Z</time></trkpt><trkpt lat="45.6639149343492" lon="9.981803527129648"><ele>188.0</ele><time>2026-04-04T06:43:17.999Z</time></trkpt><trkpt lat="45.6638962488347" lon="9.98168943043603"><ele>188.0</ele><time>2026-04-04T06:43:18.999Z</time></trkpt><trkpt lat="45.663864895530025" lon="9.981583818570096"><ele>188.0</ele><time>2026-04-04T06:43:19.999Z</time></trkpt><trkpt lat="45.66384382808625" lon="9.981470290763125"><ele>188.0</ele><time>2026-04-04T06:43:20.999Z</time></trkpt><trkpt lat="45.663817625828315" lon="9.981357553731472"><ele>188.0</ele><time>2026-04-04T06:43:21.999Z</time></trkpt><trkpt lat="45.66376874629274" lon="9.981257502089315"><ele>188.0</ele><time>2026-04-04T06:43:22.999Z</time></trkpt><trkpt lat="45.66374651083223" lon="9.981145275965366"><ele>188.0</ele><time>2026-04-04T06:43:23.999Z</time></trkpt><trkpt lat="45.66371892029203" lon="9.981040694398825"><ele>188.0</ele><time>2026-04-04T06:43:24.999Z</time></trkpt><trkpt lat="45.66368923785528" lon="9.980933315716486"><ele>188.0</ele><time>2026-04-04T06:43:25.999Z</time></trkpt><trkpt lat="45.663697997900634" lon="9.980801276416177"><ele>188.0</ele><time>2026-04-04T06:43:26.999Z</time></trkpt><trkpt lat="45.66365697218555" lon="9.980698812182037"><ele>188.0</ele><time>2026-04-04T06:43:27.999Z</time></trkpt><trkpt lat="45.6636189067189" lon="9.98059811420612"><ele>188.0</ele><time>2026-04-04T06:43:28.999Z</time></trkpt><trkpt lat="45.66358280260102" lon="9.980495529619894"><ele>188.0</ele><time>2026-04-04T06:43:29.999Z</time></trkpt><trkpt lat="45.66354952640314" lon="9.98039361953093"><ele>188.33333333333331</ele><time>2026-04-04T06:43:30.999Z</time></trkpt><trkpt lat="45.66351203297514" lon="9.9802912906997"><ele>188.66666666666666</ele><time>2026-04-04T06:43:31.999Z</time></trkpt><trkpt lat="45.66347516509037" lon="9.98018976892196"><ele>189.0</ele><time>2026-04-04T06:43:32.999Z</time></trkpt><trkpt lat="45.663438846207164" lon="9.980091945206805"><ele>189.33333333333334</ele><time>2026-04-04T06:43:33.999Z</time></trkpt><trkpt lat="45.66340224295571" lon="9.97998774522352"><ele>189.66666666666669</ele><time>2026-04-04T06:43:34.999Z</time></trkpt><trkpt lat="45.6633669372012" lon="9.979887557778904"><ele>190.0</ele><time>2026-04-04T06:43:35.999Z</time></trkpt><trkpt lat="45.66332927528806" lon="9.979786604807943"><ele>190.0</ele><time>2026-04-04T06:43:36.999Z</time></trkpt><trkpt lat="45.663290257454534" lon="9.979687535215415"><ele>190.0</ele><time>2026-04-04T06:43:37.999Z</time></trkpt><trkpt lat="45.66325356470698" lon="9.97958633822783"><ele>190.0</ele><time>2026-04-04T06:43:38.999Z</time></trkpt><trkpt lat="45.663218355306995" lon="9.979486251915406"><ele>190.0</ele><time>2026-04-04T06:43:39.999Z</time></trkpt><trkpt lat="45.66318249931282" lon="9.97938504016114"><ele>190.0</ele><time>2026-04-04T06:43:40.999Z</time></trkpt><trkpt lat="45.6631451643011" lon="9.979284431818408"><ele>190.0</ele><time>2026-04-04T06:43:41.999Z</time></trkpt><trkpt lat="45.66311005175482" lon="9.979182141183028"><ele>189.66666666666669</ele><time>2026-04-04T06:43:42.999Z</time></trkpt><trkpt lat="45.66307459639943" lon="9.979080714362636"><ele>189.33333333333334</ele><time>2026-04-04T06:43:43.999Z</time></trkpt><trkpt lat="45.663036016062" lon="9.978980079535331"><ele>189.0</ele><time>2026-04-04T06:43:44.998Z</time></trkpt><trkpt lat="45.66299848733255" lon="9.978879938289618"><ele>188.66666666666666</ele><time>2026-04-04T06:43:45.998Z</time></trkpt><trkpt lat="45.66296816440376" lon="9.978783877453177"><ele>188.33333333333331</ele><time>2026-04-04T06:43:46.998Z</time></trkpt><trkpt lat="45.66293378020129" lon="9.978679234099916"><ele>188.0</ele><time>2026-04-04T06:43:47.998Z</time></trkpt><trkpt lat="45.66289611753624" lon="9.978574166711347"><ele>188.0</ele><time>2026-04-04T06:43:48.998Z</time></trkpt><trkpt lat="45.662859039211995" lon="9.978474610955727"><ele>188.0</ele><time>2026-04-04T06:43:49.998Z</time></trkpt><trkpt lat="45.662823428689535" lon="9.978370097872535"><ele>188.0</ele><time>2026-04-04T06:43:50.998Z</time></trkpt><trkpt lat="45.662783781008336" lon="9.978269292758027"><ele>188.0</ele><time>2026-04-04T06:43:51.998Z</time></trkpt><trkpt lat="45.66274970964255" lon="9.978166653101969"><ele>188.0</ele><time>2026-04-04T06:43:52.998Z</time></trkpt><trkpt lat="45.66271057102059" lon="9.978060569161073"><ele>188.0</ele><time>2026-04-04T06:43:53.998Z</time></trkpt><trkpt lat="45.662675054196406" lon="9.97795713808336"><ele>188.5</ele><time>2026-04-04T06:43:54.998Z</time></trkpt><trkpt lat="45.662639271167905" lon="9.977854957103693"><ele>189.0</ele><time>2026-04-04T06:43:55.998Z</time></trkpt><trkpt lat="45.66260211173191" lon="9.977753342370157"><ele>189.5</ele><time>2026-04-04T06:43:56.998Z</time></trkpt><trkpt lat="45.66256563521608" lon="9.977652968134715"><ele>190.0</ele><time>2026-04-04T06:43:57.998Z</time></trkpt><trkpt lat="45.66253070817947" lon="9.97755000232817"><ele>190.5</ele><time>2026-04-04T06:43:58.998Z</time></trkpt><trkpt lat="45.66249649917417" lon="9.977447557320913"><ele>191.0</ele><time>2026-04-04T06:43:59.998Z</time></trkpt><trkpt lat="45.662458755210075" lon="9.97734704408059"><ele>191.0</ele><time>2026-04-04T06:44:00.998Z</time></trkpt><trkpt lat="45.662422296869586" lon="9.97724630108031"><ele>191.0</ele><time>2026-04-04T06:44:01.998Z</time></trkpt><trkpt lat="45.66238954334428" lon="9.97714232616751"><ele>191.0</ele><time>2026-04-04T06:44:02.998Z</time></trkpt><trkpt lat="45.662357479643994" lon="9.977036707388114"><ele>191.0</ele><time>2026-04-04T06:44:03.998Z</time></trkpt><trkpt lat="45.66232827622823" lon="9.976931546840204"><ele>191.0</ele><time>2026-04-04T06:44:04.998Z</time></trkpt><trkpt lat="45.66229795581713" lon="9.976822892822897"><ele>191.0</ele><time>2026-04-04T06:44:05.998Z</time></trkpt><trkpt lat="45.662268684323095" lon="9.97671336532428"><ele>190.0</ele><time>2026-04-04T06:44:06.998Z</time></trkpt><trkpt lat="45.66223859469354" lon="9.976601723743823"><ele>189.0</ele><time>2026-04-04T06:44:07.998Z</time></trkpt><trkpt lat="45.662210236137646" lon="9.976490305463603"><ele>188.0</ele><time>2026-04-04T06:44:08.998Z</time></trkpt><trkpt lat="45.66217955728974" lon="9.97638052830672"><ele>187.0</ele><time>2026-04-04T06:44:09.998Z</time></trkpt><trkpt lat="45.662149750698724" lon="9.976270636235059"><ele>186.0</ele><time>2026-04-04T06:44:10.998Z</time></trkpt><trkpt lat="45.6621166585338" lon="9.976161213181319"><ele>185.0</ele><time>2026-04-04T06:44:11.998Z</time></trkpt><trkpt lat="45.66208631257488" lon="9.976051931738848"><ele>185.0</ele><time>2026-04-04T06:44:12.998Z</time></trkpt><trkpt lat="45.66206116875622" lon="9.975939584067612"><ele>185.0</ele><time>2026-04-04T06:44:13.998Z</time></trkpt><trkpt lat="45.66203128260398" lon="9.975829234443012"><ele>185.0</ele><time>2026-04-04T06:44:14.998Z</time></trkpt><trkpt lat="45.66199619604004" lon="9.975722992904705"><ele>185.0</ele><time>2026-04-04T06:44:16Z</time></trkpt><trkpt lat="45.66196752332371" lon="9.975610073069483"><ele>185.0</ele><time>2026-04-04T06:44:17Z</time></trkpt><trkpt lat="45.66194024802441" lon="9.975501121582987"><ele>185.0</ele><time>2026-04-04T06:44:18Z</time></trkpt><trkpt lat="45.66190829791947" lon="9.97539385473274"><ele>186.0</ele><time>2026-04-04T06:44:19Z</time></trkpt><trkpt lat="45.66187905586043" lon="9.975292127121982"><ele>187.0</ele><time>2026-04-04T06:44:20Z</time></trkpt><trkpt lat="45.66185854614344" lon="9.975184452724548"><ele>188.0</ele><time>2026-04-04T06:44:21Z</time></trkpt><trkpt lat="45.66183505476358" lon="9.975079154286187"><ele>189.0</ele><time>2026-04-04T06:44:22Z</time></trkpt><trkpt lat="45.66180762919399" lon="9.974971266216414"><ele>190.0</ele><time>2026-04-04T06:44:23Z</time></trkpt><trkpt lat="45.66177031959321" lon="9.974869184279797"><ele>191.0</ele><time>2026-04-04T06:44:24Z</time></trkpt><trkpt lat="45.661742317413996" lon="9.974759723081446"><ele>191.0</ele><time>2026-04-04T06:44:25Z</time></trkpt><trkpt lat="45.66171087205109" lon="9.974653576132217"><ele>191.0</ele><time>2026-04-04T06:44:26Z</time></trkpt><trkpt lat="45.661678890801255" lon="9.974544756889516"><ele>191.0</ele><time>2026-04-04T06:44:27Z</time></trkpt><trkpt lat="45.661651839320285" lon="9.974439697854939"><ele>191.0</ele><time>2026-04-04T06:44:28Z</time></trkpt><trkpt lat="45.66162289364932" lon="9.974330579014064"><ele>191.0</ele><time>2026-04-04T06:44:29Z</time></trkpt><trkpt lat="45.6615936416956" lon="9.974224044124604"><ele>191.0</ele><time>2026-04-04T06:44:30Z</time></trkpt><trkpt lat="45.66156449139774" lon="9.9741150173596"><ele>190.33333333333331</ele><time>2026-04-04T06:44:31Z</time></trkpt><trkpt lat="45.66153659711716" lon="9.974010990421446"><ele>189.66666666666666</ele><time>2026-04-04T06:44:32Z</time></trkpt><trkpt lat="45.66150970949613" lon="9.973902652642971"><ele>189.0</ele><time>2026-04-04T06:44:33Z</time></trkpt><trkpt lat="45.661480589619956" lon="9.97379635429201"><ele>188.33333333333334</ele><time>2026-04-04T06:44:34Z</time></trkpt><trkpt lat="45.66145254708959" lon="9.973689762361943"><ele>187.66666666666669</ele><time>2026-04-04T06:44:35Z</time></trkpt><trkpt lat="45.66142455193714" lon="9.97358109203491"><ele>187.0</ele><time>2026-04-04T06:44:36Z</time></trkpt><trkpt lat="45.66139644049071" lon="9.973475692824113"><ele>187.0</ele><time>2026-04-04T06:44:37Z</time></trkpt><trkpt lat="45.66136714277583" lon="9.97336790040694"><ele>187.0</ele><time>2026-04-04T06:44:38Z</time></trkpt><trkpt lat="45.661338673414484" lon="9.973265262918526"><ele>187.0</ele><time>2026-04-04T06:44:39Z</time></trkpt><trkpt lat="45.661311950173705" lon="9.973160094581141"><ele>187.0</ele><time>2026-04-04T06:44:40Z</time></trkpt><trkpt lat="45.66128629944803" lon="9.973053167380135"><ele>187.0</ele><time>2026-04-04T06:44:41Z</time></trkpt><trkpt lat="45.66125962646397" lon="9.972948678359998"><ele>187.0</ele><time>2026-04-04T06:44:42Z</time></trkpt><trkpt lat="45.6612287887957" lon="9.972843504894232"><ele>187.33333333333334</ele><time>2026-04-04T06:44:43Z</time></trkpt><trkpt lat="45.66119937685643" lon="9.972738667770143"><ele>187.66666666666669</ele><time>2026-04-04T06:44:44Z</time></trkpt><trkpt lat="45.661169866759636" lon="9.972630379810512"><ele>188.0</ele><time>2026-04-04T06:44:45Z</time></trkpt><trkpt lat="45.661137767219174" lon="9.972521711820054"><ele>188.33333333333334</ele><time>2026-04-04T06:44:46Z</time></trkpt><trkpt lat="45.66110037679332" lon="9.97241874883272"><ele>188.66666666666666</ele><time>2026-04-04T06:44:47Z</time></trkpt><trkpt lat="45.66106151400836" lon="9.972316194638207"><ele>189.0</ele><time>2026-04-04T06:44:48Z</time></trkpt><trkpt lat="45.66102076884967" lon="9.972217169400905"><ele>189.0</ele><time>2026-04-04T06:44:49Z</time></trkpt><trkpt lat="45.660976606532216" lon="9.972114211799795"><ele>189.0</ele><time>2026-04-04T06:44:50Z</time></trkpt><trkpt lat="45.660930221983556" lon="9.972021791970594"><ele>189.0</ele><time>2026-04-04T06:44:51Z</time></trkpt><trkpt lat="45.660866147648015" lon="9.97197371887297"><ele>189.0</ele><time>2026-04-04T06:44:52Z</time></trkpt><trkpt lat="45.660830889235946" lon="9.971852267791638"><ele>189.0</ele><time>2026-04-04T06:44:53Z</time></trkpt><trkpt lat="45.660770953853444" lon="9.971754739253733"><ele>189.0</ele><time>2026-04-04T06:44:54Z</time></trkpt><trkpt lat="45.660713348598726" lon="9.97166494447748"><ele>188.33333333333334</ele><time>2026-04-04T06:44:54.999Z</time></trkpt><trkpt lat="45.66065805087418" lon="9.971581244480692"><ele>187.66666666666666</ele><time>2026-04-04T06:44:55.999Z</time></trkpt><trkpt lat="45.66060207378738" lon="9.971500197367968"><ele>187.0</ele><time>2026-04-04T06:44:56.999Z</time></trkpt><trkpt lat="45.66054404689826" lon="9.971421070580032"><ele>186.33333333333331</ele><time>2026-04-04T06:44:57.999Z</time></trkpt><trkpt lat="45.66048778201691" lon="9.97133888016244"><ele>185.66666666666666</ele><time>2026-04-04T06:44:58.999Z</time></trkpt><trkpt lat="45.66043005656411" lon="9.971258631496061"><ele>185.0</ele><time>2026-04-04T06:44:59.999Z</time></trkpt><trkpt lat="45.66037146300392" lon="9.971168708471101"><ele>185.0</ele><time>2026-04-04T06:45:00.999Z</time></trkpt><trkpt lat="45.66031098970278" lon="9.97108963255045"><ele>185.0</ele><time>2026-04-04T06:45:01.999Z</time></trkpt><trkpt lat="45.66025352451203" lon="9.971004441670786"><ele>185.0</ele><time>2026-04-04T06:45:02.999Z</time></trkpt><trkpt lat="45.66019643501214" lon="9.970921876050069"><ele>185.0</ele><time>2026-04-04T06:45:03.999Z</time></trkpt><trkpt lat="45.66013773618603" lon="9.970842979894979"><ele>185.0</ele><time>2026-04-04T06:45:04.999Z</time></trkpt><trkpt lat="45.66007980653818" lon="9.970760006896901"><ele>185.0</ele><time>2026-04-04T06:45:05.999Z</time></trkpt><trkpt lat="45.660022879375035" lon="9.970678946609219"><ele>185.83333333333331</ele><time>2026-04-04T06:45:06.999Z</time></trkpt><trkpt lat="45.659963173518335" lon="9.970597001597266"><ele>186.66666666666666</ele><time>2026-04-04T06:45:07.999Z</time></trkpt><trkpt lat="45.659907487607825" lon="9.970513985778421"><ele>187.5</ele><time>2026-04-04T06:45:08.999Z</time></trkpt><trkpt lat="45.65985075757127" lon="9.970429645585206"><ele>188.33333333333334</ele><time>2026-04-04T06:45:09.999Z</time></trkpt><trkpt lat="45.65979353026931" lon="9.970349043849566"><ele>189.16666666666669</ele><time>2026-04-04T06:45:10.999Z</time></trkpt><trkpt lat="45.65973832078995" lon="9.970269784545028"><ele>190.0</ele><time>2026-04-04T06:45:11.999Z</time></trkpt><trkpt lat="45.6596840164456" lon="9.970193017766084"><ele>190.0</ele><time>2026-04-04T06:45:12.999Z</time></trkpt><trkpt lat="45.65963115624272" lon="9.970119172211735"><ele>190.0</ele><time>2026-04-04T06:45:13.999Z</time></trkpt><trkpt lat="45.65957739847498" lon="9.970044173589374"><ele>190.0</ele><time>2026-04-04T06:45:14.999Z</time></trkpt><trkpt lat="45.659520305132936" lon="9.969964446466992"><ele>190.0</ele><time>2026-04-04T06:45:15.999Z</time></trkpt><trkpt lat="45.65946121997914" lon="9.969881815463914"><ele>190.0</ele><time>2026-04-04T06:45:16.999Z</time></trkpt><trkpt lat="45.65940351506825" lon="9.969801604969723"><ele>190.0</ele><time>2026-04-04T06:45:17.999Z</time></trkpt><trkpt lat="45.65934653749943" lon="9.969721503909067"><ele>190.66666666666669</ele><time>2026-04-04T06:45:18.999Z</time></trkpt><trkpt lat="45.659289447846916" lon="9.969645048844708"><ele>191.33333333333334</ele><time>2026-04-04T06:45:19.999Z</time></trkpt><trkpt lat="45.65923158865866" lon="9.969567940805716"><ele>192.0</ele><time>2026-04-04T06:45:20.999Z</time></trkpt><trkpt lat="45.659175090594275" lon="9.96948463172469"><ele>192.66666666666669</ele><time>2026-04-04T06:45:21.999Z</time></trkpt><trkpt lat="45.65911884243044" lon="9.969406861914411"><ele>193.33333333333334</ele><time>2026-04-04T06:45:22.999Z</time></trkpt><trkpt lat="45.65906133018304" lon="9.969329893309531"><ele>194.0</ele><time>2026-04-04T06:45:23.999Z</time></trkpt><trkpt lat="45.65900355338625" lon="9.969250701386976"><ele>193.33333333333334</ele><time>2026-04-04T06:45:24.999Z</time></trkpt><trkpt lat="45.658947751346496" lon="9.96916999061434"><ele>192.66666666666669</ele><time>2026-04-04T06:45:25.999Z</time></trkpt><trkpt lat="45.65888956873495" lon="9.969092442767996"><ele>192.0</ele><time>2026-04-04T06:45:26.999Z</time></trkpt><trkpt lat="45.658834595971996" lon="9.96901344519414"><ele>191.33333333333334</ele><time>2026-04-04T06:45:27.999Z</time></trkpt><trkpt lat="45.658774445648795" lon="9.968936324303229"><ele>190.66666666666669</ele><time>2026-04-04T06:45:28.999Z</time></trkpt><trkpt lat="45.65871854070798" lon="9.968860306843686"><ele>190.0</ele><time>2026-04-04T06:45:29.999Z</time></trkpt><trkpt lat="45.658663297059896" lon="9.968782308246828"><ele>189.83333333333334</ele><time>2026-04-04T06:45:30.999Z</time></trkpt><trkpt lat="45.65860935064594" lon="9.968700525406385"><ele>189.66666666666669</ele><time>2026-04-04T06:45:31.999Z</time></trkpt><trkpt lat="45.65855221773789" lon="9.968623318393293"><ele>189.5</ele><time>2026-04-04T06:45:32.999Z</time></trkpt><trkpt lat="45.65849612817713" lon="9.968545342484417"><ele>189.33333333333334</ele><time>2026-04-04T06:45:33.999Z</time></trkpt><trkpt lat="45.658447183238266" lon="9.968461467993594"><ele>189.16666666666666</ele><time>2026-04-04T06:45:34.999Z</time></trkpt><trkpt lat="45.65839770719129" lon="9.968375070300707"><ele>189.0</ele><time>2026-04-04T06:45:35.999Z</time></trkpt><trkpt lat="45.658353258912705" lon="9.968275164598754"><ele>189.0</ele><time>2026-04-04T06:45:36.999Z</time></trkpt><trkpt lat="45.658311985437905" lon="9.968184769365903"><ele>189.0</ele><time>2026-04-04T06:45:37.999Z</time></trkpt><trkpt lat="45.65827323119761" lon="9.968083503610762"><ele>189.0</ele><time>2026-04-04T06:45:38.999Z</time></trkpt><trkpt lat="45.6582366544401" lon="9.967982631096735"><ele>189.0</ele><time>2026-04-04T06:45:39.999Z</time></trkpt><trkpt lat="45.658203624680105" lon="9.96788361232673"><ele>189.0</ele><time>2026-04-04T06:45:40.999Z</time></trkpt><trkpt lat="45.65818140552384" lon="9.967778883723714"><ele>189.0</ele><time>2026-04-04T06:45:41.999Z</time></trkpt><trkpt lat="45.658165950716096" lon="9.967673524018535"><ele>189.0</ele><time>2026-04-04T06:45:42.999Z</time></trkpt><trkpt lat="45.65815128837063" lon="9.96756316227437"><ele>189.0</ele><time>2026-04-04T06:45:43.999Z</time></trkpt><trkpt lat="45.65812961133051" lon="9.967452783319247"><ele>189.0</ele><time>2026-04-04T06:45:44.999Z</time></trkpt><trkpt lat="45.6581113853265" lon="9.96734145095947"><ele>189.0</ele><time>2026-04-04T06:45:45.999Z</time></trkpt><trkpt lat="45.65811159899765" lon="9.967219701417916"><ele>189.0</ele><time>2026-04-04T06:45:46.999Z</time></trkpt><trkpt lat="45.65811517649077" lon="9.967100105756712"><ele>189.0</ele><time>2026-04-04T06:45:47.998Z</time></trkpt><trkpt lat="45.65811774159869" lon="9.966977036780179"><ele>188.83333333333334</ele><time>2026-04-04T06:45:48.998Z</time></trkpt><trkpt lat="45.658119859635526" lon="9.966854408329556"><ele>188.66666666666666</ele><time>2026-04-04T06:45:49.998Z</time></trkpt><trkpt lat="45.65812666040053" lon="9.966733381385927"><ele>188.5</ele><time>2026-04-04T06:45:50.998Z</time></trkpt><trkpt lat="45.658141447654074" lon="9.96661584630055"><ele>188.33333333333331</ele><time>2026-04-04T06:45:51.998Z</time></trkpt><trkpt lat="45.65816260089366" lon="9.966504636791749"><ele>188.16666666666666</ele><time>2026-04-04T06:45:52.998Z</time></trkpt><trkpt lat="45.65818677963921" lon="9.96640127422412"><ele>188.0</ele><time>2026-04-04T06:45:53.998Z</time></trkpt><trkpt lat="45.65821120437895" lon="9.966296618847352"><ele>188.16666666666666</ele><time>2026-04-04T06:45:54.998Z</time></trkpt><trkpt lat="45.65824205147266" lon="9.966195013177948"><ele>188.33333333333331</ele><time>2026-04-04T06:45:55.998Z</time></trkpt><trkpt lat="45.65828322694156" lon="9.966095788567186"><ele>188.5</ele><time>2026-04-04T06:45:56.998Z</time></trkpt><trkpt lat="45.65831674472178" lon="9.965991705797487"><ele>188.66666666666666</ele><time>2026-04-04T06:45:57.998Z</time></trkpt><trkpt lat="45.65835687883489" lon="9.965891441730722"><ele>188.83333333333334</ele><time>2026-04-04T06:45:58.998Z</time></trkpt><trkpt lat="45.658402364472686" lon="9.96579682107169"><ele>189.0</ele><time>2026-04-04T06:45:59.998Z</time></trkpt><trkpt lat="45.65845014389229" lon="9.96570465412686"><ele>189.0</ele><time>2026-04-04T06:46:00.998Z</time></trkpt><trkpt lat="45.65849722362143" lon="9.965613685722703"><ele>189.0</ele><time>2026-04-04T06:46:01.998Z</time></trkpt><trkpt lat="45.65854391008301" lon="9.96552244016105"><ele>189.0</ele><time>2026-04-04T06:46:02.998Z</time></trkpt><trkpt lat="45.65858881959755" lon="9.96543569802834"><ele>189.0</ele><time>2026-04-04T06:46:03.998Z</time></trkpt><trkpt lat="45.65862968458647" lon="9.965349402741754"><ele>189.0</ele><time>2026-04-04T06:46:04.998Z</time></trkpt><trkpt lat="45.6586795710452" lon="9.965220864818495"><ele>189.0</ele><time>2026-04-04T06:46:06.998Z</time></trkpt><trkpt lat="45.65872146962461" lon="9.96514559763787"><ele>188.83333333333334</ele><time>2026-04-04T06:46:08.998Z</time></trkpt><trkpt lat="45.65879951868764" lon="9.965075877971673"><ele>188.66666666666666</ele><time>2026-04-04T06:46:11.998Z</time></trkpt><trkpt lat="45.65886872278193" lon="9.964983864425518"><ele>188.5</ele><time>2026-04-04T06:46:13.998Z</time></trkpt><trkpt lat="45.65892366989162" lon="9.964827535305515"><ele>188.33333333333331</ele><time>2026-04-04T06:46:15.998Z</time></trkpt><trkpt lat="45.65895480236141" lon="9.964743164856833"><ele>188.16666666666666</ele><time>2026-04-04T06:46:16.998Z</time></trkpt><trkpt lat="45.658993147091635" lon="9.964653582334593"><ele>188.0</ele><time>2026-04-04T06:46:17.998Z</time></trkpt><trkpt lat="45.65905211255292" lon="9.964583503083272"><ele>188.0</ele><time>2026-04-04T06:46:18.998Z</time></trkpt><trkpt lat="45.65911025635154" lon="9.964517003961067"><ele>188.0</ele><time>2026-04-04T06:46:19.998Z</time></trkpt><trkpt lat="45.65917440154386" lon="9.96444747115117"><ele>188.0</ele><time>2026-04-04T06:46:20.998Z</time></trkpt><trkpt lat="45.65922981389503" lon="9.964369800646937"><ele>188.0</ele><time>2026-04-04T06:46:22Z</time></trkpt><trkpt lat="45.65927740026701" lon="9.964284066350046"><ele>188.0</ele><time>2026-04-04T06:46:23Z</time></trkpt><trkpt lat="45.65932653140355" lon="9.964196150670846"><ele>188.0</ele><time>2026-04-04T06:46:24Z</time></trkpt><trkpt lat="45.65937728788138" lon="9.964111714792962"><ele>187.83333333333331</ele><time>2026-04-04T06:46:25Z</time></trkpt><trkpt lat="45.65942689399664" lon="9.964028935421938"><ele>187.66666666666666</ele><time>2026-04-04T06:46:26Z</time></trkpt><trkpt lat="45.659476800576854" lon="9.96394694523229"><ele>187.5</ele><time>2026-04-04T06:46:27Z</time></trkpt><trkpt lat="45.65952451903276" lon="9.963865384144498"><ele>187.33333333333334</ele><time>2026-04-04T06:46:28Z</time></trkpt><trkpt lat="45.65957607913239" lon="9.963783263159835"><ele>187.16666666666669</ele><time>2026-04-04T06:46:29Z</time></trkpt><trkpt lat="45.65962647077439" lon="9.963700687504886"><ele>187.0</ele><time>2026-04-04T06:46:30Z</time></trkpt><trkpt lat="45.65967501629157" lon="9.963613812727216"><ele>187.0</ele><time>2026-04-04T06:46:31Z</time></trkpt><trkpt lat="45.65972818607039" lon="9.963531008271993"><ele>187.0</ele><time>2026-04-04T06:46:32Z</time></trkpt><trkpt lat="45.659782272271066" lon="9.963447999293836"><ele>187.0</ele><time>2026-04-04T06:46:33Z</time></trkpt><trkpt lat="45.65983318072955" lon="9.963361641859754"><ele>187.0</ele><time>2026-04-04T06:46:34Z</time></trkpt><trkpt lat="45.659884550872164" lon="9.963276859911394"><ele>187.0</ele><time>2026-04-04T06:46:35Z</time></trkpt><trkpt lat="45.659936666076106" lon="9.963190978755094"><ele>187.0</ele><time>2026-04-04T06:46:36Z</time></trkpt><trkpt lat="45.65998735966386" lon="9.96310722636282"><ele>187.0</ele><time>2026-04-04T06:46:37Z</time></trkpt><trkpt lat="45.66003707205389" lon="9.963020684019629"><ele>187.0</ele><time>2026-04-04T06:46:38Z</time></trkpt><trkpt lat="45.660086550170305" lon="9.962936533773162"><ele>187.0</ele><time>2026-04-04T06:46:39Z</time></trkpt><trkpt lat="45.66013681989576" lon="9.962853526410495"><ele>187.0</ele><time>2026-04-04T06:46:40Z</time></trkpt><trkpt lat="45.660186262371994" lon="9.9627685004317"><ele>187.0</ele><time>2026-04-04T06:46:41Z</time></trkpt><trkpt lat="45.66023660978332" lon="9.96268702486449"><ele>187.0</ele><time>2026-04-04T06:46:42Z</time></trkpt><trkpt lat="45.660284508098606" lon="9.962604786587605"><ele>187.42857142857142</ele><time>2026-04-04T06:46:43Z</time></trkpt><trkpt lat="45.66033047557311" lon="9.962523882337715"><ele>187.85714285714286</ele><time>2026-04-04T06:46:44Z</time></trkpt><trkpt lat="45.66037552023028" lon="9.96244469126995"><ele>188.28571428571428</ele><time>2026-04-04T06:46:45Z</time></trkpt><trkpt lat="45.66041951907949" lon="9.962366179119753"><ele>188.71428571428572</ele><time>2026-04-04T06:46:46Z</time></trkpt><trkpt lat="45.6604665421023" lon="9.962291741044982"><ele>189.14285714285717</ele><time>2026-04-04T06:46:47Z</time></trkpt><trkpt lat="45.66051213824714" lon="9.962215133532737"><ele>189.57142857142858</ele><time>2026-04-04T06:46:48Z</time></trkpt><trkpt lat="45.66055943253004" lon="9.9621383371943"><ele>190.0</ele><time>2026-04-04T06:46:49Z</time></trkpt><trkpt lat="45.660604572744155" lon="9.962062422226035"><ele>190.0</ele><time>2026-04-04T06:46:50Z</time></trkpt><trkpt lat="45.66064940548594" lon="9.961990233119765"><ele>190.0</ele><time>2026-04-04T06:46:51Z</time></trkpt><trkpt lat="45.660693283591854" lon="9.961914494368731"><ele>190.0</ele><time>2026-04-04T06:46:52Z</time></trkpt><trkpt lat="45.66074161315533" lon="9.961832104069343"><ele>190.0</ele><time>2026-04-04T06:46:53Z</time></trkpt><trkpt lat="45.66079307248138" lon="9.961751870106026"><ele>190.0</ele><time>2026-04-04T06:46:54Z</time></trkpt><trkpt lat="45.66084293837675" lon="9.961666490248172"><ele>190.0</ele><time>2026-04-04T06:46:55Z</time></trkpt><trkpt lat="45.66089326564825" lon="9.96158319297842"><ele>190.0</ele><time>2026-04-04T06:46:56Z</time></trkpt><trkpt lat="45.6609439510308" lon="9.961497796332099"><ele>190.0</ele><time>2026-04-04T06:46:57Z</time></trkpt><trkpt lat="45.66099363119839" lon="9.961415243784792"><ele>190.0</ele><time>2026-04-04T06:46:58Z</time></trkpt><trkpt lat="45.661044805750464" lon="9.961332039552033"><ele>190.0</ele><time>2026-04-04T06:46:58.999Z</time></trkpt><trkpt lat="45.66109551440048" lon="9.961250023537733"><ele>190.0</ele><time>2026-04-04T06:46:59.999Z</time></trkpt><trkpt lat="45.661148523280964" lon="9.961166003168286"><ele>190.0</ele><time>2026-04-04T06:47:00.999Z</time></trkpt><trkpt lat="45.66120039053939" lon="9.96108250171031"><ele>190.0</ele><time>2026-04-04T06:47:01.999Z</time></trkpt><trkpt lat="45.661251102902746" lon="9.960996855959275"><ele>189.66666666666669</ele><time>2026-04-04T06:47:02.999Z</time></trkpt><trkpt lat="45.66130244276105" lon="9.960913157453646"><ele>189.33333333333334</ele><time>2026-04-04T06:47:03.999Z</time></trkpt><trkpt lat="45.661353723394456" lon="9.960826324074151"><ele>189.0</ele><time>2026-04-04T06:47:04.999Z</time></trkpt><trkpt lat="45.661405103102865" lon="9.960741974885169"><ele>188.66666666666666</ele><time>2026-04-04T06:47:05.999Z</time></trkpt><trkpt lat="45.66145594522126" lon="9.960657993670745"><ele>188.33333333333331</ele><time>2026-04-04T06:47:06.999Z</time></trkpt><trkpt lat="45.66150613905987" lon="9.960574617550218"><ele>188.0</ele><time>2026-04-04T06:47:07.999Z</time></trkpt><trkpt lat="45.661555809539145" lon="9.960491900847813"><ele>188.0</ele><time>2026-04-04T06:47:08.999Z</time></trkpt><trkpt lat="45.661604439107265" lon="9.960408818175198"><ele>188.0</ele><time>2026-04-04T06:47:09.999Z</time></trkpt><trkpt lat="45.661653781536465" lon="9.960327445264108"><ele>188.0</ele><time>2026-04-04T06:47:10.999Z</time></trkpt><trkpt lat="45.66170291750251" lon="9.960240958552122"><ele>188.0</ele><time>2026-04-04T06:47:11.999Z</time></trkpt><trkpt lat="45.6617526025409" lon="9.960159158228496"><ele>188.0</ele><time>2026-04-04T06:47:12.999Z</time></trkpt><trkpt lat="45.66180150674823" lon="9.960074700226153"><ele>188.0</ele><time>2026-04-04T06:47:13.999Z</time></trkpt><trkpt lat="45.66185029569519" lon="9.9599917403037"><ele>187.83333333333331</ele><time>2026-04-04T06:47:14.999Z</time></trkpt><trkpt lat="45.66190077493818" lon="9.959908285619568"><ele>187.66666666666666</ele><time>2026-04-04T06:47:15.999Z</time></trkpt><trkpt lat="45.66194951069858" lon="9.959826196071933"><ele>187.5</ele><time>2026-04-04T06:47:16.999Z</time></trkpt><trkpt lat="45.66200310308575" lon="9.959741098245123"><ele>187.33333333333334</ele><time>2026-04-04T06:47:17.999Z</time></trkpt><trkpt lat="45.66205384992251" lon="9.9596559306064"><ele>187.16666666666669</ele><time>2026-04-04T06:47:18.999Z</time></trkpt><trkpt lat="45.66210458297117" lon="9.959572604385796"><ele>187.0</ele><time>2026-04-04T06:47:19.999Z</time></trkpt><trkpt lat="45.662156069017975" lon="9.959484048451023"><ele>187.0</ele><time>2026-04-04T06:47:20.999Z</time></trkpt><trkpt lat="45.662207690735876" lon="9.95939667819372"><ele>187.0</ele><time>2026-04-04T06:47:21.999Z</time></trkpt><trkpt lat="45.66226271671763" lon="9.959307985391705"><ele>187.0</ele><time>2026-04-04T06:47:22.999Z</time></trkpt><trkpt lat="45.66231752761813" lon="9.959218680447986"><ele>187.0</ele><time>2026-04-04T06:47:23.999Z</time></trkpt><trkpt lat="45.66236873667031" lon="9.959126927938078"><ele>187.0</ele><time>2026-04-04T06:47:24.999Z</time></trkpt><trkpt lat="45.662421330064774" lon="9.959037707565328"><ele>187.0</ele><time>2026-04-04T06:47:25.999Z</time></trkpt><trkpt lat="45.662472912695506" lon="9.95894798663515"><ele>187.33333333333334</ele><time>2026-04-04T06:47:26.999Z</time></trkpt><trkpt lat="45.662524890333074" lon="9.958861375439906"><ele>187.66666666666669</ele><time>2026-04-04T06:47:27.999Z</time></trkpt><trkpt lat="45.66257569006622" lon="9.958772537712843"><ele>188.0</ele><time>2026-04-04T06:47:28.999Z</time></trkpt><trkpt lat="45.66262700570312" lon="9.958685217347933"><ele>188.33333333333334</ele><time>2026-04-04T06:47:29.999Z</time></trkpt><trkpt lat="45.662678303498886" lon="9.958598221672025"><ele>188.66666666666666</ele><time>2026-04-04T06:47:30.999Z</time></trkpt><trkpt lat="45.66273034186536" lon="9.95851056288586"><ele>189.0</ele><time>2026-04-04T06:47:31.999Z</time></trkpt><trkpt lat="45.66278178610436" lon="9.958423487864636"><ele>189.0</ele><time>2026-04-04T06:47:32.999Z</time></trkpt><trkpt lat="45.662833510297965" lon="9.958335801688799"><ele>189.0</ele><time>2026-04-04T06:47:33.999Z</time></trkpt><trkpt lat="45.66288453389013" lon="9.958247677080784"><ele>189.0</ele><time>2026-04-04T06:47:34.999Z</time></trkpt><trkpt lat="45.66293663135382" lon="9.958159795403997"><ele>189.0</ele><time>2026-04-04T06:47:35.999Z</time></trkpt><trkpt lat="45.66298930198744" lon="9.958071197057293"><ele>189.0</ele><time>2026-04-04T06:47:36.999Z</time></trkpt><trkpt lat="45.66304029952863" lon="9.95798070649989"><ele>189.0</ele><time>2026-04-04T06:47:37.999Z</time></trkpt><trkpt lat="45.663095529459895" lon="9.957893069455158"><ele>189.0</ele><time>2026-04-04T06:47:38.999Z</time></trkpt><trkpt lat="45.66314815822352" lon="9.95780502187563"><ele>189.0</ele><time>2026-04-04T06:47:39.999Z</time></trkpt><trkpt lat="45.66319906902754" lon="9.957717429972439"><ele>189.0</ele><time>2026-04-04T06:47:40.999Z</time></trkpt><trkpt lat="45.663246539633676" lon="9.957630655664445"><ele>189.0</ele><time>2026-04-04T06:47:41.999Z</time></trkpt><trkpt lat="45.66329282552353" lon="9.957542577256797"><ele>189.0</ele><time>2026-04-04T06:47:42.999Z</time></trkpt><trkpt lat="45.66333031490587" lon="9.957449646948977"><ele>189.0</ele><time>2026-04-04T06:47:43.999Z</time></trkpt><trkpt lat="45.66336573790984" lon="9.957357003682247"><ele>189.0</ele><time>2026-04-04T06:47:44.999Z</time></trkpt><trkpt lat="45.66341574781102" lon="9.957282956610786"><ele>189.0</ele><time>2026-04-04T06:47:45.999Z</time></trkpt><trkpt lat="45.66348261885838" lon="9.957226397210208"><ele>189.0</ele><time>2026-04-04T06:47:46.999Z</time></trkpt><trkpt lat="45.66354303819491" lon="9.95716497969564"><ele>189.0</ele><time>2026-04-04T06:47:47.999Z</time></trkpt><trkpt lat="45.66360552256861" lon="9.957102331505473"><ele>189.0</ele><time>2026-04-04T06:47:48.999Z</time></trkpt><trkpt lat="45.66367250560708" lon="9.957049058950437"><ele>189.0</ele><time>2026-04-04T06:47:49.999Z</time></trkpt><trkpt lat="45.663751495851216" lon="9.957018088734454"><ele>189.0</ele><time>2026-04-04T06:47:50.998Z</time></trkpt><trkpt lat="45.66383397973271" lon="9.95701552954432"><ele>189.0</ele><time>2026-04-04T06:47:51.998Z</time></trkpt><trkpt lat="45.66391358418179" lon="9.957032971314895"><ele>189.0</ele><time>2026-04-04T06:47:52.998Z</time></trkpt><trkpt lat="45.6639900822341" lon="9.957059450266913"><ele>189.0</ele><time>2026-04-04T06:47:53.998Z</time></trkpt><trkpt lat="45.664066440737194" lon="9.957088535483292"><ele>189.0</ele><time>2026-04-04T06:47:54.998Z</time></trkpt><trkpt lat="45.66414541849004" lon="9.957101458013248"><ele>189.0</ele><time>2026-04-04T06:47:55.998Z</time></trkpt><trkpt lat="45.664223899396816" lon="9.957115876735344"><ele>189.0</ele><time>2026-04-04T06:47:56.998Z</time></trkpt><trkpt lat="45.66429977744534" lon="9.957129244281138"><ele>189.0</ele><time>2026-04-04T06:47:57.998Z</time></trkpt><trkpt lat="45.664373877847346" lon="9.957144445148133"><ele>189.0</ele><time>2026-04-04T06:47:58.998Z</time></trkpt><trkpt lat="45.66444598027912" lon="9.957157406376611"><ele>189.0</ele><time>2026-04-04T06:47:59.998Z</time></trkpt><trkpt lat="45.66451783487824" lon="9.95716466333286"><ele>189.0</ele><time>2026-04-04T06:48:00.998Z</time></trkpt><trkpt lat="45.66459070142838" lon="9.957155934604385"><ele>189.0</ele><time>2026-04-04T06:48:01.998Z</time></trkpt><trkpt lat="45.66466558670366" lon="9.957118969359476"><ele>189.0</ele><time>2026-04-04T06:48:02.998Z</time></trkpt><trkpt lat="45.6647319011876" lon="9.957047475550588"><ele>189.0</ele><time>2026-04-04T06:48:03.998Z</time></trkpt><trkpt lat="45.66478785843559" lon="9.95696065880212"><ele>189.0</ele><time>2026-04-04T06:48:04.998Z</time></trkpt><trkpt lat="45.66483502725237" lon="9.956868237471804"><ele>189.0</ele><time>2026-04-04T06:48:05.998Z</time></trkpt><trkpt lat="45.664874986278335" lon="9.956770487210616"><ele>189.0</ele><time>2026-04-04T06:48:06.998Z</time></trkpt><trkpt lat="45.66491713198072" lon="9.956683892165634"><ele>189.0</ele><time>2026-04-04T06:48:07.998Z</time></trkpt><trkpt lat="45.664968206721596" lon="9.956603391541634"><ele>189.0</ele><time>2026-04-04T06:48:08.998Z</time></trkpt><trkpt lat="45.66501121201951" lon="9.956524754597133"><ele>189.0</ele><time>2026-04-04T06:48:09.998Z</time></trkpt><trkpt lat="45.66508049080015" lon="9.95640106594083"><ele>189.0</ele><time>2026-04-04T06:48:11.998Z</time></trkpt><trkpt lat="45.665179899233145" lon="9.956293985713955"><ele>189.0</ele><time>2026-04-04T06:48:13.998Z</time></trkpt><trkpt lat="45.665337129720754" lon="9.95637832991317"><ele>189.0</ele><time>2026-04-04T06:48:15.998Z</time></trkpt><trkpt lat="45.66540538529911" lon="9.956444571226408"><ele>189.0</ele><time>2026-04-04T06:48:16.998Z</time></trkpt><trkpt lat="45.66547607449354" lon="9.956511261625268"><ele>189.0</ele><time>2026-04-04T06:48:17.998Z</time></trkpt><trkpt lat="45.665543645291244" lon="9.956575580560479"><ele>189.0</ele><time>2026-04-04T06:48:18.998Z</time></trkpt><trkpt lat="45.665612044686014" lon="9.956636900365789"><ele>189.0</ele><time>2026-04-04T06:48:19.998Z</time></trkpt><trkpt lat="45.66567975651778" lon="9.95669939594193"><ele>189.0</ele><time>2026-04-04T06:48:20.998Z</time></trkpt><trkpt lat="45.66574659530079" lon="9.95675937504822"><ele>189.0</ele><time>2026-04-04T06:48:21.998Z</time></trkpt><trkpt lat="45.66581111531851" lon="9.956820849149546"><ele>189.0</ele><time>2026-04-04T06:48:22.998Z</time></trkpt><trkpt lat="45.665875097164886" lon="9.956879434501408"><ele>189.0</ele><time>2026-04-04T06:48:23.998Z</time></trkpt><trkpt lat="45.66593789009841" lon="9.956934751369959"><ele>189.0</ele><time>2026-04-04T06:48:24.998Z</time></trkpt><trkpt lat="45.665997206176" lon="9.956985044097447"><ele>189.0</ele><time>2026-04-04T06:48:25.998Z</time></trkpt><trkpt lat="45.66609300279038" lon="9.957070998185154"><ele>189.0</ele><time>2026-04-04T06:48:28Z</time></trkpt><trkpt lat="45.66610861760164" lon="9.95723212287815"><ele>189.0</ele><time>2026-04-04T06:48:30Z</time></trkpt><trkpt lat="45.66605872888156" lon="9.957311965655954"><ele>189.0</ele><time>2026-04-04T06:48:31Z</time></trkpt><trkpt lat="45.66599470929867" lon="9.957382340815014"><ele>189.0</ele><time>2026-04-04T06:48:32Z</time></trkpt><trkpt lat="45.66594111252099" lon="9.95746368497914"><ele>189.0</ele><time>2026-04-04T06:48:33Z</time></trkpt><trkpt lat="45.6659029125695" lon="9.957557829476848"><ele>189.0</ele><time>2026-04-04T06:48:34Z</time></trkpt><trkpt lat="45.66587278455142" lon="9.957658610546941"><ele>189.0</ele><time>2026-04-04T06:48:35Z</time></trkpt><trkpt lat="45.66584219710844" lon="9.95775477126362"><ele>189.0</ele><time>2026-04-04T06:48:36Z</time></trkpt><trkpt lat="45.66580819953034" lon="9.957851152048793"><ele>189.33333333333334</ele><time>2026-04-04T06:48:37Z</time></trkpt><trkpt lat="45.66577238928498" lon="9.957948957288785"><ele>189.66666666666666</ele><time>2026-04-04T06:48:38Z</time></trkpt><trkpt lat="45.66573576117145" lon="9.958047264677493"><ele>190.0</ele><time>2026-04-04T06:48:39Z</time></trkpt><trkpt lat="45.66570333060383" lon="9.958145776391792"><ele>190.33333333333331</ele><time>2026-04-04T06:48:40Z</time></trkpt><trkpt lat="45.66566995868787" lon="9.95824405957006"><ele>190.66666666666666</ele><time>2026-04-04T06:48:41Z</time></trkpt><trkpt lat="45.66563907141701" lon="9.958341064398725"><ele>191.0</ele><time>2026-04-04T06:48:42Z</time></trkpt><trkpt lat="45.665622831731525" lon="9.958445670951217"><ele>191.0</ele><time>2026-04-04T06:48:43Z</time></trkpt><trkpt lat="45.665623697424294" lon="9.958554571398853"><ele>191.0</ele><time>2026-04-04T06:48:44Z</time></trkpt><trkpt lat="45.66562268240174" lon="9.958663931567472"><ele>191.0</ele><time>2026-04-04T06:48:45Z</time></trkpt><trkpt lat="45.66562203692035" lon="9.958768075257337"><ele>191.0</ele><time>2026-04-04T06:48:46Z</time></trkpt><trkpt lat="45.665615740030034" lon="9.958870940980079"><ele>191.0</ele><time>2026-04-04T06:48:47Z</time></trkpt><trkpt lat="45.665619563200394" lon="9.958976047243278"><ele>191.0</ele><time>2026-04-04T06:48:48Z</time></trkpt><trkpt lat="45.66562952586287" lon="9.959074618585271"><ele>191.0</ele><time>2026-04-04T06:48:49Z</time></trkpt><trkpt lat="45.665637304467246" lon="9.959168686632742"><ele>191.14285714285714</ele><time>2026-04-04T06:48:50Z</time></trkpt><trkpt lat="45.66566327016014" lon="9.95925517864843"><ele>191.28571428571428</ele><time>2026-04-04T06:48:51Z</time></trkpt><trkpt lat="45.665724440774554" lon="9.959298566850311"><ele>191.42857142857142</ele><time>2026-04-04T06:48:52Z</time></trkpt><trkpt lat="45.66579986306448" lon="9.9593009291171"><ele>191.57142857142856</ele><time>2026-04-04T06:48:53Z</time></trkpt><trkpt lat="45.66586880923662" lon="9.959309901516406"><ele>191.71428571428572</ele><time>2026-04-04T06:48:54Z</time></trkpt><trkpt lat="45.6659385651029" lon="9.95933134717974"><ele>191.85714285714283</ele><time>2026-04-04T06:48:55Z</time></trkpt><trkpt lat="45.666005129846106" lon="9.959359004281852"><ele>192.0</ele><time>2026-04-04T06:48:56Z</time></trkpt><trkpt lat="45.666073014171175" lon="9.95937359293638"><ele>191.83333333333334</ele><time>2026-04-04T06:48:57Z</time></trkpt><trkpt lat="45.66620029388696" lon="9.959421657645661"><ele>191.66666666666666</ele><time>2026-04-04T06:48:59Z</time></trkpt><trkpt lat="45.6662698205231" lon="9.959434096235753"><ele>191.5</ele><time>2026-04-04T06:49:00Z</time></trkpt><trkpt lat="45.666338032523846" lon="9.959450221553887"><ele>191.33333333333331</ele><time>2026-04-04T06:49:01Z</time></trkpt><trkpt lat="45.6664028050241" lon="9.959461366914654"><ele>191.16666666666666</ele><time>2026-04-04T06:49:01.999Z</time></trkpt><trkpt lat="45.66646715635327" lon="9.959462395813423"><ele>191.0</ele><time>2026-04-04T06:49:02.999Z</time></trkpt><trkpt lat="45.66653279065963" lon="9.959452723048091"><ele>191.0</ele><time>2026-04-04T06:49:03.999Z</time></trkpt><trkpt lat="45.6666514720095" lon="9.959399615697697"><ele>191.0</ele><time>2026-04-04T06:49:05.999Z</time></trkpt><trkpt lat="45.66671003177174" lon="9.959355301345763"><ele>191.0</ele><time>2026-04-04T06:49:06.999Z</time></trkpt><trkpt lat="45.6667722912183" lon="9.959317064719254"><ele>191.0</ele><time>2026-04-04T06:49:07.999Z</time></trkpt><trkpt lat="45.666831213337716" lon="9.959271407302703"><ele>191.0</ele><time>2026-04-04T06:49:08.999Z</time></trkpt><trkpt lat="45.66688940983543" lon="9.959225959388634"><ele>191.0</ele><time>2026-04-04T06:49:09.999Z</time></trkpt><trkpt lat="45.66694516498608" lon="9.959171871194926"><ele>191.66666666666666</ele><time>2026-04-04T06:49:10.999Z</time></trkpt><trkpt lat="45.66700247324686" lon="9.959115085833513"><ele>192.33333333333331</ele><time>2026-04-04T06:49:11.999Z</time></trkpt><trkpt lat="45.66705772730627" lon="9.959061439093789"><ele>193.0</ele><time>2026-04-04T06:49:12.999Z</time></trkpt><trkpt lat="45.66710868686091" lon="9.959004598188875"><ele>193.66666666666666</ele><time>2026-04-04T06:49:13.999Z</time></trkpt><trkpt lat="45.66716155305817" lon="9.958950816591006"><ele>194.33333333333334</ele><time>2026-04-04T06:49:14.999Z</time></trkpt><trkpt lat="45.667255994775644" lon="9.958849355609246"><ele>195.0</ele><time>2026-04-04T06:49:16.999Z</time></trkpt><trkpt lat="45.667311549721234" lon="9.95879964404452"><ele>195.0</ele><time>2026-04-04T06:49:17.999Z</time></trkpt><trkpt lat="45.66741912734253" lon="9.958737067356306"><ele>195.0</ele><time>2026-04-04T06:49:19.999Z</time></trkpt><trkpt lat="45.66754697129952" lon="9.958787062542282"><ele>195.0</ele><time>2026-04-04T06:49:21.999Z</time></trkpt><trkpt lat="45.667598889659466" lon="9.958732887118792"><ele>195.0</ele><time>2026-04-04T06:49:22.999Z</time></trkpt><trkpt lat="45.667628063745376" lon="9.958642303148368"><ele>195.0</ele><time>2026-04-04T06:49:23.999Z</time></trkpt><trkpt lat="45.66763427825034" lon="9.958543357746066"><ele>195.0</ele><time>2026-04-04T06:49:24.999Z</time></trkpt><trkpt lat="45.66763680755061" lon="9.95844842779572"><ele>195.0</ele><time>2026-04-04T06:49:25.999Z</time></trkpt><trkpt lat="45.66765827229558" lon="9.958363587227604"><ele>195.0</ele><time>2026-04-04T06:49:26.999Z</time></trkpt><trkpt lat="45.667698638629304" lon="9.958282349021024"><ele>195.0</ele><time>2026-04-04T06:49:27.999Z</time></trkpt><trkpt lat="45.66774745278783" lon="9.958210960848406"><ele>195.0</ele><time>2026-04-04T06:49:28.999Z</time></trkpt><trkpt lat="45.667795843130705" lon="9.958136545444901"><ele>195.0</ele><time>2026-04-04T06:49:29.999Z</time></trkpt><trkpt lat="45.66783493279725" lon="9.958056649742385"><ele>195.0</ele><time>2026-04-04T06:49:30.999Z</time></trkpt><trkpt lat="45.667865338021436" lon="9.957970801472692"><ele>195.14285714285714</ele><time>2026-04-04T06:49:31.999Z</time></trkpt><trkpt lat="45.66788924359213" lon="9.95787614562436"><ele>195.28571428571428</ele><time>2026-04-04T06:49:32.999Z</time></trkpt><trkpt lat="45.66790775608814" lon="9.957782049093714"><ele>195.42857142857144</ele><time>2026-04-04T06:49:33.999Z</time></trkpt><trkpt lat="45.66792465597892" lon="9.957686680717657"><ele>195.57142857142856</ele><time>2026-04-04T06:49:34.999Z</time></trkpt><trkpt lat="45.66794150732407" lon="9.957594193938018"><ele>195.71428571428572</ele><time>2026-04-04T06:49:35.999Z</time></trkpt><trkpt lat="45.66796289936459" lon="9.957502571827634"><ele>195.85714285714286</ele><time>2026-04-04T06:49:36.999Z</time></trkpt><trkpt lat="45.66798657152253" lon="9.957410684970451"><ele>196.0</ele><time>2026-04-04T06:49:37.999Z</time></trkpt><trkpt lat="45.66802012023867" lon="9.957327831046745"><ele>196.28571428571428</ele><time>2026-04-04T06:49:38.999Z</time></trkpt><trkpt lat="45.668062503771225" lon="9.957246811872118"><ele>196.57142857142856</ele><time>2026-04-04T06:49:39.999Z</time></trkpt><trkpt lat="45.668102734036346" lon="9.957171726208156"><ele>196.85714285714286</ele><time>2026-04-04T06:49:40.999Z</time></trkpt><trkpt lat="45.66815201574426" lon="9.957100051266522"><ele>197.14285714285714</ele><time>2026-04-04T06:49:41.999Z</time></trkpt><trkpt lat="45.668206737410266" lon="9.957038460764036"><ele>197.42857142857142</ele><time>2026-04-04T06:49:42.999Z</time></trkpt><trkpt lat="45.66826433400279" lon="9.956983414130839"><ele>197.71428571428572</ele><time>2026-04-04T06:49:43.999Z</time></trkpt><trkpt lat="45.66831538447215" lon="9.95692441287646"><ele>198.0</ele><time>2026-04-04T06:49:44.999Z</time></trkpt><trkpt lat="45.6683686996086" lon="9.956869792770144"><ele>198.0</ele><time>2026-04-04T06:49:45.999Z</time></trkpt><trkpt lat="45.668419286469494" lon="9.956813876351477"><ele>198.0</ele><time>2026-04-04T06:49:46.999Z</time></trkpt><trkpt lat="45.6684723399915" lon="9.95675751456233"><ele>198.0</ele><time>2026-04-04T06:49:47.999Z</time></trkpt><trkpt lat="45.66852372080447" lon="9.956701950886728"><ele>198.0</ele><time>2026-04-04T06:49:48.999Z</time></trkpt><trkpt lat="45.668576329110515" lon="9.95664475120746"><ele>198.0</ele><time>2026-04-04T06:49:49.999Z</time></trkpt><trkpt lat="45.66863366209468" lon="9.956587402915826"><ele>198.0</ele><time>2026-04-04T06:49:50.999Z</time></trkpt><trkpt lat="45.66869041273017" lon="9.956529696382049"><ele>198.0</ele><time>2026-04-04T06:49:51.999Z</time></trkpt><trkpt lat="45.668744996540354" lon="9.956466925848586"><ele>198.0</ele><time>2026-04-04T06:49:52.999Z</time></trkpt><trkpt lat="45.66880314746915" lon="9.956409114030592"><ele>198.0</ele><time>2026-04-04T06:49:53.998Z</time></trkpt><trkpt lat="45.66885808969436" lon="9.956350696212295"><ele>198.0</ele><time>2026-04-04T06:49:54.998Z</time></trkpt><trkpt lat="45.66891337435854" lon="9.956290895688118"><ele>198.0</ele><time>2026-04-04T06:49:55.998Z</time></trkpt><trkpt lat="45.668968791318356" lon="9.956231848972827"><ele>198.0</ele><time>2026-04-04T06:49:56.998Z</time></trkpt><trkpt lat="45.66901959231237" lon="9.956171337525412"><ele>198.0</ele><time>2026-04-04T06:49:57.998Z</time></trkpt><trkpt lat="45.66907533050646" lon="9.956112564273404"><ele>198.0</ele><time>2026-04-04T06:49:58.998Z</time></trkpt><trkpt lat="45.66912928134751" lon="9.956054706737527"><ele>198.0</ele><time>2026-04-04T06:49:59.998Z</time></trkpt><trkpt lat="45.66918412618136" lon="9.95600174072932"><ele>198.0</ele><time>2026-04-04T06:50:00.998Z</time></trkpt><trkpt lat="45.66923724997369" lon="9.95594311309536"><ele>198.0</ele><time>2026-04-04T06:50:01.998Z</time></trkpt><trkpt lat="45.66929015374123" lon="9.955885156169515"><ele>198.0</ele><time>2026-04-04T06:50:02.998Z</time></trkpt><trkpt lat="45.6693435386272" lon="9.955827554264351"><ele>198.0</ele><time>2026-04-04T06:50:03.998Z</time></trkpt><trkpt lat="45.669393434565684" lon="9.95576942499773"><ele>198.0</ele><time>2026-04-04T06:50:04.998Z</time></trkpt><trkpt lat="45.66944885306868" lon="9.955713430516292"><ele>198.0</ele><time>2026-04-04T06:50:05.998Z</time></trkpt><trkpt lat="45.66950418357776" lon="9.955659433101129"><ele>198.33333333333334</ele><time>2026-04-04T06:50:06.998Z</time></trkpt><trkpt lat="45.669604693508624" lon="9.955549069088965"><ele>198.66666666666669</ele><time>2026-04-04T06:50:08.998Z</time></trkpt><trkpt lat="45.66966048231682" lon="9.955501312611739"><ele>199.0</ele><time>2026-04-04T06:50:09.998Z</time></trkpt><trkpt lat="45.6697150410478" lon="9.955454278606929"><ele>199.33333333333334</ele><time>2026-04-04T06:50:10.998Z</time></trkpt><trkpt lat="45.66977867481365" lon="9.955421837390455"><ele>199.66666666666669</ele><time>2026-04-04T06:50:11.998Z</time></trkpt><trkpt lat="45.66983786048253" lon="9.95538885138786"><ele>200.0</ele><time>2026-04-04T06:50:12.998Z</time></trkpt><trkpt lat="45.66995973984124" lon="9.955375224196272"><ele>200.00000000000003</ele><time>2026-04-04T06:50:14.998Z</time></trkpt><trkpt lat="45.67002619093189" lon="9.955371311067148"><ele>200.0</ele><time>2026-04-04T06:50:15.998Z</time></trkpt><trkpt lat="45.67014801178588" lon="9.955367241138326"><ele>200.0</ele><time>2026-04-04T06:50:17.998Z</time></trkpt><trkpt lat="45.67027326031874" lon="9.955360567378069"><ele>200.0</ele><time>2026-04-04T06:50:19.998Z</time></trkpt><trkpt lat="45.6703381330965" lon="9.955348024293855"><ele>200.00000000000003</ele><time>2026-04-04T06:50:20.998Z</time></trkpt><trkpt lat="45.67040322631038" lon="9.955344626032792"><ele>200.0</ele><time>2026-04-04T06:50:21.998Z</time></trkpt><trkpt lat="45.67051367341165" lon="9.9553495492177"><ele>200.33333333333334</ele><time>2026-04-04T06:50:23.998Z</time></trkpt><trkpt lat="45.67057590107714" lon="9.955373643479874"><ele>200.66666666666669</ele><time>2026-04-04T06:50:29.998Z</time></trkpt><trkpt lat="45.67063731949818" lon="9.955431546106116"><ele>201.0</ele><time>2026-04-04T06:50:35Z</time></trkpt><trkpt lat="45.670704871421535" lon="9.955490425948668"><ele>201.33333333333331</ele><time>2026-04-04T06:50:37Z</time></trkpt><trkpt lat="45.670796204938384" lon="9.955494819585082"><ele>201.66666666666666</ele><time>2026-04-04T06:50:39Z</time></trkpt><trkpt lat="45.67088274771651" lon="9.95536680525546"><ele>202.0</ele><time>2026-04-04T06:50:41Z</time></trkpt><trkpt lat="45.67090887155984" lon="9.955281958075563"><ele>202.0</ele><time>2026-04-04T06:50:42Z</time></trkpt><trkpt lat="45.67093076348491" lon="9.955189878632408"><ele>202.0</ele><time>2026-04-04T06:50:43Z</time></trkpt><trkpt lat="45.67094276199458" lon="9.955094917673243"><ele>202.0</ele><time>2026-04-04T06:50:44Z</time></trkpt><trkpt lat="45.67095733215778" lon="9.954998747186545"><ele>202.0</ele><time>2026-04-04T06:50:45Z</time></trkpt><trkpt lat="45.67097786426885" lon="9.954905409207717"><ele>202.0</ele><time>2026-04-04T06:50:46Z</time></trkpt><trkpt lat="45.67099740910992" lon="9.954813908102764"><ele>202.0</ele><time>2026-04-04T06:50:47Z</time></trkpt><trkpt lat="45.67101591689902" lon="9.954717914964158"><ele>202.0</ele><time>2026-04-04T06:50:48Z</time></trkpt><trkpt lat="45.671025017704004" lon="9.954618760595325"><ele>202.0</ele><time>2026-04-04T06:50:49Z</time></trkpt><trkpt lat="45.67103504072855" lon="9.954513582243228"><ele>202.0</ele><time>2026-04-04T06:50:50Z</time></trkpt><trkpt lat="45.67104891242699" lon="9.954411616014374"><ele>202.0</ele><time>2026-04-04T06:50:51Z</time></trkpt><trkpt lat="45.671062897920685" lon="9.95430855644316"><ele>202.0</ele><time>2026-04-04T06:50:52Z</time></trkpt><trkpt lat="45.671073660525636" lon="9.954205845740715"><ele>202.0</ele><time>2026-04-04T06:50:53Z</time></trkpt><trkpt lat="45.671086876705225" lon="9.95410221271792"><ele>202.0</ele><time>2026-04-04T06:50:54Z</time></trkpt><trkpt lat="45.67109852104866" lon="9.953999382453235"><ele>202.0</ele><time>2026-04-04T06:50:55Z</time></trkpt><trkpt lat="45.67111111195116" lon="9.95389398395081"><ele>202.33333333333331</ele><time>2026-04-04T06:50:56Z</time></trkpt><trkpt lat="45.6711218930612" lon="9.95378907234086"><ele>202.66666666666666</ele><time>2026-04-04T06:50:57Z</time></trkpt><trkpt lat="45.67113363857992" lon="9.953680726503768"><ele>203.0</ele><time>2026-04-04T06:50:58Z</time></trkpt><trkpt lat="45.67114428326087" lon="9.953577816376319"><ele>203.33333333333331</ele><time>2026-04-04T06:50:59Z</time></trkpt><trkpt lat="45.671149307280345" lon="9.953473797436233"><ele>203.66666666666666</ele><time>2026-04-04T06:51:00Z</time></trkpt><trkpt lat="45.67115585014908" lon="9.953365251344861"><ele>204.0</ele><time>2026-04-04T06:51:01Z</time></trkpt><trkpt lat="45.67116362092134" lon="9.953254523721679"><ele>204.0</ele><time>2026-04-04T06:51:02Z</time></trkpt><trkpt lat="45.67116341676792" lon="9.953142594923499"><ele>204.0</ele><time>2026-04-04T06:51:03Z</time></trkpt><trkpt lat="45.67116262271411" lon="9.953028939494203"><ele>204.0</ele><time>2026-04-04T06:51:04Z</time></trkpt><trkpt lat="45.671163337575" lon="9.952919330985313"><ele>204.0</ele><time>2026-04-04T06:51:05Z</time></trkpt><trkpt lat="45.67116018703917" lon="9.952811009159104"><ele>204.0</ele><time>2026-04-04T06:51:05.999Z</time></trkpt><trkpt lat="45.6711540836698" lon="9.952703555966584"><ele>204.0</ele><time>2026-04-04T06:51:06.999Z</time></trkpt><trkpt lat="45.67114447987868" lon="9.952597990573599"><ele>204.16666666666666</ele><time>2026-04-04T06:51:07.999Z</time></trkpt><trkpt lat="45.671131499046815" lon="9.952495458748533"><ele>204.33333333333331</ele><time>2026-04-04T06:51:08.999Z</time></trkpt><trkpt lat="45.671118997695636" lon="9.952396569141852"><ele>204.5</ele><time>2026-04-04T06:51:09.999Z</time></trkpt><trkpt lat="45.671122292359954" lon="9.952288339266238"><ele>204.66666666666666</ele><time>2026-04-04T06:51:10.999Z</time></trkpt><trkpt lat="45.671134012327485" lon="9.952182409921855"><ele>204.83333333333331</ele><time>2026-04-04T06:51:11.999Z</time></trkpt><trkpt lat="45.671141561852764" lon="9.952069896577937"><ele>205.0</ele><time>2026-04-04T06:51:12.999Z</time></trkpt><trkpt lat="45.67113842408526" lon="9.951956530503656"><ele>204.99999999999997</ele><time>2026-04-04T06:51:13.999Z</time></trkpt><trkpt lat="45.67114950455921" lon="9.951846352137132"><ele>205.0</ele><time>2026-04-04T06:51:14.999Z</time></trkpt><trkpt lat="45.67114251569899" lon="9.951737646048294"><ele>205.0</ele><time>2026-04-04T06:51:15.999Z</time></trkpt><trkpt lat="45.671159859720085" lon="9.951624407822704"><ele>205.0</ele><time>2026-04-04T06:51:16.999Z</time></trkpt><trkpt lat="45.671158896550764" lon="9.951515645077865"><ele>204.99999999999997</ele><time>2026-04-04T06:51:17.999Z</time></trkpt><trkpt lat="45.67115841609179" lon="9.951408170491902"><ele>205.0</ele><time>2026-04-04T06:51:18.999Z</time></trkpt><trkpt lat="45.67115886004532" lon="9.95129976253234"><ele>204.99999999999997</ele><time>2026-04-04T06:51:19.999Z</time></trkpt><trkpt lat="45.67115851814699" lon="9.951189761758267"><ele>205.0</ele><time>2026-04-04T06:51:20.999Z</time></trkpt><trkpt lat="45.67115791926243" lon="9.951081042885496"><ele>205.0</ele><time>2026-04-04T06:51:21.999Z</time></trkpt><trkpt lat="45.67115544168659" lon="9.950970405592226"><ele>205.0</ele><time>2026-04-04T06:51:22.999Z</time></trkpt><trkpt lat="45.67115792414786" lon="9.950860933811088"><ele>204.99999999999997</ele><time>2026-04-04T06:51:23.999Z</time></trkpt><trkpt lat="45.67115952274925" lon="9.95075038667282"><ele>205.0</ele><time>2026-04-04T06:51:24.999Z</time></trkpt><trkpt lat="45.671159611050435" lon="9.950641568524745"><ele>204.99999999999997</ele><time>2026-04-04T06:51:25.999Z</time></trkpt><trkpt lat="45.67115984671998" lon="9.950532435218719"><ele>205.0</ele><time>2026-04-04T06:51:26.999Z</time></trkpt><trkpt lat="45.67115968357362" lon="9.950423594945129"><ele>205.0</ele><time>2026-04-04T06:51:27.999Z</time></trkpt><trkpt lat="45.67116060572784" lon="9.950314636193218"><ele>205.0</ele><time>2026-04-04T06:51:28.999Z</time></trkpt><trkpt lat="45.67116003016258" lon="9.950207992777836"><ele>204.99999999999997</ele><time>2026-04-04T06:51:29.999Z</time></trkpt><trkpt lat="45.67116088409246" lon="9.95009975728037"><ele>205.0</ele><time>2026-04-04T06:51:30.999Z</time></trkpt><trkpt lat="45.67116314480857" lon="9.949992458301114"><ele>205.2857142857143</ele><time>2026-04-04T06:51:31.999Z</time></trkpt><trkpt lat="45.67116206561123" lon="9.94988653936671"><ele>205.57142857142856</ele><time>2026-04-04T06:51:32.999Z</time></trkpt><trkpt lat="45.6711624135906" lon="9.949778297030065"><ele>205.85714285714286</ele><time>2026-04-04T06:51:33.999Z</time></trkpt><trkpt lat="45.671163215564086" lon="9.949672479477119"><ele>206.14285714285717</ele><time>2026-04-04T06:51:34.999Z</time></trkpt><trkpt lat="45.67116346656711" lon="9.949566987374917"><ele>206.42857142857144</ele><time>2026-04-04T06:51:35.999Z</time></trkpt><trkpt lat="45.671167233902686" lon="9.949459682367593"><ele>206.71428571428572</ele><time>2026-04-04T06:51:36.999Z</time></trkpt><trkpt lat="45.67117015592622" lon="9.949355876983292"><ele>207.0</ele><time>2026-04-04T06:51:37.999Z</time></trkpt><trkpt lat="45.671175637268306" lon="9.949250847362137"><ele>206.83333333333334</ele><time>2026-04-04T06:51:38.999Z</time></trkpt><trkpt lat="45.67118266307203" lon="9.949144473118997"><ele>206.66666666666669</ele><time>2026-04-04T06:51:39.999Z</time></trkpt><trkpt lat="45.6711900636687" lon="9.949037757042497"><ele>206.5</ele><time>2026-04-04T06:51:40.999Z</time></trkpt><trkpt lat="45.67120072285986" lon="9.948930670722737"><ele>206.33333333333334</ele><time>2026-04-04T06:51:41.999Z</time></trkpt><trkpt lat="45.6712143571087" lon="9.948823316885447"><ele>206.16666666666669</ele><time>2026-04-04T06:51:42.999Z</time></trkpt><trkpt lat="45.67122659675213" lon="9.948716526181476"><ele>206.0</ele><time>2026-04-04T06:51:43.999Z</time></trkpt><trkpt lat="45.671240638145214" lon="9.948611693360798"><ele>205.99999999999997</ele><time>2026-04-04T06:51:44.999Z</time></trkpt><trkpt lat="45.67125713825502" lon="9.948508705375213"><ele>206.0</ele><time>2026-04-04T06:51:45.999Z</time></trkpt><trkpt lat="45.67127622123849" lon="9.948406829620618"><ele>206.0</ele><time>2026-04-04T06:51:46.999Z</time></trkpt><trkpt lat="45.67129544997046" lon="9.948305857298685"><ele>206.0</ele><time>2026-04-04T06:51:47.999Z</time></trkpt><trkpt lat="45.67131102677944" lon="9.948207401949727"><ele>206.0</ele><time>2026-04-04T06:51:48.999Z</time></trkpt><trkpt lat="45.67133089703333" lon="9.948106910273438"><ele>205.99999999999997</ele><time>2026-04-04T06:51:49.999Z</time></trkpt><trkpt lat="45.67135221813789" lon="9.948005550402126"><ele>206.0</ele><time>2026-04-04T06:51:50.999Z</time></trkpt><trkpt lat="45.67136930291414" lon="9.94790168645006"><ele>206.16666666666669</ele><time>2026-04-04T06:51:51.999Z</time></trkpt><trkpt lat="45.671392681636796" lon="9.947795601723003"><ele>206.33333333333334</ele><time>2026-04-04T06:51:52.999Z</time></trkpt><trkpt lat="45.67141996456381" lon="9.947689104071808"><ele>206.5</ele><time>2026-04-04T06:51:53.999Z</time></trkpt><trkpt lat="45.67145166470104" lon="9.94758517004423"><ele>206.66666666666669</ele><time>2026-04-04T06:51:54.999Z</time></trkpt><trkpt lat="45.67149098207354" lon="9.947490921002661"><ele>206.83333333333334</ele><time>2026-04-04T06:51:55.999Z</time></trkpt><trkpt lat="45.67153450086247" lon="9.947398501764384"><ele>207.0</ele><time>2026-04-04T06:51:56.999Z</time></trkpt><trkpt lat="45.671578271608695" lon="9.947304337573216"><ele>207.0</ele><time>2026-04-04T06:51:57.998Z</time></trkpt><trkpt lat="45.671623675719324" lon="9.947211173718845"><ele>207.0</ele><time>2026-04-04T06:51:58.998Z</time></trkpt><trkpt lat="45.671667986234496" lon="9.947114212149197"><ele>207.0</ele><time>2026-04-04T06:51:59.998Z</time></trkpt><trkpt lat="45.67170907834266" lon="9.947022635752422"><ele>207.0</ele><time>2026-04-04T06:52:00.998Z</time></trkpt><trkpt lat="45.67175053393845" lon="9.94692947661883"><ele>207.0</ele><time>2026-04-04T06:52:01.998Z</time></trkpt><trkpt lat="45.67179155311069" lon="9.946842558758238"><ele>207.0</ele><time>2026-04-04T06:52:02.998Z</time></trkpt><trkpt lat="45.67183903433592" lon="9.946757713819153"><ele>206.57142857142858</ele><time>2026-04-04T06:52:03.998Z</time></trkpt><trkpt lat="45.67188309529089" lon="9.946670719580158"><ele>206.14285714285714</ele><time>2026-04-04T06:52:04.998Z</time></trkpt><trkpt lat="45.67192730839462" lon="9.946583637438184"><ele>205.71428571428572</ele><time>2026-04-04T06:52:05.998Z</time></trkpt><trkpt lat="45.671964536259125" lon="9.946492228293197"><ele>205.28571428571428</ele><time>2026-04-04T06:52:06.998Z</time></trkpt><trkpt lat="45.67199428019043" lon="9.946396915838811"><ele>204.85714285714286</ele><time>2026-04-04T06:52:07.998Z</time></trkpt><trkpt lat="45.67201046355974" lon="9.946297081539699"><ele>204.42857142857144</ele><time>2026-04-04T06:52:08.998Z</time></trkpt><trkpt lat="45.67201636164606" lon="9.946190477703555"><ele>204.0</ele><time>2026-04-04T06:52:09.998Z</time></trkpt><trkpt lat="45.6720058304916" lon="9.94608659924464"><ele>204.33333333333334</ele><time>2026-04-04T06:52:10.998Z</time></trkpt><trkpt lat="45.671990430915024" lon="9.945982423636876"><ele>204.66666666666669</ele><time>2026-04-04T06:52:11.998Z</time></trkpt><trkpt lat="45.671961630573335" lon="9.945885538825227"><ele>205.0</ele><time>2026-04-04T06:52:12.998Z</time></trkpt><trkpt lat="45.6719199727274" lon="9.945798715536455"><ele>205.33333333333334</ele><time>2026-04-04T06:52:13.998Z</time></trkpt><trkpt lat="45.671863728382405" lon="9.945725683077908"><ele>205.66666666666669</ele><time>2026-04-04T06:52:14.998Z</time></trkpt><trkpt lat="45.67179683535214" lon="9.945668467391451"><ele>206.0</ele><time>2026-04-04T06:52:15.998Z</time></trkpt><trkpt lat="45.671727488121235" lon="9.945624885622895"><ele>205.99999999999997</ele><time>2026-04-04T06:52:16.998Z</time></trkpt><trkpt lat="45.67166073049649" lon="9.945580650934032"><ele>206.0</ele><time>2026-04-04T06:52:17.998Z</time></trkpt><trkpt lat="45.6715946961815" lon="9.945528837214386"><ele>206.0</ele><time>2026-04-04T06:52:18.998Z</time></trkpt><trkpt lat="45.671531660788425" lon="9.945477074254411"><ele>206.0</ele><time>2026-04-04T06:52:19.998Z</time></trkpt><trkpt lat="45.671466298665166" lon="9.945426565618646"><ele>206.0</ele><time>2026-04-04T06:52:20.998Z</time></trkpt><trkpt lat="45.67140136644349" lon="9.945368981418042"><ele>205.99999999999997</ele><time>2026-04-04T06:52:21.998Z</time></trkpt><trkpt lat="45.67134070127907" lon="9.945315462332154"><ele>206.0</ele><time>2026-04-04T06:52:22.998Z</time></trkpt><trkpt lat="45.67127924192399" lon="9.945270051846588"><ele>205.99999999999997</ele><time>2026-04-04T06:52:23.998Z</time></trkpt><trkpt lat="45.6712139186208" lon="9.945228037600815"><ele>206.0</ele><time>2026-04-04T06:52:24.998Z</time></trkpt><trkpt lat="45.67115276733207" lon="9.94517936571986"><ele>206.0</ele><time>2026-04-04T06:52:25.998Z</time></trkpt><trkpt lat="45.671092105366974" lon="9.945127732868107"><ele>206.0</ele><time>2026-04-04T06:52:26.998Z</time></trkpt><trkpt lat="45.67103307316323" lon="9.945076983668251"><ele>206.0</ele><time>2026-04-04T06:52:27.998Z</time></trkpt><trkpt lat="45.670974347164474" lon="9.94501775139985"><ele>205.99999999999997</ele><time>2026-04-04T06:52:28.998Z</time></trkpt><trkpt lat="45.67092034982284" lon="9.9449518433912"><ele>206.0</ele><time>2026-04-04T06:52:29.998Z</time></trkpt><trkpt lat="45.67087194100332" lon="9.944877105103007"><ele>206.83333333333334</ele><time>2026-04-04T06:52:30.998Z</time></trkpt><trkpt lat="45.67082905889203" lon="9.944802260496912"><ele>207.66666666666669</ele><time>2026-04-04T06:52:31.998Z</time></trkpt><trkpt lat="45.67078911591027" lon="9.944725079704885"><ele>208.5</ele><time>2026-04-04T06:52:32.998Z</time></trkpt><trkpt lat="45.67072455022106" lon="9.944574185753039"><ele>209.33333333333331</ele><time>2026-04-04T06:52:34.998Z</time></trkpt><trkpt lat="45.67068780818394" lon="9.944493810038388"><ele>210.16666666666666</ele><time>2026-04-04T06:52:35.998Z</time></trkpt><trkpt lat="45.67065189500432" lon="9.944409151442523"><ele>211.0</ele><time>2026-04-04T06:52:36.998Z</time></trkpt><trkpt lat="45.670613561637026" lon="9.944323896896764"><ele>214.75</ele><time>2026-04-04T06:52:37.998Z</time></trkpt><trkpt lat="45.67055334662712" lon="9.944168778361805"><ele>218.5</ele><time>2026-04-04T06:52:40Z</time></trkpt><trkpt lat="45.67048435588435" lon="9.944027114874554"><ele>222.25</ele><time>2026-04-04T06:52:42Z</time></trkpt><trkpt lat="45.67040817073803" lon="9.943895084823373"><ele>226.0</ele><time>2026-04-04T06:52:44Z</time></trkpt><trkpt lat="45.67032965928869" lon="9.943780927570753"><ele>220.25</ele><time>2026-04-04T06:52:46Z</time></trkpt><trkpt lat="45.67024179220582" lon="9.943672000106167"><ele>214.5</ele><time>2026-04-04T06:52:48Z</time></trkpt><trkpt lat="45.6701458381399" lon="9.943580327370908"><ele>208.75</ele><time>2026-04-04T06:52:50Z</time></trkpt><trkpt lat="45.67005107806247" lon="9.943489220041506"><ele>203.0</ele><time>2026-04-04T06:52:52Z</time></trkpt><trkpt lat="45.66995294575786" lon="9.943397073764787"><ele>207.0</ele><time>2026-04-04T06:52:54Z</time></trkpt><trkpt lat="45.66985551608961" lon="9.94330448138516"><ele>211.0</ele><time>2026-04-04T06:52:56Z</time></trkpt><trkpt lat="45.66976494509159" lon="9.943196970165047"><ele>215.0</ele><time>2026-04-04T06:52:58Z</time></trkpt><trkpt lat="45.669679581668696" lon="9.94309081368107"><ele>219.0</ele><time>2026-04-04T06:53:00Z</time></trkpt><trkpt lat="45.669594927784985" lon="9.942983281941762"><ele>219.0</ele><time>2026-04-04T06:53:02Z</time></trkpt><trkpt lat="45.66951630659467" lon="9.942871137440704"><ele>218.99999999999997</ele><time>2026-04-04T06:53:04Z</time></trkpt><trkpt lat="45.6694422150406" lon="9.94275780464985"><ele>218.99999999999997</ele><time>2026-04-04T06:53:06Z</time></trkpt><trkpt lat="45.66936905738857" lon="9.942646003333948"><ele>219.0</ele><time>2026-04-04T06:53:08Z</time></trkpt><trkpt lat="45.6692957735383" lon="9.942526928823574"><ele>219.0</ele><time>2026-04-04T06:53:09.999Z</time></trkpt><trkpt lat="45.66922540207362" lon="9.942415772475872"><ele>217.6</ele><time>2026-04-04T06:53:11.999Z</time></trkpt><trkpt lat="45.66915617669477" lon="9.942310573746216"><ele>216.2</ele><time>2026-04-04T06:53:13.999Z</time></trkpt><trkpt lat="45.66908523053202" lon="9.942196956534879"><ele>214.79999999999998</ele><time>2026-04-04T06:53:15.999Z</time></trkpt><trkpt lat="45.669015388820526" lon="9.94208388724948"><ele>213.39999999999998</ele><time>2026-04-04T06:53:17.999Z</time></trkpt><trkpt lat="45.66895672689451" lon="9.941959790687639"><ele>212.0</ele><time>2026-04-04T06:53:19.999Z</time></trkpt><trkpt lat="45.668916601452494" lon="9.941821478089446"><ele>214.6</ele><time>2026-04-04T06:53:21.999Z</time></trkpt><trkpt lat="45.66889714070403" lon="9.941672605695276"><ele>217.2</ele><time>2026-04-04T06:53:23.999Z</time></trkpt><trkpt lat="45.668893809678906" lon="9.94152392859169"><ele>219.8</ele><time>2026-04-04T06:53:25.999Z</time></trkpt><trkpt lat="45.668902080401345" lon="9.941374125359824"><ele>222.4</ele><time>2026-04-04T06:53:27.999Z</time></trkpt><trkpt lat="45.66891090408835" lon="9.941226809635632"><ele>225.0</ele><time>2026-04-04T06:53:29.999Z</time></trkpt><trkpt lat="45.668916371710466" lon="9.941082868330573"><ele>225.0</ele><time>2026-04-04T06:53:31.999Z</time></trkpt><trkpt lat="45.66892344726765" lon="9.940939469571376"><ele>225.0</ele><time>2026-04-04T06:53:33.999Z</time></trkpt><trkpt lat="45.66892880249325" lon="9.94079916558557"><ele>225.0</ele><time>2026-04-04T06:53:35.999Z</time></trkpt><trkpt lat="45.66893834783766" lon="9.94066475214608"><ele>225.0</ele><time>2026-04-04T06:53:37.999Z</time></trkpt><trkpt lat="45.66895023092191" lon="9.940535145760078"><ele>225.0</ele><time>2026-04-04T06:53:39.999Z</time></trkpt><trkpt lat="45.66896220672646" lon="9.940408256715239"><ele>226.2</ele><time>2026-04-04T06:53:41.999Z</time></trkpt><trkpt lat="45.66897343084108" lon="9.940277439927858"><ele>227.4</ele><time>2026-04-04T06:53:43.999Z</time></trkpt><trkpt lat="45.66898772576103" lon="9.940159812821456"><ele>228.60000000000002</ele><time>2026-04-04T06:53:45.999Z</time></trkpt><trkpt lat="45.66902630635373" lon="9.940061348081873"><ele>229.8</ele><time>2026-04-04T06:53:47.999Z</time></trkpt><trkpt lat="45.66911591595916" lon="9.939996148566019"><ele>231.0</ele><time>2026-04-04T06:53:49.999Z</time></trkpt><trkpt lat="45.669215960968" lon="9.939954217530076"><ele>231.25</ele><time>2026-04-04T06:53:51.999Z</time></trkpt><trkpt lat="45.6693252708818" lon="9.939966061720186"><ele>231.5</ele><time>2026-04-04T06:53:53.999Z</time></trkpt><trkpt lat="45.66943586795976" lon="9.940011879812893"><ele>231.75</ele><time>2026-04-04T06:53:55.999Z</time></trkpt><trkpt lat="45.66954835834458" lon="9.940072837788625"><ele>232.0</ele><time>2026-04-04T06:53:57.999Z</time></trkpt><trkpt lat="45.66966100050812" lon="9.940129917052184"><ele>232.33333333333331</ele><time>2026-04-04T06:53:59.999Z</time></trkpt><trkpt lat="45.66978117507894" lon="9.94018282863503"><ele>232.66666666666666</ele><time>2026-04-04T06:54:01.998Z</time></trkpt><trkpt lat="45.669843619213104" lon="9.940196168343187"><ele>233.0</ele><time>2026-04-04T06:54:02.998Z</time></trkpt><trkpt lat="45.66990828060691" lon="9.94021381267901"><ele>233.33333333333331</ele><time>2026-04-04T06:54:03.998Z</time></trkpt><trkpt lat="45.669971453743216" lon="9.940219016842141"><ele>233.66666666666666</ele><time>2026-04-04T06:54:04.998Z</time></trkpt><trkpt lat="45.670038261924525" lon="9.940236326330577"><ele>234.0</ele><time>2026-04-04T06:54:05.998Z</time></trkpt><trkpt lat="45.670104000938856" lon="9.940244685632956"><ele>234.0</ele><time>2026-04-04T06:54:06.998Z</time></trkpt><trkpt lat="45.67022177842074" lon="9.940260151151337"><ele>234.0</ele><time>2026-04-04T06:54:08.998Z</time></trkpt><trkpt lat="45.670324583272674" lon="9.9402695535725"><ele>234.0</ele><time>2026-04-04T06:54:10.998Z</time></trkpt><trkpt lat="45.6703882647874" lon="9.940295053674275"><ele>234.0</ele><time>2026-04-04T06:54:13.998Z</time></trkpt><trkpt lat="45.6704549958112" lon="9.940264010906716"><ele>234.0</ele><time>2026-04-04T06:55:43.999Z</time></trkpt><trkpt lat="45.6705229496296" lon="9.940274331733255"><ele>234.0</ele><time>2026-04-04T06:55:45.999Z</time></trkpt><trkpt lat="45.670602509675234" lon="9.940284884743242"><ele>233.39999999999998</ele><time>2026-04-04T06:55:47.999Z</time></trkpt><trkpt lat="45.67068573839979" lon="9.940288958841455"><ele>232.79999999999998</ele><time>2026-04-04T06:55:49.999Z</time></trkpt><trkpt lat="45.6707773848165" lon="9.940295948726387"><ele>232.20000000000002</ele><time>2026-04-04T06:55:51.999Z</time></trkpt><trkpt lat="45.67087712078815" lon="9.940294118926024"><ele>231.60000000000002</ele><time>2026-04-04T06:55:53.999Z</time></trkpt><trkpt lat="45.67098206555717" lon="9.940307217587774"><ele>231.0</ele><time>2026-04-04T06:55:55.999Z</time></trkpt><trkpt lat="45.67108400545695" lon="9.940303556952415"><ele>230.5</ele><time>2026-04-04T06:55:57.999Z</time></trkpt><trkpt lat="45.671239535558556" lon="9.94030819878034"><ele>230.0</ele><time>2026-04-04T06:56:00.999Z</time></trkpt><trkpt lat="45.67136069391696" lon="9.94031169594691"><ele>229.5</ele><time>2026-04-04T06:56:02.999Z</time></trkpt><trkpt lat="45.6714807543994" lon="9.940315657091537"><ele>229.0</ele><time>2026-04-04T06:56:04.998Z</time></trkpt><trkpt lat="45.67160385976165" lon="9.940316790286051"><ele>229.0</ele><time>2026-04-04T06:56:06.998Z</time></trkpt><trkpt lat="45.6716678389852" lon="9.94031774570159"><ele>229.0</ele><time>2026-04-04T06:56:07.998Z</time></trkpt><trkpt lat="45.671731420222834" lon="9.940320131651967"><ele>229.0</ele><time>2026-04-04T06:56:08.998Z</time></trkpt><trkpt lat="45.6717949475488" lon="9.940320083434305"><ele>229.0</ele><time>2026-04-04T06:56:09.998Z</time></trkpt><trkpt lat="45.67185848234279" lon="9.940318836845393"><ele>229.0</ele><time>2026-04-04T06:56:10.998Z</time></trkpt><trkpt lat="45.671921370763386" lon="9.940313824144726"><ele>229.0</ele><time>2026-04-04T06:56:11.998Z</time></trkpt><trkpt lat="45.67204867058875" lon="9.940310762581161"><ele>229.0</ele><time>2026-04-04T06:56:13.998Z</time></trkpt><trkpt lat="45.67211199852183" lon="9.940309992447663"><ele>229.16666666666666</ele><time>2026-04-04T06:56:14.998Z</time></trkpt><trkpt lat="45.672177536171" lon="9.940313385228462"><ele>229.33333333333331</ele><time>2026-04-04T06:56:15.998Z</time></trkpt><trkpt lat="45.672297904826536" lon="9.940324394724927"><ele>229.5</ele><time>2026-04-04T06:56:17.998Z</time></trkpt><trkpt lat="45.67237225173267" lon="9.940324042628076"><ele>229.66666666666669</ele><time>2026-04-04T06:56:18.998Z</time></trkpt><trkpt lat="45.67248531706079" lon="9.940366398007626"><ele>229.83333333333334</ele><time>2026-04-04T06:56:20.998Z</time></trkpt><trkpt lat="45.672550218555735" lon="9.940391467785833"><ele>230.0</ele><time>2026-04-04T06:56:21.998Z</time></trkpt><trkpt lat="45.672615082492555" lon="9.940417103529072"><ele>230.0</ele><time>2026-04-04T06:56:22.998Z</time></trkpt><trkpt lat="45.67273491452406" lon="9.940461249976163"><ele>230.0</ele><time>2026-04-04T06:56:24.998Z</time></trkpt><trkpt lat="45.6728557990964" lon="9.940512961107295"><ele>230.0</ele><time>2026-04-04T06:56:26.998Z</time></trkpt><trkpt lat="45.672973891895964" lon="9.940573118423092"><ele>230.0</ele><time>2026-04-04T06:56:28.998Z</time></trkpt><trkpt lat="45.67303297923782" lon="9.940609666627884"><ele>230.0</ele><time>2026-04-04T06:56:29.998Z</time></trkpt><trkpt lat="45.67309320541434" lon="9.940642373950503"><ele>230.50000000000003</ele><time>2026-04-04T06:56:30.998Z</time></trkpt><trkpt lat="45.67315517976106" lon="9.94067443209595"><ele>231.0</ele><time>2026-04-04T06:56:31.998Z</time></trkpt><trkpt lat="45.67321631200234" lon="9.940708730751842"><ele>231.5</ele><time>2026-04-04T06:56:32.998Z</time></trkpt><trkpt lat="45.67327679847753" lon="9.940741066647202"><ele>232.0</ele><time>2026-04-04T06:56:33.998Z</time></trkpt><trkpt lat="45.67333826734358" lon="9.940777009465378"><ele>232.50000000000003</ele><time>2026-04-04T06:56:34.998Z</time></trkpt><trkpt lat="45.673455633547036" lon="9.940842138453965"><ele>233.0</ele><time>2026-04-04T06:56:36.998Z</time></trkpt><trkpt lat="45.67357531591455" lon="9.94089735485736"><ele>233.0</ele><time>2026-04-04T06:56:38.998Z</time></trkpt><trkpt lat="45.67363623523789" lon="9.940926270906889"><ele>233.0</ele><time>2026-04-04T06:56:39.998Z</time></trkpt><trkpt lat="45.673695479360745" lon="9.940968369057076"><ele>233.0</ele><time>2026-04-04T06:56:40.998Z</time></trkpt><trkpt lat="45.67375824226038" lon="9.940998793528848"><ele>233.0</ele><time>2026-04-04T06:56:41.998Z</time></trkpt><trkpt lat="45.673821605628426" lon="9.941031161039222"><ele>233.0</ele><time>2026-04-04T06:56:42.998Z</time></trkpt><trkpt lat="45.67388132389223" lon="9.941065622134833"><ele>233.0</ele><time>2026-04-04T06:56:43.998Z</time></trkpt><trkpt lat="45.67394754743325" lon="9.94109620711601"><ele>233.0</ele><time>2026-04-04T06:56:44.998Z</time></trkpt><trkpt lat="45.674012149389306" lon="9.941122118818933"><ele>233.0</ele><time>2026-04-04T06:56:45.998Z</time></trkpt><trkpt lat="45.67407744226337" lon="9.94114708421001"><ele>233.0</ele><time>2026-04-04T06:56:46.998Z</time></trkpt><trkpt lat="45.67414276848686" lon="9.941168249758663"><ele>233.0</ele><time>2026-04-04T06:56:47.998Z</time></trkpt><trkpt lat="45.67420814984841" lon="9.941192661418414"><ele>233.0</ele><time>2026-04-04T06:56:48.998Z</time></trkpt><trkpt lat="45.67427269923916" lon="9.941212447894253"><ele>233.0</ele><time>2026-04-04T06:56:49.998Z</time></trkpt><trkpt lat="45.67433734942759" lon="9.941224694709572"><ele>233.0</ele><time>2026-04-04T06:56:51Z</time></trkpt><trkpt lat="45.674399300847085" lon="9.941241065648834"><ele>233.0</ele><time>2026-04-04T06:56:52Z</time></trkpt><trkpt lat="45.674521889286915" lon="9.941266717496381"><ele>232.28571428571428</ele><time>2026-04-04T06:56:54Z</time></trkpt><trkpt lat="45.674586685037525" lon="9.941276817887623"><ele>231.57142857142856</ele><time>2026-04-04T06:56:55Z</time></trkpt><trkpt lat="45.67465186712139" lon="9.941294539968073"><ele>230.85714285714283</ele><time>2026-04-04T06:56:56Z</time></trkpt><trkpt lat="45.67472287114407" lon="9.941302780061784"><ele>230.14285714285714</ele><time>2026-04-04T06:56:57Z</time></trkpt><trkpt lat="45.67480095660101" lon="9.941319371963743"><ele>229.4285714285714</ele><time>2026-04-04T06:56:58Z</time></trkpt><trkpt lat="45.67487795086507" lon="9.941333594388151"><ele>228.7142857142857</ele><time>2026-04-04T06:56:59Z</time></trkpt><trkpt lat="45.67495732638097" lon="9.941349696100197"><ele>228.0</ele><time>2026-04-04T06:57:00Z</time></trkpt><trkpt lat="45.675042402822946" lon="9.941370616408687"><ele>228.0</ele><time>2026-04-04T06:57:01Z</time></trkpt><trkpt lat="45.675132665811056" lon="9.94139064332047"><ele>228.0</ele><time>2026-04-04T06:57:02Z</time></trkpt><trkpt lat="45.6752241363567" lon="9.941409215579801"><ele>228.0</ele><time>2026-04-04T06:57:03Z</time></trkpt><trkpt lat="45.6753212032717" lon="9.941430005750263"><ele>228.0</ele><time>2026-04-04T06:57:04Z</time></trkpt><trkpt lat="45.675420019605184" lon="9.9414506183271"><ele>228.0</ele><time>2026-04-04T06:57:05Z</time></trkpt><trkpt lat="45.6755198247165" lon="9.94146544881878"><ele>227.60000000000002</ele><time>2026-04-04T06:57:06Z</time></trkpt><trkpt lat="45.675617823991814" lon="9.941480566723166"><ele>227.20000000000002</ele><time>2026-04-04T06:57:07Z</time></trkpt><trkpt lat="45.67571684209861" lon="9.94149779312072"><ele>226.8</ele><time>2026-04-04T06:57:08Z</time></trkpt><trkpt lat="45.67581393578277" lon="9.941525926106983"><ele>226.4</ele><time>2026-04-04T06:57:09Z</time></trkpt><trkpt lat="45.675904472072396" lon="9.941575366453787"><ele>226.0</ele><time>2026-04-04T06:57:10Z</time></trkpt><trkpt lat="45.67598986076349" lon="9.941640973144006"><ele>225.99999999999997</ele><time>2026-04-04T06:57:11Z</time></trkpt><trkpt lat="45.676069354143145" lon="9.941714057204981"><ele>226.0</ele><time>2026-04-04T06:57:12Z</time></trkpt><trkpt lat="45.67614391265075" lon="9.941792596993027"><ele>226.0</ele><time>2026-04-04T06:57:13Z</time></trkpt><trkpt lat="45.676211538407514" lon="9.941874615991066"><ele>226.0</ele><time>2026-04-04T06:57:14Z</time></trkpt><trkpt lat="45.67627658056715" lon="9.941950873125242"><ele>225.99999999999997</ele><time>2026-04-04T06:57:15Z</time></trkpt><trkpt lat="45.676344488752335" lon="9.94202050196455"><ele>226.0</ele><time>2026-04-04T06:57:16Z</time></trkpt><trkpt lat="45.676410519932624" lon="9.942087426642075"><ele>225.83333333333331</ele><time>2026-04-04T06:57:17Z</time></trkpt><trkpt lat="45.676476783138106" lon="9.942154420547846"><ele>225.66666666666666</ele><time>2026-04-04T06:57:17.999Z</time></trkpt><trkpt lat="45.676542396411506" lon="9.942222688192997"><ele>225.5</ele><time>2026-04-04T06:57:18.999Z</time></trkpt><trkpt lat="45.67660676531831" lon="9.942287960387075"><ele>225.33333333333331</ele><time>2026-04-04T06:57:19.999Z</time></trkpt><trkpt lat="45.67666959321484" lon="9.942352795190928"><ele>225.16666666666666</ele><time>2026-04-04T06:57:20.999Z</time></trkpt><trkpt lat="45.676733361269996" lon="9.94241971972001"><ele>225.0</ele><time>2026-04-04T06:57:21.999Z</time></trkpt><trkpt lat="45.676797187077185" lon="9.942481214340374"><ele>225.0</ele><time>2026-04-04T06:57:22.999Z</time></trkpt><trkpt lat="45.676862138279844" lon="9.942544478853558"><ele>225.0</ele><time>2026-04-04T06:57:23.999Z</time></trkpt><trkpt lat="45.67692423449927" lon="9.942608091667951"><ele>225.0</ele><time>2026-04-04T06:57:24.999Z</time></trkpt><trkpt lat="45.67698560691161" lon="9.942671136988197"><ele>225.0</ele><time>2026-04-04T06:57:25.999Z</time></trkpt><trkpt lat="45.6770498609888" lon="9.942731688208749"><ele>225.0</ele><time>2026-04-04T06:57:26.999Z</time></trkpt><trkpt lat="45.67711207602223" lon="9.942794062935889"><ele>225.0</ele><time>2026-04-04T06:57:27.999Z</time></trkpt><trkpt lat="45.677177913579385" lon="9.942853535426138"><ele>225.83333333333334</ele><time>2026-04-04T06:57:28.999Z</time></trkpt><trkpt lat="45.67724376531916" lon="9.942913811705658"><ele>226.66666666666669</ele><time>2026-04-04T06:57:29.999Z</time></trkpt><trkpt lat="45.67730806716412" lon="9.942970750638251"><ele>227.5</ele><time>2026-04-04T06:57:30.999Z</time></trkpt><trkpt lat="45.67737020756743" lon="9.943033716981637"><ele>228.33333333333334</ele><time>2026-04-04T06:57:31.999Z</time></trkpt><trkpt lat="45.677427899880364" lon="9.9431016164159"><ele>229.16666666666669</ele><time>2026-04-04T06:57:32.999Z</time></trkpt><trkpt lat="45.6774829804109" lon="9.943174042274059"><ele>230.0</ele><time>2026-04-04T06:57:33.999Z</time></trkpt><trkpt lat="45.67753479505512" lon="9.943252014152435"><ele>229.99999999999997</ele><time>2026-04-04T06:57:34.999Z</time></trkpt><trkpt lat="45.677580336985784" lon="9.943334038639845"><ele>230.0</ele><time>2026-04-04T06:57:35.999Z</time></trkpt><trkpt lat="45.677624924629065" lon="9.943417945809164"><ele>229.99999999999997</ele><time>2026-04-04T06:57:36.999Z</time></trkpt><trkpt lat="45.677667708954765" lon="9.94350212325962"><ele>229.99999999999997</ele><time>2026-04-04T06:57:37.999Z</time></trkpt><trkpt lat="45.67770896081521" lon="9.943585266247316"><ele>230.0</ele><time>2026-04-04T06:57:38.999Z</time></trkpt><trkpt lat="45.67775008840493" lon="9.94367140601383"><ele>229.99999999999997</ele><time>2026-04-04T06:57:39.999Z</time></trkpt><trkpt lat="45.67779296656779" lon="9.943756131137711"><ele>229.99999999999997</ele><time>2026-04-04T06:57:40.999Z</time></trkpt><trkpt lat="45.67783545416395" lon="9.943841710781124"><ele>230.4285714285714</ele><time>2026-04-04T06:57:41.999Z</time></trkpt><trkpt lat="45.677878515375305" lon="9.943922870285588"><ele>230.85714285714283</ele><time>2026-04-04T06:57:42.999Z</time></trkpt><trkpt lat="45.677920786687324" lon="9.944007486193476"><ele>231.28571428571428</ele><time>2026-04-04T06:57:43.999Z</time></trkpt><trkpt lat="45.677960395841765" lon="9.944090951458593"><ele>231.7142857142857</ele><time>2026-04-04T06:57:44.999Z</time></trkpt><trkpt lat="45.67800149568124" lon="9.944176203431923"><ele>232.1428571428571</ele><time>2026-04-04T06:57:45.999Z</time></trkpt><trkpt lat="45.67804344140044" lon="9.94425947996395"><ele>232.57142857142858</ele><time>2026-04-04T06:57:46.999Z</time></trkpt><trkpt lat="45.67808900186245" lon="9.944340460761687"><ele>233.0</ele><time>2026-04-04T06:57:47.999Z</time></trkpt><trkpt lat="45.67813516709493" lon="9.944422841294086"><ele>231.85714285714286</ele><time>2026-04-04T06:57:48.999Z</time></trkpt><trkpt lat="45.67818376444978" lon="9.944501796962022"><ele>230.71428571428572</ele><time>2026-04-04T06:57:49.999Z</time></trkpt><trkpt lat="45.6782380990626" lon="9.944575364510834"><ele>229.57142857142858</ele><time>2026-04-04T06:57:50.999Z</time></trkpt><trkpt lat="45.67829323180257" lon="9.94464889588966"><ele>228.42857142857144</ele><time>2026-04-04T06:57:51.999Z</time></trkpt><trkpt lat="45.67834811044125" lon="9.944721464916965"><ele>227.28571428571428</ele><time>2026-04-04T06:57:52.999Z</time></trkpt><trkpt lat="45.678404201806536" lon="9.944792513245345"><ele>226.14285714285717</ele><time>2026-04-04T06:57:53.999Z</time></trkpt><trkpt lat="45.67846179103807" lon="9.94486130872683"><ele>225.00000000000003</ele><time>2026-04-04T06:57:54.999Z</time></trkpt><trkpt lat="45.67852240708102" lon="9.944927468678275"><ele>225.0</ele><time>2026-04-04T06:57:55.999Z</time></trkpt><trkpt lat="45.67858148442956" lon="9.944993278222809"><ele>225.0</ele><time>2026-04-04T06:57:56.999Z</time></trkpt><trkpt lat="45.6786408203972" lon="9.945058130453843"><ele>225.0</ele><time>2026-04-04T06:57:57.999Z</time></trkpt><trkpt lat="45.67869911426593" lon="9.945125776972535"><ele>225.0</ele><time>2026-04-04T06:57:58.999Z</time></trkpt><trkpt lat="45.678759356067225" lon="9.9451898962364"><ele>225.0</ele><time>2026-04-04T06:57:59.999Z</time></trkpt><trkpt lat="45.67881797819012" lon="9.945255207523013"><ele>225.0</ele><time>2026-04-04T06:58:00.999Z</time></trkpt><trkpt lat="45.67887987146498" lon="9.945318898608878"><ele>225.14285714285717</ele><time>2026-04-04T06:58:01.999Z</time></trkpt><trkpt lat="45.67893810112713" lon="9.945384630295951"><ele>225.28571428571428</ele><time>2026-04-04T06:58:02.999Z</time></trkpt><trkpt lat="45.6789966533942" lon="9.945450703140324"><ele>225.42857142857144</ele><time>2026-04-04T06:58:03.999Z</time></trkpt><trkpt lat="45.67905422472805" lon="9.945514413726505"><ele>225.57142857142858</ele><time>2026-04-04T06:58:04.999Z</time></trkpt><trkpt lat="45.679112315615214" lon="9.9455780017327"><ele>225.71428571428572</ele><time>2026-04-04T06:58:05.999Z</time></trkpt><trkpt lat="45.67916993617199" lon="9.945641301427102"><ele>225.85714285714286</ele><time>2026-04-04T06:58:06.999Z</time></trkpt><trkpt lat="45.679226365896284" lon="9.945704878341536"><ele>226.0</ele><time>2026-04-04T06:58:07.999Z</time></trkpt><trkpt lat="45.67928121215895" lon="9.945765627787186"><ele>226.0</ele><time>2026-04-04T06:58:08.999Z</time></trkpt><trkpt lat="45.67933698189431" lon="9.945825337923166"><ele>226.0</ele><time>2026-04-04T06:58:09.998Z</time></trkpt><trkpt lat="45.67939106538028" lon="9.94588234490484"><ele>226.0</ele><time>2026-04-04T06:58:10.998Z</time></trkpt><trkpt lat="45.67944496268409" lon="9.945942524613253"><ele>226.0</ele><time>2026-04-04T06:58:11.998Z</time></trkpt><trkpt lat="45.67949802032639" lon="9.946001596617364"><ele>226.0</ele><time>2026-04-04T06:58:12.998Z</time></trkpt><trkpt lat="45.679552339599944" lon="9.94606161659748"><ele>226.0</ele><time>2026-04-04T06:58:13.998Z</time></trkpt><trkpt lat="45.679604700886486" lon="9.946120524135138"><ele>226.0</ele><time>2026-04-04T06:58:14.998Z</time></trkpt><trkpt lat="45.679659148467294" lon="9.946177944866958"><ele>226.14285714285717</ele><time>2026-04-04T06:58:15.998Z</time></trkpt><trkpt lat="45.679713611762146" lon="9.946234553733596"><ele>226.28571428571428</ele><time>2026-04-04T06:58:16.998Z</time></trkpt><trkpt lat="45.67976584226532" lon="9.946293632571496"><ele>226.42857142857144</ele><time>2026-04-04T06:58:17.998Z</time></trkpt><trkpt lat="45.67981781425449" lon="9.946349408128244"><ele>226.57142857142858</ele><time>2026-04-04T06:58:18.998Z</time></trkpt><trkpt lat="45.6798688880887" lon="9.946410271883732"><ele>226.71428571428572</ele><time>2026-04-04T06:58:19.998Z</time></trkpt><trkpt lat="45.67991968270467" lon="9.946467940565862"><ele>226.85714285714286</ele><time>2026-04-04T06:58:20.998Z</time></trkpt><trkpt lat="45.67997300230021" lon="9.94652348898673"><ele>227.0</ele><time>2026-04-04T06:58:21.998Z</time></trkpt><trkpt lat="45.68007668414807" lon="9.946634380591883"><ele>227.0</ele><time>2026-04-04T06:58:23.998Z</time></trkpt><trkpt lat="45.68013137736391" lon="9.946684365899392"><ele>227.00000000000003</ele><time>2026-04-04T06:58:24.998Z</time></trkpt><trkpt lat="45.68018760914111" lon="9.946732780825085"><ele>227.0</ele><time>2026-04-04T06:58:25.998Z</time></trkpt><trkpt lat="45.68024411321977" lon="9.946780463679655"><ele>227.0</ele><time>2026-04-04T06:58:26.998Z</time></trkpt><trkpt lat="45.68030130675023" lon="9.946823162079777"><ele>227.00000000000003</ele><time>2026-04-04T06:58:27.998Z</time></trkpt><trkpt lat="45.68036044307071" lon="9.946862663365465"><ele>227.0</ele><time>2026-04-04T06:58:28.998Z</time></trkpt><trkpt lat="45.680420246332126" lon="9.94690027938074"><ele>227.0</ele><time>2026-04-04T06:58:29.998Z</time></trkpt><trkpt lat="45.6804784464656" lon="9.946940756613108"><ele>227.16666666666669</ele><time>2026-04-04T06:58:30.998Z</time></trkpt><trkpt lat="45.68053863154054" lon="9.946978078298025"><ele>227.33333333333334</ele><time>2026-04-04T06:58:31.998Z</time></trkpt><trkpt lat="45.680598016035326" lon="9.947014303787011"><ele>227.5</ele><time>2026-04-04T06:58:32.998Z</time></trkpt><trkpt lat="45.68065847303976" lon="9.947048378673585"><ele>227.66666666666669</ele><time>2026-04-04T06:58:33.998Z</time></trkpt><trkpt lat="45.68077833453771" lon="9.94709752676187"><ele>227.83333333333334</ele><time>2026-04-04T06:58:35.998Z</time></trkpt><trkpt lat="45.68089196727047" lon="9.947148098730437"><ele>228.0</ele><time>2026-04-04T06:58:37.998Z</time></trkpt><trkpt lat="45.68100271445592" lon="9.947199709930551"><ele>229.0</ele><time>2026-04-04T06:58:39.998Z</time></trkpt><trkpt lat="45.68110227651057" lon="9.947235544775621"><ele>230.0</ele><time>2026-04-04T06:58:41.998Z</time></trkpt><trkpt lat="45.68119090821817" lon="9.947267942060215"><ele>231.0</ele><time>2026-04-04T06:58:43.998Z</time></trkpt><trkpt lat="45.681272465165584" lon="9.94731136145722"><ele>232.0</ele><time>2026-04-04T06:58:45.998Z</time></trkpt><trkpt lat="45.68135218761787" lon="9.947348905511975"><ele>233.0</ele><time>2026-04-04T06:58:47.998Z</time></trkpt><trkpt lat="45.68142748469081" lon="9.947381160103431"><ele>234.0</ele><time>2026-04-04T06:58:49.998Z</time></trkpt><trkpt lat="45.68150030325128" lon="9.947409742785416"><ele>234.0</ele><time>2026-04-04T06:58:51.998Z</time></trkpt><trkpt lat="45.68157560978792" lon="9.947444515608906"><ele>234.0</ele><time>2026-04-04T06:58:53.998Z</time></trkpt><trkpt lat="45.681646458608746" lon="9.947480789266216"><ele>234.0</ele><time>2026-04-04T06:58:55.998Z</time></trkpt><trkpt lat="45.68172308217759" lon="9.947510797647865"><ele>234.0</ele><time>2026-04-04T06:58:58Z</time></trkpt><trkpt lat="45.68179823315352" lon="9.947542615704954"><ele>234.0</ele><time>2026-04-04T06:59:00Z</time></trkpt><trkpt lat="45.68187525611942" lon="9.94756711667148"><ele>234.0</ele><time>2026-04-04T06:59:02Z</time></trkpt><trkpt lat="45.68195286679635" lon="9.947597169777136"><ele>234.5</ele><time>2026-04-04T06:59:04Z</time></trkpt><trkpt lat="45.68202763812209" lon="9.94763297869771"><ele>235.0</ele><time>2026-04-04T06:59:06Z</time></trkpt><trkpt lat="45.682104789680004" lon="9.947665331433006"><ele>235.5</ele><time>2026-04-04T06:59:08Z</time></trkpt><trkpt lat="45.68218096685672" lon="9.947701119096346"><ele>236.0</ele><time>2026-04-04T06:59:10Z</time></trkpt><trkpt lat="45.6822586643095" lon="9.947732140486433"><ele>236.5</ele><time>2026-04-04T06:59:12Z</time></trkpt><trkpt lat="45.682332400478124" lon="9.947770415128966"><ele>237.0</ele><time>2026-04-04T06:59:14Z</time></trkpt><trkpt lat="45.68240230829227" lon="9.947809293270925"><ele>236.99999999999997</ele><time>2026-04-04T06:59:16Z</time></trkpt><trkpt lat="45.68246497392137" lon="9.947863018138193"><ele>237.0</ele><time>2026-04-04T06:59:18Z</time></trkpt><trkpt lat="45.68252249835568" lon="9.947929352828146"><ele>236.99999999999997</ele><time>2026-04-04T06:59:20Z</time></trkpt><trkpt lat="45.68256956688384" lon="9.948007480127886"><ele>236.99999999999997</ele><time>2026-04-04T06:59:21.999Z</time></trkpt><trkpt lat="45.68260524295594" lon="9.948091135371454"><ele>237.0</ele><time>2026-04-04T06:59:23.999Z</time></trkpt><trkpt lat="45.682630824506354" lon="9.94818664179154"><ele>236.99999999999997</ele><time>2026-04-04T06:59:25.999Z</time></trkpt><trkpt lat="45.682651572913144" lon="9.948284463458286"><ele>236.99999999999997</ele><time>2026-04-04T06:59:27.999Z</time></trkpt><trkpt lat="45.68266664266355" lon="9.948379523728175"><ele>236.85714285714283</ele><time>2026-04-04T06:59:29.999Z</time></trkpt><trkpt lat="45.68268220035681" lon="9.94847407672849"><ele>236.71428571428572</ele><time>2026-04-04T06:59:31.999Z</time></trkpt><trkpt lat="45.68270175455098" lon="9.948570348161994"><ele>236.57142857142856</ele><time>2026-04-04T06:59:33.999Z</time></trkpt><trkpt lat="45.682724110982676" lon="9.948659893443162"><ele>236.42857142857142</ele><time>2026-04-04T06:59:35.999Z</time></trkpt><trkpt lat="45.682747215936" lon="9.948747070543"><ele>236.28571428571428</ele><time>2026-04-04T06:59:37.999Z</time></trkpt><trkpt lat="45.68277496042428" lon="9.948837580331869"><ele>236.14285714285714</ele><time>2026-04-04T06:59:39.999Z</time></trkpt><trkpt lat="45.68280886951616" lon="9.948923304975626"><ele>236.0</ele><time>2026-04-04T06:59:41.999Z</time></trkpt><trkpt lat="45.68284422227052" lon="9.949007223080022"><ele>237.14285714285714</ele><time>2026-04-04T06:59:43.999Z</time></trkpt><trkpt lat="45.68288240601706" lon="9.949087856057368"><ele>238.28571428571428</ele><time>2026-04-04T06:59:45.999Z</time></trkpt><trkpt lat="45.68292069733188" lon="9.949166900941984"><ele>239.42857142857142</ele><time>2026-04-04T06:59:47.999Z</time></trkpt><trkpt lat="45.68296206950726" lon="9.949243666480493"><ele>240.57142857142856</ele><time>2026-04-04T06:59:49.999Z</time></trkpt><trkpt lat="45.68300272114918" lon="9.9493203587911"><ele>241.71428571428572</ele><time>2026-04-04T06:59:51.999Z</time></trkpt><trkpt lat="45.68304522986487" lon="9.949392590521283"><ele>242.85714285714283</ele><time>2026-04-04T06:59:53.999Z</time></trkpt><trkpt lat="45.68309315328132" lon="9.949461435254108"><ele>243.99999999999997</ele><time>2026-04-04T06:59:55.999Z</time></trkpt><trkpt lat="45.683139778334976" lon="9.949530144206008"><ele>243.99999999999997</ele><time>2026-04-04T06:59:57.999Z</time></trkpt><trkpt lat="45.68319171464085" lon="9.949594488184905"><ele>244.0</ele><time>2026-04-04T06:59:59.999Z</time></trkpt><trkpt lat="45.68324441315063" lon="9.94965674821038"><ele>243.99999999999997</ele><time>2026-04-04T07:00:01.999Z</time></trkpt><trkpt lat="45.68329716278683" lon="9.949717746192674"><ele>243.99999999999997</ele><time>2026-04-04T07:00:03.999Z</time></trkpt><trkpt lat="45.683350606965455" lon="9.949782421659435"><ele>244.0</ele><time>2026-04-04T07:00:05.999Z</time></trkpt><trkpt lat="45.6834130135071" lon="9.949831835186728"><ele>243.99999999999997</ele><time>2026-04-04T07:00:07.999Z</time></trkpt><trkpt lat="45.68347460954768" lon="9.949880346201278"><ele>243.99999999999997</ele><time>2026-04-04T07:00:09.999Z</time></trkpt><trkpt lat="45.68353292541077" lon="9.949929214149604"><ele>243.99999999999997</ele><time>2026-04-04T07:00:11.999Z</time></trkpt><trkpt lat="45.68359678604525" lon="9.949966386191484"><ele>244.0</ele><time>2026-04-04T07:00:13.998Z</time></trkpt><trkpt lat="45.683656356407965" lon="9.950009856529283"><ele>243.99999999999997</ele><time>2026-04-04T07:00:15.998Z</time></trkpt><trkpt lat="45.683717625798494" lon="9.950051371670742"><ele>243.99999999999997</ele><time>2026-04-04T07:00:17.998Z</time></trkpt><trkpt lat="45.68377871530959" lon="9.95009309889001"><ele>244.0</ele><time>2026-04-04T07:00:19.998Z</time></trkpt><trkpt lat="45.683841373640504" lon="9.950132082467267"><ele>243.99999999999997</ele><time>2026-04-04T07:00:21.998Z</time></trkpt><trkpt lat="45.68390354113468" lon="9.950167195685037"><ele>243.99999999999997</ele><time>2026-04-04T07:00:23.998Z</time></trkpt><trkpt lat="45.683965194901525" lon="9.950209080099434"><ele>244.4285714285714</ele><time>2026-04-04T07:00:25.998Z</time></trkpt><trkpt lat="45.68402651825083" lon="9.950244323246435"><ele>244.85714285714283</ele><time>2026-04-04T07:00:27.998Z</time></trkpt><trkpt lat="45.6840913467945" lon="9.95028810263281"><ele>245.28571428571428</ele><time>2026-04-04T07:00:29.998Z</time></trkpt><trkpt lat="45.684149644131686" lon="9.950326737259065"><ele>245.7142857142857</ele><time>2026-04-04T07:00:32.998Z</time></trkpt><trkpt lat="45.684210677098584" lon="9.950376735450856"><ele>246.1428571428571</ele><time>2026-04-04T07:00:33.998Z</time></trkpt><trkpt lat="45.68427443893898" lon="9.950428076602238"><ele>246.57142857142858</ele><time>2026-04-04T07:00:35.998Z</time></trkpt><trkpt lat="45.68432353878294" lon="9.950491765853068"><ele>247.0</ele><time>2026-04-04T07:00:37.998Z</time></trkpt><trkpt lat="45.6843752629825" lon="9.950563977458794"><ele>247.0</ele><time>2026-04-04T07:00:39.998Z</time></trkpt><trkpt lat="45.684425927706286" lon="9.950640364916989"><ele>247.0</ele><time>2026-04-04T07:00:41.998Z</time></trkpt><trkpt lat="45.68446884386049" lon="9.95071666319347"><ele>247.0</ele><time>2026-04-04T07:00:43.998Z</time></trkpt><trkpt lat="45.684511328180974" lon="9.95079321078587"><ele>247.0</ele><time>2026-04-04T07:00:45.998Z</time></trkpt><trkpt lat="45.68455830538044" lon="9.95086522033959"><ele>247.0</ele><time>2026-04-04T07:00:47.998Z</time></trkpt><trkpt lat="45.6846065118091" lon="9.95093638632905"><ele>247.0</ele><time>2026-04-04T07:00:49.998Z</time></trkpt><trkpt lat="45.684654853564446" lon="9.951009458133864"><ele>247.0</ele><time>2026-04-04T07:00:51.998Z</time></trkpt><trkpt lat="45.68470570161058" lon="9.951077943857479"><ele>248.28571428571428</ele><time>2026-04-04T07:00:53.998Z</time></trkpt><trkpt lat="45.684762177299866" lon="9.951145316471747"><ele>249.57142857142856</ele><time>2026-04-04T07:00:55.998Z</time></trkpt><trkpt lat="45.684819416319165" lon="9.951209949042983"><ele>250.85714285714283</ele><time>2026-04-04T07:00:57.998Z</time></trkpt><trkpt lat="45.6848788933914" lon="9.95126846521764"><ele>252.14285714285714</ele><time>2026-04-04T07:00:59.998Z</time></trkpt><trkpt lat="45.68493578928374" lon="9.951325501044508"><ele>253.4285714285714</ele><time>2026-04-04T07:01:01.998Z</time></trkpt><trkpt lat="45.68499313618626" lon="9.951377283070045"><ele>254.7142857142857</ele><time>2026-04-04T07:01:04Z</time></trkpt><trkpt lat="45.6850520732166" lon="9.95143016905612"><ele>256.0</ele><time>2026-04-04T07:01:06Z</time></trkpt><trkpt lat="45.68511288544713" lon="9.951477796759079"><ele>256.0</ele><time>2026-04-04T07:01:08Z</time></trkpt><trkpt lat="45.6851732290282" lon="9.951528962647341"><ele>255.99999999999997</ele><time>2026-04-04T07:01:10Z</time></trkpt><trkpt lat="45.685234798492964" lon="9.951575773801851"><ele>256.0</ele><time>2026-04-04T07:01:12Z</time></trkpt><trkpt lat="45.68529281283765" lon="9.951627809639767"><ele>256.0</ele><time>2026-04-04T07:01:14Z</time></trkpt><trkpt lat="45.68535311489075" lon="9.951673590191353"><ele>255.99999999999997</ele><time>2026-04-04T07:01:16Z</time></trkpt><trkpt lat="45.68541594534731" lon="9.951714752401731"><ele>256.0</ele><time>2026-04-04T07:01:18Z</time></trkpt><trkpt lat="45.68548059312677" lon="9.951749959590485"><ele>256.0</ele><time>2026-04-04T07:01:20Z</time></trkpt><trkpt lat="45.685545123331195" lon="9.951779423705744"><ele>255.57142857142856</ele><time>2026-04-04T07:01:22Z</time></trkpt><trkpt lat="45.68561250464025" lon="9.951799610669585"><ele>255.1428571428571</ele><time>2026-04-04T07:01:24Z</time></trkpt><trkpt lat="45.68568174797375" lon="9.951817167273463"><ele>254.71428571428572</ele><time>2026-04-04T07:01:25.999Z</time></trkpt><trkpt lat="45.6857492498441" lon="9.95183041535575"><ele>254.28571428571428</ele><time>2026-04-04T07:01:27.999Z</time></trkpt><trkpt lat="45.685818728696496" lon="9.951842563452002"><ele>253.85714285714286</ele><time>2026-04-04T07:01:29.999Z</time></trkpt><trkpt lat="45.685887356540526" lon="9.951852644990876"><ele>253.42857142857144</ele><time>2026-04-04T07:01:31.999Z</time></trkpt><trkpt lat="45.685954882119404" lon="9.951864238331469"><ele>253.00000000000003</ele><time>2026-04-04T07:01:33.999Z</time></trkpt><trkpt lat="45.68602260691146" lon="9.951875674780062"><ele>253.00000000000003</ele><time>2026-04-04T07:01:35.999Z</time></trkpt><trkpt lat="45.686090833365405" lon="9.951882266418915"><ele>253.0</ele><time>2026-04-04T07:01:37.999Z</time></trkpt><trkpt lat="45.68615880931831" lon="9.95189481962018"><ele>253.00000000000003</ele><time>2026-04-04T07:01:39.999Z</time></trkpt><trkpt lat="45.68622894640946" lon="9.951904610880145"><ele>253.00000000000003</ele><time>2026-04-04T07:01:41.999Z</time></trkpt><trkpt lat="45.68629765529022" lon="9.95191266417466"><ele>253.0</ele><time>2026-04-04T07:01:43.999Z</time></trkpt><trkpt lat="45.68636751039839" lon="9.951924146173242"><ele>253.00000000000003</ele><time>2026-04-04T07:01:45.999Z</time></trkpt><trkpt lat="45.68644001122108" lon="9.951932234361253"><ele>253.00000000000003</ele><time>2026-04-04T07:01:47.999Z</time></trkpt><trkpt lat="45.686509671906116" lon="9.951941469769123"><ele>254.5714285714286</ele><time>2026-04-04T07:01:49.999Z</time></trkpt><trkpt lat="45.68657962011816" lon="9.951952702917385"><ele>256.14285714285717</ele><time>2026-04-04T07:01:51.999Z</time></trkpt><trkpt lat="45.68664953055439" lon="9.951966078360806"><ele>257.7142857142857</ele><time>2026-04-04T07:01:53.999Z</time></trkpt><trkpt lat="45.68672086408294" lon="9.95197308739546"><ele>259.28571428571433</ele><time>2026-04-04T07:01:55.999Z</time></trkpt><trkpt lat="45.68679337068783" lon="9.95197819801045"><ele>260.8571428571429</ele><time>2026-04-04T07:01:57.999Z</time></trkpt><trkpt lat="45.686866470182764" lon="9.95198072380953"><ele>262.42857142857144</ele><time>2026-04-04T07:01:59.999Z</time></trkpt><trkpt lat="45.68693916895834" lon="9.951976351290266"><ele>264.0</ele><time>2026-04-04T07:02:01.999Z</time></trkpt><trkpt lat="45.68701175803032" lon="9.95196283374863"><ele>264.2857142857143</ele><time>2026-04-04T07:02:03.999Z</time></trkpt><trkpt lat="45.68708423981161" lon="9.951950616114623"><ele>264.57142857142856</ele><time>2026-04-04T07:02:05.999Z</time></trkpt><trkpt lat="45.68715720814299" lon="9.951934604506157"><ele>264.8571428571429</ele><time>2026-04-04T07:02:07.999Z</time></trkpt><trkpt lat="45.68722966709733" lon="9.951919346661954"><ele>265.1428571428571</ele><time>2026-04-04T07:02:09.999Z</time></trkpt><trkpt lat="45.68730389727206" lon="9.951898173497666"><ele>265.42857142857144</ele><time>2026-04-04T07:02:11.999Z</time></trkpt><trkpt lat="45.68737675287617" lon="9.951878108671803"><ele>265.7142857142857</ele><time>2026-04-04T07:02:13.999Z</time></trkpt><trkpt lat="45.68744830709405" lon="9.951858688633118"><ele>266.0</ele><time>2026-04-04T07:02:15.999Z</time></trkpt><trkpt lat="45.68752155024457" lon="9.951840639024544"><ele>266.0</ele><time>2026-04-04T07:02:17.998Z</time></trkpt><trkpt lat="45.687595268121356" lon="9.951825684185735"><ele>266.0</ele><time>2026-04-04T07:02:19.998Z</time></trkpt><trkpt lat="45.68767100279214" lon="9.951803679558584"><ele>266.0</ele><time>2026-04-04T07:02:21.998Z</time></trkpt><trkpt lat="45.687744818363086" lon="9.951782238704997"><ele>266.0</ele><time>2026-04-04T07:02:23.998Z</time></trkpt><trkpt lat="45.68781711579409" lon="9.951761955080022"><ele>266.0</ele><time>2026-04-04T07:02:25.998Z</time></trkpt><trkpt lat="45.68789229427709" lon="9.951745826636591"><ele>266.0</ele><time>2026-04-04T07:02:27.998Z</time></trkpt><trkpt lat="45.68796523822812" lon="9.95172694257234"><ele>269.5</ele><time>2026-04-04T07:02:29.998Z</time></trkpt><trkpt lat="45.68804256051327" lon="9.951705559415627"><ele>273.0</ele><time>2026-04-04T07:02:31.998Z</time></trkpt><trkpt lat="45.68811814411597" lon="9.951688665457677"><ele>276.5</ele><time>2026-04-04T07:02:33.998Z</time></trkpt><trkpt lat="45.688193287993585" lon="9.951664783709884"><ele>280.0</ele><time>2026-04-04T07:02:35.998Z</time></trkpt><trkpt lat="45.68827487008302" lon="9.951637553903543"><ele>283.5</ele><time>2026-04-04T07:02:37.998Z</time></trkpt><trkpt lat="45.688359311169876" lon="9.951613308133247"><ele>287.0</ele><time>2026-04-04T07:02:39.998Z</time></trkpt><trkpt lat="45.6884506336142" lon="9.951598442643277"><ele>287.0</ele><time>2026-04-04T07:02:41.998Z</time></trkpt><trkpt lat="45.688542451196106" lon="9.95157425449069"><ele>287.0</ele><time>2026-04-04T07:02:43.998Z</time></trkpt><trkpt lat="45.68863311875649" lon="9.95154788811299"><ele>287.0</ele><time>2026-04-04T07:02:45.998Z</time></trkpt><trkpt lat="45.68873158336194" lon="9.951518722170794"><ele>287.0</ele><time>2026-04-04T07:02:47.998Z</time></trkpt><trkpt lat="45.688826374493644" lon="9.951483660969528"><ele>287.0</ele><time>2026-04-04T07:02:49.998Z</time></trkpt><trkpt lat="45.68892175622049" lon="9.951448806642903"><ele>286.6</ele><time>2026-04-04T07:02:51.998Z</time></trkpt><trkpt lat="45.68901786016132" lon="9.951410404453785"><ele>286.2</ele><time>2026-04-04T07:02:53.998Z</time></trkpt><trkpt lat="45.68911364072005" lon="9.951376930881441"><ele>285.8</ele><time>2026-04-04T07:02:55.998Z</time></trkpt><trkpt lat="45.689213738078216" lon="9.951336663845543"><ele>285.4</ele><time>2026-04-04T07:02:57.998Z</time></trkpt><trkpt lat="45.68931017278919" lon="9.95130042157678"><ele>285.0</ele><time>2026-04-04T07:02:59.998Z</time></trkpt><trkpt lat="45.68941199411901" lon="9.951254510161002"><ele>283.4</ele><time>2026-04-04T07:03:01.998Z</time></trkpt><trkpt lat="45.68950920408047" lon="9.95122718089423"><ele>281.8</ele><time>2026-04-04T07:03:03.998Z</time></trkpt><trkpt lat="45.689612007267" lon="9.951186135629492"><ele>280.2</ele><time>2026-04-04T07:03:05.998Z</time></trkpt><trkpt lat="45.68971557764533" lon="9.951150097296019"><ele>278.6</ele><time>2026-04-04T07:03:07.998Z</time></trkpt><trkpt lat="45.689821759038665" lon="9.951117772893612"><ele>277.0</ele><time>2026-04-04T07:03:10Z</time></trkpt><trkpt lat="45.689933423976676" lon="9.951095110969753"><ele>277.0</ele><time>2026-04-04T07:03:12Z</time></trkpt><trkpt lat="45.69004498555851" lon="9.951073789198247"><ele>277.0</ele><time>2026-04-04T07:03:14Z</time></trkpt><trkpt lat="45.69015393002545" lon="9.95105548380529"><ele>277.0</ele><time>2026-04-04T07:03:16Z</time></trkpt><trkpt lat="45.69026819319094" lon="9.951040431549695"><ele>277.0</ele><time>2026-04-04T07:03:18Z</time></trkpt><trkpt lat="45.69038490973195" lon="9.951023587039618"><ele>277.5</ele><time>2026-04-04T07:03:20Z</time></trkpt><trkpt lat="45.69051231723132" lon="9.951011982469417"><ele>278.0</ele><time>2026-04-04T07:03:22Z</time></trkpt><trkpt lat="45.690575554980065" lon="9.951005712356718"><ele>278.5</ele><time>2026-04-04T07:03:23Z</time></trkpt><trkpt lat="45.69064295894036" lon="9.950999599307565"><ele>279.0</ele><time>2026-04-04T07:03:24Z</time></trkpt><trkpt lat="45.690705512140404" lon="9.95098414856609"><ele>279.5</ele><time>2026-04-04T07:03:25Z</time></trkpt><trkpt lat="45.69077547358127" lon="9.950985513064666"><ele>280.0</ele><time>2026-04-04T07:03:26Z</time></trkpt><trkpt lat="45.690842983042096" lon="9.950976438180062"><ele>280.0</ele><time>2026-04-04T07:03:27Z</time></trkpt><trkpt lat="45.69091194094786" lon="9.950970428259746"><ele>280.0</ele><time>2026-04-04T07:03:28Z</time></trkpt><trkpt lat="45.69097929783873" lon="9.950962090322031"><ele>280.0</ele><time>2026-04-04T07:03:29Z</time></trkpt><trkpt lat="45.691048146262254" lon="9.950955112289297"><ele>280.0</ele><time>2026-04-04T07:03:29.999Z</time></trkpt><trkpt lat="45.69111844296549" lon="9.9509435105644"><ele>280.0</ele><time>2026-04-04T07:03:30.999Z</time></trkpt><trkpt lat="45.691186323337135" lon="9.950924936352601"><ele>280.0</ele><time>2026-04-04T07:03:31.999Z</time></trkpt><trkpt lat="45.69125493881658" lon="9.950906529446945"><ele>280.0</ele><time>2026-04-04T07:03:32.999Z</time></trkpt><trkpt lat="45.691321867390684" lon="9.950891052817312"><ele>280.85714285714283</ele><time>2026-04-04T07:03:33.999Z</time></trkpt><trkpt lat="45.69138939066271" lon="9.950882177712002"><ele>281.7142857142857</ele><time>2026-04-04T07:03:34.999Z</time></trkpt><trkpt lat="45.69145759227085" lon="9.950874492723647"><ele>282.57142857142856</ele><time>2026-04-04T07:03:35.999Z</time></trkpt><trkpt lat="45.691525722168244" lon="9.950863542654954"><ele>283.42857142857144</ele><time>2026-04-04T07:03:36.999Z</time></trkpt><trkpt lat="45.691592675271565" lon="9.950857878894665"><ele>284.2857142857143</ele><time>2026-04-04T07:03:37.999Z</time></trkpt><trkpt lat="45.691658671664754" lon="9.95085969029682"><ele>285.1428571428571</ele><time>2026-04-04T07:03:38.999Z</time></trkpt><trkpt lat="45.691723797210244" lon="9.950861808907293"><ele>286.0</ele><time>2026-04-04T07:03:39.999Z</time></trkpt><trkpt lat="45.691788986908676" lon="9.950870629577686"><ele>284.57142857142856</ele><time>2026-04-04T07:03:40.999Z</time></trkpt><trkpt lat="45.69185379992878" lon="9.950884523277054"><ele>283.1428571428571</ele><time>2026-04-04T07:03:41.999Z</time></trkpt><trkpt lat="45.69191881533984" lon="9.950901970304047"><ele>281.7142857142857</ele><time>2026-04-04T07:03:42.999Z</time></trkpt><trkpt lat="45.691983708962226" lon="9.950930025732054"><ele>280.2857142857143</ele><time>2026-04-04T07:03:43.999Z</time></trkpt><trkpt lat="45.69204638224005" lon="9.950955598909832"><ele>278.8571428571429</ele><time>2026-04-04T07:03:44.999Z</time></trkpt><trkpt lat="45.692110753463105" lon="9.950981370625282"><ele>277.42857142857144</ele><time>2026-04-04T07:03:45.999Z</time></trkpt><trkpt lat="45.692176578942984" lon="9.951006684371348"><ele>276.0</ele><time>2026-04-04T07:03:46.999Z</time></trkpt><trkpt lat="45.69224084595329" lon="9.951025310225495"><ele>276.0</ele><time>2026-04-04T07:03:47.999Z</time></trkpt><trkpt lat="45.69230354218709" lon="9.951042054372234"><ele>276.0</ele><time>2026-04-04T07:03:48.999Z</time></trkpt><trkpt lat="45.69236722363148" lon="9.951066387092023"><ele>276.0</ele><time>2026-04-04T07:03:49.999Z</time></trkpt><trkpt lat="45.69249038853369" lon="9.95111270280502"><ele>276.0</ele><time>2026-04-04T07:03:51.999Z</time></trkpt><trkpt lat="45.692553913024625" lon="9.951137765894472"><ele>276.0</ele><time>2026-04-04T07:03:52.999Z</time></trkpt><trkpt lat="45.692618885731164" lon="9.951155805852748"><ele>276.0</ele><time>2026-04-04T07:03:53.999Z</time></trkpt><trkpt lat="45.692687761567925" lon="9.951176129000629"><ele>276.0</ele><time>2026-04-04T07:03:54.999Z</time></trkpt><trkpt lat="45.6927558075505" lon="9.951196983705625"><ele>276.0</ele><time>2026-04-04T07:03:55.999Z</time></trkpt><trkpt lat="45.69282491264028" lon="9.951216933689912"><ele>276.0</ele><time>2026-04-04T07:03:56.999Z</time></trkpt><trkpt lat="45.69289380571312" lon="9.951236116029882"><ele>276.0</ele><time>2026-04-04T07:03:57.999Z</time></trkpt><trkpt lat="45.69296305636989" lon="9.95125287247238"><ele>276.0</ele><time>2026-04-04T07:03:58.999Z</time></trkpt><trkpt lat="45.69303276585287" lon="9.95127275635335"><ele>276.0</ele><time>2026-04-04T07:03:59.999Z</time></trkpt><trkpt lat="45.69310808418097" lon="9.951279989204435"><ele>276.0</ele><time>2026-04-04T07:04:00.999Z</time></trkpt><trkpt lat="45.693182708088884" lon="9.951292393268389"><ele>276.5</ele><time>2026-04-04T07:04:01.999Z</time></trkpt><trkpt lat="45.693256711395506" lon="9.95129169840139"><ele>277.0</ele><time>2026-04-04T07:04:02.999Z</time></trkpt><trkpt lat="45.69333115015627" lon="9.951277023980047"><ele>277.5</ele><time>2026-04-04T07:04:03.999Z</time></trkpt><trkpt lat="45.693405868124266" lon="9.9512559353804"><ele>278.0</ele><time>2026-04-04T07:04:04.999Z</time></trkpt><trkpt lat="45.693481180062015" lon="9.9512229176722"><ele>278.5</ele><time>2026-04-04T07:04:05.999Z</time></trkpt><trkpt lat="45.693556854618535" lon="9.951175039048637"><ele>279.0</ele><time>2026-04-04T07:04:06.999Z</time></trkpt><trkpt lat="45.69363112167732" lon="9.951127246261459"><ele>279.1666666666667</ele><time>2026-04-04T07:04:07.999Z</time></trkpt><trkpt lat="45.6937100239415" lon="9.951085760411011"><ele>279.3333333333333</ele><time>2026-04-04T07:04:08.999Z</time></trkpt><trkpt lat="45.69378794256689" lon="9.951034009240312"><ele>279.5</ele><time>2026-04-04T07:04:09.999Z</time></trkpt><trkpt lat="45.69386484214885" lon="9.950992397903153"><ele>279.66666666666663</ele><time>2026-04-04T07:04:10.999Z</time></trkpt><trkpt lat="45.693943179381044" lon="9.950955818479725"><ele>279.8333333333333</ele><time>2026-04-04T07:04:11.999Z</time></trkpt><trkpt lat="45.694013673232945" lon="9.950920074127424"><ele>280.0</ele><time>2026-04-04T07:04:12.999Z</time></trkpt><trkpt lat="45.69407811981134" lon="9.950883734625934"><ele>280.4</ele><time>2026-04-04T07:04:13.999Z</time></trkpt><trkpt lat="45.69418182717926" lon="9.950799380507517"><ele>280.8</ele><time>2026-04-04T07:04:15.999Z</time></trkpt><trkpt lat="45.69426313606197" lon="9.950710701428228"><ele>281.2</ele><time>2026-04-04T07:04:17.999Z</time></trkpt><trkpt lat="45.69433005456276" lon="9.95063636697464"><ele>281.6</ele><time>2026-04-04T07:04:19.999Z</time></trkpt><trkpt lat="45.69438839209814" lon="9.950563155515475"><ele>282.0</ele><time>2026-04-04T07:04:21.999Z</time></trkpt><trkpt lat="45.69444257349385" lon="9.950490995328035"><ele>282.8571428571429</ele><time>2026-04-04T07:04:23.998Z</time></trkpt><trkpt lat="45.69449349812669" lon="9.950424274256541"><ele>283.7142857142857</ele><time>2026-04-04T07:04:25.998Z</time></trkpt><trkpt lat="45.69454291029538" lon="9.950354271266239"><ele>284.57142857142856</ele><time>2026-04-04T07:04:27.998Z</time></trkpt><trkpt lat="45.6945816966004" lon="9.950273865349011"><ele>285.42857142857144</ele><time>2026-04-04T07:04:29.998Z</time></trkpt><trkpt lat="45.694608967426255" lon="9.950187982163849"><ele>286.2857142857143</ele><time>2026-04-04T07:04:31.998Z</time></trkpt><trkpt lat="45.69463832860905" lon="9.950100455080618"><ele>287.14285714285717</ele><time>2026-04-04T07:04:33.998Z</time></trkpt><trkpt lat="45.69465926880747" lon="9.950010887744169"><ele>288.0</ele><time>2026-04-04T07:04:35.998Z</time></trkpt><trkpt lat="45.69466794504295" lon="9.949920293341826"><ele>289.0</ele><time>2026-04-04T07:04:37.998Z</time></trkpt><trkpt lat="45.6946784460063" lon="9.949829496485984"><ele>290.0</ele><time>2026-04-04T07:04:39.998Z</time></trkpt><trkpt lat="45.694696867331956" lon="9.949698323579517"><ele>291.0</ele><time>2026-04-04T07:04:42.998Z</time></trkpt><trkpt lat="45.694723314879425" lon="9.949574802816759"><ele>292.0</ele><time>2026-04-04T07:04:45.998Z</time></trkpt><trkpt lat="45.69479580241373" lon="9.949505550316202"><ele>293.0</ele><time>2026-04-04T07:04:48.998Z</time></trkpt><trkpt lat="45.694880641064486" lon="9.949554789023603"><ele>294.0</ele><time>2026-04-04T07:04:51.998Z</time></trkpt><trkpt lat="45.6949335885998" lon="9.949649619308108"><ele>294.0</ele><time>2026-04-04T07:04:54.998Z</time></trkpt><trkpt lat="45.694981370921724" lon="9.94974579034515"><ele>294.0</ele><time>2026-04-04T07:04:57.998Z</time></trkpt><trkpt lat="45.6950213980681" lon="9.94984115577072"><ele>294.0</ele><time>2026-04-04T07:05:00.998Z</time></trkpt><trkpt lat="45.695070293556824" lon="9.949930496200892"><ele>294.0</ele><time>2026-04-04T07:05:03.998Z</time></trkpt><trkpt lat="45.69512972115469" lon="9.950006086995902"><ele>294.0</ele><time>2026-04-04T07:05:06.998Z</time></trkpt><trkpt lat="45.695208270415144" lon="9.950041753052"><ele>294.0</ele><time>2026-04-04T07:05:09.998Z</time></trkpt><trkpt lat="45.69529241634771" lon="9.950037663267354"><ele>296.1666666666667</ele><time>2026-04-04T07:05:12.998Z</time></trkpt><trkpt lat="45.695367555843525" lon="9.949991832453053"><ele>298.3333333333333</ele><time>2026-04-04T07:05:16Z</time></trkpt><trkpt lat="45.695428035790194" lon="9.949910627920689"><ele>300.5</ele><time>2026-04-04T07:05:19Z</time></trkpt><trkpt lat="45.69546684491456" lon="9.949802202104063"><ele>302.66666666666663</ele><time>2026-04-04T07:05:22Z</time></trkpt><trkpt lat="45.69547531120382" lon="9.949682414968217"><ele>304.8333333333333</ele><time>2026-04-04T07:05:25Z</time></trkpt><trkpt lat="45.695455810640105" lon="9.949562434711028"><ele>307.0</ele><time>2026-04-04T07:05:28Z</time></trkpt><trkpt lat="45.69541363597061" lon="9.949461830075263"><ele>307.0</ele><time>2026-04-04T07:05:31Z</time></trkpt><trkpt lat="45.69538164187445" lon="9.949355811006894"><ele>307.0</ele><time>2026-04-04T07:05:33.999Z</time></trkpt><trkpt lat="45.695377260608986" lon="9.949246348090458"><ele>307.0</ele><time>2026-04-04T07:05:36.999Z</time></trkpt><trkpt lat="45.69538849005297" lon="9.94913707149497"><ele>307.0</ele><time>2026-04-04T07:05:39.999Z</time></trkpt><trkpt lat="45.69540959005874" lon="9.949034539556349"><ele>307.0</ele><time>2026-04-04T07:05:42.999Z</time></trkpt><trkpt lat="45.69544708573552" lon="9.948943210545291"><ele>307.0</ele><time>2026-04-04T07:05:45.999Z</time></trkpt><trkpt lat="45.69549151508895" lon="9.948854132078663"><ele>307.8333333333333</ele><time>2026-04-04T07:05:48.999Z</time></trkpt><trkpt lat="45.69553438237411" lon="9.94876511203462"><ele>308.66666666666663</ele><time>2026-04-04T07:05:51.999Z</time></trkpt><trkpt lat="45.69557975887211" lon="9.948678120871635"><ele>309.5</ele><time>2026-04-04T07:05:54.999Z</time></trkpt><trkpt lat="45.695630704054324" lon="9.94859396571814"><ele>310.3333333333333</ele><time>2026-04-04T07:05:57.999Z</time></trkpt><trkpt lat="45.695686264538935" lon="9.948514912876774"><ele>311.1666666666667</ele><time>2026-04-04T07:06:00.999Z</time></trkpt><trkpt lat="45.695746206557004" lon="9.948443397477698"><ele>312.0</ele><time>2026-04-04T07:06:03.999Z</time></trkpt><trkpt lat="45.69580207469509" lon="9.948367043215832"><ele>312.5</ele><time>2026-04-04T07:06:06.999Z</time></trkpt><trkpt lat="45.69585894844446" lon="9.948291638540336"><ele>313.0</ele><time>2026-04-04T07:06:09.999Z</time></trkpt><trkpt lat="45.695918377090436" lon="9.948217235748238"><ele>313.5</ele><time>2026-04-04T07:06:12.999Z</time></trkpt><trkpt lat="45.695975518863776" lon="9.948146271448364"><ele>314.0</ele><time>2026-04-04T07:06:15.999Z</time></trkpt><trkpt lat="45.69603489166418" lon="9.948073284077129"><ele>314.5</ele><time>2026-04-04T07:06:18.999Z</time></trkpt><trkpt lat="45.69609368096812" lon="9.947998298972658"><ele>315.0</ele><time>2026-04-04T07:06:21.999Z</time></trkpt><trkpt lat="45.696150612340524" lon="9.947915087465612"><ele>315.6666666666667</ele><time>2026-04-04T07:06:24.999Z</time></trkpt><trkpt lat="45.69621327738696" lon="9.947839230712471"><ele>316.3333333333333</ele><time>2026-04-04T07:06:27.998Z</time></trkpt><trkpt lat="45.69627407514681" lon="9.947759454579375"><ele>317.0</ele><time>2026-04-04T07:06:30.998Z</time></trkpt><trkpt lat="45.69633303911103" lon="9.947675404424373"><ele>317.66666666666663</ele><time>2026-04-04T07:06:33.998Z</time></trkpt><trkpt lat="45.69638678546472" lon="9.947581384493544"><ele>318.3333333333333</ele><time>2026-04-04T07:06:36.998Z</time></trkpt><trkpt lat="45.696439422390874" lon="9.947488904004427"><ele>319.0</ele><time>2026-04-04T07:06:39.998Z</time></trkpt><trkpt lat="45.696488306888" lon="9.94739167832669"><ele>320.0</ele><time>2026-04-04T07:06:42.998Z</time></trkpt><trkpt lat="45.6965347339792" lon="9.947293840829081"><ele>321.0</ele><time>2026-04-04T07:06:45.998Z</time></trkpt><trkpt lat="45.696581755548344" lon="9.947198792526772"><ele>322.0</ele><time>2026-04-04T07:06:48.998Z</time></trkpt><trkpt lat="45.696627997703644" lon="9.94709593629397"><ele>323.0</ele><time>2026-04-04T07:06:51.998Z</time></trkpt><trkpt lat="45.69668301319367" lon="9.94699843150673"><ele>324.0</ele><time>2026-04-04T07:06:54.998Z</time></trkpt><trkpt lat="45.696749967926316" lon="9.94690597665829"><ele>325.0</ele><time>2026-04-04T07:06:57.998Z</time></trkpt><trkpt lat="45.696800015849014" lon="9.946851038152424"><ele>325.0</ele><time>2026-04-04T07:06:59.998Z</time></trkpt><trkpt lat="45.696872198728926" lon="9.946776002934044"><ele>325.0</ele><time>2026-04-04T07:07:02.998Z</time></trkpt><trkpt lat="45.696943493632276" lon="9.946722196837786"><ele>325.0</ele><time>2026-04-04T07:07:05.998Z</time></trkpt><trkpt lat="45.69701206668218" lon="9.9466776638561"><ele>325.0</ele><time>2026-04-04T07:07:08.998Z</time></trkpt><trkpt lat="45.69707573912935" lon="9.946645930771586"><ele>325.0</ele><time>2026-04-04T07:07:11.998Z</time></trkpt><trkpt lat="45.69714063933655" lon="9.94663653203681"><ele>325.0</ele><time>2026-04-04T07:07:14.998Z</time></trkpt><trkpt lat="45.69721169047639" lon="9.946619815654335"><ele>326.5</ele><time>2026-04-04T07:07:17.997Z</time></trkpt><trkpt lat="45.69729196549658" lon="9.946615375260363"><ele>328.0</ele><time>2026-04-04T07:07:21Z</time></trkpt><trkpt lat="45.697358431089874" lon="9.946611827912097"><ele>329.5</ele><time>2026-04-04T07:07:24Z</time></trkpt><trkpt lat="45.697428559181425" lon="9.946610779529259"><ele>331.0</ele><time>2026-04-04T07:07:27Z</time></trkpt><trkpt lat="45.697521854760865" lon="9.946608859477776"><ele>332.5</ele><time>2026-04-04T07:07:30Z</time></trkpt><trkpt lat="45.69760061954162" lon="9.946603208579177"><ele>334.0</ele><time>2026-04-04T07:07:33Z</time></trkpt><trkpt lat="45.69768239799662" lon="9.94659352643832"><ele>334.5</ele><time>2026-04-04T07:07:35.999Z</time></trkpt><trkpt lat="45.69775690773609" lon="9.946578980015305"><ele>335.0</ele><time>2026-04-04T07:07:38.999Z</time></trkpt><trkpt lat="45.697821352391514" lon="9.946568827763231"><ele>335.5</ele><time>2026-04-04T07:07:41.999Z</time></trkpt><trkpt lat="45.69789510739226" lon="9.946565326476899"><ele>336.0</ele><time>2026-04-04T07:07:44.999Z</time></trkpt><trkpt lat="45.6979717886331" lon="9.946545238239317"><ele>336.5</ele><time>2026-04-04T07:07:47.999Z</time></trkpt><trkpt lat="45.69806806024313" lon="9.946564557342947"><ele>337.0</ele><time>2026-04-04T07:07:50.999Z</time></trkpt><trkpt lat="45.698157867440464" lon="9.946552447960688"><ele>337.0</ele><time>2026-04-04T07:07:53.999Z</time></trkpt><trkpt lat="45.69822521521127" lon="9.946530202006903"><ele>337.0</ele><time>2026-04-04T07:07:55.999Z</time></trkpt><trkpt lat="45.69829285184252" lon="9.946527265514893"><ele>337.0</ele><time>2026-04-04T07:07:57.999Z</time></trkpt><trkpt lat="45.69836038523538" lon="9.94650811620933"><ele>337.0</ele><time>2026-04-04T07:07:59.999Z</time></trkpt><trkpt lat="45.69845019712044" lon="9.946494635781844"><ele>337.0</ele><time>2026-04-04T07:08:02.999Z</time></trkpt><trkpt lat="45.69854378863087" lon="9.946459567490487"><ele>337.0</ele><time>2026-04-04T07:08:05.999Z</time></trkpt><trkpt lat="45.69861078220163" lon="9.946443905417107"><ele>338.40000000000003</ele><time>2026-04-04T07:08:07.999Z</time></trkpt><trkpt lat="45.69867296679827" lon="9.946426362448054"><ele>339.8</ele><time>2026-04-04T07:08:09.999Z</time></trkpt><trkpt lat="45.698884006188926" lon="9.946438062252387"><ele>341.2</ele><time>2026-04-04T07:08:15.999Z</time></trkpt><trkpt lat="45.69895264727709" lon="9.946423069522561"><ele>342.6</ele><time>2026-04-04T07:08:17.999Z</time></trkpt><trkpt lat="45.69902137029066" lon="9.946412632922009"><ele>344.0</ele><time>2026-04-04T07:08:19.999Z</time></trkpt><trkpt lat="45.69909127486656" lon="9.946387946715793"><ele>344.00000000000006</ele><time>2026-04-04T07:08:21.999Z</time></trkpt><trkpt lat="45.69915605391216" lon="9.946369686347365"><ele>344.0</ele><time>2026-04-04T07:08:23.999Z</time></trkpt><trkpt lat="45.699224451048075" lon="9.946341532973939"><ele>344.0</ele><time>2026-04-04T07:08:25.999Z</time></trkpt><trkpt lat="45.6992955465587" lon="9.946309348229983"><ele>344.0</ele><time>2026-04-04T07:08:27.999Z</time></trkpt><trkpt lat="45.69936477270374" lon="9.946269825449042"><ele>344.0</ele><time>2026-04-04T07:08:29.998Z</time></trkpt><trkpt lat="45.69943375106848" lon="9.946241178675809"><ele>344.00000000000006</ele><time>2026-04-04T07:08:31.998Z</time></trkpt><trkpt lat="45.6995035455284" lon="9.946273392164667"><ele>344.0</ele><time>2026-04-04T07:08:33.998Z</time></trkpt><trkpt lat="45.699556937323464" lon="9.946368872275052"><ele>345.83333333333337</ele><time>2026-04-04T07:08:35.998Z</time></trkpt><trkpt lat="45.69957918084514" lon="9.946491660153587"><ele>347.6666666666667</ele><time>2026-04-04T07:08:37.998Z</time></trkpt><trkpt lat="45.699586375806" lon="9.946616266269347"><ele>349.5</ele><time>2026-04-04T07:08:39.998Z</time></trkpt><trkpt lat="45.699594739867756" lon="9.946742017378252"><ele>351.3333333333333</ele><time>2026-04-04T07:08:41.998Z</time></trkpt><trkpt lat="45.69960328703974" lon="9.946865678807546"><ele>353.16666666666663</ele><time>2026-04-04T07:08:43.998Z</time></trkpt><trkpt lat="45.69961015010033" lon="9.946984805919893"><ele>355.0</ele><time>2026-04-04T07:08:45.998Z</time></trkpt><trkpt lat="45.69962100590798" lon="9.947104497186189"><ele>355.0</ele><time>2026-04-04T07:08:47.998Z</time></trkpt><trkpt lat="45.69962743816266" lon="9.947232543361883"><ele>355.0</ele><time>2026-04-04T07:08:49.998Z</time></trkpt><trkpt lat="45.69964065848831" lon="9.947358313808728"><ele>355.0</ele><time>2026-04-04T07:08:51.998Z</time></trkpt><trkpt lat="45.699656033292726" lon="9.94749260108371"><ele>355.0</ele><time>2026-04-04T07:08:53.998Z</time></trkpt><trkpt lat="45.69967988455305" lon="9.947618823287899"><ele>355.0</ele><time>2026-04-04T07:08:55.998Z</time></trkpt><trkpt lat="45.699675403467396" lon="9.94773435706051"><ele>355.0</ele><time>2026-04-04T07:08:57.998Z</time></trkpt><trkpt lat="45.6996517649102" lon="9.94785542103104"><ele>355.5</ele><time>2026-04-04T07:08:59.998Z</time></trkpt><trkpt lat="45.69964033806442" lon="9.947973104402113"><ele>356.0</ele><time>2026-04-04T07:09:01.998Z</time></trkpt><trkpt lat="45.699642322299155" lon="9.94809013997895"><ele>356.5</ele><time>2026-04-04T07:09:03.998Z</time></trkpt><trkpt lat="45.69965317708078" lon="9.94820476875658"><ele>357.0</ele><time>2026-04-04T07:09:05.998Z</time></trkpt><trkpt lat="45.699677450639044" lon="9.948319843534474"><ele>357.5</ele><time>2026-04-04T07:09:07.998Z</time></trkpt><trkpt lat="45.699707847764344" lon="9.948419968057129"><ele>358.0</ele><time>2026-04-04T07:09:09.998Z</time></trkpt><trkpt lat="45.699769740008236" lon="9.948516716481343"><ele>358.0</ele><time>2026-04-04T07:09:11.998Z</time></trkpt><trkpt lat="45.69978608979987" lon="9.948631490912138"><ele>358.0</ele><time>2026-04-04T07:09:13.998Z</time></trkpt><trkpt lat="45.69983336480524" lon="9.94874424149171"><ele>358.0</ele><time>2026-04-04T07:09:15.998Z</time></trkpt><trkpt lat="45.69983674355743" lon="9.948867539407972"><ele>358.0</ele><time>2026-04-04T07:09:17.998Z</time></trkpt><trkpt lat="45.699833693664964" lon="9.949000977270966"><ele>358.0</ele><time>2026-04-04T07:09:19.998Z</time></trkpt><trkpt lat="45.69983134922832" lon="9.949140087968418"><ele>356.5</ele><time>2026-04-04T07:09:21.998Z</time></trkpt><trkpt lat="45.69985334468015" lon="9.949301236273406"><ele>355.0</ele><time>2026-04-04T07:09:23.997Z</time></trkpt><trkpt lat="45.69990346658344" lon="9.949461115047203"><ele>353.5</ele><time>2026-04-04T07:09:25.999Z</time></trkpt><trkpt lat="45.6999339529117" lon="9.949622770570551"><ele>352.0</ele><time>2026-04-04T07:09:27.999Z</time></trkpt><trkpt lat="45.699990502713526" lon="9.94973880075939"><ele>352.0</ele><time>2026-04-04T07:09:29.999Z</time></trkpt><trkpt lat="45.700010069316114" lon="9.949897794191747"><ele>352.0</ele><time>2026-04-04T07:09:31.999Z</time></trkpt><trkpt lat="45.6999944942126" lon="9.950084025564411"><ele>352.0</ele><time>2026-04-04T07:09:33.999Z</time></trkpt><trkpt lat="45.70001146490992" lon="9.950176425198151"><ele>352.0</ele><time>2026-04-04T07:09:34.999Z</time></trkpt><trkpt lat="45.70006581834601" lon="9.950359588555235"><ele>352.0</ele><time>2026-04-04T07:09:36.999Z</time></trkpt><trkpt lat="45.70015877492733" lon="9.950436811924419"><ele>351.3333333333333</ele><time>2026-04-04T07:09:38.999Z</time></trkpt><trkpt lat="45.700268445085364" lon="9.95048949381196"><ele>350.66666666666663</ele><time>2026-04-04T07:09:40.999Z</time></trkpt><trkpt lat="45.70037277053681" lon="9.950558410899419"><ele>350.0</ele><time>2026-04-04T07:09:42.999Z</time></trkpt><trkpt lat="45.70043177292999" lon="9.950596006185592"><ele>349.3333333333333</ele><time>2026-04-04T07:09:43.999Z</time></trkpt><trkpt lat="45.70048916223435" lon="9.950639811833861"><ele>348.6666666666667</ele><time>2026-04-04T07:09:44.999Z</time></trkpt><trkpt lat="45.70053692283786" lon="9.950713400411564"><ele>348.0</ele><time>2026-04-04T07:09:45.999Z</time></trkpt><trkpt lat="45.70060363412932" lon="9.950765754686627"><ele>348.0</ele><time>2026-04-04T07:09:46.999Z</time></trkpt><trkpt lat="45.70065624263589" lon="9.950841586853599"><ele>348.0</ele><time>2026-04-04T07:09:47.999Z</time></trkpt><trkpt lat="45.700703835710456" lon="9.950908149744631"><ele>348.0</ele><time>2026-04-04T07:09:48.999Z</time></trkpt><trkpt lat="45.700768506657745" lon="9.950982474226459"><ele>348.0</ele><time>2026-04-04T07:09:49.999Z</time></trkpt><trkpt lat="45.700827972711295" lon="9.951054673210342"><ele>348.0</ele><time>2026-04-04T07:09:50.999Z</time></trkpt><trkpt lat="45.700874594669905" lon="9.951126595161941"><ele>348.0</ele><time>2026-04-04T07:09:51.999Z</time></trkpt><trkpt lat="45.70094793621314" lon="9.95117553885232"><ele>348.79999999999995</ele><time>2026-04-04T07:09:52.999Z</time></trkpt><trkpt lat="45.70103362591371" lon="9.951320595677615"><ele>349.6</ele><time>2026-04-04T07:09:54.999Z</time></trkpt><trkpt lat="45.701077013897155" lon="9.951404549159289"><ele>350.4</ele><time>2026-04-04T07:09:55.999Z</time></trkpt><trkpt lat="45.701110632664346" lon="9.951494767022616"><ele>351.20000000000005</ele><time>2026-04-04T07:09:56.999Z</time></trkpt><trkpt lat="45.701148196041835" lon="9.95160851225108"><ele>352.0</ele><time>2026-04-04T07:09:57.999Z</time></trkpt><trkpt lat="45.701210669909145" lon="9.951706448409196"><ele>349.0</ele><time>2026-04-04T07:09:58.999Z</time></trkpt><trkpt lat="45.70127791980898" lon="9.951787717616252"><ele>346.0</ele><time>2026-04-04T07:09:59.999Z</time></trkpt><trkpt lat="45.701364390710616" lon="9.951838066511788"><ele>343.0</ele><time>2026-04-04T07:10:00.999Z</time></trkpt><trkpt lat="45.70145178691607" lon="9.951867772123265"><ele>340.0</ele><time>2026-04-04T07:10:01.999Z</time></trkpt><trkpt lat="45.701527104856766" lon="9.95191877583533"><ele>337.0</ele><time>2026-04-04T07:10:02.999Z</time></trkpt><trkpt lat="45.701593837643145" lon="9.951970575322314"><ele>334.0</ele><time>2026-04-04T07:10:03.999Z</time></trkpt><trkpt lat="45.701655272959925" lon="9.952020144040253"><ele>334.0</ele><time>2026-04-04T07:10:04.999Z</time></trkpt><trkpt lat="45.70171149421008" lon="9.952067714108523"><ele>334.0</ele><time>2026-04-04T07:10:05.999Z</time></trkpt><trkpt lat="45.70181481351791" lon="9.952158165887216"><ele>334.0</ele><time>2026-04-04T07:10:07.999Z</time></trkpt><trkpt lat="45.70191054285159" lon="9.952260732677166"><ele>334.0</ele><time>2026-04-04T07:10:09.999Z</time></trkpt><trkpt lat="45.70201270866468" lon="9.952346551748139"><ele>334.0</ele><time>2026-04-04T07:10:11.999Z</time></trkpt><trkpt lat="45.702054742357845" lon="9.95241400101134"><ele>333.7142857142857</ele><time>2026-04-04T07:10:12.999Z</time></trkpt><trkpt lat="45.70210716226391" lon="9.952470555819591"><ele>333.42857142857144</ele><time>2026-04-04T07:10:13.999Z</time></trkpt><trkpt lat="45.702157251315725" lon="9.952532145558862"><ele>333.1428571428571</ele><time>2026-04-04T07:10:14.999Z</time></trkpt><trkpt lat="45.702213796061606" lon="9.952589204096403"><ele>332.8571428571429</ele><time>2026-04-04T07:10:15.999Z</time></trkpt><trkpt lat="45.70226007240685" lon="9.952669209952369"><ele>332.5714285714286</ele><time>2026-04-04T07:10:16.999Z</time></trkpt><trkpt lat="45.70231331896977" lon="9.952735633016077"><ele>332.2857142857143</ele><time>2026-04-04T07:10:17.999Z</time></trkpt><trkpt lat="45.70237153001286" lon="9.952775085919603"><ele>332.0</ele><time>2026-04-04T07:10:18.999Z</time></trkpt><trkpt lat="45.70250644978465" lon="9.952878738441138"><ele>332.0</ele><time>2026-04-04T07:10:20.999Z</time></trkpt><trkpt lat="45.70257199056497" lon="9.952933226791016"><ele>332.0</ele><time>2026-04-04T07:10:21.999Z</time></trkpt><trkpt lat="45.70264046529258" lon="9.952966401446282"><ele>332.0</ele><time>2026-04-04T07:10:22.999Z</time></trkpt><trkpt lat="45.70275499773829" lon="9.953032722502153"><ele>332.0</ele><time>2026-04-04T07:10:24.999Z</time></trkpt><trkpt lat="45.7028779687561" lon="9.953087984424469"><ele>332.0</ele><time>2026-04-04T07:10:26.999Z</time></trkpt><trkpt lat="45.70297550171201" lon="9.953147832997526"><ele>334.6</ele><time>2026-04-04T07:10:28.999Z</time></trkpt><trkpt lat="45.70307265030718" lon="9.953187908436888"><ele>337.20000000000005</ele><time>2026-04-04T07:10:30.999Z</time></trkpt><trkpt lat="45.70317300235475" lon="9.953210174557796"><ele>339.8</ele><time>2026-04-04T07:10:32.999Z</time></trkpt><trkpt lat="45.703258478349404" lon="9.953270012499305"><ele>342.4</ele><time>2026-04-04T07:10:34.998Z</time></trkpt><trkpt lat="45.70334711533889" lon="9.95331227123704"><ele>345.0</ele><time>2026-04-04T07:10:36.998Z</time></trkpt><trkpt lat="45.70343184423892" lon="9.953352051141918"><ele>345.6666666666667</ele><time>2026-04-04T07:10:38.998Z</time></trkpt><trkpt lat="45.703513076316526" lon="9.953405534621055"><ele>346.3333333333333</ele><time>2026-04-04T07:10:40.998Z</time></trkpt><trkpt lat="45.70357982114542" lon="9.953482496342703"><ele>347.0</ele><time>2026-04-04T07:10:42.998Z</time></trkpt><trkpt lat="45.70362871788835" lon="9.953576130019224"><ele>347.66666666666663</ele><time>2026-04-04T07:10:44.998Z</time></trkpt><trkpt lat="45.70366772564285" lon="9.953684233232336"><ele>348.3333333333333</ele><time>2026-04-04T07:10:46.998Z</time></trkpt><trkpt lat="45.70370574371801" lon="9.95379709935683"><ele>349.0</ele><time>2026-04-04T07:10:48.998Z</time></trkpt><trkpt lat="45.70374688688409" lon="9.95390613216914"><ele>349.0</ele><time>2026-04-04T07:10:50.998Z</time></trkpt><trkpt lat="45.70378647681056" lon="9.95401272642425"><ele>349.0</ele><time>2026-04-04T07:10:52.998Z</time></trkpt><trkpt lat="45.70383083503575" lon="9.95412466229062"><ele>349.0</ele><time>2026-04-04T07:10:54.998Z</time></trkpt><trkpt lat="45.70389050016744" lon="9.95422629110653"><ele>349.0</ele><time>2026-04-04T07:10:56.998Z</time></trkpt><trkpt lat="45.7039452622077" lon="9.954320685820548"><ele>349.0</ele><time>2026-04-04T07:10:58.998Z</time></trkpt><trkpt lat="45.70400084144165" lon="9.95441316470632"><ele>349.0</ele><time>2026-04-04T07:11:00.998Z</time></trkpt><trkpt lat="45.70405366885613" lon="9.954498480433386"><ele>349.0</ele><time>2026-04-04T07:11:02.998Z</time></trkpt><trkpt lat="45.70412599042434" lon="9.954578526791941"><ele>349.0</ele><time>2026-04-04T07:11:04.998Z</time></trkpt><trkpt lat="45.7042091073933" lon="9.95463936278781"><ele>349.0</ele><time>2026-04-04T07:11:06.998Z</time></trkpt><trkpt lat="45.70429644508367" lon="9.95469161894285"><ele>349.0</ele><time>2026-04-04T07:11:08.998Z</time></trkpt><trkpt lat="45.70438622439702" lon="9.95475094805026"><ele>349.0</ele><time>2026-04-04T07:11:10.998Z</time></trkpt><trkpt lat="45.70448056180761" lon="9.954801786632911"><ele>349.0</ele><time>2026-04-04T07:11:12.998Z</time></trkpt><trkpt lat="45.70457945104942" lon="9.954858311119278"><ele>349.0</ele><time>2026-04-04T07:11:14.998Z</time></trkpt><trkpt lat="45.70468869376978" lon="9.95489012760062"><ele>349.0</ele><time>2026-04-04T07:11:16.998Z</time></trkpt><trkpt lat="45.70480252445039" lon="9.954922078661887"><ele>349.0</ele><time>2026-04-04T07:11:18.998Z</time></trkpt><trkpt lat="45.70486216535641" lon="9.95495362722486"><ele>349.0</ele><time>2026-04-04T07:11:19.998Z</time></trkpt><trkpt lat="45.704989580704776" lon="9.954998355656636"><ele>349.0</ele><time>2026-04-04T07:11:21.998Z</time></trkpt><trkpt lat="45.70505679062132" lon="9.955035668205943"><ele>349.0</ele><time>2026-04-04T07:11:22.998Z</time></trkpt><trkpt lat="45.70512359220055" lon="9.955086317627508"><ele>349.0</ele><time>2026-04-04T07:11:23.998Z</time></trkpt><trkpt lat="45.70518566975934" lon="9.95514504419587"><ele>349.0</ele><time>2026-04-04T07:11:24.998Z</time></trkpt><trkpt lat="45.705250936735254" lon="9.955200576751672"><ele>349.0</ele><time>2026-04-04T07:11:25.998Z</time></trkpt><trkpt lat="45.705320289042426" lon="9.955263056465725"><ele>349.0</ele><time>2026-04-04T07:11:26.997Z</time></trkpt><trkpt lat="45.70539104303094" lon="9.95531912849443"><ele>348.4285714285714</ele><time>2026-04-04T07:11:27.997Z</time></trkpt><trkpt lat="45.705461591914236" lon="9.955372530535413"><ele>347.85714285714283</ele><time>2026-04-04T07:11:28.997Z</time></trkpt><trkpt lat="45.70553219551859" lon="9.955421888745109"><ele>347.2857142857143</ele><time>2026-04-04T07:11:29.997Z</time></trkpt><trkpt lat="45.70559382868047" lon="9.95546972286284"><ele>346.71428571428567</ele><time>2026-04-04T07:11:30.997Z</time></trkpt><trkpt lat="45.70566097657937" lon="9.955524525056534"><ele>346.1428571428571</ele><time>2026-04-04T07:11:31.999Z</time></trkpt><trkpt lat="45.70573580852517" lon="9.955560882028916"><ele>345.57142857142856</ele><time>2026-04-04T07:11:32.999Z</time></trkpt><trkpt lat="45.70579544510525" lon="9.955596313405774"><ele>345.0</ele><time>2026-04-04T07:11:33.999Z</time></trkpt><trkpt lat="45.705863940247056" lon="9.955645212865072"><ele>345.0</ele><time>2026-04-04T07:11:34.999Z</time></trkpt><trkpt lat="45.705942175809696" lon="9.955684567354515"><ele>345.0</ele><time>2026-04-04T07:11:35.999Z</time></trkpt><trkpt lat="45.70604340393157" lon="9.955752018512886"><ele>345.0</ele><time>2026-04-04T07:11:37.999Z</time></trkpt><trkpt lat="45.70615224411199" lon="9.955789155902359"><ele>345.0</ele><time>2026-04-04T07:11:39.999Z</time></trkpt><trkpt lat="45.70625904591071" lon="9.955803265493874"><ele>345.0</ele><time>2026-04-04T07:11:41.999Z</time></trkpt><trkpt lat="45.70635385340829" lon="9.95581536327708"><ele>346.1666666666667</ele><time>2026-04-04T07:11:43.999Z</time></trkpt><trkpt lat="45.70643978601182" lon="9.955815306395571"><ele>347.3333333333333</ele><time>2026-04-04T07:11:45.999Z</time></trkpt><trkpt lat="45.70651349873206" lon="9.95581114507805"><ele>348.5</ele><time>2026-04-04T07:11:47.999Z</time></trkpt><trkpt lat="45.70658234981578" lon="9.955809304715324"><ele>349.66666666666663</ele><time>2026-04-04T07:11:49.999Z</time></trkpt><trkpt lat="45.70665664153808" lon="9.955792015411049"><ele>350.8333333333333</ele><time>2026-04-04T07:11:51.999Z</time></trkpt><trkpt lat="45.706735623756444" lon="9.955791426181582"><ele>352.0</ele><time>2026-04-04T07:11:53.999Z</time></trkpt><trkpt lat="45.70681793754918" lon="9.95581334331073"><ele>352.0</ele><time>2026-04-04T07:11:55.999Z</time></trkpt><trkpt lat="45.70690223555843" lon="9.955841190046852"><ele>352.0</ele><time>2026-04-04T07:11:57.999Z</time></trkpt><trkpt lat="45.706977318950905" lon="9.955873286469577"><ele>352.0</ele><time>2026-04-04T07:11:59.999Z</time></trkpt><trkpt lat="45.707047433049475" lon="9.95593293479076"><ele>352.0</ele><time>2026-04-04T07:12:01.999Z</time></trkpt><trkpt lat="45.707106307145345" lon="9.956014822689813"><ele>352.0</ele><time>2026-04-04T07:12:04.999Z</time></trkpt><trkpt lat="45.7071540719699" lon="9.956100489083912"><ele>352.0</ele><time>2026-04-04T07:12:06.999Z</time></trkpt><trkpt lat="45.70720304375588" lon="9.956197804144805"><ele>351.8333333333333</ele><time>2026-04-04T07:12:08.999Z</time></trkpt><trkpt lat="45.70723893642558" lon="9.956298394016345"><ele>351.66666666666663</ele><time>2026-04-04T07:12:10.999Z</time></trkpt><trkpt lat="45.70727730456344" lon="9.956392796949116"><ele>351.5</ele><time>2026-04-04T07:12:12.999Z</time></trkpt><trkpt lat="45.70733403768347" lon="9.956469142162877"><ele>351.3333333333333</ele><time>2026-04-04T07:12:14.999Z</time></trkpt><trkpt lat="45.70740955925292" lon="9.956530967622438"><ele>351.1666666666667</ele><time>2026-04-04T07:12:16.999Z</time></trkpt><trkpt lat="45.70748681110987" lon="9.956570629850958"><ele>351.0</ele><time>2026-04-04T07:12:18.999Z</time></trkpt><trkpt lat="45.707562639850885" lon="9.956597921659423"><ele>351.0</ele><time>2026-04-04T07:12:20.999Z</time></trkpt><trkpt lat="45.70764223689258" lon="9.956618849975118"><ele>351.0</ele><time>2026-04-04T07:12:22.999Z</time></trkpt><trkpt lat="45.70771919618786" lon="9.95662334428975"><ele>351.0</ele><time>2026-04-04T07:12:24.999Z</time></trkpt><trkpt lat="45.70778930199742" lon="9.956620747510577"><ele>351.0</ele><time>2026-04-04T07:12:26.999Z</time></trkpt><trkpt lat="45.707859646391604" lon="9.95661229428991"><ele>351.0</ele><time>2026-04-04T07:12:28.999Z</time></trkpt><trkpt lat="45.707923611553824" lon="9.956600145873555"><ele>351.0</ele><time>2026-04-04T07:12:30.999Z</time></trkpt><trkpt lat="45.7080121485044" lon="9.956554767438169"><ele>351.6666666666667</ele><time>2026-04-04T07:12:33.999Z</time></trkpt><trkpt lat="45.70806770697691" lon="9.956493032340001"><ele>352.3333333333333</ele><time>2026-04-04T07:12:35.999Z</time></trkpt><trkpt lat="45.70811071861242" lon="9.956419676639092"><ele>353.0</ele><time>2026-04-04T07:12:37.999Z</time></trkpt><trkpt lat="45.70814116847247" lon="9.956313704336278"><ele>353.66666666666663</ele><time>2026-04-04T07:12:40.998Z</time></trkpt><trkpt lat="45.70815058302466" lon="9.956185586149337"><ele>354.3333333333333</ele><time>2026-04-04T07:12:43.998Z</time></trkpt><trkpt lat="45.708135042790175" lon="9.956056720697026"><ele>355.0</ele><time>2026-04-04T07:12:46.998Z</time></trkpt><trkpt lat="45.70812217885005" lon="9.955935654635597"><ele>355.0</ele><time>2026-04-04T07:12:49.998Z</time></trkpt><trkpt lat="45.70815837258728" lon="9.95583904069801"><ele>355.0</ele><time>2026-04-04T07:12:52.998Z</time></trkpt><trkpt lat="45.70822428948782" lon="9.955821282502944"><ele>355.0</ele><time>2026-04-04T07:12:54.998Z</time></trkpt><trkpt lat="45.70830358916234" lon="9.955888346623698"><ele>355.0</ele><time>2026-04-04T07:12:57.998Z</time></trkpt><trkpt lat="45.70837222983286" lon="9.955950183352396"><ele>355.0</ele><time>2026-04-04T07:13:00.998Z</time></trkpt><trkpt lat="45.70843812327818" lon="9.955980767101655"><ele>355.0</ele><time>2026-04-04T07:13:03.998Z</time></trkpt><trkpt lat="45.708521572907" lon="9.956008780602808"><ele>355.1428571428571</ele><time>2026-04-04T07:13:05.998Z</time></trkpt><trkpt lat="45.70861766653988" lon="9.956002128571654"><ele>355.2857142857143</ele><time>2026-04-04T07:13:08.998Z</time></trkpt><trkpt lat="45.7086893902481" lon="9.955989095955738"><ele>355.42857142857144</ele><time>2026-04-04T07:13:10.998Z</time></trkpt><trkpt lat="45.708753236617504" lon="9.955982223017282"><ele>355.57142857142856</ele><time>2026-04-04T07:13:12.998Z</time></trkpt><trkpt lat="45.708817923431134" lon="9.955977932822446"><ele>355.7142857142857</ele><time>2026-04-04T07:13:14.998Z</time></trkpt><trkpt lat="45.70888107962301" lon="9.955962649728336"><ele>355.85714285714283</ele><time>2026-04-04T07:13:16.998Z</time></trkpt><trkpt lat="45.70896185323908" lon="9.955955019577123"><ele>356.0</ele><time>2026-04-04T07:13:19.998Z</time></trkpt><trkpt lat="45.709028868485255" lon="9.955946753425714"><ele>356.0</ele><time>2026-04-04T07:13:22.998Z</time></trkpt><trkpt lat="45.70909230233261" lon="9.95594855836916"><ele>356.0</ele><time>2026-04-04T07:13:24.998Z</time></trkpt><trkpt lat="45.70917886286096" lon="9.955944029472374"><ele>356.0</ele><time>2026-04-04T07:13:26.998Z</time></trkpt><trkpt lat="45.70926823352329" lon="9.955964299738586"><ele>356.0</ele><time>2026-04-04T07:13:30.998Z</time></trkpt><trkpt lat="45.709352705607245" lon="9.955989515477121"><ele>356.0</ele><time>2026-04-04T07:13:33.997Z</time></trkpt><trkpt lat="45.70943848546282" lon="9.956011570334562"><ele>356.0</ele><time>2026-04-04T07:13:36.997Z</time></trkpt><trkpt lat="45.709534258059364" lon="9.956037583868547"><ele>357.5</ele><time>2026-04-04T07:13:39.999Z</time></trkpt><trkpt lat="45.70961658204479" lon="9.956059362423762"><ele>359.0</ele><time>2026-04-04T07:13:42.999Z</time></trkpt><trkpt lat="45.70969116488419" lon="9.956078667152878"><ele>360.5</ele><time>2026-04-04T07:13:44.999Z</time></trkpt><trkpt lat="45.7097724723682" lon="9.956098251991836"><ele>362.0</ele><time>2026-04-04T07:13:47.999Z</time></trkpt><trkpt lat="45.709860767151376" lon="9.956107258796154"><ele>363.5</ele><time>2026-04-04T07:13:50.999Z</time></trkpt><trkpt lat="45.70994777734841" lon="9.956113289889924"><ele>365.0</ele><time>2026-04-04T07:13:53.999Z</time></trkpt><trkpt lat="45.710031374785004" lon="9.956122582459459"><ele>365.0</ele><time>2026-04-04T07:13:56.999Z</time></trkpt><trkpt lat="45.71011550189899" lon="9.956139348941157"><ele>365.0</ele><time>2026-04-04T07:13:59.999Z</time></trkpt><trkpt lat="45.7101959397626" lon="9.956160792207893"><ele>365.0</ele><time>2026-04-04T07:14:02.999Z</time></trkpt><trkpt lat="45.710276168975966" lon="9.95618090621984"><ele>365.0</ele><time>2026-04-04T07:14:05.999Z</time></trkpt><trkpt lat="45.71035549802263" lon="9.956205118963915"><ele>365.0</ele><time>2026-04-04T07:14:08.999Z</time></trkpt><trkpt lat="45.71043202930399" lon="9.956240423321118"><ele>365.0</ele><time>2026-04-04T07:14:11.999Z</time></trkpt><trkpt lat="45.71049261646212" lon="9.956279951771288"><ele>366.6666666666667</ele><time>2026-04-04T07:14:14.999Z</time></trkpt><trkpt lat="45.71056452511446" lon="9.956330115197396"><ele>368.33333333333337</ele><time>2026-04-04T07:14:17.999Z</time></trkpt><trkpt lat="45.71063489588319" lon="9.956390193534572"><ele>370.0</ele><time>2026-04-04T07:14:20.999Z</time></trkpt><trkpt lat="45.71070624221395" lon="9.95645716793434"><ele>371.6666666666667</ele><time>2026-04-04T07:14:23.999Z</time></trkpt><trkpt lat="45.71077171042117" lon="9.956539461088473"><ele>373.3333333333333</ele><time>2026-04-04T07:14:26.999Z</time></trkpt><trkpt lat="45.71083577881623" lon="9.956652422805016"><ele>375.0</ele><time>2026-04-04T07:14:29.999Z</time></trkpt><trkpt lat="45.7108783752083" lon="9.956746892541956"><ele>375.0</ele><time>2026-04-04T07:14:32.999Z</time></trkpt><trkpt lat="45.71092200387282" lon="9.956855230567395"><ele>375.0</ele><time>2026-04-04T07:14:35.999Z</time></trkpt><trkpt lat="45.710963997306806" lon="9.95694297302443"><ele>375.0</ele><time>2026-04-04T07:14:37.999Z</time></trkpt><trkpt lat="45.71103016220654" lon="9.95703369066141"><ele>375.0</ele><time>2026-04-04T07:14:41Z</time></trkpt><trkpt lat="45.71110791796735" lon="9.957088120011345"><ele>375.0</ele><time>2026-04-04T07:14:43.999Z</time></trkpt><trkpt lat="45.71119408448251" lon="9.957121584841921"><ele>375.0</ele><time>2026-04-04T07:14:46.999Z</time></trkpt><trkpt lat="45.711266700138786" lon="9.957152566091056"><ele>378.1666666666667</ele><time>2026-04-04T07:14:48.999Z</time></trkpt><trkpt lat="45.71134161822115" lon="9.957169133477562"><ele>381.33333333333337</ele><time>2026-04-04T07:14:51.999Z</time></trkpt><trkpt lat="45.71142825533936" lon="9.957206192490576"><ele>384.5</ele><time>2026-04-04T07:14:54.999Z</time></trkpt><trkpt lat="45.71150308910654" lon="9.957232066200925"><ele>387.6666666666667</ele><time>2026-04-04T07:14:56.999Z</time></trkpt><trkpt lat="45.71158453304667" lon="9.957259180133352"><ele>390.83333333333337</ele><time>2026-04-04T07:14:59.999Z</time></trkpt><trkpt lat="45.71166831656155" lon="9.957288849692329"><ele>394.0</ele><time>2026-04-04T07:15:02.999Z</time></trkpt><trkpt lat="45.71174975785259" lon="9.957322359008336"><ele>394.00000000000006</ele><time>2026-04-04T07:15:05.999Z</time></trkpt><trkpt lat="45.71182704406085" lon="9.957346886194406"><ele>394.0</ele><time>2026-04-04T07:15:07.999Z</time></trkpt><trkpt lat="45.71191848851308" lon="9.957377521318026"><ele>394.0</ele><time>2026-04-04T07:15:10.999Z</time></trkpt><trkpt lat="45.71201002868779" lon="9.95740982496924"><ele>394.0</ele><time>2026-04-04T07:15:13.999Z</time></trkpt><trkpt lat="45.71209450727885" lon="9.957461880049946"><ele>394.00000000000006</ele><time>2026-04-04T07:15:16.999Z</time></trkpt><trkpt lat="45.71214818203918" lon="9.957510345064652"><ele>394.0</ele><time>2026-04-04T07:15:18.999Z</time></trkpt><trkpt lat="45.71220909333729" lon="9.957575405534836"><ele>394.83333333333337</ele><time>2026-04-04T07:15:21.999Z</time></trkpt><trkpt lat="45.712269889985016" lon="9.957641878596544"><ele>395.6666666666667</ele><time>2026-04-04T07:15:24.999Z</time></trkpt><trkpt lat="45.71232571106009" lon="9.957720728142782"><ele>396.5</ele><time>2026-04-04T07:15:27.999Z</time></trkpt><trkpt lat="45.71240385801055" lon="9.957803446335951"><ele>397.33333333333337</ele><time>2026-04-04T07:15:30.999Z</time></trkpt><trkpt lat="45.71248796336007" lon="9.957863443076292"><ele>398.1666666666667</ele><time>2026-04-04T07:15:33.999Z</time></trkpt><trkpt lat="45.71255830696601" lon="9.957916402182597"><ele>399.0</ele><time>2026-04-04T07:15:37.998Z</time></trkpt><trkpt lat="45.71263839833802" lon="9.957980634366216"><ele>399.0</ele><time>2026-04-04T07:15:41.998Z</time></trkpt><trkpt lat="45.71270269412022" lon="9.958053629022386"><ele>399.0</ele><time>2026-04-04T07:15:45Z</time></trkpt><trkpt lat="45.71274736786565" lon="9.958123101186386"><ele>399.0</ele><time>2026-04-04T07:15:47Z</time></trkpt><trkpt lat="45.71282324658765" lon="9.95821350907986"><ele>399.0</ele><time>2026-04-04T07:15:50Z</time></trkpt><trkpt lat="45.712856551358854" lon="9.958304630432494"><ele>399.0</ele><time>2026-04-04T07:15:52Z</time></trkpt><trkpt lat="45.71292121241583" lon="9.95836998254666"><ele>399.0</ele><time>2026-04-04T07:15:54Z</time></trkpt><trkpt lat="45.71297007579055" lon="9.9584366681607"><ele>400.1666666666667</ele><time>2026-04-04T07:15:56Z</time></trkpt><trkpt lat="45.71302042276271" lon="9.958495026678516"><ele>401.33333333333337</ele><time>2026-04-04T07:15:58Z</time></trkpt><trkpt lat="45.71307222703229" lon="9.95854980281672"><ele>402.5</ele><time>2026-04-04T07:16:00Z</time></trkpt><trkpt lat="45.71313103259629" lon="9.958599440397288"><ele>403.6666666666667</ele><time>2026-04-04T07:16:02Z</time></trkpt><trkpt lat="45.713202775832926" lon="9.958670438810659"><ele>404.83333333333337</ele><time>2026-04-04T07:16:05Z</time></trkpt><trkpt lat="45.71327694534199" lon="9.95873602786866"><ele>406.0</ele><time>2026-04-04T07:16:08Z</time></trkpt><trkpt lat="45.71334831875451" lon="9.95879651747553"><ele>406.00000000000006</ele><time>2026-04-04T07:16:11Z</time></trkpt><trkpt lat="45.71341782955061" lon="9.95885143649619"><ele>406.0</ele><time>2026-04-04T07:16:14Z</time></trkpt><trkpt lat="45.713491246477915" lon="9.95891072276025"><ele>406.0</ele><time>2026-04-04T07:16:17Z</time></trkpt><trkpt lat="45.71356991755735" lon="9.958977463299455"><ele>406.0</ele><time>2026-04-04T07:16:21Z</time></trkpt><trkpt lat="45.71364289159722" lon="9.959036223377081"><ele>406.00000000000006</ele><time>2026-04-04T07:16:24Z</time></trkpt><trkpt lat="45.713724009408544" lon="9.959095710688107"><ele>406.0</ele><time>2026-04-04T07:16:27Z</time></trkpt><trkpt lat="45.71379193458946" lon="9.95912644978565"><ele>407.0</ele><time>2026-04-04T07:16:30Z</time></trkpt><trkpt lat="45.71386136186907" lon="9.959153413229295"><ele>408.0</ele><time>2026-04-04T07:16:33Z</time></trkpt><trkpt lat="45.71392925989525" lon="9.959125266242536"><ele>409.0</ele><time>2026-04-04T07:16:36Z</time></trkpt><trkpt lat="45.71398700080195" lon="9.959045433480853"><ele>410.0</ele><time>2026-04-04T07:16:39Z</time></trkpt><trkpt lat="45.71402663821564" lon="9.95897226893721"><ele>411.0</ele><time>2026-04-04T07:16:41Z</time></trkpt><trkpt lat="45.71405661436923" lon="9.958884357895343"><ele>412.0</ele><time>2026-04-04T07:16:43Z</time></trkpt><trkpt lat="45.71408063130377" lon="9.958775078141766"><ele>413.0</ele><time>2026-04-04T07:16:45.999Z</time></trkpt><trkpt lat="45.7141114984527" lon="9.958660680849393"><ele>412.99999999999994</ele><time>2026-04-04T07:16:48.999Z</time></trkpt><trkpt lat="45.71419765104044" lon="9.958635775559"><ele>413.0</ele><time>2026-04-04T07:16:51.999Z</time></trkpt><trkpt lat="45.714278268116715" lon="9.958635266590633"><ele>413.0</ele><time>2026-04-04T07:16:53.999Z</time></trkpt><trkpt lat="45.714345319388606" lon="9.95864439333711"><ele>413.0</ele><time>2026-04-04T07:16:55.999Z</time></trkpt><trkpt lat="45.71441676348477" lon="9.958671351515614"><ele>412.99999999999994</ele><time>2026-04-04T07:16:57.999Z</time></trkpt><trkpt lat="45.71448788048125" lon="9.958708001031615"><ele>413.0</ele><time>2026-04-04T07:16:59.999Z</time></trkpt><trkpt lat="45.71456870111873" lon="9.95877478482318"><ele>413.3333333333333</ele><time>2026-04-04T07:17:01.999Z</time></trkpt><trkpt lat="45.71465224016338" lon="9.958816108851986"><ele>413.66666666666663</ele><time>2026-04-04T07:17:03.999Z</time></trkpt><trkpt lat="45.714734643240476" lon="9.958851333873671"><ele>414.0</ele><time>2026-04-04T07:17:05.999Z</time></trkpt><trkpt lat="45.71481621942861" lon="9.958864515360531"><ele>414.33333333333337</ele><time>2026-04-04T07:17:07.999Z</time></trkpt><trkpt lat="45.71489021690165" lon="9.958863237272764"><ele>414.6666666666667</ele><time>2026-04-04T07:17:09.999Z</time></trkpt><trkpt lat="45.7149590491702" lon="9.958851488831497"><ele>415.0</ele><time>2026-04-04T07:17:11.999Z</time></trkpt><trkpt lat="45.715041846031205" lon="9.958839892464939"><ele>415.00000000000006</ele><time>2026-04-04T07:17:14.999Z</time></trkpt><trkpt lat="45.71510586610584" lon="9.958833511366338"><ele>415.0</ele><time>2026-04-04T07:17:16.999Z</time></trkpt><trkpt lat="45.71519391770712" lon="9.958843123849118"><ele>415.0</ele><time>2026-04-04T07:17:19.999Z</time></trkpt><trkpt lat="45.71528193024412" lon="9.958853439308516"><ele>415.0</ele><time>2026-04-04T07:17:22.999Z</time></trkpt><trkpt lat="45.715365960339696" lon="9.958877851205528"><ele>415.00000000000006</ele><time>2026-04-04T07:17:25.999Z</time></trkpt><trkpt lat="45.715457819012975" lon="9.958906438604618"><ele>415.0</ele><time>2026-04-04T07:17:28.999Z</time></trkpt><trkpt lat="45.71552831165975" lon="9.958930648945689"><ele>414.1666666666667</ele><time>2026-04-04T07:17:31.999Z</time></trkpt><trkpt lat="45.715596085320946" lon="9.958975473382498"><ele>413.33333333333337</ele><time>2026-04-04T07:17:34.999Z</time></trkpt><trkpt lat="45.715660744014215" lon="9.95902582932123"><ele>412.5</ele><time>2026-04-04T07:17:37.999Z</time></trkpt><trkpt lat="45.71572639845326" lon="9.959079080307509"><ele>411.66666666666663</ele><time>2026-04-04T07:17:40.999Z</time></trkpt><trkpt lat="45.71578770114557" lon="9.959134444561093"><ele>410.8333333333333</ele><time>2026-04-04T07:17:43.998Z</time></trkpt><trkpt lat="45.715859084221265" lon="9.959194767766197"><ele>410.0</ele><time>2026-04-04T07:17:47.998Z</time></trkpt><trkpt lat="45.71592422314716" lon="9.95924227912093"><ele>410.0</ele><time>2026-04-04T07:17:51Z</time></trkpt><trkpt lat="45.71599684615166" lon="9.95929450163813"><ele>410.0</ele><time>2026-04-04T07:17:54Z</time></trkpt><trkpt lat="45.716069639097825" lon="9.959348955274852"><ele>410.0</ele><time>2026-04-04T07:17:57Z</time></trkpt><trkpt lat="45.71613436498109" lon="9.959383580486904"><ele>410.0</ele><time>2026-04-04T07:18:00Z</time></trkpt><trkpt lat="45.716196618284" lon="9.959426040856357"><ele>410.0</ele><time>2026-04-04T07:18:03Z</time></trkpt><trkpt lat="45.716261175419696" lon="9.95946633819148"><ele>410.0</ele><time>2026-04-04T07:18:06Z</time></trkpt><trkpt lat="45.71632766457503" lon="9.959510701659955"><ele>410.0</ele><time>2026-04-04T07:18:09Z</time></trkpt><trkpt lat="45.7163976714943" lon="9.959549964062083"><ele>413.16666666666663</ele><time>2026-04-04T07:18:12Z</time></trkpt><trkpt lat="45.71646304327875" lon="9.959587968632055"><ele>416.3333333333333</ele><time>2026-04-04T07:18:15Z</time></trkpt><trkpt lat="45.716534099329614" lon="9.959621806157653"><ele>419.5</ele><time>2026-04-04T07:18:18Z</time></trkpt><trkpt lat="45.71660627900392" lon="9.959650432224377"><ele>422.66666666666663</ele><time>2026-04-04T07:18:21Z</time></trkpt><trkpt lat="45.71668481859008" lon="9.959677053995128"><ele>425.8333333333333</ele><time>2026-04-04T07:18:24Z</time></trkpt><trkpt lat="45.71676455018268" lon="9.959705104025977"><ele>429.0</ele><time>2026-04-04T07:18:28Z</time></trkpt><trkpt lat="45.71683205822268" lon="9.959739207564809"><ele>429.0</ele><time>2026-04-04T07:18:31Z</time></trkpt><trkpt lat="45.716894980163524" lon="9.959782366098569"><ele>429.0</ele><time>2026-04-04T07:18:34Z</time></trkpt><trkpt lat="45.716965522435764" lon="9.959825712532425"><ele>429.0</ele><time>2026-04-04T07:18:37Z</time></trkpt><trkpt lat="45.717035267416804" lon="9.95986842872482"><ele>429.0</ele><time>2026-04-04T07:18:41Z</time></trkpt><trkpt lat="45.71709761277323" lon="9.959909810612745"><ele>429.0</ele><time>2026-04-04T07:18:44Z</time></trkpt><trkpt lat="45.71715738740036" lon="9.959957392058893"><ele>429.0</ele><time>2026-04-04T07:18:47Z</time></trkpt><trkpt lat="45.717218388021536" lon="9.960004844475602"><ele>429.0</ele><time>2026-04-04T07:18:50Z</time></trkpt><trkpt lat="45.717279991363505" lon="9.960047452846554"><ele>429.0</ele><time>2026-04-04T07:18:53Z</time></trkpt><trkpt lat="45.717351074050406" lon="9.960101228045302"><ele>429.0</ele><time>2026-04-04T07:18:56.999Z</time></trkpt><trkpt lat="45.71741232120766" lon="9.960140494817942"><ele>429.0</ele><time>2026-04-04T07:18:59.999Z</time></trkpt><trkpt lat="45.71747095341608" lon="9.960178642248476"><ele>429.0</ele><time>2026-04-04T07:19:02.999Z</time></trkpt><trkpt lat="45.71753359476869" lon="9.960211661864664"><ele>429.0</ele><time>2026-04-04T07:19:05.999Z</time></trkpt><trkpt lat="45.71760487971677" lon="9.960248738913817"><ele>429.0</ele><time>2026-04-04T07:19:08.999Z</time></trkpt><trkpt lat="45.717671610623505" lon="9.960271079715072"><ele>429.0</ele><time>2026-04-04T07:19:11.999Z</time></trkpt><trkpt lat="45.71773392456551" lon="9.960285483041318"><ele>433.8571428571429</ele><time>2026-04-04T07:19:14.999Z</time></trkpt><trkpt lat="45.7177994117795" lon="9.96030578737373"><ele>438.7142857142857</ele><time>2026-04-04T07:19:17.999Z</time></trkpt><trkpt lat="45.717864932679554" lon="9.960322946697518"><ele>443.57142857142856</ele><time>2026-04-04T07:19:20.999Z</time></trkpt><trkpt lat="45.71793291229537" lon="9.960331963258168"><ele>448.42857142857144</ele><time>2026-04-04T07:19:23.999Z</time></trkpt><trkpt lat="45.71799789231547" lon="9.960352009887135"><ele>453.2857142857142</ele><time>2026-04-04T07:19:26.999Z</time></trkpt><trkpt lat="45.71807014630923" lon="9.960393816598062"><ele>458.1428571428571</ele><time>2026-04-04T07:19:29.999Z</time></trkpt><trkpt lat="45.718136580943536" lon="9.960452974698816"><ele>463.0</ele><time>2026-04-04T07:19:33.999Z</time></trkpt><trkpt lat="45.718186722763946" lon="9.960513827795205"><ele>463.0</ele><time>2026-04-04T07:19:36.999Z</time></trkpt><trkpt lat="45.71824021966413" lon="9.960586267753353"><ele>462.99999999999994</ele><time>2026-04-04T07:19:39.999Z</time></trkpt><trkpt lat="45.71828889598862" lon="9.960657497989395"><ele>463.0</ele><time>2026-04-04T07:19:43.999Z</time></trkpt><trkpt lat="45.718341239375576" lon="9.9607102192095"><ele>463.0</ele><time>2026-04-04T07:19:46.999Z</time></trkpt><trkpt lat="45.71840162372148" lon="9.960766299635262"><ele>462.99999999999994</ele><time>2026-04-04T07:19:49.999Z</time></trkpt><trkpt lat="45.71846794454715" lon="9.960815721817209"><ele>463.0</ele><time>2026-04-04T07:19:52.998Z</time></trkpt><trkpt lat="45.7185258698111" lon="9.960858802413144"><ele>463.0</ele><time>2026-04-04T07:19:56Z</time></trkpt><trkpt lat="45.71858120706237" lon="9.960902068741193"><ele>463.71428571428567</ele><time>2026-04-04T07:19:59Z</time></trkpt><trkpt lat="45.71863588110946" lon="9.960947937688573"><ele>464.4285714285714</ele><time>2026-04-04T07:20:02Z</time></trkpt><trkpt lat="45.71869018154357" lon="9.96099469000381"><ele>465.1428571428571</ele><time>2026-04-04T07:20:05Z</time></trkpt><trkpt lat="45.71874544181675" lon="9.961050041474838"><ele>465.8571428571429</ele><time>2026-04-04T07:20:08Z</time></trkpt><trkpt lat="45.71880064260406" lon="9.961111294348944"><ele>466.5714285714286</ele><time>2026-04-04T07:20:11Z</time></trkpt><trkpt lat="45.71885495943871" lon="9.96116780871587"><ele>467.28571428571433</ele><time>2026-04-04T07:20:14Z</time></trkpt><trkpt lat="45.718913247330875" lon="9.961229951728768"><ele>468.0</ele><time>2026-04-04T07:20:17Z</time></trkpt><trkpt lat="45.71898016951657" lon="9.96129371631104"><ele>468.0</ele><time>2026-04-04T07:20:20Z</time></trkpt><trkpt lat="45.719039346332735" lon="9.961354312686108"><ele>468.00000000000006</ele><time>2026-04-04T07:20:23Z</time></trkpt><trkpt lat="45.71910288000163" lon="9.96139726902213"><ele>468.0</ele><time>2026-04-04T07:20:26Z</time></trkpt><trkpt lat="45.7191717556046" lon="9.961416418714988"><ele>468.0</ele><time>2026-04-04T07:20:29Z</time></trkpt><trkpt lat="45.71924075253168" lon="9.961441933442188"><ele>468.00000000000006</ele><time>2026-04-04T07:20:33Z</time></trkpt><trkpt lat="45.719313159968436" lon="9.961468844388659"><ele>468.0</ele><time>2026-04-04T07:20:36Z</time></trkpt><trkpt lat="45.71937491287115" lon="9.961492668257973"><ele>468.0</ele><time>2026-04-04T07:20:39Z</time></trkpt><trkpt lat="45.719437929128325" lon="9.961510956233104"><ele>470.42857142857144</ele><time>2026-04-04T07:20:42Z</time></trkpt><trkpt lat="45.719506302913786" lon="9.961530202451712"><ele>472.8571428571429</ele><time>2026-04-04T07:20:45Z</time></trkpt><trkpt lat="45.71957094001773" lon="9.961553420335875"><ele>475.28571428571433</ele><time>2026-04-04T07:20:48Z</time></trkpt><trkpt lat="45.71963949818011" lon="9.961580205479104"><ele>477.7142857142858</ele><time>2026-04-04T07:20:51Z</time></trkpt><trkpt lat="45.719710190807845" lon="9.96160132240905"><ele>480.14285714285717</ele><time>2026-04-04T07:20:54Z</time></trkpt><trkpt lat="45.71978212783962" lon="9.961622049824653"><ele>482.57142857142867</ele><time>2026-04-04T07:20:57Z</time></trkpt><trkpt lat="45.71986871858033" lon="9.961643299094868"><ele>485.00000000000006</ele><time>2026-04-04T07:20:59.999Z</time></trkpt><trkpt lat="45.7199347431443" lon="9.96167067144707"><ele>484.1428571428572</ele><time>2026-04-04T07:21:02.999Z</time></trkpt><trkpt lat="45.72000196776275" lon="9.961699181273037"><ele>483.28571428571433</ele><time>2026-04-04T07:21:05.999Z</time></trkpt><trkpt lat="45.72009110701006" lon="9.961733332490288"><ele>482.42857142857144</ele><time>2026-04-04T07:21:08.999Z</time></trkpt><trkpt lat="45.7201516860179" lon="9.961763684435846"><ele>481.5714285714286</ele><time>2026-04-04T07:21:10.999Z</time></trkpt><trkpt lat="45.720214770067095" lon="9.96179926539761"><ele>480.7142857142858</ele><time>2026-04-04T07:21:13.999Z</time></trkpt><trkpt lat="45.72027853382563" lon="9.961844780589008"><ele>479.85714285714283</ele><time>2026-04-04T07:21:16.999Z</time></trkpt><trkpt lat="45.72034051950841" lon="9.961896518277399"><ele>479.0</ele><time>2026-04-04T07:21:19.999Z</time></trkpt><trkpt lat="45.720405353459746" lon="9.961948148049965"><ele>479.0</ele><time>2026-04-04T07:21:22.999Z</time></trkpt><trkpt lat="45.72046881555656" lon="9.96199850922761"><ele>479.0</ele><time>2026-04-04T07:21:25.999Z</time></trkpt><trkpt lat="45.72053646625034" lon="9.962041104914722"><ele>479.0</ele><time>2026-04-04T07:21:28.999Z</time></trkpt><trkpt lat="45.72060431735927" lon="9.962085122709789"><ele>479.0</ele><time>2026-04-04T07:21:31.999Z</time></trkpt><trkpt lat="45.72067728021939" lon="9.962128717531193"><ele>479.0</ele><time>2026-04-04T07:21:34.999Z</time></trkpt><trkpt lat="45.720745132294105" lon="9.962174404023088"><ele>479.0</ele><time>2026-04-04T07:21:37.999Z</time></trkpt><trkpt lat="45.720812612737724" lon="9.962218801474615"><ele>479.0</ele><time>2026-04-04T07:21:40.999Z</time></trkpt><trkpt lat="45.72088330511761" lon="9.96227699074551"><ele>479.0</ele><time>2026-04-04T07:21:43.999Z</time></trkpt><trkpt lat="45.72094170645385" lon="9.96232376195968"><ele>479.0</ele><time>2026-04-04T07:21:46.999Z</time></trkpt><trkpt lat="45.72100348432266" lon="9.96237405717905"><ele>479.0</ele><time>2026-04-04T07:21:49.999Z</time></trkpt><trkpt lat="45.72106615727394" lon="9.962424676895873"><ele>479.0</ele><time>2026-04-04T07:21:52.999Z</time></trkpt><trkpt lat="45.721131861480664" lon="9.962473316395966"><ele>479.0</ele><time>2026-04-04T07:21:55.999Z</time></trkpt><trkpt lat="45.72120199069921" lon="9.96252393128772"><ele>479.0</ele><time>2026-04-04T07:21:58.998Z</time></trkpt><trkpt lat="45.72127025400986" lon="9.962573909707004"><ele>479.0</ele><time>2026-04-04T07:22:02Z</time></trkpt><trkpt lat="45.72133527436042" lon="9.962625087985854"><ele>478.99999999999994</ele><time>2026-04-04T07:22:05Z</time></trkpt><trkpt lat="45.721401689609074" lon="9.96267996981593"><ele>479.0</ele><time>2026-04-04T07:22:08Z</time></trkpt><trkpt lat="45.72146132309222" lon="9.962742337539844"><ele>479.0</ele><time>2026-04-04T07:22:11Z</time></trkpt><trkpt lat="45.72153570027804" lon="9.962813335100353"><ele>479.0</ele><time>2026-04-04T07:22:14Z</time></trkpt><trkpt lat="45.72160771549199" lon="9.962835393565346"><ele>478.99999999999994</ele><time>2026-04-04T07:22:17Z</time></trkpt><trkpt lat="45.72166269114659" lon="9.962766717881152"><ele>479.0</ele><time>2026-04-04T07:22:20Z</time></trkpt><trkpt lat="45.72164959505305" lon="9.962657500387051"><ele>478.99999999999994</ele><time>2026-04-04T07:22:23Z</time></trkpt><trkpt lat="45.72159682803065" lon="9.962579593338225"><ele>479.0</ele><time>2026-04-04T07:22:26Z</time></trkpt><trkpt lat="45.72153244942061" lon="9.962532630816304"><ele>479.0</ele><time>2026-04-04T07:22:29Z</time></trkpt><trkpt lat="45.721465586554274" lon="9.962484274898701"><ele>479.0</ele><time>2026-04-04T07:22:32Z</time></trkpt><trkpt lat="45.72140662787751" lon="9.962421971909015"><ele>478.99999999999994</ele><time>2026-04-04T07:22:35Z</time></trkpt><trkpt lat="45.721352564124" lon="9.962347407521008"><ele>479.0</ele><time>2026-04-04T07:22:38Z</time></trkpt><trkpt lat="45.72128857340177" lon="9.962258570763415"><ele>478.99999999999994</ele><time>2026-04-04T07:22:41Z</time></trkpt><trkpt lat="45.72123028114099" lon="9.962193414506888"><ele>479.0</ele><time>2026-04-04T07:22:44Z</time></trkpt><trkpt lat="45.72117305704738" lon="9.96211842253732"><ele>479.0</ele><time>2026-04-04T07:22:47Z</time></trkpt><trkpt lat="45.7211133261397" lon="9.962036439460675"><ele>479.0</ele><time>2026-04-04T07:22:50Z</time></trkpt><trkpt lat="45.72105745685307" lon="9.961954604140583"><ele>478.99999999999994</ele><time>2026-04-04T07:22:53Z</time></trkpt><trkpt lat="45.72099852624482" lon="9.961881404845652"><ele>479.0</ele><time>2026-04-04T07:22:56Z</time></trkpt><trkpt lat="45.72094113767442" lon="9.961807742916637"><ele>478.99999999999994</ele><time>2026-04-04T07:22:59Z</time></trkpt><trkpt lat="45.720883220833606" lon="9.961741233491335"><ele>479.0</ele><time>2026-04-04T07:23:02Z</time></trkpt><trkpt lat="45.72081570355173" lon="9.961657488521748"><ele>479.0</ele><time>2026-04-04T07:23:05.999Z</time></trkpt><trkpt lat="45.72075080135016" lon="9.961588735185414"><ele>479.0</ele><time>2026-04-04T07:23:08.999Z</time></trkpt><trkpt lat="45.72069316995317" lon="9.96151519316492"><ele>478.99999999999994</ele><time>2026-04-04T07:23:11.999Z</time></trkpt><trkpt lat="45.720634904702855" lon="9.961438146398029"><ele>479.0</ele><time>2026-04-04T07:23:14.999Z</time></trkpt><trkpt lat="45.72056706733779" lon="9.96137085372801"><ele>479.99999999999994</ele><time>2026-04-04T07:23:17.999Z</time></trkpt><trkpt lat="45.72050422203768" lon="9.96131485114465"><ele>481.0</ele><time>2026-04-04T07:23:20.999Z</time></trkpt><trkpt lat="45.72044170585802" lon="9.961261640713936"><ele>482.0</ele><time>2026-04-04T07:23:23.999Z</time></trkpt><trkpt lat="45.72037461863809" lon="9.961199089465286"><ele>483.0</ele><time>2026-04-04T07:23:26.999Z</time></trkpt><trkpt lat="45.72030117968973" lon="9.961141557826538"><ele>483.99999999999994</ele><time>2026-04-04T07:23:29.999Z</time></trkpt><trkpt lat="45.72023373074594" lon="9.961081847812967"><ele>485.0</ele><time>2026-04-04T07:23:32.999Z</time></trkpt><trkpt lat="45.72015882978141" lon="9.961013838772029"><ele>484.99999999999994</ele><time>2026-04-04T07:23:35.999Z</time></trkpt><trkpt lat="45.72008335274228" lon="9.960939603083343"><ele>485.0</ele><time>2026-04-04T07:23:38.999Z</time></trkpt><trkpt lat="45.72001234428096" lon="9.960868894863994"><ele>485.0</ele><time>2026-04-04T07:23:41.999Z</time></trkpt><trkpt lat="45.7199464569307" lon="9.960792834156244"><ele>485.0</ele><time>2026-04-04T07:23:44.999Z</time></trkpt><trkpt lat="45.7198811261501" lon="9.960720590706131"><ele>484.99999999999994</ele><time>2026-04-04T07:23:47.999Z</time></trkpt><trkpt lat="45.719813754825225" lon="9.960637946540901"><ele>485.0</ele><time>2026-04-04T07:23:50.999Z</time></trkpt><trkpt lat="45.71974771054313" lon="9.960556974013882"><ele>486.16666666666663</ele><time>2026-04-04T07:23:53.999Z</time></trkpt><trkpt lat="45.71968548922645" lon="9.960469634835283"><ele>487.3333333333333</ele><time>2026-04-04T07:23:56.999Z</time></trkpt><trkpt lat="45.71961786574565" lon="9.9603808580874"><ele>488.5</ele><time>2026-04-04T07:23:59.999Z</time></trkpt><trkpt lat="45.7195630402604" lon="9.960289548831524"><ele>489.66666666666663</ele><time>2026-04-04T07:24:02.999Z</time></trkpt><trkpt lat="45.719506696946965" lon="9.960206849831675"><ele>490.8333333333333</ele><time>2026-04-04T07:24:05.998Z</time></trkpt><trkpt lat="45.7194485521547" lon="9.960123131516557"><ele>492.0</ele><time>2026-04-04T07:24:09Z</time></trkpt><trkpt lat="45.71938529243928" lon="9.960043367210968"><ele>496.8333333333333</ele><time>2026-04-04T07:24:12Z</time></trkpt><trkpt lat="45.719323603501735" lon="9.959962805458414"><ele>501.66666666666663</ele><time>2026-04-04T07:24:15Z</time></trkpt><trkpt lat="45.71925708885486" lon="9.959894711807754"><ele>506.5</ele><time>2026-04-04T07:24:18Z</time></trkpt><trkpt lat="45.71919382543704" lon="9.959823273560117"><ele>511.3333333333333</ele><time>2026-04-04T07:24:21Z</time></trkpt><trkpt lat="45.71912531772716" lon="9.959745428934998"><ele>516.1666666666666</ele><time>2026-04-04T07:24:24Z</time></trkpt><trkpt lat="45.71904857374342" lon="9.959676355873718"><ele>521.0</ele><time>2026-04-04T07:24:27Z</time></trkpt><trkpt lat="45.71897682299908" lon="9.959602822305557"><ele>521.0</ele><time>2026-04-04T07:24:30Z</time></trkpt><trkpt lat="45.7189152414128" lon="9.959533444690843"><ele>521.0</ele><time>2026-04-04T07:24:33Z</time></trkpt><trkpt lat="45.71886656041959" lon="9.959454376867026"><ele>521.0</ele><time>2026-04-04T07:24:35Z</time></trkpt><trkpt lat="45.71882192784086" lon="9.959385665276479"><ele>521.0</ele><time>2026-04-04T07:24:37Z</time></trkpt><trkpt lat="45.71876822215573" lon="9.959322103276012"><ele>521.0</ele><time>2026-04-04T07:24:39Z</time></trkpt><trkpt lat="45.71871875186286" lon="9.95926040866303"><ele>521.0</ele><time>2026-04-04T07:24:41Z</time></trkpt><trkpt lat="45.71866545291261" lon="9.959205684422212"><ele>521.0</ele><time>2026-04-04T07:24:43Z</time></trkpt><trkpt lat="45.7186153549068" lon="9.959146589198584"><ele>522.0</ele><time>2026-04-04T07:24:45Z</time></trkpt><trkpt lat="45.71856215667961" lon="9.959093952081378"><ele>523.0</ele><time>2026-04-04T07:24:47Z</time></trkpt><trkpt lat="45.71850820387011" lon="9.959043096996778"><ele>524.0</ele><time>2026-04-04T07:24:49Z</time></trkpt><trkpt lat="45.718453266395635" lon="9.958991556844072"><ele>525.0</ele><time>2026-04-04T07:24:51Z</time></trkpt><trkpt lat="45.718397964853494" lon="9.958932954982245"><ele>526.0</ele><time>2026-04-04T07:24:53Z</time></trkpt><trkpt lat="45.71834240612104" lon="9.958877328424407"><ele>527.0</ele><time>2026-04-04T07:24:55Z</time></trkpt><trkpt lat="45.71828803672128" lon="9.958825811939652"><ele>528.0</ele><time>2026-04-04T07:24:57Z</time></trkpt><trkpt lat="45.71823241451593" lon="9.958777832406975"><ele>528.0</ele><time>2026-04-04T07:24:59Z</time></trkpt><trkpt lat="45.718175056090935" lon="9.958716573743024"><ele>528.0</ele><time>2026-04-04T07:25:01Z</time></trkpt><trkpt lat="45.71812103393756" lon="9.958661519343648"><ele>528.0</ele><time>2026-04-04T07:25:03Z</time></trkpt><trkpt lat="45.718067908262455" lon="9.958608822834144"><ele>528.0</ele><time>2026-04-04T07:25:05Z</time></trkpt><trkpt lat="45.71801740873869" lon="9.958551596100003"><ele>528.0</ele><time>2026-04-04T07:25:07Z</time></trkpt><trkpt lat="45.71796738071566" lon="9.958490022731517"><ele>528.0</ele><time>2026-04-04T07:25:09Z</time></trkpt><trkpt lat="45.71789412091194" lon="9.958417311814774"><ele>528.0</ele><time>2026-04-04T07:25:11.999Z</time></trkpt><trkpt lat="45.717827384923666" lon="9.958344975241245"><ele>527.5</ele><time>2026-04-04T07:25:14.999Z</time></trkpt><trkpt lat="45.717775905414065" lon="9.958285922536401"><ele>527.0</ele><time>2026-04-04T07:25:16.999Z</time></trkpt><trkpt lat="45.717722675441195" lon="9.95823414010651"><ele>526.5</ele><time>2026-04-04T07:25:18.999Z</time></trkpt><trkpt lat="45.717670112569806" lon="9.95817920538037"><ele>526.0</ele><time>2026-04-04T07:25:21.999Z</time></trkpt><trkpt lat="45.71759930376424" lon="9.958109122726707"><ele>525.5</ele><time>2026-04-04T07:25:23.999Z</time></trkpt><trkpt lat="45.71752659631457" lon="9.958039460563993"><ele>525.0</ele><time>2026-04-04T07:25:26.999Z</time></trkpt><trkpt lat="45.71745943629247" lon="9.95796889311893"><ele>525.0</ele><time>2026-04-04T07:25:29.999Z</time></trkpt><trkpt lat="45.71739287949903" lon="9.957897886319014"><ele>525.0</ele><time>2026-04-04T07:25:32.999Z</time></trkpt><trkpt lat="45.71732030559505" lon="9.95782935316946"><ele>525.0</ele><time>2026-04-04T07:25:35.999Z</time></trkpt><trkpt lat="45.71725294359856" lon="9.95776112328647"><ele>525.0</ele><time>2026-04-04T07:25:38.999Z</time></trkpt><trkpt lat="45.71718289700823" lon="9.957689686597375"><ele>525.0</ele><time>2026-04-04T07:25:41.999Z</time></trkpt><trkpt lat="45.71711506445996" lon="9.957614753024028"><ele>525.0</ele><time>2026-04-04T07:25:45.999Z</time></trkpt><trkpt lat="45.717043466563" lon="9.957547886264516"><ele>526.5</ele><time>2026-04-04T07:25:48.999Z</time></trkpt><trkpt lat="45.716972773824544" lon="9.957493668732429"><ele>528.0</ele><time>2026-04-04T07:25:51.999Z</time></trkpt><trkpt lat="45.716906740924756" lon="9.957439579455151"><ele>529.5</ele><time>2026-04-04T07:25:54.999Z</time></trkpt><trkpt lat="45.71684191641792" lon="9.957378793954877"><ele>531.0</ele><time>2026-04-04T07:25:56.999Z</time></trkpt><trkpt lat="45.71680282030694" lon="9.95726778451747"><ele>532.5</ele><time>2026-04-04T07:25:59.999Z</time></trkpt><trkpt lat="45.71684448503701" lon="9.957172246292666"><ele>534.0</ele><time>2026-04-04T07:26:02.999Z</time></trkpt><trkpt lat="45.71692152842895" lon="9.95719346542057"><ele>532.7142857142858</ele><time>2026-04-04T07:26:05.999Z</time></trkpt><trkpt lat="45.71697243613222" lon="9.957296853939368"><ele>531.4285714285714</ele><time>2026-04-04T07:26:08.999Z</time></trkpt><trkpt lat="45.71701383935717" lon="9.957376004307237"><ele>530.1428571428571</ele><time>2026-04-04T07:26:11.998Z</time></trkpt><trkpt lat="45.71706388651185" lon="9.957450679138978"><ele>528.8571428571429</ele><time>2026-04-04T07:26:15Z</time></trkpt><trkpt lat="45.717114222042206" lon="9.957517385030663"><ele>527.5714285714286</ele><time>2026-04-04T07:26:17Z</time></trkpt><trkpt lat="45.717178081199265" lon="9.957554361133562"><ele>526.2857142857143</ele><time>2026-04-04T07:26:20Z</time></trkpt><trkpt lat="45.71724584942451" lon="9.957600125975832"><ele>525.0</ele><time>2026-04-04T07:26:23Z</time></trkpt><trkpt lat="45.71731238273551" lon="9.957635026034096"><ele>525.0</ele><time>2026-04-04T07:26:25Z</time></trkpt><trkpt lat="45.71740528306774" lon="9.957693852252365"><ele>525.0</ele><time>2026-04-04T07:26:29Z</time></trkpt><trkpt lat="45.7174735604373" lon="9.957730521549607"><ele>525.0</ele><time>2026-04-04T07:26:32Z</time></trkpt><trkpt lat="45.717535321296694" lon="9.957767861973013"><ele>525.0</ele><time>2026-04-04T07:26:35Z</time></trkpt><trkpt lat="45.717599926457865" lon="9.957814880629417"><ele>525.0</ele><time>2026-04-04T07:26:38Z</time></trkpt><trkpt lat="45.71766675203404" lon="9.957861075735076"><ele>525.0</ele><time>2026-04-04T07:26:41Z</time></trkpt><trkpt lat="45.71773378874534" lon="9.957912560704395"><ele>530.1666666666666</ele><time>2026-04-04T07:26:44Z</time></trkpt><trkpt lat="45.71781479432154" lon="9.957980149168216"><ele>535.3333333333334</ele><time>2026-04-04T07:26:47Z</time></trkpt><trkpt lat="45.7178714556061" lon="9.958027189683396"><ele>540.5</ele><time>2026-04-04T07:26:50Z</time></trkpt><trkpt lat="45.717940750104106" lon="9.958084798145215"><ele>545.6666666666667</ele><time>2026-04-04T07:26:53Z</time></trkpt><trkpt lat="45.71799830486935" lon="9.95813734922883"><ele>550.8333333333334</ele><time>2026-04-04T07:26:55Z</time></trkpt><trkpt lat="45.71807298626449" lon="9.958192824646872"><ele>556.0</ele><time>2026-04-04T07:26:58Z</time></trkpt><trkpt lat="45.718152031529876" lon="9.958223578350024"><ele>556.0</ele><time>2026-04-04T07:27:01Z</time></trkpt><trkpt lat="45.71822936050491" lon="9.958239763740295"><ele>556.0</ele><time>2026-04-04T07:27:04Z</time></trkpt><trkpt lat="45.71831090550609" lon="9.958241789240592"><ele>556.0</ele><time>2026-04-04T07:27:07Z</time></trkpt><trkpt lat="45.71838753734406" lon="9.95825079889234"><ele>556.0</ele><time>2026-04-04T07:27:10Z</time></trkpt><trkpt lat="45.71846285651839" lon="9.958253495758065"><ele>556.0</ele><time>2026-04-04T07:27:13Z</time></trkpt><trkpt lat="45.71854342641407" lon="9.958264144195105"><ele>556.0</ele><time>2026-04-04T07:27:16Z</time></trkpt><trkpt lat="45.71862485703773" lon="9.958273708645706"><ele>555.3333333333334</ele><time>2026-04-04T07:27:18.999Z</time></trkpt><trkpt lat="45.71870134203873" lon="9.958286782756131"><ele>554.6666666666667</ele><time>2026-04-04T07:27:21.999Z</time></trkpt><trkpt lat="45.718777959295636" lon="9.958305559917536"><ele>554.0</ele><time>2026-04-04T07:27:24.999Z</time></trkpt><trkpt lat="45.7188561357869" lon="9.958324250677386"><ele>553.3333333333334</ele><time>2026-04-04T07:27:27.999Z</time></trkpt><trkpt lat="45.718950938248206" lon="9.958348563910016"><ele>552.6666666666666</ele><time>2026-04-04T07:27:30.999Z</time></trkpt><trkpt lat="45.71901170431659" lon="9.958375087612305"><ele>552.0</ele><time>2026-04-04T07:27:32.999Z</time></trkpt><trkpt lat="45.719086811211675" lon="9.958433507344655"><ele>552.0</ele><time>2026-04-04T07:27:35.999Z</time></trkpt><trkpt lat="45.7191555020999" lon="9.958499074828037"><ele>552.0</ele><time>2026-04-04T07:27:38.999Z</time></trkpt><trkpt lat="45.71921284566133" lon="9.958580449721232"><ele>552.0</ele><time>2026-04-04T07:27:41.999Z</time></trkpt><trkpt lat="45.71926150210291" lon="9.958648811049347"><ele>552.0</ele><time>2026-04-04T07:27:44.999Z</time></trkpt><trkpt lat="45.71931504976386" lon="9.958726395968899"><ele>552.0</ele><time>2026-04-04T07:27:47.999Z</time></trkpt><trkpt lat="45.71936135228639" lon="9.958794198416939"><ele>552.0</ele><time>2026-04-04T07:27:50.999Z</time></trkpt><trkpt lat="45.71940939739997" lon="9.95886662639181"><ele>552.0</ele><time>2026-04-04T07:27:53.999Z</time></trkpt><trkpt lat="45.719458349448544" lon="9.958948964842481"><ele>552.1666666666666</ele><time>2026-04-04T07:27:56.999Z</time></trkpt><trkpt lat="45.71950453813464" lon="9.959028562814028"><ele>552.3333333333334</ele><time>2026-04-04T07:27:59.999Z</time></trkpt><trkpt lat="45.719559452936586" lon="9.959114555274647"><ele>552.5</ele><time>2026-04-04T07:28:02.999Z</time></trkpt><trkpt lat="45.71961600960283" lon="9.95918638076705"><ele>552.6666666666667</ele><time>2026-04-04T07:28:04.999Z</time></trkpt><trkpt lat="45.719676403248" lon="9.959273343988059"><ele>552.8333333333334</ele><time>2026-04-04T07:28:07.999Z</time></trkpt><trkpt lat="45.719739699264" lon="9.959351822898602"><ele>553.0</ele><time>2026-04-04T07:28:10.999Z</time></trkpt><trkpt lat="45.71979966290686" lon="9.959420214253889"><ele>553.0</ele><time>2026-04-04T07:28:13.999Z</time></trkpt><trkpt lat="45.71986768921143" lon="9.959477345077149"><ele>553.0</ele><time>2026-04-04T07:28:16.998Z</time></trkpt><trkpt lat="45.71993379367738" lon="9.959536904841803"><ele>553.0</ele><time>2026-04-04T07:28:20Z</time></trkpt><trkpt lat="45.71999551419183" lon="9.95960169841852"><ele>553.0</ele><time>2026-04-04T07:28:23Z</time></trkpt><trkpt lat="45.72005899898015" lon="9.959654355456964"><ele>553.0</ele><time>2026-04-04T07:28:26Z</time></trkpt><trkpt lat="45.720118962503435" lon="9.959707358247917"><ele>553.0</ele><time>2026-04-04T07:28:29Z</time></trkpt><trkpt lat="45.720185220230015" lon="9.95976009022277"><ele>556.6666666666667</ele><time>2026-04-04T07:28:32Z</time></trkpt><trkpt lat="45.72025159858242" lon="9.959808410220129"><ele>560.3333333333334</ele><time>2026-04-04T07:28:35Z</time></trkpt><trkpt lat="45.720320542806824" lon="9.959852659210792"><ele>564.0</ele><time>2026-04-04T07:28:38Z</time></trkpt><trkpt lat="45.72038254315503" lon="9.959877448287168"><ele>567.6666666666666</ele><time>2026-04-04T07:28:41Z</time></trkpt><trkpt lat="45.72045491276816" lon="9.959888200056467"><ele>571.3333333333333</ele><time>2026-04-04T07:28:44Z</time></trkpt><trkpt lat="45.72052696090918" lon="9.959884164851053"><ele>575.0</ele><time>2026-04-04T07:28:47Z</time></trkpt><trkpt lat="45.720622121702014" lon="9.959866501073607"><ele>575.0</ele><time>2026-04-04T07:28:50Z</time></trkpt><trkpt lat="45.72071070208542" lon="9.959840303797073"><ele>575.0</ele><time>2026-04-04T07:28:53Z</time></trkpt><trkpt lat="45.72079021020874" lon="9.959802903451534"><ele>575.0</ele><time>2026-04-04T07:28:56Z</time></trkpt><trkpt lat="45.720874362359936" lon="9.9597761077657"><ele>575.0</ele><time>2026-04-04T07:28:59Z</time></trkpt><trkpt lat="45.720954954302066" lon="9.959762733707556"><ele>575.0</ele><time>2026-04-04T07:29:02Z</time></trkpt><trkpt lat="45.7210309482057" lon="9.959745787694313"><ele>575.0</ele><time>2026-04-04T07:29:05Z</time></trkpt><trkpt lat="45.72110798054075" lon="9.959743819819538"><ele>577.3333333333333</ele><time>2026-04-04T07:29:08Z</time></trkpt><trkpt lat="45.72118385710706" lon="9.959759992849705"><ele>579.6666666666666</ele><time>2026-04-04T07:29:11Z</time></trkpt><trkpt lat="45.721256958589294" lon="9.959791435067876"><ele>582.0</ele><time>2026-04-04T07:29:14Z</time></trkpt><trkpt lat="45.72132562630438" lon="9.959818615604645"><ele>584.3333333333334</ele><time>2026-04-04T07:29:17Z</time></trkpt><trkpt lat="45.721397217582634" lon="9.959857034049135"><ele>586.6666666666667</ele><time>2026-04-04T07:29:20Z</time></trkpt><trkpt lat="45.721470537572664" lon="9.959888203300476"><ele>589.0</ele><time>2026-04-04T07:29:22.999Z</time></trkpt><trkpt lat="45.72154522149375" lon="9.959916900104917"><ele>589.0</ele><time>2026-04-04T07:29:25.999Z</time></trkpt><trkpt lat="45.72162088746805" lon="9.959955081240599"><ele>589.0</ele><time>2026-04-04T07:29:28.999Z</time></trkpt><trkpt lat="45.721695573621446" lon="9.959991277956195"><ele>589.0</ele><time>2026-04-04T07:29:31.999Z</time></trkpt><trkpt lat="45.72177032238352" lon="9.960019838377095"><ele>589.0</ele><time>2026-04-04T07:29:34.999Z</time></trkpt><trkpt lat="45.72184257371424" lon="9.960033236767725"><ele>589.0</ele><time>2026-04-04T07:29:37.999Z</time></trkpt><trkpt lat="45.721914060347146" lon="9.960037907845834"><ele>589.0</ele><time>2026-04-04T07:29:40.999Z</time></trkpt><trkpt lat="45.721985924578064" lon="9.96004222198932"><ele>590.0</ele><time>2026-04-04T07:29:43.999Z</time></trkpt><trkpt lat="45.72205400522802" lon="9.96005118668117"><ele>591.0</ele><time>2026-04-04T07:29:46.999Z</time></trkpt><trkpt lat="45.722132441350674" lon="9.960054677604683"><ele>592.0</ele><time>2026-04-04T07:29:50.999Z</time></trkpt><trkpt lat="45.72220881060334" lon="9.960055668983896"><ele>593.0</ele><time>2026-04-04T07:29:53.999Z</time></trkpt><trkpt lat="45.72228916659035" lon="9.960048026340068"><ele>594.0</ele><time>2026-04-04T07:29:56.999Z</time></trkpt><trkpt lat="45.722370789185014" lon="9.960038089773649"><ele>595.0</ele><time>2026-04-04T07:29:59.999Z</time></trkpt><trkpt lat="45.722464919227406" lon="9.960015973423186"><ele>595.0</ele><time>2026-04-04T07:30:02.999Z</time></trkpt><trkpt lat="45.722532409667316" lon="9.960002274050044"><ele>595.0</ele><time>2026-04-04T07:30:04.999Z</time></trkpt><trkpt lat="45.72260677684869" lon="9.959994785894546"><ele>595.0</ele><time>2026-04-04T07:30:07.999Z</time></trkpt><trkpt lat="45.72267308582151" lon="9.959981519030007"><ele>595.0</ele><time>2026-04-04T07:30:09.999Z</time></trkpt><trkpt lat="45.722753734285135" lon="9.959962492877992"><ele>595.0</ele><time>2026-04-04T07:30:12.999Z</time></trkpt><trkpt lat="45.72281973056866" lon="9.959950170858287"><ele>595.0</ele><time>2026-04-04T07:30:15.999Z</time></trkpt><trkpt lat="45.72289851571875" lon="9.959923959462609"><ele>595.0</ele><time>2026-04-04T07:30:18.999Z</time></trkpt><trkpt lat="45.72297560360249" lon="9.95989010391107"><ele>594.8571428571429</ele><time>2026-04-04T07:30:21.998Z</time></trkpt><trkpt lat="45.72304969008771" lon="9.95985710824875"><ele>594.7142857142858</ele><time>2026-04-04T07:30:24.998Z</time></trkpt><trkpt lat="45.72312247532703" lon="9.959828466120435"><ele>594.5714285714286</ele><time>2026-04-04T07:30:28Z</time></trkpt><trkpt lat="45.723205185402755" lon="9.95980516117701"><ele>594.4285714285714</ele><time>2026-04-04T07:30:31Z</time></trkpt><trkpt lat="45.72326728119962" lon="9.959765004159982"><ele>594.2857142857143</ele><time>2026-04-04T07:30:34Z</time></trkpt><trkpt lat="45.72332426966486" lon="9.959716639624492"><ele>594.1428571428571</ele><time>2026-04-04T07:30:36Z</time></trkpt><trkpt lat="45.723387157064536" lon="9.959655043771548"><ele>594.0</ele><time>2026-04-04T07:30:39Z</time></trkpt><trkpt lat="45.72344648698009" lon="9.959590573119634"><ele>594.0</ele><time>2026-04-04T07:30:42Z</time></trkpt><trkpt lat="45.72350254816542" lon="9.959536995167149"><ele>594.0</ele><time>2026-04-04T07:30:44Z</time></trkpt><trkpt lat="45.72356754544623" lon="9.959498473448742"><ele>594.0</ele><time>2026-04-04T07:30:47Z</time></trkpt><trkpt lat="45.72364343653524" lon="9.959487354035858"><ele>594.0</ele><time>2026-04-04T07:30:50Z</time></trkpt><trkpt lat="45.723720424416285" lon="9.95949046262088"><ele>594.0</ele><time>2026-04-04T07:30:53Z</time></trkpt><trkpt lat="45.723809791704824" lon="9.959503941587252"><ele>594.0</ele><time>2026-04-04T07:30:56Z</time></trkpt><trkpt lat="45.72388651458941" lon="9.959516614726525"><ele>592.5</ele><time>2026-04-04T07:30:59Z</time></trkpt><trkpt lat="45.723957567254935" lon="9.959522994989856"><ele>591.0</ele><time>2026-04-04T07:31:01Z</time></trkpt><trkpt lat="45.72404141015391" lon="9.959515466163854"><ele>589.5</ele><time>2026-04-04T07:31:04Z</time></trkpt><trkpt lat="45.72412404614654" lon="9.959484008127218"><ele>588.0</ele><time>2026-04-04T07:31:07Z</time></trkpt><trkpt lat="45.7242050319688" lon="9.959458185807994"><ele>586.5</ele><time>2026-04-04T07:31:10Z</time></trkpt><trkpt lat="45.724287211967614" lon="9.959440364721509"><ele>585.0</ele><time>2026-04-04T07:31:13Z</time></trkpt><trkpt lat="45.72436470206025" lon="9.959418955954252"><ele>585.1666666666666</ele><time>2026-04-04T07:31:16Z</time></trkpt><trkpt lat="45.72444087364677" lon="9.959393386793488"><ele>585.3333333333334</ele><time>2026-04-04T07:31:19Z</time></trkpt><trkpt lat="45.72451639663959" lon="9.959365834128457"><ele>585.5</ele><time>2026-04-04T07:31:22Z</time></trkpt><trkpt lat="45.72458917450395" lon="9.959330369250855"><ele>585.6666666666667</ele><time>2026-04-04T07:31:25Z</time></trkpt><trkpt lat="45.72466145225431" lon="9.959290095203507"><ele>585.8333333333334</ele><time>2026-04-04T07:31:27.999Z</time></trkpt><trkpt lat="45.72474238279932" lon="9.959254387576674"><ele>586.0</ele><time>2026-04-04T07:31:30.999Z</time></trkpt><trkpt lat="45.72481777862433" lon="9.959211066617723"><ele>591.6666666666667</ele><time>2026-04-04T07:31:33.999Z</time></trkpt><trkpt lat="45.724888753460974" lon="9.959166452738025"><ele>597.3333333333334</ele><time>2026-04-04T07:31:36.999Z</time></trkpt><trkpt lat="45.72495662099764" lon="9.95909552440954"><ele>603.0</ele><time>2026-04-04T07:31:39.999Z</time></trkpt><trkpt lat="45.72502865345386" lon="9.959029760701508"><ele>608.6666666666666</ele><time>2026-04-04T07:31:42.999Z</time></trkpt><trkpt lat="45.72509026428594" lon="9.958948060143042"><ele>614.3333333333333</ele><time>2026-04-04T07:31:45.999Z</time></trkpt><trkpt lat="45.72515622262581" lon="9.958877295139784"><ele>620.0</ele><time>2026-04-04T07:31:48.999Z</time></trkpt><trkpt lat="45.725204491631686" lon="9.95881706377203"><ele>623.8333333333333</ele><time>2026-04-04T07:31:51.999Z</time></trkpt><trkpt lat="45.72525245497413" lon="9.958755024148216"><ele>627.6666666666666</ele><time>2026-04-04T07:31:53.999Z</time></trkpt><trkpt lat="45.72531314853439" lon="9.958692301414134"><ele>631.5</ele><time>2026-04-04T07:31:56.999Z</time></trkpt><trkpt lat="45.72538060249834" lon="9.958647868042474"><ele>635.3333333333334</ele><time>2026-04-04T07:31:58.999Z</time></trkpt><trkpt lat="45.7254708914215" lon="9.958652349424641"><ele>639.1666666666667</ele><time>2026-04-04T07:32:01.999Z</time></trkpt><trkpt lat="45.72555535167242" lon="9.958680472928911"><ele>643.0</ele><time>2026-04-04T07:32:04.999Z</time></trkpt><trkpt lat="45.725615477509095" lon="9.958765514207313"><ele>643.0</ele><time>2026-04-04T07:32:07.999Z</time></trkpt><trkpt lat="45.725661472214725" lon="9.958865027205183"><ele>643.0</ele><time>2026-04-04T07:32:10.999Z</time></trkpt><trkpt lat="45.72569731056537" lon="9.958974417381919"><ele>643.0</ele><time>2026-04-04T07:32:13.999Z</time></trkpt><trkpt lat="45.725734207285846" lon="9.959086915388662"><ele>643.0</ele><time>2026-04-04T07:32:16.999Z</time></trkpt><trkpt lat="45.72576612442603" lon="9.959168070427703"><ele>643.0</ele><time>2026-04-04T07:32:19.999Z</time></trkpt><trkpt lat="45.725805932637996" lon="9.959264209636162"><ele>643.0</ele><time>2026-04-04T07:32:22.999Z</time></trkpt><trkpt lat="45.72585063588772" lon="9.95936408605117"><ele>646.7142857142857</ele><time>2026-04-04T07:32:25.998Z</time></trkpt><trkpt lat="45.725893656340155" lon="9.959449761669037"><ele>650.4285714285714</ele><time>2026-04-04T07:32:28.998Z</time></trkpt><trkpt lat="45.72594067125182" lon="9.959540402175989"><ele>654.1428571428571</ele><time>2026-04-04T07:32:32Z</time></trkpt><trkpt lat="45.72598416217352" lon="9.959616109238707"><ele>657.8571428571429</ele><time>2026-04-04T07:32:34Z</time></trkpt><trkpt lat="45.72602430790004" lon="9.959700314833698"><ele>661.5714285714286</ele><time>2026-04-04T07:32:37Z</time></trkpt><trkpt lat="45.726072212992605" lon="9.959775063519542"><ele>665.2857142857143</ele><time>2026-04-04T07:32:40Z</time></trkpt><trkpt lat="45.72611510864523" lon="9.959841851969616"><ele>669.0</ele><time>2026-04-04T07:32:42Z</time></trkpt><trkpt lat="45.72616481819745" lon="9.959914329917149"><ele>669.0</ele><time>2026-04-04T07:32:45Z</time></trkpt><trkpt lat="45.72620909452302" lon="9.95998994607202"><ele>669.0</ele><time>2026-04-04T07:32:47Z</time></trkpt><trkpt lat="45.72626828678189" lon="9.960079569294038"><ele>669.0</ele><time>2026-04-04T07:32:50Z</time></trkpt><trkpt lat="45.726320821492344" lon="9.960162888736637"><ele>669.0</ele><time>2026-04-04T07:32:53Z</time></trkpt><trkpt lat="45.72637955854992" lon="9.960246826062612"><ele>669.0</ele><time>2026-04-04T07:32:56Z</time></trkpt><trkpt lat="45.72644010036319" lon="9.960327045908633"><ele>669.0</ele><time>2026-04-04T07:32:59Z</time></trkpt><trkpt lat="45.72649884663461" lon="9.960404990759779"><ele>663.5</ele><time>2026-04-04T07:33:02Z</time></trkpt><trkpt lat="45.72656121988276" lon="9.960481797695007"><ele>658.0</ele><time>2026-04-04T07:33:05Z</time></trkpt><trkpt lat="45.726622915594604" lon="9.960558938743041"><ele>652.5</ele><time>2026-04-04T07:33:08Z</time></trkpt><trkpt lat="45.72668488365347" lon="9.960627023607579"><ele>647.0</ele><time>2026-04-04T07:33:11Z</time></trkpt><trkpt lat="45.726747136866095" lon="9.960696229889614"><ele>641.5</ele><time>2026-04-04T07:33:14Z</time></trkpt><trkpt lat="45.726807307840716" lon="9.960769362519533"><ele>636.0</ele><time>2026-04-04T07:33:17Z</time></trkpt><trkpt lat="45.726867849049775" lon="9.960835002636749"><ele>638.5</ele><time>2026-04-04T07:33:20Z</time></trkpt><trkpt lat="45.72692682946167" lon="9.960923094290326"><ele>641.0</ele><time>2026-04-04T07:33:23Z</time></trkpt><trkpt lat="45.7269944464272" lon="9.96097793873062"><ele>643.5</ele><time>2026-04-04T07:33:26Z</time></trkpt><trkpt lat="45.72705747115814" lon="9.961044272816565"><ele>646.0</ele><time>2026-04-04T07:33:29Z</time></trkpt><trkpt lat="45.72712051174692" lon="9.961115174875294"><ele>648.5</ele><time>2026-04-04T07:33:32Z</time></trkpt><trkpt lat="45.72718695501322" lon="9.961186545766536"><ele>651.0</ele><time>2026-04-04T07:33:34.999Z</time></trkpt><trkpt lat="45.72724282827798" lon="9.961265049186267"><ele>651.0</ele><time>2026-04-04T07:33:37.999Z</time></trkpt><trkpt lat="45.72729442182819" lon="9.961340254756045"><ele>651.0</ele><time>2026-04-04T07:33:40.999Z</time></trkpt><trkpt lat="45.7273523745298" lon="9.961419467665754"><ele>651.0</ele><time>2026-04-04T07:33:43.999Z</time></trkpt><trkpt lat="45.72740474290409" lon="9.96150388305289"><ele>651.0</ele><time>2026-04-04T07:33:46.999Z</time></trkpt><trkpt lat="45.72745422452715" lon="9.961590179660613"><ele>651.0</ele><time>2026-04-04T07:33:49.999Z</time></trkpt><trkpt lat="45.72749564371816" lon="9.961669843603982"><ele>651.0</ele><time>2026-04-04T07:33:52.999Z</time></trkpt><trkpt lat="45.72755492455314" lon="9.961760053779807"><ele>652.8333333333334</ele><time>2026-04-04T07:33:55.999Z</time></trkpt><trkpt lat="45.727604396400395" lon="9.961843894818001"><ele>654.6666666666666</ele><time>2026-04-04T07:33:58.999Z</time></trkpt><trkpt lat="45.727645566109175" lon="9.961914773998515"><ele>656.5</ele><time>2026-04-04T07:34:01.999Z</time></trkpt><trkpt lat="45.72769886607346" lon="9.962004788143837"><ele>658.3333333333333</ele><time>2026-04-04T07:34:04.999Z</time></trkpt><trkpt lat="45.72775583620586" lon="9.96208881041987"><ele>660.1666666666666</ele><time>2026-04-04T07:34:07.999Z</time></trkpt><trkpt lat="45.72780985151785" lon="9.962167107064683"><ele>662.0</ele><time>2026-04-04T07:34:10.999Z</time></trkpt><trkpt lat="45.727870843918936" lon="9.962236715479365"><ele>662.0</ele><time>2026-04-04T07:34:13.999Z</time></trkpt><trkpt lat="45.727940161988954" lon="9.9623028423854"><ele>662.0</ele><time>2026-04-04T07:34:16.999Z</time></trkpt><trkpt lat="45.72800772376989" lon="9.962363620439621"><ele>662.0</ele><time>2026-04-04T07:34:19.999Z</time></trkpt><trkpt lat="45.72807452684576" lon="9.962411770549473"><ele>662.0</ele><time>2026-04-04T07:34:22.999Z</time></trkpt><trkpt lat="45.72814545597982" lon="9.96245511824239"><ele>662.0</ele><time>2026-04-04T07:34:25.999Z</time></trkpt><trkpt lat="45.72821346786789" lon="9.962495750719851"><ele>662.0</ele><time>2026-04-04T07:34:28.999Z</time></trkpt><trkpt lat="45.728284071181726" lon="9.962540138788608"><ele>661.1666666666666</ele><time>2026-04-04T07:34:31.998Z</time></trkpt><trkpt lat="45.72835648632678" lon="9.962582224676588"><ele>660.3333333333333</ele><time>2026-04-04T07:34:34.998Z</time></trkpt><trkpt lat="45.7284277291857" lon="9.96262067867398"><ele>659.5</ele><time>2026-04-04T07:34:38Z</time></trkpt><trkpt lat="45.72849911548853" lon="9.962666968312176"><ele>658.6666666666666</ele><time>2026-04-04T07:34:41Z</time></trkpt><trkpt lat="45.72857145651101" lon="9.962713010405587"><ele>657.8333333333334</ele><time>2026-04-04T07:34:44Z</time></trkpt><trkpt lat="45.72864269953798" lon="9.962757076970577"><ele>657.0</ele><time>2026-04-04T07:34:47Z</time></trkpt><trkpt lat="45.72871811963865" lon="9.9627912871951"><ele>658.8333333333334</ele><time>2026-04-04T07:34:50Z</time></trkpt><trkpt lat="45.728795277506244" lon="9.962834357493307"><ele>660.6666666666666</ele><time>2026-04-04T07:34:53Z</time></trkpt><trkpt lat="45.72886965510759" lon="9.962877343816892"><ele>662.5</ele><time>2026-04-04T07:34:56Z</time></trkpt><trkpt lat="45.72894558104816" lon="9.962916211472534"><ele>664.3333333333333</ele><time>2026-04-04T07:34:59Z</time></trkpt><trkpt lat="45.7290059540949" lon="9.962950754574283"><ele>666.1666666666666</ele><time>2026-04-04T07:35:02Z</time></trkpt><trkpt lat="45.72907198526788" lon="9.962993772141253"><ele>668.0</ele><time>2026-04-04T07:35:05Z</time></trkpt><trkpt lat="45.72913941426886" lon="9.963033575082678"><ele>668.0</ele><time>2026-04-04T07:35:08Z</time></trkpt><trkpt lat="45.729207640981684" lon="9.963077068631875"><ele>668.0</ele><time>2026-04-04T07:35:11Z</time></trkpt><trkpt lat="45.72927221488444" lon="9.963129543601113"><ele>668.0</ele><time>2026-04-04T07:35:14Z</time></trkpt><trkpt lat="45.72933757571376" lon="9.963177089573376"><ele>668.0</ele><time>2026-04-04T07:35:17Z</time></trkpt><trkpt lat="45.72940409770675" lon="9.963228615907738"><ele>668.0</ele><time>2026-04-04T07:35:20Z</time></trkpt><trkpt lat="45.729472136609886" lon="9.963282016485863"><ele>668.0</ele><time>2026-04-04T07:35:23Z</time></trkpt><trkpt lat="45.72954227760424" lon="9.963334189610006"><ele>672.8333333333333</ele><time>2026-04-04T07:35:25Z</time></trkpt><trkpt lat="45.72961375305058" lon="9.963385856120352"><ele>677.6666666666666</ele><time>2026-04-04T07:35:28Z</time></trkpt><trkpt lat="45.72968652450845" lon="9.963438150867667"><ele>682.5</ele><time>2026-04-04T07:35:31Z</time></trkpt><trkpt lat="45.729762673071825" lon="9.963471590434972"><ele>687.3333333333334</ele><time>2026-04-04T07:35:34Z</time></trkpt><trkpt lat="45.72984113600275" lon="9.963475802699792"><ele>692.1666666666667</ele><time>2026-04-04T07:35:37Z</time></trkpt><trkpt lat="45.729919182153445" lon="9.963450444111508"><ele>697.0</ele><time>2026-04-04T07:35:39.999Z</time></trkpt><trkpt lat="45.72999670506984" lon="9.963420182172012"><ele>697.0</ele><time>2026-04-04T07:35:42.999Z</time></trkpt><trkpt lat="45.73007212185294" lon="9.963429538747391"><ele>697.0</ele><time>2026-04-04T07:35:45.999Z</time></trkpt><trkpt lat="45.730125243737554" lon="9.963486996517712"><ele>697.0</ele><time>2026-04-04T07:35:48.999Z</time></trkpt><trkpt lat="45.73016204134291" lon="9.9635710437711"><ele>697.0</ele><time>2026-04-04T07:35:51.999Z</time></trkpt><trkpt lat="45.73017288158975" lon="9.963685865271108"><ele>697.0</ele><time>2026-04-04T07:35:54.999Z</time></trkpt><trkpt lat="45.73011406058626" lon="9.96374717732781"><ele>697.0</ele><time>2026-04-04T07:35:58.999Z</time></trkpt><trkpt lat="45.7300573870715" lon="9.96378749473938"><ele>697.0</ele><time>2026-04-04T07:36:00.999Z</time></trkpt><trkpt lat="45.72999408643662" lon="9.963839665367857"><ele>697.0</ele><time>2026-04-04T07:36:03.999Z</time></trkpt><trkpt lat="45.72993095106155" lon="9.963899884204762"><ele>697.0</ele><time>2026-04-04T07:36:06.999Z</time></trkpt><trkpt lat="45.729873811155336" lon="9.963963737593755"><ele>697.0</ele><time>2026-04-04T07:36:09.999Z</time></trkpt><trkpt lat="45.729813328252554" lon="9.964028181245371"><ele>697.0</ele><time>2026-04-04T07:36:12.999Z</time></trkpt><trkpt lat="45.72974341967899" lon="9.964094817535974"><ele>697.0</ele><time>2026-04-04T07:36:15.999Z</time></trkpt><trkpt lat="45.72966854622523" lon="9.964118454257848"><ele>697.0</ele><time>2026-04-04T07:36:18.999Z</time></trkpt><trkpt lat="45.729599721636596" lon="9.96410697883937"><ele>697.0</ele><time>2026-04-04T07:36:21.999Z</time></trkpt><trkpt lat="45.72952986892855" lon="9.964106215249027"><ele>697.0</ele><time>2026-04-04T07:36:24.999Z</time></trkpt><trkpt lat="45.72946396273959" lon="9.96410131422678"><ele>697.0</ele><time>2026-04-04T07:36:27.999Z</time></trkpt><trkpt lat="45.72939631808388" lon="9.964103363344286"><ele>697.0</ele><time>2026-04-04T07:36:30.999Z</time></trkpt><trkpt lat="45.72931468492774" lon="9.964106377279128"><ele>697.0</ele><time>2026-04-04T07:36:33.999Z</time></trkpt><trkpt lat="45.72923862162925" lon="9.9641091175637"><ele>697.0</ele><time>2026-04-04T07:36:36.998Z</time></trkpt><trkpt lat="45.72916859490611" lon="9.964097281756864"><ele>697.0</ele><time>2026-04-04T07:36:39.998Z</time></trkpt><trkpt lat="45.729089175670666" lon="9.964100660883695"><ele>695.5714285714286</ele><time>2026-04-04T07:36:43Z</time></trkpt><trkpt lat="45.729009613625784" lon="9.9641012272907"><ele>694.1428571428571</ele><time>2026-04-04T07:36:46Z</time></trkpt><trkpt lat="45.72894234327422" lon="9.964099658004917"><ele>692.7142857142858</ele><time>2026-04-04T07:36:49Z</time></trkpt><trkpt lat="45.728861688806475" lon="9.964115219963588"><ele>691.2857142857142</ele><time>2026-04-04T07:36:53Z</time></trkpt><trkpt lat="45.72879807949614" lon="9.9641213776939"><ele>689.8571428571428</ele><time>2026-04-04T07:36:56Z</time></trkpt><trkpt lat="45.728717022212955" lon="9.964133970506488"><ele>688.4285714285714</ele><time>2026-04-04T07:36:59Z</time></trkpt><trkpt lat="45.72865418144432" lon="9.964149313966523"><ele>687.0</ele><time>2026-04-04T07:37:02Z</time></trkpt><trkpt lat="45.72856983922674" lon="9.964169261723937"><ele>688.6666666666666</ele><time>2026-04-04T07:37:06Z</time></trkpt><trkpt lat="45.72848840587787" lon="9.96416938150009"><ele>690.3333333333334</ele><time>2026-04-04T07:37:09Z</time></trkpt><trkpt lat="45.728411317607076" lon="9.964156958529086"><ele>692.0</ele><time>2026-04-04T07:37:12Z</time></trkpt><trkpt lat="45.72833814801369" lon="9.96416136431262"><ele>693.6666666666667</ele><time>2026-04-04T07:37:15Z</time></trkpt><trkpt lat="45.728259854212475" lon="9.964173267774353"><ele>695.3333333333334</ele><time>2026-04-04T07:37:18Z</time></trkpt><trkpt lat="45.72819286995621" lon="9.964188368942901"><ele>697.0</ele><time>2026-04-04T07:37:21Z</time></trkpt><trkpt lat="45.728122415046116" lon="9.964201595597578"><ele>703.1666666666667</ele><time>2026-04-04T07:37:24Z</time></trkpt><trkpt lat="45.728043507600695" lon="9.964215477567409"><ele>709.3333333333334</ele><time>2026-04-04T07:37:27Z</time></trkpt><trkpt lat="45.72796318778321" lon="9.964223530787772"><ele>715.5</ele><time>2026-04-04T07:37:30Z</time></trkpt><trkpt lat="45.72788378499233" lon="9.964229097618825"><ele>721.6666666666666</ele><time>2026-04-04T07:37:33Z</time></trkpt><trkpt lat="45.72780020389612" lon="9.964225493385117"><ele>727.8333333333333</ele><time>2026-04-04T07:37:36Z</time></trkpt><trkpt lat="45.727717601358314" lon="9.96421946134472"><ele>734.0</ele><time>2026-04-04T07:37:38.999Z</time></trkpt><trkpt lat="45.72764659200023" lon="9.964213052815886"><ele>736.5</ele><time>2026-04-04T07:37:41.999Z</time></trkpt><trkpt lat="45.72757759439519" lon="9.964207948478085"><ele>739.0</ele><time>2026-04-04T07:37:44.999Z</time></trkpt><trkpt lat="45.72750442997167" lon="9.964191547938954"><ele>741.5</ele><time>2026-04-04T07:37:47.999Z</time></trkpt><trkpt lat="45.727429058184136" lon="9.964166946813345"><ele>744.0</ele><time>2026-04-04T07:37:50.999Z</time></trkpt><trkpt lat="45.72735399151599" lon="9.964130391505392"><ele>746.5</ele><time>2026-04-04T07:37:53.999Z</time></trkpt><trkpt lat="45.72727623132398" lon="9.964085571509528"><ele>749.0</ele><time>2026-04-04T07:37:56.999Z</time></trkpt><trkpt lat="45.72720379676467" lon="9.964035533393762"><ele>744.3333333333333</ele><time>2026-04-04T07:37:59.999Z</time></trkpt><trkpt lat="45.727137008486466" lon="9.963970149197964"><ele>739.6666666666666</ele><time>2026-04-04T07:38:02.999Z</time></trkpt><trkpt lat="45.727074415300855" lon="9.963904210722253"><ele>735.0</ele><time>2026-04-04T07:38:05.999Z</time></trkpt><trkpt lat="45.726991864953575" lon="9.963870027144342"><ele>730.3333333333334</ele><time>2026-04-04T07:38:08.999Z</time></trkpt><trkpt lat="45.7269245871953" lon="9.96389126074974"><ele>725.6666666666667</ele><time>2026-04-04T07:38:10.999Z</time></trkpt><trkpt lat="45.72687479034369" lon="9.96398936430392"><ele>721.0</ele><time>2026-04-04T07:38:13.999Z</time></trkpt><trkpt lat="45.72688601928317" lon="9.964103670675597"><ele>718.8571428571429</ele><time>2026-04-04T07:38:16.999Z</time></trkpt><trkpt lat="45.72695295792025" lon="9.964150365899625"><ele>716.7142857142858</ele><time>2026-04-04T07:38:19.999Z</time></trkpt><trkpt lat="45.727016880400406" lon="9.964161960367582"><ele>714.5714285714286</ele><time>2026-04-04T07:38:22.999Z</time></trkpt><trkpt lat="45.72710571411834" lon="9.964190406016044"><ele>712.4285714285714</ele><time>2026-04-04T07:38:25.999Z</time></trkpt><trkpt lat="45.727163687965785" lon="9.964228954751297"><ele>710.2857142857143</ele><time>2026-04-04T07:38:27.999Z</time></trkpt><trkpt lat="45.727239638435584" lon="9.964276389931435"><ele>708.1428571428571</ele><time>2026-04-04T07:38:30.999Z</time></trkpt><trkpt lat="45.7272985036444" lon="9.964335929756137"><ele>706.0</ele><time>2026-04-04T07:38:33.999Z</time></trkpt><trkpt lat="45.727359822890115" lon="9.964379526897542"><ele>710.0</ele><time>2026-04-04T07:38:36.998Z</time></trkpt><trkpt lat="45.727419899324225" lon="9.964419531624664"><ele>714.0</ele><time>2026-04-04T07:38:39.998Z</time></trkpt><trkpt lat="45.727479721857335" lon="9.96445951993356"><ele>718.0</ele><time>2026-04-04T07:38:42.998Z</time></trkpt><trkpt lat="45.72754217967724" lon="9.9645053633085"><ele>722.0</ele><time>2026-04-04T07:38:45.998Z</time></trkpt><trkpt lat="45.72760793336997" lon="9.964534801313729"><ele>726.0</ele><time>2026-04-04T07:38:49Z</time></trkpt><trkpt lat="45.72767129866797" lon="9.964550003035226"><ele>730.0</ele><time>2026-04-04T07:38:52Z</time></trkpt><trkpt lat="45.72774384086653" lon="9.964586804263151"><ele>734.0</ele><time>2026-04-04T07:38:55Z</time></trkpt><trkpt lat="45.72780563924773" lon="9.964617247724304"><ele>734.0</ele><time>2026-04-04T07:38:58Z</time></trkpt><trkpt lat="45.727874721834894" lon="9.964639654135011"><ele>734.0</ele><time>2026-04-04T07:39:01Z</time></trkpt><trkpt lat="45.72794044087438" lon="9.964644494165757"><ele>734.0</ele><time>2026-04-04T07:39:04Z</time></trkpt><trkpt lat="45.72800862880085" lon="9.96467897024443"><ele>734.0</ele><time>2026-04-04T07:39:07Z</time></trkpt><trkpt lat="45.72807466958992" lon="9.964697702036517"><ele>734.0</ele><time>2026-04-04T07:39:10Z</time></trkpt><trkpt lat="45.72813909570108" lon="9.96471037070531"><ele>734.0</ele><time>2026-04-04T07:39:13Z</time></trkpt><trkpt lat="45.728201356496555" lon="9.96474168167886"><ele>734.0</ele><time>2026-04-04T07:39:16Z</time></trkpt><trkpt lat="45.72827584888557" lon="9.964772200583289"><ele>734.0</ele><time>2026-04-04T07:39:20Z</time></trkpt><trkpt lat="45.72835444803726" lon="9.964811706005236"><ele>734.0</ele><time>2026-04-04T07:39:23Z</time></trkpt><trkpt lat="45.72843591468152" lon="9.964837511366781"><ele>734.0</ele><time>2026-04-04T07:39:27Z</time></trkpt><trkpt lat="45.72850471851863" lon="9.964850287200793"><ele>734.0</ele><time>2026-04-04T07:39:30Z</time></trkpt><trkpt lat="45.7285887414288" lon="9.964873933951374"><ele>734.0</ele><time>2026-04-04T07:39:33Z</time></trkpt><trkpt lat="45.728672733860584" lon="9.964894424403287"><ele>734.0</ele><time>2026-04-04T07:39:37Z</time></trkpt><trkpt lat="45.72875948408277" lon="9.964918967353315"><ele>732.5714285714286</ele><time>2026-04-04T07:39:41Z</time></trkpt><trkpt lat="45.728823796443784" lon="9.964957442391231"><ele>731.1428571428572</ele><time>2026-04-04T07:39:43.999Z</time></trkpt><trkpt lat="45.72888313400529" lon="9.964995751825192"><ele>729.7142857142858</ele><time>2026-04-04T07:39:46.999Z</time></trkpt><trkpt lat="45.72895015449804" lon="9.965034883588553"><ele>728.2857142857142</ele><time>2026-04-04T07:39:49.999Z</time></trkpt><trkpt lat="45.729019146723765" lon="9.96509121277693"><ele>726.8571428571429</ele><time>2026-04-04T07:39:52.999Z</time></trkpt><trkpt lat="45.729076937770934" lon="9.965127347294192"><ele>725.4285714285714</ele><time>2026-04-04T07:39:55.999Z</time></trkpt><trkpt lat="45.72913579346277" lon="9.965197838578028"><ele>724.0</ele><time>2026-04-04T07:39:58.999Z</time></trkpt><trkpt lat="45.729204104306326" lon="9.965273866168761"><ele>727.0</ele><time>2026-04-04T07:40:01.999Z</time></trkpt><trkpt lat="45.729260478080505" lon="9.96534577361286"><ele>730.0</ele><time>2026-04-04T07:40:04.999Z</time></trkpt><trkpt lat="45.72932045393022" lon="9.965410726383233"><ele>733.0</ele><time>2026-04-04T07:40:07.999Z</time></trkpt><trkpt lat="45.72937435910447" lon="9.965465176397304"><ele>736.0</ele><time>2026-04-04T07:40:09.999Z</time></trkpt><trkpt lat="45.72943233893797" lon="9.965543779143767"><ele>739.0</ele><time>2026-04-04T07:40:13.999Z</time></trkpt><trkpt lat="45.729496559528386" lon="9.965616855979242"><ele>742.0</ele><time>2026-04-04T07:40:16.999Z</time></trkpt><trkpt lat="45.72954745963421" lon="9.965694202361773"><ele>742.0</ele><time>2026-04-04T07:40:19.999Z</time></trkpt><trkpt lat="45.7295868406653" lon="9.965775089261298"><ele>742.0</ele><time>2026-04-04T07:40:22.999Z</time></trkpt><trkpt lat="45.72963520632813" lon="9.965848822028727"><ele>742.0</ele><time>2026-04-04T07:40:25.999Z</time></trkpt><trkpt lat="45.729688171964185" lon="9.96591961765836"><ele>742.0</ele><time>2026-04-04T07:40:28.999Z</time></trkpt><trkpt lat="45.72974678184788" lon="9.965987503383358"><ele>742.0</ele><time>2026-04-04T07:40:31.999Z</time></trkpt><trkpt lat="45.72980701704659" lon="9.966077906259224"><ele>742.0</ele><time>2026-04-04T07:40:34.999Z</time></trkpt><trkpt lat="45.72985637694748" lon="9.966172543653075"><ele>746.6666666666667</ele><time>2026-04-04T07:40:38.998Z</time></trkpt><trkpt lat="45.72990302785029" lon="9.966249026952159"><ele>751.3333333333334</ele><time>2026-04-04T07:40:41.998Z</time></trkpt><trkpt lat="45.72996942827798" lon="9.966348733799341"><ele>756.0</ele><time>2026-04-04T07:40:45.998Z</time></trkpt><trkpt lat="45.730032999685626" lon="9.966410980207236"><ele>760.6666666666667</ele><time>2026-04-04T07:40:49.998Z</time></trkpt><trkpt lat="45.730106800268" lon="9.966448238359838"><ele>765.3333333333334</ele><time>2026-04-04T07:40:52.998Z</time></trkpt><trkpt lat="45.730175914067146" lon="9.966455717804804"><ele>770.0</ele><time>2026-04-04T07:40:56Z</time></trkpt><trkpt lat="45.730248033185944" lon="9.96644442581503"><ele>772.4285714285714</ele><time>2026-04-04T07:40:59Z</time></trkpt><trkpt lat="45.730307429618996" lon="9.966391181359768"><ele>774.8571428571429</ele><time>2026-04-04T07:41:02Z</time></trkpt><trkpt lat="45.73036665018913" lon="9.966331867278722"><ele>777.2857142857142</ele><time>2026-04-04T07:41:05Z</time></trkpt><trkpt lat="45.73042402323409" lon="9.966260224336036"><ele>779.7142857142858</ele><time>2026-04-04T07:41:08Z</time></trkpt><trkpt lat="45.730482669356604" lon="9.966172798841537"><ele>782.1428571428571</ele><time>2026-04-04T07:41:11Z</time></trkpt><trkpt lat="45.730520823791686" lon="9.966099134374245"><ele>784.5714285714286</ele><time>2026-04-04T07:41:14Z</time></trkpt><trkpt lat="45.73055393476324" lon="9.966001990837015"><ele>787.0</ele><time>2026-04-04T07:41:18Z</time></trkpt><trkpt lat="45.730598239147184" lon="9.965924425775059"><ele>784.2857142857142</ele><time>2026-04-04T07:41:21Z</time></trkpt><trkpt lat="45.73063839011439" lon="9.96583152446469"><ele>781.5714285714286</ele><time>2026-04-04T07:41:24Z</time></trkpt><trkpt lat="45.73067209120318" lon="9.965730268862742"><ele>778.8571428571429</ele><time>2026-04-04T07:41:27Z</time></trkpt><trkpt lat="45.73072254437596" lon="9.96563251962186"><ele>776.1428571428571</ele><time>2026-04-04T07:41:30Z</time></trkpt><trkpt lat="45.7307622402076" lon="9.96554243498846"><ele>773.4285714285714</ele><time>2026-04-04T07:41:34Z</time></trkpt><trkpt lat="45.73080205421579" lon="9.965466853142727"><ele>770.7142857142857</ele><time>2026-04-04T07:41:37Z</time></trkpt><trkpt lat="45.7308499217559" lon="9.965396244423165"><ele>768.0</ele><time>2026-04-04T07:41:40Z</time></trkpt><trkpt lat="45.730897861010355" lon="9.965306388539384"><ele>767.9999999999999</ele><time>2026-04-04T07:41:43Z</time></trkpt><trkpt lat="45.73094545188709" lon="9.965242094386321"><ele>768.0</ele><time>2026-04-04T07:41:45.999Z</time></trkpt><trkpt lat="45.73099160331168" lon="9.965178506223092"><ele>768.0</ele><time>2026-04-04T07:41:48.999Z</time></trkpt><trkpt lat="45.73105481448255" lon="9.965103619870979"><ele>768.0</ele><time>2026-04-04T07:41:52.999Z</time></trkpt><trkpt lat="45.731113457114745" lon="9.965041840523792"><ele>768.0</ele><time>2026-04-04T07:41:55.999Z</time></trkpt><trkpt lat="45.73117011402232" lon="9.964958930087096"><ele>767.9999999999999</ele><time>2026-04-04T07:41:58.999Z</time></trkpt><trkpt lat="45.73121865751234" lon="9.964899706742688"><ele>768.0</ele><time>2026-04-04T07:42:01.999Z</time></trkpt><trkpt lat="45.73129529970252" lon="9.964845685480846"><ele>770.7142857142857</ele><time>2026-04-04T07:42:05.999Z</time></trkpt><trkpt lat="45.731349149810036" lon="9.964779964405967"><ele>773.4285714285714</ele><time>2026-04-04T07:42:08.999Z</time></trkpt><trkpt lat="45.73140335362951" lon="9.964710375385286"><ele>776.1428571428571</ele><time>2026-04-04T07:42:11.999Z</time></trkpt><trkpt lat="45.731475607843436" lon="9.964650280146692"><ele>778.8571428571429</ele><time>2026-04-04T07:42:15.999Z</time></trkpt><trkpt lat="45.7315378661577" lon="9.964598372927057"><ele>781.5714285714286</ele><time>2026-04-04T07:42:18.999Z</time></trkpt><trkpt lat="45.73159283919708" lon="9.964543573491664"><ele>784.2857142857142</ele><time>2026-04-04T07:42:21.999Z</time></trkpt><trkpt lat="45.73166325332919" lon="9.964505364920624"><ele>787.0</ele><time>2026-04-04T07:42:25.999Z</time></trkpt><trkpt lat="45.7317169098651" lon="9.964457493411853"><ele>787.0</ele><time>2026-04-04T07:42:28.999Z</time></trkpt><trkpt lat="45.73178758551786" lon="9.964435969257055"><ele>787.0</ele><time>2026-04-04T07:42:31.999Z</time></trkpt><trkpt lat="45.73186482814065" lon="9.96441948597714"><ele>787.0</ele><time>2026-04-04T07:42:35.999Z</time></trkpt><trkpt lat="45.731942662831706" lon="9.96439627707043"><ele>787.0</ele><time>2026-04-04T07:42:38.999Z</time></trkpt><trkpt lat="45.73200786225572" lon="9.964381203629442"><ele>787.0</ele><time>2026-04-04T07:42:41.998Z</time></trkpt><trkpt lat="45.732075202327415" lon="9.964366573873285"><ele>787.0</ele><time>2026-04-04T07:42:44.998Z</time></trkpt><trkpt lat="45.73213772033335" lon="9.96433999660671"><ele>787.0</ele><time>2026-04-04T07:42:47.998Z</time></trkpt><trkpt lat="45.73219947052148" lon="9.964314041190258"><ele>790.5714285714286</ele><time>2026-04-04T07:42:50.998Z</time></trkpt><trkpt lat="45.73227020022523" lon="9.964288066124062"><ele>794.1428571428571</ele><time>2026-04-04T07:42:53.998Z</time></trkpt><trkpt lat="45.73233768934574" lon="9.964283580765752"><ele>797.7142857142858</ele><time>2026-04-04T07:42:56.998Z</time></trkpt><trkpt lat="45.73240378032855" lon="9.964276541571214"><ele>801.2857142857142</ele><time>2026-04-04T07:42:59.998Z</time></trkpt><trkpt lat="45.7324728050843" lon="9.964273444140613"><ele>804.8571428571429</ele><time>2026-04-04T07:43:03Z</time></trkpt><trkpt lat="45.7325671452187" lon="9.964262041435891"><ele>808.4285714285714</ele><time>2026-04-04T07:43:07Z</time></trkpt><trkpt lat="45.73263034257234" lon="9.964252335224554"><ele>812.0</ele><time>2026-04-04T07:43:10Z</time></trkpt><trkpt lat="45.73271087787577" lon="9.964229293688076"><ele>809.4285714285714</ele><time>2026-04-04T07:43:14Z</time></trkpt><trkpt lat="45.7327824564756" lon="9.96420967018839"><ele>806.8571428571429</ele><time>2026-04-04T07:43:17Z</time></trkpt><trkpt lat="45.73285116864952" lon="9.964198181640255"><ele>804.2857142857142</ele><time>2026-04-04T07:43:20Z</time></trkpt><trkpt lat="45.73291684116546" lon="9.964169346533284"><ele>801.7142857142858</ele><time>2026-04-04T07:43:23Z</time></trkpt><trkpt lat="45.7329985425813" lon="9.964148128555369"><ele>799.1428571428571</ele><time>2026-04-04T07:43:27Z</time></trkpt><trkpt lat="45.73307180114613" lon="9.964136454615332"><ele>796.5714285714286</ele><time>2026-04-04T07:43:30Z</time></trkpt><trkpt lat="45.73313513654612" lon="9.964126192966354"><ele>794.0</ele><time>2026-04-04T07:43:33Z</time></trkpt><trkpt lat="45.73319653827789" lon="9.964157760122173"><ele>799.7142857142857</ele><time>2026-04-04T07:43:37Z</time></trkpt><trkpt lat="45.73317125983701" lon="9.964241329706905"><ele>805.4285714285713</ele><time>2026-04-04T07:43:40Z</time></trkpt><trkpt lat="45.7330981131075" lon="9.964242090118796"><ele>811.1428571428571</ele><time>2026-04-04T07:43:44Z</time></trkpt><trkpt lat="45.73303556437692" lon="9.964252974469222"><ele>816.8571428571429</ele><time>2026-04-04T07:43:47Z</time></trkpt><trkpt lat="45.73297084020172" lon="9.96427651072142"><ele>822.5714285714286</ele><time>2026-04-04T07:43:49.999Z</time></trkpt><trkpt lat="45.73290586153675" lon="9.964310753794825"><ele>828.2857142857143</ele><time>2026-04-04T07:43:52.999Z</time></trkpt><trkpt lat="45.73283289194456" lon="9.964356815283015"><ele>834.0</ele><time>2026-04-04T07:43:55.999Z</time></trkpt><trkpt lat="45.73276917510787" lon="9.964404348225784"><ele>830.3333333333334</ele><time>2026-04-04T07:43:58.999Z</time></trkpt><trkpt lat="45.73270963779398" lon="9.964460686205731"><ele>826.6666666666667</ele><time>2026-04-04T07:44:01.999Z</time></trkpt><trkpt lat="45.7326446182914" lon="9.964514338362017"><ele>823.0</ele><time>2026-04-04T07:44:04.999Z</time></trkpt><trkpt lat="45.73257979107932" lon="9.964573206053982"><ele>819.3333333333334</ele><time>2026-04-04T07:44:07.999Z</time></trkpt><trkpt lat="45.73250351129328" lon="9.964613903654314"><ele>815.6666666666667</ele><time>2026-04-04T07:44:09.999Z</time></trkpt><trkpt lat="45.73242391490228" lon="9.964653381547214"><ele>812.0</ele><time>2026-04-04T07:44:12.999Z</time></trkpt><trkpt lat="45.73234419021829" lon="9.96469721565647"><ele>812.0000000000001</ele><time>2026-04-04T07:44:15.999Z</time></trkpt><trkpt lat="45.73226652358421" lon="9.964732613204644"><ele>812.0</ele><time>2026-04-04T07:44:18.999Z</time></trkpt><trkpt lat="45.73220892856056" lon="9.96477039468893"><ele>812.0</ele><time>2026-04-04T07:44:21.999Z</time></trkpt><trkpt lat="45.7321357021279" lon="9.964823382401983"><ele>812.0</ele><time>2026-04-04T07:44:24.999Z</time></trkpt><trkpt lat="45.73207148055067" lon="9.964871043325765"><ele>812.0000000000001</ele><time>2026-04-04T07:44:27.999Z</time></trkpt><trkpt lat="45.73200209121739" lon="9.964923048559465"><ele>812.0</ele><time>2026-04-04T07:44:30.999Z</time></trkpt><trkpt lat="45.731933909346985" lon="9.96499950347659"><ele>811.8</ele><time>2026-04-04T07:44:33.999Z</time></trkpt><trkpt lat="45.73185622956085" lon="9.96510929777467"><ele>811.6</ele><time>2026-04-04T07:44:36.999Z</time></trkpt><trkpt lat="45.73180311801203" lon="9.965169576483879"><ele>811.4</ele><time>2026-04-04T07:44:38.999Z</time></trkpt><trkpt lat="45.7317387505607" lon="9.965262069334473"><ele>811.1999999999999</ele><time>2026-04-04T07:44:41.999Z</time></trkpt><trkpt lat="45.73167959275166" lon="9.96536539636366"><ele>811.0</ele><time>2026-04-04T07:44:44.998Z</time></trkpt><trkpt lat="45.73161733732006" lon="9.965469244449718"><ele>811.0</ele><time>2026-04-04T07:44:47.998Z</time></trkpt><trkpt lat="45.73156830694204" lon="9.965577362614134"><ele>811.0</ele><time>2026-04-04T07:44:50.998Z</time></trkpt><trkpt lat="45.73152457300868" lon="9.965689678793638"><ele>811.0</ele><time>2026-04-04T07:44:53.998Z</time></trkpt><trkpt lat="45.73148945758475" lon="9.965810767881248"><ele>811.0</ele><time>2026-04-04T07:44:56.998Z</time></trkpt><trkpt lat="45.731459672767265" lon="9.965934993815418"><ele>811.0</ele><time>2026-04-04T07:44:59.998Z</time></trkpt><trkpt lat="45.73143881752337" lon="9.966059193156218"><ele>813.1666666666666</ele><time>2026-04-04T07:45:02.998Z</time></trkpt><trkpt lat="45.73141919891937" lon="9.966182042166919"><ele>815.3333333333333</ele><time>2026-04-04T07:45:05.998Z</time></trkpt><trkpt lat="45.731385181747534" lon="9.966291339314298"><ele>817.5</ele><time>2026-04-04T07:45:09Z</time></trkpt><trkpt lat="45.73135887388556" lon="9.96641013716924"><ele>819.6666666666667</ele><time>2026-04-04T07:45:12Z</time></trkpt><trkpt lat="45.731331575188634" lon="9.966519017103726"><ele>821.8333333333334</ele><time>2026-04-04T07:45:15Z</time></trkpt><trkpt lat="45.73130041715208" lon="9.966619380221315"><ele>824.0</ele><time>2026-04-04T07:45:18Z</time></trkpt><trkpt lat="45.73126681086252" lon="9.966726958518073"><ele>826.1428571428571</ele><time>2026-04-04T07:45:21Z</time></trkpt><trkpt lat="45.73124313450927" lon="9.966831476734814"><ele>828.2857142857142</ele><time>2026-04-04T07:45:24Z</time></trkpt><trkpt lat="45.73121390004968" lon="9.966936054812711"><ele>830.4285714285713</ele><time>2026-04-04T07:45:27Z</time></trkpt><trkpt lat="45.73118676041472" lon="9.967036747783771"><ele>832.5714285714286</ele><time>2026-04-04T07:45:30Z</time></trkpt><trkpt lat="45.73116363542698" lon="9.967131131021574"><ele>834.7142857142858</ele><time>2026-04-04T07:45:33Z</time></trkpt><trkpt lat="45.73113929412025" lon="9.967230809165853"><ele>836.8571428571428</ele><time>2026-04-04T07:45:36Z</time></trkpt><trkpt lat="45.731117911207306" lon="9.967331361848771"><ele>839.0</ele><time>2026-04-04T07:45:39Z</time></trkpt><trkpt lat="45.73109572191824" lon="9.967430927981534"><ele>837.8333333333334</ele><time>2026-04-04T07:45:42Z</time></trkpt><trkpt lat="45.73106979402078" lon="9.967527829020217"><ele>836.6666666666667</ele><time>2026-04-04T07:45:45Z</time></trkpt><trkpt lat="45.73104494463612" lon="9.967642016980413"><ele>835.5</ele><time>2026-04-04T07:45:49Z</time></trkpt><trkpt lat="45.7310221467457" lon="9.967739660783957"><ele>834.3333333333333</ele><time>2026-04-04T07:45:52Z</time></trkpt><trkpt lat="45.73099584035489" lon="9.967837333811064"><ele>833.1666666666666</ele><time>2026-04-04T07:45:54.999Z</time></trkpt><trkpt lat="45.73097391601514" lon="9.967957009232755"><ele>832.0</ele><time>2026-04-04T07:45:57.999Z</time></trkpt><trkpt lat="45.73094439714383" lon="9.968053382135835"><ele>831.9999999999999</ele><time>2026-04-04T07:46:00.999Z</time></trkpt><trkpt lat="45.73090749416621" lon="9.968151420356353"><ele>832.0</ele><time>2026-04-04T07:46:03.999Z</time></trkpt><trkpt lat="45.730871002212695" lon="9.968248537406494"><ele>832.0</ele><time>2026-04-04T07:46:06.999Z</time></trkpt><trkpt lat="45.73082043563066" lon="9.968333618214354"><ele>832.0</ele><time>2026-04-04T07:46:10.999Z</time></trkpt><trkpt lat="45.73075737146213" lon="9.968392408320497"><ele>831.9999999999999</ele><time>2026-04-04T07:46:13.999Z</time></trkpt><trkpt lat="45.73068189749175" lon="9.96844352482346"><ele>832.0</ele><time>2026-04-04T07:46:16.999Z</time></trkpt><trkpt lat="45.730618060595035" lon="9.968466738410147"><ele>835.1428571428571</ele><time>2026-04-04T07:46:19.999Z</time></trkpt><trkpt lat="45.730550405849485" lon="9.968482558892633"><ele>838.2857142857143</ele><time>2026-04-04T07:46:22.999Z</time></trkpt><trkpt lat="45.730485013476226" lon="9.968484166405018"><ele>841.4285714285714</ele><time>2026-04-04T07:46:24.999Z</time></trkpt><trkpt lat="45.730408337383004" lon="9.968472391078544"><ele>844.5714285714286</ele><time>2026-04-04T07:46:27.999Z</time></trkpt><trkpt lat="45.73034379399129" lon="9.968454956826013"><ele>847.7142857142858</ele><time>2026-04-04T07:46:30.999Z</time></trkpt><trkpt lat="45.73026535288869" lon="9.96844150642396"><ele>850.8571428571429</ele><time>2026-04-04T07:46:33.999Z</time></trkpt><trkpt lat="45.73019193631326" lon="9.968419112869373"><ele>854.0</ele><time>2026-04-04T07:46:36.999Z</time></trkpt><trkpt lat="45.73012079707805" lon="9.9683878030248"><ele>850.1666666666667</ele><time>2026-04-04T07:46:39.999Z</time></trkpt><trkpt lat="45.73004705366504" lon="9.968353289550844"><ele>846.3333333333334</ele><time>2026-04-04T07:46:42.999Z</time></trkpt><trkpt lat="45.72997279434007" lon="9.968318819457954"><ele>842.5</ele><time>2026-04-04T07:46:45.999Z</time></trkpt><trkpt lat="45.729902263435115" lon="9.96828432392694"><ele>838.6666666666667</ele><time>2026-04-04T07:46:48.999Z</time></trkpt><trkpt lat="45.72981497469956" lon="9.968243346714262"><ele>834.8333333333334</ele><time>2026-04-04T07:46:51.998Z</time></trkpt><trkpt lat="45.72975437882782" lon="9.968215138834648"><ele>831.0</ele><time>2026-04-04T07:46:53.998Z</time></trkpt><trkpt lat="45.72967481491857" lon="9.968179840562973"><ele>831.0</ele><time>2026-04-04T07:46:56.998Z</time></trkpt><trkpt lat="45.72958786826766" lon="9.968142661406368"><ele>831.0</ele><time>2026-04-04T07:46:59.998Z</time></trkpt><trkpt lat="45.729507311378796" lon="9.968105231857336"><ele>831.0</ele><time>2026-04-04T07:47:02.998Z</time></trkpt><trkpt lat="45.729429795482574" lon="9.968069405098747"><ele>831.0</ele><time>2026-04-04T07:47:05.998Z</time></trkpt><trkpt lat="45.7293548885254" lon="9.96804060444255"><ele>831.0</ele><time>2026-04-04T07:47:08.998Z</time></trkpt><trkpt lat="45.72929065087053" lon="9.96801261050643"><ele>831.0</ele><time>2026-04-04T07:47:11.998Z</time></trkpt><trkpt lat="45.729207180039005" lon="9.967973497785955"><ele>832.6666666666666</ele><time>2026-04-04T07:47:15Z</time></trkpt><trkpt lat="45.72913854240911" lon="9.967930141919647"><ele>834.3333333333333</ele><time>2026-04-04T07:47:18Z</time></trkpt><trkpt lat="45.729065780235736" lon="9.967890518444788"><ele>836.0</ele><time>2026-04-04T07:47:21Z</time></trkpt><trkpt lat="45.72899184960749" lon="9.967859118113374"><ele>837.6666666666666</ele><time>2026-04-04T07:47:25Z</time></trkpt><trkpt lat="45.72892059097518" lon="9.967823968749627"><ele>839.3333333333333</ele><time>2026-04-04T07:47:28Z</time></trkpt><trkpt lat="45.728844378703386" lon="9.967789569563017"><ele>841.0</ele><time>2026-04-04T07:47:31Z</time></trkpt><trkpt lat="45.72876528156487" lon="9.967755424444137"><ele>840.9999999999999</ele><time>2026-04-04T07:47:34Z</time></trkpt><trkpt lat="45.72868733135619" lon="9.967721319709371"><ele>841.0</ele><time>2026-04-04T07:47:37Z</time></trkpt><trkpt lat="45.728590210909495" lon="9.967682869124364"><ele>841.0</ele><time>2026-04-04T07:47:40Z</time></trkpt><trkpt lat="45.72851236146791" lon="9.967695898820304"><ele>841.0</ele><time>2026-04-04T07:47:43Z</time></trkpt><trkpt lat="45.72845557161693" lon="9.967767601058792"><ele>840.9999999999999</ele><time>2026-04-04T07:47:45Z</time></trkpt><trkpt lat="45.72848324675162" lon="9.96785751010788"><ele>841.0</ele><time>2026-04-04T07:47:47Z</time></trkpt><trkpt lat="45.72854150857274" lon="9.967914460956457"><ele>840.9999999999999</ele><time>2026-04-04T07:47:49Z</time></trkpt><trkpt lat="45.728621751451676" lon="9.967963085470311"><ele>841.0</ele><time>2026-04-04T07:47:52Z</time></trkpt><trkpt lat="45.72870807939436" lon="9.967998656441052"><ele>841.0</ele><time>2026-04-04T07:47:55Z</time></trkpt><trkpt lat="45.728788330224134" lon="9.96803629625771"><ele>841.0</ele><time>2026-04-04T07:47:57.999Z</time></trkpt><trkpt lat="45.72885973900531" lon="9.968090829053972"><ele>840.9999999999999</ele><time>2026-04-04T07:48:00.999Z</time></trkpt><trkpt lat="45.728934780460385" lon="9.968157356946925"><ele>841.0</ele><time>2026-04-04T07:48:03.999Z</time></trkpt><trkpt lat="45.72902001622691" lon="9.968249937468025"><ele>840.9999999999999</ele><time>2026-04-04T07:48:07.999Z</time></trkpt><trkpt lat="45.729088540786165" lon="9.968318736093044"><ele>841.0</ele><time>2026-04-04T07:48:10.999Z</time></trkpt><trkpt lat="45.729163312210595" lon="9.96839077255947"><ele>841.0</ele><time>2026-04-04T07:48:13.999Z</time></trkpt><trkpt lat="45.72923383181896" lon="9.96846453512234"><ele>841.0</ele><time>2026-04-04T07:48:16.999Z</time></trkpt><trkpt lat="45.72929237199654" lon="9.968530130572175"><ele>840.9999999999999</ele><time>2026-04-04T07:48:19.999Z</time></trkpt><trkpt lat="45.72934555554848" lon="9.96859805856549"><ele>841.0</ele><time>2026-04-04T07:48:22.999Z</time></trkpt><trkpt lat="45.72940572451655" lon="9.968664266957914"><ele>843.8333333333333</ele><time>2026-04-04T07:48:25.999Z</time></trkpt><trkpt lat="45.72946878481848" lon="9.968730095638852"><ele>846.6666666666666</ele><time>2026-04-04T07:48:28.999Z</time></trkpt><trkpt lat="45.72953115370473" lon="9.968791675827676"><ele>849.5</ele><time>2026-04-04T07:48:30.999Z</time></trkpt><trkpt lat="45.72960474594124" lon="9.968862008665987"><ele>852.3333333333333</ele><time>2026-04-04T07:48:33.999Z</time></trkpt><trkpt lat="45.72968000967482" lon="9.968924193541504"><ele>855.1666666666666</ele><time>2026-04-04T07:48:36.999Z</time></trkpt><trkpt lat="45.72975624428723" lon="9.96899238938649"><ele>858.0</ele><time>2026-04-04T07:48:39.999Z</time></trkpt><trkpt lat="45.72983106744791" lon="9.96905457559205"><ele>858.0</ele><time>2026-04-04T07:48:42.999Z</time></trkpt><trkpt lat="45.7299023277188" lon="9.969120082111827"><ele>858.0</ele><time>2026-04-04T07:48:45.999Z</time></trkpt><trkpt lat="45.72997043623645" lon="9.969179149215195"><ele>858.0</ele><time>2026-04-04T07:48:48.999Z</time></trkpt><trkpt lat="45.730042236414185" lon="9.969234647117059"><ele>858.0</ele><time>2026-04-04T07:48:51.999Z</time></trkpt><trkpt lat="45.73012678909317" lon="9.969277597139067"><ele>858.0</ele><time>2026-04-04T07:48:54.998Z</time></trkpt><trkpt lat="45.73020812251854" lon="9.96932050119148"><ele>858.0</ele><time>2026-04-04T07:48:57.998Z</time></trkpt><trkpt lat="45.73027132558465" lon="9.969351245273895"><ele>861.3333333333334</ele><time>2026-04-04T07:49:00.998Z</time></trkpt><trkpt lat="45.73034621567221" lon="9.969380282491432"><ele>864.6666666666667</ele><time>2026-04-04T07:49:03.998Z</time></trkpt><trkpt lat="45.73042103001143" lon="9.969404591762299"><ele>868.0</ele><time>2026-04-04T07:49:06.998Z</time></trkpt><trkpt lat="45.73049687092123" lon="9.969421262520584"><ele>871.3333333333334</ele><time>2026-04-04T07:49:09.998Z</time></trkpt><trkpt lat="45.730570198399825" lon="9.969438614322975"><ele>874.6666666666667</ele><time>2026-04-04T07:49:12.998Z</time></trkpt><trkpt lat="45.73064334711382" lon="9.969432495328363"><ele>878.0</ele><time>2026-04-04T07:49:15.998Z</time></trkpt><trkpt lat="45.73072330360913" lon="9.969424927011252"><ele>878.0000000000001</ele><time>2026-04-04T07:49:19Z</time></trkpt><trkpt lat="45.73080582840361" lon="9.969412514977916"><ele>878.0</ele><time>2026-04-04T07:49:22Z</time></trkpt><trkpt lat="45.730886385806606" lon="9.969391003146642"><ele>878.0</ele><time>2026-04-04T07:49:25Z</time></trkpt><trkpt lat="45.730967676722166" lon="9.96937161510408"><ele>878.0</ele><time>2026-04-04T07:49:28Z</time></trkpt><trkpt lat="45.73105898374782" lon="9.96934394002699"><ele>878.0000000000001</ele><time>2026-04-04T07:49:31Z</time></trkpt><trkpt lat="45.73113980932431" lon="9.96930597934535"><ele>878.0</ele><time>2026-04-04T07:49:34Z</time></trkpt><trkpt lat="45.73122293932694" lon="9.969253823595125"><ele>878.0000000000001</ele><time>2026-04-04T07:49:37Z</time></trkpt><trkpt lat="45.73129787774328" lon="9.969197325704615"><ele>878.0</ele><time>2026-04-04T07:49:40Z</time></trkpt><trkpt lat="45.731372235645935" lon="9.969129009452754"><ele>878.0</ele><time>2026-04-04T07:49:43Z</time></trkpt><trkpt lat="45.731441672396215" lon="9.969048784423816"><ele>878.0</ele><time>2026-04-04T07:49:46Z</time></trkpt><trkpt lat="45.731515255846716" lon="9.968950096227292"><ele>878.0000000000001</ele><time>2026-04-04T07:49:49Z</time></trkpt><trkpt lat="45.731572014595415" lon="9.968877757514951"><ele>878.0</ele><time>2026-04-04T07:49:52Z</time></trkpt><trkpt lat="45.73163742967823" lon="9.968795401626046"><ele>878.0000000000001</ele><time>2026-04-04T07:49:55Z</time></trkpt><trkpt lat="45.73170316830586" lon="9.968716090953887"><ele>878.0</ele><time>2026-04-04T07:49:58Z</time></trkpt><trkpt lat="45.73175508366879" lon="9.96863649187329"><ele>878.0</ele><time>2026-04-04T07:50:00Z</time></trkpt><trkpt lat="45.73180178179062" lon="9.968564932178293"><ele>878.0</ele><time>2026-04-04T07:50:01.999Z</time></trkpt><trkpt lat="45.73185206601995" lon="9.968490665599049"><ele>878.0000000000001</ele><time>2026-04-04T07:50:04.999Z</time></trkpt><trkpt lat="45.73191036199512" lon="9.968410735221228"><ele>878.0</ele><time>2026-04-04T07:50:07.999Z</time></trkpt><trkpt lat="45.731969307508436" lon="9.968314353238465"><ele>881.8333333333334</ele><time>2026-04-04T07:50:10.999Z</time></trkpt><trkpt lat="45.732020268755825" lon="9.96822047891653"><ele>885.6666666666667</ele><time>2026-04-04T07:50:13.999Z</time></trkpt><trkpt lat="45.73206673562599" lon="9.968127737234754"><ele>889.5</ele><time>2026-04-04T07:50:16.999Z</time></trkpt><trkpt lat="45.732108355232526" lon="9.968037804568514"><ele>893.3333333333333</ele><time>2026-04-04T07:50:19.999Z</time></trkpt><trkpt lat="45.73215582569932" lon="9.967932974605795"><ele>897.1666666666666</ele><time>2026-04-04T07:50:22.999Z</time></trkpt><trkpt lat="45.7321964378288" lon="9.96783924285271"><ele>901.0</ele><time>2026-04-04T07:50:25.999Z</time></trkpt><trkpt lat="45.73223529311548" lon="9.96775978100724"><ele>900.9999999999999</ele><time>2026-04-04T07:50:27.999Z</time></trkpt><trkpt lat="45.732273746457345" lon="9.967668402951427"><ele>901.0</ele><time>2026-04-04T07:50:30.999Z</time></trkpt><trkpt lat="45.73232441918837" lon="9.967575794390841"><ele>901.0</ele><time>2026-04-04T07:50:33.999Z</time></trkpt><trkpt lat="45.732370917012126" lon="9.96748971271987"><ele>901.0</ele><time>2026-04-04T07:50:36.999Z</time></trkpt><trkpt lat="45.732416465125795" lon="9.967392476978294"><ele>900.9999999999999</ele><time>2026-04-04T07:50:39.999Z</time></trkpt><trkpt lat="45.73246726368885" lon="9.967298875807698"><ele>901.0</ele><time>2026-04-04T07:50:42.999Z</time></trkpt><trkpt lat="45.73250876051105" lon="9.9672307531037"><ele>897.9999999999999</ele><time>2026-04-04T07:50:44.999Z</time></trkpt><trkpt lat="45.732560317649735" lon="9.967145818115789"><ele>895.0</ele><time>2026-04-04T07:50:47.999Z</time></trkpt><trkpt lat="45.73260588293989" lon="9.967072703934583"><ele>892.0</ele><time>2026-04-04T07:50:49.999Z</time></trkpt><trkpt lat="45.73265704569244" lon="9.966991931682768"><ele>889.0</ele><time>2026-04-04T07:50:52.999Z</time></trkpt><trkpt lat="45.73270498658747" lon="9.966905383345605"><ele>885.9999999999999</ele><time>2026-04-04T07:50:55.999Z</time></trkpt><trkpt lat="45.73277274481689" lon="9.966834680005167"><ele>883.0</ele><time>2026-04-04T07:50:58.998Z</time></trkpt><trkpt lat="45.732837596718866" lon="9.9667651894883"><ele>884.8571428571429</ele><time>2026-04-04T07:51:01.998Z</time></trkpt><trkpt lat="45.73290351983624" lon="9.966704641244526"><ele>886.7142857142857</ele><time>2026-04-04T07:51:04.998Z</time></trkpt><trkpt lat="45.73296899637038" lon="9.96664955781165"><ele>888.5714285714286</ele><time>2026-04-04T07:51:07.998Z</time></trkpt><trkpt lat="45.73303544717906" lon="9.966592640858257"><ele>890.4285714285714</ele><time>2026-04-04T07:51:10.998Z</time></trkpt><trkpt lat="45.73309220554939" lon="9.966532928447503"><ele>892.2857142857142</ele><time>2026-04-04T07:51:13.998Z</time></trkpt><trkpt lat="45.73315231092782" lon="9.966505243230573"><ele>894.1428571428571</ele><time>2026-04-04T07:51:15.998Z</time></trkpt><trkpt lat="45.73321351010431" lon="9.96646748872426"><ele>896.0</ele><time>2026-04-04T07:51:17.998Z</time></trkpt><trkpt lat="45.73328424896507" lon="9.966423122948495"><ele>896.0</ele><time>2026-04-04T07:51:20.998Z</time></trkpt><trkpt lat="45.73334370171958" lon="9.966382489361871"><ele>896.0</ele><time>2026-04-04T07:51:22.998Z</time></trkpt><trkpt lat="45.73341886017877" lon="9.966347110622902"><ele>896.0</ele><time>2026-04-04T07:51:26Z</time></trkpt><trkpt lat="45.73348796673203" lon="9.96631220077136"><ele>896.0</ele><time>2026-04-04T07:51:29Z</time></trkpt><trkpt lat="45.733560275280304" lon="9.96626990803374"><ele>896.0</ele><time>2026-04-04T07:51:32Z</time></trkpt><trkpt lat="45.73362141703067" lon="9.96622989329021"><ele>896.0</ele><time>2026-04-04T07:51:34Z</time></trkpt><trkpt lat="45.73369916005775" lon="9.966184773818208"><ele>896.0</ele><time>2026-04-04T07:51:37Z</time></trkpt><trkpt lat="45.733775034524385" lon="9.966147445503022"><ele>900.1666666666667</ele><time>2026-04-04T07:51:40Z</time></trkpt><trkpt lat="45.733842159730585" lon="9.966096867013372"><ele>904.3333333333334</ele><time>2026-04-04T07:51:43Z</time></trkpt><trkpt lat="45.73391713219039" lon="9.96607342411312"><ele>908.5</ele><time>2026-04-04T07:51:46Z</time></trkpt><trkpt lat="45.733992502088945" lon="9.966028174215431"><ele>912.6666666666667</ele><time>2026-04-04T07:51:49Z</time></trkpt><trkpt lat="45.734086728810794" lon="9.965986157080268"><ele>916.8333333333334</ele><time>2026-04-04T07:51:52Z</time></trkpt><trkpt lat="45.73416529923076" lon="9.965945769208775"><ele>921.0</ele><time>2026-04-04T07:51:56Z</time></trkpt><trkpt lat="45.734239493027935" lon="9.965915658882366"><ele>921.0</ele><time>2026-04-04T07:51:59Z</time></trkpt><trkpt lat="45.734318341252994" lon="9.965871824803195"><ele>921.0</ele><time>2026-04-04T07:52:02Z</time></trkpt><trkpt lat="45.73439916859793" lon="9.965852938919026"><ele>921.0</ele><time>2026-04-04T07:52:05Z</time></trkpt><trkpt lat="45.734477273863654" lon="9.965825867791972"><ele>921.0</ele><time>2026-04-04T07:52:07.999Z</time></trkpt><trkpt lat="45.734552282072876" lon="9.965803200283634"><ele>921.0</ele><time>2026-04-04T07:52:10.999Z</time></trkpt><trkpt lat="45.73461713355444" lon="9.965769024955119"><ele>921.0</ele><time>2026-04-04T07:52:13.999Z</time></trkpt><trkpt lat="45.734691955236926" lon="9.96574390731487"><ele>919.1666666666666</ele><time>2026-04-04T07:52:16.999Z</time></trkpt><trkpt lat="45.73475531334232" lon="9.965719178628579"><ele>917.3333333333333</ele><time>2026-04-04T07:52:18.999Z</time></trkpt><trkpt lat="45.73482935129963" lon="9.965700582943478"><ele>915.5</ele><time>2026-04-04T07:52:21.999Z</time></trkpt><trkpt lat="45.734911152750705" lon="9.965679060987204"><ele>913.6666666666666</ele><time>2026-04-04T07:52:24.999Z</time></trkpt><trkpt lat="45.73498853595414" lon="9.965653398953782"><ele>911.8333333333333</ele><time>2026-04-04T07:52:27.999Z</time></trkpt><trkpt lat="45.73506141237281" lon="9.96563427579519"><ele>910.0</ele><time>2026-04-04T07:52:30.999Z</time></trkpt><trkpt lat="45.73513966861593" lon="9.965613783327633"><ele>909.9999999999999</ele><time>2026-04-04T07:52:33.999Z</time></trkpt><trkpt lat="45.735211680248476" lon="9.965589277273567"><ele>910.0</ele><time>2026-04-04T07:52:36.999Z</time></trkpt><trkpt lat="45.73529679106152" lon="9.965567277295085"><ele>910.0</ele><time>2026-04-04T07:52:39.999Z</time></trkpt><trkpt lat="45.735374458647755" lon="9.965547148738679"><ele>910.0</ele><time>2026-04-04T07:52:42.999Z</time></trkpt><trkpt lat="45.735455219279956" lon="9.965523407260541"><ele>909.9999999999999</ele><time>2026-04-04T07:52:45.999Z</time></trkpt><trkpt lat="45.73551791557892" lon="9.96548881869824"><ele>910.0</ele><time>2026-04-04T07:52:48.999Z</time></trkpt><trkpt lat="45.73560625057993" lon="9.965466311328319"><ele>914.3333333333333</ele><time>2026-04-04T07:52:51.999Z</time></trkpt><trkpt lat="45.73567441576244" lon="9.965438134553963"><ele>918.6666666666666</ele><time>2026-04-04T07:52:54.999Z</time></trkpt><trkpt lat="45.73575174646296" lon="9.965442106880172"><ele>923.0</ele><time>2026-04-04T07:52:57.999Z</time></trkpt><trkpt lat="45.735746599578654" lon="9.965540043940042"><ele>927.3333333333333</ele><time>2026-04-04T07:53:01.999Z</time></trkpt><trkpt lat="45.73567601064276" lon="9.96556841417937"><ele>931.6666666666666</ele><time>2026-04-04T07:53:04.998Z</time></trkpt><trkpt lat="45.73559810947891" lon="9.965598256013742"><ele>936.0</ele><time>2026-04-04T07:53:07.998Z</time></trkpt><trkpt lat="45.73551234037261" lon="9.965635585444243"><ele>936.0</ele><time>2026-04-04T07:53:10.998Z</time></trkpt><trkpt lat="45.735445174763036" lon="9.965671789653193"><ele>936.0</ele><time>2026-04-04T07:53:13.998Z</time></trkpt><trkpt lat="45.73537592138659" lon="9.965710061582298"><ele>936.0</ele><time>2026-04-04T07:53:16.998Z</time></trkpt><trkpt lat="45.735304282727306" lon="9.965751376811475"><ele>936.0</ele><time>2026-04-04T07:53:19.998Z</time></trkpt><trkpt lat="45.735241343754026" lon="9.965788105117063"><ele>936.0</ele><time>2026-04-04T07:53:21.998Z</time></trkpt><trkpt lat="45.73516291304678" lon="9.965837657984613"><ele>936.0</ele><time>2026-04-04T07:53:24.998Z</time></trkpt><trkpt lat="45.73508559173571" lon="9.965888385372502"><ele>936.6666666666666</ele><time>2026-04-04T07:53:27.998Z</time></trkpt><trkpt lat="45.7350129371565" lon="9.965944559582839"><ele>937.3333333333333</ele><time>2026-04-04T07:53:31Z</time></trkpt><trkpt lat="45.734935498532984" lon="9.96599563712754"><ele>938.0</ele><time>2026-04-04T07:53:34Z</time></trkpt><trkpt lat="45.734861190094165" lon="9.9660510656392"><ele>938.6666666666666</ele><time>2026-04-04T07:53:37Z</time></trkpt><trkpt lat="45.73478358866821" lon="9.9660883720381"><ele>939.3333333333333</ele><time>2026-04-04T07:53:40Z</time></trkpt><trkpt lat="45.73470249968164" lon="9.966148310184552"><ele>940.0</ele><time>2026-04-04T07:53:43Z</time></trkpt><trkpt lat="45.734629694326536" lon="9.966216736853678"><ele>939.9999999999999</ele><time>2026-04-04T07:53:46Z</time></trkpt><trkpt lat="45.734552956122066" lon="9.966285284326489"><ele>940.0</ele><time>2026-04-04T07:53:49Z</time></trkpt><trkpt lat="45.73448229935401" lon="9.966344721280109"><ele>940.0</ele><time>2026-04-04T07:53:52Z</time></trkpt><trkpt lat="45.73441229526587" lon="9.966401593136101"><ele>940.0</ele><time>2026-04-04T07:53:55Z</time></trkpt><trkpt lat="45.73434369077981" lon="9.966462880719922"><ele>939.9999999999999</ele><time>2026-04-04T07:53:58Z</time></trkpt><trkpt lat="45.734268786213036" lon="9.966526117763472"><ele>940.0</ele><time>2026-04-04T07:54:02Z</time></trkpt><trkpt lat="45.73420393087504" lon="9.966584667836894"><ele>941.1428571428571</ele><time>2026-04-04T07:54:05Z</time></trkpt><trkpt lat="45.734140576211914" lon="9.966652506594455"><ele>942.2857142857142</ele><time>2026-04-04T07:54:08Z</time></trkpt><trkpt lat="45.734072395682226" lon="9.966729899263509"><ele>943.4285714285713</ele><time>2026-04-04T07:54:11Z</time></trkpt><trkpt lat="45.73401270547094" lon="9.966795177108922"><ele>944.5714285714284</ele><time>2026-04-04T07:54:13.999Z</time></trkpt><trkpt lat="45.733959929453015" lon="9.966851711368983"><ele>945.7142857142857</ele><time>2026-04-04T07:54:16.999Z</time></trkpt><trkpt lat="45.7339076423109" lon="9.96690541828033"><ele>946.8571428571427</ele><time>2026-04-04T07:54:18.999Z</time></trkpt><trkpt lat="45.73385298219899" lon="9.966956448425568"><ele>947.9999999999999</ele><time>2026-04-04T07:54:21.999Z</time></trkpt><trkpt lat="45.73378976838832" lon="9.967016748640782"><ele>947.9999999999999</ele><time>2026-04-04T07:54:24.999Z</time></trkpt><trkpt lat="45.733741159583026" lon="9.967088095341552"><ele>948.0</ele><time>2026-04-04T07:54:27.999Z</time></trkpt><trkpt lat="45.73368410946858" lon="9.96715408333263"><ele>947.9999999999999</ele><time>2026-04-04T07:54:30.999Z</time></trkpt><trkpt lat="45.73363251953685" lon="9.967211743213536"><ele>947.9999999999999</ele><time>2026-04-04T07:54:32.999Z</time></trkpt><trkpt lat="45.73357794342057" lon="9.967275789649483"><ele>948.0</ele><time>2026-04-04T07:54:35.999Z</time></trkpt><trkpt lat="45.73351943492329" lon="9.967342835856122"><ele>947.9999999999999</ele><time>2026-04-04T07:54:38.999Z</time></trkpt><trkpt lat="45.73346958593016" lon="9.967403249717421"><ele>947.9999999999999</ele><time>2026-04-04T07:54:40.999Z</time></trkpt><trkpt lat="45.733401858108124" lon="9.967486244396175"><ele>946.0</ele><time>2026-04-04T07:54:44.999Z</time></trkpt><trkpt lat="45.733344395029256" lon="9.967568856568244"><ele>944.0</ele><time>2026-04-04T07:54:47.999Z</time></trkpt><trkpt lat="45.73328995667901" lon="9.967657880055533"><ele>942.0</ele><time>2026-04-04T07:54:50.999Z</time></trkpt><trkpt lat="45.73323500993587" lon="9.967747062006085"><ele>940.0</ele><time>2026-04-04T07:54:53.999Z</time></trkpt><trkpt lat="45.733179929352616" lon="9.967848844656489"><ele>938.0</ele><time>2026-04-04T07:54:56.999Z</time></trkpt><trkpt lat="45.73313131233689" lon="9.967948578778987"><ele>936.0</ele><time>2026-04-04T07:54:59.999Z</time></trkpt><trkpt lat="45.73308776005487" lon="9.968078046714398"><ele>936.0</ele><time>2026-04-04T07:55:02.999Z</time></trkpt><trkpt lat="45.733066732446105" lon="9.96819235634052"><ele>936.0000000000001</ele><time>2026-04-04T07:55:05.999Z</time></trkpt><trkpt lat="45.73305364662255" lon="9.968314378771387"><ele>936.0</ele><time>2026-04-04T07:55:08.998Z</time></trkpt><trkpt lat="45.73304502434127" lon="9.968431052869883"><ele>936.0</ele><time>2026-04-04T07:55:10.998Z</time></trkpt><trkpt lat="45.73304307843868" lon="9.968523571836059"><ele>936.0000000000001</ele><time>2026-04-04T07:55:12.998Z</time></trkpt><trkpt lat="45.733044761086106" lon="9.968614626299022"><ele>936.0</ele><time>2026-04-04T07:55:14.998Z</time></trkpt><trkpt lat="45.73305106658928" lon="9.968705309970533"><ele>936.0</ele><time>2026-04-04T07:55:16.998Z</time></trkpt><trkpt lat="45.733076941850484" lon="9.968788360798683"><ele>936.0</ele><time>2026-04-04T07:55:18.998Z</time></trkpt><trkpt lat="45.733138692250954" lon="9.968820890251687"><ele>936.0</ele><time>2026-04-04T07:55:20.998Z</time></trkpt><trkpt lat="45.73318919456713" lon="9.968756658537629"><ele>936.0</ele><time>2026-04-04T07:55:22.998Z</time></trkpt><trkpt lat="45.73318168422463" lon="9.968626249483416"><ele>936.0</ele><time>2026-04-04T07:55:25.998Z</time></trkpt><trkpt lat="45.73316849480796" lon="9.96851721029429"><ele>936.0</ele><time>2026-04-04T07:55:28.998Z</time></trkpt><trkpt lat="45.733170891762825" lon="9.968420185725908"><ele>936.0</ele><time>2026-04-04T07:55:30.998Z</time></trkpt><trkpt lat="45.73319963562613" lon="9.96829382141077"><ele>936.0</ele><time>2026-04-04T07:55:33.998Z</time></trkpt><trkpt lat="45.7332342061706" lon="9.968183087762126"><ele>936.0</ele><time>2026-04-04T07:55:37Z</time></trkpt><trkpt lat="45.73328243012012" lon="9.968070772010774"><ele>936.0</ele><time>2026-04-04T07:55:40Z</time></trkpt><trkpt lat="45.73333137646798" lon="9.967994691532471"><ele>936.0</ele><time>2026-04-04T07:55:43Z</time></trkpt><trkpt lat="45.733393130284114" lon="9.967917993170898"><ele>936.0</ele><time>2026-04-04T07:55:46Z</time></trkpt><trkpt lat="45.73345923202208" lon="9.967854175507673"><ele>936.0</ele><time>2026-04-04T07:55:49Z</time></trkpt><trkpt lat="45.733515685952874" lon="9.967787682472842"><ele>938.1666666666666</ele><time>2026-04-04T07:55:52Z</time></trkpt><trkpt lat="45.733580775224475" lon="9.967756349379824"><ele>940.3333333333333</ele><time>2026-04-04T07:55:54Z</time></trkpt><trkpt lat="45.733661361136356" lon="9.96771818819288"><ele>942.5</ele><time>2026-04-04T07:55:57Z</time></trkpt><trkpt lat="45.73372002798018" lon="9.96768334108445"><ele>944.6666666666666</ele><time>2026-04-04T07:56:00Z</time></trkpt><trkpt lat="45.73378354591815" lon="9.967646186850676"><ele>946.8333333333333</ele><time>2026-04-04T07:56:03Z</time></trkpt><trkpt lat="45.73385449444247" lon="9.967589557968187"><ele>949.0</ele><time>2026-04-04T07:56:07Z</time></trkpt><trkpt lat="45.73393748524729" lon="9.96755000925492"><ele>948.8333333333333</ele><time>2026-04-04T07:56:11Z</time></trkpt><trkpt lat="45.734024893782006" lon="9.967508101019886"><ele>948.6666666666666</ele><time>2026-04-04T07:56:15Z</time></trkpt><trkpt lat="45.73409959222248" lon="9.967474680641615"><ele>948.5</ele><time>2026-04-04T07:56:17.999Z</time></trkpt><trkpt lat="45.734174552759946" lon="9.967455879170615"><ele>948.3333333333333</ele><time>2026-04-04T07:56:20.999Z</time></trkpt><trkpt lat="45.73424689807682" lon="9.967436401521276"><ele>948.1666666666666</ele><time>2026-04-04T07:56:23.999Z</time></trkpt><trkpt lat="45.73431768584395" lon="9.967410825023103"><ele>948.0</ele><time>2026-04-04T07:56:26.999Z</time></trkpt><trkpt lat="45.734387833683925" lon="9.967388883599657"><ele>949.6666666666666</ele><time>2026-04-04T07:56:29.999Z</time></trkpt><trkpt lat="45.73445671153757" lon="9.967365579269854"><ele>951.3333333333333</ele><time>2026-04-04T07:56:32.999Z</time></trkpt><trkpt lat="45.73452359616594" lon="9.967337203428007"><ele>953.0</ele><time>2026-04-04T07:56:35.999Z</time></trkpt><trkpt lat="45.73459195779367" lon="9.967314189967416"><ele>954.6666666666666</ele><time>2026-04-04T07:56:38.999Z</time></trkpt><trkpt lat="45.7346736208429" lon="9.96729280388684"><ele>956.3333333333333</ele><time>2026-04-04T07:56:41.999Z</time></trkpt><trkpt lat="45.73475248413517" lon="9.967274525250541"><ele>958.0</ele><time>2026-04-04T07:56:44.999Z</time></trkpt><trkpt lat="45.73482787525685" lon="9.967257074504408"><ele>958.0</ele><time>2026-04-04T07:56:47.999Z</time></trkpt><trkpt lat="45.73489825341879" lon="9.96724083714325"><ele>958.0</ele><time>2026-04-04T07:56:50.999Z</time></trkpt><trkpt lat="45.73496829724329" lon="9.967220358001073"><ele>958.0</ele><time>2026-04-04T07:56:53.999Z</time></trkpt><trkpt lat="45.735040594402435" lon="9.967201069523528"><ele>958.0</ele><time>2026-04-04T07:56:56.999Z</time></trkpt><trkpt lat="45.73511420012779" lon="9.967182589833266"><ele>958.0</ele><time>2026-04-04T07:56:59.999Z</time></trkpt><trkpt lat="45.73518728237296" lon="9.96716593503422"><ele>958.0</ele><time>2026-04-04T07:57:02.999Z</time></trkpt><trkpt lat="45.73526182946438" lon="9.967152244778458"><ele>958.0</ele><time>2026-04-04T07:57:05.999Z</time></trkpt><trkpt lat="45.735339804997714" lon="9.967135268906912"><ele>959.4999999999999</ele><time>2026-04-04T07:57:08.999Z</time></trkpt><trkpt lat="45.73540900697881" lon="9.967120461051348"><ele>961.0</ele><time>2026-04-04T07:57:11.999Z</time></trkpt><trkpt lat="45.735479163762335" lon="9.967096122623351"><ele>962.5</ele><time>2026-04-04T07:57:14.998Z</time></trkpt><trkpt lat="45.73554660720959" lon="9.967075693541439"><ele>964.0</ele><time>2026-04-04T07:57:17.998Z</time></trkpt><trkpt lat="45.73562286465093" lon="9.967038700199511"><ele>965.4999999999999</ele><time>2026-04-04T07:57:21.998Z</time></trkpt><trkpt lat="45.73569282662471" lon="9.96701686562576"><ele>967.0</ele><time>2026-04-04T07:57:24.998Z</time></trkpt><trkpt lat="45.7357808246823" lon="9.966976317805136"><ele>966.9999999999999</ele><time>2026-04-04T07:57:27.998Z</time></trkpt><trkpt lat="45.735862452766064" lon="9.96693975792927"><ele>967.0</ele><time>2026-04-04T07:57:30.998Z</time></trkpt><trkpt lat="45.73593674730993" lon="9.96690097091184"><ele>967.0</ele><time>2026-04-04T07:57:33.998Z</time></trkpt><trkpt lat="45.736003437530556" lon="9.96685650267691"><ele>967.0</ele><time>2026-04-04T07:57:36.998Z</time></trkpt><trkpt lat="45.73606993863523" lon="9.966816583197742"><ele>966.9999999999999</ele><time>2026-04-04T07:57:39.998Z</time></trkpt><trkpt lat="45.736138017296454" lon="9.966775947986195"><ele>967.0</ele><time>2026-04-04T07:57:43Z</time></trkpt><trkpt lat="45.73621189966958" lon="9.966732503222088"><ele>968.0</ele><time>2026-04-04T07:57:47Z</time></trkpt><trkpt lat="45.73627822712253" lon="9.966694834355682"><ele>969.0</ele><time>2026-04-04T07:57:50Z</time></trkpt><trkpt lat="45.73634602585531" lon="9.966660918598443"><ele>970.0</ele><time>2026-04-04T07:57:53Z</time></trkpt><trkpt lat="45.73641403217161" lon="9.966620109058386"><ele>971.0</ele><time>2026-04-04T07:57:56Z</time></trkpt><trkpt lat="45.736482424897154" lon="9.966584630848782"><ele>972.0</ele><time>2026-04-04T07:57:59Z</time></trkpt><trkpt lat="45.736543817555976" lon="9.966562039224549"><ele>973.0</ele><time>2026-04-04T07:58:02Z</time></trkpt><trkpt lat="45.736609498563276" lon="9.966539120330406"><ele>974.0</ele><time>2026-04-04T07:58:05Z</time></trkpt><trkpt lat="45.736675039593116" lon="9.966519629077636"><ele>974.0</ele><time>2026-04-04T07:58:08Z</time></trkpt><trkpt lat="45.73674615589774" lon="9.966498571826067"><ele>974.0</ele><time>2026-04-04T07:58:11Z</time></trkpt><trkpt lat="45.736814724834616" lon="9.966478704245551"><ele>974.0</ele><time>2026-04-04T07:58:14Z</time></trkpt><trkpt lat="45.73689131572377" lon="9.966458593122356"><ele>974.0</ele><time>2026-04-04T07:58:17Z</time></trkpt><trkpt lat="45.73697100439633" lon="9.966436310787556"><ele>974.0</ele><time>2026-04-04T07:58:20Z</time></trkpt><trkpt lat="45.73703925102949" lon="9.966417832182177"><ele>974.0</ele><time>2026-04-04T07:58:22.999Z</time></trkpt><trkpt lat="45.7371029826479" lon="9.966405218805983"><ele>974.0</ele><time>2026-04-04T07:58:25.999Z</time></trkpt><trkpt lat="45.73717835593406" lon="9.966384740228357"><ele>975.8333333333334</ele><time>2026-04-04T07:58:28.999Z</time></trkpt><trkpt lat="45.73725429190133" lon="9.966369248202907"><ele>977.6666666666667</ele><time>2026-04-04T07:58:31.999Z</time></trkpt><trkpt lat="45.7373336566585" lon="9.966349033520947"><ele>979.5</ele><time>2026-04-04T07:58:34.999Z</time></trkpt><trkpt lat="45.737411903026334" lon="9.96633174762627"><ele>981.3333333333333</ele><time>2026-04-04T07:58:37.999Z</time></trkpt><trkpt lat="45.737489229489555" lon="9.966312868341848"><ele>983.1666666666666</ele><time>2026-04-04T07:58:40.999Z</time></trkpt><trkpt lat="45.7375730946132" lon="9.9663186359687"><ele>985.0</ele><time>2026-04-04T07:58:43.999Z</time></trkpt><trkpt lat="45.737641985724835" lon="9.966350237824662"><ele>985.0</ele><time>2026-04-04T07:58:46.999Z</time></trkpt><trkpt lat="45.73764761231961" lon="9.96644763135167"><ele>985.0000000000001</ele><time>2026-04-04T07:58:49.999Z</time></trkpt><trkpt lat="45.7375877384826" lon="9.966507054220486"><ele>985.0</ele><time>2026-04-04T07:58:52.999Z</time></trkpt><trkpt lat="45.73752943944177" lon="9.966543498501599"><ele>985.0</ele><time>2026-04-04T07:58:55.999Z</time></trkpt><trkpt lat="45.73746108044662" lon="9.966591065257253"><ele>985.0000000000001</ele><time>2026-04-04T07:58:58.999Z</time></trkpt><trkpt lat="45.73738557427167" lon="9.966635915474944"><ele>985.0</ele><time>2026-04-04T07:59:01.999Z</time></trkpt><trkpt lat="45.73731048850973" lon="9.966686777737234"><ele>985.0</ele><time>2026-04-04T07:59:04.999Z</time></trkpt><trkpt lat="45.73723692535927" lon="9.966738852346143"><ele>984.4</ele><time>2026-04-04T07:59:07.999Z</time></trkpt><trkpt lat="45.73714833897037" lon="9.966805785757236"><ele>983.8</ele><time>2026-04-04T07:59:10.999Z</time></trkpt><trkpt lat="45.73708074854722" lon="9.966870205076136"><ele>983.2</ele><time>2026-04-04T07:59:13.999Z</time></trkpt><trkpt lat="45.73696043347822" lon="9.966977617574242"><ele>982.6</ele><time>2026-04-04T07:59:15.999Z</time></trkpt><trkpt lat="45.7369324339102" lon="9.967068829360784"><ele>982.0</ele><time>2026-04-04T07:59:17.998Z</time></trkpt><trkpt lat="45.73696378063609" lon="9.967170290807504"><ele>982.0</ele><time>2026-04-04T07:59:19.998Z</time></trkpt><trkpt lat="45.73704334454499" lon="9.967219555977296"><ele>981.9999999999999</ele><time>2026-04-04T07:59:21.998Z</time></trkpt><trkpt lat="45.737112335333116" lon="9.967198419177187"><ele>982.0</ele><time>2026-04-04T07:59:23.998Z</time></trkpt><trkpt lat="45.737184844083586" lon="9.967159688683354"><ele>982.0</ele><time>2026-04-04T07:59:26.998Z</time></trkpt><trkpt lat="45.73724965045087" lon="9.96711704706919"><ele>981.9999999999999</ele><time>2026-04-04T07:59:29.998Z</time></trkpt><trkpt lat="45.73731859305638" lon="9.967077255274175"><ele>982.0</ele><time>2026-04-04T07:59:32.998Z</time></trkpt><trkpt lat="45.73738156186049" lon="9.967049806784713"><ele>982.0</ele><time>2026-04-04T07:59:34.998Z</time></trkpt><trkpt lat="45.737460324380216" lon="9.967015499932046"><ele>982.0</ele><time>2026-04-04T07:59:38.998Z</time></trkpt><trkpt lat="45.737536368680914" lon="9.96699058465159"><ele>981.9999999999999</ele><time>2026-04-04T07:59:42.998Z</time></trkpt><trkpt lat="45.73761512170509" lon="9.966978569639588"><ele>982.0</ele><time>2026-04-04T07:59:45.998Z</time></trkpt><trkpt lat="45.73768735294272" lon="9.966965466568247"><ele>982.0</ele><time>2026-04-04T07:59:50Z</time></trkpt><trkpt lat="45.737751709466394" lon="9.966953421178252"><ele>981.9999999999999</ele><time>2026-04-04T07:59:53Z</time></trkpt><trkpt lat="45.737818331121915" lon="9.966939487689753"><ele>982.0</ele><time>2026-04-04T07:59:56Z</time></trkpt><trkpt lat="45.73788162235764" lon="9.966923883644483"><ele>982.0</ele><time>2026-04-04T07:59:59Z</time></trkpt><trkpt lat="45.737943821107265" lon="9.966907140837327"><ele>983.8571428571428</ele><time>2026-04-04T08:00:02Z</time></trkpt><trkpt lat="45.738006297325434" lon="9.966892498680338"><ele>985.7142857142856</ele><time>2026-04-04T08:00:05Z</time></trkpt><trkpt lat="45.738074615274364" lon="9.966862215808874"><ele>987.5714285714286</ele><time>2026-04-04T08:00:08Z</time></trkpt><trkpt lat="45.73814655185842" lon="9.966831129132812"><ele>989.4285714285713</ele><time>2026-04-04T08:00:12Z</time></trkpt><trkpt lat="45.73820996339618" lon="9.966805067185321"><ele>991.2857142857142</ele><time>2026-04-04T08:00:15Z</time></trkpt><trkpt lat="45.73828484875792" lon="9.966763022431753"><ele>993.1428571428571</ele><time>2026-04-04T08:00:18Z</time></trkpt><trkpt lat="45.73834916660584" lon="9.966719101061669"><ele>995.0</ele><time>2026-04-04T08:00:22Z</time></trkpt><trkpt lat="45.738409035025526" lon="9.96667598032698"><ele>996.0</ele><time>2026-04-04T08:00:25Z</time></trkpt><trkpt lat="45.73846517234337" lon="9.966623042092275"><ele>997.0</ele><time>2026-04-04T08:00:27.999Z</time></trkpt><trkpt lat="45.73853939285689" lon="9.966565050541757"><ele>998.0</ele><time>2026-04-04T08:00:30.999Z</time></trkpt><trkpt lat="45.73858908976798" lon="9.966499063332225"><ele>999.0</ele><time>2026-04-04T08:00:34.999Z</time></trkpt><trkpt lat="45.73863589551146" lon="9.96642011285655"><ele>1000.0</ele><time>2026-04-04T08:00:37.999Z</time></trkpt><trkpt lat="45.73868295243431" lon="9.966335641765738"><ele>1001.0</ele><time>2026-04-04T08:00:40.999Z</time></trkpt><trkpt lat="45.7387159972307" lon="9.966243998786727"><ele>1002.0</ele><time>2026-04-04T08:00:43.999Z</time></trkpt><trkpt lat="45.73873865644083" lon="9.96614674487849"><ele>1005.3333333333334</ele><time>2026-04-04T08:00:46.999Z</time></trkpt><trkpt lat="45.73875236063022" lon="9.966041339327125"><ele>1008.6666666666667</ele><time>2026-04-04T08:00:49.999Z</time></trkpt><trkpt lat="45.73875246985755" lon="9.965933463187556"><ele>1012.0</ele><time>2026-04-04T08:00:52.999Z</time></trkpt><trkpt lat="45.738742665977206" lon="9.965827803511226"><ele>1015.3333333333334</ele><time>2026-04-04T08:00:55.999Z</time></trkpt><trkpt lat="45.73872503507498" lon="9.965723299870568"><ele>1018.6666666666667</ele><time>2026-04-04T08:00:58.999Z</time></trkpt><trkpt lat="45.738701686375514" lon="9.965617648599823"><ele>1022.0</ele><time>2026-04-04T08:01:01.999Z</time></trkpt><trkpt lat="45.738674120734956" lon="9.96550938214261"><ele>1022.3333333333334</ele><time>2026-04-04T08:01:04.999Z</time></trkpt><trkpt lat="45.73864810051326" lon="9.965416917523614"><ele>1022.6666666666667</ele><time>2026-04-04T08:01:07.999Z</time></trkpt><trkpt lat="45.7386253511963" lon="9.965302463520285"><ele>1023.0</ele><time>2026-04-04T08:01:10.999Z</time></trkpt><trkpt lat="45.738664173164985" lon="9.965225147255037"><ele>1023.3333333333333</ele><time>2026-04-04T08:01:13.999Z</time></trkpt><trkpt lat="45.73872869821562" lon="9.965269879601934"><ele>1023.6666666666666</ele><time>2026-04-04T08:01:16.999Z</time></trkpt><trkpt lat="45.738771806457954" lon="9.965352102043127"><ele>1024.0</ele><time>2026-04-04T08:01:19.999Z</time></trkpt><trkpt lat="45.738825613397864" lon="9.9654639166935"><ele>1024.0</ele><time>2026-04-04T08:01:22.998Z</time></trkpt><trkpt lat="45.73887646268319" lon="9.965526248053688"><ele>1023.9999999999999</ele><time>2026-04-04T08:01:25.998Z</time></trkpt><trkpt lat="45.738926470441484" lon="9.9655845249724"><ele>1024.0</ele><time>2026-04-04T08:01:28.998Z</time></trkpt><trkpt lat="45.73898089699142" lon="9.9656335808134"><ele>1024.0</ele><time>2026-04-04T08:01:31.998Z</time></trkpt><trkpt lat="45.73904306210603" lon="9.965681891598736"><ele>1023.9999999999999</ele><time>2026-04-04T08:01:35.998Z</time></trkpt><trkpt lat="45.73910162902083" lon="9.965715415574877"><ele>1024.0</ele><time>2026-04-04T08:01:38.998Z</time></trkpt><trkpt lat="45.73916092143777" lon="9.96575447814814"><ele>1024.0</ele><time>2026-04-04T08:01:41.998Z</time></trkpt><trkpt lat="45.73923523371304" lon="9.965796028313603"><ele>1024.0</ele><time>2026-04-04T08:01:45.998Z</time></trkpt><trkpt lat="45.73929221680012" lon="9.965840267557883"><ele>1023.9999999999999</ele><time>2026-04-04T08:01:48.998Z</time></trkpt><trkpt lat="45.73934834913114" lon="9.96588497688727"><ele>1024.0</ele><time>2026-04-04T08:01:51.998Z</time></trkpt><trkpt lat="45.73940204575379" lon="9.96593530419031"><ele>1024.0</ele><time>2026-04-04T08:01:55Z</time></trkpt><trkpt lat="45.739457472427326" lon="9.965993032659657"><ele>1023.9999999999999</ele><time>2026-04-04T08:01:58Z</time></trkpt><trkpt lat="45.7395046339008" lon="9.966076927284284"><ele>1024.0</ele><time>2026-04-04T08:02:02Z</time></trkpt><trkpt lat="45.73952842211199" lon="9.9661607886489"><ele>1024.0</ele><time>2026-04-04T08:02:05Z</time></trkpt><trkpt lat="45.73954190043675" lon="9.966267142146076"><ele>1022.2857142857142</ele><time>2026-04-04T08:02:08Z</time></trkpt><trkpt lat="45.739542015525494" lon="9.96636275662839"><ele>1020.5714285714284</ele><time>2026-04-04T08:02:11Z</time></trkpt><trkpt lat="45.739530496467104" lon="9.966466642000892"><ele>1018.8571428571429</ele><time>2026-04-04T08:02:15Z</time></trkpt><trkpt lat="45.739534262834724" lon="9.96657855344128"><ele>1017.1428571428571</ele><time>2026-04-04T08:02:19Z</time></trkpt><trkpt lat="45.73954730778525" lon="9.966691022592196"><ele>1015.4285714285714</ele><time>2026-04-04T08:02:22Z</time></trkpt><trkpt lat="45.73958245134765" lon="9.966781070776477"><ele>1013.7142857142858</ele><time>2026-04-04T08:02:26Z</time></trkpt><trkpt lat="45.73963612033568" lon="9.966837280920457"><ele>1012.0000000000001</ele><time>2026-04-04T08:02:29Z</time></trkpt><trkpt lat="45.7397021993651" lon="9.96686047458259"><ele>1012.0000000000001</ele><time>2026-04-04T08:02:32Z</time></trkpt><trkpt lat="45.73977594154454" lon="9.966862468671987"><ele>1012.0</ele><time>2026-04-04T08:02:34.999Z</time></trkpt><trkpt lat="45.739851873040294" lon="9.966860643378185"><ele>1012.0000000000001</ele><time>2026-04-04T08:02:38.999Z</time></trkpt><trkpt lat="45.739928175556734" lon="9.966839694727211"><ele>1012.0000000000001</ele><time>2026-04-04T08:02:41.999Z</time></trkpt><trkpt lat="45.739995387103626" lon="9.966811357536127"><ele>1012.0</ele><time>2026-04-04T08:02:45.999Z</time></trkpt><trkpt lat="45.740056401327934" lon="9.96677545511004"><ele>1012.0000000000001</ele><time>2026-04-04T08:02:48.999Z</time></trkpt><trkpt lat="45.74011979029487" lon="9.96673831461577"><ele>1012.0000000000001</ele><time>2026-04-04T08:02:51.999Z</time></trkpt><trkpt lat="45.74018709343664" lon="9.966685800063967"><ele>1016.7142857142858</ele><time>2026-04-04T08:02:54.999Z</time></trkpt><trkpt lat="45.7402570499017" lon="9.966627560915201"><ele>1021.4285714285714</ele><time>2026-04-04T08:02:58.999Z</time></trkpt><trkpt lat="45.74031034161941" lon="9.966564254285727"><ele>1026.142857142857</ele><time>2026-04-04T08:03:01.999Z</time></trkpt><trkpt lat="45.74037689327087" lon="9.966484867804686"><ele>1030.857142857143</ele><time>2026-04-04T08:03:04.999Z</time></trkpt><trkpt lat="45.74043665985667" lon="9.966428911492606"><ele>1035.5714285714284</ele><time>2026-04-04T08:03:08.999Z</time></trkpt><trkpt lat="45.74049231017149" lon="9.966375792521555"><ele>1040.2857142857142</ele><time>2026-04-04T08:03:11.999Z</time></trkpt><trkpt lat="45.74054364890764" lon="9.96632008626867"><ele>1045.0</ele><time>2026-04-04T08:03:14.999Z</time></trkpt><trkpt lat="45.74059519507138" lon="9.966246147870185"><ele>1045.0</ele><time>2026-04-04T08:03:17.999Z</time></trkpt><trkpt lat="45.740654751039386" lon="9.966170621423737"><ele>1045.0</ele><time>2026-04-04T08:03:20.999Z</time></trkpt><trkpt lat="45.74070366456594" lon="9.966102293068944"><ele>1045.0</ele><time>2026-04-04T08:03:23.999Z</time></trkpt><trkpt lat="45.74074583880915" lon="9.966027044061436"><ele>1045.0</ele><time>2026-04-04T08:03:26.998Z</time></trkpt><trkpt lat="45.74078705311161" lon="9.965947267012993"><ele>1045.0</ele><time>2026-04-04T08:03:29.998Z</time></trkpt><trkpt lat="45.74082129814801" lon="9.965851248037815"><ele>1045.0</ele><time>2026-04-04T08:03:32.998Z</time></trkpt><trkpt lat="45.740844811211694" lon="9.965749851713912"><ele>1045.0</ele><time>2026-04-04T08:03:35.998Z</time></trkpt><trkpt lat="45.7408579122375" lon="9.965643161699775"><ele>1046.7142857142858</ele><time>2026-04-04T08:03:38.998Z</time></trkpt><trkpt lat="45.74084662687581" lon="9.965536936195265"><ele>1048.4285714285713</ele><time>2026-04-04T08:03:41.998Z</time></trkpt><trkpt lat="45.74082738951291" lon="9.96543106253515"><ele>1050.142857142857</ele><time>2026-04-04T08:03:44.998Z</time></trkpt><trkpt lat="45.74079203635601" lon="9.96531805228169"><ele>1051.857142857143</ele><time>2026-04-04T08:03:47.998Z</time></trkpt><trkpt lat="45.740756562554736" lon="9.96523775628653"><ele>1053.5714285714284</ele><time>2026-04-04T08:03:50.998Z</time></trkpt><trkpt lat="45.7407243904528" lon="9.965159792571802"><ele>1055.2857142857142</ele><time>2026-04-04T08:03:53.998Z</time></trkpt><trkpt lat="45.74067825325909" lon="9.965093685678779"><ele>1057.0</ele><time>2026-04-04T08:03:56.998Z</time></trkpt><trkpt lat="45.74062604166365" lon="9.965029401422166"><ele>1056.4285714285713</ele><time>2026-04-04T08:04:00Z</time></trkpt><trkpt lat="45.740571875693654" lon="9.964965634601723"><ele>1055.857142857143</ele><time>2026-04-04T08:04:03Z</time></trkpt><trkpt lat="45.74050444077005" lon="9.964910833529965"><ele>1055.2857142857142</ele><time>2026-04-04T08:04:06Z</time></trkpt><trkpt lat="45.74044042858303" lon="9.964886492328192"><ele>1054.7142857142858</ele><time>2026-04-04T08:04:08Z</time></trkpt><trkpt lat="45.74037075736983" lon="9.964831897647892"><ele>1054.142857142857</ele><time>2026-04-04T08:04:12Z</time></trkpt><trkpt lat="45.74029921397673" lon="9.964792475558713"><ele>1053.5714285714284</ele><time>2026-04-04T08:04:15Z</time></trkpt><trkpt lat="45.74022804078106" lon="9.96474164683299"><ele>1053.0</ele><time>2026-04-04T08:04:18Z</time></trkpt><trkpt lat="45.74015357558848" lon="9.964660494484843"><ele>1053.0</ele><time>2026-04-04T08:04:21Z</time></trkpt><trkpt lat="45.74009652400969" lon="9.964600490408742"><ele>1053.0</ele><time>2026-04-04T08:04:24Z</time></trkpt><trkpt lat="45.74003905438917" lon="9.964530716756034"><ele>1053.0</ele><time>2026-04-04T08:04:27Z</time></trkpt><trkpt lat="45.73999875007644" lon="9.964432301227854"><ele>1053.0</ele><time>2026-04-04T08:04:30Z</time></trkpt><trkpt lat="45.73996669169103" lon="9.964334545295912"><ele>1053.0</ele><time>2026-04-04T08:04:33Z</time></trkpt><trkpt lat="45.73994147751999" lon="9.964234930868361"><ele>1053.0</ele><time>2026-04-04T08:04:36Z</time></trkpt><trkpt lat="45.73991791403719" lon="9.964133496851467"><ele>1055.3333333333333</ele><time>2026-04-04T08:04:38.999Z</time></trkpt><trkpt lat="45.739927792586236" lon="9.964019722068986"><ele>1057.6666666666667</ele><time>2026-04-04T08:04:41.999Z</time></trkpt><trkpt lat="45.739945487106226" lon="9.963909393509912"><ele>1060.0</ele><time>2026-04-04T08:04:44.999Z</time></trkpt><trkpt lat="45.739972788617536" lon="9.963807917515652"><ele>1062.3333333333335</ele><time>2026-04-04T08:04:47.999Z</time></trkpt><trkpt lat="45.74001280956883" lon="9.9637142205826"><ele>1064.6666666666667</ele><time>2026-04-04T08:04:50.999Z</time></trkpt><trkpt lat="45.7400632444895" lon="9.963640238847624"><ele>1067.0</ele><time>2026-04-04T08:04:53.999Z</time></trkpt><trkpt lat="45.74012882720577" lon="9.963590874356957"><ele>1067.0</ele><time>2026-04-04T08:04:57.999Z</time></trkpt><trkpt lat="45.74019905484898" lon="9.963540708635318"><ele>1067.0</ele><time>2026-04-04T08:05:00.999Z</time></trkpt><trkpt lat="45.7402605370872" lon="9.963475241970661"><ele>1067.0</ele><time>2026-04-04T08:05:03.999Z</time></trkpt><trkpt lat="45.740314259487846" lon="9.963379251605465"><ele>1067.0</ele><time>2026-04-04T08:05:06.999Z</time></trkpt><trkpt lat="45.740347277007515" lon="9.963254753594724"><ele>1067.0</ele><time>2026-04-04T08:05:09.999Z</time></trkpt><trkpt lat="45.74035043383336" lon="9.963159473846433"><ele>1067.0</ele><time>2026-04-04T08:05:12.999Z</time></trkpt><trkpt lat="45.74033993592752" lon="9.963027882593387"><ele>1071.0</ele><time>2026-04-04T08:05:15.999Z</time></trkpt><trkpt lat="45.740335120928684" lon="9.962937167258728"><ele>1075.0</ele><time>2026-04-04T08:05:17.999Z</time></trkpt><trkpt lat="45.74032897914982" lon="9.962721238807674"><ele>1079.0</ele><time>2026-04-04T08:05:20.999Z</time></trkpt><trkpt lat="45.74035298793666" lon="9.962614294954522"><ele>1083.0</ele><time>2026-04-04T08:05:22.999Z</time></trkpt><trkpt lat="45.74038093078835" lon="9.962512331193878"><ele>1087.0</ele><time>2026-04-04T08:05:24.999Z</time></trkpt><trkpt lat="45.740404750066965" lon="9.96240957589706"><ele>1091.0</ele><time>2026-04-04T08:05:26.999Z</time></trkpt><trkpt lat="45.74043944808244" lon="9.962309141706092"><ele>1091.0</ele><time>2026-04-04T08:05:28.999Z</time></trkpt><trkpt lat="45.74047260127033" lon="9.962206736141031"><ele>1091.0</ele><time>2026-04-04T08:05:30.999Z</time></trkpt><trkpt lat="45.740503915957625" lon="9.962113974193066"><ele>1091.0</ele><time>2026-04-04T08:05:32.998Z</time></trkpt><trkpt lat="45.74054179745943" lon="9.962025855704438"><ele>1091.0</ele><time>2026-04-04T08:05:34.998Z</time></trkpt><trkpt lat="45.74058223514137" lon="9.961954143575635"><ele>1091.0</ele><time>2026-04-04T08:05:36.998Z</time></trkpt><trkpt lat="45.74062841474312" lon="9.961881794619343"><ele>1091.0</ele><time>2026-04-04T08:05:38.998Z</time></trkpt><trkpt lat="45.74068889217534" lon="9.961801634697618"><ele>1091.0</ele><time>2026-04-04T08:05:40.998Z</time></trkpt><trkpt lat="45.74073993579746" lon="9.961730564765224"><ele>1089.0</ele><time>2026-04-04T08:05:43.998Z</time></trkpt><trkpt lat="45.740797413272674" lon="9.961671039317732"><ele>1087.0</ele><time>2026-04-04T08:05:46.998Z</time></trkpt><trkpt lat="45.74086981418775" lon="9.96158952362046"><ele>1085.0</ele><time>2026-04-04T08:05:49.998Z</time></trkpt><trkpt lat="45.740928929305795" lon="9.961530816134598"><ele>1083.0</ele><time>2026-04-04T08:05:51.998Z</time></trkpt><trkpt lat="45.740998306077465" lon="9.961444583695618"><ele>1081.0</ele><time>2026-04-04T08:05:54.998Z</time></trkpt><trkpt lat="45.74105281379251" lon="9.961396245499373"><ele>1079.0</ele><time>2026-04-04T08:05:56.998Z</time></trkpt><trkpt lat="45.74112902108935" lon="9.96128446123959"><ele>1083.0</ele><time>2026-04-04T08:05:59.998Z</time></trkpt><trkpt lat="45.7411941484152" lon="9.961185812810458"><ele>1087.0</ele><time>2026-04-04T08:06:02.998Z</time></trkpt><trkpt lat="45.741235831323706" lon="9.96110767773052"><ele>1091.0</ele><time>2026-04-04T08:06:05Z</time></trkpt><trkpt lat="45.74128711981048" lon="9.961036504300521"><ele>1095.0</ele><time>2026-04-04T08:06:07Z</time></trkpt><trkpt lat="45.74139753367709" lon="9.960886559584578"><ele>1099.0</ele><time>2026-04-04T08:06:09Z</time></trkpt><trkpt lat="45.74144340463849" lon="9.960806625432928"><ele>1099.0</ele><time>2026-04-04T08:06:11Z</time></trkpt><trkpt lat="45.74148000117321" lon="9.960718428021552"><ele>1099.0</ele><time>2026-04-04T08:06:13Z</time></trkpt><trkpt lat="45.74151257823511" lon="9.960633174695412"><ele>1099.0</ele><time>2026-04-04T08:06:15Z</time></trkpt><trkpt lat="45.7415496928689" lon="9.960550989121913"><ele>1099.0</ele><time>2026-04-04T08:06:17Z</time></trkpt><trkpt lat="45.74158611744488" lon="9.96046445278623"><ele>1099.0</ele><time>2026-04-04T08:06:19Z</time></trkpt><trkpt lat="45.74163068139235" lon="9.960381707343823"><ele>1099.0</ele><time>2026-04-04T08:06:21Z</time></trkpt><trkpt lat="45.741672209556846" lon="9.96029782407123"><ele>1099.0</ele><time>2026-04-04T08:06:23Z</time></trkpt><trkpt lat="45.74173110480239" lon="9.960190395477891"><ele>1099.0</ele><time>2026-04-04T08:06:26Z</time></trkpt><trkpt lat="45.74176909658911" lon="9.960084520546715"><ele>1099.0</ele><time>2026-04-04T08:06:28Z</time></trkpt><trkpt lat="45.74170715938033" lon="9.960022393088819"><ele>1099.0</ele><time>2026-04-04T08:06:31Z</time></trkpt><trkpt lat="45.74167227577459" lon="9.959906595391583"><ele>1099.0</ele><time>2026-04-04T08:06:34Z</time></trkpt><trkpt lat="45.74163244441448" lon="9.959819529074748"><ele>1099.0</ele><time>2026-04-04T08:06:36Z</time></trkpt><trkpt lat="45.7415858533459" lon="9.959692991312949"><ele>1099.0</ele><time>2026-04-04T08:06:38.999Z</time></trkpt><trkpt lat="45.74132068793044" lon="9.959381497478633"><ele>1098.3333333333333</ele><time>2026-04-04T08:06:39.999Z</time></trkpt><trkpt lat="45.74126695728494" lon="9.959219700918116"><ele>1097.6666666666665</ele><time>2026-04-04T08:06:41.999Z</time></trkpt><trkpt lat="45.741245692131685" lon="9.959124277743408"><ele>1097.0</ele><time>2026-04-04T08:06:42.999Z</time></trkpt><trkpt lat="45.74124606419213" lon="9.959017839491304"><ele>1096.3333333333333</ele><time>2026-04-04T08:06:43.999Z</time></trkpt><trkpt lat="45.741276022306415" lon="9.958887161577488"><ele>1095.6666666666667</ele><time>2026-04-04T08:06:44.999Z</time></trkpt><trkpt lat="45.74128940403347" lon="9.958775970015836"><ele>1095.0</ele><time>2026-04-04T08:06:45.999Z</time></trkpt><trkpt lat="45.741302331847294" lon="9.958667702067002"><ele>1096.8333333333333</ele><time>2026-04-04T08:06:46.999Z</time></trkpt><trkpt lat="45.74132639373685" lon="9.958556357754658"><ele>1098.6666666666667</ele><time>2026-04-04T08:06:47.999Z</time></trkpt><trkpt lat="45.74134075076475" lon="9.958442648476941"><ele>1100.5</ele><time>2026-04-04T08:06:48.999Z</time></trkpt><trkpt lat="45.741339620668164" lon="9.958323097076228"><ele>1102.3333333333335</ele><time>2026-04-04T08:06:49.999Z</time></trkpt><trkpt lat="45.741298203209695" lon="9.95821722571868"><ele>1104.1666666666667</ele><time>2026-04-04T08:06:50.999Z</time></trkpt><trkpt lat="45.741226684689586" lon="9.958148707017008"><ele>1106.0</ele><time>2026-04-04T08:06:51.999Z</time></trkpt><trkpt lat="45.74116412848635" lon="9.958083860469564"><ele>1106.8333333333335</ele><time>2026-04-04T08:06:52.999Z</time></trkpt><trkpt lat="45.7410973657997" lon="9.958019335209416"><ele>1107.6666666666667</ele><time>2026-04-04T08:06:53.999Z</time></trkpt><trkpt lat="45.74101166888944" lon="9.958004873154946"><ele>1108.5</ele><time>2026-04-04T08:06:54.999Z</time></trkpt><trkpt lat="45.740933176907255" lon="9.957961882289974"><ele>1109.3333333333333</ele><time>2026-04-04T08:06:55.999Z</time></trkpt><trkpt lat="45.74086556696152" lon="9.957924640567521"><ele>1110.1666666666665</ele><time>2026-04-04T08:06:56.999Z</time></trkpt><trkpt lat="45.74079483452955" lon="9.957877991854613"><ele>1111.0</ele><time>2026-04-04T08:06:57.999Z</time></trkpt><trkpt lat="45.74072116285402" lon="9.957838943679675"><ele>1109.2</ele><time>2026-04-04T08:06:58.999Z</time></trkpt><trkpt lat="45.740608601594616" lon="9.957733472018543"><ele>1107.3999999999999</ele><time>2026-04-04T08:07:00.999Z</time></trkpt><trkpt lat="45.74053615446946" lon="9.95767505489771"><ele>1105.6</ele><time>2026-04-04T08:07:01.999Z</time></trkpt><trkpt lat="45.74046631667609" lon="9.957606232538"><ele>1103.8</ele><time>2026-04-04T08:07:02.999Z</time></trkpt><trkpt lat="45.74040122009195" lon="9.957532489056534"><ele>1102.0</ele><time>2026-04-04T08:07:03.999Z</time></trkpt><trkpt lat="45.74035046810317" lon="9.9574377488299"><ele>1102.0</ele><time>2026-04-04T08:07:04.999Z</time></trkpt><trkpt lat="45.740308993720674" lon="9.957331590184594"><ele>1102.0</ele><time>2026-04-04T08:07:05.999Z</time></trkpt><trkpt lat="45.7402782526644" lon="9.95722019101494"><ele>1102.0</ele><time>2026-04-04T08:07:06.999Z</time></trkpt><trkpt lat="45.740250325739716" lon="9.95711034618074"><ele>1102.0</ele><time>2026-04-04T08:07:07.999Z</time></trkpt><trkpt lat="45.74022526801136" lon="9.956999812168876"><ele>1102.0</ele><time>2026-04-04T08:07:08.999Z</time></trkpt><trkpt lat="45.74020173394448" lon="9.95689031874315"><ele>1102.0</ele><time>2026-04-04T08:07:09.999Z</time></trkpt><trkpt lat="45.740177624783726" lon="9.956788932440105"><ele>1100.3333333333333</ele><time>2026-04-04T08:07:10.999Z</time></trkpt><trkpt lat="45.740138823941905" lon="9.95669572760507"><ele>1098.6666666666665</ele><time>2026-04-04T08:07:11.999Z</time></trkpt><trkpt lat="45.74008081850206" lon="9.956622569009353"><ele>1097.0</ele><time>2026-04-04T08:07:12.999Z</time></trkpt><trkpt lat="45.7400041595963" lon="9.95658672460515"><ele>1095.3333333333333</ele><time>2026-04-04T08:07:13.999Z</time></trkpt><trkpt lat="45.739927561128425" lon="9.95655954478883"><ele>1093.6666666666667</ele><time>2026-04-04T08:07:14.999Z</time></trkpt><trkpt lat="45.73985472807232" lon="9.956531106812395"><ele>1092.0</ele><time>2026-04-04T08:07:15.999Z</time></trkpt><trkpt lat="45.73978727363342" lon="9.956493666739746"><ele>1092.0</ele><time>2026-04-04T08:07:16.999Z</time></trkpt><trkpt lat="45.73971869727461" lon="9.956454137649693"><ele>1092.0</ele><time>2026-04-04T08:07:17.999Z</time></trkpt><trkpt lat="45.73964904048933" lon="9.956423924613157"><ele>1092.0</ele><time>2026-04-04T08:07:18.999Z</time></trkpt><trkpt lat="45.739582461346096" lon="9.956391419672274"><ele>1092.0</ele><time>2026-04-04T08:07:19.999Z</time></trkpt><trkpt lat="45.73951765866975" lon="9.956354758834365"><ele>1092.0</ele><time>2026-04-04T08:07:20.999Z</time></trkpt><trkpt lat="45.73945069498748" lon="9.956327593297038"><ele>1092.0</ele><time>2026-04-04T08:07:21.999Z</time></trkpt><trkpt lat="45.73938556212311" lon="9.956302020130401"><ele>1092.0</ele><time>2026-04-04T08:07:22.999Z</time></trkpt><trkpt lat="45.73932055146301" lon="9.956272799720098"><ele>1088.857142857143</ele><time>2026-04-04T08:07:23.999Z</time></trkpt><trkpt lat="45.739256935765376" lon="9.956240513020683"><ele>1085.7142857142858</ele><time>2026-04-04T08:07:24.999Z</time></trkpt><trkpt lat="45.73919269880515" lon="9.956203989748222"><ele>1082.5714285714284</ele><time>2026-04-04T08:07:25.999Z</time></trkpt><trkpt lat="45.7391276811187" lon="9.956163649708492"><ele>1079.4285714285716</ele><time>2026-04-04T08:07:26.999Z</time></trkpt><trkpt lat="45.739064811885626" lon="9.95612378200407"><ele>1076.2857142857142</ele><time>2026-04-04T08:07:27.999Z</time></trkpt><trkpt lat="45.73900087505439" lon="9.956082030943158"><ele>1073.142857142857</ele><time>2026-04-04T08:07:28.999Z</time></trkpt><trkpt lat="45.738938752064826" lon="9.956045855682211"><ele>1070.0</ele><time>2026-04-04T08:07:29.999Z</time></trkpt><trkpt lat="45.73887153241606" lon="9.956011147922897"><ele>1070.0</ele><time>2026-04-04T08:07:30.998Z</time></trkpt><trkpt lat="45.73880943117813" lon="9.955973988853138"><ele>1070.0</ele><time>2026-04-04T08:07:31.998Z</time></trkpt><trkpt lat="45.738744149956986" lon="9.955942792016682"><ele>1070.0</ele><time>2026-04-04T08:07:32.998Z</time></trkpt><trkpt lat="45.73867768462401" lon="9.95590805192242"><ele>1070.0</ele><time>2026-04-04T08:07:33.998Z</time></trkpt><trkpt lat="45.738609352783385" lon="9.955875604179772"><ele>1070.0</ele><time>2026-04-04T08:07:34.998Z</time></trkpt><trkpt lat="45.73854563949294" lon="9.95582687647403"><ele>1070.0</ele><time>2026-04-04T08:07:35.998Z</time></trkpt><trkpt lat="45.73847166004697" lon="9.955804763059001"><ele>1070.0</ele><time>2026-04-04T08:07:36.998Z</time></trkpt><trkpt lat="45.7384025434371" lon="9.955768846262172"><ele>1071.2857142857142</ele><time>2026-04-04T08:07:37.998Z</time></trkpt><trkpt lat="45.73833520879297" lon="9.955728558904587"><ele>1072.5714285714287</ele><time>2026-04-04T08:07:38.998Z</time></trkpt><trkpt lat="45.73826667921782" lon="9.955685690079958"><ele>1073.857142857143</ele><time>2026-04-04T08:07:39.998Z</time></trkpt><trkpt lat="45.738196632981264" lon="9.955646712604976"><ele>1075.142857142857</ele><time>2026-04-04T08:07:40.998Z</time></trkpt><trkpt lat="45.73813140611249" lon="9.955602081977567"><ele>1076.4285714285713</ele><time>2026-04-04T08:07:41.998Z</time></trkpt><trkpt lat="45.73806577527529" lon="9.955562285616969"><ele>1077.7142857142858</ele><time>2026-04-04T08:07:42.998Z</time></trkpt><trkpt lat="45.737995606759206" lon="9.955519946660852"><ele>1079.0</ele><time>2026-04-04T08:07:43.998Z</time></trkpt><trkpt lat="45.73792922320795" lon="9.955481589251976"><ele>1079.0</ele><time>2026-04-04T08:07:44.998Z</time></trkpt><trkpt lat="45.737864206568865" lon="9.955437179563866"><ele>1079.0</ele><time>2026-04-04T08:07:45.998Z</time></trkpt><trkpt lat="45.73779996418733" lon="9.955392067606207"><ele>1079.0</ele><time>2026-04-04T08:07:46.998Z</time></trkpt><trkpt lat="45.73773246198876" lon="9.955351836843134"><ele>1079.0</ele><time>2026-04-04T08:07:47.998Z</time></trkpt><trkpt lat="45.7376662923792" lon="9.955310747644967"><ele>1079.0</ele><time>2026-04-04T08:07:48.998Z</time></trkpt><trkpt lat="45.73760088229229" lon="9.95526681739338"><ele>1079.0</ele><time>2026-04-04T08:07:49.998Z</time></trkpt><trkpt lat="45.73753504588356" lon="9.955225203702947"><ele>1079.0</ele><time>2026-04-04T08:07:50.998Z</time></trkpt><trkpt lat="45.737471029455456" lon="9.955178368695316"><ele>1080.7142857142858</ele><time>2026-04-04T08:07:51.998Z</time></trkpt><trkpt lat="45.737402208561264" lon="9.955137011634486"><ele>1082.4285714285713</ele><time>2026-04-04T08:07:52.998Z</time></trkpt><trkpt lat="45.73734169724061" lon="9.95509645410601"><ele>1084.142857142857</ele><time>2026-04-04T08:07:53.998Z</time></trkpt><trkpt lat="45.737275923655694" lon="9.95505230379934"><ele>1085.857142857143</ele><time>2026-04-04T08:07:54.998Z</time></trkpt><trkpt lat="45.73720183062777" lon="9.954999420543675"><ele>1087.5714285714287</ele><time>2026-04-04T08:07:55.998Z</time></trkpt><trkpt lat="45.73713837324014" lon="9.954957300817746"><ele>1089.2857142857142</ele><time>2026-04-04T08:07:56.998Z</time></trkpt><trkpt lat="45.73707566079632" lon="9.954917252937562"><ele>1091.0</ele><time>2026-04-04T08:07:57.998Z</time></trkpt><trkpt lat="45.737000803619175" lon="9.954881535424748"><ele>1091.0</ele><time>2026-04-04T08:07:58.998Z</time></trkpt><trkpt lat="45.73692620589161" lon="9.954853240009353"><ele>1091.0</ele><time>2026-04-04T08:07:59.998Z</time></trkpt><trkpt lat="45.736847909715706" lon="9.954831071225449"><ele>1091.0</ele><time>2026-04-04T08:08:00.998Z</time></trkpt><trkpt lat="45.7367734510599" lon="9.95481186287226"><ele>1091.0</ele><time>2026-04-04T08:08:01.998Z</time></trkpt><trkpt lat="45.73669902847085" lon="9.954799407703554"><ele>1091.0</ele><time>2026-04-04T08:08:02.998Z</time></trkpt><trkpt lat="45.73662636780757" lon="9.954790625905408"><ele>1091.0</ele><time>2026-04-04T08:08:03.998Z</time></trkpt><trkpt lat="45.73655671453803" lon="9.954783495816828"><ele>1088.2857142857142</ele><time>2026-04-04T08:08:04.998Z</time></trkpt><trkpt lat="45.736485787890246" lon="9.954789076120923"><ele>1085.5714285714287</ele><time>2026-04-04T08:08:05.998Z</time></trkpt><trkpt lat="45.736416626317364" lon="9.954784472513058"><ele>1082.857142857143</ele><time>2026-04-04T08:08:06.998Z</time></trkpt><trkpt lat="45.736348544745084" lon="9.954783171334403"><ele>1080.142857142857</ele><time>2026-04-04T08:08:07.998Z</time></trkpt><trkpt lat="45.736280502375806" lon="9.954789398113508"><ele>1077.4285714285713</ele><time>2026-04-04T08:08:08.998Z</time></trkpt><trkpt lat="45.73621132642354" lon="9.954792169866217"><ele>1074.7142857142858</ele><time>2026-04-04T08:08:10Z</time></trkpt><trkpt lat="45.73614732287911" lon="9.954808661941033"><ele>1072.0</ele><time>2026-04-04T08:08:11Z</time></trkpt><trkpt lat="45.736081671804996" lon="9.954819354100861"><ele>1071.8333333333333</ele><time>2026-04-04T08:08:12Z</time></trkpt><trkpt lat="45.73601027318649" lon="9.954831740828542"><ele>1071.6666666666665</ele><time>2026-04-04T08:08:13Z</time></trkpt><trkpt lat="45.73594340738457" lon="9.954848722495326"><ele>1071.5</ele><time>2026-04-04T08:08:14Z</time></trkpt><trkpt lat="45.73581397929668" lon="9.954884641553077"><ele>1071.3333333333333</ele><time>2026-04-04T08:08:16Z</time></trkpt><trkpt lat="45.735747941035164" lon="9.95490775143662"><ele>1071.1666666666667</ele><time>2026-04-04T08:08:17Z</time></trkpt><trkpt lat="45.735681559364025" lon="9.954933146091511"><ele>1071.0</ele><time>2026-04-04T08:08:18Z</time></trkpt><trkpt lat="45.73561154893047" lon="9.954965368170699"><ele>1071.0</ele><time>2026-04-04T08:08:19Z</time></trkpt><trkpt lat="45.735547923336505" lon="9.954991318530277"><ele>1071.0</ele><time>2026-04-04T08:08:20Z</time></trkpt><trkpt lat="45.73548378474881" lon="9.955025739621755"><ele>1071.0</ele><time>2026-04-04T08:08:21Z</time></trkpt><trkpt lat="45.735420146405396" lon="9.955063798260085"><ele>1071.0</ele><time>2026-04-04T08:08:22Z</time></trkpt><trkpt lat="45.735360215919435" lon="9.955095235429848"><ele>1071.0</ele><time>2026-04-04T08:08:23Z</time></trkpt><trkpt lat="45.73528984500427" lon="9.955124531275779"><ele>1071.0</ele><time>2026-04-04T08:08:24Z</time></trkpt><trkpt lat="45.73517746000952" lon="9.955192973930622"><ele>1067.3999999999999</ele><time>2026-04-04T08:08:26Z</time></trkpt><trkpt lat="45.735060996244385" lon="9.955266057379033"><ele>1063.8</ele><time>2026-04-04T08:08:28Z</time></trkpt><trkpt lat="45.73500075907842" lon="9.955304132784741"><ele>1060.1999999999998</ele><time>2026-04-04T08:08:29Z</time></trkpt><trkpt lat="45.73493692597283" lon="9.955338116415513"><ele>1056.6</ele><time>2026-04-04T08:08:30Z</time></trkpt><trkpt lat="45.73482098704835" lon="9.955401984015788"><ele>1053.0</ele><time>2026-04-04T08:08:32Z</time></trkpt><trkpt lat="45.73475836126739" lon="9.95542656336736"><ele>1053.0</ele><time>2026-04-04T08:08:33Z</time></trkpt><trkpt lat="45.734698581997264" lon="9.955459084642035"><ele>1053.0</ele><time>2026-04-04T08:08:34Z</time></trkpt><trkpt lat="45.73458192175348" lon="9.955505445077572"><ele>1053.0</ele><time>2026-04-04T08:08:36Z</time></trkpt><trkpt lat="45.73445849749227" lon="9.955534521357006"><ele>1053.0</ele><time>2026-04-04T08:08:38Z</time></trkpt><trkpt lat="45.73439487934666" lon="9.955544628454543"><ele>1053.0</ele><time>2026-04-04T08:08:39Z</time></trkpt><trkpt lat="45.73433055107002" lon="9.955554074938828"><ele>1053.0</ele><time>2026-04-04T08:08:40Z</time></trkpt><trkpt lat="45.73426276334039" lon="9.955558787133084"><ele>1053.4285714285713</ele><time>2026-04-04T08:08:41Z</time></trkpt><trkpt lat="45.73419544683156" lon="9.955577400764954"><ele>1053.857142857143</ele><time>2026-04-04T08:08:42Z</time></trkpt><trkpt lat="45.73412294798737" lon="9.955579498253424"><ele>1054.2857142857142</ele><time>2026-04-04T08:08:42.999Z</time></trkpt><trkpt lat="45.734048573533016" lon="9.955575068366537"><ele>1054.7142857142858</ele><time>2026-04-04T08:08:43.999Z</time></trkpt><trkpt lat="45.733972869587575" lon="9.955568262779147"><ele>1055.142857142857</ele><time>2026-04-04T08:08:44.999Z</time></trkpt><trkpt lat="45.73390118797666" lon="9.955571713111528"><ele>1055.5714285714284</ele><time>2026-04-04T08:08:45.999Z</time></trkpt><trkpt lat="45.7338300827073" lon="9.955561444122763"><ele>1056.0</ele><time>2026-04-04T08:08:46.999Z</time></trkpt><trkpt lat="45.73375857673647" lon="9.955558060516859"><ele>1056.0</ele><time>2026-04-04T08:08:47.999Z</time></trkpt><trkpt lat="45.73369030509904" lon="9.955545617894"><ele>1056.0</ele><time>2026-04-04T08:08:48.999Z</time></trkpt><trkpt lat="45.73362272529398" lon="9.95553734272629"><ele>1056.0</ele><time>2026-04-04T08:08:49.999Z</time></trkpt><trkpt lat="45.73355559817703" lon="9.95552404915076"><ele>1056.0</ele><time>2026-04-04T08:08:50.999Z</time></trkpt><trkpt lat="45.73348932770667" lon="9.955511784719578"><ele>1056.0</ele><time>2026-04-04T08:08:51.999Z</time></trkpt><trkpt lat="45.733374275781685" lon="9.955484745919417"><ele>1056.0</ele><time>2026-04-04T08:08:53.999Z</time></trkpt><trkpt lat="45.733290108204926" lon="9.955418566726452"><ele>1056.0</ele><time>2026-04-04T08:08:55.999Z</time></trkpt><trkpt lat="45.733325998031006" lon="9.955222085241916"><ele>1056.0</ele><time>2026-04-04T08:08:59.999Z</time></trkpt><trkpt lat="45.733383219589854" lon="9.955177084424516"><ele>1056.0</ele><time>2026-04-04T08:09:02.999Z</time></trkpt><trkpt lat="45.73343162712201" lon="9.955117086160776"><ele>1056.0</ele><time>2026-04-04T08:09:05.999Z</time></trkpt><trkpt lat="45.73348652262543" lon="9.955063446059768"><ele>1056.0</ele><time>2026-04-04T08:09:08.999Z</time></trkpt><trkpt lat="45.733543942401674" lon="9.955002471388118"><ele>1056.0</ele><time>2026-04-04T08:09:11.999Z</time></trkpt><trkpt lat="45.733609417373614" lon="9.954942503945297"><ele>1059.7142857142858</ele><time>2026-04-04T08:09:15.999Z</time></trkpt><trkpt lat="45.733680678459905" lon="9.954870049348353"><ele>1063.4285714285716</ele><time>2026-04-04T08:09:19.999Z</time></trkpt><trkpt lat="45.73373283458648" lon="9.954814831040574"><ele>1067.1428571428573</ele><time>2026-04-04T08:09:22.999Z</time></trkpt><trkpt lat="45.73378500832082" lon="9.954759714356818"><ele>1070.857142857143</ele><time>2026-04-04T08:09:25.999Z</time></trkpt><trkpt lat="45.73384013183222" lon="9.954704154585013"><ele>1074.5714285714287</ele><time>2026-04-04T08:09:28.999Z</time></trkpt><trkpt lat="45.73389773679985" lon="9.95463698549906"><ele>1078.2857142857144</ele><time>2026-04-04T08:09:32.999Z</time></trkpt><trkpt lat="45.73395164049324" lon="9.954586472442653"><ele>1082.0</ele><time>2026-04-04T08:09:35.998Z</time></trkpt><trkpt lat="45.73401695148644" lon="9.954514676225193"><ele>1082.0</ele><time>2026-04-04T08:09:39.998Z</time></trkpt><trkpt lat="45.73408131579004" lon="9.954450497484489"><ele>1082.0</ele><time>2026-04-04T08:09:43.998Z</time></trkpt><trkpt lat="45.73415162033698" lon="9.954384693597092"><ele>1082.0</ele><time>2026-04-04T08:09:47.998Z</time></trkpt><trkpt lat="45.73421153963891" lon="9.954322699994716"><ele>1082.0</ele><time>2026-04-04T08:09:51.998Z</time></trkpt><trkpt lat="45.734259972825214" lon="9.954259426867125"><ele>1082.0</ele><time>2026-04-04T08:09:54.998Z</time></trkpt><trkpt lat="45.73430290176576" lon="9.9541795024239"><ele>1082.0</ele><time>2026-04-04T08:09:58.998Z</time></trkpt><trkpt lat="45.73435123279361" lon="9.954083314388932"><ele>1084.7142857142858</ele><time>2026-04-04T08:10:02.998Z</time></trkpt><trkpt lat="45.73440589582551" lon="9.954003855915788"><ele>1087.4285714285716</ele><time>2026-04-04T08:10:06.998Z</time></trkpt><trkpt lat="45.73445038533575" lon="9.953930484208664"><ele>1090.142857142857</ele><time>2026-04-04T08:10:10.998Z</time></trkpt><trkpt lat="45.73450345323522" lon="9.953854963677822"><ele>1092.857142857143</ele><time>2026-04-04T08:10:13.998Z</time></trkpt><trkpt lat="45.73455784006189" lon="9.953797053866214"><ele>1095.5714285714284</ele><time>2026-04-04T08:10:18Z</time></trkpt><trkpt lat="45.73460934676722" lon="9.953736672564983"><ele>1098.2857142857142</ele><time>2026-04-04T08:10:21Z</time></trkpt><trkpt lat="45.73466522584758" lon="9.95366316691577"><ele>1101.0</ele><time>2026-04-04T08:10:25Z</time></trkpt><trkpt lat="45.73472007340918" lon="9.953592023887246"><ele>1101.0</ele><time>2026-04-04T08:10:28Z</time></trkpt><trkpt lat="45.73477817664524" lon="9.953530656429553"><ele>1101.0</ele><time>2026-04-04T08:10:32Z</time></trkpt><trkpt lat="45.734832658383446" lon="9.9534773589082"><ele>1101.0</ele><time>2026-04-04T08:10:35Z</time></trkpt><trkpt lat="45.73488176733009" lon="9.95341098970573"><ele>1101.0</ele><time>2026-04-04T08:10:38Z</time></trkpt><trkpt lat="45.734949644549744" lon="9.953370875362806"><ele>1101.0</ele><time>2026-04-04T08:10:42Z</time></trkpt><trkpt lat="45.73500682330159" lon="9.95330530849261"><ele>1101.0</ele><time>2026-04-04T08:10:45Z</time></trkpt><trkpt lat="45.73507190690265" lon="9.953219534451026"><ele>1101.0</ele><time>2026-04-04T08:10:48.999Z</time></trkpt><trkpt lat="45.73512965127744" lon="9.953166880101682"><ele>1100.0</ele><time>2026-04-04T08:10:52.999Z</time></trkpt><trkpt lat="45.735188191114425" lon="9.9531317444043"><ele>1099.0</ele><time>2026-04-04T08:10:55.999Z</time></trkpt><trkpt lat="45.73526233444155" lon="9.953104486751077"><ele>1098.0</ele><time>2026-04-04T08:10:59.999Z</time></trkpt><trkpt lat="45.735333156020744" lon="9.953087389503931"><ele>1097.0</ele><time>2026-04-04T08:11:03.999Z</time></trkpt><trkpt lat="45.73541210629125" lon="9.953056622980158"><ele>1096.0</ele><time>2026-04-04T08:11:07.999Z</time></trkpt><trkpt lat="45.735493260660526" lon="9.95301471379449"><ele>1095.0</ele><time>2026-04-04T08:11:11.999Z</time></trkpt><trkpt lat="45.735554881863024" lon="9.95296182037524"><ele>1096.7142857142856</ele><time>2026-04-04T08:11:14.999Z</time></trkpt><trkpt lat="45.73561399559571" lon="9.952895499081922"><ele>1098.4285714285713</ele><time>2026-04-04T08:11:18.999Z</time></trkpt><trkpt lat="45.7356654607397" lon="9.952830473156208"><ele>1100.142857142857</ele><time>2026-04-04T08:11:21.999Z</time></trkpt><trkpt lat="45.73571711474459" lon="9.952743309458134"><ele>1101.8571428571427</ele><time>2026-04-04T08:11:24.999Z</time></trkpt><trkpt lat="45.73576608748763" lon="9.95265719157128"><ele>1103.5714285714284</ele><time>2026-04-04T08:11:28.999Z</time></trkpt><trkpt lat="45.7358088255781" lon="9.952581373903602"><ele>1105.2857142857142</ele><time>2026-04-04T08:11:31.999Z</time></trkpt><trkpt lat="45.735850871556806" lon="9.952510234109607"><ele>1107.0</ele><time>2026-04-04T08:11:34.999Z</time></trkpt><trkpt lat="45.73590636352593" lon="9.952435929842437"><ele>1107.0</ele><time>2026-04-04T08:11:37.999Z</time></trkpt><trkpt lat="45.735965807900925" lon="9.95237044074495"><ele>1107.0</ele><time>2026-04-04T08:11:41.998Z</time></trkpt><trkpt lat="45.73601101136532" lon="9.952305903886149"><ele>1107.0</ele><time>2026-04-04T08:11:44.998Z</time></trkpt><trkpt lat="45.73606464840968" lon="9.95224849130729"><ele>1107.0</ele><time>2026-04-04T08:11:47.998Z</time></trkpt><trkpt lat="45.73612401544502" lon="9.952175658744387"><ele>1107.0</ele><time>2026-04-04T08:11:50.998Z</time></trkpt><trkpt lat="45.73619725213016" lon="9.952098972636849"><ele>1107.0</ele><time>2026-04-04T08:11:54.998Z</time></trkpt><trkpt lat="45.73625563380869" lon="9.952029709588022"><ele>1110.0</ele><time>2026-04-04T08:11:58.998Z</time></trkpt><trkpt lat="45.73631670950359" lon="9.951962029879674"><ele>1113.0</ele><time>2026-04-04T08:12:02.998Z</time></trkpt><trkpt lat="45.7363759143751" lon="9.951891836028597"><ele>1116.0</ele><time>2026-04-04T08:12:05.998Z</time></trkpt><trkpt lat="45.73643517557256" lon="9.951807232602967"><ele>1119.0</ele><time>2026-04-04T08:12:09.998Z</time></trkpt><trkpt lat="45.73648991451687" lon="9.95171914511732"><ele>1122.0</ele><time>2026-04-04T08:12:13.998Z</time></trkpt><trkpt lat="45.73653629487156" lon="9.951644169958852"><ele>1125.0</ele><time>2026-04-04T08:12:17.998Z</time></trkpt><trkpt lat="45.736601633581934" lon="9.951541851797467"><ele>1125.0</ele><time>2026-04-04T08:12:22Z</time></trkpt><trkpt lat="45.73664863698164" lon="9.9514688477194"><ele>1125.0</ele><time>2026-04-04T08:12:26Z</time></trkpt><trkpt lat="45.736685972329134" lon="9.951391972466727"><ele>1125.0</ele><time>2026-04-04T08:12:29Z</time></trkpt><trkpt lat="45.736728693689706" lon="9.951319055209302"><ele>1125.0</ele><time>2026-04-04T08:12:32Z</time></trkpt><trkpt lat="45.736768414768214" lon="9.951243967932692"><ele>1125.0</ele><time>2026-04-04T08:12:35Z</time></trkpt><trkpt lat="45.7368091825729" lon="9.951159436503591"><ele>1125.0</ele><time>2026-04-04T08:12:38Z</time></trkpt><trkpt lat="45.73685273439047" lon="9.951078494424802"><ele>1125.0</ele><time>2026-04-04T08:12:42Z</time></trkpt><trkpt lat="45.73688923393024" lon="9.951004247963777"><ele>1128.7142857142858</ele><time>2026-04-04T08:12:45Z</time></trkpt><trkpt lat="45.736931444122696" lon="9.950919587510931"><ele>1132.4285714285716</ele><time>2026-04-04T08:12:48Z</time></trkpt><trkpt lat="45.736970406073624" lon="9.950827185313114"><ele>1136.142857142857</ele><time>2026-04-04T08:12:51.999Z</time></trkpt><trkpt lat="45.73700652446621" lon="9.950745879151686"><ele>1139.857142857143</ele><time>2026-04-04T08:12:54.999Z</time></trkpt><trkpt lat="45.737044473600754" lon="9.950646196977445"><ele>1143.5714285714284</ele><time>2026-04-04T08:12:57.999Z</time></trkpt><trkpt lat="45.73708150453882" lon="9.950557470266357"><ele>1147.2857142857142</ele><time>2026-04-04T08:13:01.999Z</time></trkpt><trkpt lat="45.737114282981224" lon="9.950476571269832"><ele>1151.0</ele><time>2026-04-04T08:13:04.999Z</time></trkpt><trkpt lat="45.73714800428601" lon="9.950395563124243"><ele>1150.9999999999998</ele><time>2026-04-04T08:13:07.999Z</time></trkpt><trkpt lat="45.73718858620975" lon="9.950318319815334"><ele>1151.0</ele><time>2026-04-04T08:13:10.999Z</time></trkpt><trkpt lat="45.73722927846598" lon="9.95024278938811"><ele>1151.0</ele><time>2026-04-04T08:13:13.999Z</time></trkpt><trkpt lat="45.737274997577366" lon="9.950167264529306"><ele>1151.0</ele><time>2026-04-04T08:13:16.999Z</time></trkpt><trkpt lat="45.73732340149478" lon="9.950091904251005"><ele>1151.0</ele><time>2026-04-04T08:13:20.999Z</time></trkpt><trkpt lat="45.73737129185791" lon="9.95002815092096"><ele>1150.9999999999998</ele><time>2026-04-04T08:13:23.999Z</time></trkpt><trkpt lat="45.73742170623283" lon="9.949959555052347"><ele>1151.0</ele><time>2026-04-04T08:13:26.999Z</time></trkpt><trkpt lat="45.73747655536989" lon="9.949898966515567"><ele>1149.142857142857</ele><time>2026-04-04T08:13:29.999Z</time></trkpt><trkpt lat="45.737539830936086" lon="9.949827310160387"><ele>1147.2857142857142</ele><time>2026-04-04T08:13:33.999Z</time></trkpt><trkpt lat="45.73759196662125" lon="9.949770331419916"><ele>1145.4285714285716</ele><time>2026-04-04T08:13:36.999Z</time></trkpt><trkpt lat="45.7376590392255" lon="9.94971809344788"><ele>1143.5714285714284</ele><time>2026-04-04T08:13:39.999Z</time></trkpt><trkpt lat="45.737723600744026" lon="9.949669837360895"><ele>1141.7142857142858</ele><time>2026-04-04T08:13:43.998Z</time></trkpt><trkpt lat="45.73777978664562" lon="9.949621541154967"><ele>1139.857142857143</ele><time>2026-04-04T08:13:46.998Z</time></trkpt><trkpt lat="45.737834927092294" lon="9.949564988868266"><ele>1138.0</ele><time>2026-04-04T08:13:49.998Z</time></trkpt><trkpt lat="45.73789848257883" lon="9.949499586589278"><ele>1140.0000000000002</ele><time>2026-04-04T08:13:52.998Z</time></trkpt><trkpt lat="45.73794964847099" lon="9.949428601230812"><ele>1142.0</ele><time>2026-04-04T08:13:56.998Z</time></trkpt><trkpt lat="45.73799305374935" lon="9.949358889954862"><ele>1144.0</ele><time>2026-04-04T08:13:59.998Z</time></trkpt><trkpt lat="45.738032839384466" lon="9.94928282996959"><ele>1146.0</ele><time>2026-04-04T08:14:02.998Z</time></trkpt><trkpt lat="45.73807939714294" lon="9.949203802515683"><ele>1148.0</ele><time>2026-04-04T08:14:05.998Z</time></trkpt><trkpt lat="45.738129722709814" lon="9.94913122809879"><ele>1150.0000000000002</ele><time>2026-04-04T08:14:09.998Z</time></trkpt><trkpt lat="45.7381833564281" lon="9.94907290108518"><ele>1152.0</ele><time>2026-04-04T08:14:12.998Z</time></trkpt><trkpt lat="45.738256571825254" lon="9.94901124841482"><ele>1152.0000000000002</ele><time>2026-04-04T08:14:16.998Z</time></trkpt><trkpt lat="45.73832405892633" lon="9.948975808955705"><ele>1152.0</ele><time>2026-04-04T08:14:19.998Z</time></trkpt><trkpt lat="45.73840040465853" lon="9.948937043809522"><ele>1152.0</ele><time>2026-04-04T08:14:23.998Z</time></trkpt><trkpt lat="45.738464142449516" lon="9.948916350735171"><ele>1152.0</ele><time>2026-04-04T08:14:28Z</time></trkpt><trkpt lat="45.738533261872945" lon="9.948909119690304"><ele>1152.0</ele><time>2026-04-04T08:14:31Z</time></trkpt><trkpt lat="45.73859835097853" lon="9.948907275019206"><ele>1152.0000000000002</ele><time>2026-04-04T08:14:34Z</time></trkpt><trkpt lat="45.73867397832409" lon="9.94890163979891"><ele>1152.0</ele><time>2026-04-04T08:14:37Z</time></trkpt><trkpt lat="45.738746809753906" lon="9.9488982586219"><ele>1154.5714285714287</ele><time>2026-04-04T08:14:41Z</time></trkpt><trkpt lat="45.738811962153115" lon="9.94889226536167"><ele>1157.142857142857</ele><time>2026-04-04T08:14:44Z</time></trkpt><trkpt lat="45.73887819194365" lon="9.94888135259686"><ele>1159.7142857142858</ele><time>2026-04-04T08:14:47Z</time></trkpt><trkpt lat="45.738946735657855" lon="9.948865523882395"><ele>1162.2857142857142</ele><time>2026-04-04T08:14:50Z</time></trkpt><trkpt lat="45.73902067866428" lon="9.948834427430075"><ele>1164.857142857143</ele><time>2026-04-04T08:14:53Z</time></trkpt><trkpt lat="45.739080844921006" lon="9.948760557266592"><ele>1167.4285714285716</ele><time>2026-04-04T08:14:56.999Z</time></trkpt><trkpt lat="45.73912002060978" lon="9.948680874172844"><ele>1170.0</ele><time>2026-04-04T08:14:59.999Z</time></trkpt><trkpt lat="45.739162375497834" lon="9.948589097711274"><ele>1170.0</ele><time>2026-04-04T08:15:02.999Z</time></trkpt><trkpt lat="45.73920912180102" lon="9.948502774102788"><ele>1170.0</ele><time>2026-04-04T08:15:06.999Z</time></trkpt><trkpt lat="45.73924626965191" lon="9.948427907881376"><ele>1170.0</ele><time>2026-04-04T08:15:09.999Z</time></trkpt><trkpt lat="45.73929722618737" lon="9.948359263058943"><ele>1170.0</ele><time>2026-04-04T08:15:12.999Z</time></trkpt><trkpt lat="45.73935202914291" lon="9.948305517396399"><ele>1170.0</ele><time>2026-04-04T08:15:15.999Z</time></trkpt><trkpt lat="45.739422979324736" lon="9.94826292247386"><ele>1170.0</ele><time>2026-04-04T08:15:19.999Z</time></trkpt><trkpt lat="45.73948361801157" lon="9.948228378051843"><ele>1170.0</ele><time>2026-04-04T08:15:22.999Z</time></trkpt><trkpt lat="45.73954004521283" lon="9.948185269408471"><ele>1171.142857142857</ele><time>2026-04-04T08:15:25.999Z</time></trkpt><trkpt lat="45.73961031003889" lon="9.94815853588525"><ele>1172.2857142857142</ele><time>2026-04-04T08:15:29.999Z</time></trkpt><trkpt lat="45.73969112397727" lon="9.948107697256239"><ele>1173.4285714285713</ele><time>2026-04-04T08:15:33.999Z</time></trkpt><trkpt lat="45.73975201155552" lon="9.948061437217827"><ele>1174.5714285714284</ele><time>2026-04-04T08:15:37.999Z</time></trkpt><trkpt lat="45.73981573618722" lon="9.948012745870818"><ele>1175.7142857142856</ele><time>2026-04-04T08:15:40.999Z</time></trkpt><trkpt lat="45.73988169059523" lon="9.947954447009424"><ele>1176.857142857143</ele><time>2026-04-04T08:15:44.999Z</time></trkpt><trkpt lat="45.739935928592715" lon="9.947898324102919"><ele>1178.0</ele><time>2026-04-04T08:15:47.998Z</time></trkpt><trkpt lat="45.73998725030682" lon="9.94784025423967"><ele>1178.0</ele><time>2026-04-04T08:15:50.998Z</time></trkpt><trkpt lat="45.74003742459607" lon="9.947780056258237"><ele>1178.0</ele><time>2026-04-04T08:15:53.998Z</time></trkpt><trkpt lat="45.740099357544544" lon="9.947711703842888"><ele>1178.0</ele><time>2026-04-04T08:15:57.998Z</time></trkpt><trkpt lat="45.740159973078136" lon="9.947636565268683"><ele>1178.0</ele><time>2026-04-04T08:16:00.998Z</time></trkpt><trkpt lat="45.74021055717211" lon="9.94755969859191"><ele>1178.0</ele><time>2026-04-04T08:16:04.998Z</time></trkpt><trkpt lat="45.74026319296447" lon="9.947505996263809"><ele>1178.0</ele><time>2026-04-04T08:16:07.998Z</time></trkpt><trkpt lat="45.740310799082174" lon="9.94743807391585"><ele>1178.0</ele><time>2026-04-04T08:16:10.998Z</time></trkpt><trkpt lat="45.740362569397575" lon="9.947372097827015"><ele>1180.5714285714284</ele><time>2026-04-04T08:16:13.998Z</time></trkpt><trkpt lat="45.740410410689805" lon="9.947301855101621"><ele>1183.142857142857</ele><time>2026-04-04T08:16:16.998Z</time></trkpt><trkpt lat="45.74045433371105" lon="9.947207979103036"><ele>1185.7142857142858</ele><time>2026-04-04T08:16:19.998Z</time></trkpt><trkpt lat="45.740495902276585" lon="9.947115672040654"><ele>1188.2857142857142</ele><time>2026-04-04T08:16:23.998Z</time></trkpt><trkpt lat="45.740538364168664" lon="9.94702791762061"><ele>1190.857142857143</ele><time>2026-04-04T08:16:26.998Z</time></trkpt><trkpt lat="45.74057139218543" lon="9.946940022884364"><ele>1193.4285714285713</ele><time>2026-04-04T08:16:29.998Z</time></trkpt><trkpt lat="45.74060066610133" lon="9.94685354656711"><ele>1196.0</ele><time>2026-04-04T08:16:34Z</time></trkpt><trkpt lat="45.740628828195845" lon="9.946766006034398"><ele>1194.7142857142858</ele><time>2026-04-04T08:16:37Z</time></trkpt><trkpt lat="45.74066793310778" lon="9.946666383066132"><ele>1193.4285714285716</ele><time>2026-04-04T08:16:40Z</time></trkpt><trkpt lat="45.740707690333664" lon="9.946579443791993"><ele>1192.1428571428573</ele><time>2026-04-04T08:16:44Z</time></trkpt><trkpt lat="45.740748253459714" lon="9.946507022467554"><ele>1190.857142857143</ele><time>2026-04-04T08:16:47Z</time></trkpt><trkpt lat="45.74079992594232" lon="9.946441105199414"><ele>1189.5714285714287</ele><time>2026-04-04T08:16:50Z</time></trkpt><trkpt lat="45.740856430135615" lon="9.94636303685195"><ele>1188.2857142857144</ele><time>2026-04-04T08:16:53Z</time></trkpt><trkpt lat="45.74089981780708" lon="9.94627354778685"><ele>1187.0</ele><time>2026-04-04T08:16:57Z</time></trkpt><trkpt lat="45.7409330620546" lon="9.9461898732433"><ele>1187.0000000000002</ele><time>2026-04-04T08:16:59.999Z</time></trkpt><trkpt lat="45.74095874375299" lon="9.946099808473749"><ele>1187.0</ele><time>2026-04-04T08:17:02.999Z</time></trkpt><trkpt lat="45.74097675045913" lon="9.945991455683588"><ele>1187.0</ele><time>2026-04-04T08:17:05.999Z</time></trkpt><trkpt lat="45.74100005457912" lon="9.945890027831904"><ele>1187.0</ele><time>2026-04-04T08:17:09.999Z</time></trkpt><trkpt lat="45.74102060137273" lon="9.945798486666433"><ele>1187.0</ele><time>2026-04-04T08:17:12.999Z</time></trkpt><trkpt lat="45.741043828590904" lon="9.94570396387262"><ele>1187.0000000000002</ele><time>2026-04-04T08:17:15.999Z</time></trkpt><trkpt lat="45.74107339836937" lon="9.945615245380797"><ele>1187.0</ele><time>2026-04-04T08:17:18.999Z</time></trkpt><trkpt lat="45.74110327853778" lon="9.945512658666383"><ele>1190.7142857142858</ele><time>2026-04-04T08:17:22.999Z</time></trkpt><trkpt lat="45.74113294370428" lon="9.94542781304924"><ele>1194.4285714285716</ele><time>2026-04-04T08:17:25.999Z</time></trkpt><trkpt lat="45.74116369740102" lon="9.945340253234265"><ele>1198.1428571428573</ele><time>2026-04-04T08:17:28.999Z</time></trkpt><trkpt lat="45.7411952978971" lon="9.94525410784107"><ele>1201.857142857143</ele><time>2026-04-04T08:17:31.999Z</time></trkpt><trkpt lat="45.74122506454642" lon="9.945173583604754"><ele>1205.5714285714284</ele><time>2026-04-04T08:17:34.999Z</time></trkpt><trkpt lat="45.741252548903155" lon="9.945090191215558"><ele>1209.2857142857144</ele><time>2026-04-04T08:17:37.999Z</time></trkpt><trkpt lat="45.741279088023774" lon="9.945007932734852"><ele>1213.0</ele><time>2026-04-04T08:17:40.999Z</time></trkpt><trkpt lat="45.741306506576215" lon="9.94492231717065"><ele>1213.0</ele><time>2026-04-04T08:17:43.999Z</time></trkpt><trkpt lat="45.74133976931204" lon="9.944826079497096"><ele>1213.0</ele><time>2026-04-04T08:17:46.999Z</time></trkpt><trkpt lat="45.741385532920354" lon="9.944714152984787"><ele>1213.0</ele><time>2026-04-04T08:17:50.998Z</time></trkpt><trkpt lat="45.7414196549959" lon="9.944637318793344"><ele>1213.0</ele><time>2026-04-04T08:17:53.998Z</time></trkpt><trkpt lat="45.74146170001664" lon="9.944534404549762"><ele>1213.0</ele><time>2026-04-04T08:17:57.998Z</time></trkpt><trkpt lat="45.74150696001063" lon="9.944432330815612"><ele>1213.0</ele><time>2026-04-04T08:18:01.998Z</time></trkpt><trkpt lat="45.74154261714876" lon="9.944354651448236"><ele>1213.0</ele><time>2026-04-04T08:18:04.998Z</time></trkpt><trkpt lat="45.74157948547324" lon="9.944280699732724"><ele>1213.0</ele><time>2026-04-04T08:18:07.998Z</time></trkpt><trkpt lat="45.7416178403831" lon="9.944207861505435"><ele>1213.0</ele><time>2026-04-04T08:18:10.998Z</time></trkpt><trkpt lat="45.74166133376242" lon="9.944133760897339"><ele>1213.0</ele><time>2026-04-04T08:18:13.998Z</time></trkpt><trkpt lat="45.741718649531485" lon="9.944044346442375"><ele>1213.0</ele><time>2026-04-04T08:18:17.998Z</time></trkpt><trkpt lat="45.74177067401092" lon="9.943981145164852"><ele>1213.0</ele><time>2026-04-04T08:18:21.998Z</time></trkpt><trkpt lat="45.74182699832074" lon="9.943923137297727"><ele>1213.0</ele><time>2026-04-04T08:18:24.998Z</time></trkpt><trkpt lat="45.74189685772873" lon="9.943857077690511"><ele>1214.4285714285716</ele><time>2026-04-04T08:18:27.998Z</time></trkpt><trkpt lat="45.74195100035995" lon="9.943799128755279"><ele>1215.8571428571427</ele><time>2026-04-04T08:18:30.998Z</time></trkpt><trkpt lat="45.74200311198038" lon="9.943747774225457"><ele>1217.2857142857142</ele><time>2026-04-04T08:18:33.998Z</time></trkpt><trkpt lat="45.74205348253987" lon="9.9436789010507"><ele>1218.7142857142858</ele><time>2026-04-04T08:18:36.998Z</time></trkpt><trkpt lat="45.74210337219269" lon="9.943607305843713"><ele>1220.1428571428573</ele><time>2026-04-04T08:18:40Z</time></trkpt><trkpt lat="45.74215609916259" lon="9.943530056031056"><ele>1221.5714285714284</ele><time>2026-04-04T08:18:42Z</time></trkpt><trkpt lat="45.742213195814195" lon="9.943466564612656"><ele>1223.0</ele><time>2026-04-04T08:18:45Z</time></trkpt><trkpt lat="45.7422723685764" lon="9.943396801340395"><ele>1221.4285714285713</ele><time>2026-04-04T08:18:49Z</time></trkpt><trkpt lat="45.742324146133285" lon="9.94332626101008"><ele>1219.857142857143</ele><time>2026-04-04T08:18:52Z</time></trkpt><trkpt lat="45.74237371764491" lon="9.943259383689455"><ele>1218.2857142857142</ele><time>2026-04-04T08:18:55Z</time></trkpt><trkpt lat="45.7424266449495" lon="9.94319979708176"><ele>1216.7142857142858</ele><time>2026-04-04T08:18:58Z</time></trkpt><trkpt lat="45.74248012082018" lon="9.9431498237445"><ele>1215.142857142857</ele><time>2026-04-04T08:19:01Z</time></trkpt><trkpt lat="45.74253481702734" lon="9.943099887927666"><ele>1213.5714285714287</ele><time>2026-04-04T08:19:03.999Z</time></trkpt><trkpt lat="45.74252605902911" lon="9.942996781666839"><ele>1212.0</ele><time>2026-04-04T08:21:27.999Z</time></trkpt><trkpt lat="45.74253763496264" lon="9.942885399010455"><ele>1212.0</ele><time>2026-04-04T08:21:30.999Z</time></trkpt><trkpt lat="45.7425471114904" lon="9.942779177398368"><ele>1212.0</ele><time>2026-04-04T08:21:33.999Z</time></trkpt><trkpt lat="45.74255409130825" lon="9.942674739602436"><ele>1212.0</ele><time>2026-04-04T08:21:36.999Z</time></trkpt><trkpt lat="45.74256167116048" lon="9.942558395338422"><ele>1212.0</ele><time>2026-04-04T08:21:39.999Z</time></trkpt><trkpt lat="45.74256554386079" lon="9.942431857585754"><ele>1212.0</ele><time>2026-04-04T08:21:42.999Z</time></trkpt><trkpt lat="45.74257263082511" lon="9.942312198255118"><ele>1212.0</ele><time>2026-04-04T08:21:45.999Z</time></trkpt><trkpt lat="45.74257956995291" lon="9.942200186681884"><ele>1211.3333333333333</ele><time>2026-04-04T08:21:48.999Z</time></trkpt><trkpt lat="45.74258333152491" lon="9.942080474491926"><ele>1210.6666666666667</ele><time>2026-04-04T08:21:51.999Z</time></trkpt><trkpt lat="45.74257845294075" lon="9.941960748982092"><ele>1210.0</ele><time>2026-04-04T08:21:54.999Z</time></trkpt><trkpt lat="45.74257091009417" lon="9.941854733752042"><ele>1209.3333333333335</ele><time>2026-04-04T08:21:57.998Z</time></trkpt><trkpt lat="45.74255826596637" lon="9.941748735603653"><ele>1208.6666666666667</ele><time>2026-04-04T08:22:00.998Z</time></trkpt><trkpt lat="45.742540018464915" lon="9.941642269492394"><ele>1208.0</ele><time>2026-04-04T08:22:03.998Z</time></trkpt><trkpt lat="45.742515029996056" lon="9.941541945166593"><ele>1208.0</ele><time>2026-04-04T08:22:06.998Z</time></trkpt><trkpt lat="45.742495091061905" lon="9.94144055125539"><ele>1208.0</ele><time>2026-04-04T08:22:09.998Z</time></trkpt><trkpt lat="45.74246649064204" lon="9.941334846999915"><ele>1208.0</ele><time>2026-04-04T08:22:12.998Z</time></trkpt><trkpt lat="45.742447787948976" lon="9.94123200636497"><ele>1208.0</ele><time>2026-04-04T08:22:15.998Z</time></trkpt><trkpt lat="45.74242475747485" lon="9.941125752720007"><ele>1208.0</ele><time>2026-04-04T08:22:18.998Z</time></trkpt><trkpt lat="45.74241802194554" lon="9.940992686406917"><ele>1208.0</ele><time>2026-04-04T08:22:21.998Z</time></trkpt><trkpt lat="45.74242554972792" lon="9.940860243772281"><ele>1208.2857142857144</ele><time>2026-04-04T08:22:24.998Z</time></trkpt><trkpt lat="45.74245489826316" lon="9.940748119297664"><ele>1208.5714285714287</ele><time>2026-04-04T08:22:27.998Z</time></trkpt><trkpt lat="45.74250935712147" lon="9.940662490253185"><ele>1208.857142857143</ele><time>2026-04-04T08:22:30.998Z</time></trkpt><trkpt lat="45.74256529369546" lon="9.94061640261257"><ele>1209.1428571428573</ele><time>2026-04-04T08:22:33.998Z</time></trkpt><trkpt lat="45.74262961139072" lon="9.9405780050048"><ele>1209.4285714285716</ele><time>2026-04-04T08:22:38.998Z</time></trkpt><trkpt lat="45.74269609314427" lon="9.940586043360957"><ele>1209.7142857142858</ele><time>2026-04-04T08:22:45.998Z</time></trkpt><trkpt lat="45.742769065525806" lon="9.940584206146069"><ele>1210.0</ele><time>2026-04-04T08:22:52Z</time></trkpt><trkpt lat="45.742712702056274" lon="9.940527448807885"><ele>1210.0</ele><time>2026-04-04T08:23:35.999Z</time></trkpt><trkpt lat="45.74275617369565" lon="9.940627640031527"><ele>1210.0</ele><time>2026-04-04T08:24:23.998Z</time></trkpt><trkpt lat="45.742772591581954" lon="9.940381395073063"><ele>1210.0</ele><time>2026-04-04T08:24:36.027Z</time></trkpt><trkpt lat="45.74275451222657" lon="9.940469589062486"><ele>1210.0</ele><time>2026-04-04T08:25:01.022Z</time></trkpt><trkpt lat="45.742741822392446" lon="9.94055968769542"><ele>1210.0</ele><time>2026-04-04T08:25:06.997Z</time></trkpt><trkpt lat="45.74271724423607" lon="9.940473744291584"><ele>1210.0</ele><time>2026-04-04T08:45:35.999Z</time></trkpt><trkpt lat="45.74274743179931" lon="9.94037988736078"><ele>1210.0</ele><time>2026-04-04T08:45:47.998Z</time></trkpt><trkpt lat="45.74271308500118" lon="9.940247695857096"><ele>1210.0</ele><time>2026-04-04T08:46:24.07Z</time></trkpt><trkpt lat="45.74276920977753" lon="9.940133112158694"><ele>1210.0</ele><time>2026-04-04T08:46:26.077Z</time></trkpt><trkpt lat="45.742730878339344" lon="9.940424743249727"><ele>1210.0</ele><time>2026-04-04T08:46:34Z</time></trkpt><trkpt lat="45.74271985349485" lon="9.940586922174756"><ele>1210.0</ele><time>2026-04-04T08:46:46Z</time></trkpt><trkpt lat="45.742784605300294" lon="9.940581111340455"><ele>1210.0</ele><time>2026-04-04T08:48:15Z</time></trkpt><trkpt lat="45.74270328044906" lon="9.940557692792675"><ele>1210.0</ele><time>2026-04-04T08:49:43.999Z</time></trkpt><trkpt lat="45.742612389653054" lon="9.940563629143627"><ele>1210.0</ele><time>2026-04-04T08:49:46.999Z</time></trkpt><trkpt lat="45.74254202121312" lon="9.940612303612658"><ele>1210.0</ele><time>2026-04-04T08:49:48.999Z</time></trkpt><trkpt lat="45.742468568857134" lon="9.940690094499157"><ele>1210.0</ele><time>2026-04-04T08:49:50.999Z</time></trkpt><trkpt lat="45.74241215745718" lon="9.940831644011174"><ele>1209.6666666666665</ele><time>2026-04-04T08:49:52.999Z</time></trkpt><trkpt lat="45.7423759778904" lon="9.940978763269296"><ele>1209.3333333333333</ele><time>2026-04-04T08:49:54.999Z</time></trkpt><trkpt lat="45.74238483057623" lon="9.941097375049102"><ele>1209.0</ele><time>2026-04-04T08:49:56.998Z</time></trkpt><trkpt lat="45.74239471763073" lon="9.941221767110703"><ele>1208.6666666666667</ele><time>2026-04-04T08:49:59.998Z</time></trkpt><trkpt lat="45.74241386456589" lon="9.941323609601998"><ele>1208.3333333333335</ele><time>2026-04-04T08:50:02.998Z</time></trkpt><trkpt lat="45.74240735197854" lon="9.941419163783584"><ele>1208.0</ele><time>2026-04-04T08:50:04.998Z</time></trkpt><trkpt lat="45.742414408446436" lon="9.941539454655796"><ele>1208.0</ele><time>2026-04-04T08:50:06.998Z</time></trkpt><trkpt lat="45.742406929106785" lon="9.941668752459934"><ele>1208.0</ele><time>2026-04-04T08:50:08.998Z</time></trkpt><trkpt lat="45.742397495475714" lon="9.941798740019955"><ele>1208.0</ele><time>2026-04-04T08:50:10.998Z</time></trkpt><trkpt lat="45.742380679529035" lon="9.941915279205157"><ele>1208.0</ele><time>2026-04-04T08:50:12.998Z</time></trkpt><trkpt lat="45.742399839142564" lon="9.942036174859151"><ele>1208.0</ele><time>2026-04-04T08:50:14.998Z</time></trkpt><trkpt lat="45.742385993347035" lon="9.942175558336313"><ele>1207.6</ele><time>2026-04-04T08:50:17Z</time></trkpt><trkpt lat="45.74237022487243" lon="9.942313202974686"><ele>1207.1999999999998</ele><time>2026-04-04T08:50:19Z</time></trkpt><trkpt lat="45.74235298941437" lon="9.942438556202084"><ele>1206.8</ele><time>2026-04-04T08:50:21Z</time></trkpt><trkpt lat="45.742338012469276" lon="9.942563823570126"><ele>1206.3999999999999</ele><time>2026-04-04T08:50:23Z</time></trkpt><trkpt lat="45.74232668470583" lon="9.942686418681191"><ele>1206.0</ele><time>2026-04-04T08:50:25Z</time></trkpt><trkpt lat="45.74231649143848" lon="9.942815078381564"><ele>1207.0</ele><time>2026-04-04T08:50:27Z</time></trkpt><trkpt lat="45.742295113691235" lon="9.94295059540831"><ele>1208.0</ele><time>2026-04-04T08:50:29Z</time></trkpt><trkpt lat="45.742280109767826" lon="9.943090403329112"><ele>1209.0</ele><time>2026-04-04T08:50:31Z</time></trkpt><trkpt lat="45.742259009138465" lon="9.943207136623302"><ele>1210.0</ele><time>2026-04-04T08:50:33Z</time></trkpt><trkpt lat="45.74223023028498" lon="9.943319456877331"><ele>1211.0</ele><time>2026-04-04T08:50:35Z</time></trkpt><trkpt lat="45.74219887531615" lon="9.943418770270384"><ele>1212.0</ele><time>2026-04-04T08:50:37Z</time></trkpt><trkpt lat="45.74213546742545" lon="9.943515552863435"><ele>1210.6</ele><time>2026-04-04T08:50:39Z</time></trkpt><trkpt lat="45.742060654411894" lon="9.943619720661252"><ele>1209.2</ele><time>2026-04-04T08:50:41Z</time></trkpt><trkpt lat="45.74198293757082" lon="9.943708296951856"><ele>1207.8</ele><time>2026-04-04T08:50:43Z</time></trkpt><trkpt lat="45.74188969177713" lon="9.943779223097987"><ele>1206.4</ele><time>2026-04-04T08:50:45Z</time></trkpt><trkpt lat="45.74180468985251" lon="9.943869560108844"><ele>1205.0</ele><time>2026-04-04T08:50:47Z</time></trkpt><trkpt lat="45.74172362563736" lon="9.943958181256058"><ele>1205.0</ele><time>2026-04-04T08:50:49Z</time></trkpt><trkpt lat="45.74164820001561" lon="9.944093213768516"><ele>1205.0</ele><time>2026-04-04T08:50:51Z</time></trkpt><trkpt lat="45.74157209496276" lon="9.944222167152509"><ele>1205.0</ele><time>2026-04-04T08:50:53Z</time></trkpt><trkpt lat="45.74151893572919" lon="9.944286301026482"><ele>1205.0</ele><time>2026-04-04T08:50:54Z</time></trkpt><trkpt lat="45.74147743679744" lon="9.944365151297957"><ele>1205.0</ele><time>2026-04-04T08:50:55Z</time></trkpt><trkpt lat="45.741434474295474" lon="9.944452636143449"><ele>1206.3333333333335</ele><time>2026-04-04T08:50:56Z</time></trkpt><trkpt lat="45.74139043988321" lon="9.944550232601095"><ele>1207.6666666666667</ele><time>2026-04-04T08:50:57Z</time></trkpt><trkpt lat="45.74134514262255" lon="9.944655097930683"><ele>1209.0</ele><time>2026-04-04T08:50:58Z</time></trkpt><trkpt lat="45.74130150594844" lon="9.94476484549134"><ele>1210.3333333333333</ele><time>2026-04-04T08:50:59Z</time></trkpt><trkpt lat="45.741258140741884" lon="9.944882322497092"><ele>1211.6666666666665</ele><time>2026-04-04T08:51:00Z</time></trkpt><trkpt lat="45.74121482084603" lon="9.945004558920408"><ele>1213.0</ele><time>2026-04-04T08:51:01Z</time></trkpt><trkpt lat="45.74117111757272" lon="9.945128848056516"><ele>1213.8</ele><time>2026-04-04T08:51:02Z</time></trkpt><trkpt lat="45.741126967802586" lon="9.945254731808053"><ele>1214.6</ele><time>2026-04-04T08:51:03Z</time></trkpt><trkpt lat="45.741084130778916" lon="9.945380892245225"><ele>1215.4</ele><time>2026-04-04T08:51:04Z</time></trkpt><trkpt lat="45.741042328425095" lon="9.945511105483853"><ele>1216.2</ele><time>2026-04-04T08:51:05Z</time></trkpt><trkpt lat="45.741003199559366" lon="9.94564449796382"><ele>1217.0</ele><time>2026-04-04T08:51:06Z</time></trkpt><trkpt lat="45.740967645281884" lon="9.945782602564977"><ele>1211.0</ele><time>2026-04-04T08:51:07Z</time></trkpt><trkpt lat="45.74093876991143" lon="9.945921595835435"><ele>1205.0</ele><time>2026-04-04T08:51:07.999Z</time></trkpt><trkpt lat="45.740915105587185" lon="9.946048016460843"><ele>1199.0</ele><time>2026-04-04T08:51:08.999Z</time></trkpt><trkpt lat="45.740889896300935" lon="9.946163413920065"><ele>1193.0</ele><time>2026-04-04T08:51:09.999Z</time></trkpt><trkpt lat="45.74084990012896" lon="9.946261909834181"><ele>1187.0</ele><time>2026-04-04T08:51:10.999Z</time></trkpt><trkpt lat="45.74078782769038" lon="9.94637006194644"><ele>1187.0</ele><time>2026-04-04T08:51:11.999Z</time></trkpt><trkpt lat="45.74072383362797" lon="9.946473020830837"><ele>1187.0</ele><time>2026-04-04T08:51:12.999Z</time></trkpt><trkpt lat="45.74065805720125" lon="9.946577548723802"><ele>1187.0</ele><time>2026-04-04T08:51:13.999Z</time></trkpt><trkpt lat="45.74060055556946" lon="9.946704746769521"><ele>1187.0</ele><time>2026-04-04T08:51:14.999Z</time></trkpt><trkpt lat="45.74057215205564" lon="9.94684273201884"><ele>1187.0</ele><time>2026-04-04T08:51:15.999Z</time></trkpt><trkpt lat="45.740526071346665" lon="9.946975550354315"><ele>1188.8</ele><time>2026-04-04T08:51:16.999Z</time></trkpt><trkpt lat="45.740483424728154" lon="9.947108217606951"><ele>1190.6</ele><time>2026-04-04T08:51:17.999Z</time></trkpt><trkpt lat="45.740424255074146" lon="9.947226349850311"><ele>1192.3999999999999</ele><time>2026-04-04T08:51:18.999Z</time></trkpt><trkpt lat="45.74035787340175" lon="9.947333550341815"><ele>1194.2</ele><time>2026-04-04T08:51:19.999Z</time></trkpt><trkpt lat="45.7402881971433" lon="9.947440950325122"><ele>1196.0</ele><time>2026-04-04T08:51:20.999Z</time></trkpt><trkpt lat="45.74020692530456" lon="9.947545932490526"><ele>1192.3999999999999</ele><time>2026-04-04T08:51:21.999Z</time></trkpt><trkpt lat="45.74011799686331" lon="9.947627012355314"><ele>1188.8</ele><time>2026-04-04T08:51:22.999Z</time></trkpt><trkpt lat="45.740036652538706" lon="9.947714699246577"><ele>1185.1999999999998</ele><time>2026-04-04T08:51:23.999Z</time></trkpt><trkpt lat="45.739955242356935" lon="9.947802974507688"><ele>1181.6</ele><time>2026-04-04T08:51:24.999Z</time></trkpt><trkpt lat="45.73988006188335" lon="9.947886101765377"><ele>1178.0</ele><time>2026-04-04T08:51:25.999Z</time></trkpt><trkpt lat="45.739805963486006" lon="9.947959658583825"><ele>1178.0</ele><time>2026-04-04T08:51:26.999Z</time></trkpt><trkpt lat="45.73972191471843" lon="9.948017521613123"><ele>1178.0</ele><time>2026-04-04T08:51:27.999Z</time></trkpt><trkpt lat="45.73963067062842" lon="9.9480718080688"><ele>1178.0</ele><time>2026-04-04T08:51:28.999Z</time></trkpt><trkpt lat="45.73953469847396" lon="9.948123483184718"><ele>1178.0</ele><time>2026-04-04T08:51:29.999Z</time></trkpt><trkpt lat="45.73943591237529" lon="9.948173615294822"><ele>1178.0</ele><time>2026-04-04T08:51:30.999Z</time></trkpt><trkpt lat="45.7393367076371" lon="9.94824645570821"><ele>1176.4</ele><time>2026-04-04T08:51:31.999Z</time></trkpt><trkpt lat="45.73924969194577" lon="9.948346483651267"><ele>1174.8</ele><time>2026-04-04T08:51:32.999Z</time></trkpt><trkpt lat="45.739181167619485" lon="9.948461637133748"><ele>1173.2</ele><time>2026-04-04T08:51:33.999Z</time></trkpt><trkpt lat="45.73912722580856" lon="9.948576972848796"><ele>1171.6</ele><time>2026-04-04T08:51:34.999Z</time></trkpt><trkpt lat="45.73908394213509" lon="9.948666127077017"><ele>1170.0</ele><time>2026-04-04T08:51:35.999Z</time></trkpt><trkpt lat="45.7389924625537" lon="9.948779251053937"><ele>1170.0</ele><time>2026-04-04T08:51:37.999Z</time></trkpt><trkpt lat="45.73892448168292" lon="9.94881782134965"><ele>1170.0</ele><time>2026-04-04T08:51:38.999Z</time></trkpt><trkpt lat="45.738855137500096" lon="9.948812510401906"><ele>1170.0</ele><time>2026-04-04T08:51:39.999Z</time></trkpt><trkpt lat="45.73876839724287" lon="9.948819295684238"><ele>1170.0</ele><time>2026-04-04T08:51:40.999Z</time></trkpt><trkpt lat="45.73867383185879" lon="9.948867440060816"><ele>1170.0</ele><time>2026-04-04T08:51:41.999Z</time></trkpt><trkpt lat="45.73857330022351" lon="9.948866466595973"><ele>1170.0</ele><time>2026-04-04T08:51:42.999Z</time></trkpt><trkpt lat="45.73846967928954" lon="9.948883923057911"><ele>1170.2</ele><time>2026-04-04T08:51:43.999Z</time></trkpt><trkpt lat="45.73836989603189" lon="9.948918226439172"><ele>1170.4</ele><time>2026-04-04T08:51:44.999Z</time></trkpt><trkpt lat="45.73827066120876" lon="9.948966723763025"><ele>1170.6</ele><time>2026-04-04T08:51:45.999Z</time></trkpt><trkpt lat="45.738175929636945" lon="9.949037304491213"><ele>1170.8</ele><time>2026-04-04T08:51:46.999Z</time></trkpt><trkpt lat="45.73806793129075" lon="9.949091585276852"><ele>1171.0</ele><time>2026-04-04T08:51:47.999Z</time></trkpt><trkpt lat="45.73798982330606" lon="9.949220135217969"><ele>1171.0</ele><time>2026-04-04T08:51:48.999Z</time></trkpt><trkpt lat="45.73795905811432" lon="9.94938416144198"><ele>1171.0</ele><time>2026-04-04T08:51:49.999Z</time></trkpt><trkpt lat="45.73789257410017" lon="9.949502942163495"><ele>1171.0</ele><time>2026-04-04T08:51:50.999Z</time></trkpt><trkpt lat="45.73780320074423" lon="9.949595327094123"><ele>1171.0</ele><time>2026-04-04T08:51:51.999Z</time></trkpt><trkpt lat="45.737701047203956" lon="9.949654062423619"><ele>1171.0</ele><time>2026-04-04T08:51:52.999Z</time></trkpt><trkpt lat="45.73758632474305" lon="9.949684634077444"><ele>1166.0</ele><time>2026-04-04T08:51:53.999Z</time></trkpt><trkpt lat="45.73749000586327" lon="9.949774491161119"><ele>1161.0</ele><time>2026-04-04T08:51:54.999Z</time></trkpt><trkpt lat="45.73739935692665" lon="9.949869150169796"><ele>1156.0</ele><time>2026-04-04T08:51:55.999Z</time></trkpt><trkpt lat="45.737309137475954" lon="9.94996378213503"><ele>1151.0</ele><time>2026-04-04T08:51:56.999Z</time></trkpt><trkpt lat="45.7372258081746" lon="9.950086790004285"><ele>1151.0</ele><time>2026-04-04T08:51:57.999Z</time></trkpt><trkpt lat="45.73715407536921" lon="9.95021812894378"><ele>1151.0</ele><time>2026-04-04T08:51:58.999Z</time></trkpt><trkpt lat="45.73709049320758" lon="9.950356700178517"><ele>1151.0</ele><time>2026-04-04T08:51:59.999Z</time></trkpt><trkpt lat="45.737032953962924" lon="9.950507080821403"><ele>1151.0</ele><time>2026-04-04T08:52:00.998Z</time></trkpt><trkpt lat="45.73698099175694" lon="9.950652277286494"><ele>1151.0</ele><time>2026-04-04T08:52:01.998Z</time></trkpt><trkpt lat="45.73693111994038" lon="9.950785772153871"><ele>1151.0</ele><time>2026-04-04T08:52:02.998Z</time></trkpt><trkpt lat="45.73687997006086" lon="9.950919502067174"><ele>1151.0</ele><time>2026-04-04T08:52:03.998Z</time></trkpt><trkpt lat="45.736823358371666" lon="9.95105638776328"><ele>1151.0</ele><time>2026-04-04T08:52:04.998Z</time></trkpt><trkpt lat="45.736767551855756" lon="9.951197216024987"><ele>1151.0</ele><time>2026-04-04T08:52:05.998Z</time></trkpt><trkpt lat="45.736700194196764" lon="9.951331505436237"><ele>1146.0</ele><time>2026-04-04T08:52:06.998Z</time></trkpt><trkpt lat="45.73662820802605" lon="9.951456035336008"><ele>1141.0</ele><time>2026-04-04T08:52:07.998Z</time></trkpt><trkpt lat="45.73655284853699" lon="9.951578435581204"><ele>1136.0</ele><time>2026-04-04T08:52:08.998Z</time></trkpt><trkpt lat="45.736471679634704" lon="9.951705040087624"><ele>1131.0</ele><time>2026-04-04T08:52:09.998Z</time></trkpt><trkpt lat="45.736386704669364" lon="9.951824994413585"><ele>1131.0</ele><time>2026-04-04T08:52:10.998Z</time></trkpt><trkpt lat="45.736292615049614" lon="9.95193654768417"><ele>1131.0</ele><time>2026-04-04T08:52:11.998Z</time></trkpt><trkpt lat="45.73619382451012" lon="9.95204923262877"><ele>1131.0</ele><time>2026-04-04T08:52:12.998Z</time></trkpt><trkpt lat="45.736082863478416" lon="9.95213558655807"><ele>1131.0</ele><time>2026-04-04T08:52:13.998Z</time></trkpt><trkpt lat="45.7359840695315" lon="9.95224450355303"><ele>1127.25</ele><time>2026-04-04T08:52:14.998Z</time></trkpt><trkpt lat="45.73588873947898" lon="9.952355677592747"><ele>1123.5</ele><time>2026-04-04T08:52:15.998Z</time></trkpt><trkpt lat="45.735804814668256" lon="9.952472886045921"><ele>1119.75</ele><time>2026-04-04T08:52:16.998Z</time></trkpt><trkpt lat="45.73575348195687" lon="9.952624766243611"><ele>1116.0</ele><time>2026-04-04T08:52:17.998Z</time></trkpt><trkpt lat="45.73569371772892" lon="9.952742427831907"><ele>1116.0</ele><time>2026-04-04T08:52:18.998Z</time></trkpt><trkpt lat="45.73562109887669" lon="9.952818498386934"><ele>1116.0</ele><time>2026-04-04T08:52:19.998Z</time></trkpt><trkpt lat="45.735551664519036" lon="9.952881265109687"><ele>1116.0</ele><time>2026-04-04T08:52:20.998Z</time></trkpt><trkpt lat="45.73547702152141" lon="9.952936120340118"><ele>1116.0</ele><time>2026-04-04T08:52:21.998Z</time></trkpt><trkpt lat="45.73539669827427" lon="9.952986425598558"><ele>1116.0</ele><time>2026-04-04T08:52:23Z</time></trkpt><trkpt lat="45.73531401878297" lon="9.953050134089295"><ele>1116.0</ele><time>2026-04-04T08:52:24Z</time></trkpt><trkpt lat="45.735219605329526" lon="9.9530870423444"><ele>1113.0</ele><time>2026-04-04T08:52:25Z</time></trkpt><trkpt lat="45.73513023748473" lon="9.953138186144907"><ele>1110.0</ele><time>2026-04-04T08:52:26Z</time></trkpt><trkpt lat="45.735041874732616" lon="9.9531983202088"><ele>1107.0</ele><time>2026-04-04T08:52:27Z</time></trkpt><trkpt lat="45.73495661200101" lon="9.953275706445027"><ele>1104.0</ele><time>2026-04-04T08:52:28Z</time></trkpt><trkpt lat="45.734871633338805" lon="9.953363868458117"><ele>1101.0</ele><time>2026-04-04T08:52:29Z</time></trkpt><trkpt lat="45.734787209514955" lon="9.953463705987028"><ele>1101.0</ele><time>2026-04-04T08:52:30Z</time></trkpt><trkpt lat="45.734707301028934" lon="9.953568525358413"><ele>1101.0</ele><time>2026-04-04T08:52:31Z</time></trkpt><trkpt lat="45.73462118820992" lon="9.95366966888392"><ele>1101.0</ele><time>2026-04-04T08:52:32Z</time></trkpt><trkpt lat="45.734536773070474" lon="9.953776514880838"><ele>1101.0</ele><time>2026-04-04T08:52:33Z</time></trkpt><trkpt lat="45.734458873446" lon="9.953896175684589"><ele>1101.0</ele><time>2026-04-04T08:52:34Z</time></trkpt><trkpt lat="45.73438018474163" lon="9.954020325758906"><ele>1096.25</ele><time>2026-04-04T08:52:35Z</time></trkpt><trkpt lat="45.734288656825896" lon="9.954126534059588"><ele>1091.5</ele><time>2026-04-04T08:52:36Z</time></trkpt><trkpt lat="45.734201967130694" lon="9.95422780364141"><ele>1086.75</ele><time>2026-04-04T08:52:37Z</time></trkpt><trkpt lat="45.73410809760454" lon="9.954329324461849"><ele>1082.0</ele><time>2026-04-04T08:52:38Z</time></trkpt><trkpt lat="45.73400964224574" lon="9.954430098903252"><ele>1082.0</ele><time>2026-04-04T08:52:39Z</time></trkpt><trkpt lat="45.733910010401125" lon="9.954530698509204"><ele>1082.0</ele><time>2026-04-04T08:52:40Z</time></trkpt><trkpt lat="45.73380874633701" lon="9.954636035012234"><ele>1082.0</ele><time>2026-04-04T08:52:41Z</time></trkpt><trkpt lat="45.73371481575997" lon="9.954734879127534"><ele>1082.0</ele><time>2026-04-04T08:52:42Z</time></trkpt><trkpt lat="45.73363775398795" lon="9.954844633503926"><ele>1078.8</ele><time>2026-04-04T08:52:43Z</time></trkpt><trkpt lat="45.733549441383126" lon="9.954912069208715"><ele>1075.6</ele><time>2026-04-04T08:52:44Z</time></trkpt><trkpt lat="45.73348646356113" lon="9.954980686818343"><ele>1072.3999999999999</ele><time>2026-04-04T08:52:45Z</time></trkpt><trkpt lat="45.73343465371982" lon="9.955039493782376"><ele>1069.2</ele><time>2026-04-04T08:52:46Z</time></trkpt><trkpt lat="45.73334349209848" lon="9.955142967140887"><ele>1066.0</ele><time>2026-04-04T08:52:48Z</time></trkpt><trkpt lat="45.73326692262687" lon="9.955237584259871"><ele>1066.0</ele><time>2026-04-04T08:52:50Z</time></trkpt><trkpt lat="45.73320210473988" lon="9.955282155727037"><ele>1066.0</ele><time>2026-04-04T08:52:52Z</time></trkpt><trkpt lat="45.73313140956245" lon="9.955324329068432"><ele>1066.0</ele><time>2026-04-04T08:52:55Z</time></trkpt><trkpt lat="45.73306329109515" lon="9.95526084385753"><ele>1066.0</ele><time>2026-04-04T08:52:58Z</time></trkpt><trkpt lat="45.7329846193638" lon="9.95517961660898"><ele>1066.0</ele><time>2026-04-04T08:53:00Z</time></trkpt><trkpt lat="45.73298326536776" lon="9.955006530668685"><ele>1066.0</ele><time>2026-04-04T08:53:02Z</time></trkpt><trkpt lat="45.733020561012616" lon="9.954911994349914"><ele>1066.0</ele><time>2026-04-04T08:53:03Z</time></trkpt><trkpt lat="45.7330715089645" lon="9.954824378286782"><ele>1066.0</ele><time>2026-04-04T08:53:04Z</time></trkpt><trkpt lat="45.733127609334225" lon="9.954741755930728"><ele>1066.0</ele><time>2026-04-04T08:53:05Z</time></trkpt><trkpt lat="45.73319271707371" lon="9.954660936286214"><ele>1066.0</ele><time>2026-04-04T08:53:06Z</time></trkpt><trkpt lat="45.733251748911165" lon="9.954565234056492"><ele>1066.0</ele><time>2026-04-04T08:53:07Z</time></trkpt><trkpt lat="45.733302501721546" lon="9.954456975221667"><ele>1066.0</ele><time>2026-04-04T08:53:08Z</time></trkpt><trkpt lat="45.73335425192079" lon="9.954352864439196"><ele>1066.0</ele><time>2026-04-04T08:53:09Z</time></trkpt><trkpt lat="45.733399905389994" lon="9.954245703949105"><ele>1066.0</ele><time>2026-04-04T08:53:10Z</time></trkpt><trkpt lat="45.73344433857768" lon="9.954137566823709"><ele>1066.0</ele><time>2026-04-04T08:53:10.999Z</time></trkpt><trkpt lat="45.73349213935986" lon="9.954029931455871"><ele>1066.0</ele><time>2026-04-04T08:53:11.999Z</time></trkpt><trkpt lat="45.73353989470827" lon="9.953922821066628"><ele>1066.0</ele><time>2026-04-04T08:53:12.999Z</time></trkpt><trkpt lat="45.733587413733815" lon="9.953829447156364"><ele>1066.0</ele><time>2026-04-04T08:53:13.999Z</time></trkpt><trkpt lat="45.73362685652598" lon="9.95374237933063"><ele>1066.0</ele><time>2026-04-04T08:53:14.999Z</time></trkpt><trkpt lat="45.73366170804251" lon="9.95366277343929"><ele>1066.0</ele><time>2026-04-04T08:53:15.999Z</time></trkpt><trkpt lat="45.733705216351545" lon="9.953513996297518"><ele>1066.0</ele><time>2026-04-04T08:53:17.999Z</time></trkpt><trkpt lat="45.73363550249222" lon="9.953385872944637"><ele>1066.0</ele><time>2026-04-04T08:53:19.999Z</time></trkpt><trkpt lat="45.73356430198455" lon="9.95334278711804"><ele>1066.0</ele><time>2026-04-04T08:53:20.999Z</time></trkpt><trkpt lat="45.73347014413918" lon="9.953408594209808"><ele>1063.8</ele><time>2026-04-04T08:53:21.999Z</time></trkpt><trkpt lat="45.73339182972675" lon="9.9534802045076"><ele>1061.6</ele><time>2026-04-04T08:53:22.999Z</time></trkpt><trkpt lat="45.73331300297088" lon="9.953561364397736"><ele>1059.4</ele><time>2026-04-04T08:53:23.999Z</time></trkpt><trkpt lat="45.733231676211865" lon="9.953654668055371"><ele>1057.2</ele><time>2026-04-04T08:53:24.999Z</time></trkpt><trkpt lat="45.73314761364419" lon="9.953758660607173"><ele>1055.0</ele><time>2026-04-04T08:53:25.999Z</time></trkpt><trkpt lat="45.73306227675338" lon="9.953875173972225"><ele>1055.0</ele><time>2026-04-04T08:53:26.999Z</time></trkpt><trkpt lat="45.73297538227044" lon="9.953993346223648"><ele>1055.0</ele><time>2026-04-04T08:53:27.999Z</time></trkpt><trkpt lat="45.73288836542184" lon="9.954088897102638"><ele>1055.0</ele><time>2026-04-04T08:53:28.999Z</time></trkpt><trkpt lat="45.73280095273976" lon="9.954172932489662"><ele>1055.0</ele><time>2026-04-04T08:53:29.999Z</time></trkpt><trkpt lat="45.73272154859451" lon="9.95424618867845"><ele>1055.0</ele><time>2026-04-04T08:53:30.999Z</time></trkpt><trkpt lat="45.73265155909331" lon="9.954311060946498"><ele>1054.3333333333335</ele><time>2026-04-04T08:53:31.999Z</time></trkpt><trkpt lat="45.732588104166034" lon="9.954370601061914"><ele>1053.6666666666667</ele><time>2026-04-04T08:53:32.999Z</time></trkpt><trkpt lat="45.73253369274413" lon="9.95442271866883"><ele>1053.0</ele><time>2026-04-04T08:53:33.999Z</time></trkpt><trkpt lat="45.73245922327806" lon="9.954459597731304"><ele>1052.3333333333333</ele><time>2026-04-04T08:53:35.999Z</time></trkpt><trkpt lat="45.73242803717395" lon="9.954329016061171"><ele>1051.6666666666665</ele><time>2026-04-04T08:53:37.999Z</time></trkpt><trkpt lat="45.732477741934936" lon="9.9542501104485"><ele>1051.0</ele><time>2026-04-04T08:53:38.999Z</time></trkpt><trkpt lat="45.73254269157195" lon="9.954214367909508"><ele>1051.6666666666665</ele><time>2026-04-04T08:53:39.999Z</time></trkpt><trkpt lat="45.732606570833525" lon="9.954170033821622"><ele>1052.3333333333333</ele><time>2026-04-04T08:53:40.999Z</time></trkpt><trkpt lat="45.73266842885948" lon="9.954104113178792"><ele>1053.0</ele><time>2026-04-04T08:53:41.999Z</time></trkpt><trkpt lat="45.73272688827968" lon="9.954028166920073"><ele>1053.6666666666667</ele><time>2026-04-04T08:53:42.999Z</time></trkpt><trkpt lat="45.73278485828514" lon="9.953932828761937"><ele>1054.3333333333335</ele><time>2026-04-04T08:53:43.999Z</time></trkpt><trkpt lat="45.732838355428804" lon="9.953821930266269"><ele>1055.0</ele><time>2026-04-04T08:53:44.999Z</time></trkpt><trkpt lat="45.73287988114165" lon="9.953702082662636"><ele>1055.0</ele><time>2026-04-04T08:53:45.999Z</time></trkpt><trkpt lat="45.732909751493246" lon="9.953582114389702"><ele>1055.0</ele><time>2026-04-04T08:53:46.999Z</time></trkpt><trkpt lat="45.73293068349848" lon="9.953462260664221"><ele>1055.0</ele><time>2026-04-04T08:53:47.999Z</time></trkpt><trkpt lat="45.73295769597203" lon="9.953347141725496"><ele>1055.0</ele><time>2026-04-04T08:53:48.999Z</time></trkpt><trkpt lat="45.73299475661723" lon="9.953242357578063"><ele>1055.0</ele><time>2026-04-04T08:53:49.999Z</time></trkpt><trkpt lat="45.73303868041955" lon="9.953151606335297"><ele>1055.0</ele><time>2026-04-04T08:53:50.999Z</time></trkpt><trkpt lat="45.73309437301508" lon="9.953002932432339"><ele>1053.0</ele><time>2026-04-04T08:53:52.999Z</time></trkpt><trkpt lat="45.733056547100794" lon="9.952865391952507"><ele>1051.0</ele><time>2026-04-04T08:53:54.999Z</time></trkpt><trkpt lat="45.73299602513102" lon="9.952833699356429"><ele>1049.0</ele><time>2026-04-04T08:53:55.999Z</time></trkpt><trkpt lat="45.73292466758194" lon="9.952856767507392"><ele>1047.0</ele><time>2026-04-04T08:53:56.999Z</time></trkpt><trkpt lat="45.73286526298933" lon="9.952939116553296"><ele>1045.0</ele><time>2026-04-04T08:53:57.999Z</time></trkpt><trkpt lat="45.73281923038593" lon="9.953045221257"><ele>1043.0</ele><time>2026-04-04T08:53:58.999Z</time></trkpt><trkpt lat="45.73278051987058" lon="9.953162621881033"><ele>1043.0</ele><time>2026-04-04T08:53:59.999Z</time></trkpt><trkpt lat="45.73274079816665" lon="9.95328671319312"><ele>1043.0</ele><time>2026-04-04T08:54:00.999Z</time></trkpt><trkpt lat="45.73270577509869" lon="9.953415143458702"><ele>1043.0</ele><time>2026-04-04T08:54:01.999Z</time></trkpt><trkpt lat="45.73265204726887" lon="9.953519563113934"><ele>1043.0</ele><time>2026-04-04T08:54:02.999Z</time></trkpt><trkpt lat="45.732600067949605" lon="9.953605680929188"><ele>1043.0</ele><time>2026-04-04T08:54:03.998Z</time></trkpt><trkpt lat="45.7325169359809" lon="9.95363889092937"><ele>1043.0</ele><time>2026-04-04T08:54:04.998Z</time></trkpt><trkpt lat="45.73242561510702" lon="9.953626702388998"><ele>1041.4</ele><time>2026-04-04T08:54:05.998Z</time></trkpt><trkpt lat="45.73232838416192" lon="9.95358670177619"><ele>1039.8</ele><time>2026-04-04T08:54:06.998Z</time></trkpt><trkpt lat="45.73222958394907" lon="9.953580310920836"><ele>1038.2</ele><time>2026-04-04T08:54:07.998Z</time></trkpt><trkpt lat="45.732141141391764" lon="9.953602950989916"><ele>1036.6</ele><time>2026-04-04T08:54:08.998Z</time></trkpt><trkpt lat="45.73206825796542" lon="9.953612403055487"><ele>1035.0</ele><time>2026-04-04T08:54:09.998Z</time></trkpt><trkpt lat="45.73199634973894" lon="9.953541926773184"><ele>1035.0</ele><time>2026-04-04T08:54:11.998Z</time></trkpt><trkpt lat="45.73208064318931" lon="9.953444929000444"><ele>1035.0</ele><time>2026-04-04T08:54:13.998Z</time></trkpt><trkpt lat="45.73216570386992" lon="9.953425307154454"><ele>1035.0</ele><time>2026-04-04T08:54:14.998Z</time></trkpt><trkpt lat="45.73223402322494" lon="9.95344381287881"><ele>1035.0</ele><time>2026-04-04T08:54:15.998Z</time></trkpt><trkpt lat="45.732309389483255" lon="9.953448181683786"><ele>1035.0</ele><time>2026-04-04T08:54:16.998Z</time></trkpt><trkpt lat="45.73238778732817" lon="9.953439397149591"><ele>1035.0</ele><time>2026-04-04T08:54:17.998Z</time></trkpt><trkpt lat="45.73246163282522" lon="9.953388259194444"><ele>1031.8</ele><time>2026-04-04T08:54:18.998Z</time></trkpt><trkpt lat="45.73251517263616" lon="9.953276913182648"><ele>1028.6</ele><time>2026-04-04T08:54:19.998Z</time></trkpt><trkpt lat="45.73252272242476" lon="9.953130145128881"><ele>1025.4</ele><time>2026-04-04T08:54:20.998Z</time></trkpt><trkpt lat="45.73249612288872" lon="9.952981419789795"><ele>1022.2</ele><time>2026-04-04T08:54:21.998Z</time></trkpt><trkpt lat="45.732456157894504" lon="9.952838168664488"><ele>1019.0</ele><time>2026-04-04T08:54:22.998Z</time></trkpt><trkpt lat="45.73242212361901" lon="9.952694964045152"><ele>1019.0000000000001</ele><time>2026-04-04T08:54:23.998Z</time></trkpt><trkpt lat="45.732392289639954" lon="9.952555997661351"><ele>1019.0</ele><time>2026-04-04T08:54:24.998Z</time></trkpt><trkpt lat="45.73238896529458" lon="9.952420553897323"><ele>1019.0</ele><time>2026-04-04T08:54:25.998Z</time></trkpt><trkpt lat="45.7324149460618" lon="9.952295727399537"><ele>1019.0</ele><time>2026-04-04T08:54:26.998Z</time></trkpt><trkpt lat="45.732461464866994" lon="9.952193267887408"><ele>1019.0000000000001</ele><time>2026-04-04T08:54:27.998Z</time></trkpt><trkpt lat="45.73250408708106" lon="9.952115533135437"><ele>1019.0</ele><time>2026-04-04T08:54:29Z</time></trkpt><trkpt lat="45.73248090040574" lon="9.951947738352622"><ele>1016.2</ele><time>2026-04-04T08:54:31Z</time></trkpt><trkpt lat="45.73242928013605" lon="9.95187248441894"><ele>1013.4000000000001</ele><time>2026-04-04T08:54:32Z</time></trkpt><trkpt lat="45.732320319123914" lon="9.951904973857959"><ele>1010.6</ele><time>2026-04-04T08:54:33Z</time></trkpt><trkpt lat="45.73223310572989" lon="9.951949666295295"><ele>1007.8</ele><time>2026-04-04T08:54:34Z</time></trkpt><trkpt lat="45.73215094962341" lon="9.952018532575236"><ele>1005.0</ele><time>2026-04-04T08:54:35Z</time></trkpt><trkpt lat="45.73206833674236" lon="9.952088650703653"><ele>1005.0</ele><time>2026-04-04T08:54:36Z</time></trkpt><trkpt lat="45.732028489944554" lon="9.95222111175314"><ele>1005.0</ele><time>2026-04-04T08:54:37Z</time></trkpt><trkpt lat="45.73205279353871" lon="9.952375126165434"><ele>1005.0</ele><time>2026-04-04T08:54:38Z</time></trkpt><trkpt lat="45.73202969231037" lon="9.952504038746365"><ele>1005.0</ele><time>2026-04-04T08:54:39Z</time></trkpt><trkpt lat="45.73197509471556" lon="9.952610525142095"><ele>1005.0</ele><time>2026-04-04T08:54:40Z</time></trkpt><trkpt lat="45.73187933606926" lon="9.95263765583437"><ele>1004.2</ele><time>2026-04-04T08:54:41Z</time></trkpt><trkpt lat="45.731789786329585" lon="9.952687657333941"><ele>1003.4</ele><time>2026-04-04T08:54:42Z</time></trkpt><trkpt lat="45.73170990708242" lon="9.952757216394424"><ele>1002.5999999999999</ele><time>2026-04-04T08:54:43Z</time></trkpt><trkpt lat="45.73162145356732" lon="9.952795429414419"><ele>1001.8</ele><time>2026-04-04T08:54:44Z</time></trkpt><trkpt lat="45.73154348747475" lon="9.95287138954943"><ele>1001.0</ele><time>2026-04-04T08:54:45Z</time></trkpt><trkpt lat="45.73148758382963" lon="9.952979996085821"><ele>1001.0</ele><time>2026-04-04T08:54:46Z</time></trkpt><trkpt lat="45.731428991003604" lon="9.953077692798463"><ele>1000.9999999999999</ele><time>2026-04-04T08:54:47Z</time></trkpt><trkpt lat="45.73137868711229" lon="9.953187524090163"><ele>1000.9999999999999</ele><time>2026-04-04T08:54:48Z</time></trkpt><trkpt lat="45.73133705106815" lon="9.953304712183531"><ele>1001.0</ele><time>2026-04-04T08:54:49Z</time></trkpt><trkpt lat="45.731309689202526" lon="9.953427708910551"><ele>1001.0</ele><time>2026-04-04T08:54:50Z</time></trkpt><trkpt lat="45.73127161394639" lon="9.953541132224887"><ele>1000.8333333333334</ele><time>2026-04-04T08:54:51Z</time></trkpt><trkpt lat="45.73125405846909" lon="9.953642158874057"><ele>1000.6666666666667</ele><time>2026-04-04T08:54:52Z</time></trkpt><trkpt lat="45.731179784749884" lon="9.953690155914233"><ele>1000.5</ele><time>2026-04-04T08:54:53Z</time></trkpt><trkpt lat="45.73108183104355" lon="9.953675911792818"><ele>1000.3333333333333</ele><time>2026-04-04T08:54:54Z</time></trkpt><trkpt lat="45.7310014211496" lon="9.953597713538167"><ele>1000.1666666666666</ele><time>2026-04-04T08:54:55Z</time></trkpt><trkpt lat="45.73092370666658" lon="9.953537885040362"><ele>1000.0</ele><time>2026-04-04T08:54:56Z</time></trkpt><trkpt lat="45.73082796603298" lon="9.953505584846464"><ele>999.9999999999999</ele><time>2026-04-04T08:54:57Z</time></trkpt><trkpt lat="45.73075324405558" lon="9.953477400509763"><ele>1000.0</ele><time>2026-04-04T08:54:58Z</time></trkpt><trkpt lat="45.730697868423434" lon="9.953363506647712"><ele>1000.0</ele><time>2026-04-04T08:55:00Z</time></trkpt><trkpt lat="45.73074606100475" lon="9.953270817470232"><ele>1000.0</ele><time>2026-04-04T08:55:01Z</time></trkpt><trkpt lat="45.730837616962376" lon="9.953232084837733"><ele>999.9999999999999</ele><time>2026-04-04T08:55:02Z</time></trkpt><trkpt lat="45.73092512519066" lon="9.953200930277843"><ele>1000.0</ele><time>2026-04-04T08:55:03Z</time></trkpt><trkpt lat="45.730994120288116" lon="9.95310415330916"><ele>1000.2</ele><time>2026-04-04T08:55:04Z</time></trkpt><trkpt lat="45.73103074284698" lon="9.952962070246032"><ele>1000.4</ele><time>2026-04-04T08:55:05Z</time></trkpt><trkpt lat="45.731033810445254" lon="9.952802600409283"><ele>1000.5999999999999</ele><time>2026-04-04T08:55:06Z</time></trkpt><trkpt lat="45.73107503541935" lon="9.952664192061581"><ele>1000.8</ele><time>2026-04-04T08:55:07Z</time></trkpt><trkpt lat="45.73109923006504" lon="9.952523161940361"><ele>1001.0</ele><time>2026-04-04T08:55:08Z</time></trkpt><trkpt lat="45.73113517041559" lon="9.95240885675866"><ele>998.6666666666667</ele><time>2026-04-04T08:55:09Z</time></trkpt><trkpt lat="45.73119199397777" lon="9.952327957055669"><ele>996.3333333333334</ele><time>2026-04-04T08:55:10Z</time></trkpt><trkpt lat="45.73127372637774" lon="9.952270053223543"><ele>994.0</ele><time>2026-04-04T08:55:11Z</time></trkpt><trkpt lat="45.73136182269991" lon="9.952232018344377"><ele>991.6666666666667</ele><time>2026-04-04T08:55:12Z</time></trkpt><trkpt lat="45.73145307548653" lon="9.952247963041835"><ele>989.3333333333334</ele><time>2026-04-04T08:55:13Z</time></trkpt><trkpt lat="45.73153371649569" lon="9.952211456146236"><ele>987.0</ele><time>2026-04-04T08:55:14Z</time></trkpt><trkpt lat="45.731590047099026" lon="9.95210994920718"><ele>987.0</ele><time>2026-04-04T08:55:14.999Z</time></trkpt><trkpt lat="45.73159938952069" lon="9.951966488288825"><ele>987.0</ele><time>2026-04-04T08:55:15.999Z</time></trkpt><trkpt lat="45.731582915823445" lon="9.951830664098193"><ele>987.0</ele><time>2026-04-04T08:55:16.999Z</time></trkpt><trkpt lat="45.7315621985262" lon="9.951701604649452"><ele>987.0</ele><time>2026-04-04T08:55:17.999Z</time></trkpt><trkpt lat="45.731561025860685" lon="9.951571888229049"><ele>987.0</ele><time>2026-04-04T08:55:18.999Z</time></trkpt><trkpt lat="45.731575803097215" lon="9.951437116547782"><ele>985.6</ele><time>2026-04-04T08:55:19.999Z</time></trkpt><trkpt lat="45.73160562351278" lon="9.951304193621983"><ele>984.2</ele><time>2026-04-04T08:55:20.999Z</time></trkpt><trkpt lat="45.73165039313652" lon="9.951178525005439"><ele>982.8</ele><time>2026-04-04T08:55:21.999Z</time></trkpt><trkpt lat="45.73171669911355" lon="9.951067999210176"><ele>981.4</ele><time>2026-04-04T08:55:22.999Z</time></trkpt><trkpt lat="45.73179656287252" lon="9.950975865570081"><ele>980.0</ele><time>2026-04-04T08:55:23.999Z</time></trkpt><trkpt lat="45.73188465548559" lon="9.950903961925507"><ele>978.6</ele><time>2026-04-04T08:55:24.999Z</time></trkpt><trkpt lat="45.7319791918535" lon="9.950860706160713"><ele>977.2</ele><time>2026-04-04T08:55:25.999Z</time></trkpt><trkpt lat="45.73207977050059" lon="9.950846677306743"><ele>975.8</ele><time>2026-04-04T08:55:26.999Z</time></trkpt><trkpt lat="45.73217719553051" lon="9.950854426898214"><ele>974.4</ele><time>2026-04-04T08:55:27.999Z</time></trkpt><trkpt lat="45.73227120784592" lon="9.950890259816497"><ele>973.0</ele><time>2026-04-04T08:55:28.999Z</time></trkpt><trkpt lat="45.732363840863634" lon="9.950958835873308"><ele>972.9999999999999</ele><time>2026-04-04T08:55:29.999Z</time></trkpt><trkpt lat="45.732455115809145" lon="9.95103132501872"><ele>973.0</ele><time>2026-04-04T08:55:30.999Z</time></trkpt><trkpt lat="45.732534036930765" lon="9.951071624275473"><ele>973.0</ele><time>2026-04-04T08:55:31.999Z</time></trkpt><trkpt lat="45.73261685314579" lon="9.951065953601757"><ele>973.0</ele><time>2026-04-04T08:55:32.999Z</time></trkpt><trkpt lat="45.73266756124817" lon="9.95099518577061"><ele>972.9999999999999</ele><time>2026-04-04T08:55:33.999Z</time></trkpt><trkpt lat="45.73269136669867" lon="9.950861495954003"><ele>973.0</ele><time>2026-04-04T08:55:34.999Z</time></trkpt><trkpt lat="45.732673035013185" lon="9.950730399423257"><ele>973.0</ele><time>2026-04-04T08:55:35.999Z</time></trkpt><trkpt lat="45.732649342348296" lon="9.95059949046515"><ele>973.0</ele><time>2026-04-04T08:55:36.999Z</time></trkpt><trkpt lat="45.73262294471369" lon="9.95046003561844"><ele>973.0</ele><time>2026-04-04T08:55:37.999Z</time></trkpt><trkpt lat="45.7326128418424" lon="9.950308836193656"><ele>973.0</ele><time>2026-04-04T08:55:38.999Z</time></trkpt><trkpt lat="45.73261310425293" lon="9.950155785444572"><ele>973.0</ele><time>2026-04-04T08:55:39.999Z</time></trkpt><trkpt lat="45.73262755245941" lon="9.94999776640248"><ele>974.0</ele><time>2026-04-04T08:55:40.999Z</time></trkpt><trkpt lat="45.7326664107969" lon="9.949848452106865"><ele>975.0</ele><time>2026-04-04T08:55:41.999Z</time></trkpt><trkpt lat="45.73273931259654" lon="9.949714343438764"><ele>976.0</ele><time>2026-04-04T08:55:42.999Z</time></trkpt><trkpt lat="45.73283877656834" lon="9.949602963926877"><ele>977.0</ele><time>2026-04-04T08:55:43.999Z</time></trkpt><trkpt lat="45.732946355869" lon="9.94951187709002"><ele>977.0</ele><time>2026-04-04T08:55:44.999Z</time></trkpt><trkpt lat="45.733052142381624" lon="9.949451609499699"><ele>977.0</ele><time>2026-04-04T08:55:45.999Z</time></trkpt><trkpt lat="45.73316182550357" lon="9.949413326279048"><ele>977.0</ele><time>2026-04-04T08:55:46.999Z</time></trkpt><trkpt lat="45.73326684162656" lon="9.949376557259024"><ele>977.0</ele><time>2026-04-04T08:55:47.999Z</time></trkpt><trkpt lat="45.7333520388124" lon="9.949305340595352"><ele>977.0</ele><time>2026-04-04T08:55:48.999Z</time></trkpt><trkpt lat="45.733413125017954" lon="9.949210163447908"><ele>974.0</ele><time>2026-04-04T08:55:49.999Z</time></trkpt><trkpt lat="45.73344863586933" lon="9.94909585647779"><ele>971.0</ele><time>2026-04-04T08:55:50.999Z</time></trkpt><trkpt lat="45.73345055218304" lon="9.948973850060192"><ele>968.0</ele><time>2026-04-04T08:55:51.999Z</time></trkpt><trkpt lat="45.73340188389301" lon="9.948860315154151"><ele>965.0</ele><time>2026-04-04T08:55:52.999Z</time></trkpt><trkpt lat="45.733341495871436" lon="9.948758183123656"><ele>962.0</ele><time>2026-04-04T08:55:53.999Z</time></trkpt><trkpt lat="45.73328352302204" lon="9.948650609886599"><ele>962.0</ele><time>2026-04-04T08:55:54.999Z</time></trkpt><trkpt lat="45.733231540552055" lon="9.948518821217482"><ele>962.0</ele><time>2026-04-04T08:55:55.999Z</time></trkpt><trkpt lat="45.733198242519165" lon="9.948366841599846"><ele>962.0</ele><time>2026-04-04T08:55:56.999Z</time></trkpt><trkpt lat="45.73317944420838" lon="9.948217547261029"><ele>962.0</ele><time>2026-04-04T08:55:57.999Z</time></trkpt><trkpt lat="45.73318178556308" lon="9.94805356442539"><ele>962.0</ele><time>2026-04-04T08:55:58.999Z</time></trkpt><trkpt lat="45.73319756663439" lon="9.947895626330354"><ele>960.5</ele><time>2026-04-04T08:55:59.999Z</time></trkpt><trkpt lat="45.733209340388235" lon="9.947722407398409"><ele>959.0</ele><time>2026-04-04T08:56:00.999Z</time></trkpt><trkpt lat="45.73321195592969" lon="9.947544858373073"><ele>957.5</ele><time>2026-04-04T08:56:01.999Z</time></trkpt><trkpt lat="45.73321964742526" lon="9.947370284985679"><ele>956.0</ele><time>2026-04-04T08:56:02.999Z</time></trkpt><trkpt lat="45.733210748875365" lon="9.947195674373786"><ele>954.1999999999999</ele><time>2026-04-04T08:56:03.999Z</time></trkpt><trkpt lat="45.7332122424637" lon="9.947028578362543"><ele>952.3999999999999</ele><time>2026-04-04T08:56:04.999Z</time></trkpt><trkpt lat="45.73322048516051" lon="9.946863874182029"><ele>950.6</ele><time>2026-04-04T08:56:05.999Z</time></trkpt><trkpt lat="45.733241671234595" lon="9.946701322523085"><ele>948.8</ele><time>2026-04-04T08:56:06.999Z</time></trkpt><trkpt lat="45.73326129758873" lon="9.946569296302577"><ele>947.0</ele><time>2026-04-04T08:56:07.998Z</time></trkpt><trkpt lat="45.733286900518365" lon="9.946467344159931"><ele>945.5000000000001</ele><time>2026-04-04T08:56:08.998Z</time></trkpt><trkpt lat="45.733293463261624" lon="9.946377393158153"><ele>944.0</ele><time>2026-04-04T08:56:09.998Z</time></trkpt><trkpt lat="45.733268701250076" lon="9.946290281350288"><ele>942.5</ele><time>2026-04-04T08:56:10.998Z</time></trkpt><trkpt lat="45.733200652290236" lon="9.946260873191262"><ele>941.0</ele><time>2026-04-04T08:56:11.998Z</time></trkpt><trkpt lat="45.733124213322945" lon="9.946245132001462"><ele>939.5000000000001</ele><time>2026-04-04T08:56:12.998Z</time></trkpt><trkpt lat="45.73305718483778" lon="9.946365833644743"><ele>938.0</ele><time>2026-04-04T08:56:13.998Z</time></trkpt><trkpt lat="45.73302918790395" lon="9.946483220240387"><ele>938.0000000000001</ele><time>2026-04-04T08:56:14.998Z</time></trkpt><trkpt lat="45.733008363898286" lon="9.946594108241499"><ele>938.0</ele><time>2026-04-04T08:56:15.998Z</time></trkpt><trkpt lat="45.732989851813834" lon="9.946710228566461"><ele>938.0</ele><time>2026-04-04T08:56:16.998Z</time></trkpt><trkpt lat="45.73297311547509" lon="9.946830093953164"><ele>938.0</ele><time>2026-04-04T08:56:17.998Z</time></trkpt><trkpt lat="45.73295709999798" lon="9.946948821680715"><ele>938.0000000000001</ele><time>2026-04-04T08:56:18.998Z</time></trkpt><trkpt lat="45.732941022418714" lon="9.947068009806353"><ele>938.0</ele><time>2026-04-04T08:56:19.998Z</time></trkpt><trkpt lat="45.732924991212776" lon="9.94718685414676"><ele>939.8</ele><time>2026-04-04T08:56:20.998Z</time></trkpt><trkpt lat="45.73290777700542" lon="9.947296808184301"><ele>941.5999999999999</ele><time>2026-04-04T08:56:21.998Z</time></trkpt><trkpt lat="45.73286035254544" lon="9.94741247950495"><ele>943.4000000000001</ele><time>2026-04-04T08:56:23.998Z</time></trkpt><trkpt lat="45.73275408747193" lon="9.947380970807275"><ele>945.2</ele><time>2026-04-04T08:56:25.998Z</time></trkpt><trkpt lat="45.732726911131564" lon="9.947262642325406"><ele>947.0</ele><time>2026-04-04T08:56:26.998Z</time></trkpt><trkpt lat="45.732728298416276" lon="9.947141432366127"><ele>947.0</ele><time>2026-04-04T08:56:27.998Z</time></trkpt><trkpt lat="45.73273259964662" lon="9.94699194561879"><ele>947.0</ele><time>2026-04-04T08:56:28.998Z</time></trkpt><trkpt lat="45.732720526048915" lon="9.946849036241742"><ele>947.0</ele><time>2026-04-04T08:56:29.998Z</time></trkpt><trkpt lat="45.73270766041673" lon="9.946696792977782"><ele>947.0</ele><time>2026-04-04T08:56:30.998Z</time></trkpt><trkpt lat="45.732692664270814" lon="9.946534303467189"><ele>947.0</ele><time>2026-04-04T08:56:31.998Z</time></trkpt><trkpt lat="45.732674327662416" lon="9.946371099938249"><ele>940.4000000000001</ele><time>2026-04-04T08:56:32.998Z</time></trkpt><trkpt lat="45.73265242322324" lon="9.94620454580063"><ele>933.8000000000001</ele><time>2026-04-04T08:56:34Z</time></trkpt><trkpt lat="45.73262899910727" lon="9.946044479809393"><ele>927.2</ele><time>2026-04-04T08:56:35Z</time></trkpt><trkpt lat="45.732603812040225" lon="9.945892854321674"><ele>920.6</ele><time>2026-04-04T08:56:36Z</time></trkpt><trkpt lat="45.73257798849474" lon="9.945753476557448"><ele>914.0</ele><time>2026-04-04T08:56:37Z</time></trkpt><trkpt lat="45.73255409110667" lon="9.945620990514914"><ele>912.8333333333334</ele><time>2026-04-04T08:56:38Z</time></trkpt><trkpt lat="45.732534774209086" lon="9.945501778894748"><ele>911.6666666666667</ele><time>2026-04-04T08:56:39Z</time></trkpt><trkpt lat="45.732536243501805" lon="9.94538899883985"><ele>910.5</ele><time>2026-04-04T08:56:40Z</time></trkpt><trkpt lat="45.73257089232459" lon="9.9452908259602"><ele>909.3333333333333</ele><time>2026-04-04T08:56:41Z</time></trkpt><trkpt lat="45.732636172756685" lon="9.945218415021696"><ele>908.1666666666666</ele><time>2026-04-04T08:56:42Z</time></trkpt><trkpt lat="45.73271033026216" lon="9.945193548772304"><ele>907.0</ele><time>2026-04-04T08:56:43Z</time></trkpt><trkpt lat="45.73279263513265" lon="9.945218246459849"><ele>909.9999999999999</ele><time>2026-04-04T08:56:44Z</time></trkpt><trkpt lat="45.73287364565107" lon="9.945264114283352"><ele>913.0</ele><time>2026-04-04T08:56:45Z</time></trkpt><trkpt lat="45.732955335226144" lon="9.945309578990935"><ele>916.0</ele><time>2026-04-04T08:56:46Z</time></trkpt><trkpt lat="45.73304173793116" lon="9.945354982085815"><ele>919.0</ele><time>2026-04-04T08:56:47Z</time></trkpt><trkpt lat="45.73312637995931" lon="9.945396902960265"><ele>921.9999999999999</ele><time>2026-04-04T08:56:48Z</time></trkpt><trkpt lat="45.73320485556937" lon="9.945430745203542"><ele>925.0</ele><time>2026-04-04T08:56:49Z</time></trkpt><trkpt lat="45.73327454079292" lon="9.945437362943649"><ele>925.0</ele><time>2026-04-04T08:56:50Z</time></trkpt><trkpt lat="45.73333228939413" lon="9.945395564220108"><ele>925.0</ele><time>2026-04-04T08:56:51Z</time></trkpt><trkpt lat="45.7333667215822" lon="9.945309756283534"><ele>925.0</ele><time>2026-04-04T08:56:52Z</time></trkpt><trkpt lat="45.733357980761006" lon="9.945200809282948"><ele>925.0</ele><time>2026-04-04T08:56:53Z</time></trkpt><trkpt lat="45.73332938669223" lon="9.945100409695593"><ele>925.0</ele><time>2026-04-04T08:56:54Z</time></trkpt><trkpt lat="45.733301901780465" lon="9.944998818567406"><ele>925.0</ele><time>2026-04-04T08:56:55Z</time></trkpt><trkpt lat="45.73329118033444" lon="9.94488839847227"><ele>925.0</ele><time>2026-04-04T08:56:56Z</time></trkpt><trkpt lat="45.73328609897654" lon="9.94477014862058"><ele>922.3333333333333</ele><time>2026-04-04T08:56:57Z</time></trkpt><trkpt lat="45.7332916077417" lon="9.944649826741946"><ele>919.6666666666666</ele><time>2026-04-04T08:56:58Z</time></trkpt><trkpt lat="45.733305962693535" lon="9.944528536308807"><ele>917.0</ele><time>2026-04-04T08:56:59Z</time></trkpt><trkpt lat="45.73332576753439" lon="9.94440413388601"><ele>914.3333333333333</ele><time>2026-04-04T08:57:00Z</time></trkpt><trkpt lat="45.73335089824543" lon="9.944278540164625"><ele>911.6666666666666</ele><time>2026-04-04T08:57:01Z</time></trkpt><trkpt lat="45.73338655883356" lon="9.944155959611038"><ele>909.0</ele><time>2026-04-04T08:57:02Z</time></trkpt><trkpt lat="45.73343388457488" lon="9.94404157858193"><ele>907.5</ele><time>2026-04-04T08:57:03Z</time></trkpt><trkpt lat="45.73349595812268" lon="9.943955485028017"><ele>906.0</ele><time>2026-04-04T08:57:04Z</time></trkpt><trkpt lat="45.733568547715116" lon="9.943908333034067"><ele>904.5</ele><time>2026-04-04T08:57:05Z</time></trkpt><trkpt lat="45.73364596622495" lon="9.943926470077187"><ele>903.0</ele><time>2026-04-04T08:57:06Z</time></trkpt><trkpt lat="45.73371666526707" lon="9.94394485597299"><ele>901.5</ele><time>2026-04-04T08:57:07Z</time></trkpt><trkpt lat="45.73378505731628" lon="9.94395114513228"><ele>900.0</ele><time>2026-04-04T08:57:08Z</time></trkpt><trkpt lat="45.73383730149802" lon="9.943876469584424"><ele>902.6</ele><time>2026-04-04T08:57:09Z</time></trkpt><trkpt lat="45.73383972217204" lon="9.943738246593426"><ele>905.2</ele><time>2026-04-04T08:57:10Z</time></trkpt><trkpt lat="45.733802616610184" lon="9.94362078374117"><ele>907.8</ele><time>2026-04-04T08:57:11Z</time></trkpt><trkpt lat="45.733741058203506" lon="9.943522258335689"><ele>910.4</ele><time>2026-04-04T08:57:12Z</time></trkpt><trkpt lat="45.7336856862478" lon="9.943415784207389"><ele>913.0</ele><time>2026-04-04T08:57:13Z</time></trkpt><trkpt lat="45.73362396537692" lon="9.943318618704572"><ele>913.0</ele><time>2026-04-04T08:57:14Z</time></trkpt><trkpt lat="45.733591957687" lon="9.943179263168105"><ele>913.0</ele><time>2026-04-04T08:57:15Z</time></trkpt><trkpt lat="45.73355689604003" lon="9.943047321217355"><ele>913.0</ele><time>2026-04-04T08:57:16Z</time></trkpt><trkpt lat="45.733534508496106" lon="9.94290753028603"><ele>913.0</ele><time>2026-04-04T08:57:17Z</time></trkpt><trkpt lat="45.73353591878844" lon="9.94275934666793"><ele>913.0</ele><time>2026-04-04T08:57:18Z</time></trkpt><trkpt lat="45.73355879094926" lon="9.94260699229278"><ele>912.2</ele><time>2026-04-04T08:57:18.999Z</time></trkpt><trkpt lat="45.733595327588894" lon="9.942460115951466"><ele>911.4</ele><time>2026-04-04T08:57:19.999Z</time></trkpt><trkpt lat="45.7336389827296" lon="9.942313213889074"><ele>910.6000000000001</ele><time>2026-04-04T08:57:20.999Z</time></trkpt><trkpt lat="45.73368127697536" lon="9.942163293938597"><ele>909.8000000000001</ele><time>2026-04-04T08:57:21.999Z</time></trkpt><trkpt lat="45.73371677301671" lon="9.942011239861836"><ele>909.0</ele><time>2026-04-04T08:57:22.999Z</time></trkpt><trkpt lat="45.73375866198098" lon="9.941871757101621"><ele>909.0</ele><time>2026-04-04T08:57:23.999Z</time></trkpt><trkpt lat="45.733807574020375" lon="9.941744467708213"><ele>909.0</ele><time>2026-04-04T08:57:24.999Z</time></trkpt><trkpt lat="45.733860734569184" lon="9.941627689003958"><ele>909.0</ele><time>2026-04-04T08:57:25.999Z</time></trkpt><trkpt lat="45.7339215049363" lon="9.941530509529592"><ele>909.0</ele><time>2026-04-04T08:57:26.999Z</time></trkpt><trkpt lat="45.73398174554347" lon="9.941450922784501"><ele>909.0</ele><time>2026-04-04T08:57:27.999Z</time></trkpt><trkpt lat="45.73401543170667" lon="9.941360889547463"><ele>909.0</ele><time>2026-04-04T08:57:28.999Z</time></trkpt><trkpt lat="45.73400570503478" lon="9.941264990906314"><ele>905.8000000000001</ele><time>2026-04-04T08:57:29.999Z</time></trkpt><trkpt lat="45.733883252932046" lon="9.94114973868188"><ele>902.6000000000001</ele><time>2026-04-04T08:57:31.999Z</time></trkpt><trkpt lat="45.733799126135224" lon="9.941242925016985"><ele>899.4</ele><time>2026-04-04T08:57:32.999Z</time></trkpt><trkpt lat="45.73373749097269" lon="9.94132262262015"><ele>896.2</ele><time>2026-04-04T08:57:33.999Z</time></trkpt><trkpt lat="45.73366609005373" lon="9.94140144903539"><ele>893.0</ele><time>2026-04-04T08:57:34.999Z</time></trkpt><trkpt lat="45.73360681659825" lon="9.94150068996899"><ele>890.8333333333334</ele><time>2026-04-04T08:57:35.999Z</time></trkpt><trkpt lat="45.73355074395525" lon="9.941613184654907"><ele>888.6666666666667</ele><time>2026-04-04T08:57:36.999Z</time></trkpt><trkpt lat="45.73350952018854" lon="9.941743725692135"><ele>886.5</ele><time>2026-04-04T08:57:37.999Z</time></trkpt><trkpt lat="45.73347814589918" lon="9.94187270007555"><ele>884.3333333333333</ele><time>2026-04-04T08:57:38.999Z</time></trkpt><trkpt lat="45.73345094750516" lon="9.94199045122946"><ele>882.1666666666666</ele><time>2026-04-04T08:57:39.999Z</time></trkpt><trkpt lat="45.73342609502645" lon="9.942085043624667"><ele>880.0</ele><time>2026-04-04T08:57:40.999Z</time></trkpt><trkpt lat="45.73334051324698" lon="9.942185579944343"><ele>879.9999999999999</ele><time>2026-04-04T08:57:42.999Z</time></trkpt><trkpt lat="45.73328205212929" lon="9.94213856481789"><ele>880.0</ele><time>2026-04-04T08:57:43.999Z</time></trkpt><trkpt lat="45.733265437166544" lon="9.942012097229838"><ele>880.0</ele><time>2026-04-04T08:57:44.999Z</time></trkpt><trkpt lat="45.73328934469769" lon="9.941894057774405"><ele>880.0</ele><time>2026-04-04T08:57:45.999Z</time></trkpt><trkpt lat="45.73331178601315" lon="9.941767748606262"><ele>879.9999999999999</ele><time>2026-04-04T08:57:46.999Z</time></trkpt><trkpt lat="45.73333353175185" lon="9.941635409018154"><ele>880.0</ele><time>2026-04-04T08:57:47.999Z</time></trkpt><trkpt lat="45.73335452088614" lon="9.9414914953393"><ele>878.4</ele><time>2026-04-04T08:57:48.999Z</time></trkpt><trkpt lat="45.733373159332245" lon="9.94134114580409"><ele>876.8</ele><time>2026-04-04T08:57:49.999Z</time></trkpt><trkpt lat="45.73339358164513" lon="9.941188677198998"><ele>875.2</ele><time>2026-04-04T08:57:50.999Z</time></trkpt><trkpt lat="45.73341798521424" lon="9.941042696961295"><ele>873.6</ele><time>2026-04-04T08:57:51.999Z</time></trkpt><trkpt lat="45.73344973554386" lon="9.940911937567133"><ele>872.0</ele><time>2026-04-04T08:57:52.999Z</time></trkpt><trkpt lat="45.73348087625876" lon="9.940793891193474"><ele>869.6666666666667</ele><time>2026-04-04T08:57:53.999Z</time></trkpt><trkpt lat="45.73349950818976" lon="9.940686742468348"><ele>867.3333333333334</ele><time>2026-04-04T08:57:54.999Z</time></trkpt><trkpt lat="45.733477924910986" lon="9.940586730612255"><ele>865.0</ele><time>2026-04-04T08:57:55.999Z</time></trkpt><trkpt lat="45.73342160932749" lon="9.940518788426445"><ele>862.6666666666667</ele><time>2026-04-04T08:57:56.999Z</time></trkpt><trkpt lat="45.733352936817" lon="9.940475371497925"><ele>860.3333333333334</ele><time>2026-04-04T08:57:57.999Z</time></trkpt><trkpt lat="45.733269161245" lon="9.940531027036991"><ele>858.0</ele><time>2026-04-04T08:57:58.999Z</time></trkpt><trkpt lat="45.73321936405015" lon="9.940657837575792"><ele>858.0</ele><time>2026-04-04T08:57:59.999Z</time></trkpt><trkpt lat="45.733217396869286" lon="9.940791173674464"><ele>858.0</ele><time>2026-04-04T08:58:00.999Z</time></trkpt><trkpt lat="45.73320111755543" lon="9.940909447732341"><ele>858.0</ele><time>2026-04-04T08:58:01.999Z</time></trkpt><trkpt lat="45.733196438518945" lon="9.941000631516111"><ele>858.0</ele><time>2026-04-04T08:58:02.999Z</time></trkpt><trkpt lat="45.73313436081123" lon="9.941083871795145"><ele>858.0</ele><time>2026-04-04T08:58:04.999Z</time></trkpt><trkpt lat="45.73307475885756" lon="9.941029594894474"><ele>858.0</ele><time>2026-04-04T08:58:05.999Z</time></trkpt><trkpt lat="45.733043951959004" lon="9.940920419201559"><ele>858.0</ele><time>2026-04-04T08:58:06.999Z</time></trkpt><trkpt lat="45.73303784256409" lon="9.940799090800883"><ele>858.0</ele><time>2026-04-04T08:58:07.999Z</time></trkpt><trkpt lat="45.73302260502808" lon="9.940664040526531"><ele>858.0</ele><time>2026-04-04T08:58:08.999Z</time></trkpt><trkpt lat="45.733003341970594" lon="9.940539152189283"><ele>858.0</ele><time>2026-04-04T08:58:09.999Z</time></trkpt><trkpt lat="45.73297846335304" lon="9.940407710901864"><ele>858.0</ele><time>2026-04-04T08:58:10.998Z</time></trkpt><trkpt lat="45.732953397913775" lon="9.940258821967562"><ele>858.0</ele><time>2026-04-04T08:58:11.998Z</time></trkpt><trkpt lat="45.73293702127891" lon="9.940117526597463"><ele>858.0</ele><time>2026-04-04T08:58:12.998Z</time></trkpt><trkpt lat="45.73294368192569" lon="9.939985643347825"><ele>858.0</ele><time>2026-04-04T08:58:13.998Z</time></trkpt><trkpt lat="45.73296787216163" lon="9.939868977845547"><ele>858.0</ele><time>2026-04-04T08:58:14.998Z</time></trkpt><trkpt lat="45.73300421816194" lon="9.939771032403339"><ele>858.0</ele><time>2026-04-04T08:58:15.998Z</time></trkpt><trkpt lat="45.733020711999536" lon="9.939671934662922"><ele>858.0</ele><time>2026-04-04T08:58:16.998Z</time></trkpt><trkpt lat="45.73298651748147" lon="9.93958239561259"><ele>854.5999999999999</ele><time>2026-04-04T08:58:17.998Z</time></trkpt><trkpt lat="45.73291201345435" lon="9.939545567340973"><ele>851.1999999999999</ele><time>2026-04-04T08:58:18.998Z</time></trkpt><trkpt lat="45.73282439986833" lon="9.939543732445953"><ele>847.8</ele><time>2026-04-04T08:58:19.998Z</time></trkpt><trkpt lat="45.73274827498076" lon="9.939654736121746"><ele>844.4</ele><time>2026-04-04T08:58:20.998Z</time></trkpt><trkpt lat="45.732717432554786" lon="9.939803521978146"><ele>841.0</ele><time>2026-04-04T08:58:21.998Z</time></trkpt><trkpt lat="45.732657305949786" lon="9.939920185987178"><ele>840.5999999999999</ele><time>2026-04-04T08:58:22.998Z</time></trkpt><trkpt lat="45.73262932925929" lon="9.940063422721169"><ele>840.2</ele><time>2026-04-04T08:58:23.998Z</time></trkpt><trkpt lat="45.73264265034067" lon="9.9402135522753"><ele>839.8</ele><time>2026-04-04T08:58:24.998Z</time></trkpt><trkpt lat="45.732652910015446" lon="9.940361981044319"><ele>839.4000000000001</ele><time>2026-04-04T08:58:25.998Z</time></trkpt><trkpt lat="45.732669386838744" lon="9.940506965423896"><ele>839.0</ele><time>2026-04-04T08:58:26.998Z</time></trkpt><trkpt lat="45.73269202428673" lon="9.94064852998777"><ele>839.0000000000001</ele><time>2026-04-04T08:58:27.998Z</time></trkpt><trkpt lat="45.73269268560424" lon="9.94078207912871"><ele>839.0</ele><time>2026-04-04T08:58:28.998Z</time></trkpt><trkpt lat="45.73270449683304" lon="9.940891551025555"><ele>839.0</ele><time>2026-04-04T08:58:29.998Z</time></trkpt><trkpt lat="45.73271186760026" lon="9.940981866359369"><ele>839.0</ele><time>2026-04-04T08:58:30.998Z</time></trkpt><trkpt lat="45.732716094016695" lon="9.941137720460445"><ele>839.0000000000001</ele><time>2026-04-04T08:58:32.998Z</time></trkpt><trkpt lat="45.73265464121637" lon="9.941178595453179"><ele>839.0</ele><time>2026-04-04T08:58:33.998Z</time></trkpt><trkpt lat="45.732598254335294" lon="9.941080282447135"><ele>839.0</ele><time>2026-04-04T08:58:34.998Z</time></trkpt><trkpt lat="45.73252498477035" lon="9.940982635740061"><ele>839.0</ele><time>2026-04-04T08:58:36.998Z</time></trkpt><trkpt lat="45.73243171299951" lon="9.940880410726544"><ele>839.0</ele><time>2026-04-04T08:58:37.998Z</time></trkpt><trkpt lat="45.73236341505266" lon="9.940764994567704"><ele>839.0</ele><time>2026-04-04T08:58:38.998Z</time></trkpt><trkpt lat="45.73230375302494" lon="9.940675226971981"><ele>839.0</ele><time>2026-04-04T08:58:40Z</time></trkpt><trkpt lat="45.7322002337318" lon="9.940550005145703"><ele>839.0</ele><time>2026-04-04T08:58:41Z</time></trkpt><trkpt lat="45.73208447751284" lon="9.940424378026435"><ele>839.0</ele><time>2026-04-04T08:58:42Z</time></trkpt><trkpt lat="45.731987627799136" lon="9.940329221596533"><ele>839.0</ele><time>2026-04-04T08:58:43Z</time></trkpt><trkpt lat="45.73188892884124" lon="9.940254730011839"><ele>839.0</ele><time>2026-04-04T08:58:44Z</time></trkpt><trkpt lat="45.7317805381525" lon="9.940202680144397"><ele>834.25</ele><time>2026-04-04T08:58:45Z</time></trkpt><trkpt lat="45.7316548810449" lon="9.94019792905832"><ele>829.5</ele><time>2026-04-04T08:58:46Z</time></trkpt><trkpt lat="45.73153956713959" lon="9.940233728008254"><ele>824.75</ele><time>2026-04-04T08:58:47Z</time></trkpt><trkpt lat="45.73143449831568" lon="9.940323545650887"><ele>820.0</ele><time>2026-04-04T08:58:48Z</time></trkpt><trkpt lat="45.73134566434943" lon="9.940429832781273"><ele>820.0</ele><time>2026-04-04T08:58:49Z</time></trkpt><trkpt lat="45.73126391622553" lon="9.94054208709738"><ele>820.0</ele><time>2026-04-04T08:58:50Z</time></trkpt><trkpt lat="45.73119078198749" lon="9.940666962365292"><ele>820.0</ele><time>2026-04-04T08:58:51Z</time></trkpt><trkpt lat="45.73112773604614" lon="9.940791172010695"><ele>820.0</ele><time>2026-04-04T08:58:52Z</time></trkpt><trkpt lat="45.73107427755816" lon="9.940910240200184"><ele>820.0</ele><time>2026-04-04T08:58:53Z</time></trkpt><trkpt lat="45.7310361180933" lon="9.94101264991369"><ele>818.0</ele><time>2026-04-04T08:58:54Z</time></trkpt><trkpt lat="45.73096121161621" lon="9.941112262717041"><ele>816.0</ele><time>2026-04-04T08:58:56Z</time></trkpt><trkpt lat="45.730877440187534" lon="9.940982329773798"><ele>814.0</ele><time>2026-04-04T08:58:58Z</time></trkpt><trkpt lat="45.730886886870046" lon="9.940870599138906"><ele>812.0</ele><time>2026-04-04T08:58:59Z</time></trkpt><trkpt lat="45.73090877663982" lon="9.940736432278808"><ele>810.0</ele><time>2026-04-04T08:59:00Z</time></trkpt><trkpt lat="45.73092882422929" lon="9.940603019213913"><ele>808.0</ele><time>2026-04-04T08:59:01Z</time></trkpt><trkpt lat="45.730952898202695" lon="9.940458038465248"><ele>806.0</ele><time>2026-04-04T08:59:02Z</time></trkpt><trkpt lat="45.73097152132539" lon="9.94030378882584"><ele>804.0</ele><time>2026-04-04T08:59:03Z</time></trkpt><trkpt lat="45.73098855337475" lon="9.940142336502415"><ele>802.0</ele><time>2026-04-04T08:59:04Z</time></trkpt><trkpt lat="45.73100441337826" lon="9.939973902940936"><ele>800.0</ele><time>2026-04-04T08:59:05Z</time></trkpt><trkpt lat="45.73101683863944" lon="9.93981924275753"><ele>801.1666666666667</ele><time>2026-04-04T08:59:06Z</time></trkpt><trkpt lat="45.73102983147534" lon="9.939676917857653"><ele>802.3333333333334</ele><time>2026-04-04T08:59:07Z</time></trkpt><trkpt lat="45.731062737706786" lon="9.939559999668951"><ele>803.5</ele><time>2026-04-04T08:59:08Z</time></trkpt><trkpt lat="45.731119917161216" lon="9.939471961460967"><ele>804.6666666666667</ele><time>2026-04-04T08:59:09Z</time></trkpt><trkpt lat="45.73119789101468" lon="9.939414865945311"><ele>805.8333333333334</ele><time>2026-04-04T08:59:10Z</time></trkpt><trkpt lat="45.731278667060785" lon="9.939403917849683"><ele>807.0</ele><time>2026-04-04T08:59:11Z</time></trkpt><trkpt lat="45.73135273168906" lon="9.939414096190566"><ele>807.0</ele><time>2026-04-04T08:59:12Z</time></trkpt><trkpt lat="45.73141273325794" lon="9.93937759729673"><ele>807.0</ele><time>2026-04-04T08:59:13Z</time></trkpt><trkpt lat="45.73144520908701" lon="9.939293459315207"><ele>807.0</ele><time>2026-04-04T08:59:14Z</time></trkpt><trkpt lat="45.73143233399001" lon="9.939199896581908"><ele>807.0</ele><time>2026-04-04T08:59:15Z</time></trkpt><trkpt lat="45.73139872295711" lon="9.939103086196527"><ele>807.0</ele><time>2026-04-04T08:59:16Z</time></trkpt><trkpt lat="45.7313001924621" lon="9.939080086604063"><ele>807.0</ele><time>2026-04-04T08:59:17Z</time></trkpt><trkpt lat="45.73122412763115" lon="9.93902808089105"><ele>804.8</ele><time>2026-04-04T08:59:18Z</time></trkpt><trkpt lat="45.73114506510274" lon="9.938958380458093"><ele>802.6</ele><time>2026-04-04T08:59:19Z</time></trkpt><trkpt lat="45.73106080972427" lon="9.938880537084557"><ele>800.4</ele><time>2026-04-04T08:59:20Z</time></trkpt><trkpt lat="45.7309807694715" lon="9.938800645490964"><ele>798.1999999999999</ele><time>2026-04-04T08:59:21Z</time></trkpt><trkpt lat="45.73091475426655" lon="9.938724672032489"><ele>796.0</ele><time>2026-04-04T08:59:21.999Z</time></trkpt><trkpt lat="45.73085439058322" lon="9.938650798844654"><ele>793.8333333333333</ele><time>2026-04-04T08:59:22.999Z</time></trkpt><trkpt lat="45.73078869248037" lon="9.93860615425237"><ele>791.6666666666666</ele><time>2026-04-04T08:59:23.999Z</time></trkpt><trkpt lat="45.73072076502513" lon="9.938566870685117"><ele>789.5</ele><time>2026-04-04T08:59:24.999Z</time></trkpt><trkpt lat="45.73062992613061" lon="9.938633113040902"><ele>787.3333333333333</ele><time>2026-04-04T08:59:25.999Z</time></trkpt><trkpt lat="45.73058056911754" lon="9.938748155290048"><ele>785.1666666666666</ele><time>2026-04-04T08:59:26.999Z</time></trkpt><trkpt lat="45.73052689581046" lon="9.938823838025646"><ele>783.0</ele><time>2026-04-04T08:59:27.999Z</time></trkpt><trkpt lat="45.730472227835364" lon="9.93890173065801"><ele>783.0</ele><time>2026-04-04T08:59:28.999Z</time></trkpt><trkpt lat="45.730426306803366" lon="9.93899600486835"><ele>783.0</ele><time>2026-04-04T08:59:29.999Z</time></trkpt><trkpt lat="45.73040035938735" lon="9.939110523260185"><ele>783.0</ele><time>2026-04-04T08:59:30.999Z</time></trkpt><trkpt lat="45.730370710466886" lon="9.93921592370924"><ele>783.0</ele><time>2026-04-04T08:59:31.999Z</time></trkpt><trkpt lat="45.730362021832576" lon="9.93935617633849"><ele>783.0</ele><time>2026-04-04T08:59:32.999Z</time></trkpt><trkpt lat="45.73033037245572" lon="9.939498281108994"><ele>783.0</ele><time>2026-04-04T08:59:33.999Z</time></trkpt><trkpt lat="45.73030089519099" lon="9.939643549095225"><ele>781.8</ele><time>2026-04-04T08:59:34.999Z</time></trkpt><trkpt lat="45.73028550575022" lon="9.939770753298005"><ele>780.5999999999999</ele><time>2026-04-04T08:59:35.999Z</time></trkpt><trkpt lat="45.73027384067604" lon="9.939869056772032"><ele>779.4000000000001</ele><time>2026-04-04T08:59:36.999Z</time></trkpt><trkpt lat="45.73026060412356" lon="9.9400289947671"><ele>778.2</ele><time>2026-04-04T08:59:38.999Z</time></trkpt><trkpt lat="45.730138267513986" lon="9.940006723215115"><ele>777.0</ele><time>2026-04-04T08:59:40.999Z</time></trkpt><trkpt lat="45.73009138910298" lon="9.939926847813402"><ele>777.0</ele><time>2026-04-04T08:59:41.999Z</time></trkpt><trkpt lat="45.73006951636946" lon="9.939787421135398"><ele>777.0</ele><time>2026-04-04T08:59:42.999Z</time></trkpt><trkpt lat="45.730030344817486" lon="9.939690089648908"><ele>777.0</ele><time>2026-04-04T08:59:43.999Z</time></trkpt><trkpt lat="45.72997590303236" lon="9.939619487729782"><ele>777.0</ele><time>2026-04-04T08:59:44.999Z</time></trkpt><trkpt lat="45.72991745197832" lon="9.939529571182629"><ele>777.0</ele><time>2026-04-04T08:59:45.999Z</time></trkpt><trkpt lat="45.72985250555321" lon="9.939458878142018"><ele>777.0</ele><time>2026-04-04T08:59:46.999Z</time></trkpt><trkpt lat="45.72977558077277" lon="9.939414864064565"><ele>777.0</ele><time>2026-04-04T08:59:47.999Z</time></trkpt><trkpt lat="45.72970429559882" lon="9.939370952786726"><ele>777.0</ele><time>2026-04-04T08:59:48.999Z</time></trkpt><trkpt lat="45.72961835779925" lon="9.939311443766016"><ele>777.0</ele><time>2026-04-04T08:59:49.999Z</time></trkpt><trkpt lat="45.72954248525038" lon="9.939235733812277"><ele>777.0</ele><time>2026-04-04T08:59:50.999Z</time></trkpt><trkpt lat="45.7294934206273" lon="9.93912896039238"><ele>777.0</ele><time>2026-04-04T08:59:51.999Z</time></trkpt><trkpt lat="45.72947927774152" lon="9.938998791206988"><ele>777.0</ele><time>2026-04-04T08:59:52.999Z</time></trkpt><trkpt lat="45.72949403032687" lon="9.9388619780279"><ele>775.4000000000001</ele><time>2026-04-04T08:59:53.999Z</time></trkpt><trkpt lat="45.729508227906436" lon="9.93873932203954"><ele>773.8000000000001</ele><time>2026-04-04T08:59:54.999Z</time></trkpt><trkpt lat="45.72950462251001" lon="9.938616291625022"><ele>772.2</ele><time>2026-04-04T08:59:55.999Z</time></trkpt><trkpt lat="45.72948118716529" lon="9.938486276259118"><ele>770.6</ele><time>2026-04-04T08:59:56.999Z</time></trkpt><trkpt lat="45.72945041397933" lon="9.938353267702524"><ele>769.0</ele><time>2026-04-04T08:59:57.999Z</time></trkpt><trkpt lat="45.729412675220715" lon="9.938220131173667"><ele>768.8000000000001</ele><time>2026-04-04T08:59:58.999Z</time></trkpt><trkpt lat="45.72937186605615" lon="9.938082814240174"><ele>768.6</ele><time>2026-04-04T08:59:59.999Z</time></trkpt><trkpt lat="45.72933666001388" lon="9.937941308363719"><ele>768.4</ele><time>2026-04-04T09:00:00.999Z</time></trkpt><trkpt lat="45.72929742824628" lon="9.937795691087233"><ele>768.2</ele><time>2026-04-04T09:00:01.999Z</time></trkpt><trkpt lat="45.72925512031163" lon="9.937647419275757"><ele>768.0</ele><time>2026-04-04T09:00:02.999Z</time></trkpt><trkpt lat="45.72921293617202" lon="9.937498948005151"><ele>765.25</ele><time>2026-04-04T09:00:03.999Z</time></trkpt><trkpt lat="45.729170555456605" lon="9.937344212642154"><ele>762.5</ele><time>2026-04-04T09:00:04.999Z</time></trkpt><trkpt lat="45.729137718822486" lon="9.937179720159062"><ele>759.75</ele><time>2026-04-04T09:00:05.999Z</time></trkpt><trkpt lat="45.72912048181613" lon="9.937005679793057"><ele>757.0</ele><time>2026-04-04T09:00:06.999Z</time></trkpt><trkpt lat="45.729115380953566" lon="9.936825970308819"><ele>753.75</ele><time>2026-04-04T09:00:07.999Z</time></trkpt><trkpt lat="45.729122321873774" lon="9.936641935629945"><ele>750.5</ele><time>2026-04-04T09:00:08.999Z</time></trkpt><trkpt lat="45.72913073151771" lon="9.936452868772372"><ele>747.25</ele><time>2026-04-04T09:00:09.999Z</time></trkpt><trkpt lat="45.72913685386267" lon="9.936263716652455"><ele>744.0</ele><time>2026-04-04T09:00:10.999Z</time></trkpt><trkpt lat="45.72913347942195" lon="9.936072515811313"><ele>742.5</ele><time>2026-04-04T09:00:11.999Z</time></trkpt><trkpt lat="45.72912043740558" lon="9.935881158225536"><ele>741.0</ele><time>2026-04-04T09:00:12.999Z</time></trkpt><trkpt lat="45.7291045743565" lon="9.935682829502236"><ele>739.5</ele><time>2026-04-04T09:00:13.998Z</time></trkpt><trkpt lat="45.72907934076178" lon="9.93548874421358"><ele>738.0</ele><time>2026-04-04T09:00:14.998Z</time></trkpt><trkpt lat="45.72905901486063" lon="9.935294680895293"><ele>738.0</ele><time>2026-04-04T09:00:15.998Z</time></trkpt><trkpt lat="45.72905762297159" lon="9.935102471845767"><ele>738.0</ele><time>2026-04-04T09:00:16.998Z</time></trkpt><trkpt lat="45.72906811828981" lon="9.934909862006794"><ele>738.0</ele><time>2026-04-04T09:00:17.998Z</time></trkpt><trkpt lat="45.72908580986564" lon="9.934724231549504"><ele>738.0</ele><time>2026-04-04T09:00:18.998Z</time></trkpt><trkpt lat="45.729108426466645" lon="9.934544520825531"><ele>737.0</ele><time>2026-04-04T09:00:19.998Z</time></trkpt><trkpt lat="45.72913390473102" lon="9.93437616340838"><ele>736.0</ele><time>2026-04-04T09:00:20.998Z</time></trkpt><trkpt lat="45.72915296417989" lon="9.934210384347216"><ele>735.0</ele><time>2026-04-04T09:00:21.998Z</time></trkpt><trkpt lat="45.72916769474826" lon="9.934048708112906"><ele>734.0</ele><time>2026-04-04T09:00:22.998Z</time></trkpt><trkpt lat="45.72918471947553" lon="9.933890075792071"><ele>733.6</ele><time>2026-04-04T09:00:23.998Z</time></trkpt><trkpt lat="45.72919899809407" lon="9.933746009517016"><ele>733.2</ele><time>2026-04-04T09:00:24.998Z</time></trkpt><trkpt lat="45.72920821209143" lon="9.933610035517175"><ele>732.8000000000001</ele><time>2026-04-04T09:00:25.998Z</time></trkpt><trkpt lat="45.729214024608666" lon="9.933479587579606"><ele>732.4000000000001</ele><time>2026-04-04T09:00:26.998Z</time></trkpt><trkpt lat="45.729201850303035" lon="9.933350169413341"><ele>732.0</ele><time>2026-04-04T09:00:27.998Z</time></trkpt><trkpt lat="45.7291612146507" lon="9.933221290733723"><ele>730.3333333333334</ele><time>2026-04-04T09:00:28.998Z</time></trkpt><trkpt lat="45.72910442700429" lon="9.933116168148628"><ele>728.6666666666666</ele><time>2026-04-04T09:00:29.998Z</time></trkpt><trkpt lat="45.729038739970086" lon="9.933043196488166"><ele>727.0</ele><time>2026-04-04T09:00:30.998Z</time></trkpt><trkpt lat="45.72897496680056" lon="9.93299070078097"><ele>725.3333333333333</ele><time>2026-04-04T09:00:31.998Z</time></trkpt><trkpt lat="45.728922489542406" lon="9.932835546836515"><ele>723.6666666666666</ele><time>2026-04-04T09:00:33.998Z</time></trkpt><trkpt lat="45.728942307090065" lon="9.932726276339361"><ele>722.0</ele><time>2026-04-04T09:00:34.998Z</time></trkpt><trkpt lat="45.72897693067222" lon="9.932607245268196"><ele>719.0</ele><time>2026-04-04T09:00:35.998Z</time></trkpt><trkpt lat="45.72901862391435" lon="9.932475266460674"><ele>716.0</ele><time>2026-04-04T09:00:36.998Z</time></trkpt><trkpt lat="45.72905537809807" lon="9.932334924599187"><ele>713.0</ele><time>2026-04-04T09:00:37.998Z</time></trkpt><trkpt lat="45.72909427313473" lon="9.932196909718773"><ele>710.0</ele><time>2026-04-04T09:00:38.998Z</time></trkpt><trkpt lat="45.72913216949599" lon="9.932068490178594"><ele>707.0</ele><time>2026-04-04T09:00:39.998Z</time></trkpt><trkpt lat="45.72915586684756" lon="9.93193982313249"><ele>707.0</ele><time>2026-04-04T09:00:40.998Z</time></trkpt><trkpt lat="45.729145065090954" lon="9.931800725849428"><ele>707.0</ele><time>2026-04-04T09:00:41.998Z</time></trkpt><trkpt lat="45.72909476878608" lon="9.93165895484362"><ele>707.0</ele><time>2026-04-04T09:00:42.998Z</time></trkpt><trkpt lat="45.72901393874933" lon="9.93153445752246"><ele>707.0</ele><time>2026-04-04T09:00:43.998Z</time></trkpt><trkpt lat="45.72892193215795" lon="9.931415554136743"><ele>704.75</ele><time>2026-04-04T09:00:44.998Z</time></trkpt><trkpt lat="45.72882732772141" lon="9.931289092256518"><ele>702.5</ele><time>2026-04-04T09:00:46Z</time></trkpt><trkpt lat="45.72873596048626" lon="9.931168514074253"><ele>700.25</ele><time>2026-04-04T09:00:47Z</time></trkpt><trkpt lat="45.72864835228453" lon="9.931056275147954"><ele>698.0</ele><time>2026-04-04T09:00:48Z</time></trkpt><trkpt lat="45.72855886810385" lon="9.93095556627728"><ele>695.75</ele><time>2026-04-04T09:00:49Z</time></trkpt><trkpt lat="45.72846106856876" lon="9.930873180589478"><ele>693.5</ele><time>2026-04-04T09:00:50Z</time></trkpt><trkpt lat="45.72835698903174" lon="9.930801650046243"><ele>691.25</ele><time>2026-04-04T09:00:51Z</time></trkpt><trkpt lat="45.72824888809343" lon="9.930735133974554"><ele>689.0</ele><time>2026-04-04T09:00:52Z</time></trkpt><trkpt lat="45.72813639724347" lon="9.930665590570442"><ele>689.0</ele><time>2026-04-04T09:00:53Z</time></trkpt><trkpt lat="45.72802109506284" lon="9.930587314019034"><ele>689.0</ele><time>2026-04-04T09:00:54Z</time></trkpt><trkpt lat="45.72790363369177" lon="9.930511723448083"><ele>689.0</ele><time>2026-04-04T09:00:55Z</time></trkpt><trkpt lat="45.72778240643534" lon="9.930431683824688"><ele>689.0</ele><time>2026-04-04T09:00:56Z</time></trkpt><trkpt lat="45.72765927728699" lon="9.930351249220054"><ele>686.25</ele><time>2026-04-04T09:00:57Z</time></trkpt><trkpt lat="45.72754106069035" lon="9.930277983999446"><ele>683.5</ele><time>2026-04-04T09:00:58Z</time></trkpt><trkpt lat="45.72741718280327" lon="9.930196076604608"><ele>680.75</ele><time>2026-04-04T09:00:59Z</time></trkpt><trkpt lat="45.72730231783027" lon="9.930107656314028"><ele>678.0</ele><time>2026-04-04T09:01:00Z</time></trkpt><trkpt lat="45.72719540199747" lon="9.930015847577904"><ele>678.0</ele><time>2026-04-04T09:01:01Z</time></trkpt><trkpt lat="45.727096568870884" lon="9.92992867873963"><ele>678.0</ele><time>2026-04-04T09:01:02Z</time></trkpt><trkpt lat="45.72701058062625" lon="9.92984524170004"><ele>678.0</ele><time>2026-04-04T09:01:03Z</time></trkpt><trkpt lat="45.72693128436027" lon="9.92975426254039"><ele>678.0</ele><time>2026-04-04T09:01:04Z</time></trkpt><trkpt lat="45.72685572211325" lon="9.929645298317544"><ele>678.0</ele><time>2026-04-04T09:01:05Z</time></trkpt><trkpt lat="45.72678979416232" lon="9.929515613583279"><ele>674.0</ele><time>2026-04-04T09:01:06Z</time></trkpt><trkpt lat="45.726731294858276" lon="9.9293660899028"><ele>670.0</ele><time>2026-04-04T09:01:07Z</time></trkpt><trkpt lat="45.72667944993488" lon="9.929220347849888"><ele>666.0</ele><time>2026-04-04T09:01:08Z</time></trkpt><trkpt lat="45.726623138102056" lon="9.929087765698052"><ele>662.0</ele><time>2026-04-04T09:01:09Z</time></trkpt><trkpt lat="45.72656159492544" lon="9.928963619415741"><ele>658.0</ele><time>2026-04-04T09:01:10Z</time></trkpt><trkpt lat="45.72650133800895" lon="9.928845669264922"><ele>657.8333333333334</ele><time>2026-04-04T09:01:11Z</time></trkpt><trkpt lat="45.726444866174155" lon="9.92872782211392"><ele>657.6666666666667</ele><time>2026-04-04T09:01:12Z</time></trkpt><trkpt lat="45.726399899177366" lon="9.928603662740969"><ele>657.5</ele><time>2026-04-04T09:01:13Z</time></trkpt><trkpt lat="45.726376359100826" lon="9.928486733325188"><ele>657.3333333333334</ele><time>2026-04-04T09:01:14Z</time></trkpt><trkpt lat="45.72636656777677" lon="9.928367806499251"><ele>657.1666666666666</ele><time>2026-04-04T09:01:15Z</time></trkpt><trkpt lat="45.72637447919975" lon="9.928253072496641"><ele>657.0</ele><time>2026-04-04T09:01:16Z</time></trkpt><trkpt lat="45.72636160000533" lon="9.928160621649425"><ele>657.0</ele><time>2026-04-04T09:01:17Z</time></trkpt><trkpt lat="45.72630115631319" lon="9.928054620181534"><ele>657.0</ele><time>2026-04-04T09:01:19Z</time></trkpt><trkpt lat="45.726184213536605" lon="9.928136770062123"><ele>657.0</ele><time>2026-04-04T09:01:20Z</time></trkpt><trkpt lat="45.72616391098017" lon="9.928284691701842"><ele>657.0</ele><time>2026-04-04T09:01:21Z</time></trkpt><trkpt lat="45.72613956759433" lon="9.928393335350274"><ele>657.0</ele><time>2026-04-04T09:01:22Z</time></trkpt><trkpt lat="45.72611371717505" lon="9.928508514255158"><ele>657.0</ele><time>2026-04-04T09:01:23Z</time></trkpt><trkpt lat="45.72608426081559" lon="9.928630654207133"><ele>657.0</ele><time>2026-04-04T09:01:24Z</time></trkpt><trkpt lat="45.72605155185913" lon="9.928760780241316"><ele>657.0</ele><time>2026-04-04T09:01:25Z</time></trkpt><trkpt lat="45.72601816680615" lon="9.928898977681024"><ele>657.0</ele><time>2026-04-04T09:01:26Z</time></trkpt><trkpt lat="45.725985462298915" lon="9.929031269422604"><ele>657.0</ele><time>2026-04-04T09:01:26.999Z</time></trkpt><trkpt lat="45.725949521867435" lon="9.929145308395862"><ele>656.0</ele><time>2026-04-04T09:01:27.999Z</time></trkpt><trkpt lat="45.72590385113605" lon="9.929236450741625"><ele>655.0</ele><time>2026-04-04T09:01:28.999Z</time></trkpt><trkpt lat="45.72584384870478" lon="9.929322233878002"><ele>654.0</ele><time>2026-04-04T09:01:29.999Z</time></trkpt><trkpt lat="45.72576096245583" lon="9.929302757685951"><ele>653.0</ele><time>2026-04-04T09:01:30.999Z</time></trkpt><trkpt lat="45.72568869859749" lon="9.929283460400177"><ele>652.0</ele><time>2026-04-04T09:01:31.999Z</time></trkpt><trkpt lat="45.72560496820362" lon="9.929268341643603"><ele>651.0</ele><time>2026-04-04T09:01:32.999Z</time></trkpt><trkpt lat="45.72554233380667" lon="9.92917545750908"><ele>648.4</ele><time>2026-04-04T09:01:33.999Z</time></trkpt><trkpt lat="45.72548325874359" lon="9.92907609280865"><ele>645.8</ele><time>2026-04-04T09:01:34.999Z</time></trkpt><trkpt lat="45.725420249095095" lon="9.928966124395492"><ele>643.1999999999999</ele><time>2026-04-04T09:01:35.999Z</time></trkpt><trkpt lat="45.72536676873117" lon="9.928840846080801"><ele>640.5999999999999</ele><time>2026-04-04T09:01:36.999Z</time></trkpt><trkpt lat="45.725326993017916" lon="9.928698697847214"><ele>638.0</ele><time>2026-04-04T09:01:37.999Z</time></trkpt><trkpt lat="45.72528252113752" lon="9.928555664490027"><ele>637.0</ele><time>2026-04-04T09:01:38.999Z</time></trkpt><trkpt lat="45.725226391958635" lon="9.928416941881554"><ele>636.0</ele><time>2026-04-04T09:01:39.999Z</time></trkpt><trkpt lat="45.72515360070328" lon="9.928282837410464"><ele>635.0</ele><time>2026-04-04T09:01:40.999Z</time></trkpt><trkpt lat="45.72507129210816" lon="9.928153457589719"><ele>634.0</ele><time>2026-04-04T09:01:41.999Z</time></trkpt><trkpt lat="45.72497434428836" lon="9.928033414893445"><ele>634.0</ele><time>2026-04-04T09:01:42.999Z</time></trkpt><trkpt lat="45.724874158744434" lon="9.927916409315493"><ele>634.0</ele><time>2026-04-04T09:01:43.999Z</time></trkpt><trkpt lat="45.72477974171619" lon="9.92779623679023"><ele>634.0</ele><time>2026-04-04T09:01:44.999Z</time></trkpt><trkpt lat="45.72467975606951" lon="9.927679124884904"><ele>634.0</ele><time>2026-04-04T09:01:45.999Z</time></trkpt><trkpt lat="45.72458291008455" lon="9.927562688415929"><ele>633.0</ele><time>2026-04-04T09:01:46.999Z</time></trkpt><trkpt lat="45.72448940724249" lon="9.92744916408473"><ele>632.0</ele><time>2026-04-04T09:01:47.999Z</time></trkpt><trkpt lat="45.724399302329495" lon="9.927328355829058"><ele>631.0</ele><time>2026-04-04T09:01:48.999Z</time></trkpt><trkpt lat="45.724315870281906" lon="9.927197397320167"><ele>630.0</ele><time>2026-04-04T09:01:49.999Z</time></trkpt><trkpt lat="45.72423719181753" lon="9.927064755847171"><ele>630.0</ele><time>2026-04-04T09:01:50.999Z</time></trkpt><trkpt lat="45.72415960668089" lon="9.926932855690154"><ele>630.0</ele><time>2026-04-04T09:01:51.999Z</time></trkpt><trkpt lat="45.72407716424509" lon="9.926806120882373"><ele>630.0</ele><time>2026-04-04T09:01:52.999Z</time></trkpt><trkpt lat="45.723987829904814" lon="9.926686493627463"><ele>630.0</ele><time>2026-04-04T09:01:53.999Z</time></trkpt><trkpt lat="45.723899707488826" lon="9.926574302053604"><ele>623.75</ele><time>2026-04-04T09:01:54.999Z</time></trkpt><trkpt lat="45.7238131615468" lon="9.926474304558054"><ele>617.5</ele><time>2026-04-04T09:01:55.999Z</time></trkpt><trkpt lat="45.72373286985691" lon="9.926370392443282"><ele>611.25</ele><time>2026-04-04T09:01:56.999Z</time></trkpt><trkpt lat="45.72365972879813" lon="9.92625256080215"><ele>605.0</ele><time>2026-04-04T09:01:57.999Z</time></trkpt><trkpt lat="45.72359260026668" lon="9.926108363759493"><ele>605.25</ele><time>2026-04-04T09:01:58.999Z</time></trkpt><trkpt lat="45.72353000812791" lon="9.925956908385228"><ele>605.5</ele><time>2026-04-04T09:01:59.999Z</time></trkpt><trkpt lat="45.72347906371078" lon="9.925802578719685"><ele>605.75</ele><time>2026-04-04T09:02:00.999Z</time></trkpt><trkpt lat="45.72343700492399" lon="9.925650053080936"><ele>606.0</ele><time>2026-04-04T09:02:01.999Z</time></trkpt><trkpt lat="45.72341011241224" lon="9.925495764628232"><ele>606.0</ele><time>2026-04-04T09:02:02.999Z</time></trkpt><trkpt lat="45.72340673663704" lon="9.925338761414926"><ele>606.0</ele><time>2026-04-04T09:02:03.999Z</time></trkpt><trkpt lat="45.72341083776119" lon="9.925176193231268"><ele>606.0</ele><time>2026-04-04T09:02:04.999Z</time></trkpt><trkpt lat="45.723419829340386" lon="9.925008141948503"><ele>606.0</ele><time>2026-04-04T09:02:05.999Z</time></trkpt><trkpt lat="45.72343605978363" lon="9.924836909471413"><ele>603.0</ele><time>2026-04-04T09:02:06.999Z</time></trkpt><trkpt lat="45.72346376959913" lon="9.92467429766538"><ele>600.0</ele><time>2026-04-04T09:02:07.999Z</time></trkpt><trkpt lat="45.723491753275056" lon="9.924524383645686"><ele>597.0</ele><time>2026-04-04T09:02:08.999Z</time></trkpt><trkpt lat="45.72350039416459" lon="9.924372604486134"><ele>594.0</ele><time>2026-04-04T09:02:09.999Z</time></trkpt><trkpt lat="45.72350338130167" lon="9.924213352162381"><ele>591.0</ele><time>2026-04-04T09:02:10.999Z</time></trkpt><trkpt lat="45.72348965734403" lon="9.924053926395008"><ele>590.0</ele><time>2026-04-04T09:02:11.999Z</time></trkpt><trkpt lat="45.72347279961439" lon="9.923901544131908"><ele>589.0</ele><time>2026-04-04T09:02:12.999Z</time></trkpt><trkpt lat="45.723450404212954" lon="9.923760021655957"><ele>588.0</ele><time>2026-04-04T09:02:13.999Z</time></trkpt><trkpt lat="45.7234362324355" lon="9.923613693963206"><ele>587.0</ele><time>2026-04-04T09:02:14.999Z</time></trkpt><trkpt lat="45.72343728017591" lon="9.923465400633761"><ele>586.0</ele><time>2026-04-04T09:02:15.999Z</time></trkpt><trkpt lat="45.72344310811608" lon="9.923321799829425"><ele>584.0</ele><time>2026-04-04T09:02:16.999Z</time></trkpt><trkpt lat="45.72342950288347" lon="9.923180531596733"><ele>582.0</ele><time>2026-04-04T09:02:17.999Z</time></trkpt><trkpt lat="45.7233840741188" lon="9.923051197769656"><ele>580.0</ele><time>2026-04-04T09:02:18.998Z</time></trkpt><trkpt lat="45.723324404140754" lon="9.922942131192638"><ele>578.0</ele><time>2026-04-04T09:02:19.998Z</time></trkpt><trkpt lat="45.723271833325896" lon="9.92284138216425"><ele>576.0</ele><time>2026-04-04T09:02:20.998Z</time></trkpt><trkpt lat="45.72323427359277" lon="9.922734187216866"><ele>576.0</ele><time>2026-04-04T09:02:21.998Z</time></trkpt><trkpt lat="45.723214074711166" lon="9.922606064390688"><ele>576.0</ele><time>2026-04-04T09:02:22.998Z</time></trkpt><trkpt lat="45.72320690696329" lon="9.922463495894988"><ele>576.0</ele><time>2026-04-04T09:02:23.998Z</time></trkpt><trkpt lat="45.723209165088846" lon="9.92232160703628"><ele>576.0</ele><time>2026-04-04T09:02:24.998Z</time></trkpt><trkpt lat="45.723233626777805" lon="9.922182690424941"><ele>576.0</ele><time>2026-04-04T09:02:25.998Z</time></trkpt><trkpt lat="45.72326844947113" lon="9.922057992562861"><ele>572.2</ele><time>2026-04-04T09:02:26.998Z</time></trkpt><trkpt lat="45.72328860315596" lon="9.921922043981445"><ele>568.4000000000001</ele><time>2026-04-04T09:02:27.998Z</time></trkpt><trkpt lat="45.72329355252964" lon="9.921772449460587"><ele>564.6</ele><time>2026-04-04T09:02:28.998Z</time></trkpt><trkpt lat="45.7232851833334" lon="9.921631638450842"><ele>560.8000000000001</ele><time>2026-04-04T09:02:29.998Z</time></trkpt><trkpt lat="45.72326733439712" lon="9.921502133781859"><ele>557.0</ele><time>2026-04-04T09:02:30.998Z</time></trkpt><trkpt lat="45.72323082826586" lon="9.921387142140517"><ele>553.3333333333333</ele><time>2026-04-04T09:02:31.998Z</time></trkpt><trkpt lat="45.72317171476784" lon="9.921301855799745"><ele>549.6666666666666</ele><time>2026-04-04T09:02:32.998Z</time></trkpt><trkpt lat="45.72308901940352" lon="9.921260435706099"><ele>546.0</ele><time>2026-04-04T09:02:33.998Z</time></trkpt><trkpt lat="45.722999914632574" lon="9.921260491005592"><ele>542.3333333333334</ele><time>2026-04-04T09:02:34.998Z</time></trkpt><trkpt lat="45.72293289224778" lon="9.921214561220028"><ele>538.6666666666667</ele><time>2026-04-04T09:02:35.998Z</time></trkpt><trkpt lat="45.72286460942418" lon="9.921184802565717"><ele>535.0</ele><time>2026-04-04T09:02:36.998Z</time></trkpt><trkpt lat="45.722825272316044" lon="9.921073944671937"><ele>535.0</ele><time>2026-04-04T09:02:37.998Z</time></trkpt><trkpt lat="45.72281981864323" lon="9.920946300133762"><ele>535.0</ele><time>2026-04-04T09:02:38.998Z</time></trkpt><trkpt lat="45.72281786068493" lon="9.920797126339666"><ele>535.0</ele><time>2026-04-04T09:02:39.998Z</time></trkpt><trkpt lat="45.72282829643889" lon="9.920650229946753"><ele>535.0</ele><time>2026-04-04T09:02:40.998Z</time></trkpt><trkpt lat="45.722850331897234" lon="9.920507684786793"><ele>535.0</ele><time>2026-04-04T09:02:41.998Z</time></trkpt><trkpt lat="45.72288620140099" lon="9.920373867268268"><ele>532.1666666666667</ele><time>2026-04-04T09:02:42.998Z</time></trkpt><trkpt lat="45.7229261057774" lon="9.920260036628978"><ele>529.3333333333334</ele><time>2026-04-04T09:02:43.998Z</time></trkpt><trkpt lat="45.72296605245792" lon="9.920147552102799"><ele>526.5</ele><time>2026-04-04T09:02:44.998Z</time></trkpt><trkpt lat="45.72300915786047" lon="9.920051445996352"><ele>523.6666666666666</ele><time>2026-04-04T09:02:45.998Z</time></trkpt><trkpt lat="45.72305445860582" lon="9.919952055394619"><ele>520.8333333333333</ele><time>2026-04-04T09:02:46.998Z</time></trkpt><trkpt lat="45.72309861574473" lon="9.919838304237713"><ele>518.0</ele><time>2026-04-04T09:02:47.998Z</time></trkpt><trkpt lat="45.723121719030644" lon="9.919713533232212"><ele>514.6</ele><time>2026-04-04T09:02:48.998Z</time></trkpt><trkpt lat="45.72312562295986" lon="9.919586743991534"><ele>511.19999999999993</ele><time>2026-04-04T09:02:49.998Z</time></trkpt><trkpt lat="45.723115170046185" lon="9.919456048709058"><ele>507.8</ele><time>2026-04-04T09:02:50.998Z</time></trkpt><trkpt lat="45.7231045883008" lon="9.919318726288523"><ele>504.4</ele><time>2026-04-04T09:02:52Z</time></trkpt><trkpt lat="45.72310136056829" lon="9.919186690239322"><ele>501.0</ele><time>2026-04-04T09:02:53Z</time></trkpt><trkpt lat="45.723104476991104" lon="9.919059185220215"><ele>499.5</ele><time>2026-04-04T09:02:54Z</time></trkpt><trkpt lat="45.723102947391325" lon="9.918937573127637"><ele>498.0</ele><time>2026-04-04T09:02:55Z</time></trkpt><trkpt lat="45.723099040296916" lon="9.918838050284593"><ele>496.5</ele><time>2026-04-04T09:02:56Z</time></trkpt><trkpt lat="45.72308833156524" lon="9.91868173008441"><ele>495.0</ele><time>2026-04-04T09:02:58Z</time></trkpt><trkpt lat="45.7231146576557" lon="9.918571305896887"><ele>493.5</ele><time>2026-04-04T09:03:00Z</time></trkpt><trkpt lat="45.72320031054846" lon="9.918594150520807"><ele>492.0</ele><time>2026-04-04T09:03:02Z</time></trkpt><trkpt lat="45.723211021660205" lon="9.918705780580957"><ele>492.0</ele><time>2026-04-04T09:03:03Z</time></trkpt><trkpt lat="45.72324083663118" lon="9.918799649534725"><ele>492.0</ele><time>2026-04-04T09:03:04Z</time></trkpt><trkpt lat="45.723272976798064" lon="9.918904943612072"><ele>492.0</ele><time>2026-04-04T09:03:05Z</time></trkpt><trkpt lat="45.72330593846159" lon="9.919012927480482"><ele>492.0</ele><time>2026-04-04T09:03:06Z</time></trkpt><trkpt lat="45.723332378810454" lon="9.919112295263462"><ele>492.0</ele><time>2026-04-04T09:03:07Z</time></trkpt><trkpt lat="45.72334806176389" lon="9.919203564902151"><ele>492.0</ele><time>2026-04-04T09:03:08Z</time></trkpt><trkpt lat="45.72335734874053" lon="9.919370446347017"><ele>492.0</ele><time>2026-04-04T09:03:10Z</time></trkpt><trkpt lat="45.72337606322957" lon="9.919485096500033"><ele>492.0</ele><time>2026-04-04T09:03:12Z</time></trkpt><trkpt lat="45.72344096391055" lon="9.919538505786994"><ele>492.0</ele><time>2026-04-04T09:03:14Z</time></trkpt><trkpt lat="45.72350751171561" lon="9.919381529532941"><ele>492.0</ele><time>2026-04-04T09:03:16Z</time></trkpt><trkpt lat="45.72349985300192" lon="9.919275269754959"><ele>492.0</ele><time>2026-04-04T09:03:17Z</time></trkpt><trkpt lat="45.723497056394855" lon="9.919176203866956"><ele>492.0</ele><time>2026-04-04T09:03:18Z</time></trkpt><trkpt lat="45.72349953817842" lon="9.919078487211108"><ele>492.0</ele><time>2026-04-04T09:03:19Z</time></trkpt><trkpt lat="45.72350326524828" lon="9.918983017624464"><ele>492.0</ele><time>2026-04-04T09:03:20Z</time></trkpt><trkpt lat="45.72349935120032" lon="9.918882528776065"><ele>492.0</ele><time>2026-04-04T09:03:21Z</time></trkpt><trkpt lat="45.723490182643935" lon="9.918775902038735"><ele>492.0</ele><time>2026-04-04T09:03:22Z</time></trkpt><trkpt lat="45.72347015870634" lon="9.918679506689566"><ele>492.0</ele><time>2026-04-04T09:03:23Z</time></trkpt><trkpt lat="45.72341439252375" lon="9.918547223814882"><ele>492.0</ele><time>2026-04-04T09:03:25Z</time></trkpt><trkpt lat="45.72339041509494" lon="9.918449632260796"><ele>492.0</ele><time>2026-04-04T09:03:27Z</time></trkpt><trkpt lat="45.72344846198278" lon="9.918379016487462"><ele>492.0</ele><time>2026-04-04T09:03:29Z</time></trkpt><trkpt lat="45.72352040131685" lon="9.918477431871894"><ele>492.0</ele><time>2026-04-04T09:03:30Z</time></trkpt><trkpt lat="45.72354996015055" lon="9.918580811850653"><ele>492.0</ele><time>2026-04-04T09:03:30.999Z</time></trkpt><trkpt lat="45.72358065250297" lon="9.91867960100526"><ele>492.0</ele><time>2026-04-04T09:03:31.999Z</time></trkpt><trkpt lat="45.72361306152737" lon="9.918789930094228"><ele>492.0</ele><time>2026-04-04T09:03:32.999Z</time></trkpt><trkpt lat="45.72364672918488" lon="9.918904258661268"><ele>487.5</ele><time>2026-04-04T09:03:33.999Z</time></trkpt><trkpt lat="45.723658640605244" lon="9.9190204163591"><ele>483.0</ele><time>2026-04-04T09:03:34.999Z</time></trkpt><trkpt lat="45.72367839704548" lon="9.919125667082398"><ele>478.5</ele><time>2026-04-04T09:03:35.999Z</time></trkpt><trkpt lat="45.72370484644066" lon="9.919222841502995"><ele>474.0</ele><time>2026-04-04T09:03:36.999Z</time></trkpt><trkpt lat="45.72370465711517" lon="9.919316345167857"><ele>469.5</ele><time>2026-04-04T09:03:37.999Z</time></trkpt><trkpt lat="45.723696849286654" lon="9.919461500695355"><ele>465.0</ele><time>2026-04-04T09:03:39.999Z</time></trkpt><trkpt lat="45.72376835194506" lon="9.919527163554323"><ele>465.0</ele><time>2026-04-04T09:03:41.999Z</time></trkpt><trkpt lat="45.723823855461305" lon="9.919476627949624"><ele>465.0</ele><time>2026-04-04T09:03:42.999Z</time></trkpt><trkpt lat="45.72385316059674" lon="9.919390342285698"><ele>465.0</ele><time>2026-04-04T09:03:43.999Z</time></trkpt><trkpt lat="45.723860950946744" lon="9.919283614813606"><ele>465.0</ele><time>2026-04-04T09:03:44.999Z</time></trkpt><trkpt lat="45.72385873828461" lon="9.919173151038992"><ele>465.0</ele><time>2026-04-04T09:03:45.999Z</time></trkpt><trkpt lat="45.72386081148522" lon="9.919058592002786"><ele>465.0</ele><time>2026-04-04T09:03:46.999Z</time></trkpt><trkpt lat="45.72386935011708" lon="9.918944596128904"><ele>465.0</ele><time>2026-04-04T09:03:47.999Z</time></trkpt><trkpt lat="45.723876393401916" lon="9.918831315561919"><ele>462.8333333333333</ele><time>2026-04-04T09:03:48.999Z</time></trkpt><trkpt lat="45.723863609448834" lon="9.918739600761135"><ele>460.66666666666663</ele><time>2026-04-04T09:03:49.999Z</time></trkpt><trkpt lat="45.723835505919666" lon="9.918658456000141"><ele>458.5</ele><time>2026-04-04T09:03:50.999Z</time></trkpt><trkpt lat="45.72382149389876" lon="9.918507816236605"><ele>456.3333333333333</ele><time>2026-04-04T09:03:52.999Z</time></trkpt><trkpt lat="45.72389109983622" lon="9.918461315087356"><ele>454.16666666666663</ele><time>2026-04-04T09:03:55.999Z</time></trkpt><trkpt lat="45.72390537741943" lon="9.918561006655295"><ele>452.0</ele><time>2026-04-04T09:03:56.999Z</time></trkpt><trkpt lat="45.72395707567682" lon="9.918654175484699"><ele>452.0</ele><time>2026-04-04T09:03:57.999Z</time></trkpt><trkpt lat="45.72399647679308" lon="9.918758818111678"><ele>452.00000000000006</ele><time>2026-04-04T09:03:58.999Z</time></trkpt><trkpt lat="45.72400879868754" lon="9.918863232188745"><ele>452.00000000000006</ele><time>2026-04-04T09:03:59.999Z</time></trkpt><trkpt lat="45.724030607913456" lon="9.919022974648836"><ele>452.0</ele><time>2026-04-04T09:04:01.999Z</time></trkpt><trkpt lat="45.72407356509184" lon="9.919142639740473"><ele>452.0</ele><time>2026-04-04T09:04:03.999Z</time></trkpt><trkpt lat="45.72416487213101" lon="9.91909747020572"><ele>451.99999999999994</ele><time>2026-04-04T09:04:05.999Z</time></trkpt><trkpt lat="45.72419057014543" lon="9.918925051387747"><ele>452.0</ele><time>2026-04-04T09:04:07.999Z</time></trkpt><trkpt lat="45.72420316077606" lon="9.918822718019172"><ele>452.0</ele><time>2026-04-04T09:04:08.999Z</time></trkpt><trkpt lat="45.72421680452244" lon="9.918712546926443"><ele>452.0</ele><time>2026-04-04T09:04:09.999Z</time></trkpt><trkpt lat="45.724215370780776" lon="9.918609182144055"><ele>451.99999999999994</ele><time>2026-04-04T09:04:10.999Z</time></trkpt><trkpt lat="45.72419005161578" lon="9.918521039535577"><ele>452.0</ele><time>2026-04-04T09:04:11.999Z</time></trkpt><trkpt lat="45.724171916353285" lon="9.9184341808043"><ele>451.99999999999994</ele><time>2026-04-04T09:04:12.999Z</time></trkpt><trkpt lat="45.72411361066666" lon="9.918327507470053"><ele>452.0</ele><time>2026-04-04T09:04:14.999Z</time></trkpt><trkpt lat="45.72418089327207" lon="9.91824902707705"><ele>452.0</ele><time>2026-04-04T09:04:16.999Z</time></trkpt><trkpt lat="45.72424313262337" lon="9.918285833148392"><ele>452.0</ele><time>2026-04-04T09:04:17.999Z</time></trkpt><trkpt lat="45.724292355865074" lon="9.918372535777044"><ele>451.99999999999994</ele><time>2026-04-04T09:04:18.999Z</time></trkpt><trkpt lat="45.72433124248093" lon="9.918468117440243"><ele>452.0</ele><time>2026-04-04T09:04:19.999Z</time></trkpt><trkpt lat="45.72435673607709" lon="9.918560169013968"><ele>451.99999999999994</ele><time>2026-04-04T09:04:20.999Z</time></trkpt><trkpt lat="45.72435170752338" lon="9.918654560717405"><ele>452.0</ele><time>2026-04-04T09:04:21.999Z</time></trkpt><trkpt lat="45.72440446559688" lon="9.918795617325188"><ele>452.0</ele><time>2026-04-04T09:04:23.998Z</time></trkpt><trkpt lat="45.72447563596898" lon="9.918790378290604"><ele>452.0</ele><time>2026-04-04T09:04:24.998Z</time></trkpt><trkpt lat="45.72453194145651" lon="9.918655117947566"><ele>451.99999999999994</ele><time>2026-04-04T09:04:26.998Z</time></trkpt><trkpt lat="45.724513908532664" lon="9.918559939675896"><ele>452.0</ele><time>2026-04-04T09:04:27.998Z</time></trkpt><trkpt lat="45.72448936926401" lon="9.918466760904273"><ele>451.20000000000005</ele><time>2026-04-04T09:04:28.998Z</time></trkpt><trkpt lat="45.724482898494564" lon="9.91835875748842"><ele>450.40000000000003</ele><time>2026-04-04T09:04:29.998Z</time></trkpt><trkpt lat="45.724485076302315" lon="9.918237553767058"><ele>449.59999999999997</ele><time>2026-04-04T09:04:30.998Z</time></trkpt><trkpt lat="45.72448545467031" lon="9.918102489411776"><ele>448.79999999999995</ele><time>2026-04-04T09:04:31.998Z</time></trkpt><trkpt lat="45.72447551396877" lon="9.917965731542473"><ele>448.0</ele><time>2026-04-04T09:04:32.998Z</time></trkpt><trkpt lat="45.72445329847413" lon="9.91782100689437"><ele>448.0</ele><time>2026-04-04T09:04:33.998Z</time></trkpt><trkpt lat="45.724426516110285" lon="9.9176658099518"><ele>448.0</ele><time>2026-04-04T09:04:34.998Z</time></trkpt><trkpt lat="45.72438971549866" lon="9.917512891155045"><ele>448.0</ele><time>2026-04-04T09:04:35.998Z</time></trkpt><trkpt lat="45.7243319658811" lon="9.917370142129393"><ele>448.0</ele><time>2026-04-04T09:04:36.998Z</time></trkpt><trkpt lat="45.724265041560706" lon="9.917240407910501"><ele>443.4</ele><time>2026-04-04T09:04:37.998Z</time></trkpt><trkpt lat="45.724212889019356" lon="9.917107410071788"><ele>438.79999999999995</ele><time>2026-04-04T09:04:38.998Z</time></trkpt><trkpt lat="45.72416599469222" lon="9.916970222476955"><ele>434.2</ele><time>2026-04-04T09:04:39.998Z</time></trkpt><trkpt lat="45.72411712915734" lon="9.916829705196713"><ele>429.6</ele><time>2026-04-04T09:04:40.998Z</time></trkpt><trkpt lat="45.72406804402608" lon="9.916695802155424"><ele>425.0</ele><time>2026-04-04T09:04:41.998Z</time></trkpt><trkpt lat="45.72401996973623" lon="9.9165797610977"><ele>423.49999999999994</ele><time>2026-04-04T09:04:42.998Z</time></trkpt><trkpt lat="45.72397215402961" lon="9.916481645757008"><ele>422.0</ele><time>2026-04-04T09:04:43.998Z</time></trkpt><trkpt lat="45.72393353322731" lon="9.916378539790433"><ele>420.5</ele><time>2026-04-04T09:04:44.998Z</time></trkpt><trkpt lat="45.72391038348961" lon="9.91626644682289"><ele>419.0</ele><time>2026-04-04T09:04:45.998Z</time></trkpt><trkpt lat="45.7239205895058" lon="9.916147760871844"><ele>417.49999999999994</ele><time>2026-04-04T09:04:46.998Z</time></trkpt><trkpt lat="45.72397573339389" lon="9.91604788604285"><ele>416.0</ele><time>2026-04-04T09:04:47.998Z</time></trkpt><trkpt lat="45.72405521801502" lon="9.915971950660758"><ele>413.6</ele><time>2026-04-04T09:04:48.998Z</time></trkpt><trkpt lat="45.72413267486577" lon="9.915890072550653"><ele>411.20000000000005</ele><time>2026-04-04T09:04:49.998Z</time></trkpt><trkpt lat="45.724200449395894" lon="9.915791870158568"><ele>408.79999999999995</ele><time>2026-04-04T09:04:50.998Z</time></trkpt><trkpt lat="45.72425903118331" lon="9.915686932218398"><ele>406.4</ele><time>2026-04-04T09:04:51.998Z</time></trkpt><trkpt lat="45.72431859906529" lon="9.915585905668722"><ele>404.0</ele><time>2026-04-04T09:04:52.998Z</time></trkpt><trkpt lat="45.72438072253771" lon="9.915491484578066"><ele>407.2</ele><time>2026-04-04T09:04:53.998Z</time></trkpt><trkpt lat="45.72444015289492" lon="9.91539175364517"><ele>410.4</ele><time>2026-04-04T09:04:54.998Z</time></trkpt><trkpt lat="45.72449586310372" lon="9.915283746767907"><ele>413.6</ele><time>2026-04-04T09:04:55.998Z</time></trkpt><trkpt lat="45.724546438854524" lon="9.91517173362682"><ele>416.8</ele><time>2026-04-04T09:04:56.998Z</time></trkpt><trkpt lat="45.72459298162031" lon="9.91506233847459"><ele>420.0</ele><time>2026-04-04T09:04:58Z</time></trkpt><trkpt lat="45.72462608921795" lon="9.914940786935176"><ele>420.0</ele><time>2026-04-04T09:04:59Z</time></trkpt><trkpt lat="45.724663607836106" lon="9.914819885754843"><ele>420.0</ele><time>2026-04-04T09:05:00Z</time></trkpt><trkpt lat="45.72470644956572" lon="9.914701214049964"><ele>420.0</ele><time>2026-04-04T09:05:01Z</time></trkpt><trkpt lat="45.724757265786" lon="9.91458795487387"><ele>420.0</ele><time>2026-04-04T09:05:02Z</time></trkpt><trkpt lat="45.72481677929459" lon="9.914484203300537"><ele>420.0</ele><time>2026-04-04T09:05:03Z</time></trkpt><trkpt lat="45.72487385210055" lon="9.91437874731971"><ele>420.0</ele><time>2026-04-04T09:05:04Z</time></trkpt><trkpt lat="45.72492836106528" lon="9.914270474331873"><ele>420.0</ele><time>2026-04-04T09:05:05Z</time></trkpt><trkpt lat="45.72498016122375" lon="9.914162172599111"><ele>420.0</ele><time>2026-04-04T09:05:06Z</time></trkpt><trkpt lat="45.72502720106313" lon="9.914049562063008"><ele>420.0</ele><time>2026-04-04T09:05:07Z</time></trkpt><trkpt lat="45.72506781577147" lon="9.913930671816884"><ele>420.0</ele><time>2026-04-04T09:05:08Z</time></trkpt><trkpt lat="45.72510628928259" lon="9.913810697391312"><ele>418.6</ele><time>2026-04-04T09:05:09Z</time></trkpt><trkpt lat="45.72514276662869" lon="9.91368695267551"><ele>417.2</ele><time>2026-04-04T09:05:10Z</time></trkpt><trkpt lat="45.72517789162954" lon="9.913559174047178"><ele>415.79999999999995</ele><time>2026-04-04T09:05:11Z</time></trkpt><trkpt lat="45.72520890518711" lon="9.913428069128651"><ele>414.4</ele><time>2026-04-04T09:05:12Z</time></trkpt><trkpt lat="45.72524640613636" lon="9.913297932833188"><ele>413.0</ele><time>2026-04-04T09:05:13Z</time></trkpt><trkpt lat="45.725284312386435" lon="9.913168024909572"><ele>413.0</ele><time>2026-04-04T09:05:14Z</time></trkpt><trkpt lat="45.725328929205965" lon="9.913039492409286"><ele>413.0</ele><time>2026-04-04T09:05:15Z</time></trkpt><trkpt lat="45.72538176175217" lon="9.912917957303677"><ele>413.0</ele><time>2026-04-04T09:05:16Z</time></trkpt><trkpt lat="45.725438630550535" lon="9.91279663873572"><ele>413.0</ele><time>2026-04-04T09:05:17Z</time></trkpt><trkpt lat="45.725490626561076" lon="9.912667787605468"><ele>413.0</ele><time>2026-04-04T09:05:18Z</time></trkpt><trkpt lat="45.725544957877894" lon="9.912542359707771"><ele>408.79999999999995</ele><time>2026-04-04T09:05:19Z</time></trkpt><trkpt lat="45.72560381575187" lon="9.912424201917311"><ele>404.6</ele><time>2026-04-04T09:05:20Z</time></trkpt><trkpt lat="45.7256782455341" lon="9.91232094889265"><ele>400.4</ele><time>2026-04-04T09:05:21Z</time></trkpt><trkpt lat="45.72576427185043" lon="9.912236010046339"><ele>396.20000000000005</ele><time>2026-04-04T09:05:22Z</time></trkpt><trkpt lat="45.72585938138082" lon="9.912170710347286"><ele>392.0</ele><time>2026-04-04T09:05:23Z</time></trkpt><trkpt lat="45.72595776783909" lon="9.912120741933355"><ele>393.0</ele><time>2026-04-04T09:05:24Z</time></trkpt><trkpt lat="45.72606491612565" lon="9.9120946024501"><ele>394.0</ele><time>2026-04-04T09:05:25Z</time></trkpt><trkpt lat="45.726176435900825" lon="9.912075445835969"><ele>395.0</ele><time>2026-04-04T09:05:26Z</time></trkpt><trkpt lat="45.72629040653091" lon="9.912061744561896"><ele>396.0</ele><time>2026-04-04T09:05:27Z</time></trkpt><trkpt lat="45.726404264650604" lon="9.912047440659219"><ele>396.0</ele><time>2026-04-04T09:05:28Z</time></trkpt><trkpt lat="45.72651519880283" lon="9.912033708161065"><ele>396.0</ele><time>2026-04-04T09:05:29Z</time></trkpt><trkpt lat="45.72662053851448" lon="9.912018160425704"><ele>396.0</ele><time>2026-04-04T09:05:30Z</time></trkpt><trkpt lat="45.72671516955752" lon="9.911988711780815"><ele>396.0</ele><time>2026-04-04T09:05:31Z</time></trkpt><trkpt lat="45.72679574644027" lon="9.911948844196823"><ele>396.0</ele><time>2026-04-04T09:05:32Z</time></trkpt><trkpt lat="45.72686508575047" lon="9.911883129058468"><ele>396.3333333333333</ele><time>2026-04-04T09:05:33Z</time></trkpt><trkpt lat="45.726920635184705" lon="9.911799331704934"><ele>396.66666666666663</ele><time>2026-04-04T09:05:34Z</time></trkpt><trkpt lat="45.7269579745199" lon="9.911706949437056"><ele>397.0</ele><time>2026-04-04T09:05:34.999Z</time></trkpt><trkpt lat="45.7269818957281" lon="9.911622985387554"><ele>397.3333333333333</ele><time>2026-04-04T09:05:35.999Z</time></trkpt><trkpt lat="45.727025047890166" lon="9.911488351664412"><ele>397.66666666666663</ele><time>2026-04-04T09:05:37.999Z</time></trkpt><trkpt lat="45.72706422310502" lon="9.911379270655699"><ele>398.0</ele><time>2026-04-04T09:05:39.999Z</time></trkpt><trkpt lat="45.72710518313174" lon="9.911299919243376"><ele>396.49999999999994</ele><time>2026-04-04T09:05:41.999Z</time></trkpt><trkpt lat="45.727152341904876" lon="9.91118772557252"><ele>395.0</ele><time>2026-04-04T09:05:44.999Z</time></trkpt><trkpt lat="45.727193344114085" lon="9.911090259585597"><ele>393.5</ele><time>2026-04-04T09:05:47.999Z</time></trkpt><trkpt lat="45.72722581313968" lon="9.910997670328536"><ele>392.0</ele><time>2026-04-04T09:05:50.999Z</time></trkpt><trkpt lat="45.727265082669504" lon="9.910907178080658"><ele>390.49999999999994</ele><time>2026-04-04T09:05:53.999Z</time></trkpt><trkpt lat="45.72731855419062" lon="9.910807234929818"><ele>389.0</ele><time>2026-04-04T09:05:56.999Z</time></trkpt><trkpt lat="45.72736311654178" lon="9.910739596952833"><ele>388.3333333333333</ele><time>2026-04-04T09:05:58.999Z</time></trkpt><trkpt lat="45.7274026612286" lon="9.910666849844455"><ele>387.66666666666663</ele><time>2026-04-04T09:06:00.999Z</time></trkpt><trkpt lat="45.72746179413261" lon="9.910605056652873"><ele>387.0</ele><time>2026-04-04T09:06:02.999Z</time></trkpt><trkpt lat="45.72752646900809" lon="9.910559474560861"><ele>386.33333333333337</ele><time>2026-04-04T09:06:04.999Z</time></trkpt><trkpt lat="45.72759957401855" lon="9.910561490455775"><ele>385.6666666666667</ele><time>2026-04-04T09:06:06.999Z</time></trkpt><trkpt lat="45.72766182407206" lon="9.910615835541536"><ele>385.0</ele><time>2026-04-04T09:06:07.999Z</time></trkpt><trkpt lat="45.727743547638276" lon="9.910685727994117"><ele>385.1666666666667</ele><time>2026-04-04T09:06:09.999Z</time></trkpt><trkpt lat="45.727804816145536" lon="9.910754573239124"><ele>385.33333333333337</ele><time>2026-04-04T09:06:10.999Z</time></trkpt><trkpt lat="45.72786150704207" lon="9.910797664834394"><ele>385.5</ele><time>2026-04-04T09:06:11.999Z</time></trkpt><trkpt lat="45.72792153235033" lon="9.910880040340507"><ele>385.66666666666663</ele><time>2026-04-04T09:06:12.999Z</time></trkpt><trkpt lat="45.72798701875287" lon="9.910952404189722"><ele>385.8333333333333</ele><time>2026-04-04T09:06:13.999Z</time></trkpt><trkpt lat="45.72805436638926" lon="9.911032215409694"><ele>386.0</ele><time>2026-04-04T09:06:14.999Z</time></trkpt><trkpt lat="45.7281219232375" lon="9.911113867328737"><ele>385.99999999999994</ele><time>2026-04-04T09:06:15.999Z</time></trkpt><trkpt lat="45.728194890384984" lon="9.911189430280908"><ele>386.0</ele><time>2026-04-04T09:06:16.999Z</time></trkpt><trkpt lat="45.72827127540132" lon="9.911256902196653"><ele>386.0</ele><time>2026-04-04T09:06:17.999Z</time></trkpt><trkpt lat="45.72834461913462" lon="9.911329726122355"><ele>386.0</ele><time>2026-04-04T09:06:18.999Z</time></trkpt><trkpt lat="45.728409225474294" lon="9.911407068839921"><ele>385.99999999999994</ele><time>2026-04-04T09:06:19.999Z</time></trkpt><trkpt lat="45.72847059851447" lon="9.911472802562475"><ele>386.0</ele><time>2026-04-04T09:06:20.999Z</time></trkpt><trkpt lat="45.72852886957341" lon="9.911534081113958"><ele>386.0</ele><time>2026-04-04T09:06:21.999Z</time></trkpt><trkpt lat="45.72858976450477" lon="9.911565067159719"><ele>386.0</ele><time>2026-04-04T09:06:22.999Z</time></trkpt><trkpt lat="45.72867868034884" lon="9.911490769969202"><ele>386.0</ele><time>2026-04-04T09:06:24.999Z</time></trkpt><trkpt lat="45.72861113886447" lon="9.911326024339031"><ele>386.0</ele><time>2026-04-04T09:06:26.998Z</time></trkpt><trkpt lat="45.72854258235838" lon="9.911274031400259"><ele>386.0</ele><time>2026-04-04T09:06:27.998Z</time></trkpt><trkpt lat="45.728475040416185" lon="9.911200560968036"><ele>386.0</ele><time>2026-04-04T09:06:28.998Z</time></trkpt><trkpt lat="45.72840693575933" lon="9.911117748784683"><ele>386.0</ele><time>2026-04-04T09:06:29.998Z</time></trkpt><trkpt lat="45.72834919975279" lon="9.911011113764443"><ele>386.0</ele><time>2026-04-04T09:06:30.998Z</time></trkpt><trkpt lat="45.72829957997394" lon="9.910882339204672"><ele>386.0</ele><time>2026-04-04T09:06:31.998Z</time></trkpt><trkpt lat="45.72824394476023" lon="9.910755995382926"><ele>386.0</ele><time>2026-04-04T09:06:32.998Z</time></trkpt><trkpt lat="45.72820305987457" lon="9.910612478984273"><ele>382.20000000000005</ele><time>2026-04-04T09:06:33.998Z</time></trkpt><trkpt lat="45.72815509484516" lon="9.910474158189759"><ele>378.40000000000003</ele><time>2026-04-04T09:06:34.998Z</time></trkpt><trkpt lat="45.728100374171454" lon="9.910333581142117"><ele>374.6</ele><time>2026-04-04T09:06:35.998Z</time></trkpt><trkpt lat="45.72804800889195" lon="9.91019242049033"><ele>370.8</ele><time>2026-04-04T09:06:36.998Z</time></trkpt><trkpt lat="45.72798781228767" lon="9.910054436078475"><ele>367.0</ele><time>2026-04-04T09:06:37.998Z</time></trkpt><trkpt lat="45.72792670510525" lon="9.909913771251997"><ele>368.75</ele><time>2026-04-04T09:06:38.998Z</time></trkpt><trkpt lat="45.72785617047013" lon="9.909776510530785"><ele>370.5</ele><time>2026-04-04T09:06:39.998Z</time></trkpt><trkpt lat="45.72777952694915" lon="9.909637212881684"><ele>372.25</ele><time>2026-04-04T09:06:40.998Z</time></trkpt><trkpt lat="45.727707554564084" lon="9.9095021201857"><ele>374.0</ele><time>2026-04-04T09:06:41.998Z</time></trkpt><trkpt lat="45.727636574062096" lon="9.90936244645101"><ele>368.75</ele><time>2026-04-04T09:06:42.998Z</time></trkpt><trkpt lat="45.72756654987483" lon="9.909226829677468"><ele>363.5</ele><time>2026-04-04T09:06:43.998Z</time></trkpt><trkpt lat="45.72748941060335" lon="9.909096740358425"><ele>358.25</ele><time>2026-04-04T09:06:44.998Z</time></trkpt><trkpt lat="45.72741354079651" lon="9.90897512707252"><ele>353.0</ele><time>2026-04-04T09:06:45.998Z</time></trkpt><trkpt lat="45.72734713196339" lon="9.908849419904978"><ele>353.0</ele><time>2026-04-04T09:06:46.998Z</time></trkpt><trkpt lat="45.727286095196796" lon="9.908720747964422"><ele>353.0</ele><time>2026-04-04T09:06:47.998Z</time></trkpt><trkpt lat="45.727232904674935" lon="9.908589481669335"><ele>353.0</ele><time>2026-04-04T09:06:48.998Z</time></trkpt><trkpt lat="45.727204959273685" lon="9.908465914287895"><ele>353.0</ele><time>2026-04-04T09:06:49.998Z</time></trkpt><trkpt lat="45.72720116732331" lon="9.908333816899155"><ele>353.0</ele><time>2026-04-04T09:06:50.998Z</time></trkpt><trkpt lat="45.727213288999046" lon="9.908191427301627"><ele>350.4</ele><time>2026-04-04T09:06:51.998Z</time></trkpt><trkpt lat="45.72722675734299" lon="9.90804239198978"><ele>347.79999999999995</ele><time>2026-04-04T09:06:52.998Z</time></trkpt><trkpt lat="45.727223126388324" lon="9.907887524823321"><ele>345.2</ele><time>2026-04-04T09:06:53.998Z</time></trkpt><trkpt lat="45.72719139900926" lon="9.90773620605996"><ele>342.6</ele><time>2026-04-04T09:06:54.998Z</time></trkpt><trkpt lat="45.72713983696701" lon="9.90759492027908"><ele>340.0</ele><time>2026-04-04T09:06:55.998Z</time></trkpt><trkpt lat="45.72708266044772" lon="9.907454467621065"><ele>338.8</ele><time>2026-04-04T09:06:56.998Z</time></trkpt><trkpt lat="45.72702136682551" lon="9.90731780919096"><ele>337.6</ele><time>2026-04-04T09:06:57.998Z</time></trkpt><trkpt lat="45.72695261042743" lon="9.907186845641789"><ele>336.4</ele><time>2026-04-04T09:06:58.998Z</time></trkpt><trkpt lat="45.72688540137823" lon="9.907084420217018"><ele>335.2</ele><time>2026-04-04T09:06:59.998Z</time></trkpt><trkpt lat="45.72681590619572" lon="9.907010488296901"><ele>334.0</ele><time>2026-04-04T09:07:00.998Z</time></trkpt><trkpt lat="45.72674697933828" lon="9.90695117441127"><ele>333.5</ele><time>2026-04-04T09:07:01.998Z</time></trkpt><trkpt lat="45.726688845811594" lon="9.906912543824287"><ele>333.0</ele><time>2026-04-04T09:07:03Z</time></trkpt><trkpt lat="45.72667522918566" lon="9.906794564678801"><ele>332.5</ele><time>2026-04-04T09:07:05Z</time></trkpt><trkpt lat="45.72674008514315" lon="9.906744764244843"><ele>332.0</ele><time>2026-04-04T09:07:06Z</time></trkpt><trkpt lat="45.726819610962245" lon="9.90671724214553"><ele>331.5</ele><time>2026-04-04T09:07:07Z</time></trkpt><trkpt lat="45.72689169035861" lon="9.90666010879239"><ele>331.0</ele><time>2026-04-04T09:07:08Z</time></trkpt><trkpt lat="45.72696246365318" lon="9.906577253069074"><ele>330.20000000000005</ele><time>2026-04-04T09:07:09Z</time></trkpt><trkpt lat="45.727026445649436" lon="9.906476516628745"><ele>329.40000000000003</ele><time>2026-04-04T09:07:10Z</time></trkpt><trkpt lat="45.7270939787076" lon="9.906372693432"><ele>328.6</ele><time>2026-04-04T09:07:11Z</time></trkpt><trkpt lat="45.72715489982337" lon="9.906250828701769"><ele>327.8</ele><time>2026-04-04T09:07:12Z</time></trkpt><trkpt lat="45.72720936669987" lon="9.906116128632755"><ele>327.0</ele><time>2026-04-04T09:07:13Z</time></trkpt><trkpt lat="45.727258305097" lon="9.905967423750246"><ele>325.25</ele><time>2026-04-04T09:07:14Z</time></trkpt><trkpt lat="45.727304929349124" lon="9.905811680798191"><ele>323.5</ele><time>2026-04-04T09:07:15Z</time></trkpt><trkpt lat="45.72735196231115" lon="9.90565869319257"><ele>321.75</ele><time>2026-04-04T09:07:16Z</time></trkpt><trkpt lat="45.72739357543817" lon="9.90551283300823"><ele>320.0</ele><time>2026-04-04T09:07:17Z</time></trkpt><trkpt lat="45.72741455943153" lon="9.905362891944398"><ele>320.0</ele><time>2026-04-04T09:07:18Z</time></trkpt><trkpt lat="45.727403156957905" lon="9.90521224637553"><ele>320.0</ele><time>2026-04-04T09:07:19Z</time></trkpt><trkpt lat="45.72736524039199" lon="9.905078696286589"><ele>320.0</ele><time>2026-04-04T09:07:20Z</time></trkpt><trkpt lat="45.72730165686061" lon="9.904972018681766"><ele>320.0</ele><time>2026-04-04T09:07:21Z</time></trkpt><trkpt lat="45.72722087057507" lon="9.904896497713356"><ele>320.0</ele><time>2026-04-04T09:07:22Z</time></trkpt><trkpt lat="45.72713987119059" lon="9.904836742519969"><ele>319.83333333333337</ele><time>2026-04-04T09:07:23Z</time></trkpt><trkpt lat="45.72706484953495" lon="9.904768496948334"><ele>319.6666666666667</ele><time>2026-04-04T09:07:24Z</time></trkpt><trkpt lat="45.72699211078863" lon="9.90469584482333"><ele>319.5</ele><time>2026-04-04T09:07:25Z</time></trkpt><trkpt lat="45.726920729237875" lon="9.904622128271757"><ele>319.3333333333333</ele><time>2026-04-04T09:07:26Z</time></trkpt><trkpt lat="45.72685294738331" lon="9.904547070635491"><ele>319.16666666666663</ele><time>2026-04-04T09:07:27Z</time></trkpt><trkpt lat="45.72678419204768" lon="9.904471681026731"><ele>319.0</ele><time>2026-04-04T09:07:28Z</time></trkpt><trkpt lat="45.726719428692725" lon="9.904388263570384"><ele>319.0</ele><time>2026-04-04T09:07:29Z</time></trkpt><trkpt lat="45.726670745060915" lon="9.904285744241546"><ele>319.0</ele><time>2026-04-04T09:07:30Z</time></trkpt><trkpt lat="45.72663546482942" lon="9.904166865625758"><ele>319.0</ele><time>2026-04-04T09:07:31Z</time></trkpt><trkpt lat="45.726600978316974" lon="9.904045622361158"><ele>319.0</ele><time>2026-04-04T09:07:32Z</time></trkpt><trkpt lat="45.72656564515952" lon="9.903926273530269"><ele>319.0</ele><time>2026-04-04T09:07:33Z</time></trkpt><trkpt lat="45.726529394956394" lon="9.903806815968709"><ele>318.4</ele><time>2026-04-04T09:07:34Z</time></trkpt><trkpt lat="45.726486618514315" lon="9.903692122478493"><ele>317.79999999999995</ele><time>2026-04-04T09:07:35Z</time></trkpt><trkpt lat="45.7264337953368" lon="9.90358394853546"><ele>317.20000000000005</ele><time>2026-04-04T09:07:36Z</time></trkpt><trkpt lat="45.72637797141605" lon="9.903479087119868"><ele>316.6</ele><time>2026-04-04T09:07:37Z</time></trkpt><trkpt lat="45.7263202698576" lon="9.903378623439014"><ele>316.0</ele><time>2026-04-04T09:07:37.999Z</time></trkpt><trkpt lat="45.726269036905464" lon="9.903276096154976"><ele>316.16666666666663</ele><time>2026-04-04T09:07:38.999Z</time></trkpt><trkpt lat="45.72621712987416" lon="9.903177964968666"><ele>316.3333333333333</ele><time>2026-04-04T09:07:39.999Z</time></trkpt><trkpt lat="45.726162569971684" lon="9.903078828899226"><ele>316.5</ele><time>2026-04-04T09:07:40.999Z</time></trkpt><trkpt lat="45.7261066143686" lon="9.902979430426782"><ele>316.6666666666667</ele><time>2026-04-04T09:07:41.999Z</time></trkpt><trkpt lat="45.72605033349913" lon="9.902879261905834"><ele>316.83333333333337</ele><time>2026-04-04T09:07:42.999Z</time></trkpt><trkpt lat="45.725994033103376" lon="9.902779491159345"><ele>317.0</ele><time>2026-04-04T09:07:43.999Z</time></trkpt><trkpt lat="45.72593540049862" lon="9.902683081295086"><ele>317.0</ele><time>2026-04-04T09:07:44.999Z</time></trkpt><trkpt lat="45.72587485259629" lon="9.902586675868221"><ele>317.0</ele><time>2026-04-04T09:07:45.999Z</time></trkpt><trkpt lat="45.72581146627952" lon="9.902490844483705"><ele>317.0</ele><time>2026-04-04T09:07:46.999Z</time></trkpt><trkpt lat="45.725745962438204" lon="9.902395810071733"><ele>317.0</ele><time>2026-04-04T09:07:47.999Z</time></trkpt><trkpt lat="45.725681183217056" lon="9.902298959681115"><ele>317.0</ele><time>2026-04-04T09:07:48.999Z</time></trkpt><trkpt lat="45.72560804757444" lon="9.902208466047512"><ele>315.4</ele><time>2026-04-04T09:07:49.999Z</time></trkpt><trkpt lat="45.7255371848801" lon="9.90211240949687"><ele>313.79999999999995</ele><time>2026-04-04T09:07:50.999Z</time></trkpt><trkpt lat="45.72547274308163" lon="9.902009483664555"><ele>312.2</ele><time>2026-04-04T09:07:51.999Z</time></trkpt><trkpt lat="45.7254073129205" lon="9.901910141978338"><ele>310.59999999999997</ele><time>2026-04-04T09:07:52.999Z</time></trkpt><trkpt lat="45.7253457954714" lon="9.901812281181835"><ele>309.0</ele><time>2026-04-04T09:07:53.999Z</time></trkpt><trkpt lat="45.725285435431104" lon="9.901719369324816"><ele>309.00000000000006</ele><time>2026-04-04T09:07:54.999Z</time></trkpt><trkpt lat="45.725236251083736" lon="9.901627888715915"><ele>309.0</ele><time>2026-04-04T09:07:55.999Z</time></trkpt><trkpt lat="45.72520434146809" lon="9.901527961278811"><ele>309.0</ele><time>2026-04-04T09:07:56.999Z</time></trkpt><trkpt lat="45.72519572695342" lon="9.901420779951158"><ele>309.0</ele><time>2026-04-04T09:07:57.999Z</time></trkpt><trkpt lat="45.72520302780785" lon="9.901328053853124"><ele>309.0</ele><time>2026-04-04T09:07:58.999Z</time></trkpt><trkpt lat="45.72524070293034" lon="9.901239200033444"><ele>309.00000000000006</ele><time>2026-04-04T09:08:00.999Z</time></trkpt><trkpt lat="45.725286041451795" lon="9.901150224783743"><ele>309.0</ele><time>2026-04-04T09:11:26Z</time></trkpt><trkpt lat="45.72534442166806" lon="9.901104994845332"><ele>309.0</ele><time>2026-04-04T09:11:30Z</time></trkpt><trkpt lat="45.72540897691724" lon="9.901130848005343"><ele>309.0</ele><time>2026-04-04T09:11:33Z</time></trkpt><trkpt lat="45.72547226483359" lon="9.901179378904457"><ele>309.0</ele><time>2026-04-04T09:11:35Z</time></trkpt><trkpt lat="45.72554451282375" lon="9.901247309093646"><ele>309.0</ele><time>2026-04-04T09:11:37Z</time></trkpt><trkpt lat="45.72563151505096" lon="9.90132698362711"><ele>309.0</ele><time>2026-04-04T09:11:39Z</time></trkpt><trkpt lat="45.72573506249811" lon="9.901409281357905"><ele>309.0</ele><time>2026-04-04T09:11:41Z</time></trkpt><trkpt lat="45.72579373599075" lon="9.901450092401722"><ele>309.00000000000006</ele><time>2026-04-04T09:11:42Z</time></trkpt><trkpt lat="45.725855604909576" lon="9.90148496547184"><ele>309.0</ele><time>2026-04-04T09:11:43Z</time></trkpt><trkpt lat="45.72592238048513" lon="9.901522872901594"><ele>309.0</ele><time>2026-04-04T09:11:44Z</time></trkpt><trkpt lat="45.72598796757076" lon="9.901547285769428"><ele>309.0</ele><time>2026-04-04T09:11:45Z</time></trkpt><trkpt lat="45.726061486852245" lon="9.901575253016372"><ele>309.0</ele><time>2026-04-04T09:11:46Z</time></trkpt><trkpt lat="45.72613349573296" lon="9.901595976509087"><ele>309.00000000000006</ele><time>2026-04-04T09:11:46.999Z</time></trkpt><trkpt lat="45.72620804827612" lon="9.901615128605878"><ele>309.0</ele><time>2026-04-04T09:11:47.999Z</time></trkpt><trkpt lat="45.72628210179045" lon="9.901632516570753"><ele>309.14285714285717</ele><time>2026-04-04T09:11:48.999Z</time></trkpt><trkpt lat="45.72635448409526" lon="9.901646305896257"><ele>309.2857142857143</ele><time>2026-04-04T09:11:49.999Z</time></trkpt><trkpt lat="45.72642514831524" lon="9.90166142631663"><ele>309.42857142857144</ele><time>2026-04-04T09:11:50.999Z</time></trkpt><trkpt lat="45.72650039654374" lon="9.901691906158428"><ele>309.57142857142856</ele><time>2026-04-04T09:11:51.999Z</time></trkpt><trkpt lat="45.72656796486566" lon="9.901708157630646"><ele>309.7142857142857</ele><time>2026-04-04T09:11:52.999Z</time></trkpt><trkpt lat="45.72663618204052" lon="9.901726919503657"><ele>309.8571428571429</ele><time>2026-04-04T09:11:53.999Z</time></trkpt><trkpt lat="45.726702267213604" lon="9.90174695387787"><ele>310.0</ele><time>2026-04-04T09:11:54.999Z</time></trkpt><trkpt lat="45.72676950875237" lon="9.901767965455889"><ele>310.0</ele><time>2026-04-04T09:11:55.999Z</time></trkpt><trkpt lat="45.72683398166744" lon="9.9017896236116"><ele>310.0</ele><time>2026-04-04T09:11:56.999Z</time></trkpt><trkpt lat="45.72689751126073" lon="9.901817816859895"><ele>310.0</ele><time>2026-04-04T09:11:57.999Z</time></trkpt><trkpt lat="45.72696156947285" lon="9.90185140558998"><ele>310.0</ele><time>2026-04-04T09:11:58.999Z</time></trkpt><trkpt lat="45.727023029795966" lon="9.90189314484942"><ele>310.0</ele><time>2026-04-04T09:11:59.999Z</time></trkpt><trkpt lat="45.72707938335555" lon="9.901939495351389"><ele>310.0</ele><time>2026-04-04T09:12:00.999Z</time></trkpt><trkpt lat="45.72713489146814" lon="9.90198794753881"><ele>310.0</ele><time>2026-04-04T09:12:01.999Z</time></trkpt><trkpt lat="45.72724129266749" lon="9.902081915617442"><ele>310.66666666666663</ele><time>2026-04-04T09:12:03.999Z</time></trkpt><trkpt lat="45.72734951487972" lon="9.902176948588835"><ele>311.3333333333333</ele><time>2026-04-04T09:12:05.999Z</time></trkpt><trkpt lat="45.72740579208329" lon="9.902226017684699"><ele>312.0</ele><time>2026-04-04T09:12:06.999Z</time></trkpt><trkpt lat="45.72746177660153" lon="9.902272822654263"><ele>312.6666666666667</ele><time>2026-04-04T09:12:07.999Z</time></trkpt><trkpt lat="45.72751773101058" lon="9.902321670120303"><ele>313.33333333333337</ele><time>2026-04-04T09:12:08.999Z</time></trkpt><trkpt lat="45.72757529828394" lon="9.902369923544624"><ele>314.0</ele><time>2026-04-04T09:12:09.999Z</time></trkpt><trkpt lat="45.727632519957325" lon="9.902419913497537"><ele>313.99999999999994</ele><time>2026-04-04T09:12:10.999Z</time></trkpt><trkpt lat="45.727689985400346" lon="9.902471407028202"><ele>314.0</ele><time>2026-04-04T09:12:11.999Z</time></trkpt><trkpt lat="45.72775056901575" lon="9.902523032063591"><ele>314.0</ele><time>2026-04-04T09:12:12.999Z</time></trkpt><trkpt lat="45.72781031349681" lon="9.902572712346851"><ele>314.0</ele><time>2026-04-04T09:12:13.999Z</time></trkpt><trkpt lat="45.727871299768275" lon="9.902624200511198"><ele>314.0</ele><time>2026-04-04T09:12:14.999Z</time></trkpt><trkpt lat="45.727930931633836" lon="9.902679316827983"><ele>313.99999999999994</ele><time>2026-04-04T09:12:15.999Z</time></trkpt><trkpt lat="45.72799389388782" lon="9.90273165308106"><ele>314.0</ele><time>2026-04-04T09:12:16.999Z</time></trkpt><trkpt lat="45.728057449246634" lon="9.902786403812692"><ele>314.71428571428567</ele><time>2026-04-04T09:12:17.999Z</time></trkpt><trkpt lat="45.728119634219546" lon="9.902841108023416"><ele>315.42857142857144</ele><time>2026-04-04T09:12:18.999Z</time></trkpt><trkpt lat="45.72818406189303" lon="9.90289454681121"><ele>316.1428571428571</ele><time>2026-04-04T09:12:19.999Z</time></trkpt><trkpt lat="45.72824552004388" lon="9.902949280317966"><ele>316.85714285714283</ele><time>2026-04-04T09:12:20.999Z</time></trkpt><trkpt lat="45.72830689787308" lon="9.903001361621453"><ele>317.57142857142856</ele><time>2026-04-04T09:12:21.999Z</time></trkpt><trkpt lat="45.728369235620924" lon="9.903056788331803"><ele>318.2857142857143</ele><time>2026-04-04T09:12:22.999Z</time></trkpt><trkpt lat="45.72843066294594" lon="9.903118043513578"><ele>319.0</ele><time>2026-04-04T09:12:23.999Z</time></trkpt><trkpt lat="45.728491119259424" lon="9.903184580509219"><ele>319.0</ele><time>2026-04-04T09:12:24.999Z</time></trkpt><trkpt lat="45.728548131821" lon="9.903256808168113"><ele>319.0</ele><time>2026-04-04T09:12:25.999Z</time></trkpt><trkpt lat="45.728601442483814" lon="9.903337340637874"><ele>319.0</ele><time>2026-04-04T09:12:26.999Z</time></trkpt><trkpt lat="45.728650101125346" lon="9.90342137702885"><ele>319.0</ele><time>2026-04-04T09:12:27.999Z</time></trkpt><trkpt lat="45.72869839639721" lon="9.90350581729358"><ele>319.0</ele><time>2026-04-04T09:12:28.999Z</time></trkpt><trkpt lat="45.7287490707823" lon="9.903584718245286"><ele>319.0</ele><time>2026-04-04T09:12:29.999Z</time></trkpt><trkpt lat="45.7288015839818" lon="9.903667183877568"><ele>318.5</ele><time>2026-04-04T09:12:30.999Z</time></trkpt><trkpt lat="45.72885455250067" lon="9.90374835231572"><ele>318.0</ele><time>2026-04-04T09:12:31.999Z</time></trkpt><trkpt lat="45.728907133886196" lon="9.903834574149668"><ele>317.5</ele><time>2026-04-04T09:12:32.999Z</time></trkpt><trkpt lat="45.728960430531096" lon="9.90391764393151"><ele>317.0</ele><time>2026-04-04T09:12:33.999Z</time></trkpt><trkpt lat="45.729015210887134" lon="9.904000382420536"><ele>316.5</ele><time>2026-04-04T09:12:34.999Z</time></trkpt><trkpt lat="45.72906778180146" lon="9.904083440801125"><ele>316.0</ele><time>2026-04-04T09:12:35.999Z</time></trkpt><trkpt lat="45.72911863287763" lon="9.904165800069016"><ele>315.3333333333333</ele><time>2026-04-04T09:12:36.999Z</time></trkpt><trkpt lat="45.72917223063146" lon="9.90425120748873"><ele>314.66666666666663</ele><time>2026-04-04T09:12:37.999Z</time></trkpt><trkpt lat="45.729224683873014" lon="9.904339305092872"><ele>314.0</ele><time>2026-04-04T09:12:38.999Z</time></trkpt><trkpt lat="45.72927962154149" lon="9.904426036228603"><ele>313.3333333333333</ele><time>2026-04-04T09:12:39.998Z</time></trkpt><trkpt lat="45.729333320012" lon="9.904511752619888"><ele>312.6666666666667</ele><time>2026-04-04T09:12:40.998Z</time></trkpt><trkpt lat="45.72938650242354" lon="9.904597034087397"><ele>312.0</ele><time>2026-04-04T09:12:41.998Z</time></trkpt><trkpt lat="45.729438692823585" lon="9.904682713693385"><ele>312.0</ele><time>2026-04-04T09:12:42.998Z</time></trkpt><trkpt lat="45.72949258920293" lon="9.904768158941536"><ele>312.0</ele><time>2026-04-04T09:12:43.998Z</time></trkpt><trkpt lat="45.72954605056096" lon="9.904856252732724"><ele>312.0</ele><time>2026-04-04T09:12:44.998Z</time></trkpt><trkpt lat="45.7296009319776" lon="9.904941884565204"><ele>312.0</ele><time>2026-04-04T09:12:45.998Z</time></trkpt><trkpt lat="45.72965612562263" lon="9.905025497338652"><ele>312.0</ele><time>2026-04-04T09:12:46.998Z</time></trkpt><trkpt lat="45.72970927147636" lon="9.90511223894424"><ele>312.0</ele><time>2026-04-04T09:12:47.998Z</time></trkpt><trkpt lat="45.7297617436174" lon="9.905197456422318"><ele>311.8333333333333</ele><time>2026-04-04T09:12:48.998Z</time></trkpt><trkpt lat="45.729816283922084" lon="9.905281016500187"><ele>311.6666666666667</ele><time>2026-04-04T09:12:49.998Z</time></trkpt><trkpt lat="45.729869324632396" lon="9.905367538682379"><ele>311.5</ele><time>2026-04-04T09:12:50.998Z</time></trkpt><trkpt lat="45.72992338203393" lon="9.90545094988036"><ele>311.33333333333337</ele><time>2026-04-04T09:12:51.998Z</time></trkpt><trkpt lat="45.729975729652935" lon="9.905535832031152"><ele>311.1666666666667</ele><time>2026-04-04T09:12:52.998Z</time></trkpt><trkpt lat="45.73002832001742" lon="9.90561965700752"><ele>311.0</ele><time>2026-04-04T09:12:53.998Z</time></trkpt><trkpt lat="45.73008177682769" lon="9.905705287853223"><ele>311.0</ele><time>2026-04-04T09:12:54.998Z</time></trkpt><trkpt lat="45.73013405670119" lon="9.905791041220033"><ele>311.0</ele><time>2026-04-04T09:12:55.998Z</time></trkpt><trkpt lat="45.73018772984379" lon="9.905877933326284"><ele>311.0</ele><time>2026-04-04T09:12:56.998Z</time></trkpt><trkpt lat="45.73024066843351" lon="9.905962247427835"><ele>311.0</ele><time>2026-04-04T09:12:57.998Z</time></trkpt><trkpt lat="45.73029446828992" lon="9.906045876104885"><ele>311.0</ele><time>2026-04-04T09:12:58.998Z</time></trkpt><trkpt lat="45.73034838043727" lon="9.9061304291074"><ele>311.0</ele><time>2026-04-04T09:12:59.998Z</time></trkpt><trkpt lat="45.73040120272971" lon="9.906212045516643"><ele>311.1666666666667</ele><time>2026-04-04T09:13:00.998Z</time></trkpt><trkpt lat="45.73045469344003" lon="9.906297148730987"><ele>311.33333333333337</ele><time>2026-04-04T09:13:01.998Z</time></trkpt><trkpt lat="45.730513322209084" lon="9.906374532829798"><ele>311.5</ele><time>2026-04-04T09:13:02.998Z</time></trkpt><trkpt lat="45.7305723002607" lon="9.906448771375446"><ele>311.6666666666667</ele><time>2026-04-04T09:13:03.998Z</time></trkpt><trkpt lat="45.73063273471387" lon="9.90652056311315"><ele>311.8333333333333</ele><time>2026-04-04T09:13:04.998Z</time></trkpt><trkpt lat="45.730694197298284" lon="9.906584980301743"><ele>312.0</ele><time>2026-04-04T09:13:05.998Z</time></trkpt><trkpt lat="45.730758967280906" lon="9.906649957015018"><ele>312.0</ele><time>2026-04-04T09:13:06.998Z</time></trkpt><trkpt lat="45.730825945818204" lon="9.906708228933267"><ele>312.0</ele><time>2026-04-04T09:13:07.998Z</time></trkpt><trkpt lat="45.73089477765591" lon="9.906761906964258"><ele>312.0</ele><time>2026-04-04T09:13:08.998Z</time></trkpt><trkpt lat="45.7309623195166" lon="9.906812484890576"><ele>312.0</ele><time>2026-04-04T09:13:09.998Z</time></trkpt><trkpt lat="45.73103430940909" lon="9.906857604248977"><ele>312.0</ele><time>2026-04-04T09:13:10.998Z</time></trkpt><trkpt lat="45.731107018105625" lon="9.906897080626003"><ele>312.0</ele><time>2026-04-04T09:13:11.998Z</time></trkpt><trkpt lat="45.73118034808423" lon="9.906934663314713"><ele>312.0</ele><time>2026-04-04T09:13:12.998Z</time></trkpt><trkpt lat="45.73125606483728" lon="9.906965930806527"><ele>312.0</ele><time>2026-04-04T09:13:13.998Z</time></trkpt><trkpt lat="45.73133360284382" lon="9.906993555889049"><ele>312.0</ele><time>2026-04-04T09:13:14.998Z</time></trkpt><trkpt lat="45.73141035608013" lon="9.907018067591848"><ele>312.0</ele><time>2026-04-04T09:13:15.998Z</time></trkpt><trkpt lat="45.73149044915684" lon="9.907034647282286"><ele>312.0</ele><time>2026-04-04T09:13:16.998Z</time></trkpt><trkpt lat="45.73156982458602" lon="9.907046280123712"><ele>312.0</ele><time>2026-04-04T09:13:17.998Z</time></trkpt><trkpt lat="45.731651587197575" lon="9.907056790228388"><ele>312.0</ele><time>2026-04-04T09:13:18.998Z</time></trkpt><trkpt lat="45.73172950477104" lon="9.90706812140594"><ele>312.0</ele><time>2026-04-04T09:13:20Z</time></trkpt><trkpt lat="45.73181001285593" lon="9.907077802223508"><ele>312.0</ele><time>2026-04-04T09:13:21Z</time></trkpt><trkpt lat="45.73188929408538" lon="9.907082975791022"><ele>312.0</ele><time>2026-04-04T09:13:22Z</time></trkpt><trkpt lat="45.731970198742545" lon="9.90709253951334"><ele>312.0</ele><time>2026-04-04T09:13:23Z</time></trkpt><trkpt lat="45.732049836971846" lon="9.907102151169358"><ele>312.0</ele><time>2026-04-04T09:13:24Z</time></trkpt><trkpt lat="45.73213117947493" lon="9.907109481014924"><ele>312.0</ele><time>2026-04-04T09:13:25Z</time></trkpt><trkpt lat="45.732211623981655" lon="9.907117053450165"><ele>312.0</ele><time>2026-04-04T09:13:26Z</time></trkpt><trkpt lat="45.732290227811916" lon="9.907126104597369"><ele>312.0</ele><time>2026-04-04T09:13:27Z</time></trkpt><trkpt lat="45.73236872305689" lon="9.907135880242667"><ele>312.0</ele><time>2026-04-04T09:13:28Z</time></trkpt><trkpt lat="45.73244961060537" lon="9.907146524067743"><ele>312.0</ele><time>2026-04-04T09:13:29Z</time></trkpt><trkpt lat="45.73252932045075" lon="9.907151080613795"><ele>312.0</ele><time>2026-04-04T09:13:30Z</time></trkpt><trkpt lat="45.73261143118027" lon="9.907160999751525"><ele>312.0</ele><time>2026-04-04T09:13:31Z</time></trkpt><trkpt lat="45.73269384248594" lon="9.907172632924715"><ele>312.0</ele><time>2026-04-04T09:13:32Z</time></trkpt><trkpt lat="45.73277318306374" lon="9.9071814141172"><ele>312.0</ele><time>2026-04-04T09:13:33Z</time></trkpt><trkpt lat="45.73285422979155" lon="9.907192022891769"><ele>312.0</ele><time>2026-04-04T09:13:34Z</time></trkpt><trkpt lat="45.732934896226304" lon="9.90720228744657"><ele>312.0</ele><time>2026-04-04T09:13:35Z</time></trkpt><trkpt lat="45.733015369246644" lon="9.907213847248304"><ele>312.0</ele><time>2026-04-04T09:13:36Z</time></trkpt><trkpt lat="45.73309598742511" lon="9.907226679042912"><ele>312.1666666666667</ele><time>2026-04-04T09:13:37Z</time></trkpt><trkpt lat="45.733178252802965" lon="9.907237446645553"><ele>312.3333333333333</ele><time>2026-04-04T09:13:38Z</time></trkpt><trkpt lat="45.733259418341056" lon="9.907244830777502"><ele>312.5</ele><time>2026-04-04T09:13:39Z</time></trkpt><trkpt lat="45.73334102605715" lon="9.907254722519129"><ele>312.66666666666663</ele><time>2026-04-04T09:13:40Z</time></trkpt><trkpt lat="45.733421976871824" lon="9.907263152838688"><ele>312.8333333333333</ele><time>2026-04-04T09:13:41Z</time></trkpt><trkpt lat="45.73350262389354" lon="9.907273478623564"><ele>313.0</ele><time>2026-04-04T09:13:42Z</time></trkpt><trkpt lat="45.733583395433136" lon="9.90728366928916"><ele>313.5</ele><time>2026-04-04T09:13:43Z</time></trkpt><trkpt lat="45.73366351289052" lon="9.907289928870231"><ele>314.0</ele><time>2026-04-04T09:13:44Z</time></trkpt><trkpt lat="45.73374478144541" lon="9.907296410578157"><ele>314.5</ele><time>2026-04-04T09:13:45Z</time></trkpt><trkpt lat="45.73382643547407" lon="9.907297696776293"><ele>315.0</ele><time>2026-04-04T09:13:46Z</time></trkpt><trkpt lat="45.733906971077275" lon="9.907293613536384"><ele>315.5</ele><time>2026-04-04T09:13:47Z</time></trkpt><trkpt lat="45.73398826853439" lon="9.907286046473699"><ele>316.0</ele><time>2026-04-04T09:13:48Z</time></trkpt><trkpt lat="45.73406990394265" lon="9.907274470706888"><ele>316.0</ele><time>2026-04-04T09:13:49Z</time></trkpt><trkpt lat="45.73415109009228" lon="9.907258231154634"><ele>316.0</ele><time>2026-04-04T09:13:49.999Z</time></trkpt><trkpt lat="45.734231851594465" lon="9.907235551763906"><ele>316.0</ele><time>2026-04-04T09:13:50.999Z</time></trkpt><trkpt lat="45.73431072636322" lon="9.907205351510164"><ele>316.0</ele><time>2026-04-04T09:13:51.999Z</time></trkpt><trkpt lat="45.734388748316384" lon="9.907172756706045"><ele>316.0</ele><time>2026-04-04T09:13:52.999Z</time></trkpt><trkpt lat="45.73446499731782" lon="9.907134062755645"><ele>316.0</ele><time>2026-04-04T09:13:53.999Z</time></trkpt><trkpt lat="45.73453663687473" lon="9.907087326649124"><ele>316.0</ele><time>2026-04-04T09:13:54.999Z</time></trkpt><trkpt lat="45.73460980521535" lon="9.90704163110843"><ele>316.0</ele><time>2026-04-04T09:13:55.999Z</time></trkpt><trkpt lat="45.73467744946196" lon="9.906984367929905"><ele>316.0</ele><time>2026-04-04T09:13:56.999Z</time></trkpt><trkpt lat="45.73474683027774" lon="9.906925132568073"><ele>316.0</ele><time>2026-04-04T09:13:57.999Z</time></trkpt><trkpt lat="45.734813283798566" lon="9.906858427822744"><ele>316.0</ele><time>2026-04-04T09:13:58.999Z</time></trkpt><trkpt lat="45.73487902008019" lon="9.906790772810872"><ele>316.0</ele><time>2026-04-04T09:13:59.999Z</time></trkpt><trkpt lat="45.7349436544256" lon="9.906721264338866"><ele>316.0</ele><time>2026-04-04T09:14:00.999Z</time></trkpt><trkpt lat="45.73500655296192" lon="9.906651976456466"><ele>316.0</ele><time>2026-04-04T09:14:01.999Z</time></trkpt><trkpt lat="45.73506969565936" lon="9.906581650608697"><ele>316.0</ele><time>2026-04-04T09:14:02.999Z</time></trkpt><trkpt lat="45.73513171191085" lon="9.90651020254882"><ele>316.0</ele><time>2026-04-04T09:14:03.999Z</time></trkpt><trkpt lat="45.73519444135569" lon="9.906438835563897"><ele>316.0</ele><time>2026-04-04T09:14:04.999Z</time></trkpt><trkpt lat="45.73525731117534" lon="9.906367468202987"><ele>316.0</ele><time>2026-04-04T09:14:05.999Z</time></trkpt><trkpt lat="45.7353210447242" lon="9.906300259370841"><ele>316.3333333333333</ele><time>2026-04-04T09:14:06.999Z</time></trkpt><trkpt lat="45.73538786332535" lon="9.90623795459404"><ele>316.66666666666663</ele><time>2026-04-04T09:14:07.999Z</time></trkpt><trkpt lat="45.73546168053308" lon="9.906184409048167"><ele>317.0</ele><time>2026-04-04T09:14:08.999Z</time></trkpt><trkpt lat="45.73553477285287" lon="9.906135628700335"><ele>317.3333333333333</ele><time>2026-04-04T09:14:09.999Z</time></trkpt><trkpt lat="45.735610775815026" lon="9.906094715967035"><ele>317.6666666666667</ele><time>2026-04-04T09:14:10.999Z</time></trkpt><trkpt lat="45.73568888070756" lon="9.906061979716933"><ele>318.0</ele><time>2026-04-04T09:14:11.999Z</time></trkpt><trkpt lat="45.735768184026306" lon="9.906038861405605"><ele>318.0</ele><time>2026-04-04T09:14:12.999Z</time></trkpt><trkpt lat="45.735846497231684" lon="9.906027232092395"><ele>318.0</ele><time>2026-04-04T09:14:13.999Z</time></trkpt><trkpt lat="45.73592829312649" lon="9.906027342841602"><ele>318.0</ele><time>2026-04-04T09:14:14.999Z</time></trkpt><trkpt lat="45.736007668222086" lon="9.906026716654774"><ele>318.0</ele><time>2026-04-04T09:14:15.999Z</time></trkpt><trkpt lat="45.736087166475336" lon="9.906032001802592"><ele>318.0</ele><time>2026-04-04T09:14:16.999Z</time></trkpt><trkpt lat="45.736168114569146" lon="9.90604026080999"><ele>318.0</ele><time>2026-04-04T09:14:17.999Z</time></trkpt><trkpt lat="45.73624662522935" lon="9.90604654211028"><ele>318.1666666666667</ele><time>2026-04-04T09:14:18.999Z</time></trkpt><trkpt lat="45.73632580386029" lon="9.906054649845533"><ele>318.3333333333333</ele><time>2026-04-04T09:14:19.999Z</time></trkpt><trkpt lat="45.73640416905154" lon="9.906059429617118"><ele>318.5</ele><time>2026-04-04T09:14:20.999Z</time></trkpt><trkpt lat="45.73648398294118" lon="9.90606317207728"><ele>318.66666666666663</ele><time>2026-04-04T09:14:21.999Z</time></trkpt><trkpt lat="45.73656133520013" lon="9.906066864725346"><ele>318.8333333333333</ele><time>2026-04-04T09:14:22.999Z</time></trkpt><trkpt lat="45.736639356337726" lon="9.906073064312908"><ele>319.0</ele><time>2026-04-04T09:14:23.999Z</time></trkpt><trkpt lat="45.73671691755014" lon="9.906082929967353"><ele>319.0</ele><time>2026-04-04T09:14:24.999Z</time></trkpt><trkpt lat="45.73679297362256" lon="9.906084991087493"><ele>319.0</ele><time>2026-04-04T09:14:25.999Z</time></trkpt><trkpt lat="45.73686842238396" lon="9.906090496878015"><ele>319.0</ele><time>2026-04-04T09:14:26.999Z</time></trkpt><trkpt lat="45.73694418124372" lon="9.906097776161769"><ele>319.0</ele><time>2026-04-04T09:14:27.999Z</time></trkpt><trkpt lat="45.73702122513515" lon="9.906104279468101"><ele>319.0</ele><time>2026-04-04T09:14:28.999Z</time></trkpt><trkpt lat="45.737101999698254" lon="9.906106777763927"><ele>319.0</ele><time>2026-04-04T09:14:29.999Z</time></trkpt><trkpt lat="45.737179191551924" lon="9.906112118553455"><ele>318.8333333333333</ele><time>2026-04-04T09:14:30.999Z</time></trkpt><trkpt lat="45.73726005980956" lon="9.906120681121465"><ele>318.66666666666663</ele><time>2026-04-04T09:14:31.999Z</time></trkpt><trkpt lat="45.73733891933676" lon="9.906130638722288"><ele>318.5</ele><time>2026-04-04T09:14:32.999Z</time></trkpt><trkpt lat="45.7374195125923" lon="9.906136378305026"><ele>318.3333333333333</ele><time>2026-04-04T09:14:33.999Z</time></trkpt><trkpt lat="45.737499273761856" lon="9.906142912759135"><ele>318.1666666666667</ele><time>2026-04-04T09:14:34.999Z</time></trkpt><trkpt lat="45.73758340046695" lon="9.9061524042868"><ele>318.0</ele><time>2026-04-04T09:14:35.999Z</time></trkpt><trkpt lat="45.7376645452033" lon="9.906161984695865"><ele>318.3333333333333</ele><time>2026-04-04T09:14:36.999Z</time></trkpt><trkpt lat="45.73774588239032" lon="9.906171188400396"><ele>318.6666666666667</ele><time>2026-04-04T09:14:37.999Z</time></trkpt><trkpt lat="45.73782365096947" lon="9.906176413027667"><ele>319.0</ele><time>2026-04-04T09:14:38.999Z</time></trkpt><trkpt lat="45.737902980431436" lon="9.906185882077413"><ele>319.33333333333337</ele><time>2026-04-04T09:14:39.999Z</time></trkpt><trkpt lat="45.73798315120788" lon="9.906197533131344"><ele>319.6666666666667</ele><time>2026-04-04T09:14:40.999Z</time></trkpt><trkpt lat="45.73806369535535" lon="9.906210193400794"><ele>320.0</ele><time>2026-04-04T09:14:41.999Z</time></trkpt><trkpt lat="45.738145656570886" lon="9.906224722672366"><ele>320.0</ele><time>2026-04-04T09:14:42.998Z</time></trkpt><trkpt lat="45.738227644105606" lon="9.906246350824034"><ele>320.0</ele><time>2026-04-04T09:14:43.998Z</time></trkpt><trkpt lat="45.73830986381814" lon="9.906276359358683"><ele>320.0</ele><time>2026-04-04T09:14:44.998Z</time></trkpt><trkpt lat="45.73839124975609" lon="9.906308729038173"><ele>320.0</ele><time>2026-04-04T09:14:45.998Z</time></trkpt><trkpt lat="45.738470644363325" lon="9.906340723772999"><ele>320.0</ele><time>2026-04-04T09:14:46.998Z</time></trkpt><trkpt lat="45.73854774727159" lon="9.906378022696515"><ele>320.0</ele><time>2026-04-04T09:14:47.998Z</time></trkpt><trkpt lat="45.738626829794626" lon="9.9064200722215"><ele>319.83333333333337</ele><time>2026-04-04T09:14:48.998Z</time></trkpt><trkpt lat="45.73870486459453" lon="9.906463681636337"><ele>319.6666666666667</ele><time>2026-04-04T09:14:49.998Z</time></trkpt><trkpt lat="45.73877831038957" lon="9.906509294919674"><ele>319.5</ele><time>2026-04-04T09:14:50.998Z</time></trkpt><trkpt lat="45.73885219662064" lon="9.906553714164016"><ele>319.3333333333333</ele><time>2026-04-04T09:14:51.998Z</time></trkpt><trkpt lat="45.738922244058855" lon="9.906601280576462"><ele>319.16666666666663</ele><time>2026-04-04T09:14:52.998Z</time></trkpt><trkpt lat="45.73899285425366" lon="9.906644191068205"><ele>319.0</ele><time>2026-04-04T09:14:53.998Z</time></trkpt><trkpt lat="45.739061026859964" lon="9.906686235050968"><ele>319.0</ele><time>2026-04-04T09:14:54.998Z</time></trkpt><trkpt lat="45.739125675335224" lon="9.906730673484377"><ele>319.0</ele><time>2026-04-04T09:14:55.998Z</time></trkpt><trkpt lat="45.739189643299774" lon="9.906774588593503"><ele>319.0</ele><time>2026-04-04T09:14:56.998Z</time></trkpt><trkpt lat="45.73925099497061" lon="9.906816982316446"><ele>319.0</ele><time>2026-04-04T09:14:57.998Z</time></trkpt><trkpt lat="45.73930887875663" lon="9.90685378117321"><ele>319.0</ele><time>2026-04-04T09:14:58.998Z</time></trkpt><trkpt lat="45.739423109078125" lon="9.906914079330452"><ele>319.0</ele><time>2026-04-04T09:15:00.998Z</time></trkpt><trkpt lat="45.73953933886475" lon="9.906980701947735"><ele>319.42857142857144</ele><time>2026-04-04T09:15:02.998Z</time></trkpt><trkpt lat="45.739592173733236" lon="9.907037192771503"><ele>319.85714285714283</ele><time>2026-04-04T09:15:03.998Z</time></trkpt><trkpt lat="45.73963730023742" lon="9.907105928535332"><ele>320.2857142857143</ele><time>2026-04-04T09:15:04.998Z</time></trkpt><trkpt lat="45.73968140665674" lon="9.90717694908143"><ele>320.7142857142857</ele><time>2026-04-04T09:15:05.998Z</time></trkpt><trkpt lat="45.739736710552144" lon="9.907232205649658"><ele>321.1428571428571</ele><time>2026-04-04T09:15:06.998Z</time></trkpt><trkpt lat="45.739805663303706" lon="9.90724659122594"><ele>321.57142857142856</ele><time>2026-04-04T09:15:07.998Z</time></trkpt><trkpt lat="45.73987382542161" lon="9.907208262619006"><ele>322.0</ele><time>2026-04-04T09:15:08.998Z</time></trkpt><trkpt lat="45.73992011859701" lon="9.907127278825092"><ele>322.0</ele><time>2026-04-04T09:15:09.998Z</time></trkpt><trkpt lat="45.739934324118146" lon="9.907017665200149"><ele>322.0</ele><time>2026-04-04T09:15:10.998Z</time></trkpt><trkpt lat="45.739928694185565" lon="9.906906104328316"><ele>322.0</ele><time>2026-04-04T09:15:11.998Z</time></trkpt><trkpt lat="45.739920496768434" lon="9.90680242471988"><ele>322.0</ele><time>2026-04-04T09:15:12.998Z</time></trkpt><trkpt lat="45.73992149074923" lon="9.906699759305987"><ele>322.0</ele><time>2026-04-04T09:15:13.998Z</time></trkpt><trkpt lat="45.739930503799236" lon="9.906594660361522"><ele>322.0</ele><time>2026-04-04T09:15:14.998Z</time></trkpt><trkpt lat="45.73994816790845" lon="9.90649258009103"><ele>322.0</ele><time>2026-04-04T09:15:15.998Z</time></trkpt><trkpt lat="45.73996831014725" lon="9.906388902455326"><ele>322.0</ele><time>2026-04-04T09:15:16.998Z</time></trkpt><trkpt lat="45.73999200189531" lon="9.906289843072381"><ele>322.0</ele><time>2026-04-04T09:15:17.998Z</time></trkpt><trkpt lat="45.74002426200393" lon="9.906196105044335"><ele>322.0</ele><time>2026-04-04T09:15:18.998Z</time></trkpt><trkpt lat="45.740057962511884" lon="9.906111423919937"><ele>322.0</ele><time>2026-04-04T09:15:19.998Z</time></trkpt><trkpt lat="45.74009609281011" lon="9.906033019427475"><ele>322.0</ele><time>2026-04-04T09:15:20.998Z</time></trkpt><trkpt lat="45.740141241471704" lon="9.90595893054468"><ele>322.0</ele><time>2026-04-04T09:15:21.998Z</time></trkpt><trkpt lat="45.740189914371285" lon="9.905893039769204"><ele>322.0</ele><time>2026-04-04T09:15:22.998Z</time></trkpt><trkpt lat="45.74024440642972" lon="9.905836854344368"><ele>322.0</ele><time>2026-04-04T09:15:23.998Z</time></trkpt><trkpt lat="45.74030400192335" lon="9.90579037742185"><ele>322.0</ele><time>2026-04-04T09:15:25Z</time></trkpt><trkpt lat="45.74036641563616" lon="9.905750797677113"><ele>322.0</ele><time>2026-04-04T09:15:26Z</time></trkpt><trkpt lat="45.74042856920625" lon="9.90572262054541"><ele>322.0</ele><time>2026-04-04T09:15:27Z</time></trkpt><trkpt lat="45.74049250200365" lon="9.905702215564926"><ele>322.0</ele><time>2026-04-04T09:15:28Z</time></trkpt><trkpt lat="45.740555429426394" lon="9.905689893919957"><ele>322.0</ele><time>2026-04-04T09:15:29Z</time></trkpt><trkpt lat="45.740621528060764" lon="9.905683758831074"><ele>322.0</ele><time>2026-04-04T09:15:30Z</time></trkpt><trkpt lat="45.740684797780055" lon="9.905683898839573"><ele>322.0</ele><time>2026-04-04T09:15:31Z</time></trkpt><trkpt lat="45.74074853959972" lon="9.905691768392607"><ele>322.0</ele><time>2026-04-04T09:15:32Z</time></trkpt><trkpt lat="45.740812111453764" lon="9.905695744324582"><ele>322.0</ele><time>2026-04-04T09:15:33Z</time></trkpt><trkpt lat="45.740875525906816" lon="9.905696389099587"><ele>322.0</ele><time>2026-04-04T09:15:34Z</time></trkpt><trkpt lat="45.74094115109845" lon="9.905699486823258"><ele>322.0</ele><time>2026-04-04T09:15:35Z</time></trkpt><trkpt lat="45.74100538455652" lon="9.905705663422447"><ele>322.0</ele><time>2026-04-04T09:15:36Z</time></trkpt><trkpt lat="45.74107220701463" lon="9.905712322536752"><ele>322.0</ele><time>2026-04-04T09:15:37Z</time></trkpt><trkpt lat="45.741138101499665" lon="9.905715576271767"><ele>322.14285714285717</ele><time>2026-04-04T09:15:38Z</time></trkpt><trkpt lat="45.74120384089886" lon="9.90571702415893"><ele>322.2857142857143</ele><time>2026-04-04T09:15:39Z</time></trkpt><trkpt lat="45.741269716363206" lon="9.90572302739462"><ele>322.42857142857144</ele><time>2026-04-04T09:15:40Z</time></trkpt><trkpt lat="45.74133373719796" lon="9.90573086285653"><ele>322.57142857142856</ele><time>2026-04-04T09:15:41Z</time></trkpt><trkpt lat="45.74139731666472" lon="9.905732302327475"><ele>322.7142857142857</ele><time>2026-04-04T09:15:42Z</time></trkpt><trkpt lat="45.74146122334054" lon="9.905737301017782"><ele>322.8571428571429</ele><time>2026-04-04T09:15:43Z</time></trkpt><trkpt lat="45.74152501684304" lon="9.905740707731608"><ele>323.0</ele><time>2026-04-04T09:15:44Z</time></trkpt><trkpt lat="45.74158999276954" lon="9.905745997434675"><ele>323.00000000000006</ele><time>2026-04-04T09:15:45Z</time></trkpt><trkpt lat="45.7416550103382" lon="9.905749560593577"><ele>323.0</ele><time>2026-04-04T09:15:46Z</time></trkpt><trkpt lat="45.74171953755567" lon="9.905750421387317"><ele>323.0</ele><time>2026-04-04T09:15:47Z</time></trkpt><trkpt lat="45.74178522335444" lon="9.90575181794887"><ele>323.0</ele><time>2026-04-04T09:15:48Z</time></trkpt><trkpt lat="45.74185082661612" lon="9.90575072506515"><ele>323.0</ele><time>2026-04-04T09:15:49Z</time></trkpt><trkpt lat="45.74191780794259" lon="9.905756249750269"><ele>323.00000000000006</ele><time>2026-04-04T09:15:50Z</time></trkpt><trkpt lat="45.741983712101835" lon="9.905759592851386"><ele>323.0</ele><time>2026-04-04T09:15:51Z</time></trkpt><trkpt lat="45.7420494264457" lon="9.905764814459053"><ele>323.42857142857144</ele><time>2026-04-04T09:15:51.999Z</time></trkpt><trkpt lat="45.74211613473418" lon="9.905769611923402"><ele>323.8571428571429</ele><time>2026-04-04T09:15:52.999Z</time></trkpt><trkpt lat="45.742181519236524" lon="9.90577309490845"><ele>324.28571428571433</ele><time>2026-04-04T09:15:53.999Z</time></trkpt><trkpt lat="45.74224832543259" lon="9.905779990515926"><ele>324.7142857142857</ele><time>2026-04-04T09:15:54.999Z</time></trkpt><trkpt lat="45.742314497186996" lon="9.905788744880784"><ele>325.1428571428571</ele><time>2026-04-04T09:15:55.999Z</time></trkpt><trkpt lat="45.742380402959014" lon="9.905800693810637"><ele>325.5714285714286</ele><time>2026-04-04T09:15:56.999Z</time></trkpt><trkpt lat="45.742447052982094" lon="9.905816288481732"><ele>326.0</ele><time>2026-04-04T09:15:57.999Z</time></trkpt><trkpt lat="45.74251451087785" lon="9.905832053890315"><ele>326.0</ele><time>2026-04-04T09:15:58.999Z</time></trkpt><trkpt lat="45.742580356128215" lon="9.905849750671994"><ele>326.0</ele><time>2026-04-04T09:15:59.999Z</time></trkpt><trkpt lat="45.74264490676792" lon="9.905869652788969"><ele>326.0</ele><time>2026-04-04T09:16:00.999Z</time></trkpt><trkpt lat="45.74270991989611" lon="9.905895724067515"><ele>326.0</ele><time>2026-04-04T09:16:01.999Z</time></trkpt><trkpt lat="45.7427735205044" lon="9.905920725719106"><ele>326.0</ele><time>2026-04-04T09:16:02.999Z</time></trkpt><trkpt lat="45.74283579690553" lon="9.905946262545745"><ele>326.0</ele><time>2026-04-04T09:16:03.999Z</time></trkpt><trkpt lat="45.742898642223935" lon="9.905977134230525"><ele>326.0</ele><time>2026-04-04T09:16:04.999Z</time></trkpt><trkpt lat="45.7429600373372" lon="9.906006745810675"><ele>326.2857142857143</ele><time>2026-04-04T09:16:05.999Z</time></trkpt><trkpt lat="45.7430214714608" lon="9.906037094879787"><ele>326.57142857142856</ele><time>2026-04-04T09:16:06.999Z</time></trkpt><trkpt lat="45.74308214904575" lon="9.906068540909187"><ele>326.85714285714283</ele><time>2026-04-04T09:16:07.999Z</time></trkpt><trkpt lat="45.743145993737144" lon="9.90609888936725"><ele>327.1428571428571</ele><time>2026-04-04T09:16:08.999Z</time></trkpt><trkpt lat="45.74320918917267" lon="9.906129674402433"><ele>327.42857142857144</ele><time>2026-04-04T09:16:09.999Z</time></trkpt><trkpt lat="45.74327049273039" lon="9.90616194488792"><ele>327.71428571428567</ele><time>2026-04-04T09:16:10.999Z</time></trkpt><trkpt lat="45.74333288510537" lon="9.906190812446164"><ele>328.0</ele><time>2026-04-04T09:16:11.999Z</time></trkpt><trkpt lat="45.743394621461825" lon="9.906220762376055"><ele>327.99999999999994</ele><time>2026-04-04T09:16:12.999Z</time></trkpt><trkpt lat="45.74345543425806" lon="9.906251772300852"><ele>328.0</ele><time>2026-04-04T09:16:13.999Z</time></trkpt><trkpt lat="45.7435158999821" lon="9.906281161034197"><ele>328.0</ele><time>2026-04-04T09:16:14.999Z</time></trkpt><trkpt lat="45.74357771507311" lon="9.906309470588809"><ele>328.0</ele><time>2026-04-04T09:16:15.999Z</time></trkpt><trkpt lat="45.74363831551268" lon="9.906336514844503"><ele>328.0</ele><time>2026-04-04T09:16:16.999Z</time></trkpt><trkpt lat="45.743698648034474" lon="9.906363791720636"><ele>327.99999999999994</ele><time>2026-04-04T09:16:17.999Z</time></trkpt><trkpt lat="45.743819017891454" lon="9.906418211508395"><ele>328.0</ele><time>2026-04-04T09:16:19.999Z</time></trkpt><trkpt lat="45.743882304502705" lon="9.906438554912555"><ele>327.99999999999994</ele><time>2026-04-04T09:16:20.999Z</time></trkpt><trkpt lat="45.74394658033153" lon="9.90646121882672"><ele>328.0</ele><time>2026-04-04T09:16:21.999Z</time></trkpt><trkpt lat="45.74400838031873" lon="9.906487408258041"><ele>328.0</ele><time>2026-04-04T09:16:22.999Z</time></trkpt><trkpt lat="45.74407068458783" lon="9.906513254124734"><ele>328.0</ele><time>2026-04-04T09:16:23.999Z</time></trkpt><trkpt lat="45.74413330316273" lon="9.906535972739727"><ele>328.0</ele><time>2026-04-04T09:16:24.999Z</time></trkpt><trkpt lat="45.74419661474558" lon="9.906551056759007"><ele>327.99999999999994</ele><time>2026-04-04T09:16:25.999Z</time></trkpt><trkpt lat="45.7442609699896" lon="9.906561270190862"><ele>328.0</ele><time>2026-04-04T09:16:26.999Z</time></trkpt><trkpt lat="45.74432619914427" lon="9.906572566625337"><ele>328.2857142857143</ele><time>2026-04-04T09:16:27.999Z</time></trkpt><trkpt lat="45.74439037972452" lon="9.906577530335472"><ele>328.57142857142856</ele><time>2026-04-04T09:16:28.999Z</time></trkpt><trkpt lat="45.744457837876986" lon="9.906581426602003"><ele>328.8571428571429</ele><time>2026-04-04T09:16:29.999Z</time></trkpt><trkpt lat="45.74452508466986" lon="9.90658190343992"><ele>329.1428571428571</ele><time>2026-04-04T09:16:30.999Z</time></trkpt><trkpt lat="45.744591927008706" lon="9.906585619248125"><ele>329.42857142857144</ele><time>2026-04-04T09:16:31.999Z</time></trkpt><trkpt lat="45.74465986809633" lon="9.906589896861068"><ele>329.7142857142857</ele><time>2026-04-04T09:16:32.999Z</time></trkpt><trkpt lat="45.74472609523381" lon="9.906595380818763"><ele>330.0</ele><time>2026-04-04T09:16:33.999Z</time></trkpt><trkpt lat="45.74479311673507" lon="9.906600957493248"><ele>330.0</ele><time>2026-04-04T09:16:34.999Z</time></trkpt><trkpt lat="45.74485786425669" lon="9.906605833033767"><ele>330.0</ele><time>2026-04-04T09:16:35.999Z</time></trkpt><trkpt lat="45.744922479818236" lon="9.90660747542271"><ele>330.0</ele><time>2026-04-04T09:16:36.999Z</time></trkpt><trkpt lat="45.74498685105151" lon="9.906611411984581"><ele>330.0</ele><time>2026-04-04T09:16:37.999Z</time></trkpt><trkpt lat="45.74511429282482" lon="9.906618787856754"><ele>330.0</ele><time>2026-04-04T09:16:39.999Z</time></trkpt><trkpt lat="45.745178496529064" lon="9.906618666202379"><ele>330.0</ele><time>2026-04-04T09:16:40.999Z</time></trkpt><trkpt lat="45.74524463260557" lon="9.9066139969635"><ele>330.42857142857144</ele><time>2026-04-04T09:16:41.999Z</time></trkpt><trkpt lat="45.74530755604157" lon="9.90660897088738"><ele>330.8571428571429</ele><time>2026-04-04T09:16:42.999Z</time></trkpt><trkpt lat="45.74537245743816" lon="9.906596059064888"><ele>331.28571428571433</ele><time>2026-04-04T09:16:43.999Z</time></trkpt><trkpt lat="45.7454346191433" lon="9.906574808157037"><ele>331.7142857142857</ele><time>2026-04-04T09:16:44.999Z</time></trkpt><trkpt lat="45.74549680461357" lon="9.906549972669978"><ele>332.1428571428571</ele><time>2026-04-04T09:16:45.998Z</time></trkpt><trkpt lat="45.7455572985634" lon="9.906518264947199"><ele>332.5714285714286</ele><time>2026-04-04T09:16:46.998Z</time></trkpt><trkpt lat="45.74561851972828" lon="9.906484027328968"><ele>333.0</ele><time>2026-04-04T09:16:47.998Z</time></trkpt><trkpt lat="45.74567863286732" lon="9.906446213457391"><ele>333.0</ele><time>2026-04-04T09:16:48.998Z</time></trkpt><trkpt lat="45.74573688582341" lon="9.906407604802146"><ele>333.0</ele><time>2026-04-04T09:16:49.998Z</time></trkpt><trkpt lat="45.74579486025214" lon="9.906369311923779"><ele>333.0</ele><time>2026-04-04T09:16:50.998Z</time></trkpt><trkpt lat="45.74585250495301" lon="9.906328474711724"><ele>333.0</ele><time>2026-04-04T09:16:51.998Z</time></trkpt><trkpt lat="45.74590975406336" lon="9.90628786183547"><ele>333.0</ele><time>2026-04-04T09:16:52.998Z</time></trkpt><trkpt lat="45.74596993807803" lon="9.90624733529723"><ele>333.0</ele><time>2026-04-04T09:16:53.998Z</time></trkpt><trkpt lat="45.74608623354032" lon="9.906173023877745"><ele>333.4</ele><time>2026-04-04T09:16:55.998Z</time></trkpt><trkpt lat="45.746197436907686" lon="9.906091870374443"><ele>333.79999999999995</ele><time>2026-04-04T09:16:57.998Z</time></trkpt><trkpt lat="45.74625594041397" lon="9.90605417826513"><ele>334.2</ele><time>2026-04-04T09:16:58.998Z</time></trkpt><trkpt lat="45.746368507818566" lon="9.905977766501033"><ele>334.6</ele><time>2026-04-04T09:17:00.998Z</time></trkpt><trkpt lat="45.74648132290974" lon="9.905905325329028"><ele>335.0</ele><time>2026-04-04T09:17:02.998Z</time></trkpt><trkpt lat="45.746593404149245" lon="9.905834649869751"><ele>335.5</ele><time>2026-04-04T09:17:04.998Z</time></trkpt><trkpt lat="45.746699298067455" lon="9.90575799568751"><ele>336.0</ele><time>2026-04-04T09:17:06.998Z</time></trkpt><trkpt lat="45.74680763275534" lon="9.905679052686072"><ele>336.5</ele><time>2026-04-04T09:17:08.998Z</time></trkpt><trkpt lat="45.74691402865518" lon="9.905604035798808"><ele>337.0</ele><time>2026-04-04T09:17:10.998Z</time></trkpt><trkpt lat="45.74702037589693" lon="9.905530881631245"><ele>337.25</ele><time>2026-04-04T09:17:12.998Z</time></trkpt><trkpt lat="45.7471257550365" lon="9.905452098792567"><ele>337.5</ele><time>2026-04-04T09:17:14.998Z</time></trkpt><trkpt lat="45.74722939486965" lon="9.905360681533526"><ele>337.75</ele><time>2026-04-04T09:17:16.998Z</time></trkpt><trkpt lat="45.747324353802554" lon="9.905268128680307"><ele>338.0</ele><time>2026-04-04T09:17:18.998Z</time></trkpt><trkpt lat="45.747419977969486" lon="9.905182522660084"><ele>338.0</ele><time>2026-04-04T09:17:20.998Z</time></trkpt><trkpt lat="45.747529496574295" lon="9.905166956664404"><ele>338.0</ele><time>2026-04-04T09:17:22.998Z</time></trkpt><trkpt lat="45.747645668153375" lon="9.905180814335864"><ele>338.0</ele><time>2026-04-04T09:17:24.998Z</time></trkpt><trkpt lat="45.74773825456279" lon="9.905058957577381"><ele>338.0</ele><time>2026-04-04T09:17:26.998Z</time></trkpt><trkpt lat="45.74775413199597" lon="9.904967262827313"><ele>338.0</ele><time>2026-04-04T09:17:27.998Z</time></trkpt><trkpt lat="45.74775788212614" lon="9.90487604692694"><ele>338.79999999999995</ele><time>2026-04-04T09:17:28.998Z</time></trkpt><trkpt lat="45.747764300015405" lon="9.904711724735117"><ele>339.6</ele><time>2026-04-04T09:17:31Z</time></trkpt><trkpt lat="45.74782748077669" lon="9.904658168461745"><ele>340.4</ele><time>2026-04-04T09:17:32Z</time></trkpt><trkpt lat="45.7479260839609" lon="9.904558559237653"><ele>341.20000000000005</ele><time>2026-04-04T09:17:34Z</time></trkpt><trkpt lat="45.748016201992684" lon="9.90445610232099"><ele>342.0</ele><time>2026-04-04T09:17:36Z</time></trkpt><trkpt lat="45.748101021696236" lon="9.904351242676384"><ele>342.25</ele><time>2026-04-04T09:17:38Z</time></trkpt><trkpt lat="45.748189703742035" lon="9.904243446776555"><ele>342.5</ele><time>2026-04-04T09:17:40Z</time></trkpt><trkpt lat="45.74827891679626" lon="9.904138477787276"><ele>342.75</ele><time>2026-04-04T09:17:42Z</time></trkpt><trkpt lat="45.74836532276081" lon="9.904035339964693"><ele>343.0</ele><time>2026-04-04T09:17:44Z</time></trkpt><trkpt lat="45.74845317313741" lon="9.903927925811066"><ele>343.0</ele><time>2026-04-04T09:17:46Z</time></trkpt><trkpt lat="45.748542015737904" lon="9.903820207332544"><ele>343.0</ele><time>2026-04-04T09:17:48Z</time></trkpt><trkpt lat="45.74862913381844" lon="9.903715018518403"><ele>343.0</ele><time>2026-04-04T09:17:50Z</time></trkpt><trkpt lat="45.74871477830025" lon="9.903610798237915"><ele>343.0</ele><time>2026-04-04T09:17:52Z</time></trkpt><trkpt lat="45.74880036672621" lon="9.903504469464378"><ele>343.5</ele><time>2026-04-04T09:17:54Z</time></trkpt><trkpt lat="45.748884676947085" lon="9.903395839489328"><ele>344.0</ele><time>2026-04-04T09:17:55.999Z</time></trkpt><trkpt lat="45.74896446100869" lon="9.903283986395168"><ele>344.5</ele><time>2026-04-04T09:17:57.999Z</time></trkpt><trkpt lat="45.7490473005903" lon="9.903169261719775"><ele>345.0</ele><time>2026-04-04T09:17:59.999Z</time></trkpt><trkpt lat="45.749122648093895" lon="9.903047918448411"><ele>345.0</ele><time>2026-04-04T09:18:01.999Z</time></trkpt><trkpt lat="45.749197343424875" lon="9.902924649791963"><ele>345.0</ele><time>2026-04-04T09:18:03.999Z</time></trkpt><trkpt lat="45.74927179682824" lon="9.902801017816138"><ele>345.0</ele><time>2026-04-04T09:18:05.999Z</time></trkpt><trkpt lat="45.74934847043895" lon="9.90267589381051"><ele>345.0</ele><time>2026-04-04T09:18:07.999Z</time></trkpt><trkpt lat="45.749422763892305" lon="9.90254863386244"><ele>346.0</ele><time>2026-04-04T09:18:09.999Z</time></trkpt><trkpt lat="45.749497355964294" lon="9.902426555595799"><ele>347.0</ele><time>2026-04-04T09:18:11.999Z</time></trkpt><trkpt lat="45.74957146590509" lon="9.902303343093457"><ele>348.0</ele><time>2026-04-04T09:18:13.999Z</time></trkpt><trkpt lat="45.74964437767241" lon="9.90218261310721"><ele>349.0</ele><time>2026-04-04T09:18:15.999Z</time></trkpt><trkpt lat="45.74971484017763" lon="9.902059087413763"><ele>350.0</ele><time>2026-04-04T09:18:17.999Z</time></trkpt><trkpt lat="45.74978823572527" lon="9.901937944023272"><ele>350.0</ele><time>2026-04-04T09:18:19.999Z</time></trkpt><trkpt lat="45.74986697906023" lon="9.901823635818257"><ele>350.0</ele><time>2026-04-04T09:18:21.999Z</time></trkpt><trkpt lat="45.7499488864858" lon="9.901718124997108"><ele>350.0</ele><time>2026-04-04T09:18:23.999Z</time></trkpt><trkpt lat="45.75003260430626" lon="9.901620071128683"><ele>350.0</ele><time>2026-04-04T09:18:25.999Z</time></trkpt><trkpt lat="45.75012281806484" lon="9.901535831326331"><ele>350.0</ele><time>2026-04-04T09:18:27.999Z</time></trkpt><trkpt lat="45.750213687117146" lon="9.901457851152525"><ele>350.8</ele><time>2026-04-04T09:18:29.999Z</time></trkpt><trkpt lat="45.75031193514289" lon="9.901392416132495"><ele>351.6</ele><time>2026-04-04T09:18:31.999Z</time></trkpt><trkpt lat="45.75040991512588" lon="9.901330347957842"><ele>352.4</ele><time>2026-04-04T09:18:33.999Z</time></trkpt><trkpt lat="45.75050351586751" lon="9.90128554054683"><ele>353.2</ele><time>2026-04-04T09:18:35.999Z</time></trkpt><trkpt lat="45.75059943495274" lon="9.901250058009603"><ele>354.0</ele><time>2026-04-04T09:18:37.999Z</time></trkpt><trkpt lat="45.75069306840359" lon="9.901214580275107"><ele>354.0</ele><time>2026-04-04T09:18:39.999Z</time></trkpt><trkpt lat="45.75079269424866" lon="9.901187799904912"><ele>354.0</ele><time>2026-04-04T09:18:41.999Z</time></trkpt><trkpt lat="45.75088981023342" lon="9.901157050899911"><ele>354.0</ele><time>2026-04-04T09:18:43.999Z</time></trkpt><trkpt lat="45.7509843949747" lon="9.901126004179423"><ele>354.0</ele><time>2026-04-04T09:18:45.999Z</time></trkpt><trkpt lat="45.75107673445338" lon="9.901095240649532"><ele>354.0</ele><time>2026-04-04T09:18:47.999Z</time></trkpt><trkpt lat="45.75121076865983" lon="9.901036567825333"><ele>354.6</ele><time>2026-04-04T09:18:50.998Z</time></trkpt><trkpt lat="45.75130821653167" lon="9.901006546458227"><ele>355.2</ele><time>2026-04-04T09:18:52.998Z</time></trkpt><trkpt lat="45.751400244347174" lon="9.900973050221117"><ele>355.8</ele><time>2026-04-04T09:18:54.998Z</time></trkpt><trkpt lat="45.75148588348686" lon="9.900946127014848"><ele>356.40000000000003</ele><time>2026-04-04T09:18:56.998Z</time></trkpt><trkpt lat="45.751578120771406" lon="9.900895841500347"><ele>357.0</ele><time>2026-04-04T09:18:58.998Z</time></trkpt><trkpt lat="45.75167732610377" lon="9.900858060818049"><ele>357.0</ele><time>2026-04-04T09:19:00.998Z</time></trkpt><trkpt lat="45.75178674894934" lon="9.900810931531563"><ele>357.0</ele><time>2026-04-04T09:19:02.998Z</time></trkpt><trkpt lat="45.751890806367804" lon="9.900745139101744"><ele>357.0</ele><time>2026-04-04T09:19:04.998Z</time></trkpt><trkpt lat="45.75199082951521" lon="9.90066289641579"><ele>357.0</ele><time>2026-04-04T09:19:06.998Z</time></trkpt><trkpt lat="45.75209729945118" lon="9.900600454643946"><ele>358.0</ele><time>2026-04-04T09:19:08.998Z</time></trkpt><trkpt lat="45.752191793355266" lon="9.900526946678081"><ele>359.0</ele><time>2026-04-04T09:19:10.998Z</time></trkpt><trkpt lat="45.75227955702392" lon="9.900475150164317"><ele>360.0</ele><time>2026-04-04T09:19:12.998Z</time></trkpt><trkpt lat="45.752369972766964" lon="9.90040093217521"><ele>361.0</ele><time>2026-04-04T09:19:14.998Z</time></trkpt><trkpt lat="45.75245896110289" lon="9.900300702589444"><ele>362.0</ele><time>2026-04-04T09:19:16.998Z</time></trkpt><trkpt lat="45.752525583581765" lon="9.900219141244799"><ele>362.0</ele><time>2026-04-04T09:19:18.998Z</time></trkpt><trkpt lat="45.75259182043396" lon="9.900124163717749"><ele>362.0</ele><time>2026-04-04T09:19:20.998Z</time></trkpt><trkpt lat="45.75265202101792" lon="9.900028515150213"><ele>362.0</ele><time>2026-04-04T09:19:22.998Z</time></trkpt><trkpt lat="45.75271025150097" lon="9.899935651848141"><ele>362.0</ele><time>2026-04-04T09:19:24.998Z</time></trkpt><trkpt lat="45.752766848950486" lon="9.899842210742584"><ele>362.0</ele><time>2026-04-04T09:19:26.998Z</time></trkpt><trkpt lat="45.75281932603837" lon="9.89973594856964"><ele>362.0</ele><time>2026-04-04T09:19:28.998Z</time></trkpt><trkpt lat="45.75286262655636" lon="9.8996425398488"><ele>365.33333333333337</ele><time>2026-04-04T09:19:30.998Z</time></trkpt><trkpt lat="45.75290245581212" lon="9.899540574161216"><ele>368.6666666666667</ele><time>2026-04-04T09:19:32.998Z</time></trkpt><trkpt lat="45.75292231783461" lon="9.899431419273855"><ele>372.0</ele><time>2026-04-04T09:19:34.998Z</time></trkpt><trkpt lat="45.75293850250621" lon="9.899320336226786"><ele>375.3333333333333</ele><time>2026-04-04T09:19:37Z</time></trkpt><trkpt lat="45.75293268130525" lon="9.899208500461357"><ele>378.66666666666663</ele><time>2026-04-04T09:19:39Z</time></trkpt><trkpt lat="45.75292665351347" lon="9.899104280263034"><ele>382.0</ele><time>2026-04-04T09:19:41Z</time></trkpt><trkpt lat="45.7529255522945" lon="9.8989992768632"><ele>382.8333333333333</ele><time>2026-04-04T09:19:43Z</time></trkpt><trkpt lat="45.752913644777195" lon="9.898869826765198"><ele>383.66666666666663</ele><time>2026-04-04T09:19:46Z</time></trkpt><trkpt lat="45.75289728857679" lon="9.898756895449154"><ele>384.5</ele><time>2026-04-04T09:19:48Z</time></trkpt><trkpt lat="45.752893165109526" lon="9.89865339562116"><ele>385.3333333333333</ele><time>2026-04-04T09:19:50Z</time></trkpt><trkpt lat="45.75289152672168" lon="9.898546825416274"><ele>386.1666666666667</ele><time>2026-04-04T09:19:52Z</time></trkpt><trkpt lat="45.75290928710164" lon="9.898444469440268"><ele>387.0</ele><time>2026-04-04T09:19:54Z</time></trkpt><trkpt lat="45.75295450056703" lon="9.8983705671741"><ele>387.42857142857144</ele><time>2026-04-04T09:19:56Z</time></trkpt><trkpt lat="45.75301066697573" lon="9.898312657333825"><ele>387.8571428571429</ele><time>2026-04-04T09:19:58Z</time></trkpt><trkpt lat="45.75306428097343" lon="9.898244676563285"><ele>388.2857142857143</ele><time>2026-04-04T09:19:59.999Z</time></trkpt><trkpt lat="45.75311907180672" lon="9.89818688435977"><ele>388.7142857142857</ele><time>2026-04-04T09:20:01.999Z</time></trkpt><trkpt lat="45.753173776968296" lon="9.898108327110766"><ele>389.1428571428571</ele><time>2026-04-04T09:20:03.999Z</time></trkpt><trkpt lat="45.75321904628519" lon="9.898024611629962"><ele>389.57142857142856</ele><time>2026-04-04T09:20:05.999Z</time></trkpt><trkpt lat="45.75327831650226" lon="9.897970132275542"><ele>390.0</ele><time>2026-04-04T09:20:07.999Z</time></trkpt><trkpt lat="45.75332789411976" lon="9.897894112268206"><ele>390.0</ele><time>2026-04-04T09:20:09.999Z</time></trkpt><trkpt lat="45.753366066278595" lon="9.897803047565915"><ele>390.0</ele><time>2026-04-04T09:20:11.999Z</time></trkpt><trkpt lat="45.75340901790625" lon="9.897721595035058"><ele>390.0</ele><time>2026-04-04T09:20:13.999Z</time></trkpt><trkpt lat="45.75343733851848" lon="9.897618764397803"><ele>390.0</ele><time>2026-04-04T09:20:15.999Z</time></trkpt><trkpt lat="45.753465496910124" lon="9.89752164533575"><ele>390.0</ele><time>2026-04-04T09:20:17.999Z</time></trkpt><trkpt lat="45.753490848950285" lon="9.897423880001647"><ele>390.0</ele><time>2026-04-04T09:20:19.999Z</time></trkpt><trkpt lat="45.753519593826866" lon="9.897333731880314"><ele>390.0</ele><time>2026-04-04T09:20:21.999Z</time></trkpt><trkpt lat="45.75355101453743" lon="9.897246364092327"><ele>390.1428571428571</ele><time>2026-04-04T09:20:23.999Z</time></trkpt><trkpt lat="45.75358121983346" lon="9.897163224487613"><ele>390.2857142857143</ele><time>2026-04-04T09:20:25.999Z</time></trkpt><trkpt lat="45.753606754205805" lon="9.897080022455908"><ele>390.42857142857144</ele><time>2026-04-04T09:20:27.999Z</time></trkpt><trkpt lat="45.75364211034464" lon="9.896999123651463"><ele>390.57142857142856</ele><time>2026-04-04T09:20:30.999Z</time></trkpt><trkpt lat="45.7536886438067" lon="9.896905666566239"><ele>390.7142857142857</ele><time>2026-04-04T09:20:32.999Z</time></trkpt><trkpt lat="45.75373853430097" lon="9.896848911814219"><ele>390.85714285714283</ele><time>2026-04-04T09:20:34.999Z</time></trkpt><trkpt lat="45.753813557582276" lon="9.896781915477343"><ele>391.0</ele><time>2026-04-04T09:20:37.999Z</time></trkpt><trkpt lat="45.75389599383573" lon="9.896741325278034"><ele>391.00000000000006</ele><time>2026-04-04T09:20:40.999Z</time></trkpt><trkpt lat="45.75398063091555" lon="9.896715823423168"><ele>391.0</ele><time>2026-04-04T09:20:43.999Z</time></trkpt><trkpt lat="45.754062783637394" lon="9.896688864202886"><ele>391.0</ele><time>2026-04-04T09:20:46.999Z</time></trkpt><trkpt lat="45.75412787817168" lon="9.896689178406971"><ele>391.0</ele><time>2026-04-04T09:20:48.999Z</time></trkpt><trkpt lat="45.754209519605205" lon="9.896723195087512"><ele>391.00000000000006</ele><time>2026-04-04T09:20:51.999Z</time></trkpt><trkpt lat="45.75429482155417" lon="9.896776801365842"><ele>391.0</ele><time>2026-04-04T09:20:54.998Z</time></trkpt><trkpt lat="45.75438036833434" lon="9.896804103753563"><ele>393.6666666666667</ele><time>2026-04-04T09:20:57.998Z</time></trkpt><trkpt lat="45.75444758949979" lon="9.896807668436725"><ele>396.33333333333337</ele><time>2026-04-04T09:20:59.998Z</time></trkpt><trkpt lat="45.75453789447145" lon="9.896795936766578"><ele>399.0</ele><time>2026-04-04T09:21:02.998Z</time></trkpt><trkpt lat="45.754629886602174" lon="9.896776700459615"><ele>401.66666666666663</ele><time>2026-04-04T09:21:05.998Z</time></trkpt><trkpt lat="45.75469303992369" lon="9.896764134041153"><ele>404.3333333333333</ele><time>2026-04-04T09:21:07.998Z</time></trkpt><trkpt lat="45.754758067400395" lon="9.896735958740685"><ele>407.0</ele><time>2026-04-04T09:21:09.998Z</time></trkpt><trkpt lat="45.754843063213315" lon="9.896682953768627"><ele>406.99999999999994</ele><time>2026-04-04T09:21:12.998Z</time></trkpt><trkpt lat="45.75491891200689" lon="9.896598224855031"><ele>407.0</ele><time>2026-04-04T09:21:15.998Z</time></trkpt><trkpt lat="45.75495816133529" lon="9.896474539522297"><ele>407.0</ele><time>2026-04-04T09:21:18.998Z</time></trkpt><trkpt lat="45.75498640371811" lon="9.89637614028078"><ele>407.0</ele><time>2026-04-04T09:21:20.998Z</time></trkpt><trkpt lat="45.7550517280745" lon="9.89629336256206"><ele>406.99999999999994</ele><time>2026-04-04T09:21:23.998Z</time></trkpt><trkpt lat="45.75508815795267" lon="9.896219521746934"><ele>407.0</ele><time>2026-04-04T09:21:25.998Z</time></trkpt><trkpt lat="45.75513417473056" lon="9.896155032012922"><ele>406.99999999999994</ele><time>2026-04-04T09:21:27.998Z</time></trkpt><trkpt lat="45.75517953934022" lon="9.896087409343616"><ele>407.0</ele><time>2026-04-04T09:21:29.998Z</time></trkpt><trkpt lat="45.75522685215287" lon="9.896019812401997"><ele>407.0</ele><time>2026-04-04T09:21:31.998Z</time></trkpt><trkpt lat="45.75529528585939" lon="9.895935370475758"><ele>407.0</ele><time>2026-04-04T09:21:34.998Z</time></trkpt><trkpt lat="45.75536139798325" lon="9.895848877164848"><ele>406.99999999999994</ele><time>2026-04-04T09:21:37.998Z</time></trkpt><trkpt lat="45.755419349529774" lon="9.895767500149951"><ele>407.0</ele><time>2026-04-04T09:21:40.998Z</time></trkpt><trkpt lat="45.755482252611536" lon="9.895684969379392"><ele>409.3333333333333</ele><time>2026-04-04T09:21:44Z</time></trkpt><trkpt lat="45.75553961498756" lon="9.895599545047054"><ele>411.66666666666663</ele><time>2026-04-04T09:21:47Z</time></trkpt><trkpt lat="45.75558877707976" lon="9.89547953285973"><ele>414.0</ele><time>2026-04-04T09:21:50Z</time></trkpt><trkpt lat="45.75565030212355" lon="9.895421423002803"><ele>416.33333333333337</ele><time>2026-04-04T09:21:53Z</time></trkpt><trkpt lat="45.75571111989519" lon="9.895349008310088"><ele>418.6666666666667</ele><time>2026-04-04T09:21:56Z</time></trkpt><trkpt lat="45.75576855189063" lon="9.895271581606389"><ele>421.0</ele><time>2026-04-04T09:21:59Z</time></trkpt><trkpt lat="45.75582979841393" lon="9.895190923286142"><ele>421.00000000000006</ele><time>2026-04-04T09:22:02Z</time></trkpt><trkpt lat="45.755887235340914" lon="9.895121136745384"><ele>421.0</ele><time>2026-04-04T09:22:04.999Z</time></trkpt><trkpt lat="45.755944957958434" lon="9.895033872146609"><ele>421.0</ele><time>2026-04-04T09:22:07.999Z</time></trkpt><trkpt lat="45.75599964400623" lon="9.894910283470624"><ele>421.0</ele><time>2026-04-04T09:22:10.999Z</time></trkpt><trkpt lat="45.756027921293246" lon="9.89480906071192"><ele>421.00000000000006</ele><time>2026-04-04T09:22:13.999Z</time></trkpt><trkpt lat="45.75605067550616" lon="9.894691627678972"><ele>421.0</ele><time>2026-04-04T09:22:16.999Z</time></trkpt><trkpt lat="45.75606901300479" lon="9.894572828235674"><ele>421.1666666666667</ele><time>2026-04-04T09:22:19.999Z</time></trkpt><trkpt lat="45.756088422254976" lon="9.894449958408819"><ele>421.33333333333337</ele><time>2026-04-04T09:22:22.999Z</time></trkpt><trkpt lat="45.75611001109823" lon="9.89436136305741"><ele>421.5</ele><time>2026-04-04T09:22:24.999Z</time></trkpt><trkpt lat="45.756130904899315" lon="9.89426495948991"><ele>421.66666666666663</ele><time>2026-04-04T09:22:26.999Z</time></trkpt><trkpt lat="45.75615076963898" lon="9.894163792077423"><ele>421.8333333333333</ele><time>2026-04-04T09:22:28.999Z</time></trkpt><trkpt lat="45.75615786322523" lon="9.894051806468871"><ele>422.0</ele><time>2026-04-04T09:22:30.999Z</time></trkpt><trkpt lat="45.75612096399134" lon="9.893958063912116"><ele>421.99999999999994</ele><time>2026-04-04T09:22:32.999Z</time></trkpt><trkpt lat="45.75606242082749" lon="9.893902053863298"><ele>422.0</ele><time>2026-04-04T09:22:34.999Z</time></trkpt><trkpt lat="45.75599631467411" lon="9.893866848245585"><ele>422.0</ele><time>2026-04-04T09:22:36.999Z</time></trkpt><trkpt lat="45.755940181450285" lon="9.893824214914938"><ele>422.0</ele><time>2026-04-04T09:22:38.999Z</time></trkpt><trkpt lat="45.7558502525468" lon="9.8937762697008"><ele>421.99999999999994</ele><time>2026-04-04T09:22:41.999Z</time></trkpt><trkpt lat="45.755778555732554" lon="9.893707151949616"><ele>422.0</ele><time>2026-04-04T09:22:44.999Z</time></trkpt><trkpt lat="45.755778539434836" lon="9.893581832759931"><ele>421.7142857142857</ele><time>2026-04-04T09:22:47.999Z</time></trkpt><trkpt lat="45.75581791642753" lon="9.893500910525084"><ele>421.42857142857144</ele><time>2026-04-04T09:22:49.999Z</time></trkpt><trkpt lat="45.75585457104358" lon="9.89342297650794"><ele>421.1428571428571</ele><time>2026-04-04T09:22:51.999Z</time></trkpt><trkpt lat="45.75589498095394" lon="9.893352881919016"><ele>420.8571428571429</ele><time>2026-04-04T09:22:53.999Z</time></trkpt><trkpt lat="45.75594239991638" lon="9.893282856164781"><ele>420.57142857142856</ele><time>2026-04-04T09:22:55.999Z</time></trkpt><trkpt lat="45.75598885208528" lon="9.893206389918612"><ele>420.2857142857143</ele><time>2026-04-04T09:22:57.998Z</time></trkpt><trkpt lat="45.75603511149935" lon="9.893111043943948"><ele>420.0</ele><time>2026-04-04T09:22:59.998Z</time></trkpt><trkpt lat="45.75607947639852" lon="9.893006657582418"><ele>422.0</ele><time>2026-04-04T09:23:01.998Z</time></trkpt><trkpt lat="45.75613390204741" lon="9.892903956094827"><ele>424.0</ele><time>2026-04-04T09:23:03.998Z</time></trkpt><trkpt lat="45.7561873094829" lon="9.892796984968697"><ele>426.0</ele><time>2026-04-04T09:23:05.998Z</time></trkpt><trkpt lat="45.75623121024054" lon="9.892683919218745"><ele>428.0</ele><time>2026-04-04T09:23:07.998Z</time></trkpt><trkpt lat="45.75625259230262" lon="9.892561366503001"><ele>430.0</ele><time>2026-04-04T09:23:09.998Z</time></trkpt><trkpt lat="45.75627269523762" lon="9.89244367235608"><ele>432.0</ele><time>2026-04-04T09:23:11.998Z</time></trkpt><trkpt lat="45.75630665497124" lon="9.892333482646908"><ele>432.6666666666667</ele><time>2026-04-04T09:23:13.998Z</time></trkpt><trkpt lat="45.75632743737386" lon="9.892215674320743"><ele>433.33333333333337</ele><time>2026-04-04T09:23:15.998Z</time></trkpt><trkpt lat="45.7563493800431" lon="9.892102733997907"><ele>434.0</ele><time>2026-04-04T09:23:17.998Z</time></trkpt><trkpt lat="45.756370996750945" lon="9.891990155035247"><ele>434.6666666666667</ele><time>2026-04-04T09:23:19.998Z</time></trkpt><trkpt lat="45.7563907689838" lon="9.891876890725289"><ele>435.33333333333337</ele><time>2026-04-04T09:23:21.998Z</time></trkpt><trkpt lat="45.756418035216264" lon="9.89177536883616"><ele>436.0</ele><time>2026-04-04T09:23:23.998Z</time></trkpt><trkpt lat="45.75644677824155" lon="9.891677924737346"><ele>436.0</ele><time>2026-04-04T09:23:25.998Z</time></trkpt><trkpt lat="45.75647668622168" lon="9.891587994360776"><ele>436.0</ele><time>2026-04-04T09:23:27.998Z</time></trkpt><trkpt lat="45.75651288989964" lon="9.891506772195346"><ele>436.0</ele><time>2026-04-04T09:23:29.998Z</time></trkpt><trkpt lat="45.75654820599924" lon="9.891427878513603"><ele>436.0</ele><time>2026-04-04T09:23:31.998Z</time></trkpt><trkpt lat="45.75659118771978" lon="9.89135723836816"><ele>436.0</ele><time>2026-04-04T09:23:33.998Z</time></trkpt><trkpt lat="45.75663582339431" lon="9.8912877659456"><ele>436.0</ele><time>2026-04-04T09:23:35.998Z</time></trkpt><trkpt lat="45.75668348833347" lon="9.891223563027575"><ele>436.0</ele><time>2026-04-04T09:23:37.998Z</time></trkpt><trkpt lat="45.756724929927465" lon="9.89115043399945"><ele>436.0</ele><time>2026-04-04T09:23:39.998Z</time></trkpt><trkpt lat="45.756744469519234" lon="9.89105205722759"><ele>436.0</ele><time>2026-04-04T09:23:41.998Z</time></trkpt><trkpt lat="45.756736838877295" lon="9.890945096078465"><ele>436.0</ele><time>2026-04-04T09:23:43.998Z</time></trkpt><trkpt lat="45.75672237488583" lon="9.890838302289103"><ele>436.0</ele><time>2026-04-04T09:23:45.998Z</time></trkpt><trkpt lat="45.75668800911758" lon="9.890750817035789"><ele>436.0</ele><time>2026-04-04T09:23:47.998Z</time></trkpt><trkpt lat="45.756621936723874" lon="9.890712021937125"><ele>436.0</ele><time>2026-04-04T09:23:50Z</time></trkpt><trkpt lat="45.75655839034618" lon="9.890684151764535"><ele>436.0</ele><time>2026-04-04T09:23:52Z</time></trkpt><trkpt lat="45.75648965558378" lon="9.89068096535426"><ele>436.00000000000006</ele><time>2026-04-04T09:23:54Z</time></trkpt><trkpt lat="45.756419861960026" lon="9.890693207707692"><ele>436.0</ele><time>2026-04-04T09:23:56Z</time></trkpt><trkpt lat="45.75635285655325" lon="9.890721928138124"><ele>436.0</ele><time>2026-04-04T09:23:58Z</time></trkpt><trkpt lat="45.7562739416372" lon="9.890791377512338"><ele>436.0</ele><time>2026-04-04T09:24:01Z</time></trkpt><trkpt lat="45.75619879195762" lon="9.89086741227511"><ele>436.00000000000006</ele><time>2026-04-04T09:24:04Z</time></trkpt><trkpt lat="45.75612836345497" lon="9.89093868016512"><ele>436.0</ele><time>2026-04-04T09:24:06.999Z</time></trkpt><trkpt lat="45.75604812980545" lon="9.890979787573698"><ele>435.50000000000006</ele><time>2026-04-04T09:24:09.999Z</time></trkpt><trkpt lat="45.75595929039" lon="9.89097696970845"><ele>435.0</ele><time>2026-04-04T09:24:12.999Z</time></trkpt><trkpt lat="45.75587535707178" lon="9.890959000864363"><ele>434.5</ele><time>2026-04-04T09:24:15.999Z</time></trkpt><trkpt lat="45.75579286191145" lon="9.890950734376423"><ele>434.0</ele><time>2026-04-04T09:24:18.999Z</time></trkpt><trkpt lat="45.75571270839066" lon="9.890919409962324"><ele>433.50000000000006</ele><time>2026-04-04T09:24:21.999Z</time></trkpt><trkpt lat="45.7556412240787" lon="9.890869447565597"><ele>433.0</ele><time>2026-04-04T09:24:24.999Z</time></trkpt><trkpt lat="45.75558533067985" lon="9.890788888949984"><ele>434.00000000000006</ele><time>2026-04-04T09:24:27.999Z</time></trkpt><trkpt lat="45.75552780858388" lon="9.89070495319826"><ele>435.0</ele><time>2026-04-04T09:24:30.999Z</time></trkpt><trkpt lat="45.7554743366851" lon="9.89062371296206"><ele>436.0</ele><time>2026-04-04T09:24:33.999Z</time></trkpt><trkpt lat="45.7554250974454" lon="9.890566662598893"><ele>437.0</ele><time>2026-04-04T09:24:36.999Z</time></trkpt><trkpt lat="45.7554053602869" lon="9.890455207666438"><ele>438.00000000000006</ele><time>2026-04-04T09:24:40.999Z</time></trkpt><trkpt lat="45.75546502852658" lon="9.890413266242708"><ele>439.0</ele><time>2026-04-04T09:24:43.999Z</time></trkpt><trkpt lat="45.755534840743806" lon="9.89048036345394"><ele>439.00000000000006</ele><time>2026-04-04T09:24:46.999Z</time></trkpt><trkpt lat="45.75560891085481" lon="9.89051975217984"><ele>439.0</ele><time>2026-04-04T09:24:49.999Z</time></trkpt><trkpt lat="45.75569249744382" lon="9.89050217096449"><ele>439.0</ele><time>2026-04-04T09:24:52.999Z</time></trkpt><trkpt lat="45.755740772331656" lon="9.89039363024647"><ele>439.0</ele><time>2026-04-04T09:24:55.999Z</time></trkpt><trkpt lat="45.755774820182474" lon="9.890286263321478"><ele>439.00000000000006</ele><time>2026-04-04T09:24:58.999Z</time></trkpt><trkpt lat="45.75580017626848" lon="9.89016028948906"><ele>439.0</ele><time>2026-04-04T09:25:01.999Z</time></trkpt><trkpt lat="45.75584681750317" lon="9.890060499869753"><ele>439.50000000000006</ele><time>2026-04-04T09:25:04.998Z</time></trkpt><trkpt lat="45.75592708196802" lon="9.890046603863375"><ele>440.0</ele><time>2026-04-04T09:25:07.998Z</time></trkpt><trkpt lat="45.75600799620583" lon="9.89006406632604"><ele>440.5</ele><time>2026-04-04T09:25:10.998Z</time></trkpt><trkpt lat="45.75609038757868" lon="9.890111133826801"><ele>441.0</ele><time>2026-04-04T09:25:13.998Z</time></trkpt><trkpt lat="45.75616211584938" lon="9.890152199009647"><ele>441.50000000000006</ele><time>2026-04-04T09:25:16.998Z</time></trkpt><trkpt lat="45.756230758260564" lon="9.890192150357585"><ele>442.0</ele><time>2026-04-04T09:25:19.998Z</time></trkpt><trkpt lat="45.756305755499014" lon="9.890231295419953"><ele>442.00000000000006</ele><time>2026-04-04T09:25:22.998Z</time></trkpt><trkpt lat="45.75638361769723" lon="9.890271412997109"><ele>442.0</ele><time>2026-04-04T09:25:25.998Z</time></trkpt><trkpt lat="45.756462625275944" lon="9.89031684855162"><ele>442.0</ele><time>2026-04-04T09:25:28.998Z</time></trkpt><trkpt lat="45.756541740188105" lon="9.890358419943414"><ele>442.0</ele><time>2026-04-04T09:25:31.998Z</time></trkpt><trkpt lat="45.75662218124506" lon="9.89039110164992"><ele>442.00000000000006</ele><time>2026-04-04T09:25:34.998Z</time></trkpt><trkpt lat="45.756703019885734" lon="9.890425796171508"><ele>442.0</ele><time>2026-04-04T09:25:37.998Z</time></trkpt><trkpt lat="45.75678746944353" lon="9.890410376417288"><ele>442.00000000000006</ele><time>2026-04-04T09:25:40.998Z</time></trkpt><trkpt lat="45.75682975617545" lon="9.890334634540272"><ele>442.0</ele><time>2026-04-04T09:25:42.998Z</time></trkpt><trkpt lat="45.75681542909502" lon="9.890233138902987"><ele>442.0</ele><time>2026-04-04T09:25:44.998Z</time></trkpt><trkpt lat="45.756757533191" lon="9.890166385565053"><ele>442.0</ele><time>2026-04-04T09:25:46.998Z</time></trkpt><trkpt lat="45.75670517866958" lon="9.890115416235249"><ele>442.00000000000006</ele><time>2026-04-04T09:25:48.998Z</time></trkpt><trkpt lat="45.75663136497619" lon="9.890051115936833"><ele>442.0</ele><time>2026-04-04T09:25:51.998Z</time></trkpt><trkpt lat="45.75656179097541" lon="9.889972724601105"><ele>444.83333333333337</ele><time>2026-04-04T09:25:55Z</time></trkpt><trkpt lat="45.75650774603084" lon="9.88987215204008"><ele>447.6666666666667</ele><time>2026-04-04T09:25:58Z</time></trkpt><trkpt lat="45.75645659075656" lon="9.889776157905787"><ele>450.5</ele><time>2026-04-04T09:26:01Z</time></trkpt><trkpt lat="45.7564086361605" lon="9.889671048169847"><ele>453.33333333333337</ele><time>2026-04-04T09:26:04Z</time></trkpt><trkpt lat="45.75635992495702" lon="9.889568610663074"><ele>456.1666666666667</ele><time>2026-04-04T09:26:07Z</time></trkpt><trkpt lat="45.75630647972042" lon="9.88946867818359"><ele>459.0</ele><time>2026-04-04T09:26:10Z</time></trkpt><trkpt lat="45.75625209092129" lon="9.88937268126486"><ele>459.0</ele><time>2026-04-04T09:26:13Z</time></trkpt><trkpt lat="45.75620152085029" lon="9.889275451505174"><ele>459.0</ele><time>2026-04-04T09:26:15.999Z</time></trkpt><trkpt lat="45.75614384722153" lon="9.889181301861035"><ele>459.0</ele><time>2026-04-04T09:26:18.999Z</time></trkpt><trkpt lat="45.75607460379048" lon="9.889090126185417"><ele>459.0</ele><time>2026-04-04T09:26:21.999Z</time></trkpt><trkpt lat="45.75600888394652" lon="9.889006636472947"><ele>459.0</ele><time>2026-04-04T09:26:24.999Z</time></trkpt><trkpt lat="45.755951501612365" lon="9.888914808594928"><ele>459.0</ele><time>2026-04-04T09:26:27.999Z</time></trkpt><trkpt lat="45.75588905285645" lon="9.888831746803291"><ele>460.3333333333333</ele><time>2026-04-04T09:26:30.999Z</time></trkpt><trkpt lat="45.7558204265662" lon="9.888755253177212"><ele>461.66666666666663</ele><time>2026-04-04T09:26:33.999Z</time></trkpt><trkpt lat="45.75575380370239" lon="9.888675216505202"><ele>463.0</ele><time>2026-04-04T09:26:36.999Z</time></trkpt><trkpt lat="45.75568432365412" lon="9.88859869560036"><ele>464.3333333333333</ele><time>2026-04-04T09:26:39.999Z</time></trkpt><trkpt lat="45.755615451887984" lon="9.888533246332706"><ele>465.66666666666663</ele><time>2026-04-04T09:26:42.999Z</time></trkpt><trkpt lat="45.75554311993464" lon="9.8884657436495"><ele>467.0</ele><time>2026-04-04T09:26:45.999Z</time></trkpt><trkpt lat="45.75547310613208" lon="9.888393173978072"><ele>468.66666666666663</ele><time>2026-04-04T09:26:48.999Z</time></trkpt><trkpt lat="45.75540259317335" lon="9.888322066879612"><ele>470.3333333333333</ele><time>2026-04-04T09:26:51.999Z</time></trkpt><trkpt lat="45.755335853970315" lon="9.888245665126815"><ele>472.0</ele><time>2026-04-04T09:26:54.999Z</time></trkpt><trkpt lat="45.75527546847192" lon="9.888158826403268"><ele>473.66666666666663</ele><time>2026-04-04T09:26:57.999Z</time></trkpt><trkpt lat="45.75526703280483" lon="9.888039581403126"><ele>475.3333333333333</ele><time>2026-04-04T09:27:00.999Z</time></trkpt><trkpt lat="45.7552921539596" lon="9.887924506861316"><ele>477.0</ele><time>2026-04-04T09:27:03.999Z</time></trkpt><trkpt lat="45.75533282932217" lon="9.887816571436176"><ele>477.0</ele><time>2026-04-04T09:27:06.999Z</time></trkpt><trkpt lat="45.75536740279303" lon="9.887698621910998"><ele>477.00000000000006</ele><time>2026-04-04T09:27:09.998Z</time></trkpt><trkpt lat="45.75539272368913" lon="9.887570127752268"><ele>477.00000000000006</ele><time>2026-04-04T09:27:12.998Z</time></trkpt><trkpt lat="45.7554126712039" lon="9.887440841999902"><ele>477.0</ele><time>2026-04-04T09:27:15.998Z</time></trkpt><trkpt lat="45.755427924391874" lon="9.887314919635944"><ele>477.0</ele><time>2026-04-04T09:27:18.998Z</time></trkpt><trkpt lat="45.755440978939646" lon="9.887193130321865"><ele>478.2857142857143</ele><time>2026-04-04T09:27:21.998Z</time></trkpt><trkpt lat="45.755446815297745" lon="9.887102789191065"><ele>479.57142857142856</ele><time>2026-04-04T09:27:23.998Z</time></trkpt><trkpt lat="45.75545588142786" lon="9.886973281787768"><ele>480.85714285714283</ele><time>2026-04-04T09:27:26.998Z</time></trkpt><trkpt lat="45.755466676935114" lon="9.88683811611216"><ele>482.1428571428571</ele><time>2026-04-04T09:27:29.998Z</time></trkpt><trkpt lat="45.75546676513554" lon="9.886747615962614"><ele>483.42857142857144</ele><time>2026-04-04T09:27:31.998Z</time></trkpt><trkpt lat="45.75545841905753" lon="9.886655629347697"><ele>484.71428571428567</ele><time>2026-04-04T09:27:33.998Z</time></trkpt><trkpt lat="45.755438178535776" lon="9.886568418008133"><ele>486.0</ele><time>2026-04-04T09:27:35.998Z</time></trkpt><trkpt lat="45.755400548197734" lon="9.886447489068248"><ele>485.8333333333333</ele><time>2026-04-04T09:27:38.998Z</time></trkpt><trkpt lat="45.75535062786604" lon="9.886338466199062"><ele>485.66666666666663</ele><time>2026-04-04T09:27:41.998Z</time></trkpt><trkpt lat="45.755298668066935" lon="9.886237072622242"><ele>485.5</ele><time>2026-04-04T09:27:44.998Z</time></trkpt><trkpt lat="45.75524742465216" lon="9.886137377432664"><ele>485.3333333333333</ele><time>2026-04-04T09:27:47.998Z</time></trkpt><trkpt lat="45.75519190028673" lon="9.886036698755202"><ele>485.16666666666663</ele><time>2026-04-04T09:27:50.998Z</time></trkpt><trkpt lat="45.75513745057941" lon="9.885937685457682"><ele>485.0</ele><time>2026-04-04T09:27:53.998Z</time></trkpt><trkpt lat="45.75511557033382" lon="9.88582079626156"><ele>486.49999999999994</ele><time>2026-04-04T09:27:56.998Z</time></trkpt><trkpt lat="45.7551870275779" lon="9.885757324173964"><ele>488.0</ele><time>2026-04-04T09:27:59.998Z</time></trkpt><trkpt lat="45.7552485224114" lon="9.885791339558816"><ele>489.5</ele><time>2026-04-04T09:28:02Z</time></trkpt><trkpt lat="45.755306001845156" lon="9.885832130667321"><ele>491.0</ele><time>2026-04-04T09:28:04Z</time></trkpt><trkpt lat="45.75536549005302" lon="9.88587177133695"><ele>492.49999999999994</ele><time>2026-04-04T09:28:06Z</time></trkpt><trkpt lat="45.75545112011526" lon="9.885944155012568"><ele>494.0</ele><time>2026-04-04T09:28:09Z</time></trkpt><trkpt lat="45.75552336852048" lon="9.885997578590016"><ele>494.0</ele><time>2026-04-04T09:28:11Z</time></trkpt><trkpt lat="45.75558891406246" lon="9.886050231446912"><ele>494.0</ele><time>2026-04-04T09:28:13Z</time></trkpt><trkpt lat="45.755685534422945" lon="9.88613272115023"><ele>494.0</ele><time>2026-04-04T09:28:16Z</time></trkpt><trkpt lat="45.75575456358549" lon="9.886208245260498"><ele>494.0</ele><time>2026-04-04T09:28:18Z</time></trkpt><trkpt lat="45.75582303793694" lon="9.886286840443246"><ele>494.0</ele><time>2026-04-04T09:28:19.999Z</time></trkpt><trkpt lat="45.7558941830673" lon="9.88636003844854"><ele>493.99999999999994</ele><time>2026-04-04T09:28:21.999Z</time></trkpt><trkpt lat="45.75596975658886" lon="9.88643322643053"><ele>494.0</ele><time>2026-04-04T09:28:23.999Z</time></trkpt><trkpt lat="45.756020688443634" lon="9.886498287407125"><ele>494.0</ele><time>2026-04-04T09:28:25.999Z</time></trkpt><trkpt lat="45.756108214579925" lon="9.886539698442546"><ele>494.0</ele><time>2026-04-04T09:28:27.999Z</time></trkpt><trkpt lat="45.75618228640887" lon="9.886627001464964"><ele>493.99999999999994</ele><time>2026-04-04T09:28:30.999Z</time></trkpt><trkpt lat="45.756230864141685" lon="9.88670301215913"><ele>494.0</ele><time>2026-04-04T09:28:32.999Z</time></trkpt><trkpt lat="45.7562691198821" lon="9.886775330573675"><ele>494.7142857142857</ele><time>2026-04-04T09:28:34.999Z</time></trkpt><trkpt lat="45.756324721693325" lon="9.886844185956008"><ele>495.42857142857144</ele><time>2026-04-04T09:28:36.999Z</time></trkpt><trkpt lat="45.75637824864251" lon="9.886898633314757"><ele>496.14285714285717</ele><time>2026-04-04T09:28:38.999Z</time></trkpt><trkpt lat="45.756433850289866" lon="9.886952609855037"><ele>496.8571428571429</ele><time>2026-04-04T09:28:40.999Z</time></trkpt><trkpt lat="45.75648788863389" lon="9.887006077868426"><ele>497.57142857142856</ele><time>2026-04-04T09:28:42.999Z</time></trkpt><trkpt lat="45.7565437515849" lon="9.887053836167597"><ele>498.28571428571433</ele><time>2026-04-04T09:28:44.999Z</time></trkpt><trkpt lat="45.75659863866094" lon="9.887102982942034"><ele>499.00000000000006</ele><time>2026-04-04T09:28:46.999Z</time></trkpt><trkpt lat="45.75665754285809" lon="9.887148578154502"><ele>499.00000000000006</ele><time>2026-04-04T09:28:48.999Z</time></trkpt><trkpt lat="45.75672257601734" lon="9.88717071353209"><ele>499.0</ele><time>2026-04-04T09:28:50.999Z</time></trkpt><trkpt lat="45.756788117532494" lon="9.887145057524789"><ele>499.00000000000006</ele><time>2026-04-04T09:28:52.999Z</time></trkpt><trkpt lat="45.75682579694895" lon="9.887038798033602"><ele>499.00000000000006</ele><time>2026-04-04T09:28:54.999Z</time></trkpt><trkpt lat="45.75683643165512" lon="9.88693340130282"><ele>499.0</ele><time>2026-04-04T09:28:56.999Z</time></trkpt><trkpt lat="45.75685442370771" lon="9.88683080331629"><ele>499.00000000000006</ele><time>2026-04-04T09:28:58.999Z</time></trkpt><trkpt lat="45.75686562186751" lon="9.886722066733613"><ele>499.00000000000006</ele><time>2026-04-04T09:29:00.999Z</time></trkpt><trkpt lat="45.75688089112493" lon="9.886598696352095"><ele>500.0</ele><time>2026-04-04T09:29:02.999Z</time></trkpt><trkpt lat="45.75689146221924" lon="9.8864744527226"><ele>501.0</ele><time>2026-04-04T09:29:04.999Z</time></trkpt><trkpt lat="45.7568958301168" lon="9.886350009078116"><ele>502.0</ele><time>2026-04-04T09:29:06.999Z</time></trkpt><trkpt lat="45.756894605877044" lon="9.886219362021217"><ele>503.0</ele><time>2026-04-04T09:29:08.999Z</time></trkpt><trkpt lat="45.75690469958411" lon="9.886088111136322"><ele>504.0</ele><time>2026-04-04T09:29:10.999Z</time></trkpt><trkpt lat="45.75691177373976" lon="9.885952800803677"><ele>505.4</ele><time>2026-04-04T09:29:12.999Z</time></trkpt><trkpt lat="45.75690734293426" lon="9.885815054273367"><ele>506.79999999999995</ele><time>2026-04-04T09:29:14.998Z</time></trkpt><trkpt lat="45.756915112251065" lon="9.885682889352495"><ele>508.20000000000005</ele><time>2026-04-04T09:29:16.998Z</time></trkpt><trkpt lat="45.75693587803958" lon="9.885550893619971"><ele>509.6</ele><time>2026-04-04T09:29:18.998Z</time></trkpt><trkpt lat="45.75697289755511" lon="9.885429081277477"><ele>511.0</ele><time>2026-04-04T09:29:20.998Z</time></trkpt><trkpt lat="45.75705631838874" lon="9.88537512437426"><ele>511.0</ele><time>2026-04-04T09:29:22.998Z</time></trkpt><trkpt lat="45.757155782935364" lon="9.885411081085962"><ele>511.0</ele><time>2026-04-04T09:29:24.998Z</time></trkpt><trkpt lat="45.75725362442029" lon="9.88543648765056"><ele>511.0</ele><time>2026-04-04T09:29:26.998Z</time></trkpt><trkpt lat="45.75735351908915" lon="9.885449666530208"><ele>511.0</ele><time>2026-04-04T09:29:28.998Z</time></trkpt><trkpt lat="45.75745310133453" lon="9.885483222172596"><ele>511.0</ele><time>2026-04-04T09:29:30.998Z</time></trkpt><trkpt lat="45.757544332317835" lon="9.885553032713762"><ele>511.00000000000006</ele><time>2026-04-04T09:29:32.998Z</time></trkpt><trkpt lat="45.75759616179338" lon="9.88565877793797"><ele>511.0</ele><time>2026-04-04T09:29:34.998Z</time></trkpt><trkpt lat="45.75762948503622" lon="9.885764174819796"><ele>511.0</ele><time>2026-04-04T09:29:36.998Z</time></trkpt><trkpt lat="45.75765928613796" lon="9.885862167304282"><ele>511.0</ele><time>2026-04-04T09:29:38.998Z</time></trkpt><trkpt lat="45.75768142711963" lon="9.885969578570286"><ele>511.00000000000006</ele><time>2026-04-04T09:29:40.998Z</time></trkpt><trkpt lat="45.757706603640344" lon="9.886074960450875"><ele>511.0</ele><time>2026-04-04T09:29:42.998Z</time></trkpt><trkpt lat="45.75774138273463" lon="9.886177353505534"><ele>511.6666666666667</ele><time>2026-04-04T09:29:44.998Z</time></trkpt><trkpt lat="45.75780789630773" lon="9.886239602000385"><ele>512.3333333333334</ele><time>2026-04-04T09:29:46.998Z</time></trkpt><trkpt lat="45.75788608976369" lon="9.886209510650664"><ele>513.0</ele><time>2026-04-04T09:29:48.998Z</time></trkpt><trkpt lat="45.757917769420125" lon="9.886099076636505"><ele>513.6666666666666</ele><time>2026-04-04T09:29:50.998Z</time></trkpt><trkpt lat="45.757903730582015" lon="9.885985335999617"><ele>514.3333333333333</ele><time>2026-04-04T09:29:52.998Z</time></trkpt><trkpt lat="45.75788581135085" lon="9.885877953461785"><ele>515.0</ele><time>2026-04-04T09:29:54.998Z</time></trkpt><trkpt lat="45.757863960901275" lon="9.885770025475706"><ele>516.7142857142858</ele><time>2026-04-04T09:29:56.998Z</time></trkpt><trkpt lat="45.75784545622098" lon="9.88566213781208"><ele>518.4285714285714</ele><time>2026-04-04T09:29:58.998Z</time></trkpt><trkpt lat="45.75785161840237" lon="9.885552456901975"><ele>520.1428571428571</ele><time>2026-04-04T09:30:00.998Z</time></trkpt><trkpt lat="45.75788712108222" lon="9.885458265126202"><ele>521.8571428571429</ele><time>2026-04-04T09:30:02.998Z</time></trkpt><trkpt lat="45.75793879113577" lon="9.88537585854494"><ele>523.5714285714286</ele><time>2026-04-04T09:30:04.998Z</time></trkpt><trkpt lat="45.75797236051018" lon="9.885294106723126"><ele>525.2857142857143</ele><time>2026-04-04T09:30:07Z</time></trkpt><trkpt lat="45.7580159245251" lon="9.885216247382841"><ele>527.0</ele><time>2026-04-04T09:30:09Z</time></trkpt><trkpt lat="45.75805577353379" lon="9.885140118033029"><ele>528.1428571428572</ele><time>2026-04-04T09:30:11Z</time></trkpt><trkpt lat="45.75809625535798" lon="9.885068878286244"><ele>529.2857142857143</ele><time>2026-04-04T09:30:13Z</time></trkpt><trkpt lat="45.75813278744732" lon="9.884994175444966"><ele>530.4285714285714</ele><time>2026-04-04T09:30:15Z</time></trkpt><trkpt lat="45.75816433425883" lon="9.884911189726335"><ele>531.5714285714287</ele><time>2026-04-04T09:30:17Z</time></trkpt><trkpt lat="45.75819302051422" lon="9.884824745227588"><ele>532.7142857142858</ele><time>2026-04-04T09:30:19Z</time></trkpt><trkpt lat="45.75820603849109" lon="9.884729410528676"><ele>533.8571428571429</ele><time>2026-04-04T09:30:21Z</time></trkpt><trkpt lat="45.758209790415926" lon="9.884633922253196"><ele>535.0</ele><time>2026-04-04T09:30:23Z</time></trkpt><trkpt lat="45.758211648269935" lon="9.884532775283303"><ele>535.0</ele><time>2026-04-04T09:30:24.999Z</time></trkpt><trkpt lat="45.75819681404609" lon="9.884432840799928"><ele>535.0</ele><time>2026-04-04T09:30:26.999Z</time></trkpt><trkpt lat="45.75818027074698" lon="9.88433283867979"><ele>535.0</ele><time>2026-04-04T09:30:28.999Z</time></trkpt><trkpt lat="45.75815494574678" lon="9.884239052685329"><ele>535.0</ele><time>2026-04-04T09:30:30.999Z</time></trkpt><trkpt lat="45.758125891529474" lon="9.884147681588752"><ele>535.0</ele><time>2026-04-04T09:30:32.999Z</time></trkpt><trkpt lat="45.75810374211941" lon="9.884051305942243"><ele>535.0</ele><time>2026-04-04T09:30:34.999Z</time></trkpt><trkpt lat="45.7581192465699" lon="9.883961723853698"><ele>535.0</ele><time>2026-04-04T09:30:36.999Z</time></trkpt><trkpt lat="45.75817681347853" lon="9.88391648443766"><ele>535.0</ele><time>2026-04-04T09:30:38.999Z</time></trkpt><trkpt lat="45.75822905125392" lon="9.884010056008814"><ele>535.0</ele><time>2026-04-04T09:30:40.999Z</time></trkpt><trkpt lat="45.75824917353181" lon="9.884107698857472"><ele>535.0</ele><time>2026-04-04T09:30:42.999Z</time></trkpt><trkpt lat="45.7582630097038" lon="9.884205355311824"><ele>535.0</ele><time>2026-04-04T09:30:44.999Z</time></trkpt><trkpt lat="45.75828344683855" lon="9.884298035622303"><ele>535.0</ele><time>2026-04-04T09:30:46.999Z</time></trkpt><trkpt lat="45.75829356982256" lon="9.884393897705293"><ele>535.0</ele><time>2026-04-04T09:30:48.999Z</time></trkpt><trkpt lat="45.758305075225095" lon="9.8844843131668"><ele>535.0</ele><time>2026-04-04T09:30:50.999Z</time></trkpt><trkpt lat="45.75831408598333" lon="9.884577567275354"><ele>535.0</ele><time>2026-04-04T09:30:52.999Z</time></trkpt><trkpt lat="45.75831796599691" lon="9.884669959303581"><ele>535.0</ele><time>2026-04-04T09:30:54.999Z</time></trkpt><trkpt lat="45.75831841366886" lon="9.884760721246185"><ele>535.0</ele><time>2026-04-04T09:30:56.999Z</time></trkpt><trkpt lat="45.75832109666729" lon="9.884852172662999"><ele>535.0</ele><time>2026-04-04T09:30:58.999Z</time></trkpt><trkpt lat="45.75832476141018" lon="9.884947580504832"><ele>535.0</ele><time>2026-04-04T09:31:00.999Z</time></trkpt><trkpt lat="45.758326851108905" lon="9.8850411335633"><ele>535.0</ele><time>2026-04-04T09:31:02.999Z</time></trkpt><trkpt lat="45.75832506048574" lon="9.885176777987748"><ele>535.0</ele><time>2026-04-04T09:31:05.999Z</time></trkpt><trkpt lat="45.75832912034356" lon="9.885270251342908"><ele>533.6666666666667</ele><time>2026-04-04T09:31:07.999Z</time></trkpt><trkpt lat="45.75833472043072" lon="9.885401515365677"><ele>532.3333333333334</ele><time>2026-04-04T09:31:10.999Z</time></trkpt><trkpt lat="45.758347795601615" lon="9.885535559993544"><ele>531.0</ele><time>2026-04-04T09:31:13.999Z</time></trkpt><trkpt lat="45.75835404150544" lon="9.885626161537568"><ele>529.6666666666666</ele><time>2026-04-04T09:31:15.999Z</time></trkpt><trkpt lat="45.75837740181151" lon="9.885717375993837"><ele>528.3333333333333</ele><time>2026-04-04T09:31:17.999Z</time></trkpt><trkpt lat="45.75842057505768" lon="9.885789990221596"><ele>527.0</ele><time>2026-04-04T09:31:19.998Z</time></trkpt><trkpt lat="45.758472667064325" lon="9.885852093408358"><ele>527.0000000000001</ele><time>2026-04-04T09:31:21.998Z</time></trkpt><trkpt lat="45.75853364668429" lon="9.885881447534441"><ele>527.0</ele><time>2026-04-04T09:31:23.998Z</time></trkpt><trkpt lat="45.75859867503554" lon="9.885886846656947"><ele>527.0</ele><time>2026-04-04T09:31:25.998Z</time></trkpt><trkpt lat="45.75865861274527" lon="9.88584637877784"><ele>527.0</ele><time>2026-04-04T09:31:27.998Z</time></trkpt><trkpt lat="45.75871081655971" lon="9.885788992048598"><ele>527.0</ele><time>2026-04-04T09:31:29.998Z</time></trkpt><trkpt lat="45.75875166888817" lon="9.885709003025987"><ele>527.0000000000001</ele><time>2026-04-04T09:31:31.998Z</time></trkpt><trkpt lat="45.75878374300463" lon="9.885622051901015"><ele>527.0</ele><time>2026-04-04T09:31:33.998Z</time></trkpt><trkpt lat="45.758816997998814" lon="9.885534474856737"><ele>530.1428571428572</ele><time>2026-04-04T09:31:35.998Z</time></trkpt><trkpt lat="45.75884512337802" lon="9.885442398776258"><ele>533.2857142857143</ele><time>2026-04-04T09:31:37.998Z</time></trkpt><trkpt lat="45.7588706237569" lon="9.885349401845632"><ele>536.4285714285714</ele><time>2026-04-04T09:31:39.998Z</time></trkpt><trkpt lat="45.75889086764202" lon="9.885254968954753"><ele>539.5714285714287</ele><time>2026-04-04T09:31:41.998Z</time></trkpt><trkpt lat="45.75887403147983" lon="9.885155883744352"><ele>542.7142857142858</ele><time>2026-04-04T09:31:43.998Z</time></trkpt><trkpt lat="45.75884570961696" lon="9.885062501431408"><ele>545.8571428571429</ele><time>2026-04-04T09:31:45.998Z</time></trkpt><trkpt lat="45.75881094581838" lon="9.884970801242916"><ele>549.0</ele><time>2026-04-04T09:31:47.998Z</time></trkpt><trkpt lat="45.758770901728155" lon="9.884882913850886"><ele>549.4285714285714</ele><time>2026-04-04T09:31:49.998Z</time></trkpt><trkpt lat="45.758740733612335" lon="9.88478932500615"><ele>549.8571428571429</ele><time>2026-04-04T09:31:51.998Z</time></trkpt><trkpt lat="45.75870235208446" lon="9.884701430183542"><ele>550.2857142857143</ele><time>2026-04-04T09:31:53.998Z</time></trkpt><trkpt lat="45.758670046873824" lon="9.884605990189636"><ele>550.7142857142858</ele><time>2026-04-04T09:31:55.998Z</time></trkpt><trkpt lat="45.75864444043725" lon="9.88451385117071"><ele>551.1428571428572</ele><time>2026-04-04T09:31:57.998Z</time></trkpt><trkpt lat="45.75863162212809" lon="9.884418178420367"><ele>551.5714285714286</ele><time>2026-04-04T09:31:59.998Z</time></trkpt><trkpt lat="45.75862188237603" lon="9.88432402522812"><ele>552.0</ele><time>2026-04-04T09:32:01.998Z</time></trkpt><trkpt lat="45.75864913829806" lon="9.884233279964695"><ele>553.1428571428571</ele><time>2026-04-04T09:32:03.998Z</time></trkpt><trkpt lat="45.75867135248604" lon="9.88409952771407"><ele>554.2857142857143</ele><time>2026-04-04T09:32:06.998Z</time></trkpt><trkpt lat="45.7586869569167" lon="9.884011816587604"><ele>555.4285714285714</ele><time>2026-04-04T09:32:08.998Z</time></trkpt><trkpt lat="45.758698104412744" lon="9.883919071445748"><ele>556.5714285714286</ele><time>2026-04-04T09:32:10.998Z</time></trkpt><trkpt lat="45.75870861279113" lon="9.883827092311956"><ele>557.7142857142858</ele><time>2026-04-04T09:32:13Z</time></trkpt><trkpt lat="45.758713716290856" lon="9.883736967085321"><ele>558.8571428571429</ele><time>2026-04-04T09:32:15Z</time></trkpt><trkpt lat="45.758711935790586" lon="9.883644428617583"><ele>560.0</ele><time>2026-04-04T09:32:17Z</time></trkpt><trkpt lat="45.7587020910351" lon="9.883550249755778"><ele>560.0</ele><time>2026-04-04T09:32:19Z</time></trkpt><trkpt lat="45.75869558286532" lon="9.883459088492186"><ele>560.0</ele><time>2026-04-04T09:32:21Z</time></trkpt><trkpt lat="45.75869409686874" lon="9.883365664189869"><ele>560.0</ele><time>2026-04-04T09:32:23Z</time></trkpt><trkpt lat="45.75876013378953" lon="9.883321835483573"><ele>560.0</ele><time>2026-04-04T09:32:25Z</time></trkpt><trkpt lat="45.758812336154286" lon="9.883380271029178"><ele>560.0</ele><time>2026-04-04T09:32:27Z</time></trkpt><trkpt lat="45.758823206062864" lon="9.883482405998004"><ele>560.0</ele><time>2026-04-04T09:32:29Z</time></trkpt><trkpt lat="45.75883287208622" lon="9.883615956471962"><ele>560.0</ele><time>2026-04-04T09:32:31.999Z</time></trkpt><trkpt lat="45.75884569340648" lon="9.883739980238753"><ele>560.0</ele><time>2026-04-04T09:32:34.999Z</time></trkpt><trkpt lat="45.758866080924705" lon="9.883858338563241"><ele>560.0</ele><time>2026-04-04T09:32:37.999Z</time></trkpt><trkpt lat="45.758886964468154" lon="9.883980491064156"><ele>560.0</ele><time>2026-04-04T09:32:40.999Z</time></trkpt><trkpt lat="45.7589220054268" lon="9.884088711132122"><ele>560.0</ele><time>2026-04-04T09:32:43.999Z</time></trkpt><trkpt lat="45.75897698152027" lon="9.884185079021366"><ele>560.0</ele><time>2026-04-04T09:32:46.999Z</time></trkpt><trkpt lat="45.75903508634586" lon="9.884274437417163"><ele>560.0</ele><time>2026-04-04T09:32:49.999Z</time></trkpt><trkpt lat="45.75909391378714" lon="9.884361691574426"><ele>558.6666666666666</ele><time>2026-04-04T09:32:52.999Z</time></trkpt><trkpt lat="45.75915813913829" lon="9.884441523826828"><ele>557.3333333333333</ele><time>2026-04-04T09:32:55.999Z</time></trkpt><trkpt lat="45.759224618873574" lon="9.884514163711318"><ele>556.0</ele><time>2026-04-04T09:32:58.999Z</time></trkpt><trkpt lat="45.75928809508655" lon="9.884594737012"><ele>554.6666666666666</ele><time>2026-04-04T09:33:01.999Z</time></trkpt><trkpt lat="45.75935043947552" lon="9.884672765644137"><ele>553.3333333333334</ele><time>2026-04-04T09:33:04.999Z</time></trkpt><trkpt lat="45.759408395967974" lon="9.88476335334331"><ele>552.0</ele><time>2026-04-04T09:33:07.999Z</time></trkpt><trkpt lat="45.75945339039187" lon="9.884859115767618"><ele>556.5</ele><time>2026-04-04T09:33:10.999Z</time></trkpt><trkpt lat="45.75949224237369" lon="9.884965613887323"><ele>561.0</ele><time>2026-04-04T09:33:13.999Z</time></trkpt><trkpt lat="45.75951989747383" lon="9.885080225475235"><ele>565.5</ele><time>2026-04-04T09:33:16.999Z</time></trkpt><trkpt lat="45.7595397841791" lon="9.88520280890374"><ele>570.0</ele><time>2026-04-04T09:33:19.999Z</time></trkpt><trkpt lat="45.75955535437897" lon="9.88532079718968"><ele>574.5</ele><time>2026-04-04T09:33:22.999Z</time></trkpt><trkpt lat="45.759577740781275" lon="9.885442281616902"><ele>579.0</ele><time>2026-04-04T09:33:25.998Z</time></trkpt><trkpt lat="45.7596311960414" lon="9.8855463913367"><ele>578.9999999999999</ele><time>2026-04-04T09:33:28.998Z</time></trkpt><trkpt lat="45.75970013152757" lon="9.88555491805823"><ele>579.0</ele><time>2026-04-04T09:33:30.998Z</time></trkpt><trkpt lat="45.75974861162441" lon="9.885489503565045"><ele>579.0</ele><time>2026-04-04T09:33:32.998Z</time></trkpt><trkpt lat="45.75976929048581" lon="9.885388036686022"><ele>579.0</ele><time>2026-04-04T09:33:34.998Z</time></trkpt><trkpt lat="45.759754887005265" lon="9.885283957943487"><ele>579.0</ele><time>2026-04-04T09:33:36.998Z</time></trkpt><trkpt lat="45.75974064480898" lon="9.885185798509978"><ele>578.9999999999999</ele><time>2026-04-04T09:33:38.998Z</time></trkpt><trkpt lat="45.75972171970402" lon="9.88509171623462"><ele>579.0</ele><time>2026-04-04T09:33:40.998Z</time></trkpt><trkpt lat="45.75968134603052" lon="9.88495312892376"><ele>580.2857142857142</ele><time>2026-04-04T09:33:43.998Z</time></trkpt><trkpt lat="45.75966947832438" lon="9.884839663888595"><ele>581.5714285714286</ele><time>2026-04-04T09:33:46.998Z</time></trkpt><trkpt lat="45.75965381522056" lon="9.88474254365827"><ele>582.8571428571429</ele><time>2026-04-04T09:33:48.998Z</time></trkpt><trkpt lat="45.75964225954958" lon="9.884653184580783"><ele>584.1428571428571</ele><time>2026-04-04T09:33:50.998Z</time></trkpt><trkpt lat="45.75963526425884" lon="9.88456251733487"><ele>585.4285714285714</ele><time>2026-04-04T09:33:52.998Z</time></trkpt><trkpt lat="45.759624950075334" lon="9.88447021832477"><ele>586.7142857142857</ele><time>2026-04-04T09:33:54.998Z</time></trkpt><trkpt lat="45.759620882690534" lon="9.88437796307183"><ele>588.0</ele><time>2026-04-04T09:33:56.998Z</time></trkpt><trkpt lat="45.75962006076916" lon="9.884285563876068"><ele>589.1428571428571</ele><time>2026-04-04T09:33:58.999Z</time></trkpt><trkpt lat="45.75961898086063" lon="9.88419200675628"><ele>590.2857142857142</ele><time>2026-04-04T09:34:00.999Z</time></trkpt><trkpt lat="45.75961792565795" lon="9.884060867378702"><ele>591.4285714285714</ele><time>2026-04-04T09:34:03.999Z</time></trkpt><trkpt lat="45.75962190753491" lon="9.883963695148966"><ele>592.5714285714286</ele><time>2026-04-04T09:34:05.999Z</time></trkpt><trkpt lat="45.75962784185574" lon="9.883873219034871"><ele>593.7142857142857</ele><time>2026-04-04T09:34:07.999Z</time></trkpt><trkpt lat="45.759626354228054" lon="9.883779828931647"><ele>594.8571428571429</ele><time>2026-04-04T09:34:09.999Z</time></trkpt><trkpt lat="45.75962067552572" lon="9.88364250288463"><ele>596.0</ele><time>2026-04-04T09:34:12.999Z</time></trkpt><trkpt lat="45.759627326771785" lon="9.883512905428256"><ele>596.1428571428571</ele><time>2026-04-04T09:34:15.999Z</time></trkpt><trkpt lat="45.75962566053496" lon="9.88341908920871"><ele>596.2857142857142</ele><time>2026-04-04T09:34:17.998Z</time></trkpt><trkpt lat="45.759621489415565" lon="9.883323584188263"><ele>596.4285714285714</ele><time>2026-04-04T09:34:20.001Z</time></trkpt><trkpt lat="45.7596182161887" lon="9.883229746859449"><ele>596.5714285714286</ele><time>2026-04-04T09:34:22.001Z</time></trkpt><trkpt lat="45.75960952498507" lon="9.88313792764485"><ele>596.7142857142858</ele><time>2026-04-04T09:34:24.001Z</time></trkpt><trkpt lat="45.759602672385036" lon="9.883047914724983"><ele>596.8571428571429</ele><time>2026-04-04T09:34:26.001Z</time></trkpt><trkpt lat="45.75958410583668" lon="9.882958852561789"><ele>597.0</ele><time>2026-04-04T09:34:28.001Z</time></trkpt><trkpt lat="45.75956381248601" lon="9.882827564405662"><ele>597.0000000000001</ele><time>2026-04-04T09:34:31.001Z</time></trkpt><trkpt lat="45.75953402307871" lon="9.882700908487402"><ele>597.0</ele><time>2026-04-04T09:34:34.001Z</time></trkpt><trkpt lat="45.75951329464436" lon="9.882614145705965"><ele>597.0</ele><time>2026-04-04T09:34:36Z</time></trkpt><trkpt lat="45.75949494427024" lon="9.882525426022154"><ele>597.0</ele><time>2026-04-04T09:34:38Z</time></trkpt><trkpt lat="45.759472168281704" lon="9.882433245611585"><ele>597.0</ele><time>2026-04-04T09:34:40Z</time></trkpt><trkpt lat="45.75945502426966" lon="9.882343392079045"><ele>597.0000000000001</ele><time>2026-04-04T09:34:42Z</time></trkpt><trkpt lat="45.75943325229891" lon="9.882253085451481"><ele>597.0</ele><time>2026-04-04T09:34:44Z</time></trkpt><trkpt lat="45.75940777478226" lon="9.882166561899403"><ele>597.8571428571429</ele><time>2026-04-04T09:34:46Z</time></trkpt><trkpt lat="45.759383780386635" lon="9.882075560519315"><ele>598.7142857142858</ele><time>2026-04-04T09:34:48Z</time></trkpt><trkpt lat="45.75935934085006" lon="9.881987874105985"><ele>599.5714285714287</ele><time>2026-04-04T09:34:50Z</time></trkpt><trkpt lat="45.7593514628768" lon="9.881893957948424"><ele>600.4285714285714</ele><time>2026-04-04T09:34:52Z</time></trkpt><trkpt lat="45.75940993644492" lon="9.881809453656754"><ele>601.2857142857142</ele><time>2026-04-04T09:34:55Z</time></trkpt><trkpt lat="45.759455471412416" lon="9.881890283935093"><ele>602.1428571428572</ele><time>2026-04-04T09:34:57Z</time></trkpt><trkpt lat="45.75945600772474" lon="9.881995830550848"><ele>603.0</ele><time>2026-04-04T09:34:59Z</time></trkpt><trkpt lat="45.75946573511844" lon="9.882092969080045"><ele>603.0</ele><time>2026-04-04T09:35:01Z</time></trkpt><trkpt lat="45.759492680178255" lon="9.88218273698847"><ele>603.0</ele><time>2026-04-04T09:35:03Z</time></trkpt><trkpt lat="45.75952739288625" lon="9.88226271929318"><ele>603.0</ele><time>2026-04-04T09:35:05Z</time></trkpt><trkpt lat="45.75956832325123" lon="9.882333083034055"><ele>603.0</ele><time>2026-04-04T09:35:07Z</time></trkpt><trkpt lat="45.75961529720135" lon="9.882395879048962"><ele>603.0</ele><time>2026-04-04T09:35:09Z</time></trkpt><trkpt lat="45.75968434947424" lon="9.882473192766623"><ele>603.0</ele><time>2026-04-04T09:35:12Z</time></trkpt><trkpt lat="45.759747629995616" lon="9.882565788977983"><ele>603.0</ele><time>2026-04-04T09:35:15Z</time></trkpt><trkpt lat="45.759815250245" lon="9.882647402571601"><ele>602.0</ele><time>2026-04-04T09:35:18Z</time></trkpt><trkpt lat="45.75987825546789" lon="9.882738275704865"><ele>601.0</ele><time>2026-04-04T09:35:21Z</time></trkpt><trkpt lat="45.759936620624764" lon="9.882832117738898"><ele>600.0</ele><time>2026-04-04T09:35:24Z</time></trkpt><trkpt lat="45.75998876104121" lon="9.8829281607669"><ele>599.0</ele><time>2026-04-04T09:35:27Z</time></trkpt><trkpt lat="45.76002713469147" lon="9.883039399755823"><ele>598.0</ele><time>2026-04-04T09:35:29.999Z</time></trkpt><trkpt lat="45.76004275298131" lon="9.883156474776355"><ele>597.0</ele><time>2026-04-04T09:35:32.999Z</time></trkpt><trkpt lat="45.76004167751872" lon="9.883267864843253"><ele>597.0</ele><time>2026-04-04T09:35:35.999Z</time></trkpt><trkpt lat="45.76003607661383" lon="9.883383638194832"><ele>597.0</ele><time>2026-04-04T09:35:38.999Z</time></trkpt><trkpt lat="45.76002454642382" lon="9.883493879124863"><ele>597.0</ele><time>2026-04-04T09:35:41.999Z</time></trkpt><trkpt lat="45.76000230287739" lon="9.883605080254371"><ele>597.0</ele><time>2026-04-04T09:35:44.999Z</time></trkpt><trkpt lat="45.76000649072047" lon="9.88371805734956"><ele>597.0</ele><time>2026-04-04T09:35:47.999Z</time></trkpt><trkpt lat="45.76000092994055" lon="9.883834236486539"><ele>597.0</ele><time>2026-04-04T09:35:50.999Z</time></trkpt><trkpt lat="45.760005987631295" lon="9.883960785507227"><ele>596.8333333333334</ele><time>2026-04-04T09:35:53.999Z</time></trkpt><trkpt lat="45.760007328448395" lon="9.884081111323269"><ele>596.6666666666666</ele><time>2026-04-04T09:35:56.999Z</time></trkpt><trkpt lat="45.76002261180097" lon="9.884204319250555"><ele>596.5</ele><time>2026-04-04T09:35:59.999Z</time></trkpt><trkpt lat="45.76007843624567" lon="9.884307060909347"><ele>596.3333333333333</ele><time>2026-04-04T09:36:02.999Z</time></trkpt><trkpt lat="45.76014537349528" lon="9.884320545116479"><ele>596.1666666666666</ele><time>2026-04-04T09:36:04.999Z</time></trkpt><trkpt lat="45.76024613774547" lon="9.88429007869555"><ele>596.0</ele><time>2026-04-04T09:36:07.999Z</time></trkpt><trkpt lat="45.76031568120752" lon="9.884272817511233"><ele>595.8333333333333</ele><time>2026-04-04T09:36:09.999Z</time></trkpt><trkpt lat="45.76039579549883" lon="9.884263784037712"><ele>595.6666666666666</ele><time>2026-04-04T09:36:11.999Z</time></trkpt><trkpt lat="45.76045581982945" lon="9.88416864773462"><ele>595.5</ele><time>2026-04-04T09:36:13.999Z</time></trkpt><trkpt lat="45.76047755554619" lon="9.88404588741463"><ele>595.3333333333334</ele><time>2026-04-04T09:36:15.999Z</time></trkpt><trkpt lat="45.76049907159352" lon="9.88392964351912"><ele>595.1666666666667</ele><time>2026-04-04T09:36:17.999Z</time></trkpt><trkpt lat="45.76050749469459" lon="9.883800092994935"><ele>595.0</ele><time>2026-04-04T09:36:19.999Z</time></trkpt><trkpt lat="45.76052495993831" lon="9.883680630089781"><ele>596.0</ele><time>2026-04-04T09:36:21.998Z</time></trkpt><trkpt lat="45.7605381790106" lon="9.883568955462223"><ele>597.0</ele><time>2026-04-04T09:36:23.998Z</time></trkpt><trkpt lat="45.76058191143497" lon="9.883475749713133"><ele>598.0</ele><time>2026-04-04T09:36:26.001Z</time></trkpt><trkpt lat="45.7606216743044" lon="9.883355610482393"><ele>599.0</ele><time>2026-04-04T09:36:29.001Z</time></trkpt><trkpt lat="45.76066677899967" lon="9.883237903904195"><ele>600.0</ele><time>2026-04-04T09:36:32.001Z</time></trkpt><trkpt lat="45.76069166373325" lon="9.883123554535644"><ele>601.0</ele><time>2026-04-04T09:36:35.001Z</time></trkpt><trkpt lat="45.760708020950155" lon="9.883017054822801"><ele>601.8571428571428</ele><time>2026-04-04T09:36:38Z</time></trkpt><trkpt lat="45.760716760376816" lon="9.882912424762782"><ele>602.7142857142858</ele><time>2026-04-04T09:36:41Z</time></trkpt><trkpt lat="45.760731256638415" lon="9.882819094326862"><ele>603.5714285714286</ele><time>2026-04-04T09:36:44Z</time></trkpt><trkpt lat="45.76074770040001" lon="9.88272201641566"><ele>604.4285714285713</ele><time>2026-04-04T09:36:47Z</time></trkpt><trkpt lat="45.76075795676157" lon="9.882626189391166"><ele>605.2857142857142</ele><time>2026-04-04T09:36:50Z</time></trkpt><trkpt lat="45.76076112437183" lon="9.88252936659361"><ele>606.1428571428571</ele><time>2026-04-04T09:36:53Z</time></trkpt><trkpt lat="45.76077429257286" lon="9.88243580662759"><ele>607.0</ele><time>2026-04-04T09:36:56Z</time></trkpt><trkpt lat="45.760783232548505" lon="9.882344517424785"><ele>608.2857142857142</ele><time>2026-04-04T09:36:59Z</time></trkpt><trkpt lat="45.760799182520024" lon="9.882255837595329"><ele>609.5714285714286</ele><time>2026-04-04T09:37:02Z</time></trkpt><trkpt lat="45.76081466780475" lon="9.88216761771309"><ele>610.8571428571429</ele><time>2026-04-04T09:37:05Z</time></trkpt><trkpt lat="45.760839493398315" lon="9.882084592719565"><ele>612.1428571428571</ele><time>2026-04-04T09:37:08Z</time></trkpt><trkpt lat="45.76085501706096" lon="9.88198898421242"><ele>613.4285714285714</ele><time>2026-04-04T09:37:11Z</time></trkpt><trkpt lat="45.76087437431891" lon="9.881897252546793"><ele>614.7142857142857</ele><time>2026-04-04T09:37:14Z</time></trkpt><trkpt lat="45.7608868758202" lon="9.881775531900141"><ele>616.0</ele><time>2026-04-04T09:37:18Z</time></trkpt><trkpt lat="45.76088841205319" lon="9.881660497282548"><ele>616.7142857142857</ele><time>2026-04-04T09:37:22Z</time></trkpt><trkpt lat="45.76089482020238" lon="9.88156491918691"><ele>617.4285714285714</ele><time>2026-04-04T09:37:25Z</time></trkpt><trkpt lat="45.76090595551052" lon="9.881474829167933"><ele>618.1428571428571</ele><time>2026-04-04T09:37:28Z</time></trkpt><trkpt lat="45.760923936027034" lon="9.881377287875749"><ele>618.8571428571429</ele><time>2026-04-04T09:37:31Z</time></trkpt><trkpt lat="45.7609589143851" lon="9.881285601419743"><ele>619.5714285714286</ele><time>2026-04-04T09:37:33.999Z</time></trkpt><trkpt lat="45.76099840116383" lon="9.881209375019663"><ele>620.2857142857142</ele><time>2026-04-04T09:37:36.999Z</time></trkpt><trkpt lat="45.761041363694794" lon="9.881126365183292"><ele>621.0</ele><time>2026-04-04T09:37:39.999Z</time></trkpt><trkpt lat="45.76106902939665" lon="9.881031701085059"><ele>622.8333333333334</ele><time>2026-04-04T09:37:42.999Z</time></trkpt><trkpt lat="45.761071246548774" lon="9.880921768697057"><ele>624.6666666666666</ele><time>2026-04-04T09:37:45.999Z</time></trkpt><trkpt lat="45.76104964948404" lon="9.880817572034129"><ele>626.5</ele><time>2026-04-04T09:37:48.999Z</time></trkpt><trkpt lat="45.76100861961124" lon="9.880722788849571"><ele>628.3333333333333</ele><time>2026-04-04T09:37:51.999Z</time></trkpt><trkpt lat="45.760960143284166" lon="9.880635675367786"><ele>630.1666666666666</ele><time>2026-04-04T09:37:54.999Z</time></trkpt><trkpt lat="45.76090861776187" lon="9.88054764693087"><ele>632.0</ele><time>2026-04-04T09:37:57.999Z</time></trkpt><trkpt lat="45.760852571273816" lon="9.880476140057144"><ele>632.0</ele><time>2026-04-04T09:38:00.999Z</time></trkpt><trkpt lat="45.76079990876957" lon="9.880401123973668"><ele>632.0</ele><time>2026-04-04T09:38:03.999Z</time></trkpt><trkpt lat="45.760748362472555" lon="9.88031895720174"><ele>632.0</ele><time>2026-04-04T09:38:06.999Z</time></trkpt><trkpt lat="45.760704882490856" lon="9.880233791326921"><ele>632.0</ele><time>2026-04-04T09:38:09.999Z</time></trkpt><trkpt lat="45.76066580647469" lon="9.88013774836455"><ele>632.0</ele><time>2026-04-04T09:38:12.999Z</time></trkpt><trkpt lat="45.760642170045415" lon="9.880031160810043"><ele>632.0</ele><time>2026-04-04T09:38:15.999Z</time></trkpt><trkpt lat="45.76063306839668" lon="9.879922502580468"><ele>633.5</ele><time>2026-04-04T09:38:18.999Z</time></trkpt><trkpt lat="45.76063316784497" lon="9.879808512545553"><ele>635.0</ele><time>2026-04-04T09:38:21.999Z</time></trkpt><trkpt lat="45.76062746903728" lon="9.87969908624703"><ele>636.5</ele><time>2026-04-04T09:38:24.998Z</time></trkpt><trkpt lat="45.760615257605146" lon="9.879593724831143"><ele>638.0</ele><time>2026-04-04T09:38:27.998Z</time></trkpt><trkpt lat="45.760614187210024" lon="9.87948345190706"><ele>639.5</ele><time>2026-04-04T09:38:31Z</time></trkpt><trkpt lat="45.76061477799542" lon="9.879376084215487"><ele>641.0</ele><time>2026-04-04T09:38:34Z</time></trkpt><trkpt lat="45.76060658795092" lon="9.87927008562825"><ele>643.0</ele><time>2026-04-04T09:38:37Z</time></trkpt><trkpt lat="45.7605980472881" lon="9.879159303161874"><ele>645.0</ele><time>2026-04-04T09:38:40Z</time></trkpt><trkpt lat="45.76059442732799" lon="9.87904775341651"><ele>647.0</ele><time>2026-04-04T09:38:43Z</time></trkpt><trkpt lat="45.760573457677516" lon="9.878942983769278"><ele>649.0</ele><time>2026-04-04T09:38:46Z</time></trkpt><trkpt lat="45.76054977709976" lon="9.87883553834131"><ele>651.0</ele><time>2026-04-04T09:38:49Z</time></trkpt><trkpt lat="45.76051813244859" lon="9.878728611436076"><ele>653.0</ele><time>2026-04-04T09:38:52Z</time></trkpt><trkpt lat="45.76047758344578" lon="9.878626562584543"><ele>653.0000000000001</ele><time>2026-04-04T09:38:55Z</time></trkpt><trkpt lat="45.76043898809837" lon="9.87852654596464"><ele>653.0</ele><time>2026-04-04T09:38:58Z</time></trkpt><trkpt lat="45.76042686119445" lon="9.878414158752353"><ele>653.0</ele><time>2026-04-04T09:39:01Z</time></trkpt><trkpt lat="45.760477576213944" lon="9.878340301248985"><ele>653.0</ele><time>2026-04-04T09:39:04Z</time></trkpt><trkpt lat="45.76054633531416" lon="9.878366474069642"><ele>653.0</ele><time>2026-04-04T09:39:07Z</time></trkpt><trkpt lat="45.76057636373073" lon="9.878462608632317"><ele>653.0000000000001</ele><time>2026-04-04T09:39:10Z</time></trkpt><trkpt lat="45.76060578145948" lon="9.878559095458815"><ele>653.0</ele><time>2026-04-04T09:39:13Z</time></trkpt><trkpt lat="45.76063255881976" lon="9.878654911318224"><ele>653.0</ele><time>2026-04-04T09:39:16Z</time></trkpt><trkpt lat="45.760658741980144" lon="9.878761031195069"><ele>653.0</ele><time>2026-04-04T09:39:19Z</time></trkpt><trkpt lat="45.760687636976485" lon="9.87885965231232"><ele>653.0</ele><time>2026-04-04T09:39:22Z</time></trkpt><trkpt lat="45.76071831224239" lon="9.878960423695132"><ele>653.0</ele><time>2026-04-04T09:39:25Z</time></trkpt><trkpt lat="45.760747826746794" lon="9.87906587359074"><ele>653.0</ele><time>2026-04-04T09:39:28Z</time></trkpt><trkpt lat="45.76079572972968" lon="9.879162886746203"><ele>653.0</ele><time>2026-04-04T09:39:31Z</time></trkpt><trkpt lat="45.76084225184681" lon="9.8792602108829"><ele>654.1666666666666</ele><time>2026-04-04T09:39:34Z</time></trkpt><trkpt lat="45.76087857072378" lon="9.87935931730462"><ele>655.3333333333333</ele><time>2026-04-04T09:39:36.999Z</time></trkpt><trkpt lat="45.76091955653297" lon="9.879451009979988"><ele>656.5</ele><time>2026-04-04T09:39:39.999Z</time></trkpt><trkpt lat="45.76096081594774" lon="9.879547868494244"><ele>657.6666666666666</ele><time>2026-04-04T09:39:42.999Z</time></trkpt><trkpt lat="45.76101689579777" lon="9.879633896306364"><ele>658.8333333333334</ele><time>2026-04-04T09:39:45.999Z</time></trkpt><trkpt lat="45.76109573310955" lon="9.879675604989297"><ele>660.0</ele><time>2026-04-04T09:39:48.999Z</time></trkpt><trkpt lat="45.76118029225391" lon="9.8796473903596"><ele>660.0</ele><time>2026-04-04T09:39:51.999Z</time></trkpt><trkpt lat="45.76123445793267" lon="9.879552082620247"><ele>660.0</ele><time>2026-04-04T09:39:54.999Z</time></trkpt><trkpt lat="45.76125098736344" lon="9.879433948199484"><ele>660.0</ele><time>2026-04-04T09:39:57.999Z</time></trkpt><trkpt lat="45.76122044016028" lon="9.879322567997406"><ele>660.0</ele><time>2026-04-04T09:40:00.999Z</time></trkpt><trkpt lat="45.761164632977426" lon="9.87921325392653"><ele>660.0</ele><time>2026-04-04T09:40:03.999Z</time></trkpt><trkpt lat="45.76111374319373" lon="9.879113763424415"><ele>660.0</ele><time>2026-04-04T09:40:06.999Z</time></trkpt><trkpt lat="45.7610590164348" lon="9.879008660315842"><ele>658.8333333333334</ele><time>2026-04-04T09:40:09.999Z</time></trkpt><trkpt lat="45.7610174903251" lon="9.878895101117195"><ele>657.6666666666666</ele><time>2026-04-04T09:40:12.999Z</time></trkpt><trkpt lat="45.76098029550977" lon="9.87877620797505"><ele>656.5</ele><time>2026-04-04T09:40:15.999Z</time></trkpt><trkpt lat="45.76094742921596" lon="9.878656660466891"><ele>655.3333333333333</ele><time>2026-04-04T09:40:18.999Z</time></trkpt><trkpt lat="45.76092348755872" lon="9.878541321535826"><ele>654.1666666666666</ele><time>2026-04-04T09:40:21.999Z</time></trkpt><trkpt lat="45.76090067844582" lon="9.878425899158152"><ele>653.0</ele><time>2026-04-04T09:40:24.999Z</time></trkpt><trkpt lat="45.7608763480417" lon="9.878304986810935"><ele>655.3333333333333</ele><time>2026-04-04T09:40:27.998Z</time></trkpt><trkpt lat="45.76084870490369" lon="9.878190407700936"><ele>657.6666666666666</ele><time>2026-04-04T09:40:30.998Z</time></trkpt><trkpt lat="45.760830339164464" lon="9.878075071596967"><ele>660.0</ele><time>2026-04-04T09:40:33.998Z</time></trkpt><trkpt lat="45.76080960806431" lon="9.877980701185251"><ele>662.3333333333334</ele><time>2026-04-04T09:40:37Z</time></trkpt><trkpt lat="45.7607980812901" lon="9.877867953281223"><ele>664.6666666666667</ele><time>2026-04-04T09:40:40Z</time></trkpt><trkpt lat="45.76078991476928" lon="9.877763627316492"><ele>667.0</ele><time>2026-04-04T09:40:43Z</time></trkpt><trkpt lat="45.76079012786677" lon="9.877666742681777"><ele>670.0</ele><time>2026-04-04T09:40:46Z</time></trkpt><trkpt lat="45.760779993289006" lon="9.877569415305235"><ele>673.0</ele><time>2026-04-04T09:40:49Z</time></trkpt><trkpt lat="45.76077512428609" lon="9.877454372394634"><ele>676.0</ele><time>2026-04-04T09:40:52Z</time></trkpt><trkpt lat="45.76075074450927" lon="9.87734137707052"><ele>679.0</ele><time>2026-04-04T09:40:55Z</time></trkpt><trkpt lat="45.76074051501098" lon="9.877236100144813"><ele>682.0</ele><time>2026-04-04T09:40:58Z</time></trkpt><trkpt lat="45.76072259108254" lon="9.877147843624448"><ele>685.0</ele><time>2026-04-04T09:41:00Z</time></trkpt><trkpt lat="45.76070730469443" lon="9.877030308771344"><ele>685.0</ele><time>2026-04-04T09:41:03Z</time></trkpt><trkpt lat="45.76069313861843" lon="9.876916002695676"><ele>685.0</ele><time>2026-04-04T09:41:06Z</time></trkpt><trkpt lat="45.76067475623641" lon="9.876817161245015"><ele>685.0</ele><time>2026-04-04T09:41:09Z</time></trkpt><trkpt lat="45.76063706165091" lon="9.876744654566995"><ele>685.0</ele><time>2026-04-04T09:41:11Z</time></trkpt><trkpt lat="45.76056960681148" lon="9.876672614364699"><ele>685.0</ele><time>2026-04-04T09:41:14Z</time></trkpt><trkpt lat="45.76049963052058" lon="9.876618125867898"><ele>685.0</ele><time>2026-04-04T09:41:17Z</time></trkpt><trkpt lat="45.76042105950837" lon="9.876570051258552"><ele>684.1428571428571</ele><time>2026-04-04T09:41:20Z</time></trkpt><trkpt lat="45.76035227943319" lon="9.876521572752425"><ele>683.2857142857143</ele><time>2026-04-04T09:41:23Z</time></trkpt><trkpt lat="45.760293352191546" lon="9.876453625339447"><ele>682.4285714285714</ele><time>2026-04-04T09:41:26Z</time></trkpt><trkpt lat="45.760240893135546" lon="9.87637975244817"><ele>681.5714285714286</ele><time>2026-04-04T09:41:29Z</time></trkpt><trkpt lat="45.7601815312576" lon="9.876327902882512"><ele>680.7142857142858</ele><time>2026-04-04T09:41:32Z</time></trkpt><trkpt lat="45.76011573166152" lon="9.876275495827855"><ele>679.8571428571429</ele><time>2026-04-04T09:41:35Z</time></trkpt><trkpt lat="45.76005065742645" lon="9.876236627318324"><ele>679.0</ele><time>2026-04-04T09:41:38Z</time></trkpt><trkpt lat="45.759977847062416" lon="9.876225447970288"><ele>679.0</ele><time>2026-04-04T09:41:40.999Z</time></trkpt><trkpt lat="45.759902257869776" lon="9.876173670521329"><ele>679.0</ele><time>2026-04-04T09:41:43.999Z</time></trkpt><trkpt lat="45.75982709139041" lon="9.876117016070237"><ele>679.0</ele><time>2026-04-04T09:41:46.999Z</time></trkpt><trkpt lat="45.759759752653146" lon="9.876050418001787"><ele>679.0</ele><time>2026-04-04T09:41:49.999Z</time></trkpt><trkpt lat="45.75969028770807" lon="9.875986903245954"><ele>679.0</ele><time>2026-04-04T09:41:52.999Z</time></trkpt><trkpt lat="45.75962128458854" lon="9.875925690904666"><ele>679.0</ele><time>2026-04-04T09:41:55.999Z</time></trkpt><trkpt lat="45.75954978292211" lon="9.875871230235965"><ele>681.0</ele><time>2026-04-04T09:41:58.999Z</time></trkpt><trkpt lat="45.75946270630886" lon="9.875869839686438"><ele>683.0</ele><time>2026-04-04T09:42:01.999Z</time></trkpt><trkpt lat="45.75938000539827" lon="9.875906541535958"><ele>685.0</ele><time>2026-04-04T09:42:04.999Z</time></trkpt><trkpt lat="45.75929401522611" lon="9.875936244725589"><ele>687.0</ele><time>2026-04-04T09:42:07.999Z</time></trkpt><trkpt lat="45.75922817627727" lon="9.875931243550284"><ele>689.0</ele><time>2026-04-04T09:42:09.999Z</time></trkpt><trkpt lat="45.75918920339481" lon="9.875823245558514"><ele>691.0</ele><time>2026-04-04T09:42:12.999Z</time></trkpt><trkpt lat="45.75923143499672" lon="9.875734072745251"><ele>691.0</ele><time>2026-04-04T09:42:15.999Z</time></trkpt><trkpt lat="45.75930227373091" lon="9.87575542615674"><ele>691.0</ele><time>2026-04-04T09:42:18.999Z</time></trkpt><trkpt lat="45.7593742046365" lon="9.875777915079606"><ele>691.0</ele><time>2026-04-04T09:42:21.999Z</time></trkpt><trkpt lat="45.759453022604454" lon="9.875803916443541"><ele>691.0</ele><time>2026-04-04T09:42:24.999Z</time></trkpt><trkpt lat="45.75952912628497" lon="9.875827536937113"><ele>691.0</ele><time>2026-04-04T09:42:27.999Z</time></trkpt><trkpt lat="45.75960886587646" lon="9.875852567031163"><ele>691.0</ele><time>2026-04-04T09:42:30.999Z</time></trkpt><trkpt lat="45.75968584301447" lon="9.875894603068907"><ele>689.0</ele><time>2026-04-04T09:42:33.998Z</time></trkpt><trkpt lat="45.759766971187304" lon="9.875938192736253"><ele>687.0</ele><time>2026-04-04T09:42:36.998Z</time></trkpt><trkpt lat="45.75984554836831" lon="9.875979375395092"><ele>685.0</ele><time>2026-04-04T09:42:39.998Z</time></trkpt><trkpt lat="45.759922231692855" lon="9.876026089460602"><ele>683.0</ele><time>2026-04-04T09:42:43Z</time></trkpt><trkpt lat="45.75998588839258" lon="9.8760628060351"><ele>681.0</ele><time>2026-04-04T09:42:46Z</time></trkpt><trkpt lat="45.76004966946209" lon="9.87609083435492"><ele>679.0</ele><time>2026-04-04T09:42:49Z</time></trkpt><trkpt lat="45.76011502882394" lon="9.876129586135821"><ele>679.0</ele><time>2026-04-04T09:42:52Z</time></trkpt><trkpt lat="45.760184392706556" lon="9.876167499221625"><ele>679.0</ele><time>2026-04-04T09:42:55Z</time></trkpt><trkpt lat="45.760261868941946" lon="9.876204716215417"><ele>679.0</ele><time>2026-04-04T09:42:57Z</time></trkpt><trkpt lat="45.76034309080959" lon="9.87623597093005"><ele>679.0</ele><time>2026-04-04T09:43:00Z</time></trkpt><trkpt lat="45.76042454188934" lon="9.876260158510211"><ele>679.0</ele><time>2026-04-04T09:43:03Z</time></trkpt><trkpt lat="45.760506451339815" lon="9.87624467645472"><ele>679.0</ele><time>2026-04-04T09:43:06Z</time></trkpt><trkpt lat="45.76056550950941" lon="9.876148835486175"><ele>682.8333333333334</ele><time>2026-04-04T09:43:09Z</time></trkpt><trkpt lat="45.76056038488325" lon="9.876052451705476"><ele>686.6666666666667</ele><time>2026-04-04T09:43:11Z</time></trkpt><trkpt lat="45.76050529005168" lon="9.87595988380733"><ele>690.5</ele><time>2026-04-04T09:43:14Z</time></trkpt><trkpt lat="45.760423736852765" lon="9.875937309234587"><ele>694.3333333333334</ele><time>2026-04-04T09:43:18Z</time></trkpt><trkpt lat="45.76033910969045" lon="9.875926695603855"><ele>698.1666666666666</ele><time>2026-04-04T09:43:21Z</time></trkpt><trkpt lat="45.760263827444916" lon="9.875931418058151"><ele>702.0</ele><time>2026-04-04T09:43:24Z</time></trkpt><trkpt lat="45.760204351162436" lon="9.875890536850429"><ele>703.0</ele><time>2026-04-04T09:43:26Z</time></trkpt><trkpt lat="45.76013383226177" lon="9.875821961540613"><ele>704.0</ele><time>2026-04-04T09:43:29Z</time></trkpt><trkpt lat="45.76006739546513" lon="9.875758316702107"><ele>705.0</ele><time>2026-04-04T09:43:32Z</time></trkpt><trkpt lat="45.760005313177366" lon="9.875685334459751"><ele>706.0</ele><time>2026-04-04T09:43:35Z</time></trkpt><trkpt lat="45.759932320690204" lon="9.875632448980568"><ele>707.0</ele><time>2026-04-04T09:43:38Z</time></trkpt><trkpt lat="45.75986994294112" lon="9.875563762630682"><ele>708.0</ele><time>2026-04-04T09:43:41Z</time></trkpt><trkpt lat="45.75981126587824" lon="9.87548780615497"><ele>708.0</ele><time>2026-04-04T09:43:43.999Z</time></trkpt><trkpt lat="45.759742184297856" lon="9.875430156296717"><ele>708.0</ele><time>2026-04-04T09:43:46.999Z</time></trkpt><trkpt lat="45.75967561120621" lon="9.87536175864736"><ele>708.0</ele><time>2026-04-04T09:43:49.999Z</time></trkpt><trkpt lat="45.75961812003305" lon="9.875294213984798"><ele>708.0</ele><time>2026-04-04T09:43:52.999Z</time></trkpt><trkpt lat="45.75955199573881" lon="9.87522557845278"><ele>708.0</ele><time>2026-04-04T09:43:55.999Z</time></trkpt><trkpt lat="45.75948534895976" lon="9.875163551235826"><ele>708.0</ele><time>2026-04-04T09:43:58.999Z</time></trkpt><trkpt lat="45.75941063127735" lon="9.875118627353226"><ele>711.3333333333334</ele><time>2026-04-04T09:44:01.999Z</time></trkpt><trkpt lat="45.759337006724955" lon="9.875096859061525"><ele>714.6666666666666</ele><time>2026-04-04T09:44:04.999Z</time></trkpt><trkpt lat="45.75926752197331" lon="9.875069619040035"><ele>718.0</ele><time>2026-04-04T09:44:07.999Z</time></trkpt><trkpt lat="45.75919287457345" lon="9.875031217138952"><ele>721.3333333333333</ele><time>2026-04-04T09:44:10.999Z</time></trkpt><trkpt lat="45.75913165027128" lon="9.874982078680453"><ele>724.6666666666666</ele><time>2026-04-04T09:44:13.999Z</time></trkpt><trkpt lat="45.759058585349464" lon="9.874918585281783"><ele>728.0</ele><time>2026-04-04T09:44:16.999Z</time></trkpt><trkpt lat="45.75900590393743" lon="9.874852199332766"><ele>728.0</ele><time>2026-04-04T09:44:19.999Z</time></trkpt><trkpt lat="45.75893750131793" lon="9.87478419272781"><ele>728.0</ele><time>2026-04-04T09:44:22.999Z</time></trkpt><trkpt lat="45.75888013113283" lon="9.874722940159508"><ele>728.0</ele><time>2026-04-04T09:44:25.999Z</time></trkpt><trkpt lat="45.758825868643044" lon="9.87466067687158"><ele>728.0</ele><time>2026-04-04T09:44:28.999Z</time></trkpt><trkpt lat="45.75876954740904" lon="9.874580002900055"><ele>728.0</ele><time>2026-04-04T09:44:31.999Z</time></trkpt><trkpt lat="45.75870297888031" lon="9.874514577094322"><ele>728.0</ele><time>2026-04-04T09:44:34.999Z</time></trkpt><trkpt lat="45.75863965788179" lon="9.874454051431076"><ele>728.0</ele><time>2026-04-04T09:44:37.998Z</time></trkpt><trkpt lat="45.7585737756348" lon="9.874402346638592"><ele>728.0</ele><time>2026-04-04T09:44:40.998Z</time></trkpt><trkpt lat="45.758519637072894" lon="9.874343982644866"><ele>728.0</ele><time>2026-04-04T09:44:43.998Z</time></trkpt><trkpt lat="45.7584427899467" lon="9.874307564304106"><ele>728.0</ele><time>2026-04-04T09:44:46.998Z</time></trkpt><trkpt lat="45.758374709379616" lon="9.874240288906824"><ele>728.0</ele><time>2026-04-04T09:44:50Z</time></trkpt><trkpt lat="45.758296731222124" lon="9.874183627762477"><ele>728.0</ele><time>2026-04-04T09:44:53Z</time></trkpt><trkpt lat="45.75821847505747" lon="9.87412977849367"><ele>729.3333333333333</ele><time>2026-04-04T09:44:56Z</time></trkpt><trkpt lat="45.75813464024985" lon="9.874080282231116"><ele>730.6666666666666</ele><time>2026-04-04T09:44:59Z</time></trkpt><trkpt lat="45.75807447935595" lon="9.874049611550916"><ele>732.0</ele><time>2026-04-04T09:45:01Z</time></trkpt><trkpt lat="45.75798365936589" lon="9.874006747362278"><ele>733.3333333333334</ele><time>2026-04-04T09:45:04Z</time></trkpt><trkpt lat="45.757896679070505" lon="9.873957396859433"><ele>734.6666666666667</ele><time>2026-04-04T09:45:07Z</time></trkpt><trkpt lat="45.75781069045605" lon="9.873909474618944"><ele>736.0</ele><time>2026-04-04T09:45:10Z</time></trkpt><trkpt lat="45.757727867582254" lon="9.87386642880944"><ele>734.1999999999999</ele><time>2026-04-04T09:45:13Z</time></trkpt><trkpt lat="45.7576412008938" lon="9.873845404584948"><ele>732.4</ele><time>2026-04-04T09:45:16Z</time></trkpt><trkpt lat="45.757546945075624" lon="9.873842338560737"><ele>730.6</ele><time>2026-04-04T09:45:19Z</time></trkpt><trkpt lat="45.757458144505016" lon="9.873872298398755"><ele>728.8</ele><time>2026-04-04T09:45:22Z</time></trkpt><trkpt lat="45.757374183035786" lon="9.873927326559038"><ele>727.0</ele><time>2026-04-04T09:45:25Z</time></trkpt><trkpt lat="45.75729133635647" lon="9.873976979995895"><ele>727.0</ele><time>2026-04-04T09:45:28Z</time></trkpt><trkpt lat="45.75721245381528" lon="9.874023618134657"><ele>727.0</ele><time>2026-04-04T09:45:31Z</time></trkpt><trkpt lat="45.75712856408734" lon="9.874048064619029"><ele>727.0</ele><time>2026-04-04T09:45:34Z</time></trkpt><trkpt lat="45.75704748948104" lon="9.874068924755436"><ele>727.0</ele><time>2026-04-04T09:45:37Z</time></trkpt><trkpt lat="45.756968241664126" lon="9.874096286404207"><ele>727.0</ele><time>2026-04-04T09:45:40Z</time></trkpt><trkpt lat="45.75689210689994" lon="9.874113593462376"><ele>727.0</ele><time>2026-04-04T09:45:43Z</time></trkpt><trkpt lat="45.75681431169804" lon="9.874132481530115"><ele>727.8333333333334</ele><time>2026-04-04T09:45:46Z</time></trkpt><trkpt lat="45.756734132395984" lon="9.874151117727179"><ele>728.6666666666667</ele><time>2026-04-04T09:45:48.999Z</time></trkpt><trkpt lat="45.75665430725576" lon="9.874166939095415"><ele>729.5</ele><time>2026-04-04T09:45:51.999Z</time></trkpt><trkpt lat="45.75657553777305" lon="9.874207943784217"><ele>730.3333333333334</ele><time>2026-04-04T09:45:54.999Z</time></trkpt><trkpt lat="45.75649825562327" lon="9.874277047497198"><ele>731.1666666666666</ele><time>2026-04-04T09:45:57.999Z</time></trkpt><trkpt lat="45.756429751425294" lon="9.874354353467846"><ele>732.0</ele><time>2026-04-04T09:46:00.999Z</time></trkpt><trkpt lat="45.7563708784446" lon="9.87444424223268"><ele>732.0</ele><time>2026-04-04T09:46:03.999Z</time></trkpt><trkpt lat="45.75632961432943" lon="9.874549622520412"><ele>732.0</ele><time>2026-04-04T09:46:06.999Z</time></trkpt><trkpt lat="45.75628022692425" lon="9.874647964373253"><ele>732.0</ele><time>2026-04-04T09:46:09.999Z</time></trkpt><trkpt lat="45.75623442839653" lon="9.874742901266274"><ele>732.0</ele><time>2026-04-04T09:46:12.999Z</time></trkpt><trkpt lat="45.75618727216071" lon="9.874826349183328"><ele>732.0</ele><time>2026-04-04T09:46:15.999Z</time></trkpt><trkpt lat="45.75612706315087" lon="9.874879538095398"><ele>732.0</ele><time>2026-04-04T09:46:17.999Z</time></trkpt><trkpt lat="45.75606214193525" lon="9.87495449757512"><ele>733.0</ele><time>2026-04-04T09:46:20.999Z</time></trkpt><trkpt lat="45.75599133991488" lon="9.875019572676903"><ele>734.0</ele><time>2026-04-04T09:46:23.999Z</time></trkpt><trkpt lat="45.75591459866777" lon="9.875091562842709"><ele>735.0</ele><time>2026-04-04T09:46:26.999Z</time></trkpt><trkpt lat="45.755865833086965" lon="9.875150276522454"><ele>736.0</ele><time>2026-04-04T09:46:28.999Z</time></trkpt><trkpt lat="45.755800407817624" lon="9.875212988973693"><ele>737.0</ele><time>2026-04-04T09:46:31.999Z</time></trkpt><trkpt lat="45.75571398581686" lon="9.875253015339116"><ele>738.0</ele><time>2026-04-04T09:46:34.999Z</time></trkpt><trkpt lat="45.75564655692163" lon="9.875222410048412"><ele>738.0</ele><time>2026-04-04T09:46:37.999Z</time></trkpt><trkpt lat="45.755600213154516" lon="9.875158591474815"><ele>738.0</ele><time>2026-04-04T09:46:40.998Z</time></trkpt><trkpt lat="45.75556319278086" lon="9.875066199651936"><ele>738.0</ele><time>2026-04-04T09:46:43.998Z</time></trkpt><trkpt lat="45.755527395132106" lon="9.874971757378377"><ele>738.0</ele><time>2026-04-04T09:46:45.998Z</time></trkpt><trkpt lat="45.75549166788059" lon="9.874876457927801"><ele>738.0</ele><time>2026-04-04T09:46:48.998Z</time></trkpt><trkpt lat="45.75545039673268" lon="9.874776269338184"><ele>738.0</ele><time>2026-04-04T09:46:51.998Z</time></trkpt><trkpt lat="45.75540212277765" lon="9.87467924476291"><ele>738.5</ele><time>2026-04-04T09:46:55Z</time></trkpt><trkpt lat="45.755346440718" lon="9.874585175032822"><ele>739.0</ele><time>2026-04-04T09:46:58Z</time></trkpt><trkpt lat="45.75529014441309" lon="9.87448183903756"><ele>739.5</ele><time>2026-04-04T09:47:01Z</time></trkpt><trkpt lat="45.755242909763794" lon="9.87441998689353"><ele>740.0</ele><time>2026-04-04T09:47:03Z</time></trkpt><trkpt lat="45.75518088885524" lon="9.87431691058116"><ele>740.5</ele><time>2026-04-04T09:47:06Z</time></trkpt><trkpt lat="45.755133629669096" lon="9.874251521246803"><ele>741.0</ele><time>2026-04-04T09:47:08Z</time></trkpt><trkpt lat="45.75508253119482" lon="9.874187135047224"><ele>743.4285714285714</ele><time>2026-04-04T09:47:10Z</time></trkpt><trkpt lat="45.755037429060216" lon="9.8741113287972"><ele>745.8571428571429</ele><time>2026-04-04T09:47:12Z</time></trkpt><trkpt lat="45.75498382626403" lon="9.874044507358638"><ele>748.2857142857143</ele><time>2026-04-04T09:47:14Z</time></trkpt><trkpt lat="45.75491951731121" lon="9.873995798003165"><ele>750.7142857142858</ele><time>2026-04-04T09:47:16Z</time></trkpt><trkpt lat="45.75485079625705" lon="9.87396127895351"><ele>753.1428571428571</ele><time>2026-04-04T09:47:18Z</time></trkpt><trkpt lat="45.754773432612936" lon="9.873948491749042"><ele>755.5714285714287</ele><time>2026-04-04T09:47:20Z</time></trkpt><trkpt lat="45.754698386421715" lon="9.873949270966026"><ele>758.0</ele><time>2026-04-04T09:47:22Z</time></trkpt><trkpt lat="45.754621283663944" lon="9.873964387814933"><ele>758.0</ele><time>2026-04-04T09:47:24Z</time></trkpt><trkpt lat="45.75454504790576" lon="9.873975248337063"><ele>758.0</ele><time>2026-04-04T09:47:26Z</time></trkpt><trkpt lat="45.75446603515329" lon="9.873990412281536"><ele>758.0</ele><time>2026-04-04T09:47:28Z</time></trkpt><trkpt lat="45.75438661158371" lon="9.87401611321124"><ele>758.0</ele><time>2026-04-04T09:47:30Z</time></trkpt><trkpt lat="45.75431189634356" lon="9.874036315254079"><ele>758.0</ele><time>2026-04-04T09:47:32Z</time></trkpt><trkpt lat="45.75423515602929" lon="9.874041189789917"><ele>758.0</ele><time>2026-04-04T09:47:34Z</time></trkpt><trkpt lat="45.75415983202787" lon="9.874025056975913"><ele>757.7142857142858</ele><time>2026-04-04T09:47:36Z</time></trkpt><trkpt lat="45.754086801620964" lon="9.874014212823676"><ele>757.4285714285714</ele><time>2026-04-04T09:47:38Z</time></trkpt><trkpt lat="45.75401646271668" lon="9.873993093947593"><ele>757.1428571428571</ele><time>2026-04-04T09:47:40Z</time></trkpt><trkpt lat="45.75392521325692" lon="9.87397594515117"><ele>756.8571428571429</ele><time>2026-04-04T09:47:43Z</time></trkpt><trkpt lat="45.753856561368956" lon="9.87395620288391"><ele>756.5714285714286</ele><time>2026-04-04T09:47:45Z</time></trkpt><trkpt lat="45.75379346107252" lon="9.873933757218706"><ele>756.2857142857143</ele><time>2026-04-04T09:47:47Z</time></trkpt><trkpt lat="45.7537254314198" lon="9.873914326818232"><ele>756.0</ele><time>2026-04-04T09:47:49Z</time></trkpt><trkpt lat="45.75364134651618" lon="9.873872589961259"><ele>756.0</ele><time>2026-04-04T09:47:51.999Z</time></trkpt><trkpt lat="45.753554260497694" lon="9.873876363362072"><ele>756.0</ele><time>2026-04-04T09:47:54.999Z</time></trkpt><trkpt lat="45.75348490834323" lon="9.87386341205849"><ele>756.0</ele><time>2026-04-04T09:47:59.999Z</time></trkpt><trkpt lat="45.75341262821982" lon="9.873849438389541"><ele>756.0</ele><time>2026-04-04T09:51:45Z</time></trkpt><trkpt lat="45.753336751651666" lon="9.873871777313257"><ele>756.0</ele><time>2026-04-04T09:51:49Z</time></trkpt><trkpt lat="45.75339728743321" lon="9.873841097681069"><ele>756.0</ele><time>2026-04-04T09:57:42Z</time></trkpt><trkpt lat="45.753459175097625" lon="9.873806354251418"><ele>756.0</ele><time>2026-04-04T09:57:45Z</time></trkpt><trkpt lat="45.75352074642639" lon="9.873747522993252"><ele>756.0</ele><time>2026-04-04T09:57:48Z</time></trkpt><trkpt lat="45.75358458984031" lon="9.873687360966105"><ele>756.0</ele><time>2026-04-04T09:57:51Z</time></trkpt><trkpt lat="45.75365001149946" lon="9.873638223602676"><ele>756.0</ele><time>2026-04-04T09:57:54Z</time></trkpt><trkpt lat="45.75371030690639" lon="9.873593098941232"><ele>756.0</ele><time>2026-04-04T09:57:57Z</time></trkpt><trkpt lat="45.753778998651185" lon="9.873524083731475"><ele>756.0</ele><time>2026-04-04T09:58:00Z</time></trkpt><trkpt lat="45.753850009596896" lon="9.873479904053756"><ele>756.0</ele><time>2026-04-04T09:58:03Z</time></trkpt><trkpt lat="45.753917459229186" lon="9.873398302537977"><ele>758.6666666666666</ele><time>2026-04-04T09:58:06Z</time></trkpt><trkpt lat="45.753978603061604" lon="9.873322234558046"><ele>761.3333333333333</ele><time>2026-04-04T09:58:09Z</time></trkpt><trkpt lat="45.75402774668376" lon="9.873238110174194"><ele>764.0</ele><time>2026-04-04T09:58:11.999Z</time></trkpt><trkpt lat="45.7540696366684" lon="9.873136058454657"><ele>766.6666666666666</ele><time>2026-04-04T09:58:15.999Z</time></trkpt><trkpt lat="45.75409471017069" lon="9.873044703951718"><ele>769.3333333333333</ele><time>2026-04-04T09:58:18.999Z</time></trkpt><trkpt lat="45.75411816959547" lon="9.87294216357923"><ele>772.0</ele><time>2026-04-04T09:58:22.999Z</time></trkpt><trkpt lat="45.754144497959274" lon="9.872852132710317"><ele>771.9999999999999</ele><time>2026-04-04T09:58:25.999Z</time></trkpt><trkpt lat="45.7541816798348" lon="9.87274977609357"><ele>772.0</ele><time>2026-04-04T09:58:29.999Z</time></trkpt><trkpt lat="45.75422873869249" lon="9.872652971809122"><ele>772.0</ele><time>2026-04-04T09:58:33.999Z</time></trkpt><trkpt lat="45.75426397348762" lon="9.872558186214345"><ele>772.0</ele><time>2026-04-04T09:58:37.999Z</time></trkpt><trkpt lat="45.7542953963484" lon="9.87246340407032"><ele>771.9999999999999</ele><time>2026-04-04T09:58:41.999Z</time></trkpt><trkpt lat="45.754324875204794" lon="9.872377004864964"><ele>772.0</ele><time>2026-04-04T09:58:45.999Z</time></trkpt><trkpt lat="45.754360994606934" lon="9.87227168139839"><ele>776.1428571428572</ele><time>2026-04-04T09:58:50.999Z</time></trkpt><trkpt lat="45.75437669203826" lon="9.872163826760724"><ele>780.2857142857143</ele><time>2026-04-04T09:58:54.999Z</time></trkpt><trkpt lat="45.7543964265436" lon="9.872060087011308"><ele>784.4285714285714</ele><time>2026-04-04T09:58:59.999Z</time></trkpt><trkpt lat="45.75443861757098" lon="9.871962568963786"><ele>788.5714285714287</ele><time>2026-04-04T09:59:03.998Z</time></trkpt><trkpt lat="45.75448050857268" lon="9.871880717658822"><ele>792.7142857142857</ele><time>2026-04-04T09:59:07.998Z</time></trkpt><trkpt lat="45.754525988453985" lon="9.871798164342554"><ele>796.8571428571429</ele><time>2026-04-04T09:59:11.998Z</time></trkpt><trkpt lat="45.754571096542364" lon="9.871726231759435"><ele>801.0</ele><time>2026-04-04T09:59:15.998Z</time></trkpt><trkpt lat="45.754626988131925" lon="9.871672371150035"><ele>801.0</ele><time>2026-04-04T09:59:19.998Z</time></trkpt><trkpt lat="45.75468391129184" lon="9.871618328747305"><ele>801.0</ele><time>2026-04-04T09:59:23.998Z</time></trkpt><trkpt lat="45.75474360737187" lon="9.871569782242126"><ele>801.0</ele><time>2026-04-04T09:59:27.998Z</time></trkpt><trkpt lat="45.75480436714148" lon="9.871528625084517"><ele>801.0</ele><time>2026-04-04T09:59:32Z</time></trkpt><trkpt lat="45.75486514107326" lon="9.871500866069615"><ele>801.0</ele><time>2026-04-04T09:59:35Z</time></trkpt><trkpt lat="45.754922953565824" lon="9.871463766572566"><ele>801.0</ele><time>2026-04-04T09:59:38Z</time></trkpt><trkpt lat="45.7549962243324" lon="9.871422097633008"><ele>801.0</ele><time>2026-04-04T09:59:42Z</time></trkpt><trkpt lat="45.755058784104214" lon="9.871406662642459"><ele>803.5</ele><time>2026-04-04T09:59:45Z</time></trkpt><trkpt lat="45.755223907907094" lon="9.87139975372405"><ele>806.0</ele><time>2026-04-04T09:59:54Z</time></trkpt><trkpt lat="45.75529358977345" lon="9.87139373396349"><ele>808.5</ele><time>2026-04-04T09:59:57Z</time></trkpt><trkpt lat="45.7554655049314" lon="9.871389613955392"><ele>811.0</ele><time>2026-04-04T10:00:04Z</time></trkpt><trkpt lat="45.7555272803626" lon="9.871370123735197"><ele>810.9999999999999</ele><time>2026-04-04T10:00:06Z</time></trkpt><trkpt lat="45.75559328982813" lon="9.871326869031458"><ele>811.0</ele><time>2026-04-04T10:00:08Z</time></trkpt><trkpt lat="45.755654843560364" lon="9.871248200778794"><ele>811.0</ele><time>2026-04-04T10:00:11Z</time></trkpt><trkpt lat="45.755704513749485" lon="9.871148751460867"><ele>811.0</ele><time>2026-04-04T10:00:14Z</time></trkpt><trkpt lat="45.75575581144971" lon="9.871034194528027"><ele>810.9999999999999</ele><time>2026-04-04T10:00:15.999Z</time></trkpt><trkpt lat="45.75581388411642" lon="9.870936525465138"><ele>811.0</ele><time>2026-04-04T10:00:18.999Z</time></trkpt><trkpt lat="45.755858397033116" lon="9.870871338545754"><ele>808.6666666666666</ele><time>2026-04-04T10:00:20.999Z</time></trkpt><trkpt lat="45.75592718250276" lon="9.87083791664811"><ele>806.3333333333333</ele><time>2026-04-04T10:00:23.999Z</time></trkpt><trkpt lat="45.75602552854744" lon="9.870846386767813"><ele>804.0</ele><time>2026-04-04T10:00:26.999Z</time></trkpt><trkpt lat="45.75609377876594" lon="9.870875810250242"><ele>801.6666666666667</ele><time>2026-04-04T10:00:27.999Z</time></trkpt><trkpt lat="45.756168023003" lon="9.87092070353763"><ele>799.3333333333334</ele><time>2026-04-04T10:00:29.999Z</time></trkpt><trkpt lat="45.75625691199456" lon="9.87103934407055"><ele>797.0</ele><time>2026-04-04T10:00:31.999Z</time></trkpt><trkpt lat="45.756369489909744" lon="9.871151824837328"><ele>797.0000000000001</ele><time>2026-04-04T10:00:33.999Z</time></trkpt><trkpt lat="45.756427219915835" lon="9.871212237323702"><ele>797.0</ele><time>2026-04-04T10:00:34.999Z</time></trkpt><trkpt lat="45.75647491187695" lon="9.871293844514247"><ele>797.0</ele><time>2026-04-04T10:00:35.999Z</time></trkpt><trkpt lat="45.756529958079994" lon="9.871390186603193"><ele>797.0</ele><time>2026-04-04T10:00:36.999Z</time></trkpt><trkpt lat="45.756584297201165" lon="9.87146960992325"><ele>797.0000000000001</ele><time>2026-04-04T10:00:37.999Z</time></trkpt><trkpt lat="45.75664729412292" lon="9.871549286754332"><ele>797.0</ele><time>2026-04-04T10:00:38.999Z</time></trkpt><trkpt lat="45.75671391842218" lon="9.871628141264654"><ele>797.0</ele><time>2026-04-04T10:00:39.999Z</time></trkpt><trkpt lat="45.756794100663214" lon="9.87169586006623"><ele>797.0</ele><time>2026-04-04T10:00:40.999Z</time></trkpt><trkpt lat="45.756882851300844" lon="9.871746221858198"><ele>797.0</ele><time>2026-04-04T10:00:41.999Z</time></trkpt><trkpt lat="45.756975744282464" lon="9.871752208391609"><ele>797.0</ele><time>2026-04-04T10:00:42.999Z</time></trkpt><trkpt lat="45.75706152035785" lon="9.87174388545444"><ele>797.0</ele><time>2026-04-04T10:00:43.999Z</time></trkpt><trkpt lat="45.75714454629792" lon="9.871717904957121"><ele>795.4000000000001</ele><time>2026-04-04T10:00:44.999Z</time></trkpt><trkpt lat="45.75727869824015" lon="9.871693890840456"><ele>793.8000000000001</ele><time>2026-04-04T10:00:46.999Z</time></trkpt><trkpt lat="45.75737760715523" lon="9.871683352070239"><ele>792.2</ele><time>2026-04-04T10:00:48.999Z</time></trkpt><trkpt lat="45.757444681201285" lon="9.871674525619387"><ele>790.6</ele><time>2026-04-04T10:00:50.999Z</time></trkpt><trkpt lat="45.75752718794168" lon="9.871664663103585"><ele>789.0</ele><time>2026-04-04T10:00:53.999Z</time></trkpt><trkpt lat="45.75759804149777" lon="9.871653867686241"><ele>789.0</ele><time>2026-04-04T10:00:56.999Z</time></trkpt><trkpt lat="45.75766443951534" lon="9.87162852462783"><ele>789.0</ele><time>2026-04-04T10:00:59.999Z</time></trkpt><trkpt lat="45.757739078130285" lon="9.871585636453837"><ele>789.0</ele><time>2026-04-04T10:01:03.999Z</time></trkpt><trkpt lat="45.75781614275518" lon="9.871553944191376"><ele>789.0</ele><time>2026-04-04T10:01:07.998Z</time></trkpt><trkpt lat="45.75788638815966" lon="9.87152967521162"><ele>789.0</ele><time>2026-04-04T10:01:11.998Z</time></trkpt><trkpt lat="45.757961711900094" lon="9.871541320624802"><ele>789.0</ele><time>2026-04-04T10:01:15.998Z</time></trkpt><trkpt lat="45.75803286398603" lon="9.87159094441864"><ele>790.3333333333334</ele><time>2026-04-04T10:01:19.998Z</time></trkpt><trkpt lat="45.758093703787516" lon="9.871633910612124"><ele>791.6666666666667</ele><time>2026-04-04T10:01:23.998Z</time></trkpt><trkpt lat="45.75816662387405" lon="9.871677562270534"><ele>793.0</ele><time>2026-04-04T10:01:27.998Z</time></trkpt><trkpt lat="45.758240175000445" lon="9.871707750288916"><ele>794.3333333333334</ele><time>2026-04-04T10:01:31.998Z</time></trkpt><trkpt lat="45.75831427002879" lon="9.871723322130746"><ele>795.6666666666667</ele><time>2026-04-04T10:01:36Z</time></trkpt><trkpt lat="45.758389197492306" lon="9.871735730151942"><ele>797.0</ele><time>2026-04-04T10:01:40Z</time></trkpt><trkpt lat="45.75846455125231" lon="9.871748691320441"><ele>801.6666666666667</ele><time>2026-04-04T10:01:44Z</time></trkpt><trkpt lat="45.758541591555364" lon="9.871753635444124"><ele>806.3333333333334</ele><time>2026-04-04T10:01:48Z</time></trkpt><trkpt lat="45.75861773254221" lon="9.871718758198961"><ele>811.0</ele><time>2026-04-04T10:01:52Z</time></trkpt><trkpt lat="45.758695740474835" lon="9.871663470578302"><ele>815.6666666666667</ele><time>2026-04-04T10:01:56Z</time></trkpt><trkpt lat="45.75875226099767" lon="9.871583442810874"><ele>820.3333333333334</ele><time>2026-04-04T10:01:58Z</time></trkpt><trkpt lat="45.75878112475101" lon="9.87149455542483"><ele>825.0</ele><time>2026-04-04T10:02:00Z</time></trkpt><trkpt lat="45.758796838188374" lon="9.871391787835975"><ele>825.0</ele><time>2026-04-04T10:02:02Z</time></trkpt><trkpt lat="45.75881524290828" lon="9.8712345085994"><ele>825.0</ele><time>2026-04-04T10:02:04Z</time></trkpt><trkpt lat="45.758851951141075" lon="9.871077868900164"><ele>825.0</ele><time>2026-04-04T10:02:06Z</time></trkpt><trkpt lat="45.75884975651117" lon="9.87097505873446"><ele>825.0</ele><time>2026-04-04T10:02:07Z</time></trkpt><trkpt lat="45.758847577043625" lon="9.87087295833968"><ele>825.0</ele><time>2026-04-04T10:02:08Z</time></trkpt><trkpt lat="45.75884865836731" lon="9.870731100716712"><ele>823.8</ele><time>2026-04-04T10:02:09Z</time></trkpt><trkpt lat="45.75885751202776" lon="9.870595032269165"><ele>822.6</ele><time>2026-04-04T10:02:10Z</time></trkpt><trkpt lat="45.75887891299889" lon="9.87046658867934"><ele>821.4000000000001</ele><time>2026-04-04T10:02:11Z</time></trkpt><trkpt lat="45.758908618985046" lon="9.870336305742063"><ele>820.2</ele><time>2026-04-04T10:02:12Z</time></trkpt><trkpt lat="45.75892481465799" lon="9.870201024233"><ele>819.0</ele><time>2026-04-04T10:02:13Z</time></trkpt><trkpt lat="45.758950222798305" lon="9.870091115304396"><ele>815.1666666666666</ele><time>2026-04-04T10:02:14Z</time></trkpt><trkpt lat="45.75897045218518" lon="9.869990786331932"><ele>811.3333333333333</ele><time>2026-04-04T10:02:15Z</time></trkpt><trkpt lat="45.7589975549125" lon="9.869905959806252"><ele>807.5</ele><time>2026-04-04T10:02:16Z</time></trkpt><trkpt lat="45.75900988561829" lon="9.869813476323651"><ele>803.6666666666666</ele><time>2026-04-04T10:02:17Z</time></trkpt><trkpt lat="45.75909696447694" lon="9.869710191917717"><ele>799.8333333333333</ele><time>2026-04-04T10:02:19Z</time></trkpt><trkpt lat="45.75919102549626" lon="9.869742003331275"><ele>796.0</ele><time>2026-04-04T10:02:20.999Z</time></trkpt><trkpt lat="45.759290832464345" lon="9.869762728656854"><ele>796.0</ele><time>2026-04-04T10:02:22.999Z</time></trkpt><trkpt lat="45.759358060966655" lon="9.869806426772113"><ele>796.0</ele><time>2026-04-04T10:02:23.999Z</time></trkpt><trkpt lat="45.75951521695978" lon="9.869884562198255"><ele>796.0</ele><time>2026-04-04T10:02:25.999Z</time></trkpt><trkpt lat="45.75960391612366" lon="9.86968212884587"><ele>796.0</ele><time>2026-04-04T10:02:26.999Z</time></trkpt><trkpt lat="45.7596086426318" lon="9.86955195711504"><ele>798.8</ele><time>2026-04-04T10:02:27.999Z</time></trkpt><trkpt lat="45.759587241056295" lon="9.869421898363541"><ele>801.5999999999999</ele><time>2026-04-04T10:02:28.999Z</time></trkpt><trkpt lat="45.759561688837294" lon="9.869306312937342"><ele>804.4</ele><time>2026-04-04T10:02:29.999Z</time></trkpt><trkpt lat="45.75953038825848" lon="9.869126013553306"><ele>807.2</ele><time>2026-04-04T10:02:31.999Z</time></trkpt><trkpt lat="45.759528337984676" lon="9.868941134559712"><ele>810.0</ele><time>2026-04-04T10:02:33.999Z</time></trkpt><trkpt lat="45.759537945866654" lon="9.868842911751951"><ele>810.0</ele><time>2026-04-04T10:02:34.999Z</time></trkpt><trkpt lat="45.7595465148278" lon="9.868752922797743"><ele>810.0</ele><time>2026-04-04T10:02:35.999Z</time></trkpt><trkpt lat="45.759552739899206" lon="9.868559063347766"><ele>810.0</ele><time>2026-04-04T10:02:37.999Z</time></trkpt><trkpt lat="45.75955586605084" lon="9.868447541043786"><ele>810.0</ele><time>2026-04-04T10:02:38.999Z</time></trkpt><trkpt lat="45.75956626969475" lon="9.86833948101615"><ele>810.0</ele><time>2026-04-04T10:02:39.999Z</time></trkpt><trkpt lat="45.75958470592966" lon="9.86824748300776"><ele>810.0</ele><time>2026-04-04T10:02:40.999Z</time></trkpt><trkpt lat="45.75961085811518" lon="9.86814674421101"><ele>807.0</ele><time>2026-04-04T10:02:41.999Z</time></trkpt><trkpt lat="45.75965250860839" lon="9.868062987473058"><ele>804.0</ele><time>2026-04-04T10:02:42.999Z</time></trkpt><trkpt lat="45.75971734787405" lon="9.867993788629454"><ele>801.0</ele><time>2026-04-04T10:02:43.999Z</time></trkpt><trkpt lat="45.7597806195449" lon="9.867947559820713"><ele>798.0</ele><time>2026-04-04T10:02:44.999Z</time></trkpt><trkpt lat="45.75984894972463" lon="9.867910922057863"><ele>795.0</ele><time>2026-04-04T10:02:45.999Z</time></trkpt><trkpt lat="45.75992906985246" lon="9.86790023049185"><ele>792.0</ele><time>2026-04-04T10:02:46.999Z</time></trkpt><trkpt lat="45.76000803751488" lon="9.867891196533632"><ele>792.0</ele><time>2026-04-04T10:02:47.999Z</time></trkpt><trkpt lat="45.76006986049037" lon="9.86785675905347"><ele>792.0</ele><time>2026-04-04T10:02:48.999Z</time></trkpt><trkpt lat="45.76013276603904" lon="9.867811600769446"><ele>792.0</ele><time>2026-04-04T10:02:49.999Z</time></trkpt><trkpt lat="45.760194924056464" lon="9.867758531789924"><ele>792.0</ele><time>2026-04-04T10:02:50.999Z</time></trkpt><trkpt lat="45.760253338810614" lon="9.86768346823503"><ele>792.0</ele><time>2026-04-04T10:02:51.999Z</time></trkpt><trkpt lat="45.760299396345374" lon="9.867602107535367"><ele>792.0</ele><time>2026-04-04T10:02:52.999Z</time></trkpt><trkpt lat="45.760347365421616" lon="9.86752764838726"><ele>792.0</ele><time>2026-04-04T10:02:53.999Z</time></trkpt><trkpt lat="45.76039325432535" lon="9.867453796018495"><ele>793.1428571428572</ele><time>2026-04-04T10:02:54.999Z</time></trkpt><trkpt lat="45.76044148759886" lon="9.867383300418538"><ele>794.2857142857142</ele><time>2026-04-04T10:02:55.999Z</time></trkpt><trkpt lat="45.760483275149966" lon="9.867305554073148"><ele>795.4285714285714</ele><time>2026-04-04T10:02:56.999Z</time></trkpt><trkpt lat="45.76052127112636" lon="9.867227256702016"><ele>796.5714285714287</ele><time>2026-04-04T10:02:57.999Z</time></trkpt><trkpt lat="45.760556473770365" lon="9.86715187902726"><ele>797.7142857142858</ele><time>2026-04-04T10:02:58.999Z</time></trkpt><trkpt lat="45.76058735980635" lon="9.867065273923057"><ele>798.8571428571429</ele><time>2026-04-04T10:02:59.999Z</time></trkpt><trkpt lat="45.760621245344794" lon="9.866986819391899"><ele>800.0</ele><time>2026-04-04T10:03:00.999Z</time></trkpt><trkpt lat="45.76065724301994" lon="9.866906512876849"><ele>800.0000000000001</ele><time>2026-04-04T10:03:01.999Z</time></trkpt><trkpt lat="45.76069655733235" lon="9.866828353303745"><ele>800.0</ele><time>2026-04-04T10:03:02.999Z</time></trkpt><trkpt lat="45.7607396724759" lon="9.866757900731274"><ele>800.0</ele><time>2026-04-04T10:03:03.999Z</time></trkpt><trkpt lat="45.76078213889246" lon="9.866688677500358"><ele>800.0</ele><time>2026-04-04T10:03:04.999Z</time></trkpt><trkpt lat="45.760826817255506" lon="9.866622821776343"><ele>800.0000000000001</ele><time>2026-04-04T10:03:05.999Z</time></trkpt><trkpt lat="45.760919005523476" lon="9.866504511102612"><ele>800.0</ele><time>2026-04-04T10:03:07.999Z</time></trkpt><trkpt lat="45.7610131575038" lon="9.866393068244493"><ele>801.6666666666667</ele><time>2026-04-04T10:03:09.999Z</time></trkpt><trkpt lat="45.76110316042696" lon="9.866286284047698"><ele>803.3333333333334</ele><time>2026-04-04T10:03:11.998Z</time></trkpt><trkpt lat="45.7611540140188" lon="9.866229829466956"><ele>805.0</ele><time>2026-04-04T10:03:12.998Z</time></trkpt><trkpt lat="45.761249678633796" lon="9.866107786254172"><ele>806.6666666666667</ele><time>2026-04-04T10:03:14.998Z</time></trkpt><trkpt lat="45.761301360477255" lon="9.866047828877408"><ele>808.3333333333334</ele><time>2026-04-04T10:03:15.998Z</time></trkpt><trkpt lat="45.76135976731938" lon="9.865989774789568"><ele>810.0</ele><time>2026-04-04T10:03:16.998Z</time></trkpt><trkpt lat="45.76142123029091" lon="9.865925435785739"><ele>804.5</ele><time>2026-04-04T10:03:17.998Z</time></trkpt><trkpt lat="45.76147838362264" lon="9.865850458701123"><ele>799.0</ele><time>2026-04-04T10:03:18.998Z</time></trkpt><trkpt lat="45.761538225525584" lon="9.865767119323202"><ele>793.5</ele><time>2026-04-04T10:03:19.998Z</time></trkpt><trkpt lat="45.76159886110819" lon="9.865678637818979"><ele>788.0</ele><time>2026-04-04T10:03:20.998Z</time></trkpt><trkpt lat="45.76166637745914" lon="9.86558944028771"><ele>782.5</ele><time>2026-04-04T10:03:21.998Z</time></trkpt><trkpt lat="45.76173576346607" lon="9.865496963837455"><ele>777.0</ele><time>2026-04-04T10:03:22.998Z</time></trkpt><trkpt lat="45.761805822324646" lon="9.86539872757219"><ele>776.4000000000001</ele><time>2026-04-04T10:03:23.998Z</time></trkpt><trkpt lat="45.76186666968676" lon="9.865290441761053"><ele>775.8000000000001</ele><time>2026-04-04T10:03:24.998Z</time></trkpt><trkpt lat="45.761920627619034" lon="9.865170539577885"><ele>775.2</ele><time>2026-04-04T10:03:25.998Z</time></trkpt><trkpt lat="45.76197278849484" lon="9.865060328991381"><ele>774.6</ele><time>2026-04-04T10:03:26.998Z</time></trkpt><trkpt lat="45.76203574730274" lon="9.864955982465894"><ele>774.0</ele><time>2026-04-04T10:03:27.998Z</time></trkpt><trkpt lat="45.76210436014676" lon="9.864860052217514"><ele>774.0</ele><time>2026-04-04T10:03:28.998Z</time></trkpt><trkpt lat="45.76217343690487" lon="9.86477243058608"><ele>774.0</ele><time>2026-04-04T10:03:29.998Z</time></trkpt><trkpt lat="45.762239209113304" lon="9.8646878244466"><ele>774.0</ele><time>2026-04-04T10:03:30.998Z</time></trkpt><trkpt lat="45.762319309112954" lon="9.864627028920427"><ele>774.0</ele><time>2026-04-04T10:03:31.998Z</time></trkpt><trkpt lat="45.762398249806665" lon="9.864555115317266"><ele>774.0</ele><time>2026-04-04T10:03:32.998Z</time></trkpt><trkpt lat="45.762470721119094" lon="9.864485204524655"><ele>774.0</ele><time>2026-04-04T10:03:33.998Z</time></trkpt><trkpt lat="45.76253071496379" lon="9.864405720741107"><ele>774.0</ele><time>2026-04-04T10:03:34.998Z</time></trkpt><trkpt lat="45.762571900156274" lon="9.864306256831108"><ele>774.0</ele><time>2026-04-04T10:03:35.998Z</time></trkpt><trkpt lat="45.76259701480014" lon="9.864199414491113"><ele>774.0</ele><time>2026-04-04T10:03:36.998Z</time></trkpt><trkpt lat="45.7625995063382" lon="9.864091121959275"><ele>774.0</ele><time>2026-04-04T10:03:37.998Z</time></trkpt><trkpt lat="45.76257851018425" lon="9.863979036276477"><ele>774.0</ele><time>2026-04-04T10:03:38.998Z</time></trkpt><trkpt lat="45.76254563450392" lon="9.863875128464624"><ele>770.6</ele><time>2026-04-04T10:03:39.998Z</time></trkpt><trkpt lat="45.76251767281323" lon="9.863758504530868"><ele>767.2</ele><time>2026-04-04T10:03:41Z</time></trkpt><trkpt lat="45.76248591439545" lon="9.863640273850292"><ele>763.8000000000001</ele><time>2026-04-04T10:03:42Z</time></trkpt><trkpt lat="45.762452556389604" lon="9.863521310254193"><ele>760.4000000000001</ele><time>2026-04-04T10:03:43Z</time></trkpt><trkpt lat="45.76242563223391" lon="9.86339307468273"><ele>757.0</ele><time>2026-04-04T10:03:44Z</time></trkpt><trkpt lat="45.76239863358409" lon="9.863258112866829"><ele>755.2</ele><time>2026-04-04T10:03:45Z</time></trkpt><trkpt lat="45.76236934985354" lon="9.86312791027774"><ele>753.4000000000001</ele><time>2026-04-04T10:03:46Z</time></trkpt><trkpt lat="45.762337716964154" lon="9.862995735152296"><ele>751.5999999999999</ele><time>2026-04-04T10:03:47Z</time></trkpt><trkpt lat="45.7623056840591" lon="9.862862159122944"><ele>749.8</ele><time>2026-04-04T10:03:48Z</time></trkpt><trkpt lat="45.76227300903351" lon="9.862729830973016"><ele>748.0</ele><time>2026-04-04T10:03:49Z</time></trkpt><trkpt lat="45.76224206845656" lon="9.862604377200453"><ele>746.5</ele><time>2026-04-04T10:03:50Z</time></trkpt><trkpt lat="45.76222390034053" lon="9.862476655862107"><ele>745.0</ele><time>2026-04-04T10:03:51Z</time></trkpt><trkpt lat="45.76219669104064" lon="9.862358856352419"><ele>743.5</ele><time>2026-04-04T10:03:52Z</time></trkpt><trkpt lat="45.76219254457418" lon="9.862237057547345"><ele>742.0</ele><time>2026-04-04T10:03:53Z</time></trkpt><trkpt lat="45.762199684533556" lon="9.862116879165944"><ele>740.5</ele><time>2026-04-04T10:03:54Z</time></trkpt><trkpt lat="45.76220718199138" lon="9.861996405348071"><ele>739.0</ele><time>2026-04-04T10:03:55Z</time></trkpt><trkpt lat="45.76222184024994" lon="9.86186945643848"><ele>738.2</ele><time>2026-04-04T10:03:56Z</time></trkpt><trkpt lat="45.76223974855104" lon="9.861741068689062"><ele>737.4000000000001</ele><time>2026-04-04T10:03:57Z</time></trkpt><trkpt lat="45.76226976063972" lon="9.861613438974462"><ele>736.6</ele><time>2026-04-04T10:03:58Z</time></trkpt><trkpt lat="45.762305325722934" lon="9.861493531751547"><ele>735.8</ele><time>2026-04-04T10:03:59Z</time></trkpt><trkpt lat="45.76234484844439" lon="9.861372920115807"><ele>735.0</ele><time>2026-04-04T10:04:00Z</time></trkpt><trkpt lat="45.76239027898858" lon="9.861253512987822"><ele>735.0</ele><time>2026-04-04T10:04:01Z</time></trkpt><trkpt lat="45.762437956263256" lon="9.861150048536096"><ele>735.0</ele><time>2026-04-04T10:04:02Z</time></trkpt><trkpt lat="45.76247705206042" lon="9.861063362712436"><ele>735.0</ele><time>2026-04-04T10:04:03Z</time></trkpt><trkpt lat="45.7625203597789" lon="9.860977669830646"><ele>735.0</ele><time>2026-04-04T10:04:04Z</time></trkpt><trkpt lat="45.76257853157801" lon="9.860911690177192"><ele>735.0</ele><time>2026-04-04T10:04:05Z</time></trkpt><trkpt lat="45.76264260590709" lon="9.860862059111165"><ele>735.0</ele><time>2026-04-04T10:04:06Z</time></trkpt><trkpt lat="45.76270394064334" lon="9.860811838519444"><ele>732.8333333333334</ele><time>2026-04-04T10:04:07Z</time></trkpt><trkpt lat="45.76276225372953" lon="9.860753275988436"><ele>730.6666666666666</ele><time>2026-04-04T10:04:08Z</time></trkpt><trkpt lat="45.7628175377176" lon="9.8606943906236"><ele>728.5</ele><time>2026-04-04T10:04:09Z</time></trkpt><trkpt lat="45.76286907294203" lon="9.86063791464763"><ele>726.3333333333333</ele><time>2026-04-04T10:04:10Z</time></trkpt><trkpt lat="45.762921866617326" lon="9.86058429192755"><ele>724.1666666666666</ele><time>2026-04-04T10:04:11Z</time></trkpt><trkpt lat="45.76297227162587" lon="9.860528531146144"><ele>722.0</ele><time>2026-04-04T10:04:12Z</time></trkpt><trkpt lat="45.76306986893156" lon="9.860424636281678"><ele>722.0</ele><time>2026-04-04T10:04:14Z</time></trkpt><trkpt lat="45.763160821960355" lon="9.86033818356862"><ele>722.0</ele><time>2026-04-04T10:04:16Z</time></trkpt><trkpt lat="45.763237832717415" lon="9.860245547454724"><ele>722.0</ele><time>2026-04-04T10:04:18Z</time></trkpt><trkpt lat="45.76330770867671" lon="9.860166442274513"><ele>722.0</ele><time>2026-04-04T10:04:20Z</time></trkpt><trkpt lat="45.76336920623981" lon="9.860094330425293"><ele>722.0</ele><time>2026-04-04T10:04:21.999Z</time></trkpt><trkpt lat="45.76342408231183" lon="9.860027433846328"><ele>721.8571428571429</ele><time>2026-04-04T10:04:23.999Z</time></trkpt><trkpt lat="45.7634738006919" lon="9.859966527651883"><ele>721.7142857142857</ele><time>2026-04-04T10:04:25.999Z</time></trkpt><trkpt lat="45.76351334492079" lon="9.859893976831843"><ele>721.5714285714286</ele><time>2026-04-04T10:04:27.999Z</time></trkpt><trkpt lat="45.763569179101374" lon="9.85981004209994"><ele>721.4285714285714</ele><time>2026-04-04T10:04:30.999Z</time></trkpt><trkpt lat="45.76361996403882" lon="9.859750443103554"><ele>721.2857142857142</ele><time>2026-04-04T10:04:33.999Z</time></trkpt><trkpt lat="45.76364648754889" lon="9.859622082173024"><ele>721.1428571428571</ele><time>2026-04-04T10:04:36.999Z</time></trkpt><trkpt lat="45.763700553881264" lon="9.85955669851576"><ele>721.0</ele><time>2026-04-04T10:04:39.999Z</time></trkpt><trkpt lat="45.76375165755869" lon="9.859501574521415"><ele>721.0</ele><time>2026-04-04T10:04:42.999Z</time></trkpt><trkpt lat="45.76380601134674" lon="9.859447225863962"><ele>721.0</ele><time>2026-04-04T10:04:45.999Z</time></trkpt><trkpt lat="45.76386159096452" lon="9.859396578008745"><ele>721.0</ele><time>2026-04-04T10:04:48.999Z</time></trkpt><trkpt lat="45.76391469966205" lon="9.859344553650145"><ele>721.0</ele><time>2026-04-04T10:04:51.999Z</time></trkpt><trkpt lat="45.76396915145051" lon="9.859270540942596"><ele>721.0</ele><time>2026-04-04T10:04:54.999Z</time></trkpt><trkpt lat="45.76402617047135" lon="9.859207772659657"><ele>721.0</ele><time>2026-04-04T10:04:57.999Z</time></trkpt><trkpt lat="45.76408192520264" lon="9.859117294339333"><ele>721.0</ele><time>2026-04-04T10:05:01.999Z</time></trkpt><trkpt lat="45.764136401620554" lon="9.859043502711122"><ele>719.2857142857143</ele><time>2026-04-04T10:05:05.999Z</time></trkpt><trkpt lat="45.76418464379057" lon="9.858970256578553"><ele>717.5714285714286</ele><time>2026-04-04T10:05:08.999Z</time></trkpt><trkpt lat="45.76423688876438" lon="9.858906696481124"><ele>715.8571428571429</ele><time>2026-04-04T10:05:12.999Z</time></trkpt><trkpt lat="45.76429956322915" lon="9.858834751269718"><ele>714.1428571428571</ele><time>2026-04-04T10:05:16.998Z</time></trkpt><trkpt lat="45.76435306125717" lon="9.858761287317257"><ele>712.4285714285714</ele><time>2026-04-04T10:05:19.998Z</time></trkpt><trkpt lat="45.764407848954" lon="9.858682193878032"><ele>710.7142857142858</ele><time>2026-04-04T10:05:23.998Z</time></trkpt><trkpt lat="45.76445237204341" lon="9.858599624520533"><ele>709.0</ele><time>2026-04-04T10:05:27.998Z</time></trkpt><trkpt lat="45.76450163619784" lon="9.858513104049294"><ele>713.4285714285714</ele><time>2026-04-04T10:05:31.998Z</time></trkpt><trkpt lat="45.764539441042736" lon="9.858415554483171"><ele>717.8571428571429</ele><time>2026-04-04T10:05:35.998Z</time></trkpt><trkpt lat="45.76457079266711" lon="9.85831763931741"><ele>722.2857142857142</ele><time>2026-04-04T10:05:39.998Z</time></trkpt><trkpt lat="45.764595765450714" lon="9.85821137189608"><ele>726.7142857142858</ele><time>2026-04-04T10:05:42.998Z</time></trkpt><trkpt lat="45.76462258343895" lon="9.858128408598038"><ele>731.1428571428571</ele><time>2026-04-04T10:05:47Z</time></trkpt><trkpt lat="45.764658419802934" lon="9.858031435083248"><ele>735.5714285714286</ele><time>2026-04-04T10:05:51Z</time></trkpt><trkpt lat="45.76470192933466" lon="9.857949414055827"><ele>740.0</ele><time>2026-04-04T10:05:55Z</time></trkpt><trkpt lat="45.76475488034942" lon="9.857890770897146"><ele>739.9999999999999</ele><time>2026-04-04T10:05:59Z</time></trkpt><trkpt lat="45.76481486059355" lon="9.857839545052556"><ele>740.0</ele><time>2026-04-04T10:06:03Z</time></trkpt><trkpt lat="45.76487298725435" lon="9.857776774894184"><ele>740.0</ele><time>2026-04-04T10:06:07Z</time></trkpt><trkpt lat="45.76492222481541" lon="9.857705067607682"><ele>740.0</ele><time>2026-04-04T10:06:11Z</time></trkpt><trkpt lat="45.764968473980424" lon="9.857624288956202"><ele>740.0</ele><time>2026-04-04T10:06:15Z</time></trkpt><trkpt lat="45.76499727911084" lon="9.85752039447491"><ele>739.9999999999999</ele><time>2026-04-04T10:06:19Z</time></trkpt><trkpt lat="45.76501201443141" lon="9.85741276587375"><ele>740.0</ele><time>2026-04-04T10:06:23Z</time></trkpt><trkpt lat="45.76502177832803" lon="9.857299553132073"><ele>745.0</ele><time>2026-04-04T10:06:27Z</time></trkpt><trkpt lat="45.76504267330645" lon="9.857187857815198"><ele>750.0</ele><time>2026-04-04T10:06:30.999Z</time></trkpt><trkpt lat="45.765065271220735" lon="9.85707917791774"><ele>755.0</ele><time>2026-04-04T10:06:34.999Z</time></trkpt><trkpt lat="45.76509939581555" lon="9.857002041599712"><ele>760.0</ele><time>2026-04-04T10:06:37.999Z</time></trkpt><trkpt lat="45.765145216575036" lon="9.856912849863297"><ele>765.0000000000001</ele><time>2026-04-04T10:06:41.999Z</time></trkpt><trkpt lat="45.76519243851561" lon="9.856832186320714"><ele>770.0</ele><time>2026-04-04T10:06:45.999Z</time></trkpt><trkpt lat="45.76524781490291" lon="9.856751145408204"><ele>770.0</ele><time>2026-04-04T10:06:49.999Z</time></trkpt><trkpt lat="45.7653155131204" lon="9.85668699252405"><ele>770.0</ele><time>2026-04-04T10:06:53.999Z</time></trkpt><trkpt lat="45.7653716751979" lon="9.85663208195182"><ele>770.0</ele><time>2026-04-04T10:06:57.999Z</time></trkpt><trkpt lat="45.76544423235883" lon="9.856575729954786"><ele>770.0</ele><time>2026-04-04T10:07:01.999Z</time></trkpt><trkpt lat="45.765493781953126" lon="9.856516971746085"><ele>770.0</ele><time>2026-04-04T10:07:04.999Z</time></trkpt><trkpt lat="45.76556331592092" lon="9.856461197047688"><ele>770.0</ele><time>2026-04-04T10:07:08.999Z</time></trkpt><trkpt lat="45.76562666156656" lon="9.85642027979181"><ele>770.0</ele><time>2026-04-04T10:07:11.999Z</time></trkpt><trkpt lat="45.76569973505246" lon="9.856375165561444"><ele>770.0000000000001</ele><time>2026-04-04T10:07:14.999Z</time></trkpt><trkpt lat="45.765776982651474" lon="9.856334562901528"><ele>770.0</ele><time>2026-04-04T10:07:17.999Z</time></trkpt><trkpt lat="45.76583875807821" lon="9.85631576166264"><ele>770.0</ele><time>2026-04-04T10:07:19.998Z</time></trkpt><trkpt lat="45.765923811254986" lon="9.85628504889544"><ele>770.0</ele><time>2026-04-04T10:07:22.998Z</time></trkpt><trkpt lat="45.76599636720871" lon="9.856193509758008"><ele>770.0000000000001</ele><time>2026-04-04T10:07:25.998Z</time></trkpt><trkpt lat="45.766001132221625" lon="9.856088506950593"><ele>770.0</ele><time>2026-04-04T10:07:27.998Z</time></trkpt><trkpt lat="45.76598724947637" lon="9.855986937751789"><ele>774.3333333333334</ele><time>2026-04-04T10:07:29.998Z</time></trkpt><trkpt lat="45.76596458140389" lon="9.855862961643364"><ele>778.6666666666667</ele><time>2026-04-04T10:07:32.998Z</time></trkpt><trkpt lat="45.76595547498501" lon="9.85577148614452"><ele>783.0</ele><time>2026-04-04T10:07:34.998Z</time></trkpt><trkpt lat="45.76593942943453" lon="9.855634207962824"><ele>787.3333333333333</ele><time>2026-04-04T10:07:37.998Z</time></trkpt><trkpt lat="45.76595124462346" lon="9.855515770030696"><ele>791.6666666666666</ele><time>2026-04-04T10:07:40.998Z</time></trkpt><trkpt lat="45.76596882632459" lon="9.855409969109147"><ele>796.0</ele><time>2026-04-04T10:07:43.998Z</time></trkpt><trkpt lat="45.76598789034583" lon="9.855305726346629"><ele>795.9999999999999</ele><time>2026-04-04T10:07:46.998Z</time></trkpt><trkpt lat="45.76601847077231" lon="9.855201526009013"><ele>796.0</ele><time>2026-04-04T10:07:49.998Z</time></trkpt><trkpt lat="45.766054732269396" lon="9.855117665723984"><ele>796.0</ele><time>2026-04-04T10:07:53Z</time></trkpt><trkpt lat="45.766091550038" lon="9.855031091722537"><ele>796.0</ele><time>2026-04-04T10:07:56Z</time></trkpt><trkpt lat="45.766132437752134" lon="9.854926570085981"><ele>796.0</ele><time>2026-04-04T10:07:59Z</time></trkpt><trkpt lat="45.766169558129185" lon="9.854849120830321"><ele>795.9999999999999</ele><time>2026-04-04T10:08:02Z</time></trkpt><trkpt lat="45.76621487643681" lon="9.85477910310706"><ele>796.0</ele><time>2026-04-04T10:08:05Z</time></trkpt><trkpt lat="45.7662624963139" lon="9.854711401929224"><ele>793.2857142857142</ele><time>2026-04-04T10:08:08Z</time></trkpt><trkpt lat="45.76631242223506" lon="9.854637557818029"><ele>790.5714285714286</ele><time>2026-04-04T10:08:12Z</time></trkpt><trkpt lat="45.76638111361561" lon="9.85457522937044"><ele>787.8571428571429</ele><time>2026-04-04T10:08:16Z</time></trkpt><trkpt lat="45.76643754649833" lon="9.854533029376762"><ele>785.1428571428571</ele><time>2026-04-04T10:08:19Z</time></trkpt><trkpt lat="45.766510782836654" lon="9.854476217293277"><ele>782.4285714285714</ele><time>2026-04-04T10:08:23Z</time></trkpt><trkpt lat="45.766570598136894" lon="9.854433598571754"><ele>779.7142857142857</ele><time>2026-04-04T10:08:26Z</time></trkpt><trkpt lat="45.766631255408385" lon="9.854385852007612"><ele>777.0</ele><time>2026-04-04T10:08:29Z</time></trkpt><trkpt lat="45.766683265553155" lon="9.854315849119272"><ele>777.1666666666666</ele><time>2026-04-04T10:08:31.999Z</time></trkpt><trkpt lat="45.766730640957796" lon="9.85424050629539"><ele>777.3333333333333</ele><time>2026-04-04T10:08:34.999Z</time></trkpt><trkpt lat="45.76677180472357" lon="9.854145999653271"><ele>777.5</ele><time>2026-04-04T10:08:37.999Z</time></trkpt><trkpt lat="45.76680254485845" lon="9.854043945516779"><ele>777.6666666666666</ele><time>2026-04-04T10:08:40.999Z</time></trkpt><trkpt lat="45.76684439894595" lon="9.853949149366837"><ele>777.8333333333333</ele><time>2026-04-04T10:08:43.999Z</time></trkpt><trkpt lat="45.76687721172455" lon="9.8538571271876"><ele>778.0</ele><time>2026-04-04T10:08:46.999Z</time></trkpt><trkpt lat="45.76691532838125" lon="9.85375432332567"><ele>778.0</ele><time>2026-04-04T10:08:50.999Z</time></trkpt><trkpt lat="45.76694751933016" lon="9.85367084290114"><ele>778.0</ele><time>2026-04-04T10:08:53.999Z</time></trkpt><trkpt lat="45.76699298260288" lon="9.853592482903958"><ele>778.0</ele><time>2026-04-04T10:08:56.999Z</time></trkpt><trkpt lat="45.76704374259355" lon="9.853529275606615"><ele>778.0</ele><time>2026-04-04T10:08:59.999Z</time></trkpt><trkpt lat="45.767098583549384" lon="9.853430005478128"><ele>778.0</ele><time>2026-04-04T10:09:02.999Z</time></trkpt><trkpt lat="45.76714259578851" lon="9.853336803038406"><ele>778.0</ele><time>2026-04-04T10:09:05.999Z</time></trkpt><trkpt lat="45.76720078061013" lon="9.853296092851362"><ele>778.0</ele><time>2026-04-04T10:09:08.999Z</time></trkpt><trkpt lat="45.76726932914669" lon="9.85325457153384"><ele>783.5999999999999</ele><time>2026-04-04T10:09:11.999Z</time></trkpt><trkpt lat="45.76734847829309" lon="9.853234294535234"><ele>789.1999999999999</ele><time>2026-04-04T10:09:14.999Z</time></trkpt><trkpt lat="45.76750762580913" lon="9.853247567704043"><ele>794.8</ele><time>2026-04-04T10:09:21.999Z</time></trkpt><trkpt lat="45.767577912597496" lon="9.85327800593974"><ele>800.4</ele><time>2026-04-04T10:09:24.998Z</time></trkpt><trkpt lat="45.76764804584959" lon="9.853287323993404"><ele>806.0</ele><time>2026-04-04T10:09:28.998Z</time></trkpt><trkpt lat="45.7677232368798" lon="9.853287470056529"><ele>806.0</ele><time>2026-04-04T10:09:31.998Z</time></trkpt><trkpt lat="45.76780647473008" lon="9.853278049796655"><ele>806.0</ele><time>2026-04-04T10:09:35.998Z</time></trkpt><trkpt lat="45.76787063022084" lon="9.85326759726321"><ele>806.0</ele><time>2026-04-04T10:09:38.998Z</time></trkpt><trkpt lat="45.76794413563315" lon="9.853220404795342"><ele>806.0</ele><time>2026-04-04T10:09:42.998Z</time></trkpt><trkpt lat="45.76801166047815" lon="9.853159141945435"><ele>806.0</ele><time>2026-04-04T10:09:46.998Z</time></trkpt><trkpt lat="45.76806839310729" lon="9.853104424086538"><ele>806.0</ele><time>2026-04-04T10:09:49.998Z</time></trkpt><trkpt lat="45.76812493865546" lon="9.853059789785549"><ele>806.0</ele><time>2026-04-04T10:09:52.998Z</time></trkpt><trkpt lat="45.76819804742274" lon="9.853005846025468"><ele>806.0</ele><time>2026-04-04T10:09:56.998Z</time></trkpt><trkpt lat="45.768248276498326" lon="9.852927532692544"><ele>806.0</ele><time>2026-04-04T10:10:01Z</time></trkpt><trkpt lat="45.768309336822476" lon="9.852853020399108"><ele>806.0</ele><time>2026-04-04T10:10:05Z</time></trkpt><trkpt lat="45.76836391033077" lon="9.852769640019671"><ele>806.0</ele><time>2026-04-04T10:10:09Z</time></trkpt><trkpt lat="45.768408052050106" lon="9.852704622586964"><ele>806.0</ele><time>2026-04-04T10:10:12Z</time></trkpt><trkpt lat="45.76846964984788" lon="9.852633291946265"><ele>806.0</ele><time>2026-04-04T10:10:16Z</time></trkpt><trkpt lat="45.76852655648644" lon="9.852591266274137"><ele>806.0</ele><time>2026-04-04T10:10:19Z</time></trkpt><trkpt lat="45.76853379629816" lon="9.852462476626282"><ele>806.0</ele><time>2026-04-04T10:11:13.999Z</time></trkpt><trkpt lat="45.76850171593138" lon="9.85238129019379"><ele>806.0</ele><time>2026-04-04T10:11:17.999Z</time></trkpt><trkpt lat="45.76850184009676" lon="9.85228014399831"><ele>806.0</ele><time>2026-04-04T10:11:21.999Z</time></trkpt><trkpt lat="45.76854070044316" lon="9.852197102539161"><ele>806.0</ele><time>2026-04-04T10:11:25.999Z</time></trkpt><trkpt lat="45.768572824069125" lon="9.852110592511893"><ele>806.0</ele><time>2026-04-04T10:11:29.998Z</time></trkpt><trkpt lat="45.76861525829388" lon="9.852037300619113"><ele>806.0</ele><time>2026-04-04T10:11:33.998Z</time></trkpt><trkpt lat="45.76864762427268" lon="9.851944439160919"><ele>806.0</ele><time>2026-04-04T10:11:37.998Z</time></trkpt><trkpt lat="45.76864876263209" lon="9.851847450347988"><ele>806.0</ele><time>2026-04-04T10:11:41.998Z</time></trkpt><trkpt lat="45.768583519199126" lon="9.851807704765228"><ele>806.0</ele><time>2026-04-04T10:11:47.998Z</time></trkpt><trkpt lat="45.76853336565869" lon="9.851739076965764"><ele>806.0</ele><time>2026-04-04T10:11:52.998Z</time></trkpt><trkpt lat="45.76860184593796" lon="9.851749729026466"><ele>806.0</ele><time>2026-04-04T10:11:58.998Z</time></trkpt><trkpt lat="45.76862459306199" lon="9.85185287970361"><ele>806.0</ele><time>2026-04-04T10:12:02.998Z</time></trkpt><trkpt lat="45.768605650868246" lon="9.851947727766"><ele>806.0</ele><time>2026-04-04T10:12:07Z</time></trkpt><trkpt lat="45.76860013968817" lon="9.852043890742763"><ele>806.0</ele><time>2026-04-04T10:12:10Z</time></trkpt><trkpt lat="45.76854778527538" lon="9.85210498940659"><ele>806.0000000000001</ele><time>2026-04-04T10:12:12Z</time></trkpt><trkpt lat="45.76849889948551" lon="9.852206523405565"><ele>806.0</ele><time>2026-04-04T10:12:15Z</time></trkpt><trkpt lat="45.768470778258276" lon="9.85229564321158"><ele>806.0</ele><time>2026-04-04T10:12:17Z</time></trkpt><trkpt lat="45.76848440138658" lon="9.852405064989863"><ele>806.0</ele><time>2026-04-04T10:12:20Z</time></trkpt><trkpt lat="45.768512198849834" lon="9.852505602409286"><ele>806.0000000000001</ele><time>2026-04-04T10:12:24Z</time></trkpt><trkpt lat="45.768478341805206" lon="9.852417754180788"><ele>806.0</ele><time>2026-04-04T10:14:01.998Z</time></trkpt><trkpt lat="45.76868223837344" lon="9.852207121296322"><ele>806.0000000000001</ele><time>2026-04-04T10:14:05.998Z</time></trkpt><trkpt lat="45.76872963783233" lon="9.852135025416795"><ele>806.0</ele><time>2026-04-04T10:14:07.998Z</time></trkpt><trkpt lat="45.76877900343159" lon="9.852055247014135"><ele>806.0</ele><time>2026-04-04T10:14:09.998Z</time></trkpt><trkpt lat="45.76881852363713" lon="9.851953773101899"><ele>806.0</ele><time>2026-04-04T10:14:12Z</time></trkpt><trkpt lat="45.76882625007266" lon="9.851823743803843"><ele>806.0000000000001</ele><time>2026-04-04T10:14:14Z</time></trkpt><trkpt lat="45.768856400115965" lon="9.851683525369685"><ele>806.0</ele><time>2026-04-04T10:14:16Z</time></trkpt><trkpt lat="45.768854504762956" lon="9.851558455711338"><ele>806.8333333333334</ele><time>2026-04-04T10:14:18Z</time></trkpt><trkpt lat="45.76884938745813" lon="9.851453020027689"><ele>807.6666666666667</ele><time>2026-04-04T10:14:20Z</time></trkpt><trkpt lat="45.76888682450891" lon="9.851359274054447"><ele>808.5</ele><time>2026-04-04T10:14:23Z</time></trkpt><trkpt lat="45.7689038721294" lon="9.851268866153152"><ele>809.3333333333333</ele><time>2026-04-04T10:15:37.998Z</time></trkpt><trkpt lat="45.76889959526746" lon="9.85114570372512"><ele>810.1666666666666</ele><time>2026-04-04T10:15:40.998Z</time></trkpt><trkpt lat="45.76889983699562" lon="9.851047297053046"><ele>811.0</ele><time>2026-04-04T10:15:42.998Z</time></trkpt><trkpt lat="45.76890827645696" lon="9.850929561505026"><ele>810.9999999999999</ele><time>2026-04-04T10:15:44.998Z</time></trkpt><trkpt lat="45.76891719868309" lon="9.850787322842939"><ele>811.0</ele><time>2026-04-04T10:15:46.998Z</time></trkpt><trkpt lat="45.76892269546418" lon="9.850625939353007"><ele>811.0</ele><time>2026-04-04T10:15:48.998Z</time></trkpt><trkpt lat="45.7689257677582" lon="9.850534797633676"><ele>811.0</ele><time>2026-04-04T10:15:49.998Z</time></trkpt><trkpt lat="45.76893177375847" lon="9.850441063621536"><ele>810.9999999999999</ele><time>2026-04-04T10:15:50.998Z</time></trkpt><trkpt lat="45.76893577776663" lon="9.850348552150539"><ele>811.0</ele><time>2026-04-04T10:15:51.998Z</time></trkpt><trkpt lat="45.76893834814867" lon="9.850257438273758"><ele>811.0</ele><time>2026-04-04T10:15:52.998Z</time></trkpt><trkpt lat="45.76894021570613" lon="9.850167015727475"><ele>811.0</ele><time>2026-04-04T10:15:53.998Z</time></trkpt><trkpt lat="45.768946235922236" lon="9.850075980366892"><ele>811.0</ele><time>2026-04-04T10:15:54.998Z</time></trkpt><trkpt lat="45.76895149468427" lon="9.849977844866574"><ele>811.0</ele><time>2026-04-04T10:15:55.998Z</time></trkpt><trkpt lat="45.7689559711833" lon="9.849878224851256"><ele>811.0</ele><time>2026-04-04T10:15:56.998Z</time></trkpt><trkpt lat="45.768960073321686" lon="9.849777748705852"><ele>811.0</ele><time>2026-04-04T10:15:57.998Z</time></trkpt><trkpt lat="45.76896439719291" lon="9.849677764037802"><ele>811.0</ele><time>2026-04-04T10:15:58.998Z</time></trkpt><trkpt lat="45.76897010957613" lon="9.849579913598308"><ele>810.4999999999999</ele><time>2026-04-04T10:15:59.998Z</time></trkpt><trkpt lat="45.768970309554156" lon="9.849489308348785"><ele>810.0</ele><time>2026-04-04T10:16:00.998Z</time></trkpt><trkpt lat="45.76897926608611" lon="9.84930953588717"><ele>809.5</ele><time>2026-04-04T10:16:02.998Z</time></trkpt><trkpt lat="45.76897849651667" lon="9.849130210207779"><ele>809.0</ele><time>2026-04-04T10:16:04.998Z</time></trkpt><trkpt lat="45.76898387026156" lon="9.849037206193348"><ele>808.4999999999999</ele><time>2026-04-04T10:16:05.998Z</time></trkpt><trkpt lat="45.76899025427003" lon="9.84894617598873"><ele>808.0</ele><time>2026-04-04T10:16:06.998Z</time></trkpt><trkpt lat="45.76899778677409" lon="9.848856302317037"><ele>807.7142857142857</ele><time>2026-04-04T10:16:07.998Z</time></trkpt><trkpt lat="45.76900770006213" lon="9.848765439652613"><ele>807.4285714285713</ele><time>2026-04-04T10:16:08.998Z</time></trkpt><trkpt lat="45.76901042626126" lon="9.848673898342849"><ele>807.1428571428571</ele><time>2026-04-04T10:16:09.998Z</time></trkpt><trkpt lat="45.76900446759026" lon="9.848579225332081"><ele>806.8571428571429</ele><time>2026-04-04T10:16:10.998Z</time></trkpt><trkpt lat="45.76901140628844" lon="9.848487938047388"><ele>806.5714285714286</ele><time>2026-04-04T10:16:11.998Z</time></trkpt><trkpt lat="45.76902495139708" lon="9.848399670883571"><ele>806.2857142857143</ele><time>2026-04-04T10:16:12.998Z</time></trkpt><trkpt lat="45.769037134054244" lon="9.848310308116629"><ele>806.0</ele><time>2026-04-04T10:16:13.998Z</time></trkpt><trkpt lat="45.76905540610174" lon="9.848138144809228"><ele>806.0</ele><time>2026-04-04T10:16:15.998Z</time></trkpt><trkpt lat="45.76907586852993" lon="9.847973539285409"><ele>806.0</ele><time>2026-04-04T10:16:18Z</time></trkpt><trkpt lat="45.76909292355871" lon="9.847826872107346"><ele>806.0</ele><time>2026-04-04T10:16:20Z</time></trkpt><trkpt lat="45.76910193825976" lon="9.847660676866603"><ele>806.0</ele><time>2026-04-04T10:16:22Z</time></trkpt><trkpt lat="45.76910817447394" lon="9.847570276626016"><ele>806.0</ele><time>2026-04-04T10:16:23Z</time></trkpt><trkpt lat="45.769107919906936" lon="9.847396702590892"><ele>805.8</ele><time>2026-04-04T10:16:25Z</time></trkpt><trkpt lat="45.76910158482568" lon="9.847269599898343"><ele>805.5999999999999</ele><time>2026-04-04T10:16:27Z</time></trkpt><trkpt lat="45.769045950548666" lon="9.847167353090516"><ele>805.4</ele><time>2026-04-04T10:17:46.998Z</time></trkpt><trkpt lat="45.76902588386455" lon="9.847044691503916"><ele>805.2</ele><time>2026-04-04T10:17:48.998Z</time></trkpt><trkpt lat="45.76895443255527" lon="9.846895528424108"><ele>805.0</ele><time>2026-04-04T10:17:50.998Z</time></trkpt><trkpt lat="45.7689113497602" lon="9.84682057231864"><ele>803.6666666666666</ele><time>2026-04-04T10:17:51.998Z</time></trkpt><trkpt lat="45.7688628693701" lon="9.846754180848533"><ele>802.3333333333333</ele><time>2026-04-04T10:17:52.998Z</time></trkpt><trkpt lat="45.76881507548931" lon="9.846640332915314"><ele>801.0</ele><time>2026-04-04T10:17:54.998Z</time></trkpt><trkpt lat="45.76887978616886" lon="9.846516132658174"><ele>799.6666666666667</ele><time>2026-04-04T10:17:56.998Z</time></trkpt><trkpt lat="45.76894076466682" lon="9.846468912338361"><ele>798.3333333333334</ele><time>2026-04-04T10:17:57.998Z</time></trkpt><trkpt lat="45.769001001944446" lon="9.84642301289712"><ele>797.0</ele><time>2026-04-04T10:17:58.998Z</time></trkpt><trkpt lat="45.769066729982576" lon="9.846373976561651"><ele>797.0000000000001</ele><time>2026-04-04T10:17:59.998Z</time></trkpt><trkpt lat="45.76913946363957" lon="9.84631133617299"><ele>797.0</ele><time>2026-04-04T10:18:00.998Z</time></trkpt><trkpt lat="45.76920570738975" lon="9.846236093152157"><ele>797.0</ele><time>2026-04-04T10:18:01.998Z</time></trkpt><trkpt lat="45.76926341076756" lon="9.846149623266355"><ele>797.0</ele><time>2026-04-04T10:18:02.998Z</time></trkpt><trkpt lat="45.769313843060544" lon="9.846052502903527"><ele>797.0000000000001</ele><time>2026-04-04T10:18:03.998Z</time></trkpt><trkpt lat="45.769347589596514" lon="9.845933488151966"><ele>797.0</ele><time>2026-04-04T10:18:04.998Z</time></trkpt><trkpt lat="45.76936223005722" lon="9.845798585177567"><ele>790.2</ele><time>2026-04-04T10:18:05.998Z</time></trkpt><trkpt lat="45.769379755388066" lon="9.845655539005133"><ele>783.4000000000001</ele><time>2026-04-04T10:18:06.998Z</time></trkpt><trkpt lat="45.769402317308696" lon="9.84549711329193"><ele>776.5999999999999</ele><time>2026-04-04T10:18:07.998Z</time></trkpt><trkpt lat="45.76942115614409" lon="9.845344400875149"><ele>769.8</ele><time>2026-04-04T10:18:08.998Z</time></trkpt><trkpt lat="45.76943927725442" lon="9.845181136749309"><ele>763.0</ele><time>2026-04-04T10:18:09.998Z</time></trkpt><trkpt lat="45.769457015523045" lon="9.845026616471918"><ele>760.8</ele><time>2026-04-04T10:18:10.998Z</time></trkpt><trkpt lat="45.769476133541154" lon="9.844877345576137"><ele>758.5999999999999</ele><time>2026-04-04T10:18:11.998Z</time></trkpt><trkpt lat="45.769490881612946" lon="9.844733173528061"><ele>756.4000000000001</ele><time>2026-04-04T10:18:12.998Z</time></trkpt><trkpt lat="45.76949715071155" lon="9.84459661653831"><ele>754.2</ele><time>2026-04-04T10:18:13.998Z</time></trkpt><trkpt lat="45.76951035084549" lon="9.844459178986526"><ele>752.0</ele><time>2026-04-04T10:18:14.998Z</time></trkpt><trkpt lat="45.769529628017935" lon="9.844325676219404"><ele>749.8</ele><time>2026-04-04T10:18:15.998Z</time></trkpt><trkpt lat="45.769546102950066" lon="9.844205841986783"><ele>747.6</ele><time>2026-04-04T10:18:16.998Z</time></trkpt><trkpt lat="45.76956132105183" lon="9.844078549789268"><ele>745.4</ele><time>2026-04-04T10:18:17.998Z</time></trkpt><trkpt lat="45.76957373703547" lon="9.843949338751203"><ele>743.1999999999999</ele><time>2026-04-04T10:18:18.998Z</time></trkpt><trkpt lat="45.76957127329778" lon="9.843816715943507"><ele>741.0</ele><time>2026-04-04T10:18:19.998Z</time></trkpt><trkpt lat="45.76956861322515" lon="9.843681991406262"><ele>741.0</ele><time>2026-04-04T10:18:20.998Z</time></trkpt><trkpt lat="45.76956018800715" lon="9.843550872304501"><ele>741.0</ele><time>2026-04-04T10:18:21.998Z</time></trkpt><trkpt lat="45.76954372265846" lon="9.843426089085307"><ele>741.0</ele><time>2026-04-04T10:18:23Z</time></trkpt><trkpt lat="45.769532434469845" lon="9.84329824241572"><ele>741.0</ele><time>2026-04-04T10:18:24Z</time></trkpt><trkpt lat="45.76952849773362" lon="9.84316815786689"><ele>741.0</ele><time>2026-04-04T10:18:25Z</time></trkpt><trkpt lat="45.76953124742808" lon="9.84304105304734"><ele>738.4</ele><time>2026-04-04T10:18:26Z</time></trkpt><trkpt lat="45.7695337446152" lon="9.842911979080492"><ele>735.8</ele><time>2026-04-04T10:18:27Z</time></trkpt><trkpt lat="45.76952009080739" lon="9.842781626887888"><ele>733.1999999999999</ele><time>2026-04-04T10:18:28Z</time></trkpt><trkpt lat="45.76950172235438" lon="9.842644933924296"><ele>730.5999999999999</ele><time>2026-04-04T10:18:29Z</time></trkpt><trkpt lat="45.769488096951605" lon="9.842503971204033"><ele>728.0</ele><time>2026-04-04T10:18:30Z</time></trkpt><trkpt lat="45.769478187759425" lon="9.842361583200724"><ele>726.5999999999999</ele><time>2026-04-04T10:18:31Z</time></trkpt><trkpt lat="45.769481850873866" lon="9.842216545566863"><ele>725.1999999999999</ele><time>2026-04-04T10:18:32Z</time></trkpt><trkpt lat="45.76950097578871" lon="9.842069398756804"><ele>723.8</ele><time>2026-04-04T10:18:33Z</time></trkpt><trkpt lat="45.76952089773174" lon="9.84192236783389"><ele>722.4</ele><time>2026-04-04T10:18:34Z</time></trkpt><trkpt lat="45.7695318332984" lon="9.841774614756082"><ele>721.0</ele><time>2026-04-04T10:18:35Z</time></trkpt><trkpt lat="45.769533869753445" lon="9.841630569475704"><ele>721.0</ele><time>2026-04-04T10:18:36Z</time></trkpt><trkpt lat="45.76954051425792" lon="9.841493944191706"><ele>721.0</ele><time>2026-04-04T10:18:37Z</time></trkpt><trkpt lat="45.769552659377915" lon="9.841365156498215"><ele>721.0</ele><time>2026-04-04T10:18:38Z</time></trkpt><trkpt lat="45.769565854899646" lon="9.841240005864176"><ele>721.0</ele><time>2026-04-04T10:18:39Z</time></trkpt><trkpt lat="45.76957518319334" lon="9.841119717302583"><ele>721.0</ele><time>2026-04-04T10:18:40Z</time></trkpt><trkpt lat="45.76959386809285" lon="9.841010147921223"><ele>721.0</ele><time>2026-04-04T10:18:41Z</time></trkpt><trkpt lat="45.76963344593246" lon="9.84091124217175"><ele>721.0</ele><time>2026-04-04T10:18:42Z</time></trkpt><trkpt lat="45.76968925667776" lon="9.840824045905537"><ele>721.0</ele><time>2026-04-04T10:18:43Z</time></trkpt><trkpt lat="45.76976500013915" lon="9.840762612870005"><ele>721.0</ele><time>2026-04-04T10:18:44Z</time></trkpt><trkpt lat="45.76984170630743" lon="9.840705483633032"><ele>721.0</ele><time>2026-04-04T10:18:45Z</time></trkpt><trkpt lat="45.76990526658227" lon="9.840629129792328"><ele>721.0</ele><time>2026-04-04T10:18:46Z</time></trkpt><trkpt lat="45.769962731317236" lon="9.840532890259857"><ele>721.0</ele><time>2026-04-04T10:18:47Z</time></trkpt><trkpt lat="45.77002210716791" lon="9.840419940385628"><ele>721.0</ele><time>2026-04-04T10:18:48Z</time></trkpt><trkpt lat="45.770078996293336" lon="9.840305972760612"><ele>721.0</ele><time>2026-04-04T10:18:49Z</time></trkpt><trkpt lat="45.77013616861728" lon="9.840189598055524"><ele>721.0</ele><time>2026-04-04T10:18:50Z</time></trkpt><trkpt lat="45.77019342700653" lon="9.840069052457476"><ele>721.0</ele><time>2026-04-04T10:18:51Z</time></trkpt><trkpt lat="45.77025711588442" lon="9.8399484203863"><ele>721.0</ele><time>2026-04-04T10:18:52Z</time></trkpt><trkpt lat="45.77031997728057" lon="9.839830673731372"><ele>717.4</ele><time>2026-04-04T10:18:52.999Z</time></trkpt><trkpt lat="45.77038622236846" lon="9.839707779945787"><ele>713.8</ele><time>2026-04-04T10:18:53.999Z</time></trkpt><trkpt lat="45.77044965172383" lon="9.839577233646668"><ele>710.1999999999999</ele><time>2026-04-04T10:18:54.999Z</time></trkpt><trkpt lat="45.77051036819682" lon="9.839445576356757"><ele>706.5999999999999</ele><time>2026-04-04T10:18:55.999Z</time></trkpt><trkpt lat="45.7705698082845" lon="9.839312657173942"><ele>703.0</ele><time>2026-04-04T10:18:56.999Z</time></trkpt><trkpt lat="45.770619123004" lon="9.839164251077769"><ele>703.0</ele><time>2026-04-04T10:18:57.999Z</time></trkpt><trkpt lat="45.77065958165627" lon="9.839014086882338"><ele>703.0</ele><time>2026-04-04T10:18:58.999Z</time></trkpt><trkpt lat="45.77069491432669" lon="9.838864228371602"><ele>703.0</ele><time>2026-04-04T10:18:59.999Z</time></trkpt><trkpt lat="45.77072659246691" lon="9.838712113692823"><ele>703.0</ele><time>2026-04-04T10:19:00.999Z</time></trkpt><trkpt lat="45.77075525833278" lon="9.838555736006509"><ele>703.0</ele><time>2026-04-04T10:19:01.999Z</time></trkpt><trkpt lat="45.77077760760272" lon="9.83840375550049"><ele>703.5</ele><time>2026-04-04T10:19:02.999Z</time></trkpt><trkpt lat="45.7707979700473" lon="9.838256786667491"><ele>704.0</ele><time>2026-04-04T10:19:03.999Z</time></trkpt><trkpt lat="45.77081625665215" lon="9.83811780670548"><ele>704.5</ele><time>2026-04-04T10:19:04.999Z</time></trkpt><trkpt lat="45.770829926642215" lon="9.83799066659191"><ele>705.0</ele><time>2026-04-04T10:19:05.999Z</time></trkpt><trkpt lat="45.77083056054117" lon="9.83787839534764"><ele>705.5</ele><time>2026-04-04T10:19:06.999Z</time></trkpt><trkpt lat="45.77080620546138" lon="9.837775000343349"><ele>706.0</ele><time>2026-04-04T10:19:07.999Z</time></trkpt><trkpt lat="45.77076374531206" lon="9.837680084044381"><ele>704.6666666666667</ele><time>2026-04-04T10:19:08.999Z</time></trkpt><trkpt lat="45.77071685113499" lon="9.837579455812723"><ele>703.3333333333334</ele><time>2026-04-04T10:19:09.999Z</time></trkpt><trkpt lat="45.770643247688284" lon="9.837489370583773"><ele>702.0</ele><time>2026-04-04T10:19:10.999Z</time></trkpt><trkpt lat="45.77056447490118" lon="9.837411893871781"><ele>700.6666666666666</ele><time>2026-04-04T10:19:11.999Z</time></trkpt><trkpt lat="45.7705002435282" lon="9.837358954237022"><ele>699.3333333333333</ele><time>2026-04-04T10:19:12.999Z</time></trkpt><trkpt lat="45.77043080973043" lon="9.837269131398823"><ele>698.0</ele><time>2026-04-04T10:19:14.999Z</time></trkpt><trkpt lat="45.77053862331876" lon="9.837219499397866"><ele>698.0</ele><time>2026-04-04T10:19:16.999Z</time></trkpt><trkpt lat="45.77060696151356" lon="9.837262219149576"><ele>698.0</ele><time>2026-04-04T10:19:17.999Z</time></trkpt><trkpt lat="45.7706783469964" lon="9.837284922902176"><ele>698.0</ele><time>2026-04-04T10:19:18.999Z</time></trkpt><trkpt lat="45.770760642499525" lon="9.837288135527887"><ele>698.0</ele><time>2026-04-04T10:19:19.999Z</time></trkpt><trkpt lat="45.770848881656036" lon="9.837287272237512"><ele>698.0</ele><time>2026-04-04T10:19:20.999Z</time></trkpt><trkpt lat="45.77094009235263" lon="9.837297520494653"><ele>698.0</ele><time>2026-04-04T10:19:21.999Z</time></trkpt><trkpt lat="45.77103188005438" lon="9.837313635960031"><ele>696.2</ele><time>2026-04-04T10:19:22.999Z</time></trkpt><trkpt lat="45.77112561370346" lon="9.837312051121131"><ele>694.4</ele><time>2026-04-04T10:19:23.999Z</time></trkpt><trkpt lat="45.77122352502147" lon="9.837298703356183"><ele>692.6</ele><time>2026-04-04T10:19:24.999Z</time></trkpt><trkpt lat="45.77132199937706" lon="9.837278782253831"><ele>690.8000000000001</ele><time>2026-04-04T10:19:25.999Z</time></trkpt><trkpt lat="45.771423295549944" lon="9.837259718812039"><ele>689.0</ele><time>2026-04-04T10:19:26.999Z</time></trkpt><trkpt lat="45.77152150920151" lon="9.83722993628592"><ele>689.0</ele><time>2026-04-04T10:19:27.999Z</time></trkpt><trkpt lat="45.77161129867448" lon="9.837196358532207"><ele>689.0</ele><time>2026-04-04T10:19:28.999Z</time></trkpt><trkpt lat="45.7716970062425" lon="9.837163389550762"><ele>689.0</ele><time>2026-04-04T10:19:29.999Z</time></trkpt><trkpt lat="45.771783249152065" lon="9.837098635264002"><ele>689.0</ele><time>2026-04-04T10:19:30.999Z</time></trkpt><trkpt lat="45.77186935226497" lon="9.837017968224465"><ele>689.0</ele><time>2026-04-04T10:19:31.999Z</time></trkpt><trkpt lat="45.771957422331866" lon="9.836930551224654"><ele>689.4000000000001</ele><time>2026-04-04T10:19:32.999Z</time></trkpt><trkpt lat="45.77204501405422" lon="9.836836522213844"><ele>689.8</ele><time>2026-04-04T10:19:33.999Z</time></trkpt><trkpt lat="45.77213040260392" lon="9.836734268689161"><ele>690.2</ele><time>2026-04-04T10:19:34.999Z</time></trkpt><trkpt lat="45.772213491410575" lon="9.836627673647811"><ele>690.5999999999999</ele><time>2026-04-04T10:19:35.999Z</time></trkpt><trkpt lat="45.77229279647845" lon="9.836522094140541"><ele>691.0</ele><time>2026-04-04T10:19:36.999Z</time></trkpt><trkpt lat="45.772365791357664" lon="9.836407821794163"><ele>689.1999999999999</ele><time>2026-04-04T10:19:37.999Z</time></trkpt><trkpt lat="45.772432576396945" lon="9.836288971587503"><ele>687.4</ele><time>2026-04-04T10:19:38.999Z</time></trkpt><trkpt lat="45.772499236618295" lon="9.836173276143985"><ele>685.6</ele><time>2026-04-04T10:19:39.999Z</time></trkpt><trkpt lat="45.77257293914426" lon="9.836052275818114"><ele>683.8</ele><time>2026-04-04T10:19:40.999Z</time></trkpt><trkpt lat="45.772648859628454" lon="9.835925044807622"><ele>682.0</ele><time>2026-04-04T10:19:41.999Z</time></trkpt><trkpt lat="45.77272304954265" lon="9.835789138013109"><ele>682.0</ele><time>2026-04-04T10:19:42.999Z</time></trkpt><trkpt lat="45.772802192525255" lon="9.835661641230624"><ele>682.0</ele><time>2026-04-04T10:19:43.999Z</time></trkpt><trkpt lat="45.7728725049679" lon="9.835529730107105"><ele>682.0</ele><time>2026-04-04T10:19:44.999Z</time></trkpt><trkpt lat="45.772943682603746" lon="9.835400439253362"><ele>682.0</ele><time>2026-04-04T10:19:45.998Z</time></trkpt><trkpt lat="45.77301621093628" lon="9.83527699611668"><ele>682.0</ele><time>2026-04-04T10:19:46.998Z</time></trkpt><trkpt lat="45.77308447917443" lon="9.835156063515834"><ele>682.0</ele><time>2026-04-04T10:19:47.998Z</time></trkpt><trkpt lat="45.7731502870651" lon="9.8350517178367"><ele>682.0</ele><time>2026-04-04T10:19:48.998Z</time></trkpt><trkpt lat="45.773221356703154" lon="9.8349642665221"><ele>682.0</ele><time>2026-04-04T10:19:49.998Z</time></trkpt><trkpt lat="45.7732912998174" lon="9.834893854626978"><ele>682.0</ele><time>2026-04-04T10:19:50.998Z</time></trkpt><trkpt lat="45.77336767331954" lon="9.834850623631333"><ele>678.1666666666667</ele><time>2026-04-04T10:19:51.998Z</time></trkpt><trkpt lat="45.77343886844056" lon="9.834808928091554"><ele>674.3333333333334</ele><time>2026-04-04T10:19:52.998Z</time></trkpt><trkpt lat="45.77348068377801" lon="9.83473754891521"><ele>670.5</ele><time>2026-04-04T10:19:53.998Z</time></trkpt><trkpt lat="45.77346623089433" lon="9.834589151739644"><ele>666.6666666666666</ele><time>2026-04-04T10:19:55.998Z</time></trkpt><trkpt lat="45.77338693429878" lon="9.834559951082415"><ele>662.8333333333333</ele><time>2026-04-04T10:19:56.998Z</time></trkpt><trkpt lat="45.77330424422946" lon="9.834619921887025"><ele>659.0</ele><time>2026-04-04T10:19:57.998Z</time></trkpt><trkpt lat="45.77324047431666" lon="9.834664852409372"><ele>659.0</ele><time>2026-04-04T10:19:58.998Z</time></trkpt><trkpt lat="45.77317321133783" lon="9.834715143288385"><ele>659.0</ele><time>2026-04-04T10:19:59.998Z</time></trkpt><trkpt lat="45.77310764942513" lon="9.834787280597988"><ele>659.0</ele><time>2026-04-04T10:20:00.998Z</time></trkpt><trkpt lat="45.773023771774234" lon="9.834829011681284"><ele>659.0</ele><time>2026-04-04T10:20:01.998Z</time></trkpt><trkpt lat="45.7729470622027" lon="9.83490148034178"><ele>659.0</ele><time>2026-04-04T10:20:02.998Z</time></trkpt><trkpt lat="45.772875438556206" lon="9.834998930408343"><ele>659.0</ele><time>2026-04-04T10:20:03.998Z</time></trkpt><trkpt lat="45.77279224703978" lon="9.835080846889413"><ele>659.0</ele><time>2026-04-04T10:20:04.998Z</time></trkpt><trkpt lat="45.7727062141858" lon="9.835169536536991"><ele>659.0</ele><time>2026-04-04T10:20:05.998Z</time></trkpt><trkpt lat="45.77261884830329" lon="9.835264253223322"><ele>659.0</ele><time>2026-04-04T10:20:06.998Z</time></trkpt><trkpt lat="45.77253327949147" lon="9.835358925151228"><ele>659.0</ele><time>2026-04-04T10:20:07.998Z</time></trkpt><trkpt lat="45.77243959614024" lon="9.835445223226708"><ele>659.0</ele><time>2026-04-04T10:20:08.998Z</time></trkpt><trkpt lat="45.77234365940084" lon="9.835526970860622"><ele>659.0</ele><time>2026-04-04T10:20:09.998Z</time></trkpt><trkpt lat="45.77225567190534" lon="9.835615506855234"><ele>659.0</ele><time>2026-04-04T10:20:10.998Z</time></trkpt><trkpt lat="45.77217046987055" lon="9.835694910306415"><ele>659.0</ele><time>2026-04-04T10:20:11.998Z</time></trkpt><trkpt lat="45.77208863024818" lon="9.835763619959069"><ele>659.0</ele><time>2026-04-04T10:20:12.998Z</time></trkpt><trkpt lat="45.77199671868659" lon="9.835813860601224"><ele>659.0</ele><time>2026-04-04T10:20:13.998Z</time></trkpt><trkpt lat="45.77189349540447" lon="9.835852580803147"><ele>654.8000000000001</ele><time>2026-04-04T10:20:14.998Z</time></trkpt><trkpt lat="45.77178429306751" lon="9.835874319803525"><ele>650.6</ele><time>2026-04-04T10:20:15.998Z</time></trkpt><trkpt lat="45.771681689891324" lon="9.835897671290654"><ele>646.4</ele><time>2026-04-04T10:20:16.998Z</time></trkpt><trkpt lat="45.77158275097333" lon="9.835892442843539"><ele>642.2</ele><time>2026-04-04T10:20:17.998Z</time></trkpt><trkpt lat="45.77148770544457" lon="9.835898246585295"><ele>638.0</ele><time>2026-04-04T10:20:18.998Z</time></trkpt><trkpt lat="45.77138622828212" lon="9.835921174785957"><ele>638.0</ele><time>2026-04-04T10:20:19.998Z</time></trkpt><trkpt lat="45.771300955364204" lon="9.83588473481758"><ele>638.0</ele><time>2026-04-04T10:20:20.998Z</time></trkpt><trkpt lat="45.771218169229485" lon="9.835831640808575"><ele>638.0</ele><time>2026-04-04T10:20:21.998Z</time></trkpt><trkpt lat="45.771125429768496" lon="9.835790913200517"><ele>638.0</ele><time>2026-04-04T10:20:22.998Z</time></trkpt><trkpt lat="45.77103605420081" lon="9.835715671629279"><ele>638.0</ele><time>2026-04-04T10:20:23.998Z</time></trkpt><trkpt lat="45.770941429139754" lon="9.835645895287072"><ele>637.5</ele><time>2026-04-04T10:20:24.998Z</time></trkpt><trkpt lat="45.77084239846395" lon="9.835629848154127"><ele>637.0</ele><time>2026-04-04T10:20:25.998Z</time></trkpt><trkpt lat="45.770753939277355" lon="9.835614830650808"><ele>636.5</ele><time>2026-04-04T10:20:26.998Z</time></trkpt><trkpt lat="45.770667466655816" lon="9.835620618019531"><ele>636.0</ele><time>2026-04-04T10:20:27.998Z</time></trkpt><trkpt lat="45.770589745214046" lon="9.835644495689971"><ele>635.5</ele><time>2026-04-04T10:20:29Z</time></trkpt><trkpt lat="45.770525723451186" lon="9.835671894681786"><ele>635.0</ele><time>2026-04-04T10:20:30Z</time></trkpt><trkpt lat="45.77043546026523" lon="9.835664337717498"><ele>635.0</ele><time>2026-04-04T10:20:32Z</time></trkpt><trkpt lat="45.77045207446158" lon="9.835543388865304"><ele>635.0</ele><time>2026-04-04T10:20:34Z</time></trkpt><trkpt lat="45.77052921574123" lon="9.835513764221101"><ele>635.0</ele><time>2026-04-04T10:20:35Z</time></trkpt><trkpt lat="45.77060889679736" lon="9.835528002718938"><ele>635.0</ele><time>2026-04-04T10:20:36Z</time></trkpt><trkpt lat="45.77068248993889" lon="9.835516896721899"><ele>635.0</ele><time>2026-04-04T10:20:37Z</time></trkpt><trkpt lat="45.77076623467073" lon="9.835507099723273"><ele>635.0</ele><time>2026-04-04T10:20:38Z</time></trkpt><trkpt lat="45.7708550634972" lon="9.835492607488595"><ele>635.0</ele><time>2026-04-04T10:20:39Z</time></trkpt><trkpt lat="45.770952578035896" lon="9.83549500568644"><ele>635.0</ele><time>2026-04-04T10:20:40Z</time></trkpt><trkpt lat="45.77104749851297" lon="9.835505236701179"><ele>635.0</ele><time>2026-04-04T10:20:41Z</time></trkpt><trkpt lat="45.771145573870584" lon="9.83551903671139"><ele>635.0</ele><time>2026-04-04T10:20:42Z</time></trkpt><trkpt lat="45.77124102254721" lon="9.835529578282715"><ele>635.0</ele><time>2026-04-04T10:20:43Z</time></trkpt><trkpt lat="45.7713341603792" lon="9.835534293063837"><ele>635.6</ele><time>2026-04-04T10:20:44Z</time></trkpt><trkpt lat="45.77142332243177" lon="9.835517408504531"><ele>636.2</ele><time>2026-04-04T10:20:45Z</time></trkpt><trkpt lat="45.771513923939224" lon="9.835470917832907"><ele>636.8</ele><time>2026-04-04T10:20:46Z</time></trkpt><trkpt lat="45.7716039698286" lon="9.83540188841082"><ele>637.4</ele><time>2026-04-04T10:20:47Z</time></trkpt><trkpt lat="45.77170040402764" lon="9.83534281338585"><ele>638.0</ele><time>2026-04-04T10:20:48Z</time></trkpt><trkpt lat="45.77179411203119" lon="9.835253081627673"><ele>634.75</ele><time>2026-04-04T10:20:49Z</time></trkpt><trkpt lat="45.77188198636834" lon="9.83513640396177"><ele>631.5</ele><time>2026-04-04T10:20:50Z</time></trkpt><trkpt lat="45.77195917855384" lon="9.835010443138211"><ele>628.25</ele><time>2026-04-04T10:20:51Z</time></trkpt><trkpt lat="45.77203691549745" lon="9.83488893642136"><ele>625.0</ele><time>2026-04-04T10:20:52Z</time></trkpt><trkpt lat="45.772120096113106" lon="9.834761927935382"><ele>625.0</ele><time>2026-04-04T10:20:53Z</time></trkpt><trkpt lat="45.772194627003145" lon="9.83461681497475"><ele>625.0</ele><time>2026-04-04T10:20:54Z</time></trkpt><trkpt lat="45.77226202869691" lon="9.83446846681288"><ele>625.0</ele><time>2026-04-04T10:20:55Z</time></trkpt><trkpt lat="45.772318430248106" lon="9.834302771955109"><ele>625.0</ele><time>2026-04-04T10:20:56Z</time></trkpt><trkpt lat="45.772384878658244" lon="9.834150733118381"><ele>618.8</ele><time>2026-04-04T10:20:56.999Z</time></trkpt><trkpt lat="45.77244280357969" lon="9.834018160997966"><ele>612.6</ele><time>2026-04-04T10:20:57.999Z</time></trkpt><trkpt lat="45.77250126754255" lon="9.83389243604133"><ele>606.4</ele><time>2026-04-04T10:20:58.999Z</time></trkpt><trkpt lat="45.77255897310256" lon="9.833747522719111"><ele>600.2</ele><time>2026-04-04T10:20:59.999Z</time></trkpt><trkpt lat="45.7726155427677" lon="9.833600578847129"><ele>594.0</ele><time>2026-04-04T10:21:00.999Z</time></trkpt><trkpt lat="45.772669186477486" lon="9.833453053193201"><ele>596.4</ele><time>2026-04-04T10:21:01.999Z</time></trkpt><trkpt lat="45.77271606584421" lon="9.833303621353519"><ele>598.8</ele><time>2026-04-04T10:21:02.999Z</time></trkpt><trkpt lat="45.77276318426278" lon="9.833166386309928"><ele>601.2</ele><time>2026-04-04T10:21:03.999Z</time></trkpt><trkpt lat="45.772813612099185" lon="9.83304438408092"><ele>603.6</ele><time>2026-04-04T10:21:04.999Z</time></trkpt><trkpt lat="45.77286685923777" lon="9.83294436998757"><ele>606.0</ele><time>2026-04-04T10:21:05.999Z</time></trkpt><trkpt lat="45.77291000428668" lon="9.83285442713409"><ele>606.0</ele><time>2026-04-04T10:21:06.999Z</time></trkpt><trkpt lat="45.77294217335661" lon="9.832695273678885"><ele>606.0</ele><time>2026-04-04T10:21:08.999Z</time></trkpt><trkpt lat="45.7728312316073" lon="9.832590613992199"><ele>606.0</ele><time>2026-04-04T10:21:10.999Z</time></trkpt><trkpt lat="45.77277464585857" lon="9.8327177417491"><ele>606.0</ele><time>2026-04-04T10:21:11.999Z</time></trkpt><trkpt lat="45.772742795862605" lon="9.832817215496153"><ele>606.0</ele><time>2026-04-04T10:21:12.999Z</time></trkpt><trkpt lat="45.772709196064184" lon="9.832915503295565"><ele>598.4</ele><time>2026-04-04T10:21:13.999Z</time></trkpt><trkpt lat="45.77266643491622" lon="9.833014748972893"><ele>590.8</ele><time>2026-04-04T10:21:14.999Z</time></trkpt><trkpt lat="45.772604459900236" lon="9.83310605340401"><ele>583.1999999999999</ele><time>2026-04-04T10:21:15.999Z</time></trkpt><trkpt lat="45.77254747275634" lon="9.833208645610224"><ele>575.6</ele><time>2026-04-04T10:21:16.999Z</time></trkpt><trkpt lat="45.77249381600857" lon="9.833329502384176"><ele>568.0</ele><time>2026-04-04T10:21:17.999Z</time></trkpt><trkpt lat="45.77242007177615" lon="9.833430346284535"><ele>573.1999999999999</ele><time>2026-04-04T10:21:18.999Z</time></trkpt><trkpt lat="45.77234206243852" lon="9.83353786522096"><ele>578.4</ele><time>2026-04-04T10:21:19.999Z</time></trkpt><trkpt lat="45.77226212931029" lon="9.833650011785114"><ele>583.5999999999999</ele><time>2026-04-04T10:21:20.999Z</time></trkpt><trkpt lat="45.77218183352849" lon="9.833763278566698"><ele>588.8</ele><time>2026-04-04T10:21:21.999Z</time></trkpt><trkpt lat="45.77210902556532" lon="9.833867879058582"><ele>594.0</ele><time>2026-04-04T10:21:22.999Z</time></trkpt><trkpt lat="45.77204298701527" lon="9.83396108913209"><ele>594.0</ele><time>2026-04-04T10:21:23.999Z</time></trkpt><trkpt lat="45.77198173126572" lon="9.834041244898204"><ele>594.0</ele><time>2026-04-04T10:21:24.999Z</time></trkpt><trkpt lat="45.77190229411444" lon="9.834093224048543"><ele>594.0</ele><time>2026-04-04T10:21:25.999Z</time></trkpt><trkpt lat="45.771829996037226" lon="9.83417014144326"><ele>594.0</ele><time>2026-04-04T10:21:26.999Z</time></trkpt><trkpt lat="45.77174511578031" lon="9.83422892455536"><ele>594.0</ele><time>2026-04-04T10:21:27.999Z</time></trkpt><trkpt lat="45.77165812900024" lon="9.834293495481758"><ele>593.8</ele><time>2026-04-04T10:21:28.999Z</time></trkpt><trkpt lat="45.7715703629675" lon="9.834357313807246"><ele>593.5999999999999</ele><time>2026-04-04T10:21:29.999Z</time></trkpt><trkpt lat="45.7714838343205" lon="9.834412554491657"><ele>593.4</ele><time>2026-04-04T10:21:30.999Z</time></trkpt><trkpt lat="45.771393890791884" lon="9.834437129365494"><ele>593.1999999999999</ele><time>2026-04-04T10:21:31.999Z</time></trkpt><trkpt lat="45.77131858560778" lon="9.834494439145853"><ele>593.0</ele><time>2026-04-04T10:21:32.999Z</time></trkpt><trkpt lat="45.77123772028817" lon="9.834505072332755"><ele>593.0</ele><time>2026-04-04T10:21:33.999Z</time></trkpt><trkpt lat="45.771163116042366" lon="9.834483903552442"><ele>593.0</ele><time>2026-04-04T10:21:34.999Z</time></trkpt><trkpt lat="45.77109531054225" lon="9.83445804538196"><ele>593.0</ele><time>2026-04-04T10:21:35.999Z</time></trkpt><trkpt lat="45.77102817417142" lon="9.834414082078748"><ele>593.0</ele><time>2026-04-04T10:21:36.999Z</time></trkpt><trkpt lat="45.77094886293061" lon="9.83436963240602"><ele>593.0</ele><time>2026-04-04T10:21:37.999Z</time></trkpt><trkpt lat="45.77086164637312" lon="9.834333489993556"><ele>593.0</ele><time>2026-04-04T10:21:38.999Z</time></trkpt><trkpt lat="45.77077292463601" lon="9.834278722634382"><ele>583.8</ele><time>2026-04-04T10:21:39.999Z</time></trkpt><trkpt lat="45.77068219670889" lon="9.834224742881165"><ele>574.5999999999999</ele><time>2026-04-04T10:21:40.999Z</time></trkpt><trkpt lat="45.7705962578029" lon="9.834166253830857"><ele>565.4000000000001</ele><time>2026-04-04T10:21:41.999Z</time></trkpt><trkpt lat="45.77050795946362" lon="9.8341070883308"><ele>556.2</ele><time>2026-04-04T10:21:42.999Z</time></trkpt><trkpt lat="45.77043637036512" lon="9.833992349942006"><ele>547.0</ele><time>2026-04-04T10:21:43.999Z</time></trkpt><trkpt lat="45.77035537197619" lon="9.833914640741245"><ele>547.0</ele><time>2026-04-04T10:21:44.999Z</time></trkpt><trkpt lat="45.77028327964876" lon="9.833831095575967"><ele>547.0</ele><time>2026-04-04T10:21:45.999Z</time></trkpt><trkpt lat="45.77022187205028" lon="9.83375027591389"><ele>547.0</ele><time>2026-04-04T10:21:46.999Z</time></trkpt><trkpt lat="45.77017118344949" lon="9.833675213945481"><ele>547.0</ele><time>2026-04-04T10:21:47.999Z</time></trkpt><trkpt lat="45.770109727844286" lon="9.833559236072267"><ele>547.0</ele><time>2026-04-04T10:21:49.998Z</time></trkpt><trkpt lat="45.77015741929535" lon="9.833472983144667"><ele>547.0</ele><time>2026-04-04T10:21:51.998Z</time></trkpt><trkpt lat="45.77022632737962" lon="9.8334805668442"><ele>547.0</ele><time>2026-04-04T10:21:52.998Z</time></trkpt><trkpt lat="45.77028568162555" lon="9.833590731549322"><ele>547.0</ele><time>2026-04-04T10:21:53.998Z</time></trkpt><trkpt lat="45.77034396103024" lon="9.833663602501856"><ele>547.0</ele><time>2026-04-04T10:21:54.998Z</time></trkpt><trkpt lat="45.77041679266726" lon="9.833712788305627"><ele>547.0</ele><time>2026-04-04T10:21:55.998Z</time></trkpt><trkpt lat="45.77049278823722" lon="9.83373353746151"><ele>547.0</ele><time>2026-04-04T10:21:56.998Z</time></trkpt><trkpt lat="45.77056488406081" lon="9.833742151304403"><ele>547.0</ele><time>2026-04-04T10:21:57.998Z</time></trkpt><trkpt lat="45.77064199966667" lon="9.833752220658596"><ele>547.0</ele><time>2026-04-04T10:21:58.998Z</time></trkpt><trkpt lat="45.77072211152508" lon="9.83377023133242"><ele>547.0</ele><time>2026-04-04T10:21:59.998Z</time></trkpt><trkpt lat="45.77080718364841" lon="9.833777877074748"><ele>547.0</ele><time>2026-04-04T10:22:00.998Z</time></trkpt><trkpt lat="45.77089909036841" lon="9.833784291968907"><ele>547.0</ele><time>2026-04-04T10:22:01.998Z</time></trkpt><trkpt lat="45.77099407924229" lon="9.833778334807702"><ele>547.0</ele><time>2026-04-04T10:22:02.998Z</time></trkpt><trkpt lat="45.771091626261516" lon="9.833732910208104"><ele>550.0</ele><time>2026-04-04T10:22:03.998Z</time></trkpt><trkpt lat="45.77118290801794" lon="9.833649620458763"><ele>553.0</ele><time>2026-04-04T10:22:04.998Z</time></trkpt><trkpt lat="45.771270690477756" lon="9.833549444523056"><ele>556.0</ele><time>2026-04-04T10:22:05.998Z</time></trkpt><trkpt lat="45.77135691347949" lon="9.833441809462169"><ele>559.0</ele><time>2026-04-04T10:22:06.998Z</time></trkpt><trkpt lat="45.771441031936476" lon="9.833315371806394"><ele>550.75</ele><time>2026-04-04T10:22:07.998Z</time></trkpt><trkpt lat="45.7715218368141" lon="9.833174707561605"><ele>542.5</ele><time>2026-04-04T10:22:08.998Z</time></trkpt><trkpt lat="45.771597196820395" lon="9.833024516962636"><ele>534.25</ele><time>2026-04-04T10:22:09.998Z</time></trkpt><trkpt lat="45.77167397503328" lon="9.832887749558447"><ele>526.0</ele><time>2026-04-04T10:22:10.998Z</time></trkpt><trkpt lat="45.77172560289291" lon="9.8327223823644"><ele>521.0</ele><time>2026-04-04T10:22:11.998Z</time></trkpt><trkpt lat="45.77174703202737" lon="9.832539578656096"><ele>516.0</ele><time>2026-04-04T10:22:12.998Z</time></trkpt><trkpt lat="45.771767292781924" lon="9.832370101735314"><ele>511.0</ele><time>2026-04-04T10:22:13.998Z</time></trkpt><trkpt lat="45.77180018552444" lon="9.832199651672257"><ele>506.0</ele><time>2026-04-04T10:22:14.998Z</time></trkpt><trkpt lat="45.771834243905786" lon="9.8320349849974"><ele>506.0</ele><time>2026-04-04T10:22:15.998Z</time></trkpt><trkpt lat="45.771835957681795" lon="9.831862217229926"><ele>506.0</ele><time>2026-04-04T10:22:16.998Z</time></trkpt><trkpt lat="45.77184970281577" lon="9.83168754473437"><ele>506.0</ele><time>2026-04-04T10:22:17.998Z</time></trkpt><trkpt lat="45.77183740402315" lon="9.831505609985312"><ele>506.0</ele><time>2026-04-04T10:22:18.998Z</time></trkpt><trkpt lat="45.771820688191944" lon="9.831329227421275"><ele>504.5</ele><time>2026-04-04T10:22:19.998Z</time></trkpt><trkpt lat="45.771800984282294" lon="9.831157072926276"><ele>503.0</ele><time>2026-04-04T10:22:20.998Z</time></trkpt><trkpt lat="45.77178339520169" lon="9.830983925320762"><ele>501.5</ele><time>2026-04-04T10:22:21.998Z</time></trkpt><trkpt lat="45.77175131785736" lon="9.830814863238688"><ele>500.0</ele><time>2026-04-04T10:22:22.998Z</time></trkpt><trkpt lat="45.77173123354769" lon="9.83064898586912"><ele>497.5</ele><time>2026-04-04T10:22:23.998Z</time></trkpt><trkpt lat="45.771713862309866" lon="9.830485703798884"><ele>495.0</ele><time>2026-04-04T10:22:24.998Z</time></trkpt><trkpt lat="45.771689226924664" lon="9.830326431319778"><ele>492.5</ele><time>2026-04-04T10:22:25.998Z</time></trkpt><trkpt lat="45.77166355286396" lon="9.830169632157132"><ele>490.0</ele><time>2026-04-04T10:22:26.998Z</time></trkpt><trkpt lat="45.771633000923345" lon="9.830015922758777"><ele>489.0</ele><time>2026-04-04T10:22:27.998Z</time></trkpt><trkpt lat="45.77160352670912" lon="9.82987501816729"><ele>488.0</ele><time>2026-04-04T10:22:28.998Z</time></trkpt><trkpt lat="45.77156799980633" lon="9.829748522700042"><ele>487.0</ele><time>2026-04-04T10:22:29.998Z</time></trkpt><trkpt lat="45.77153011235418" lon="9.829622063909346"><ele>486.0</ele><time>2026-04-04T10:22:30.998Z</time></trkpt><trkpt lat="45.77148046814827" lon="9.829476279712587"><ele>485.0</ele><time>2026-04-04T10:22:31.998Z</time></trkpt><trkpt lat="45.771402108356384" lon="9.829350297623149"><ele>484.4</ele><time>2026-04-04T10:22:32.998Z</time></trkpt><trkpt lat="45.77128719529282" lon="9.82928420815276"><ele>483.8</ele><time>2026-04-04T10:22:33.998Z</time></trkpt><trkpt lat="45.771201601150075" lon="9.829193726082375"><ele>483.20000000000005</ele><time>2026-04-04T10:22:35Z</time></trkpt><trkpt lat="45.77112812209498" lon="9.829093221540179"><ele>482.6</ele><time>2026-04-04T10:22:36Z</time></trkpt><trkpt lat="45.77106561519511" lon="9.828973972970838"><ele>482.0</ele><time>2026-04-04T10:22:37Z</time></trkpt><trkpt lat="45.77101467518473" lon="9.82884051920207"><ele>478.25</ele><time>2026-04-04T10:22:38Z</time></trkpt><trkpt lat="45.77095560528914" lon="9.828709268999988"><ele>474.5</ele><time>2026-04-04T10:22:39Z</time></trkpt><trkpt lat="45.77087891110644" lon="9.828587615978977"><ele>470.75</ele><time>2026-04-04T10:22:40Z</time></trkpt><trkpt lat="45.77079686957217" lon="9.828473634921673"><ele>467.0</ele><time>2026-04-04T10:22:41Z</time></trkpt><trkpt lat="45.77071509896455" lon="9.828352032862416"><ele>467.0</ele><time>2026-04-04T10:22:42Z</time></trkpt><trkpt lat="45.77063635983146" lon="9.82822816207139"><ele>467.00000000000006</ele><time>2026-04-04T10:22:43Z</time></trkpt><trkpt lat="45.77056588339711" lon="9.828104585283015"><ele>467.00000000000006</ele><time>2026-04-04T10:22:44Z</time></trkpt><trkpt lat="45.770496328245414" lon="9.827991145039665"><ele>467.0</ele><time>2026-04-04T10:22:45Z</time></trkpt><trkpt lat="45.77043078158552" lon="9.82788926683071"><ele>467.0</ele><time>2026-04-04T10:22:46Z</time></trkpt><trkpt lat="45.77037521931288" lon="9.82779677481824"><ele>466.99999999999994</ele><time>2026-04-04T10:22:47Z</time></trkpt><trkpt lat="45.770311494954015" lon="9.827721951244351"><ele>467.0</ele><time>2026-04-04T10:22:48Z</time></trkpt><trkpt lat="45.770251917444966" lon="9.82764504613978"><ele>467.0</ele><time>2026-04-04T10:22:49Z</time></trkpt><trkpt lat="45.770195259656965" lon="9.827541317212587"><ele>467.0</ele><time>2026-04-04T10:22:50Z</time></trkpt><trkpt lat="45.770126950502195" lon="9.827452758801362"><ele>466.99999999999994</ele><time>2026-04-04T10:22:51Z</time></trkpt><trkpt lat="45.77005660773271" lon="9.82736752409214"><ele>467.0</ele><time>2026-04-04T10:22:52Z</time></trkpt><trkpt lat="45.76997942041873" lon="9.827288014387287"><ele>465.8</ele><time>2026-04-04T10:22:53Z</time></trkpt><trkpt lat="45.76989952038263" lon="9.827213345298617"><ele>464.6</ele><time>2026-04-04T10:22:54Z</time></trkpt><trkpt lat="45.76981209660239" lon="9.827160956284533"><ele>463.40000000000003</ele><time>2026-04-04T10:22:55Z</time></trkpt><trkpt lat="45.76973376045383" lon="9.827078717249638"><ele>462.20000000000005</ele><time>2026-04-04T10:22:56Z</time></trkpt><trkpt lat="45.769665565695675" lon="9.826995754267521"><ele>461.0</ele><time>2026-04-04T10:22:57Z</time></trkpt><trkpt lat="45.76962327622607" lon="9.826898665702505"><ele>460.3333333333333</ele><time>2026-04-04T10:22:58Z</time></trkpt><trkpt lat="45.76959815225479" lon="9.82679381710554"><ele>459.66666666666663</ele><time>2026-04-04T10:22:59Z</time></trkpt><trkpt lat="45.76957153583518" lon="9.826681183439273"><ele>459.0</ele><time>2026-04-04T10:23:00Z</time></trkpt><trkpt lat="45.769536293485515" lon="9.826568187531828"><ele>458.33333333333337</ele><time>2026-04-04T10:23:01Z</time></trkpt><trkpt lat="45.76950574208189" lon="9.82645557211606"><ele>457.6666666666667</ele><time>2026-04-04T10:23:02Z</time></trkpt><trkpt lat="45.76947842301593" lon="9.826346127594988"><ele>457.0</ele><time>2026-04-04T10:23:02.999Z</time></trkpt><trkpt lat="45.769459497534484" lon="9.826241123000118"><ele>457.00000000000006</ele><time>2026-04-04T10:23:03.999Z</time></trkpt><trkpt lat="45.76944583868232" lon="9.82612894710928"><ele>457.0</ele><time>2026-04-04T10:23:04.999Z</time></trkpt><trkpt lat="45.769435718212215" lon="9.826037788227664"><ele>457.0</ele><time>2026-04-04T10:23:05.999Z</time></trkpt><trkpt lat="45.76942194840231" lon="9.825902771613155"><ele>457.0</ele><time>2026-04-04T10:23:07.999Z</time></trkpt><trkpt lat="45.769461525819594" lon="9.82582025173158"><ele>457.00000000000006</ele><time>2026-04-04T10:27:48.999Z</time></trkpt><trkpt lat="45.769537788118676" lon="9.825744922716494"><ele>457.0</ele><time>2026-04-04T10:27:52.999Z</time></trkpt><trkpt lat="45.769628969348524" lon="9.82566068400102"><ele>456.00000000000006</ele><time>2026-04-04T10:27:54.999Z</time></trkpt><trkpt lat="45.769684909687655" lon="9.825598624424646"><ele>455.0</ele><time>2026-04-04T10:27:55.999Z</time></trkpt><trkpt lat="45.769741203939674" lon="9.825521445481668"><ele>454.0</ele><time>2026-04-04T10:27:56.999Z</time></trkpt><trkpt lat="45.76979454774242" lon="9.825439317450956"><ele>453.0</ele><time>2026-04-04T10:27:57.999Z</time></trkpt><trkpt lat="45.76985114115446" lon="9.825367905203287"><ele>452.00000000000006</ele><time>2026-04-04T10:27:58.999Z</time></trkpt><trkpt lat="45.769921023556904" lon="9.825322060664954"><ele>451.0</ele><time>2026-04-04T10:27:59.999Z</time></trkpt><trkpt lat="45.769998552606786" lon="9.825294671266454"><ele>451.00000000000006</ele><time>2026-04-04T10:28:00.999Z</time></trkpt><trkpt lat="45.77008043048294" lon="9.825277796198394"><ele>451.0</ele><time>2026-04-04T10:28:01.999Z</time></trkpt><trkpt lat="45.77016632150935" lon="9.825288032028451"><ele>451.0</ele><time>2026-04-04T10:28:02.998Z</time></trkpt><trkpt lat="45.77026098149687" lon="9.825300707921771"><ele>451.0</ele><time>2026-04-04T10:28:03.998Z</time></trkpt><trkpt lat="45.77034722335221" lon="9.825323160591829"><ele>451.00000000000006</ele><time>2026-04-04T10:28:04.998Z</time></trkpt><trkpt lat="45.77043363655165" lon="9.82535681474369"><ele>451.0</ele><time>2026-04-04T10:28:05.998Z</time></trkpt><trkpt lat="45.770518073036975" lon="9.825406481480984"><ele>448.6666666666667</ele><time>2026-04-04T10:28:06.998Z</time></trkpt><trkpt lat="45.77059249211513" lon="9.825468361080723"><ele>446.33333333333337</ele><time>2026-04-04T10:28:07.998Z</time></trkpt><trkpt lat="45.77066361569205" lon="9.82551405719801"><ele>444.0</ele><time>2026-04-04T10:28:08.998Z</time></trkpt><trkpt lat="45.770737401138284" lon="9.825567271086694"><ele>441.66666666666663</ele><time>2026-04-04T10:28:09.998Z</time></trkpt><trkpt lat="45.77081206935982" lon="9.82564907355001"><ele>439.3333333333333</ele><time>2026-04-04T10:28:10.998Z</time></trkpt><trkpt lat="45.770878940514656" lon="9.82574898996153"><ele>437.0</ele><time>2026-04-04T10:28:11.998Z</time></trkpt><trkpt lat="45.77093402381889" lon="9.825867186793044"><ele>437.0</ele><time>2026-04-04T10:28:12.998Z</time></trkpt><trkpt lat="45.77098310679798" lon="9.825976126739526"><ele>437.00000000000006</ele><time>2026-04-04T10:28:13.998Z</time></trkpt><trkpt lat="45.77104540570461" lon="9.826049797038053"><ele>437.00000000000006</ele><time>2026-04-04T10:28:14.998Z</time></trkpt><trkpt lat="45.77111856724" lon="9.826119143331768"><ele>437.0</ele><time>2026-04-04T10:28:15.998Z</time></trkpt><trkpt lat="45.771203471435605" lon="9.826190497285936"><ele>437.0</ele><time>2026-04-04T10:28:16.998Z</time></trkpt><trkpt lat="45.77129084754664" lon="9.826259158226607"><ele>438.0</ele><time>2026-04-04T10:28:17.998Z</time></trkpt><trkpt lat="45.771369436405024" lon="9.826326316117832"><ele>439.00000000000006</ele><time>2026-04-04T10:28:18.998Z</time></trkpt><trkpt lat="45.77144643301668" lon="9.82637273283211"><ele>440.00000000000006</ele><time>2026-04-04T10:28:19.998Z</time></trkpt><trkpt lat="45.77153216677086" lon="9.826391599386685"><ele>441.0</ele><time>2026-04-04T10:28:20.998Z</time></trkpt><trkpt lat="45.77162745591243" lon="9.826333899163494"><ele>442.0</ele><time>2026-04-04T10:28:21.998Z</time></trkpt><trkpt lat="45.771736634621405" lon="9.826287463810033"><ele>442.0</ele><time>2026-04-04T10:28:22.998Z</time></trkpt><trkpt lat="45.77183487188571" lon="9.826240594934264"><ele>442.00000000000006</ele><time>2026-04-04T10:28:23.998Z</time></trkpt><trkpt lat="45.77193620730427" lon="9.826196878083131"><ele>442.00000000000006</ele><time>2026-04-04T10:28:24.998Z</time></trkpt><trkpt lat="45.772035219771105" lon="9.826146620586849"><ele>442.0</ele><time>2026-04-04T10:28:25.998Z</time></trkpt><trkpt lat="45.77213245725997" lon="9.826105462465598"><ele>442.0</ele><time>2026-04-04T10:28:26.998Z</time></trkpt><trkpt lat="45.77222697388758" lon="9.826077636552412"><ele>439.6666666666667</ele><time>2026-04-04T10:28:27.998Z</time></trkpt><trkpt lat="45.772318027548074" lon="9.826052190638483"><ele>437.33333333333337</ele><time>2026-04-04T10:28:28.998Z</time></trkpt><trkpt lat="45.77240947319443" lon="9.826030727545968"><ele>435.0</ele><time>2026-04-04T10:28:29.998Z</time></trkpt><trkpt lat="45.77250313614897" lon="9.826025332803676"><ele>432.66666666666663</ele><time>2026-04-04T10:28:30.998Z</time></trkpt><trkpt lat="45.77258739854099" lon="9.826020898126401"><ele>430.3333333333333</ele><time>2026-04-04T10:28:31.998Z</time></trkpt><trkpt lat="45.7726634816674" lon="9.826027722657454"><ele>428.0</ele><time>2026-04-04T10:28:32.998Z</time></trkpt><trkpt lat="45.77274416382416" lon="9.826074058691276"><ele>426.2</ele><time>2026-04-04T10:28:33.998Z</time></trkpt><trkpt lat="45.77281248886384" lon="9.82614373592867"><ele>424.4</ele><time>2026-04-04T10:28:34.998Z</time></trkpt><trkpt lat="45.7728812349789" lon="9.826227925252592"><ele>422.59999999999997</ele><time>2026-04-04T10:28:35.998Z</time></trkpt><trkpt lat="45.77295799972607" lon="9.826298988101023"><ele>420.79999999999995</ele><time>2026-04-04T10:28:36.998Z</time></trkpt><trkpt lat="45.773049341478426" lon="9.82634686003917"><ele>419.0</ele><time>2026-04-04T10:28:37.998Z</time></trkpt><trkpt lat="45.77315545175086" lon="9.826368414094437"><ele>419.0</ele><time>2026-04-04T10:28:38.998Z</time></trkpt><trkpt lat="45.77326644237498" lon="9.826369688687992"><ele>419.0</ele><time>2026-04-04T10:28:39.998Z</time></trkpt><trkpt lat="45.77338564219534" lon="9.826368852415436"><ele>419.0</ele><time>2026-04-04T10:28:40.998Z</time></trkpt><trkpt lat="45.773503042310494" lon="9.826369835658525"><ele>419.0</ele><time>2026-04-04T10:28:41.998Z</time></trkpt><trkpt lat="45.77362088312377" lon="9.826376483594913"><ele>415.5</ele><time>2026-04-04T10:28:42.998Z</time></trkpt><trkpt lat="45.773738674624035" lon="9.826381326732317"><ele>412.0</ele><time>2026-04-04T10:28:43.998Z</time></trkpt><trkpt lat="45.77386091133389" lon="9.826375735896388"><ele>408.5</ele><time>2026-04-04T10:28:44.998Z</time></trkpt><trkpt lat="45.77397697304981" lon="9.826385007397986"><ele>405.0</ele><time>2026-04-04T10:28:45.998Z</time></trkpt><trkpt lat="45.774086286548616" lon="9.826384680721237"><ele>405.0</ele><time>2026-04-04T10:28:46.998Z</time></trkpt><trkpt lat="45.774194496872376" lon="9.826374550637297"><ele>405.0</ele><time>2026-04-04T10:28:47.998Z</time></trkpt><trkpt lat="45.77429557646518" lon="9.826363706755332"><ele>405.0</ele><time>2026-04-04T10:28:48.998Z</time></trkpt><trkpt lat="45.77439041459007" lon="9.826324145971915"><ele>405.0</ele><time>2026-04-04T10:28:49.998Z</time></trkpt><trkpt lat="45.77447876058371" lon="9.826272399193337"><ele>405.0</ele><time>2026-04-04T10:28:50.998Z</time></trkpt><trkpt lat="45.77456276248374" lon="9.826233948382042"><ele>400.8333333333333</ele><time>2026-04-04T10:28:51.998Z</time></trkpt><trkpt lat="45.77464811942059" lon="9.826235487421314"><ele>396.6666666666667</ele><time>2026-04-04T10:28:53Z</time></trkpt><trkpt lat="45.77473076072929" lon="9.826249550975595"><ele>392.5</ele><time>2026-04-04T10:28:54Z</time></trkpt><trkpt lat="45.77480369693853" lon="9.826288068111124"><ele>388.33333333333337</ele><time>2026-04-04T10:28:55Z</time></trkpt><trkpt lat="45.77484112336132" lon="9.826438083405364"><ele>384.1666666666667</ele><time>2026-04-04T10:28:56Z</time></trkpt><trkpt lat="45.77488572726103" lon="9.826539747982995"><ele>380.0</ele><time>2026-04-04T10:28:57Z</time></trkpt><trkpt lat="45.77493492974307" lon="9.826618739073991"><ele>380.0</ele><time>2026-04-04T10:28:58Z</time></trkpt><trkpt lat="45.77499844009326" lon="9.826669824955527"><ele>380.0</ele><time>2026-04-04T10:28:59Z</time></trkpt><trkpt lat="45.775074193348054" lon="9.82663659172297"><ele>380.0</ele><time>2026-04-04T10:29:00Z</time></trkpt><trkpt lat="45.77515580438397" lon="9.826634762485096"><ele>380.0</ele><time>2026-04-04T10:29:01Z</time></trkpt><trkpt lat="45.77523719878509" lon="9.826620497117261"><ele>380.0</ele><time>2026-04-04T10:29:02Z</time></trkpt><trkpt lat="45.77532573234749" lon="9.826633689568347"><ele>380.0</ele><time>2026-04-04T10:29:03Z</time></trkpt><trkpt lat="45.775415722881064" lon="9.826631237866819"><ele>379.5</ele><time>2026-04-04T10:29:04Z</time></trkpt><trkpt lat="45.77550800911958" lon="9.826642390912053"><ele>379.0</ele><time>2026-04-04T10:29:05Z</time></trkpt><trkpt lat="45.77559692945271" lon="9.826644338249753"><ele>378.5</ele><time>2026-04-04T10:29:06Z</time></trkpt><trkpt lat="45.77567121600256" lon="9.826653225435292"><ele>378.0</ele><time>2026-04-04T10:29:07Z</time></trkpt><trkpt lat="45.77574593707232" lon="9.826651402718213"><ele>377.5</ele><time>2026-04-04T10:29:08Z</time></trkpt><trkpt lat="45.77580825361183" lon="9.826618227551078"><ele>377.0</ele><time>2026-04-04T10:29:09Z</time></trkpt><trkpt lat="45.77588146641033" lon="9.826707494048124"><ele>376.99999999999994</ele><time>2026-04-04T10:29:10Z</time></trkpt><trkpt lat="45.77594441007013" lon="9.826749760554508"><ele>377.0</ele><time>2026-04-04T10:29:11Z</time></trkpt><trkpt lat="45.77600914450247" lon="9.826787239073495"><ele>377.0</ele><time>2026-04-04T10:29:12Z</time></trkpt><trkpt lat="45.77607181464099" lon="9.826836421455232"><ele>377.0</ele><time>2026-04-04T10:29:13Z</time></trkpt><trkpt lat="45.77614023913217" lon="9.826873944048101"><ele>377.0</ele><time>2026-04-04T10:29:14Z</time></trkpt><trkpt lat="45.77621133560019" lon="9.826901334404702"><ele>376.99999999999994</ele><time>2026-04-04T10:29:14.999Z</time></trkpt><trkpt lat="45.77628109409952" lon="9.826927094887006"><ele>377.0</ele><time>2026-04-04T10:29:15.999Z</time></trkpt><trkpt lat="45.77635615994053" lon="9.826931662829354"><ele>377.6</ele><time>2026-04-04T10:29:16.999Z</time></trkpt><trkpt lat="45.776424985293815" lon="9.82692645521751"><ele>378.20000000000005</ele><time>2026-04-04T10:29:17.999Z</time></trkpt><trkpt lat="45.77653874882877" lon="9.826899536090052"><ele>378.8</ele><time>2026-04-04T10:29:19.999Z</time></trkpt><trkpt lat="45.776630005665325" lon="9.826861635351449"><ele>379.4</ele><time>2026-04-04T10:29:21.999Z</time></trkpt><trkpt lat="45.77672648352077" lon="9.826878829947203"><ele>380.0</ele><time>2026-04-04T10:29:23.999Z</time></trkpt><trkpt lat="45.77680584212359" lon="9.826909020252657"><ele>379.0</ele><time>2026-04-04T10:29:25.999Z</time></trkpt><trkpt lat="45.77688188989466" lon="9.826919900278616"><ele>378.0</ele><time>2026-04-04T10:29:27.999Z</time></trkpt><trkpt lat="45.77694414155296" lon="9.826951088049382"><ele>377.0</ele><time>2026-04-04T10:29:29.999Z</time></trkpt><trkpt lat="45.777006876728485" lon="9.826999951592631"><ele>376.0</ele><time>2026-04-04T10:29:31.999Z</time></trkpt><trkpt lat="45.77707935676207" lon="9.82707130191552"><ele>375.0</ele><time>2026-04-04T10:29:33.999Z</time></trkpt><trkpt lat="45.77715265188855" lon="9.827189888658825"><ele>374.0</ele><time>2026-04-04T10:29:35.999Z</time></trkpt><trkpt lat="45.77723880384954" lon="9.827288532484522"><ele>374.0</ele><time>2026-04-04T10:29:37.999Z</time></trkpt><trkpt lat="45.77729413709758" lon="9.827331673406212"><ele>374.0</ele><time>2026-04-04T10:29:38.999Z</time></trkpt><trkpt lat="45.777355069479334" lon="9.82737620269715"><ele>374.0</ele><time>2026-04-04T10:29:39.999Z</time></trkpt><trkpt lat="45.77742149597896" lon="9.827414197121394"><ele>374.0</ele><time>2026-04-04T10:29:40.999Z</time></trkpt><trkpt lat="45.777487890993704" lon="9.82745305112163"><ele>374.0</ele><time>2026-04-04T10:29:41.999Z</time></trkpt><trkpt lat="45.777561257742455" lon="9.8274682344564"><ele>374.0</ele><time>2026-04-04T10:29:42.999Z</time></trkpt><trkpt lat="45.777641412616724" lon="9.827488228564675"><ele>374.0</ele><time>2026-04-04T10:29:43.999Z</time></trkpt><trkpt lat="45.77772221111175" lon="9.827512923256311"><ele>373.33333333333337</ele><time>2026-04-04T10:29:44.999Z</time></trkpt><trkpt lat="45.7778091558485" lon="9.827536396621767"><ele>372.6666666666667</ele><time>2026-04-04T10:29:45.999Z</time></trkpt><trkpt lat="45.77789668593956" lon="9.827558576237728"><ele>372.0</ele><time>2026-04-04T10:29:46.999Z</time></trkpt><trkpt lat="45.77797614897716" lon="9.827588672089668"><ele>371.3333333333333</ele><time>2026-04-04T10:29:47.999Z</time></trkpt><trkpt lat="45.778046029351955" lon="9.827633507208867"><ele>370.66666666666663</ele><time>2026-04-04T10:29:48.999Z</time></trkpt><trkpt lat="45.77811078589524" lon="9.827677913633567"><ele>370.0</ele><time>2026-04-04T10:29:49.999Z</time></trkpt><trkpt lat="45.77819499135659" lon="9.82766252820294"><ele>370.0</ele><time>2026-04-04T10:29:50.999Z</time></trkpt><trkpt lat="45.77825736856548" lon="9.827697291903823"><ele>370.0</ele><time>2026-04-04T10:29:51.999Z</time></trkpt><trkpt lat="45.77832753594308" lon="9.827725326559957"><ele>370.0</ele><time>2026-04-04T10:29:52.999Z</time></trkpt><trkpt lat="45.778394210893644" lon="9.82774968170018"><ele>370.0</ele><time>2026-04-04T10:29:53.999Z</time></trkpt><trkpt lat="45.77849712736593" lon="9.827734235991764"><ele>370.0</ele><time>2026-04-04T10:29:55.999Z</time></trkpt><trkpt lat="45.77854727397222" lon="9.82765827550692"><ele>370.0</ele><time>2026-04-04T10:29:56.999Z</time></trkpt><trkpt lat="45.778602646199886" lon="9.82759689825463"><ele>369.4285714285714</ele><time>2026-04-04T10:29:57.999Z</time></trkpt><trkpt lat="45.77866538344524" lon="9.827554156985006"><ele>368.85714285714283</ele><time>2026-04-04T10:29:58.999Z</time></trkpt><trkpt lat="45.77871346060507" lon="9.8274876454398"><ele>368.2857142857143</ele><time>2026-04-04T10:29:59.999Z</time></trkpt><trkpt lat="45.77875242688979" lon="9.827408036553537"><ele>367.71428571428567</ele><time>2026-04-04T10:30:00.999Z</time></trkpt><trkpt lat="45.7787891285331" lon="9.827327578506432"><ele>367.14285714285717</ele><time>2026-04-04T10:30:01.999Z</time></trkpt><trkpt lat="45.77882838150189" lon="9.827242304422473"><ele>366.57142857142856</ele><time>2026-04-04T10:30:02.999Z</time></trkpt><trkpt lat="45.778853816441426" lon="9.827152731701188"><ele>366.0</ele><time>2026-04-04T10:30:03.999Z</time></trkpt><trkpt lat="45.7788783581229" lon="9.827062634369298"><ele>366.0</ele><time>2026-04-04T10:30:04.999Z</time></trkpt><trkpt lat="45.77889094248454" lon="9.826875224138352"><ele>366.0</ele><time>2026-04-04T10:30:06.999Z</time></trkpt><trkpt lat="45.77892553892405" lon="9.826720045077826"><ele>366.0</ele><time>2026-04-04T10:30:08.998Z</time></trkpt><trkpt lat="45.77898452459662" lon="9.826598643343088"><ele>366.0</ele><time>2026-04-04T10:30:10.998Z</time></trkpt><trkpt lat="45.7790438242603" lon="9.82650731078214"><ele>366.0</ele><time>2026-04-04T10:30:12.998Z</time></trkpt><trkpt lat="45.779109378641174" lon="9.82644820247649"><ele>365.8333333333333</ele><time>2026-04-04T10:30:14.998Z</time></trkpt><trkpt lat="45.779185045533005" lon="9.826388526554737"><ele>365.6666666666667</ele><time>2026-04-04T10:30:17.998Z</time></trkpt><trkpt lat="45.779264726243326" lon="9.826344030749578"><ele>365.5</ele><time>2026-04-04T10:30:20.998Z</time></trkpt><trkpt lat="45.779329346225595" lon="9.826362803476126"><ele>365.33333333333337</ele><time>2026-04-04T10:30:23.998Z</time></trkpt><trkpt lat="45.77939319954327" lon="9.826383404520787"><ele>365.1666666666667</ele><time>2026-04-04T10:30:25.998Z</time></trkpt><trkpt lat="45.77946584384277" lon="9.826408566587064"><ele>365.0</ele><time>2026-04-04T10:30:28.998Z</time></trkpt><trkpt lat="45.779535218704574" lon="9.826456334216305"><ele>366.0</ele><time>2026-04-04T10:30:31.998Z</time></trkpt><trkpt lat="45.779597740699224" lon="9.826472795488474"><ele>367.0</ele><time>2026-04-04T10:30:33.998Z</time></trkpt><trkpt lat="45.77967170083989" lon="9.826521400791526"><ele>368.0</ele><time>2026-04-04T10:30:35.998Z</time></trkpt><trkpt lat="45.77969735621552" lon="9.826637482522196"><ele>369.0</ele><time>2026-04-04T10:30:38.998Z</time></trkpt><trkpt lat="45.7797047865664" lon="9.826767825429544"><ele>370.0</ele><time>2026-04-04T10:30:41.998Z</time></trkpt><trkpt lat="45.77972370109921" lon="9.826859877266582"><ele>371.0</ele><time>2026-04-04T10:30:43.998Z</time></trkpt><trkpt lat="45.779753267131916" lon="9.826984802878389"><ele>371.1666666666667</ele><time>2026-04-04T10:30:46.998Z</time></trkpt><trkpt lat="45.779747337793665" lon="9.82710824915863"><ele>371.33333333333337</ele><time>2026-04-04T10:30:49.998Z</time></trkpt><trkpt lat="45.77975481156785" lon="9.827202300837143"><ele>371.5</ele><time>2026-04-04T10:30:51.998Z</time></trkpt><trkpt lat="45.77977322992547" lon="9.827300493771121"><ele>371.6666666666667</ele><time>2026-04-04T10:30:53.998Z</time></trkpt><trkpt lat="45.77980201198499" lon="9.82740132566444"><ele>371.8333333333333</ele><time>2026-04-04T10:30:55.998Z</time></trkpt><trkpt lat="45.77983206699272" lon="9.827502625726511"><ele>372.0</ele><time>2026-04-04T10:30:58Z</time></trkpt><trkpt lat="45.779873094112574" lon="9.827598138519285"><ele>371.7142857142857</ele><time>2026-04-04T10:31:00Z</time></trkpt><trkpt lat="45.779908561591625" lon="9.827685480537843"><ele>371.42857142857144</ele><time>2026-04-04T10:31:02Z</time></trkpt><trkpt lat="45.779949643962745" lon="9.827764947205862"><ele>371.1428571428571</ele><time>2026-04-04T10:31:04Z</time></trkpt><trkpt lat="45.78000708186266" lon="9.8278626081711"><ele>370.8571428571429</ele><time>2026-04-04T10:31:06Z</time></trkpt><trkpt lat="45.780068778802494" lon="9.827935644585825"><ele>370.57142857142856</ele><time>2026-04-04T10:31:08Z</time></trkpt><trkpt lat="45.78012515604395" lon="9.82798509861571"><ele>370.2857142857143</ele><time>2026-04-04T10:31:10Z</time></trkpt><trkpt lat="45.78018359013884" lon="9.828028678237079"><ele>370.0</ele><time>2026-04-04T10:31:12Z</time></trkpt><trkpt lat="45.78026571622788" lon="9.828075606925015"><ele>371.0</ele><time>2026-04-04T10:31:15Z</time></trkpt><trkpt lat="45.780341281468225" lon="9.82811234953799"><ele>372.0</ele><time>2026-04-04T10:31:17.999Z</time></trkpt><trkpt lat="45.780421866163664" lon="9.828165444148732"><ele>373.0</ele><time>2026-04-04T10:31:20.999Z</time></trkpt><trkpt lat="45.78050709864544" lon="9.828203050874256"><ele>374.0</ele><time>2026-04-04T10:31:23.999Z</time></trkpt><trkpt lat="45.780591857793745" lon="9.828234198480143"><ele>375.0</ele><time>2026-04-04T10:31:26.999Z</time></trkpt><trkpt lat="45.78067507785511" lon="9.828249960286115"><ele>376.0</ele><time>2026-04-04T10:31:29.999Z</time></trkpt><trkpt lat="45.78077587815433" lon="9.828285719325777"><ele>376.0</ele><time>2026-04-04T10:31:33.999Z</time></trkpt><trkpt lat="45.78085850861125" lon="9.828317906588667"><ele>376.0</ele><time>2026-04-04T10:31:36.999Z</time></trkpt><trkpt lat="45.780936755109515" lon="9.82833962858684"><ele>376.0</ele><time>2026-04-04T10:31:39.999Z</time></trkpt><trkpt lat="45.78100844368729" lon="9.828365169740492"><ele>376.0</ele><time>2026-04-04T10:31:42.999Z</time></trkpt><trkpt lat="45.78108119751569" lon="9.828378721050147"><ele>376.0</ele><time>2026-04-04T10:31:45.999Z</time></trkpt><trkpt lat="45.781159411586174" lon="9.828390938279451"><ele>376.0</ele><time>2026-04-04T10:31:48.999Z</time></trkpt><trkpt lat="45.78124160748975" lon="9.828407768285363"><ele>377.8333333333333</ele><time>2026-04-04T10:31:51.999Z</time></trkpt><trkpt lat="45.78132616304015" lon="9.828429342777845"><ele>379.66666666666663</ele><time>2026-04-04T10:31:54.999Z</time></trkpt><trkpt lat="45.78140261581183" lon="9.82846943747297"><ele>381.5</ele><time>2026-04-04T10:31:57.999Z</time></trkpt><trkpt lat="45.78147131875144" lon="9.828518147133265"><ele>383.3333333333333</ele><time>2026-04-04T10:32:00.999Z</time></trkpt><trkpt lat="45.78152841694874" lon="9.82855910860738"><ele>385.1666666666667</ele><time>2026-04-04T10:32:03.999Z</time></trkpt><trkpt lat="45.78159068335606" lon="9.828613074076413"><ele>387.0</ele><time>2026-04-04T10:32:06.999Z</time></trkpt><trkpt lat="45.781661654403884" lon="9.828677502481806"><ele>387.0</ele><time>2026-04-04T10:32:09.999Z</time></trkpt><trkpt lat="45.78171342613539" lon="9.828742052820427"><ele>387.0</ele><time>2026-04-04T10:32:12.998Z</time></trkpt><trkpt lat="45.78175462187348" lon="9.828835935169781"><ele>387.0</ele><time>2026-04-04T10:32:15.998Z</time></trkpt><trkpt lat="45.781770498756316" lon="9.828960362800835"><ele>387.0</ele><time>2026-04-04T10:32:18.998Z</time></trkpt><trkpt lat="45.781771534261324" lon="9.829084382445613"><ele>387.0</ele><time>2026-04-04T10:32:21.998Z</time></trkpt><trkpt lat="45.781777379582955" lon="9.829209907763211"><ele>387.0</ele><time>2026-04-04T10:32:24.998Z</time></trkpt><trkpt lat="45.78177634810473" lon="9.829314508236362"><ele>387.0</ele><time>2026-04-04T10:32:27.998Z</time></trkpt><trkpt lat="45.781810492007" lon="9.829461651073526"><ele>387.0</ele><time>2026-04-04T10:32:30.998Z</time></trkpt><trkpt lat="45.78184267498973" lon="9.829562209596036"><ele>387.0</ele><time>2026-04-04T10:32:33.998Z</time></trkpt><trkpt lat="45.781885325441216" lon="9.829654817906201"><ele>387.0</ele><time>2026-04-04T10:32:35.998Z</time></trkpt><trkpt lat="45.78193562232896" lon="9.829755980576905"><ele>387.0</ele><time>2026-04-04T10:32:38.998Z</time></trkpt><trkpt lat="45.78197915888086" lon="9.829847564118944"><ele>387.0</ele><time>2026-04-04T10:32:40.998Z</time></trkpt><trkpt lat="45.78202632933316" lon="9.8299470432665"><ele>389.5</ele><time>2026-04-04T10:32:43.998Z</time></trkpt><trkpt lat="45.782070006141105" lon="9.830046175452066"><ele>392.0</ele><time>2026-04-04T10:32:46.998Z</time></trkpt><trkpt lat="45.782115098859556" lon="9.83014458759843"><ele>394.5</ele><time>2026-04-04T10:32:48.998Z</time></trkpt><trkpt lat="45.78216533928457" lon="9.830254910247394"><ele>397.0</ele><time>2026-04-04T10:32:51.998Z</time></trkpt><trkpt lat="45.782203572895185" lon="9.830355235503601"><ele>399.5</ele><time>2026-04-04T10:32:54.998Z</time></trkpt><trkpt lat="45.78224239614785" lon="9.830445725402129"><ele>402.0</ele><time>2026-04-04T10:32:56.998Z</time></trkpt><trkpt lat="45.782289094286554" lon="9.830560742139324"><ele>402.0</ele><time>2026-04-04T10:32:59.998Z</time></trkpt><trkpt lat="45.78233541278311" lon="9.830670346965523"><ele>402.0</ele><time>2026-04-04T10:33:02.998Z</time></trkpt><trkpt lat="45.78238601211683" lon="9.830777423463108"><ele>402.0</ele><time>2026-04-04T10:33:06Z</time></trkpt><trkpt lat="45.782422448028726" lon="9.830861585561856"><ele>402.0</ele><time>2026-04-04T10:33:09Z</time></trkpt><trkpt lat="45.78246168541474" lon="9.830950113077606"><ele>402.0</ele><time>2026-04-04T10:33:11Z</time></trkpt><trkpt lat="45.78248840879374" lon="9.83103681461314"><ele>402.0</ele><time>2026-04-04T10:33:13Z</time></trkpt><trkpt lat="45.78252739882289" lon="9.831149312820976"><ele>402.0</ele><time>2026-04-04T10:33:16Z</time></trkpt><trkpt lat="45.782549012586664" lon="9.831270485833565"><ele>402.0</ele><time>2026-04-04T10:33:19Z</time></trkpt><trkpt lat="45.78255953734949" lon="9.83139002162869"><ele>402.0</ele><time>2026-04-04T10:33:21.999Z</time></trkpt><trkpt lat="45.782564127796064" lon="9.83150685608337"><ele>402.0</ele><time>2026-04-04T10:33:24.999Z</time></trkpt><trkpt lat="45.78255657863695" lon="9.83163273109748"><ele>402.0</ele><time>2026-04-04T10:33:27.999Z</time></trkpt><trkpt lat="45.78255521442128" lon="9.831758385413353"><ele>402.0</ele><time>2026-04-04T10:33:30.999Z</time></trkpt><trkpt lat="45.782548551466604" lon="9.831881271114497"><ele>402.5</ele><time>2026-04-04T10:33:33.999Z</time></trkpt><trkpt lat="45.782544088682585" lon="9.831971525769193"><ele>403.0</ele><time>2026-04-04T10:33:36.999Z</time></trkpt><trkpt lat="45.78254090101502" lon="9.832108620111027"><ele>403.5</ele><time>2026-04-04T10:33:39.999Z</time></trkpt><trkpt lat="45.78253099060337" lon="9.832213089747901"><ele>404.0</ele><time>2026-04-04T10:33:42.999Z</time></trkpt><trkpt lat="45.78252978245129" lon="9.832314685976243"><ele>404.5</ele><time>2026-04-04T10:33:44.999Z</time></trkpt><trkpt lat="45.782530731535665" lon="9.832425037268827"><ele>405.0</ele><time>2026-04-04T10:33:47.999Z</time></trkpt><trkpt lat="45.78253415877786" lon="9.832545861850587"><ele>404.99999999999994</ele><time>2026-04-04T10:33:50.999Z</time></trkpt><trkpt lat="45.782548530534825" lon="9.832666467158504"><ele>405.0</ele><time>2026-04-04T10:33:53.999Z</time></trkpt><trkpt lat="45.782550658068374" lon="9.832771739272031"><ele>405.0</ele><time>2026-04-04T10:33:55.999Z</time></trkpt><trkpt lat="45.782558338451985" lon="9.832866927078413"><ele>405.0</ele><time>2026-04-04T10:33:57.999Z</time></trkpt><trkpt lat="45.78256444684789" lon="9.832960269090878"><ele>405.0</ele><time>2026-04-04T10:33:59.999Z</time></trkpt><trkpt lat="45.78257482351651" lon="9.833052834772102"><ele>404.99999999999994</ele><time>2026-04-04T10:34:01.999Z</time></trkpt><trkpt lat="45.782583080511486" lon="9.833143664528611"><ele>405.0</ele><time>2026-04-04T10:34:03.999Z</time></trkpt><trkpt lat="45.78259305213499" lon="9.83323580148724"><ele>404.99999999999994</ele><time>2026-04-04T10:34:05.999Z</time></trkpt><trkpt lat="45.78260292222135" lon="9.833328056469954"><ele>405.0</ele><time>2026-04-04T10:34:07.999Z</time></trkpt><trkpt lat="45.78261100437946" lon="9.833419326830306"><ele>405.0</ele><time>2026-04-04T10:34:09.999Z</time></trkpt><trkpt lat="45.7826202252401" lon="9.833552413383611"><ele>405.0</ele><time>2026-04-04T10:34:12.999Z</time></trkpt><trkpt lat="45.782622388228546" lon="9.833642717653609"><ele>405.0</ele><time>2026-04-04T10:34:14.998Z</time></trkpt><trkpt lat="45.7826107456093" lon="9.833733904140045"><ele>404.99999999999994</ele><time>2026-04-04T10:34:16.998Z</time></trkpt><trkpt lat="45.78258897987754" lon="9.833821143543565"><ele>405.0</ele><time>2026-04-04T10:34:18.998Z</time></trkpt><trkpt lat="45.78255663846342" lon="9.83389913966969"><ele>407.1428571428571</ele><time>2026-04-04T10:34:20.998Z</time></trkpt><trkpt lat="45.782517815662786" lon="9.833979571254464"><ele>409.2857142857143</ele><time>2026-04-04T10:34:22.998Z</time></trkpt><trkpt lat="45.782478090748185" lon="9.834061893394093"><ele>411.42857142857144</ele><time>2026-04-04T10:34:24.998Z</time></trkpt><trkpt lat="45.78243852210819" lon="9.834143630429084"><ele>413.57142857142856</ele><time>2026-04-04T10:34:26.998Z</time></trkpt><trkpt lat="45.78239948077677" lon="9.834222427060443"><ele>415.7142857142857</ele><time>2026-04-04T10:34:28.998Z</time></trkpt><trkpt lat="45.78237093261605" lon="9.83431314449108"><ele>417.85714285714283</ele><time>2026-04-04T10:34:30.998Z</time></trkpt><trkpt lat="45.78235296749652" lon="9.83440813081869"><ele>420.0</ele><time>2026-04-04T10:34:32.998Z</time></trkpt><trkpt lat="45.78233568823099" lon="9.834504832774378"><ele>420.2857142857143</ele><time>2026-04-04T10:34:34.998Z</time></trkpt><trkpt lat="45.78231780930641" lon="9.834603604983295"><ele>420.57142857142856</ele><time>2026-04-04T10:34:36.998Z</time></trkpt><trkpt lat="45.78231798130055" lon="9.834705748312137"><ele>420.8571428571429</ele><time>2026-04-04T10:34:38.998Z</time></trkpt><trkpt lat="45.78233277188829" lon="9.834811616668993"><ele>421.1428571428571</ele><time>2026-04-04T10:34:40.998Z</time></trkpt><trkpt lat="45.782358871630755" lon="9.834913794093456"><ele>421.42857142857144</ele><time>2026-04-04T10:34:42.998Z</time></trkpt><trkpt lat="45.782391086041585" lon="9.835008954452713"><ele>421.7142857142857</ele><time>2026-04-04T10:34:44.998Z</time></trkpt><trkpt lat="45.78243257991169" lon="9.835097380798665"><ele>422.0</ele><time>2026-04-04T10:34:46.998Z</time></trkpt><trkpt lat="45.78247780590134" lon="9.835180642565419"><ele>422.0</ele><time>2026-04-04T10:34:48.998Z</time></trkpt><trkpt lat="45.78252302575617" lon="9.835257926861914"><ele>422.0</ele><time>2026-04-04T10:34:50.998Z</time></trkpt><trkpt lat="45.78256986817737" lon="9.835333950885493"><ele>422.0</ele><time>2026-04-04T10:34:52.998Z</time></trkpt><trkpt lat="45.7826263854618" lon="9.835395816041826"><ele>422.0</ele><time>2026-04-04T10:34:54.998Z</time></trkpt><trkpt lat="45.78265943489801" lon="9.83549201161103"><ele>422.0</ele><time>2026-04-04T10:34:56.998Z</time></trkpt><trkpt lat="45.782694916356434" lon="9.835571344117302"><ele>422.0</ele><time>2026-04-04T10:34:58.998Z</time></trkpt><trkpt lat="45.7827099618594" lon="9.83566887213876"><ele>422.0</ele><time>2026-04-04T10:35:00.998Z</time></trkpt><trkpt lat="45.78270979626553" lon="9.83577193926106"><ele>422.16666666666663</ele><time>2026-04-04T10:35:02.998Z</time></trkpt><trkpt lat="45.78269115053015" lon="9.835881552032573"><ele>422.3333333333333</ele><time>2026-04-04T10:35:04.998Z</time></trkpt><trkpt lat="45.782666375601906" lon="9.835992044376363"><ele>422.5</ele><time>2026-04-04T10:35:06.997Z</time></trkpt><trkpt lat="45.782635848248134" lon="9.836104374122431"><ele>422.66666666666663</ele><time>2026-04-04T10:35:08.997Z</time></trkpt><trkpt lat="45.78260883618112" lon="9.836213163657302"><ele>422.8333333333333</ele><time>2026-04-04T10:35:10.999Z</time></trkpt><trkpt lat="45.78258152286712" lon="9.836324147712537"><ele>423.0</ele><time>2026-04-04T10:35:12.999Z</time></trkpt><trkpt lat="45.782556540545606" lon="9.836441436735301"><ele>423.0</ele><time>2026-04-04T10:35:14.999Z</time></trkpt><trkpt lat="45.78253995623569" lon="9.83656115684985"><ele>423.0</ele><time>2026-04-04T10:35:16.999Z</time></trkpt><trkpt lat="45.78252136393635" lon="9.83668103121986"><ele>423.0</ele><time>2026-04-04T10:35:18.999Z</time></trkpt><trkpt lat="45.78251961931985" lon="9.836808110318247"><ele>423.0</ele><time>2026-04-04T10:35:20.999Z</time></trkpt><trkpt lat="45.78248358891859" lon="9.836945889551709"><ele>423.0</ele><time>2026-04-04T10:35:23Z</time></trkpt><trkpt lat="45.78242992912431" lon="9.837090464551856"><ele>425.2</ele><time>2026-04-04T10:35:24.999Z</time></trkpt><trkpt lat="45.7823495725569" lon="9.837209920398047"><ele>427.4</ele><time>2026-04-04T10:35:26.999Z</time></trkpt><trkpt lat="45.78228190661658" lon="9.837327176988767"><ele>429.59999999999997</ele><time>2026-04-04T10:35:28.999Z</time></trkpt><trkpt lat="45.78221560800332" lon="9.837446784406296"><ele>431.79999999999995</ele><time>2026-04-04T10:35:30.999Z</time></trkpt><trkpt lat="45.78214609656459" lon="9.837558740455277"><ele>434.0</ele><time>2026-04-04T10:35:32.999Z</time></trkpt><trkpt lat="45.782083593314795" lon="9.8376745021977"><ele>431.0</ele><time>2026-04-04T10:35:34.999Z</time></trkpt><trkpt lat="45.78201302562501" lon="9.837794205921046"><ele>428.0</ele><time>2026-04-04T10:35:36.999Z</time></trkpt><trkpt lat="45.781951465840024" lon="9.837924958316783"><ele>425.0</ele><time>2026-04-04T10:35:38.999Z</time></trkpt><trkpt lat="45.781901372921695" lon="9.838060909555367"><ele>422.0</ele><time>2026-04-04T10:35:40.999Z</time></trkpt><trkpt lat="45.781861344637356" lon="9.838208172714625"><ele>419.0</ele><time>2026-04-04T10:35:42.999Z</time></trkpt><trkpt lat="45.781839647886244" lon="9.838361812683244"><ele>419.66666666666663</ele><time>2026-04-04T10:35:44.999Z</time></trkpt><trkpt lat="45.78184179779644" lon="9.838524448406018"><ele>420.3333333333333</ele><time>2026-04-04T10:35:46.999Z</time></trkpt><trkpt lat="45.781835395343535" lon="9.83869736687707"><ele>421.0</ele><time>2026-04-04T10:35:48.999Z</time></trkpt><trkpt lat="45.78181339122456" lon="9.83878686949014"><ele>421.66666666666663</ele><time>2026-04-04T10:35:49.999Z</time></trkpt><trkpt lat="45.781780003360836" lon="9.838879134959825"><ele>422.3333333333333</ele><time>2026-04-04T10:35:50.999Z</time></trkpt><trkpt lat="45.78173731714231" lon="9.83896737368818"><ele>423.0</ele><time>2026-04-04T10:35:51.999Z</time></trkpt><trkpt lat="45.78169341245163" lon="9.83905812471715"><ele>423.0</ele><time>2026-04-04T10:35:52.999Z</time></trkpt><trkpt lat="45.78165248159307" lon="9.839155976018546"><ele>423.0</ele><time>2026-04-04T10:35:53.999Z</time></trkpt><trkpt lat="45.781615554877725" lon="9.839259729297018"><ele>423.0</ele><time>2026-04-04T10:35:54.999Z</time></trkpt><trkpt lat="45.781586991953695" lon="9.839370032102776"><ele>423.0</ele><time>2026-04-04T10:35:55.999Z</time></trkpt><trkpt lat="45.78156569563644" lon="9.839485629269012"><ele>423.0</ele><time>2026-04-04T10:35:56.999Z</time></trkpt><trkpt lat="45.781546763810695" lon="9.839606988239531"><ele>423.0</ele><time>2026-04-04T10:35:57.999Z</time></trkpt><trkpt lat="45.78152446134074" lon="9.839729856351584"><ele>424.8333333333333</ele><time>2026-04-04T10:35:58.999Z</time></trkpt><trkpt lat="45.78149716788311" lon="9.839849885960192"><ele>426.66666666666663</ele><time>2026-04-04T10:35:59.999Z</time></trkpt><trkpt lat="45.78146970911442" lon="9.839969373722608"><ele>428.5</ele><time>2026-04-04T10:36:00.999Z</time></trkpt><trkpt lat="45.781442140404216" lon="9.840083491293493"><ele>430.3333333333333</ele><time>2026-04-04T10:36:01.999Z</time></trkpt><trkpt lat="45.78141663854191" lon="9.84019122692733"><ele>432.16666666666663</ele><time>2026-04-04T10:36:02.999Z</time></trkpt><trkpt lat="45.781391337074055" lon="9.840293383117295"><ele>434.0</ele><time>2026-04-04T10:36:03.999Z</time></trkpt><trkpt lat="45.78136583654091" lon="9.840395600870218"><ele>435.7142857142857</ele><time>2026-04-04T10:36:04.999Z</time></trkpt><trkpt lat="45.781342964113605" lon="9.840496054824202"><ele>437.42857142857144</ele><time>2026-04-04T10:36:05.999Z</time></trkpt><trkpt lat="45.7813263247307" lon="9.840596937006728"><ele>439.1428571428571</ele><time>2026-04-04T10:36:06.999Z</time></trkpt><trkpt lat="45.78130558992598" lon="9.840696593586197"><ele>440.8571428571429</ele><time>2026-04-04T10:36:07.999Z</time></trkpt><trkpt lat="45.78128434598004" lon="9.840798965751322"><ele>442.57142857142856</ele><time>2026-04-04T10:36:08.999Z</time></trkpt><trkpt lat="45.78126600780371" lon="9.84089293187162"><ele>444.2857142857143</ele><time>2026-04-04T10:36:09.999Z</time></trkpt><trkpt lat="45.781249912361915" lon="9.840995795718133"><ele>446.0</ele><time>2026-04-04T10:36:10.999Z</time></trkpt><trkpt lat="45.781234981601465" lon="9.841092437131792"><ele>447.2857142857143</ele><time>2026-04-04T10:36:11.999Z</time></trkpt><trkpt lat="45.78121978791196" lon="9.84119547751292"><ele>448.57142857142856</ele><time>2026-04-04T10:36:12.999Z</time></trkpt><trkpt lat="45.78120583612612" lon="9.841296402825016"><ele>449.8571428571429</ele><time>2026-04-04T10:36:13.999Z</time></trkpt><trkpt lat="45.78118911253793" lon="9.841400069814501"><ele>451.1428571428571</ele><time>2026-04-04T10:36:14.999Z</time></trkpt><trkpt lat="45.781169511571555" lon="9.841500765290812"><ele>452.42857142857144</ele><time>2026-04-04T10:36:15.999Z</time></trkpt><trkpt lat="45.7811457087105" lon="9.84160202414604"><ele>453.7142857142857</ele><time>2026-04-04T10:36:16.999Z</time></trkpt><trkpt lat="45.78111181169619" lon="9.841694696709821"><ele>455.0</ele><time>2026-04-04T10:36:17.998Z</time></trkpt><trkpt lat="45.78107508997708" lon="9.841789355442714"><ele>456.7142857142857</ele><time>2026-04-04T10:36:18.998Z</time></trkpt><trkpt lat="45.78103701558653" lon="9.841881444263043"><ele>458.42857142857144</ele><time>2026-04-04T10:36:19.998Z</time></trkpt><trkpt lat="45.78099823959985" lon="9.841973573831492"><ele>460.1428571428571</ele><time>2026-04-04T10:36:20.998Z</time></trkpt><trkpt lat="45.7809637127055" lon="9.84206629204406"><ele>461.85714285714283</ele><time>2026-04-04T10:36:21.998Z</time></trkpt><trkpt lat="45.780929104523295" lon="9.842156606619351"><ele>463.57142857142856</ele><time>2026-04-04T10:36:22.998Z</time></trkpt><trkpt lat="45.78089487770261" lon="9.842246357280183"><ele>465.2857142857142</ele><time>2026-04-04T10:36:23.998Z</time></trkpt><trkpt lat="45.78086105189078" lon="9.842338394427374"><ele>466.99999999999994</ele><time>2026-04-04T10:36:24.998Z</time></trkpt><trkpt lat="45.78082861603776" lon="9.842427335704139"><ele>461.71428571428567</ele><time>2026-04-04T10:36:25.998Z</time></trkpt><trkpt lat="45.7807950433274" lon="9.842516830650437"><ele>456.42857142857144</ele><time>2026-04-04T10:36:26.998Z</time></trkpt><trkpt lat="45.78076362357304" lon="9.842603618541084"><ele>451.1428571428571</ele><time>2026-04-04T10:36:27.998Z</time></trkpt><trkpt lat="45.78073499273325" lon="9.842686783182609"><ele>445.85714285714283</ele><time>2026-04-04T10:36:28.998Z</time></trkpt><trkpt lat="45.780709447705675" lon="9.842776901413734"><ele>440.57142857142856</ele><time>2026-04-04T10:36:29.998Z</time></trkpt><trkpt lat="45.7806923043935" lon="9.842866479514017"><ele>435.2857142857143</ele><time>2026-04-04T10:36:30.998Z</time></trkpt><trkpt lat="45.78067622755866" lon="9.842958804969353"><ele>430.0</ele><time>2026-04-04T10:36:31.998Z</time></trkpt><trkpt lat="45.780660408109775" lon="9.843052819073353"><ele>430.0</ele><time>2026-04-04T10:36:32.998Z</time></trkpt><trkpt lat="45.78064959175474" lon="9.843156644664738"><ele>430.0</ele><time>2026-04-04T10:36:33.998Z</time></trkpt><trkpt lat="45.780647461491185" lon="9.843259194762283"><ele>430.0</ele><time>2026-04-04T10:36:34.998Z</time></trkpt><trkpt lat="45.78065607473754" lon="9.843362090185149"><ele>430.0</ele><time>2026-04-04T10:36:35.998Z</time></trkpt><trkpt lat="45.780657542770875" lon="9.843462448001958"><ele>430.0</ele><time>2026-04-04T10:36:36.998Z</time></trkpt><trkpt lat="45.78065889860746" lon="9.843561514135647"><ele>430.0</ele><time>2026-04-04T10:36:37.998Z</time></trkpt><trkpt lat="45.78066286456629" lon="9.843660389593639"><ele>430.0</ele><time>2026-04-04T10:36:38.998Z</time></trkpt><trkpt lat="45.7806595707044" lon="9.843762099400358"><ele>431.7142857142857</ele><time>2026-04-04T10:36:39.998Z</time></trkpt><trkpt lat="45.78064032189139" lon="9.843862103958585"><ele>433.42857142857144</ele><time>2026-04-04T10:36:40.998Z</time></trkpt><trkpt lat="45.78060249047604" lon="9.8439498051391"><ele>435.14285714285717</ele><time>2026-04-04T10:36:41.998Z</time></trkpt><trkpt lat="45.780547087003725" lon="9.844026017370751"><ele>436.8571428571429</ele><time>2026-04-04T10:36:42.998Z</time></trkpt><trkpt lat="45.780494938180745" lon="9.844095763817156"><ele>438.57142857142856</ele><time>2026-04-04T10:36:43.998Z</time></trkpt><trkpt lat="45.78044141595098" lon="9.844159755152953"><ele>440.28571428571433</ele><time>2026-04-04T10:36:44.998Z</time></trkpt><trkpt lat="45.780388224739035" lon="9.844222397407238"><ele>442.0</ele><time>2026-04-04T10:36:45.998Z</time></trkpt><trkpt lat="45.78033127614721" lon="9.844281132872034"><ele>439.5714285714286</ele><time>2026-04-04T10:36:46.998Z</time></trkpt><trkpt lat="45.78027436747554" lon="9.844338916459522"><ele>437.14285714285717</ele><time>2026-04-04T10:36:47.998Z</time></trkpt><trkpt lat="45.78021877391744" lon="9.844399010232152"><ele>434.7142857142857</ele><time>2026-04-04T10:36:48.998Z</time></trkpt><trkpt lat="45.780166166852" lon="9.844460729142039"><ele>432.28571428571433</ele><time>2026-04-04T10:36:49.998Z</time></trkpt><trkpt lat="45.780119001401125" lon="9.844534465499407"><ele>429.85714285714283</ele><time>2026-04-04T10:36:50.998Z</time></trkpt><trkpt lat="45.78008748879524" lon="9.844627361568454"><ele>427.42857142857144</ele><time>2026-04-04T10:36:51.998Z</time></trkpt><trkpt lat="45.78007790734163" lon="9.844732752389596"><ele>425.0</ele><time>2026-04-04T10:36:52.998Z</time></trkpt><trkpt lat="45.78008190265415" lon="9.844839489557057"><ele>424.99999999999994</ele><time>2026-04-04T10:36:53.998Z</time></trkpt><trkpt lat="45.7800876139738" lon="9.844944685067034"><ele>425.0</ele><time>2026-04-04T10:36:54.998Z</time></trkpt><trkpt lat="45.78009435683736" lon="9.845056709389917"><ele>425.0</ele><time>2026-04-04T10:36:55.998Z</time></trkpt><trkpt lat="45.78008589007283" lon="9.845163518750873"><ele>425.0</ele><time>2026-04-04T10:36:56.998Z</time></trkpt><trkpt lat="45.78005687236067" lon="9.845271113908744"><ele>424.99999999999994</ele><time>2026-04-04T10:36:57.998Z</time></trkpt><trkpt lat="45.78001836736667" lon="9.845369755921185"><ele>425.0</ele><time>2026-04-04T10:36:58.998Z</time></trkpt><trkpt lat="45.779974733270365" lon="9.845465240095832"><ele>427.3333333333333</ele><time>2026-04-04T10:36:59.998Z</time></trkpt><trkpt lat="45.77992449810689" lon="9.845553226803268"><ele>429.66666666666663</ele><time>2026-04-04T10:37:00.998Z</time></trkpt><trkpt lat="45.77986534401563" lon="9.84563004124522"><ele>432.0</ele><time>2026-04-04T10:37:01.998Z</time></trkpt><trkpt lat="45.779803933494506" lon="9.84569854836456"><ele>434.33333333333337</ele><time>2026-04-04T10:37:02.998Z</time></trkpt><trkpt lat="45.779745863133385" lon="9.845765353024037"><ele>436.6666666666667</ele><time>2026-04-04T10:37:03.998Z</time></trkpt><trkpt lat="45.7796918715392" lon="9.84583189056524"><ele>439.0</ele><time>2026-04-04T10:37:04.998Z</time></trkpt><trkpt lat="45.7796362453148" lon="9.845895489164032"><ele>443.1428571428571</ele><time>2026-04-04T10:37:05.998Z</time></trkpt><trkpt lat="45.77958415607434" lon="9.84596399180074"><ele>447.2857142857143</ele><time>2026-04-04T10:37:06.998Z</time></trkpt><trkpt lat="45.77953683840259" lon="9.846041421517615"><ele>451.42857142857144</ele><time>2026-04-04T10:37:07.998Z</time></trkpt><trkpt lat="45.779495483413314" lon="9.846126938279"><ele>455.57142857142856</ele><time>2026-04-04T10:37:08.998Z</time></trkpt><trkpt lat="45.77946008952101" lon="9.84621759746438"><ele>459.7142857142858</ele><time>2026-04-04T10:37:09.998Z</time></trkpt><trkpt lat="45.779427015316095" lon="9.846310322743388"><ele>463.8571428571429</ele><time>2026-04-04T10:37:10.997Z</time></trkpt><trkpt lat="45.77939485157875" lon="9.846403388270868"><ele>468.0</ele><time>2026-04-04T10:37:11.997Z</time></trkpt><trkpt lat="45.77936319476915" lon="9.846496226091976"><ele>464.0</ele><time>2026-04-04T10:37:12.997Z</time></trkpt><trkpt lat="45.779326969483996" lon="9.846590456591297"><ele>460.00000000000006</ele><time>2026-04-04T10:37:13.997Z</time></trkpt><trkpt lat="45.779293437015454" lon="9.846684380545335"><ele>456.0</ele><time>2026-04-04T10:37:14.999Z</time></trkpt><trkpt lat="45.77926007590901" lon="9.846777372228262"><ele>452.0</ele><time>2026-04-04T10:37:15.999Z</time></trkpt><trkpt lat="45.779228586226864" lon="9.84687316299225"><ele>448.0</ele><time>2026-04-04T10:37:16.999Z</time></trkpt><trkpt lat="45.77919434298906" lon="9.846965228476705"><ele>444.0</ele><time>2026-04-04T10:37:17.999Z</time></trkpt><trkpt lat="45.77915858367535" lon="9.847055304196134"><ele>440.0</ele><time>2026-04-04T10:37:18.999Z</time></trkpt><trkpt lat="45.779125012543005" lon="9.847144704458394"><ele>439.99999999999994</ele><time>2026-04-04T10:37:19.999Z</time></trkpt><trkpt lat="45.77908609101415" lon="9.847233036439368"><ele>440.0</ele><time>2026-04-04T10:37:20.999Z</time></trkpt><trkpt lat="45.7790518398254" lon="9.847319819687902"><ele>440.0</ele><time>2026-04-04T10:37:21.999Z</time></trkpt><trkpt lat="45.77901437781393" lon="9.847405191350239"><ele>440.0</ele><time>2026-04-04T10:37:22.999Z</time></trkpt><trkpt lat="45.77897715750374" lon="9.847489927692537"><ele>440.0</ele><time>2026-04-04T10:37:23.999Z</time></trkpt><trkpt lat="45.77893765729873" lon="9.847574472653912"><ele>439.99999999999994</ele><time>2026-04-04T10:37:24.999Z</time></trkpt><trkpt lat="45.77889725761173" lon="9.8476575699978"><ele>440.0</ele><time>2026-04-04T10:37:25.999Z</time></trkpt><trkpt lat="45.77886038009149" lon="9.84774453413468"><ele>441.71428571428567</ele><time>2026-04-04T10:37:26.999Z</time></trkpt><trkpt lat="45.77882052160136" lon="9.847833001615381"><ele>443.42857142857144</ele><time>2026-04-04T10:37:27.999Z</time></trkpt><trkpt lat="45.7787807931323" lon="9.847920920964837"><ele>445.1428571428571</ele><time>2026-04-04T10:37:28.999Z</time></trkpt><trkpt lat="45.7787408090811" lon="9.848006085707484"><ele>446.85714285714283</ele><time>2026-04-04T10:37:29.999Z</time></trkpt><trkpt lat="45.77870509727733" lon="9.848091524137613"><ele>448.57142857142856</ele><time>2026-04-04T10:37:30.999Z</time></trkpt><trkpt lat="45.778675918759056" lon="9.848185689750068"><ele>450.2857142857143</ele><time>2026-04-04T10:37:31.999Z</time></trkpt><trkpt lat="45.77865368589661" lon="9.848282292894813"><ele>452.0</ele><time>2026-04-04T10:37:32.999Z</time></trkpt><trkpt lat="45.77863973233373" lon="9.848382749256809"><ele>453.7142857142857</ele><time>2026-04-04T10:37:33.999Z</time></trkpt><trkpt lat="45.77864062318415" lon="9.848486264348727"><ele>455.42857142857144</ele><time>2026-04-04T10:37:34.999Z</time></trkpt><trkpt lat="45.77864197480362" lon="9.848593869994529"><ele>457.14285714285717</ele><time>2026-04-04T10:37:35.999Z</time></trkpt><trkpt lat="45.778650532623736" lon="9.8487012550348"><ele>458.8571428571429</ele><time>2026-04-04T10:37:36.999Z</time></trkpt><trkpt lat="45.778649408131635" lon="9.848804319430013"><ele>460.57142857142856</ele><time>2026-04-04T10:37:37.999Z</time></trkpt><trkpt lat="45.778632946612305" lon="9.848907617481185"><ele>462.28571428571433</ele><time>2026-04-04T10:37:38.999Z</time></trkpt><trkpt lat="45.77860107000277" lon="9.849004403320775"><ele>464.00000000000006</ele><time>2026-04-04T10:37:39.999Z</time></trkpt><trkpt lat="45.77857647880723" lon="9.849099941231811"><ele>464.00000000000006</ele><time>2026-04-04T10:37:40.999Z</time></trkpt><trkpt lat="45.77855222116249" lon="9.849192954492532"><ele>464.0</ele><time>2026-04-04T10:37:41.999Z</time></trkpt><trkpt lat="45.77852766316582" lon="9.84928266285437"><ele>464.00000000000006</ele><time>2026-04-04T10:37:42.999Z</time></trkpt><trkpt lat="45.77850288966909" lon="9.849375144248432"><ele>464.00000000000006</ele><time>2026-04-04T10:37:43.999Z</time></trkpt><trkpt lat="45.778480403513534" lon="9.849468241473312"><ele>464.0</ele><time>2026-04-04T10:37:44.999Z</time></trkpt><trkpt lat="45.77845367950681" lon="9.8495680829534"><ele>464.00000000000006</ele><time>2026-04-04T10:37:45.999Z</time></trkpt><trkpt lat="45.77842566738785" lon="9.849660959503503"><ele>464.00000000000006</ele><time>2026-04-04T10:37:46.999Z</time></trkpt><trkpt lat="45.778393500414964" lon="9.849753962276814"><ele>460.5714285714286</ele><time>2026-04-04T10:37:47.999Z</time></trkpt><trkpt lat="45.778361251487276" lon="9.849847287302696"><ele>457.14285714285717</ele><time>2026-04-04T10:37:48.999Z</time></trkpt><trkpt lat="45.77833458402069" lon="9.849940221255736"><ele>453.7142857142857</ele><time>2026-04-04T10:37:49.999Z</time></trkpt><trkpt lat="45.77831568808675" lon="9.85004475779655"><ele>450.28571428571433</ele><time>2026-04-04T10:37:50.999Z</time></trkpt><trkpt lat="45.77830218992439" lon="9.850145253783174"><ele>446.8571428571429</ele><time>2026-04-04T10:37:51.999Z</time></trkpt><trkpt lat="45.778289064381795" lon="9.85024281011454"><ele>443.4285714285714</ele><time>2026-04-04T10:37:52.999Z</time></trkpt><trkpt lat="45.77827045911581" lon="9.85034251492803"><ele>440.0</ele><time>2026-04-04T10:37:53.999Z</time></trkpt><trkpt lat="45.77825209815496" lon="9.850441171890944"><ele>439.99999999999994</ele><time>2026-04-04T10:37:54.999Z</time></trkpt><trkpt lat="45.77822750278731" lon="9.850540122928562"><ele>440.0</ele><time>2026-04-04T10:37:55.999Z</time></trkpt><trkpt lat="45.77819305513403" lon="9.85063278568635"><ele>440.0</ele><time>2026-04-04T10:37:56.999Z</time></trkpt><trkpt lat="45.77816053208111" lon="9.850726395384239"><ele>440.0</ele><time>2026-04-04T10:37:57.999Z</time></trkpt><trkpt lat="45.77812619732141" lon="9.850822442813339"><ele>440.0</ele><time>2026-04-04T10:37:58.999Z</time></trkpt><trkpt lat="45.77809153881098" lon="9.850918474086916"><ele>439.99999999999994</ele><time>2026-04-04T10:37:59.999Z</time></trkpt><trkpt lat="45.7780598630547" lon="9.85101361553708"><ele>440.0</ele><time>2026-04-04T10:38:00.999Z</time></trkpt><trkpt lat="45.77803206152229" lon="9.851106361510377"><ele>440.71428571428567</ele><time>2026-04-04T10:38:01.999Z</time></trkpt><trkpt lat="45.77800774397524" lon="9.851201325134003"><ele>441.42857142857144</ele><time>2026-04-04T10:38:02.999Z</time></trkpt><trkpt lat="45.77798328392812" lon="9.851298272788002"><ele>442.1428571428571</ele><time>2026-04-04T10:38:03.999Z</time></trkpt><trkpt lat="45.77795645265906" lon="9.85139337544075"><ele>442.85714285714283</ele><time>2026-04-04T10:38:04.999Z</time></trkpt><trkpt lat="45.77793105646565" lon="9.851489700019933"><ele>443.57142857142856</ele><time>2026-04-04T10:38:05.999Z</time></trkpt><trkpt lat="45.777899995788395" lon="9.851572327798221"><ele>444.2857142857143</ele><time>2026-04-04T10:38:06.999Z</time></trkpt><trkpt lat="45.777874596211305" lon="9.851670573720588"><ele>445.0</ele><time>2026-04-04T10:38:07.999Z</time></trkpt><trkpt lat="45.77784857483925" lon="9.851770913373905"><ele>444.5714285714286</ele><time>2026-04-04T10:38:08.999Z</time></trkpt><trkpt lat="45.77781526861022" lon="9.851864587121566"><ele>444.1428571428571</ele><time>2026-04-04T10:38:09.999Z</time></trkpt><trkpt lat="45.777783378679445" lon="9.851962463416099"><ele>443.7142857142857</ele><time>2026-04-04T10:38:10.999Z</time></trkpt><trkpt lat="45.77775274754909" lon="9.852058220395506"><ele>443.28571428571433</ele><time>2026-04-04T10:38:11.999Z</time></trkpt><trkpt lat="45.777720500986206" lon="9.85215570140365"><ele>442.8571428571429</ele><time>2026-04-04T10:38:12.999Z</time></trkpt><trkpt lat="45.77768845318811" lon="9.85224749249469"><ele>442.42857142857144</ele><time>2026-04-04T10:38:13.999Z</time></trkpt><trkpt lat="45.777661212441146" lon="9.852340187575777"><ele>442.0</ele><time>2026-04-04T10:38:14.999Z</time></trkpt><trkpt lat="45.77763122455756" lon="9.852428473220252"><ele>442.00000000000006</ele><time>2026-04-04T10:38:15.999Z</time></trkpt><trkpt lat="45.77760223910957" lon="9.852517017450065"><ele>442.0</ele><time>2026-04-04T10:38:16.999Z</time></trkpt><trkpt lat="45.77757071059318" lon="9.852598596046777"><ele>442.0</ele><time>2026-04-04T10:38:17.999Z</time></trkpt><trkpt lat="45.777541519527446" lon="9.852682860542808"><ele>442.0</ele><time>2026-04-04T10:38:18.999Z</time></trkpt><trkpt lat="45.77751065234918" lon="9.852765128971091"><ele>442.0</ele><time>2026-04-04T10:38:19.999Z</time></trkpt><trkpt lat="45.77748139942808" lon="9.852852168224286"><ele>442.00000000000006</ele><time>2026-04-04T10:38:20.998Z</time></trkpt><trkpt lat="45.7774533433604" lon="9.852934873438405"><ele>442.0</ele><time>2026-04-04T10:38:21.998Z</time></trkpt><trkpt lat="45.777398475822174" lon="9.853096667342037"><ele>441.75</ele><time>2026-04-04T10:38:23.998Z</time></trkpt><trkpt lat="45.77734414034758" lon="9.853257934758078"><ele>441.5</ele><time>2026-04-04T10:38:25.998Z</time></trkpt><trkpt lat="45.77728618556679" lon="9.85340767431696"><ele>441.25</ele><time>2026-04-04T10:38:27.998Z</time></trkpt><trkpt lat="45.77723355646347" lon="9.853554369176145"><ele>441.0</ele><time>2026-04-04T10:38:29.998Z</time></trkpt><trkpt lat="45.777181741661025" lon="9.85370001702018"><ele>442.0</ele><time>2026-04-04T10:38:31.998Z</time></trkpt><trkpt lat="45.777130439136684" lon="9.853831170193654"><ele>443.0</ele><time>2026-04-04T10:38:33.998Z</time></trkpt><trkpt lat="45.77708672426918" lon="9.853971652162004"><ele>444.0</ele><time>2026-04-04T10:38:35.998Z</time></trkpt><trkpt lat="45.777034237084116" lon="9.854103912533022"><ele>445.0</ele><time>2026-04-04T10:38:37.998Z</time></trkpt><trkpt lat="45.776985388003546" lon="9.854241053624401"><ele>446.0</ele><time>2026-04-04T10:38:39.998Z</time></trkpt><trkpt lat="45.776940266085674" lon="9.854379431404794"><ele>445.4</ele><time>2026-04-04T10:38:41.998Z</time></trkpt><trkpt lat="45.77690625446974" lon="9.85453179093098"><ele>444.8</ele><time>2026-04-04T10:38:43.998Z</time></trkpt><trkpt lat="45.77687357319298" lon="9.85468417234547"><ele>444.19999999999993</ele><time>2026-04-04T10:38:45.998Z</time></trkpt><trkpt lat="45.77683846442811" lon="9.854836854566674"><ele>443.59999999999997</ele><time>2026-04-04T10:38:47.998Z</time></trkpt><trkpt lat="45.77678837920578" lon="9.854979916129123"><ele>443.0</ele><time>2026-04-04T10:38:49.998Z</time></trkpt><trkpt lat="45.77672015454272" lon="9.855116196772371"><ele>443.0</ele><time>2026-04-04T10:38:51.998Z</time></trkpt><trkpt lat="45.77665459736276" lon="9.855249066549137"><ele>443.0</ele><time>2026-04-04T10:38:53.998Z</time></trkpt><trkpt lat="45.77658447128573" lon="9.855387832392339"><ele>443.0</ele><time>2026-04-04T10:38:55.998Z</time></trkpt><trkpt lat="45.77651567273007" lon="9.855530437537197"><ele>443.0</ele><time>2026-04-04T10:38:57.998Z</time></trkpt><trkpt lat="45.77645515334606" lon="9.855675568649142"><ele>443.0</ele><time>2026-04-04T10:38:59.998Z</time></trkpt><trkpt lat="45.776392886664496" lon="9.855821655657532"><ele>443.0</ele><time>2026-04-04T10:39:01.998Z</time></trkpt><trkpt lat="45.776328415741155" lon="9.855972894946888"><ele>443.0</ele><time>2026-04-04T10:39:03.998Z</time></trkpt><trkpt lat="45.77626537996769" lon="9.856121876118506"><ele>443.0</ele><time>2026-04-04T10:39:05.998Z</time></trkpt><trkpt lat="45.776201000573984" lon="9.856271988200659"><ele>444.2857142857143</ele><time>2026-04-04T10:39:07.998Z</time></trkpt><trkpt lat="45.77614312689935" lon="9.856433047970715"><ele>445.57142857142856</ele><time>2026-04-04T10:39:09.998Z</time></trkpt><trkpt lat="45.77612417859113" lon="9.85652018158602"><ele>446.8571428571429</ele><time>2026-04-04T10:39:10.998Z</time></trkpt><trkpt lat="45.77610701100116" lon="9.856610063705789"><ele>448.1428571428571</ele><time>2026-04-04T10:39:11.998Z</time></trkpt><trkpt lat="45.77609556195487" lon="9.856699439361215"><ele>449.4285714285714</ele><time>2026-04-04T10:39:12.998Z</time></trkpt><trkpt lat="45.77608956365825" lon="9.856791314209982"><ele>450.7142857142857</ele><time>2026-04-04T10:39:13.998Z</time></trkpt><trkpt lat="45.77608577993933" lon="9.856884899755201"><ele>452.0</ele><time>2026-04-04T10:39:14.997Z</time></trkpt><trkpt lat="45.77608365962487" lon="9.856981815082046"><ele>453.16666666666663</ele><time>2026-04-04T10:39:15.997Z</time></trkpt><trkpt lat="45.776082329464536" lon="9.857074472949282"><ele>454.3333333333333</ele><time>2026-04-04T10:39:16.997Z</time></trkpt><trkpt lat="45.77607961759319" lon="9.857168064883357"><ele>455.5</ele><time>2026-04-04T10:39:17.997Z</time></trkpt><trkpt lat="45.776076031570305" lon="9.857262679918437"><ele>456.66666666666663</ele><time>2026-04-04T10:39:18.997Z</time></trkpt><trkpt lat="45.776074816895154" lon="9.857357410298835"><ele>457.8333333333333</ele><time>2026-04-04T10:39:19.997Z</time></trkpt><trkpt lat="45.776070749547365" lon="9.857450259392968"><ele>459.0</ele><time>2026-04-04T10:39:20.999Z</time></trkpt><trkpt lat="45.776070042919464" lon="9.857629854038896"><ele>459.0</ele><time>2026-04-04T10:39:22.999Z</time></trkpt><trkpt lat="45.776063120122636" lon="9.857722415116315"><ele>459.0</ele><time>2026-04-04T10:39:23.999Z</time></trkpt><trkpt lat="45.77606481193989" lon="9.85781819091442"><ele>459.0</ele><time>2026-04-04T10:39:25Z</time></trkpt><trkpt lat="45.776063241968885" lon="9.85791180436824"><ele>459.0</ele><time>2026-04-04T10:39:26Z</time></trkpt><trkpt lat="45.77606005863967" lon="9.858006397115263"><ele>459.0</ele><time>2026-04-04T10:39:27Z</time></trkpt><trkpt lat="45.77605484947403" lon="9.858099132152201"><ele>459.0</ele><time>2026-04-04T10:39:28Z</time></trkpt><trkpt lat="45.776054444148485" lon="9.858280058103631"><ele>459.0</ele><time>2026-04-04T10:39:30Z</time></trkpt><trkpt lat="45.776062269247745" lon="9.858372594388245"><ele>459.0</ele><time>2026-04-04T10:39:31Z</time></trkpt><trkpt lat="45.77607216450611" lon="9.858466837705198"><ele>459.0</ele><time>2026-04-04T10:39:32Z</time></trkpt><trkpt lat="45.77608038406964" lon="9.858557431752315"><ele>459.0</ele><time>2026-04-04T10:39:33Z</time></trkpt><trkpt lat="45.776094323578256" lon="9.858647494763602"><ele>459.0</ele><time>2026-04-04T10:39:34Z</time></trkpt><trkpt lat="45.776123173893254" lon="9.858814305991594"><ele>459.0</ele><time>2026-04-04T10:39:36Z</time></trkpt><trkpt lat="45.7761622777023" lon="9.858966600592451"><ele>458.4</ele><time>2026-04-04T10:39:38Z</time></trkpt><trkpt lat="45.776214071082535" lon="9.859106939401755"><ele>457.79999999999995</ele><time>2026-04-04T10:39:40Z</time></trkpt><trkpt lat="45.77626795607337" lon="9.859238468527916"><ele>457.20000000000005</ele><time>2026-04-04T10:39:42Z</time></trkpt><trkpt lat="45.77631933809996" lon="9.859376315011797"><ele>456.6</ele><time>2026-04-04T10:39:44Z</time></trkpt><trkpt lat="45.77637167207079" lon="9.85951193017482"><ele>456.0</ele><time>2026-04-04T10:39:46Z</time></trkpt><trkpt lat="45.7764200539472" lon="9.859639122703038"><ele>455.6</ele><time>2026-04-04T10:39:48Z</time></trkpt><trkpt lat="45.77645599896612" lon="9.85978067762172"><ele>455.20000000000005</ele><time>2026-04-04T10:39:50Z</time></trkpt><trkpt lat="45.77647518238591" lon="9.8599138711684"><ele>454.79999999999995</ele><time>2026-04-04T10:39:52Z</time></trkpt><trkpt lat="45.776483412699754" lon="9.860051024888692"><ele>454.4</ele><time>2026-04-04T10:39:54Z</time></trkpt><trkpt lat="45.77649263295601" lon="9.860181329399342"><ele>454.0</ele><time>2026-04-04T10:39:56Z</time></trkpt><trkpt lat="45.77649677724178" lon="9.860303808118314"><ele>454.00000000000006</ele><time>2026-04-04T10:39:58Z</time></trkpt><trkpt lat="45.776508247429284" lon="9.860429388002945"><ele>454.0</ele><time>2026-04-04T10:40:00Z</time></trkpt><trkpt lat="45.77651828156406" lon="9.860551336517178"><ele>454.0</ele><time>2026-04-04T10:40:02Z</time></trkpt><trkpt lat="45.7765443949994" lon="9.860669275634747"><ele>454.0</ele><time>2026-04-04T10:40:04Z</time></trkpt><trkpt lat="45.776574010423765" lon="9.86078130185638"><ele>454.00000000000006</ele><time>2026-04-04T10:40:06Z</time></trkpt><trkpt lat="45.77660938267404" lon="9.860890400838503"><ele>454.0</ele><time>2026-04-04T10:40:08Z</time></trkpt><trkpt lat="45.77665181049886" lon="9.860994745760102"><ele>455.00000000000006</ele><time>2026-04-04T10:40:10Z</time></trkpt><trkpt lat="45.77668520957082" lon="9.861100439169482"><ele>456.0</ele><time>2026-04-04T10:40:12Z</time></trkpt><trkpt lat="45.7767034049593" lon="9.86121484372555"><ele>457.0</ele><time>2026-04-04T10:40:14Z</time></trkpt><trkpt lat="45.776707668152454" lon="9.861328709213506"><ele>458.0</ele><time>2026-04-04T10:40:16Z</time></trkpt><trkpt lat="45.77670946269552" lon="9.861440610478226"><ele>459.00000000000006</ele><time>2026-04-04T10:40:18Z</time></trkpt><trkpt lat="45.77670545207645" lon="9.861547930226257"><ele>460.0</ele><time>2026-04-04T10:40:20Z</time></trkpt><trkpt lat="45.776701584436815" lon="9.861647451307189"><ele>459.99999999999994</ele><time>2026-04-04T10:40:22Z</time></trkpt><trkpt lat="45.77669548200583" lon="9.8617520106016"><ele>460.0</ele><time>2026-04-04T10:40:24Z</time></trkpt><trkpt lat="45.77669371714282" lon="9.861854763656535"><ele>459.99999999999994</ele><time>2026-04-04T10:40:26Z</time></trkpt><trkpt lat="45.77669641654916" lon="9.861957128014764"><ele>459.99999999999994</ele><time>2026-04-04T10:40:27.999Z</time></trkpt><trkpt lat="45.77669861600174" lon="9.862057681620788"><ele>460.0</ele><time>2026-04-04T10:40:29.999Z</time></trkpt><trkpt lat="45.77671001802893" lon="9.862164106664833"><ele>459.99999999999994</ele><time>2026-04-04T10:40:31.999Z</time></trkpt><trkpt lat="45.77672857813331" lon="9.862266685208263"><ele>459.99999999999994</ele><time>2026-04-04T10:40:33.999Z</time></trkpt><trkpt lat="45.77676261154003" lon="9.86237019968166"><ele>459.6666666666667</ele><time>2026-04-04T10:40:35.999Z</time></trkpt><trkpt lat="45.77680478381791" lon="9.862470737477244"><ele>459.33333333333337</ele><time>2026-04-04T10:40:37.999Z</time></trkpt><trkpt lat="45.776855653214454" lon="9.862563818317884"><ele>459.0</ele><time>2026-04-04T10:40:39.999Z</time></trkpt><trkpt lat="45.77690342753648" lon="9.862652546077364"><ele>458.66666666666663</ele><time>2026-04-04T10:40:41.999Z</time></trkpt><trkpt lat="45.7769472525905" lon="9.862745161678639"><ele>458.3333333333333</ele><time>2026-04-04T10:40:43.999Z</time></trkpt><trkpt lat="45.77697628633794" lon="9.862847010210114"><ele>458.0</ele><time>2026-04-04T10:40:45.999Z</time></trkpt><trkpt lat="45.776997582293134" lon="9.862956178305753"><ele>457.99999999999994</ele><time>2026-04-04T10:40:47.999Z</time></trkpt><trkpt lat="45.77700508035207" lon="9.863063712721173"><ele>458.0</ele><time>2026-04-04T10:40:49.999Z</time></trkpt><trkpt lat="45.77699533299314" lon="9.863172135726053"><ele>458.0</ele><time>2026-04-04T10:40:51.999Z</time></trkpt><trkpt lat="45.776975347749165" lon="9.863275306801203"><ele>458.0</ele><time>2026-04-04T10:40:53.999Z</time></trkpt><trkpt lat="45.776959177086326" lon="9.863380234618669"><ele>457.99999999999994</ele><time>2026-04-04T10:40:55.999Z</time></trkpt><trkpt lat="45.77694836297491" lon="9.863495354385687"><ele>458.0</ele><time>2026-04-04T10:40:57.999Z</time></trkpt><trkpt lat="45.77694583606568" lon="9.863604851866702"><ele>458.57142857142856</ele><time>2026-04-04T10:40:59.999Z</time></trkpt><trkpt lat="45.77694699362716" lon="9.863708588103771"><ele>459.14285714285717</ele><time>2026-04-04T10:41:01.999Z</time></trkpt><trkpt lat="45.77695185507894" lon="9.863814693627548"><ele>459.7142857142857</ele><time>2026-04-04T10:41:03.999Z</time></trkpt><trkpt lat="45.776956469858135" lon="9.86391228862058"><ele>460.2857142857143</ele><time>2026-04-04T10:41:05.999Z</time></trkpt><trkpt lat="45.77695256355081" lon="9.864010943692126"><ele>460.8571428571429</ele><time>2026-04-04T10:41:07.999Z</time></trkpt><trkpt lat="45.77695650890834" lon="9.86411848712691"><ele>461.42857142857144</ele><time>2026-04-04T10:41:09.999Z</time></trkpt><trkpt lat="45.77695135766714" lon="9.86421498681588"><ele>462.0</ele><time>2026-04-04T10:41:11.999Z</time></trkpt><trkpt lat="45.776951210612026" lon="9.864317056239024"><ele>462.6666666666667</ele><time>2026-04-04T10:41:13.999Z</time></trkpt><trkpt lat="45.77694965215137" lon="9.864416188940888"><ele>463.33333333333337</ele><time>2026-04-04T10:41:15.999Z</time></trkpt><trkpt lat="45.7769490167586" lon="9.864518587371029"><ele>464.0</ele><time>2026-04-04T10:41:17.999Z</time></trkpt><trkpt lat="45.77694589202659" lon="9.864655748058011"><ele>464.6666666666667</ele><time>2026-04-04T10:41:20.998Z</time></trkpt><trkpt lat="45.77694449668209" lon="9.864751161621161"><ele>465.33333333333337</ele><time>2026-04-04T10:41:22.998Z</time></trkpt><trkpt lat="45.77693690198391" lon="9.86488878883407"><ele>466.0</ele><time>2026-04-04T10:41:25.998Z</time></trkpt><trkpt lat="45.77690956537981" lon="9.865009119234"><ele>466.0</ele><time>2026-04-04T10:41:29Z</time></trkpt><trkpt lat="45.7768911485017" lon="9.865096552828353"><ele>466.0</ele><time>2026-04-04T10:41:31Z</time></trkpt><trkpt lat="45.77685972554543" lon="9.8651818119112"><ele>466.0</ele><time>2026-04-04T10:41:33Z</time></trkpt><trkpt lat="45.77681953580806" lon="9.865313977471152"><ele>466.0</ele><time>2026-04-04T10:41:36Z</time></trkpt><trkpt lat="45.77679465898781" lon="9.865408679891"><ele>466.0</ele><time>2026-04-04T10:41:38Z</time></trkpt><trkpt lat="45.77677702940274" lon="9.865496564895112"><ele>466.0</ele><time>2026-04-04T10:41:40Z</time></trkpt><trkpt lat="45.77676519888698" lon="9.865589819468276"><ele>466.0</ele><time>2026-04-04T10:41:42Z</time></trkpt><trkpt lat="45.776757774572225" lon="9.865693044352128"><ele>467.83333333333337</ele><time>2026-04-04T10:41:44Z</time></trkpt><trkpt lat="45.77674390261917" lon="9.865794118100295"><ele>469.6666666666667</ele><time>2026-04-04T10:41:46Z</time></trkpt><trkpt lat="45.77671640107566" lon="9.865893101419484"><ele>471.5</ele><time>2026-04-04T10:41:48Z</time></trkpt><trkpt lat="45.77664136764006" lon="9.866017953520162"><ele>473.33333333333337</ele><time>2026-04-04T10:41:51Z</time></trkpt><trkpt lat="45.7766265768492" lon="9.866119383464435"><ele>475.1666666666667</ele><time>2026-04-04T10:41:53Z</time></trkpt><trkpt lat="45.776594037836944" lon="9.866234258488873"><ele>477.0</ele><time>2026-04-04T10:41:55Z</time></trkpt><trkpt lat="45.77657637856484" lon="9.8663477904269"><ele>477.0</ele><time>2026-04-04T10:41:57Z</time></trkpt><trkpt lat="45.776561486045765" lon="9.866465230382232"><ele>477.0</ele><time>2026-04-04T10:41:59Z</time></trkpt><trkpt lat="45.77653443884315" lon="9.866568576600743"><ele>477.0</ele><time>2026-04-04T10:42:01Z</time></trkpt><trkpt lat="45.776492780094074" lon="9.866656947425778"><ele>477.0</ele><time>2026-04-04T10:42:03Z</time></trkpt><trkpt lat="45.77643793222594" lon="9.866748730571702"><ele>477.0</ele><time>2026-04-04T10:42:06Z</time></trkpt><trkpt lat="45.776390524713165" lon="9.866811167731795"><ele>477.0</ele><time>2026-04-04T10:42:08Z</time></trkpt><trkpt lat="45.77634117983664" lon="9.866876093654065"><ele>476.0</ele><time>2026-04-04T10:42:10Z</time></trkpt><trkpt lat="45.77631957701808" lon="9.866971277518571"><ele>475.00000000000006</ele><time>2026-04-04T10:42:12Z</time></trkpt><trkpt lat="45.77627055439739" lon="9.86705201468497"><ele>474.00000000000006</ele><time>2026-04-04T10:42:14Z</time></trkpt><trkpt lat="45.77613582112966" lon="9.867207312314473"><ele>473.0</ele><time>2026-04-04T10:42:16Z</time></trkpt><trkpt lat="45.776084749586495" lon="9.867290966651959"><ele>472.0</ele><time>2026-04-04T10:42:18Z</time></trkpt><trkpt lat="45.77603415086734" lon="9.86738085356655"><ele>473.83333333333337</ele><time>2026-04-04T10:42:20Z</time></trkpt><trkpt lat="45.77598271890047" lon="9.867471087484654"><ele>475.6666666666667</ele><time>2026-04-04T10:42:22Z</time></trkpt><trkpt lat="45.77593771553673" lon="9.86756802112468"><ele>477.5</ele><time>2026-04-04T10:42:24Z</time></trkpt><trkpt lat="45.77588425883404" lon="9.867656867624289"><ele>479.33333333333337</ele><time>2026-04-04T10:42:26Z</time></trkpt><trkpt lat="45.77583340647648" lon="9.867751561628126"><ele>481.1666666666667</ele><time>2026-04-04T10:42:28Z</time></trkpt><trkpt lat="45.775801518464824" lon="9.86786528267575"><ele>483.0</ele><time>2026-04-04T10:42:30Z</time></trkpt><trkpt lat="45.77577792270388" lon="9.867986304778304"><ele>483.0</ele><time>2026-04-04T10:42:31.999Z</time></trkpt><trkpt lat="45.775764964930005" lon="9.868110173590484"><ele>483.0</ele><time>2026-04-04T10:42:33.999Z</time></trkpt><trkpt lat="45.775796829656706" lon="9.86821727549944"><ele>483.0</ele><time>2026-04-04T10:42:35.999Z</time></trkpt><trkpt lat="45.77581622474376" lon="9.868347008469561"><ele>483.0</ele><time>2026-04-04T10:42:37.999Z</time></trkpt><trkpt lat="45.77584488328998" lon="9.8684797606254"><ele>483.0</ele><time>2026-04-04T10:42:39.999Z</time></trkpt><trkpt lat="45.77586440027046" lon="9.868595991207922"><ele>483.0</ele><time>2026-04-04T10:42:41.999Z</time></trkpt><trkpt lat="45.775906087826606" lon="9.868727129477772"><ele>483.59999999999997</ele><time>2026-04-04T10:42:43.999Z</time></trkpt><trkpt lat="45.775924904229974" lon="9.868868265237618"><ele>484.19999999999993</ele><time>2026-04-04T10:42:45.999Z</time></trkpt><trkpt lat="45.77595160634504" lon="9.86901085159026"><ele>484.8</ele><time>2026-04-04T10:42:47.999Z</time></trkpt><trkpt lat="45.77597453128137" lon="9.869156174617848"><ele>485.4</ele><time>2026-04-04T10:42:49.999Z</time></trkpt><trkpt lat="45.775988601909354" lon="9.869308513762883"><ele>486.0</ele><time>2026-04-04T10:42:51.999Z</time></trkpt><trkpt lat="45.77598635537553" lon="9.8694568114206"><ele>486.6</ele><time>2026-04-04T10:42:53.999Z</time></trkpt><trkpt lat="45.775991449645765" lon="9.869597802059756"><ele>487.20000000000005</ele><time>2026-04-04T10:42:55.999Z</time></trkpt><trkpt lat="45.775986839559714" lon="9.869740333167622"><ele>487.79999999999995</ele><time>2026-04-04T10:42:57.999Z</time></trkpt><trkpt lat="45.77597155202309" lon="9.869888398576107"><ele>488.4</ele><time>2026-04-04T10:42:59.999Z</time></trkpt><trkpt lat="45.775964907715576" lon="9.870046547397823"><ele>489.0</ele><time>2026-04-04T10:43:01.999Z</time></trkpt><trkpt lat="45.77595718631735" lon="9.87019803588832"><ele>489.2</ele><time>2026-04-04T10:43:03.999Z</time></trkpt><trkpt lat="45.77594669917959" lon="9.870347949791228"><ele>489.4</ele><time>2026-04-04T10:43:05.999Z</time></trkpt><trkpt lat="45.77593925561996" lon="9.870493282009852"><ele>489.6</ele><time>2026-04-04T10:43:07.999Z</time></trkpt><trkpt lat="45.77592421644284" lon="9.870644592331852"><ele>489.8</ele><time>2026-04-04T10:43:09.999Z</time></trkpt><trkpt lat="45.77592001084014" lon="9.87079265789399"><ele>490.0</ele><time>2026-04-04T10:43:11.999Z</time></trkpt><trkpt lat="45.77591754545696" lon="9.870944518182613"><ele>490.2</ele><time>2026-04-04T10:43:13.999Z</time></trkpt><trkpt lat="45.77591411855531" lon="9.871088110636773"><ele>490.4</ele><time>2026-04-04T10:43:15.999Z</time></trkpt><trkpt lat="45.77591335312054" lon="9.871222169808947"><ele>490.6</ele><time>2026-04-04T10:43:17.999Z</time></trkpt><trkpt lat="45.77592011367227" lon="9.87135588444902"><ele>490.8</ele><time>2026-04-04T10:43:19.999Z</time></trkpt><trkpt lat="45.7759308467836" lon="9.871488273099056"><ele>491.0</ele><time>2026-04-04T10:43:21.999Z</time></trkpt><trkpt lat="45.7759505616629" lon="9.871615302087385"><ele>491.0</ele><time>2026-04-04T10:43:23.999Z</time></trkpt><trkpt lat="45.77597114417699" lon="9.871741239205328"><ele>491.0</ele><time>2026-04-04T10:43:25.998Z</time></trkpt><trkpt lat="45.775989146044324" lon="9.87188951347758"><ele>491.0</ele><time>2026-04-04T10:43:27.998Z</time></trkpt><trkpt lat="45.77601876114056" lon="9.872013607648986"><ele>491.0</ele><time>2026-04-04T10:43:29.998Z</time></trkpt><trkpt lat="45.77604135052333" lon="9.87213705114828"><ele>491.0</ele><time>2026-04-04T10:43:31.998Z</time></trkpt><trkpt lat="45.77606643728376" lon="9.872262872633028"><ele>491.4</ele><time>2026-04-04T10:43:34Z</time></trkpt><trkpt lat="45.77608949952364" lon="9.872393609730278"><ele>491.8</ele><time>2026-04-04T10:43:36Z</time></trkpt><trkpt lat="45.776107163623344" lon="9.872521059686056"><ele>492.19999999999993</ele><time>2026-04-04T10:43:38Z</time></trkpt><trkpt lat="45.77612838005739" lon="9.87265081674038"><ele>492.59999999999997</ele><time>2026-04-04T10:43:40Z</time></trkpt><trkpt lat="45.776153052908434" lon="9.872776293137168"><ele>493.0</ele><time>2026-04-04T10:43:42Z</time></trkpt><trkpt lat="45.77616918038665" lon="9.87290210661286"><ele>493.00000000000006</ele><time>2026-04-04T10:43:44Z</time></trkpt><trkpt lat="45.776187902831886" lon="9.873026872659294"><ele>493.0</ele><time>2026-04-04T10:43:46Z</time></trkpt><trkpt lat="45.77620322154911" lon="9.873125633871146"><ele>493.0</ele><time>2026-04-04T10:43:48Z</time></trkpt><trkpt lat="45.77621469411095" lon="9.873221654206255"><ele>493.0</ele><time>2026-04-04T10:43:49Z</time></trkpt><trkpt lat="45.776236835535265" lon="9.873338332198923"><ele>493.00000000000006</ele><time>2026-04-04T10:43:51Z</time></trkpt><trkpt lat="45.77623578486006" lon="9.873460589067141"><ele>493.0</ele><time>2026-04-04T10:43:53Z</time></trkpt><trkpt lat="45.776234486716746" lon="9.873575070034894"><ele>493.1666666666667</ele><time>2026-04-04T10:43:55Z</time></trkpt><trkpt lat="45.776228432596255" lon="9.873704289722493"><ele>493.33333333333337</ele><time>2026-04-04T10:43:57Z</time></trkpt><trkpt lat="45.77622234407901" lon="9.873813371205042"><ele>493.5</ele><time>2026-04-04T10:44:00Z</time></trkpt><trkpt lat="45.776216134782345" lon="9.873908492399424"><ele>493.66666666666663</ele><time>2026-04-04T10:44:02Z</time></trkpt><trkpt lat="45.77620865397389" lon="9.874054799133425"><ele>493.8333333333333</ele><time>2026-04-04T10:44:04Z</time></trkpt><trkpt lat="45.776223428504395" lon="9.874149848363853"><ele>494.0</ele><time>2026-04-04T10:44:05Z</time></trkpt><trkpt lat="45.77621952676022" lon="9.874293697808575"><ele>494.79999999999995</ele><time>2026-04-04T10:44:07Z</time></trkpt><trkpt lat="45.7762362460827" lon="9.87443539335079"><ele>495.59999999999997</ele><time>2026-04-04T10:44:09Z</time></trkpt><trkpt lat="45.7762312144518" lon="9.87458272094975"><ele>496.4</ele><time>2026-04-04T10:44:11Z</time></trkpt><trkpt lat="45.7762313911221" lon="9.874726021142875"><ele>497.2</ele><time>2026-04-04T10:44:13Z</time></trkpt><trkpt lat="45.7762251070839" lon="9.874864751442503"><ele>498.0</ele><time>2026-04-04T10:44:15Z</time></trkpt><trkpt lat="45.776210042547554" lon="9.87500696470115"><ele>498.0</ele><time>2026-04-04T10:44:17Z</time></trkpt><trkpt lat="45.77619414689863" lon="9.875098079849458"><ele>497.99999999999994</ele><time>2026-04-04T10:44:19Z</time></trkpt><trkpt lat="45.776176246944445" lon="9.875230861015751"><ele>497.99999999999994</ele><time>2026-04-04T10:44:21Z</time></trkpt><trkpt lat="45.77616847447287" lon="9.875337923138872"><ele>498.0</ele><time>2026-04-04T10:44:23Z</time></trkpt><trkpt lat="45.77613748617413" lon="9.875546403328473"><ele>498.0</ele><time>2026-04-04T10:44:25Z</time></trkpt><trkpt lat="45.776121331876695" lon="9.87567750563963"><ele>498.2</ele><time>2026-04-04T10:44:27Z</time></trkpt><trkpt lat="45.77610533887857" lon="9.875807383175282"><ele>498.4</ele><time>2026-04-04T10:44:29Z</time></trkpt><trkpt lat="45.776094090547375" lon="9.875933629733142"><ele>498.59999999999997</ele><time>2026-04-04T10:44:31Z</time></trkpt><trkpt lat="45.77608042160359" lon="9.876065996706961"><ele>498.79999999999995</ele><time>2026-04-04T10:44:32.999Z</time></trkpt><trkpt lat="45.776074787799764" lon="9.876195260980257"><ele>499.0</ele><time>2026-04-04T10:44:34.999Z</time></trkpt><trkpt lat="45.776079079000205" lon="9.876327598882876"><ele>499.6</ele><time>2026-04-04T10:44:36.999Z</time></trkpt><trkpt lat="45.77609498895347" lon="9.876455408962773"><ele>500.2</ele><time>2026-04-04T10:44:38.999Z</time></trkpt><trkpt lat="45.776118370170806" lon="9.876591010505043"><ele>500.80000000000007</ele><time>2026-04-04T10:44:40.999Z</time></trkpt><trkpt lat="45.776155484741714" lon="9.876736365498562"><ele>501.40000000000003</ele><time>2026-04-04T10:44:42.999Z</time></trkpt><trkpt lat="45.776177815099686" lon="9.87686973022841"><ele>502.0</ele><time>2026-04-04T10:44:44.999Z</time></trkpt><trkpt lat="45.776202935699196" lon="9.87700586419871"><ele>503.0</ele><time>2026-04-04T10:44:46.999Z</time></trkpt><trkpt lat="45.77621684546663" lon="9.877138898754628"><ele>504.00000000000006</ele><time>2026-04-04T10:44:48.999Z</time></trkpt><trkpt lat="45.77621156406349" lon="9.877267745379436"><ele>505.00000000000006</ele><time>2026-04-04T10:44:50.999Z</time></trkpt><trkpt lat="45.77620238135388" lon="9.877396427216881"><ele>506.0</ele><time>2026-04-04T10:44:52.999Z</time></trkpt><trkpt lat="45.77618215348271" lon="9.877531398919311"><ele>507.0</ele><time>2026-04-04T10:44:54.999Z</time></trkpt><trkpt lat="45.77616281744001" lon="9.877654085232635"><ele>508.40000000000003</ele><time>2026-04-04T10:44:56.999Z</time></trkpt><trkpt lat="45.776147030476885" lon="9.877786169232763"><ele>509.80000000000007</ele><time>2026-04-04T10:44:58.999Z</time></trkpt><trkpt lat="45.77612920975466" lon="9.87791793159509"><ele>511.2</ele><time>2026-04-04T10:45:00.999Z</time></trkpt><trkpt lat="45.776111614456305" lon="9.878049961416771"><ele>512.6</ele><time>2026-04-04T10:45:02.999Z</time></trkpt><trkpt lat="45.77609185262315" lon="9.878185111542788"><ele>514.0</ele><time>2026-04-04T10:45:04.999Z</time></trkpt><trkpt lat="45.77607871358736" lon="9.878317573016826"><ele>514.0</ele><time>2026-04-04T10:45:06.999Z</time></trkpt><trkpt lat="45.77606324528665" lon="9.878445826623206"><ele>514.0</ele><time>2026-04-04T10:45:08.999Z</time></trkpt><trkpt lat="45.77604988494531" lon="9.87854852244466"><ele>514.0</ele><time>2026-04-04T10:45:10.999Z</time></trkpt><trkpt lat="45.77603894957467" lon="9.878668085094985"><ele>514.0</ele><time>2026-04-04T10:45:12.999Z</time></trkpt><trkpt lat="45.77602456301673" lon="9.878789105105742"><ele>514.0</ele><time>2026-04-04T10:45:14.999Z</time></trkpt><trkpt lat="45.77601037236222" lon="9.878911826304167"><ele>514.0</ele><time>2026-04-04T10:45:16.999Z</time></trkpt><trkpt lat="45.775998896268376" lon="9.879032697526581"><ele>514.0</ele><time>2026-04-04T10:45:18.999Z</time></trkpt><trkpt lat="45.775987448118606" lon="9.879159789514388"><ele>514.0</ele><time>2026-04-04T10:45:20.999Z</time></trkpt><trkpt lat="45.775973549860296" lon="9.879308541026797"><ele>514.0</ele><time>2026-04-04T10:45:22.999Z</time></trkpt><trkpt lat="45.77596638080877" lon="9.879437231811387"><ele>514.0</ele><time>2026-04-04T10:45:24.999Z</time></trkpt><trkpt lat="45.77596738178736" lon="9.879572396705262"><ele>514.0</ele><time>2026-04-04T10:45:26.999Z</time></trkpt><trkpt lat="45.775964466995426" lon="9.879706002266712"><ele>514.1666666666667</ele><time>2026-04-04T10:45:28.998Z</time></trkpt><trkpt lat="45.77595379887949" lon="9.879838290825115"><ele>514.3333333333334</ele><time>2026-04-04T10:45:30.998Z</time></trkpt><trkpt lat="45.77594608274759" lon="9.879964393931768"><ele>514.5</ele><time>2026-04-04T10:45:32.998Z</time></trkpt><trkpt lat="45.775935428379434" lon="9.880093139265515"><ele>514.6666666666666</ele><time>2026-04-04T10:45:34.998Z</time></trkpt><trkpt lat="45.77591434843722" lon="9.880212925066699"><ele>514.8333333333333</ele><time>2026-04-04T10:45:36.998Z</time></trkpt><trkpt lat="45.77589348734223" lon="9.880324735702478"><ele>515.0</ele><time>2026-04-04T10:45:39Z</time></trkpt><trkpt lat="45.7758713141259" lon="9.880436981039045"><ele>515.6666666666666</ele><time>2026-04-04T10:45:41Z</time></trkpt><trkpt lat="45.775846405445286" lon="9.880550610122802"><ele>516.3333333333333</ele><time>2026-04-04T10:45:43Z</time></trkpt><trkpt lat="45.775814353159795" lon="9.880663391987756"><ele>517.0</ele><time>2026-04-04T10:45:45Z</time></trkpt><trkpt lat="45.77580292906104" lon="9.880800488537824"><ele>517.6666666666666</ele><time>2026-04-04T10:45:47Z</time></trkpt><trkpt lat="45.775754479077726" lon="9.880895969205984"><ele>518.3333333333334</ele><time>2026-04-04T10:45:49Z</time></trkpt><trkpt lat="45.77572775181574" lon="9.881012642623931"><ele>519.0</ele><time>2026-04-04T10:45:51Z</time></trkpt><trkpt lat="45.77569892577531" lon="9.881129270928936"><ele>519.6666666666666</ele><time>2026-04-04T10:45:53Z</time></trkpt><trkpt lat="45.775669339073204" lon="9.881245812974747"><ele>520.3333333333334</ele><time>2026-04-04T10:45:55Z</time></trkpt><trkpt lat="45.77563776788593" lon="9.881357940324234"><ele>521.0</ele><time>2026-04-04T10:45:57Z</time></trkpt><trkpt lat="45.77560788548174" lon="9.881474562432269"><ele>521.6666666666667</ele><time>2026-04-04T10:45:59Z</time></trkpt><trkpt lat="45.77557616591348" lon="9.881586118945938"><ele>522.3333333333334</ele><time>2026-04-04T10:46:01Z</time></trkpt><trkpt lat="45.7755462867473" lon="9.88169977335082"><ele>523.0</ele><time>2026-04-04T10:46:03Z</time></trkpt><trkpt lat="45.77551506885293" lon="9.881813504011301"><ele>523.8333333333334</ele><time>2026-04-04T10:46:05Z</time></trkpt><trkpt lat="45.775490556046385" lon="9.881927977314534"><ele>524.6666666666667</ele><time>2026-04-04T10:46:07Z</time></trkpt><trkpt lat="45.77547593834578" lon="9.882045907802375"><ele>525.5</ele><time>2026-04-04T10:46:09Z</time></trkpt><trkpt lat="45.775466661605684" lon="9.882158830532912"><ele>526.3333333333334</ele><time>2026-04-04T10:46:11Z</time></trkpt><trkpt lat="45.77546888006071" lon="9.882271560344527"><ele>527.1666666666666</ele><time>2026-04-04T10:46:13Z</time></trkpt><trkpt lat="45.7754710702989" lon="9.882379724958739"><ele>528.0</ele><time>2026-04-04T10:46:15Z</time></trkpt><trkpt lat="45.77547936387929" lon="9.882488994356088"><ele>528.0</ele><time>2026-04-04T10:46:17Z</time></trkpt><trkpt lat="45.77549043271124" lon="9.882591057402378"><ele>528.0</ele><time>2026-04-04T10:46:19Z</time></trkpt><trkpt lat="45.775502203459425" lon="9.882686663783579"><ele>528.0</ele><time>2026-04-04T10:46:21Z</time></trkpt><trkpt lat="45.775511557926784" lon="9.882780813875153"><ele>528.0</ele><time>2026-04-04T10:46:23Z</time></trkpt><trkpt lat="45.77552130240485" lon="9.882872186667166"><ele>528.0</ele><time>2026-04-04T10:46:25Z</time></trkpt><trkpt lat="45.77553860387016" lon="9.882970473599233"><ele>528.0</ele><time>2026-04-04T10:46:27Z</time></trkpt><trkpt lat="45.775552980805166" lon="9.883108242403564"><ele>528.0</ele><time>2026-04-04T10:46:30Z</time></trkpt><trkpt lat="45.77556450833003" lon="9.883202062133835"><ele>528.8333333333334</ele><time>2026-04-04T10:46:32Z</time></trkpt><trkpt lat="45.77557482547286" lon="9.883294526319927"><ele>529.6666666666666</ele><time>2026-04-04T10:46:34Z</time></trkpt><trkpt lat="45.775589041415394" lon="9.883425249901885"><ele>530.5</ele><time>2026-04-04T10:46:37Z</time></trkpt><trkpt lat="45.775611010468346" lon="9.883547469759483"><ele>531.3333333333333</ele><time>2026-04-04T10:46:39.999Z</time></trkpt><trkpt lat="45.775636516854284" lon="9.883672350897447"><ele>532.1666666666666</ele><time>2026-04-04T10:46:42.999Z</time></trkpt><trkpt lat="45.775662587321115" lon="9.88379648343255"><ele>533.0</ele><time>2026-04-04T10:46:45.999Z</time></trkpt><trkpt lat="45.775692497249636" lon="9.883919864090194"><ele>533.6666666666666</ele><time>2026-04-04T10:46:48.999Z</time></trkpt><trkpt lat="45.775724404722276" lon="9.884036880874264"><ele>534.3333333333333</ele><time>2026-04-04T10:46:51.999Z</time></trkpt><trkpt lat="45.77575294451511" lon="9.884155080901786"><ele>535.0</ele><time>2026-04-04T10:46:54.999Z</time></trkpt><trkpt lat="45.77578575195738" lon="9.884272497633026"><ele>535.6666666666666</ele><time>2026-04-04T10:46:57.999Z</time></trkpt><trkpt lat="45.775809745541956" lon="9.884393953134827"><ele>536.3333333333334</ele><time>2026-04-04T10:47:00.999Z</time></trkpt><trkpt lat="45.7758334422842" lon="9.884514208041322"><ele>537.0</ele><time>2026-04-04T10:47:03.999Z</time></trkpt><trkpt lat="45.77585277728205" lon="9.88463580939377"><ele>537.0</ele><time>2026-04-04T10:47:06.999Z</time></trkpt><trkpt lat="45.77586006309559" lon="9.88475388252147"><ele>537.0</ele><time>2026-04-04T10:47:09.999Z</time></trkpt><trkpt lat="45.77585889012933" lon="9.884877017655976"><ele>537.0</ele><time>2026-04-04T10:47:12.999Z</time></trkpt><trkpt lat="45.77585483805745" lon="9.885003662171897"><ele>537.0</ele><time>2026-04-04T10:47:15.999Z</time></trkpt><trkpt lat="45.77585101678421" lon="9.885128305560425"><ele>537.0</ele><time>2026-04-04T10:47:18.999Z</time></trkpt><trkpt lat="45.7758389842845" lon="9.885246132542179"><ele>537.0</ele><time>2026-04-04T10:47:21.999Z</time></trkpt><trkpt lat="45.77582872803007" lon="9.885369541045062"><ele>537.8333333333334</ele><time>2026-04-04T10:47:24.999Z</time></trkpt><trkpt lat="45.77582309573343" lon="9.88549127310764"><ele>538.6666666666666</ele><time>2026-04-04T10:47:27.999Z</time></trkpt><trkpt lat="45.77581516165541" lon="9.885612623441427"><ele>539.5</ele><time>2026-04-04T10:47:30.999Z</time></trkpt><trkpt lat="45.775800615862686" lon="9.885729695437107"><ele>540.3333333333333</ele><time>2026-04-04T10:47:33.999Z</time></trkpt><trkpt lat="45.77578697770504" lon="9.885851223502353"><ele>541.1666666666666</ele><time>2026-04-04T10:47:36.998Z</time></trkpt><trkpt lat="45.775763091281284" lon="9.885961959269274"><ele>542.0</ele><time>2026-04-04T10:47:39.998Z</time></trkpt><trkpt lat="45.77573965032681" lon="9.886082871113745"><ele>543.5</ele><time>2026-04-04T10:47:42.998Z</time></trkpt><trkpt lat="45.77571838262118" lon="9.886204074767424"><ele>545.0</ele><time>2026-04-04T10:47:46Z</time></trkpt><trkpt lat="45.775688976669365" lon="9.886316621239562"><ele>546.5</ele><time>2026-04-04T10:47:49Z</time></trkpt><trkpt lat="45.775666854423335" lon="9.886434283425407"><ele>548.0</ele><time>2026-04-04T10:47:52Z</time></trkpt><trkpt lat="45.775636557760066" lon="9.886549010106837"><ele>549.5</ele><time>2026-04-04T10:47:55Z</time></trkpt><trkpt lat="45.77561490370163" lon="9.886670049836617"><ele>551.0</ele><time>2026-04-04T10:47:58Z</time></trkpt><trkpt lat="45.77559157389384" lon="9.886784112413507"><ele>553.0</ele><time>2026-04-04T10:48:01Z</time></trkpt><trkpt lat="45.77556525266342" lon="9.886904510804792"><ele>555.0</ele><time>2026-04-04T10:48:04Z</time></trkpt><trkpt lat="45.77553990616824" lon="9.887024593417733"><ele>557.0</ele><time>2026-04-04T10:48:07Z</time></trkpt><trkpt lat="45.77550994002714" lon="9.887138560506637"><ele>559.0</ele><time>2026-04-04T10:48:10Z</time></trkpt><trkpt lat="45.77548487537175" lon="9.887258043567662"><ele>561.0</ele><time>2026-04-04T10:48:13Z</time></trkpt><trkpt lat="45.77545793889603" lon="9.887379192085605"><ele>563.0</ele><time>2026-04-04T10:48:16Z</time></trkpt><trkpt lat="45.77543014756428" lon="9.887502363078386"><ele>564.8</ele><time>2026-04-04T10:48:19Z</time></trkpt><trkpt lat="45.775408503874736" lon="9.887623264941354"><ele>566.5999999999999</ele><time>2026-04-04T10:48:22Z</time></trkpt><trkpt lat="45.775381100925244" lon="9.887746436515606"><ele>568.4000000000001</ele><time>2026-04-04T10:48:25Z</time></trkpt><trkpt lat="45.77536217912706" lon="9.8878788727405"><ele>570.2</ele><time>2026-04-04T10:48:28Z</time></trkpt><trkpt lat="45.77533678159167" lon="9.888004119392244"><ele>572.0</ele><time>2026-04-04T10:48:31Z</time></trkpt><trkpt lat="45.775311521419106" lon="9.888124473451402"><ele>572.0</ele><time>2026-04-04T10:48:34Z</time></trkpt><trkpt lat="45.77528785547575" lon="9.888243503860648"><ele>572.0</ele><time>2026-04-04T10:48:37Z</time></trkpt><trkpt lat="45.775262791799186" lon="9.888355233697274"><ele>572.0</ele><time>2026-04-04T10:48:40Z</time></trkpt><trkpt lat="45.77524527476067" lon="9.888476261179827"><ele>572.0</ele><time>2026-04-04T10:48:43Z</time></trkpt><trkpt lat="45.77524135986145" lon="9.888601814153414"><ele>572.0</ele><time>2026-04-04T10:48:45.999Z</time></trkpt><trkpt lat="45.775236734874746" lon="9.888727505742933"><ele>572.0</ele><time>2026-04-04T10:48:48.999Z</time></trkpt><trkpt lat="45.775238121490226" lon="9.888856482998396"><ele>572.6666666666666</ele><time>2026-04-04T10:48:51.999Z</time></trkpt><trkpt lat="45.77524520707302" lon="9.88898223478165"><ele>573.3333333333333</ele><time>2026-04-04T10:48:54.999Z</time></trkpt><trkpt lat="45.77525656602714" lon="9.889105314210518"><ele>574.0</ele><time>2026-04-04T10:48:57.999Z</time></trkpt><trkpt lat="45.775268821627826" lon="9.88922492255104"><ele>574.6666666666666</ele><time>2026-04-04T10:49:00.999Z</time></trkpt><trkpt lat="45.775280692796315" lon="9.889344563899172"><ele>575.3333333333334</ele><time>2026-04-04T10:49:03.999Z</time></trkpt><trkpt lat="45.77528999907842" lon="9.889464057589354"><ele>576.0</ele><time>2026-04-04T10:49:06.999Z</time></trkpt><trkpt lat="45.77530070901492" lon="9.889590207475083"><ele>577.6666666666666</ele><time>2026-04-04T10:49:09.999Z</time></trkpt><trkpt lat="45.77529999954214" lon="9.889710072117603"><ele>579.3333333333334</ele><time>2026-04-04T10:49:12.999Z</time></trkpt><trkpt lat="45.77529119710242" lon="9.889835160247435"><ele>581.0</ele><time>2026-04-04T10:49:15.999Z</time></trkpt><trkpt lat="45.775275564550185" lon="9.889953153458867"><ele>582.6666666666667</ele><time>2026-04-04T10:49:18.999Z</time></trkpt><trkpt lat="45.77525531791088" lon="9.890073792098114"><ele>584.3333333333334</ele><time>2026-04-04T10:49:21.999Z</time></trkpt><trkpt lat="45.77523060051882" lon="9.890192184133427"><ele>586.0</ele><time>2026-04-04T10:49:24.999Z</time></trkpt><trkpt lat="45.77520469703645" lon="9.890305510516196"><ele>586.6666666666667</ele><time>2026-04-04T10:49:27.999Z</time></trkpt><trkpt lat="45.77517748910262" lon="9.890418463834155"><ele>587.3333333333334</ele><time>2026-04-04T10:49:30.999Z</time></trkpt><trkpt lat="45.775149912176964" lon="9.890535117938526"><ele>588.0</ele><time>2026-04-04T10:49:33.999Z</time></trkpt><trkpt lat="45.77511826860385" lon="9.890647154252932"><ele>588.6666666666666</ele><time>2026-04-04T10:49:36.999Z</time></trkpt><trkpt lat="45.77509126072819" lon="9.89076581580032"><ele>589.3333333333333</ele><time>2026-04-04T10:49:39.998Z</time></trkpt><trkpt lat="45.77505981643328" lon="9.890884243343727"><ele>590.0</ele><time>2026-04-04T10:49:42.998Z</time></trkpt><trkpt lat="45.77502427200008" lon="9.890998219598847"><ele>590.0</ele><time>2026-04-04T10:49:45.998Z</time></trkpt><trkpt lat="45.774989807875606" lon="9.891113920805982"><ele>590.0</ele><time>2026-04-04T10:49:48.998Z</time></trkpt><trkpt lat="45.77495040377996" lon="9.891233269980152"><ele>590.0</ele><time>2026-04-04T10:49:52Z</time></trkpt><trkpt lat="45.774907686060345" lon="9.89135083510039"><ele>590.0</ele><time>2026-04-04T10:49:55Z</time></trkpt><trkpt lat="45.774872587186856" lon="9.89143175610336"><ele>590.0</ele><time>2026-04-04T10:49:57Z</time></trkpt><trkpt lat="45.774836637082586" lon="9.891515141036258"><ele>590.0</ele><time>2026-04-04T10:49:59Z</time></trkpt><trkpt lat="45.774798924143234" lon="9.891602406697931"><ele>590.0</ele><time>2026-04-04T10:50:01Z</time></trkpt><trkpt lat="45.77475434242112" lon="9.891683732890463"><ele>590.0</ele><time>2026-04-04T10:50:03Z</time></trkpt><trkpt lat="45.77471103490061" lon="9.891770664842246"><ele>590.0</ele><time>2026-04-04T10:50:05Z</time></trkpt><trkpt lat="45.774660318875334" lon="9.891850235424211"><ele>590.0</ele><time>2026-04-04T10:50:07Z</time></trkpt><trkpt lat="45.77460529872084" lon="9.891930348481475"><ele>590.0</ele><time>2026-04-04T10:50:09Z</time></trkpt><trkpt lat="45.77455277904048" lon="9.892011733210666"><ele>590.0</ele><time>2026-04-04T10:50:11Z</time></trkpt><trkpt lat="45.77449686985064" lon="9.892091732715024"><ele>591.0</ele><time>2026-04-04T10:50:13Z</time></trkpt><trkpt lat="45.77444444665446" lon="9.892176253899613"><ele>592.0</ele><time>2026-04-04T10:50:15Z</time></trkpt><trkpt lat="45.77438388493574" lon="9.89225950433109"><ele>593.0</ele><time>2026-04-04T10:50:17Z</time></trkpt><trkpt lat="45.77432396331006" lon="9.892347260067936"><ele>594.0</ele><time>2026-04-04T10:50:19Z</time></trkpt><trkpt lat="45.774267747692726" lon="9.892438071710272"><ele>595.0</ele><time>2026-04-04T10:50:21Z</time></trkpt><trkpt lat="45.77420994836208" lon="9.892519057241707"><ele>596.0</ele><time>2026-04-04T10:50:23Z</time></trkpt><trkpt lat="45.774146954487335" lon="9.892597268268513"><ele>596.0</ele><time>2026-04-04T10:50:25Z</time></trkpt><trkpt lat="45.774094937695835" lon="9.892688292193913"><ele>596.0</ele><time>2026-04-04T10:50:27Z</time></trkpt><trkpt lat="45.774041005568556" lon="9.892779941007879"><ele>596.0</ele><time>2026-04-04T10:50:29Z</time></trkpt><trkpt lat="45.77398458898542" lon="9.892865073499783"><ele>596.0</ele><time>2026-04-04T10:50:31Z</time></trkpt><trkpt lat="45.77392931862452" lon="9.892950689826096"><ele>596.0</ele><time>2026-04-04T10:50:33Z</time></trkpt><trkpt lat="45.773871859604995" lon="9.893042444597755"><ele>596.0</ele><time>2026-04-04T10:50:35Z</time></trkpt><trkpt lat="45.77381003381514" lon="9.893124736367577"><ele>596.0</ele><time>2026-04-04T10:50:37Z</time></trkpt><trkpt lat="45.77375190452599" lon="9.893212965971394"><ele>596.0</ele><time>2026-04-04T10:50:39Z</time></trkpt><trkpt lat="45.77369269974929" lon="9.893306519316347"><ele>596.0</ele><time>2026-04-04T10:50:41Z</time></trkpt><trkpt lat="45.7736346778864" lon="9.893405016657756"><ele>596.0</ele><time>2026-04-04T10:50:43Z</time></trkpt><trkpt lat="45.773573196729394" lon="9.893499306683246"><ele>596.0</ele><time>2026-04-04T10:50:45Z</time></trkpt><trkpt lat="45.773513121574304" lon="9.893594269586558"><ele>596.0</ele><time>2026-04-04T10:50:47Z</time></trkpt><trkpt lat="45.77345174364198" lon="9.893684255844471"><ele>595.6</ele><time>2026-04-04T10:50:49Z</time></trkpt><trkpt lat="45.773387618859374" lon="9.893774991142674"><ele>595.2</ele><time>2026-04-04T10:50:51Z</time></trkpt><trkpt lat="45.773318665400055" lon="9.893862896811552"><ele>594.8</ele><time>2026-04-04T10:50:52.999Z</time></trkpt><trkpt lat="45.77324868221865" lon="9.893950624735536"><ele>594.4</ele><time>2026-04-04T10:50:54.999Z</time></trkpt><trkpt lat="45.773179617506855" lon="9.894046031235032"><ele>594.0</ele><time>2026-04-04T10:50:56.999Z</time></trkpt><trkpt lat="45.773103672295775" lon="9.894127511616377"><ele>594.0</ele><time>2026-04-04T10:50:58.999Z</time></trkpt><trkpt lat="45.773026320636326" lon="9.894205359969481"><ele>594.0</ele><time>2026-04-04T10:51:00.999Z</time></trkpt><trkpt lat="45.772952847626044" lon="9.894287054167423"><ele>594.0</ele><time>2026-04-04T10:51:02.999Z</time></trkpt><trkpt lat="45.77287778887645" lon="9.894369148288305"><ele>594.0</ele><time>2026-04-04T10:51:04.999Z</time></trkpt><trkpt lat="45.77280059991331" lon="9.89445651514082"><ele>594.0</ele><time>2026-04-04T10:51:06.999Z</time></trkpt><trkpt lat="45.7727222338511" lon="9.894540988118537"><ele>593.8</ele><time>2026-04-04T10:51:08.999Z</time></trkpt><trkpt lat="45.77264523386437" lon="9.894627886662626"><ele>593.5999999999999</ele><time>2026-04-04T10:51:10.999Z</time></trkpt><trkpt lat="45.772568338863785" lon="9.894718035193867"><ele>593.4</ele><time>2026-04-04T10:51:12.999Z</time></trkpt><trkpt lat="45.772489749381265" lon="9.894803992889704"><ele>593.1999999999999</ele><time>2026-04-04T10:51:14.999Z</time></trkpt><trkpt lat="45.772412026875486" lon="9.894889426035046"><ele>593.0</ele><time>2026-04-04T10:51:16.999Z</time></trkpt><trkpt lat="45.772335335664344" lon="9.894976345067867"><ele>593.0</ele><time>2026-04-04T10:51:18.999Z</time></trkpt><trkpt lat="45.772260205374195" lon="9.895068039026029"><ele>593.0</ele><time>2026-04-04T10:51:20.999Z</time></trkpt><trkpt lat="45.77218082142683" lon="9.895159354493009"><ele>593.0</ele><time>2026-04-04T10:51:22.999Z</time></trkpt><trkpt lat="45.77210158356467" lon="9.895249674982741"><ele>593.0</ele><time>2026-04-04T10:51:24.999Z</time></trkpt><trkpt lat="45.77202613107405" lon="9.895340959120514"><ele>593.0</ele><time>2026-04-04T10:51:26.999Z</time></trkpt><trkpt lat="45.77194724230353" lon="9.895427788747472"><ele>593.6</ele><time>2026-04-04T10:51:28.999Z</time></trkpt><trkpt lat="45.771866954781565" lon="9.895510182485365"><ele>594.1999999999999</ele><time>2026-04-04T10:51:30.999Z</time></trkpt><trkpt lat="45.77178158658642" lon="9.895581397169925"><ele>594.8</ele><time>2026-04-04T10:51:32.999Z</time></trkpt><trkpt lat="45.77169920435372" lon="9.895650111899142"><ele>595.4</ele><time>2026-04-04T10:51:34.999Z</time></trkpt><trkpt lat="45.77161689273744" lon="9.895719209055722"><ele>596.0</ele><time>2026-04-04T10:51:36.999Z</time></trkpt><trkpt lat="45.7715346233148" lon="9.895785187964146"><ele>596.0</ele><time>2026-04-04T10:51:38.999Z</time></trkpt><trkpt lat="45.77144646617882" lon="9.895850145292291"><ele>596.0</ele><time>2026-04-04T10:51:40.999Z</time></trkpt><trkpt lat="45.771359762307284" lon="9.895919937744724"><ele>596.0</ele><time>2026-04-04T10:51:42.999Z</time></trkpt><trkpt lat="45.7712729445111" lon="9.895989363572264"><ele>596.0</ele><time>2026-04-04T10:51:44.999Z</time></trkpt><trkpt lat="45.77118854408834" lon="9.89605559441563"><ele>596.0</ele><time>2026-04-04T10:51:46.998Z</time></trkpt><trkpt lat="45.77110263547833" lon="9.896126067754992"><ele>597.2</ele><time>2026-04-04T10:51:48.998Z</time></trkpt><trkpt lat="45.77101935483284" lon="9.896194367695363"><ele>598.4000000000001</ele><time>2026-04-04T10:51:50.998Z</time></trkpt><trkpt lat="45.770935593667815" lon="9.896260999611602"><ele>599.6</ele><time>2026-04-04T10:51:52.998Z</time></trkpt><trkpt lat="45.770861322624135" lon="9.896337883780454"><ele>600.8000000000001</ele><time>2026-04-04T10:51:54.998Z</time></trkpt><trkpt lat="45.77079511601048" lon="9.896430647950018"><ele>602.0</ele><time>2026-04-04T10:51:57Z</time></trkpt><trkpt lat="45.77072585315149" lon="9.89653260851123"><ele>602.0</ele><time>2026-04-04T10:51:59Z</time></trkpt><trkpt lat="45.77066488915937" lon="9.896643379797105"><ele>602.0</ele><time>2026-04-04T10:52:01Z</time></trkpt><trkpt lat="45.77060497969014" lon="9.896760278202112"><ele>602.0</ele><time>2026-04-04T10:52:03Z</time></trkpt><trkpt lat="45.77054701973426" lon="9.896875661750839"><ele>602.0</ele><time>2026-04-04T10:52:05Z</time></trkpt><trkpt lat="45.77048924668238" lon="9.896986689004855"><ele>602.0</ele><time>2026-04-04T10:52:07Z</time></trkpt><trkpt lat="45.770438657248086" lon="9.897095607763603"><ele>607.0</ele><time>2026-04-04T10:52:09Z</time></trkpt><trkpt lat="45.77039051859144" lon="9.897208457167284"><ele>612.0</ele><time>2026-04-04T10:52:11Z</time></trkpt><trkpt lat="45.770345090500825" lon="9.897325863222147"><ele>617.0</ele><time>2026-04-04T10:52:13Z</time></trkpt><trkpt lat="45.77030416801229" lon="9.897450924629032"><ele>622.0</ele><time>2026-04-04T10:52:15Z</time></trkpt><trkpt lat="45.77026482921679" lon="9.897579300226418"><ele>627.0</ele><time>2026-04-04T10:52:17Z</time></trkpt><trkpt lat="45.77022760553533" lon="9.897704340451144"><ele>624.3333333333334</ele><time>2026-04-04T10:52:19Z</time></trkpt><trkpt lat="45.770191385731536" lon="9.89782764271185"><ele>621.6666666666666</ele><time>2026-04-04T10:52:21Z</time></trkpt><trkpt lat="45.77015942992143" lon="9.897949328865417"><ele>619.0</ele><time>2026-04-04T10:52:23Z</time></trkpt><trkpt lat="45.770127725724464" lon="9.898066204970606"><ele>616.3333333333333</ele><time>2026-04-04T10:52:25Z</time></trkpt><trkpt lat="45.770091832660675" lon="9.89818098028313"><ele>613.6666666666666</ele><time>2026-04-04T10:52:27Z</time></trkpt><trkpt lat="45.77006371835513" lon="9.898289565923594"><ele>611.0</ele><time>2026-04-04T10:52:29Z</time></trkpt><trkpt lat="45.77003812075747" lon="9.898419550472926"><ele>611.0</ele><time>2026-04-04T10:52:31Z</time></trkpt><trkpt lat="45.770011216852346" lon="9.898542718907823"><ele>611.0</ele><time>2026-04-04T10:52:33Z</time></trkpt><trkpt lat="45.76998526281952" lon="9.898661531314664"><ele>611.0</ele><time>2026-04-04T10:52:35Z</time></trkpt><trkpt lat="45.76996235537392" lon="9.898781380187508"><ele>611.0</ele><time>2026-04-04T10:52:37Z</time></trkpt><trkpt lat="45.76993847038721" lon="9.898893473055542"><ele>611.0</ele><time>2026-04-04T10:52:39Z</time></trkpt><trkpt lat="45.76991412214203" lon="9.89900138274917"><ele>611.0</ele><time>2026-04-04T10:52:41Z</time></trkpt><trkpt lat="45.769885664613334" lon="9.899116050381451"><ele>611.6666666666666</ele><time>2026-04-04T10:52:44Z</time></trkpt><trkpt lat="45.76986664365257" lon="9.899252239344547"><ele>612.3333333333333</ele><time>2026-04-04T10:52:46Z</time></trkpt><trkpt lat="45.76987053727723" lon="9.899354341149065"><ele>613.0</ele><time>2026-04-04T10:52:48Z</time></trkpt><trkpt lat="45.76986913718623" lon="9.899464694708985"><ele>613.6666666666666</ele><time>2026-04-04T10:52:50Z</time></trkpt><trkpt lat="45.76988165255703" lon="9.899578107202078"><ele>614.3333333333334</ele><time>2026-04-04T10:52:52Z</time></trkpt><trkpt lat="45.769892594128564" lon="9.89968667860944"><ele>615.0</ele><time>2026-04-04T10:52:54Z</time></trkpt><trkpt lat="45.769902108278764" lon="9.899793559799882"><ele>615.0</ele><time>2026-04-04T10:52:56Z</time></trkpt><trkpt lat="45.76991816526536" lon="9.89989622071279"><ele>615.0</ele><time>2026-04-04T10:52:57.999Z</time></trkpt><trkpt lat="45.769938645199915" lon="9.900000282383425"><ele>615.0</ele><time>2026-04-04T10:52:59.999Z</time></trkpt><trkpt lat="45.76995245417486" lon="9.90009899004043"><ele>615.0</ele><time>2026-04-04T10:53:01.999Z</time></trkpt><trkpt lat="45.769967131788604" lon="9.900203756507706"><ele>615.0</ele><time>2026-04-04T10:53:03.999Z</time></trkpt><trkpt lat="45.76998454248853" lon="9.900303998337161"><ele>615.0</ele><time>2026-04-04T10:53:05.999Z</time></trkpt><trkpt lat="45.769997889414505" lon="9.900406390756867"><ele>615.0</ele><time>2026-04-04T10:53:07.999Z</time></trkpt><trkpt lat="45.770016528029124" lon="9.900501478289007"><ele>615.1428571428571</ele><time>2026-04-04T10:53:09.999Z</time></trkpt><trkpt lat="45.770029555840246" lon="9.900604052710333"><ele>615.2857142857143</ele><time>2026-04-04T10:53:11.999Z</time></trkpt><trkpt lat="45.7700454914247" lon="9.900703887965577"><ele>615.4285714285714</ele><time>2026-04-04T10:53:13.999Z</time></trkpt><trkpt lat="45.770057868312946" lon="9.900803298079857"><ele>615.5714285714286</ele><time>2026-04-04T10:53:15.999Z</time></trkpt><trkpt lat="45.770074157591296" lon="9.90089843695615"><ele>615.7142857142858</ele><time>2026-04-04T10:53:17.999Z</time></trkpt><trkpt lat="45.77008684645981" lon="9.90099485423875"><ele>615.8571428571429</ele><time>2026-04-04T10:53:19.999Z</time></trkpt><trkpt lat="45.77010346900961" lon="9.90109034165699"><ele>616.0</ele><time>2026-04-04T10:53:21.999Z</time></trkpt><trkpt lat="45.77012077673451" lon="9.901188590086793"><ele>616.7142857142857</ele><time>2026-04-04T10:53:23.999Z</time></trkpt><trkpt lat="45.770137395374995" lon="9.901281585418502"><ele>617.4285714285714</ele><time>2026-04-04T10:53:25.999Z</time></trkpt><trkpt lat="45.770145956969166" lon="9.901377068974147"><ele>618.1428571428571</ele><time>2026-04-04T10:53:27.999Z</time></trkpt><trkpt lat="45.770160072326426" lon="9.901471287417936"><ele>618.8571428571429</ele><time>2026-04-04T10:53:29.999Z</time></trkpt><trkpt lat="45.770172994084255" lon="9.901565837142718"><ele>619.5714285714286</ele><time>2026-04-04T10:53:31.999Z</time></trkpt><trkpt lat="45.770185954523555" lon="9.90166216248632"><ele>620.2857142857142</ele><time>2026-04-04T10:53:33.999Z</time></trkpt><trkpt lat="45.77019985205657" lon="9.90176005105431"><ele>621.0</ele><time>2026-04-04T10:53:35.999Z</time></trkpt><trkpt lat="45.770211156530344" lon="9.901852982602756"><ele>623.9999999999999</ele><time>2026-04-04T10:53:37.999Z</time></trkpt><trkpt lat="45.77023156808918" lon="9.901939217965685"><ele>627.0</ele><time>2026-04-04T10:53:39.999Z</time></trkpt><trkpt lat="45.77025780646336" lon="9.90202951047173"><ele>630.0</ele><time>2026-04-04T10:53:41.999Z</time></trkpt><trkpt lat="45.77028429728607" lon="9.902117989994572"><ele>633.0</ele><time>2026-04-04T10:53:43.999Z</time></trkpt><trkpt lat="45.77031439122999" lon="9.902205729725685"><ele>636.0</ele><time>2026-04-04T10:53:45.999Z</time></trkpt><trkpt lat="45.77034327745108" lon="9.90229609839143"><ele>638.9999999999999</ele><time>2026-04-04T10:53:47.999Z</time></trkpt><trkpt lat="45.77037219217669" lon="9.902381316224812"><ele>642.0</ele><time>2026-04-04T10:53:49.999Z</time></trkpt><trkpt lat="45.77040581194733" lon="9.902459477618935"><ele>641.9999999999999</ele><time>2026-04-04T10:53:51.998Z</time></trkpt><trkpt lat="45.77043679404217" lon="9.902540176236657"><ele>642.0</ele><time>2026-04-04T10:53:53.998Z</time></trkpt><trkpt lat="45.77046962312964" lon="9.902621883344656"><ele>642.0</ele><time>2026-04-04T10:53:55.998Z</time></trkpt><trkpt lat="45.77051254510921" lon="9.902735471628048"><ele>642.0</ele><time>2026-04-04T10:53:58.998Z</time></trkpt><trkpt lat="45.770555595811736" lon="9.902852376242464"><ele>642.0</ele><time>2026-04-04T10:54:01.998Z</time></trkpt><trkpt lat="45.77058771562039" lon="9.902932025637519"><ele>641.9999999999999</ele><time>2026-04-04T10:54:04Z</time></trkpt><trkpt lat="45.77061775936035" lon="9.903015881899043"><ele>642.0</ele><time>2026-04-04T10:54:06Z</time></trkpt><trkpt lat="45.770651045189624" lon="9.903101158929273"><ele>640.5</ele><time>2026-04-04T10:54:08Z</time></trkpt><trkpt lat="45.770680941416636" lon="9.903189832734194"><ele>639.0</ele><time>2026-04-04T10:54:10Z</time></trkpt><trkpt lat="45.77071311155292" lon="9.90328129571736"><ele>637.5</ele><time>2026-04-04T10:54:12Z</time></trkpt><trkpt lat="45.77074753782946" lon="9.903375208789923"><ele>636.0</ele><time>2026-04-04T10:54:14Z</time></trkpt><trkpt lat="45.77078939954903" lon="9.903471148771642"><ele>634.5</ele><time>2026-04-04T10:54:16Z</time></trkpt><trkpt lat="45.77082751858886" lon="9.903565649407804"><ele>633.0</ele><time>2026-04-04T10:54:18Z</time></trkpt><trkpt lat="45.77086636468097" lon="9.903670166635685"><ele>633.0</ele><time>2026-04-04T10:54:20Z</time></trkpt><trkpt lat="45.770905733627146" lon="9.903765533039861"><ele>633.0</ele><time>2026-04-04T10:54:22Z</time></trkpt><trkpt lat="45.77094423911821" lon="9.903857355757022"><ele>633.0</ele><time>2026-04-04T10:54:24Z</time></trkpt><trkpt lat="45.77098107585944" lon="9.903950580838174"><ele>633.0</ele><time>2026-04-04T10:54:26Z</time></trkpt><trkpt lat="45.77102334427255" lon="9.904037348615816"><ele>633.0</ele><time>2026-04-04T10:54:28Z</time></trkpt><trkpt lat="45.7710572242262" lon="9.904132792922002"><ele>633.0</ele><time>2026-04-04T10:54:30Z</time></trkpt><trkpt lat="45.77109471597821" lon="9.904220123881993"><ele>633.0</ele><time>2026-04-04T10:54:32Z</time></trkpt><trkpt lat="45.77113108339919" lon="9.904313583602773"><ele>634.8571428571429</ele><time>2026-04-04T10:54:34Z</time></trkpt><trkpt lat="45.77117162962314" lon="9.904402147881493"><ele>636.7142857142858</ele><time>2026-04-04T10:54:36Z</time></trkpt><trkpt lat="45.77121649278937" lon="9.90449219211452"><ele>638.5714285714287</ele><time>2026-04-04T10:54:38Z</time></trkpt><trkpt lat="45.771263656623475" lon="9.904577057776846"><ele>640.4285714285714</ele><time>2026-04-04T10:54:40Z</time></trkpt><trkpt lat="45.771311227351276" lon="9.904658549285156"><ele>642.2857142857143</ele><time>2026-04-04T10:54:42Z</time></trkpt><trkpt lat="45.77136058785717" lon="9.90474086042757"><ele>644.1428571428572</ele><time>2026-04-04T10:54:44Z</time></trkpt><trkpt lat="45.77140879820726" lon="9.904819167796965"><ele>646.0</ele><time>2026-04-04T10:54:46Z</time></trkpt><trkpt lat="45.77145600288518" lon="9.90490099033003"><ele>646.0</ele><time>2026-04-04T10:54:48Z</time></trkpt><trkpt lat="45.77150506183975" lon="9.90498302896484"><ele>646.0</ele><time>2026-04-04T10:54:50Z</time></trkpt><trkpt lat="45.77155641759275" lon="9.90506309596674"><ele>646.0</ele><time>2026-04-04T10:54:52Z</time></trkpt><trkpt lat="45.77160651605632" lon="9.905141193769593"><ele>646.0</ele><time>2026-04-04T10:54:54Z</time></trkpt><trkpt lat="45.77166244607181" lon="9.90521939747705"><ele>646.0</ele><time>2026-04-04T10:54:56Z</time></trkpt><trkpt lat="45.77171334738261" lon="9.905298444523028"><ele>646.0</ele><time>2026-04-04T10:54:58Z</time></trkpt><trkpt lat="45.771760306265236" lon="9.905386150824285"><ele>646.7142857142858</ele><time>2026-04-04T10:54:59.999Z</time></trkpt><trkpt lat="45.7718065067248" lon="9.90547227452848"><ele>647.4285714285714</ele><time>2026-04-04T10:55:01.999Z</time></trkpt><trkpt lat="45.77184056202498" lon="9.905565689843966"><ele>648.1428571428571</ele><time>2026-04-04T10:55:03.999Z</time></trkpt><trkpt lat="45.77187529573232" lon="9.905663522853766"><ele>648.8571428571429</ele><time>2026-04-04T10:55:05.999Z</time></trkpt><trkpt lat="45.77190285917559" lon="9.905760851522158"><ele>649.5714285714286</ele><time>2026-04-04T10:55:07.999Z</time></trkpt><trkpt lat="45.771926529298604" lon="9.905858166633958"><ele>650.2857142857143</ele><time>2026-04-04T10:55:09.999Z</time></trkpt><trkpt lat="45.7719458205723" lon="9.905958435148438"><ele>651.0</ele><time>2026-04-04T10:55:11.999Z</time></trkpt><trkpt lat="45.771967898920245" lon="9.90605841381768"><ele>652.0</ele><time>2026-04-04T10:55:13.999Z</time></trkpt><trkpt lat="45.771990787389015" lon="9.906160080082122"><ele>653.0</ele><time>2026-04-04T10:55:15.999Z</time></trkpt><trkpt lat="45.7720195649995" lon="9.906255601201044"><ele>654.0</ele><time>2026-04-04T10:55:17.999Z</time></trkpt><trkpt lat="45.77204413474722" lon="9.90635553432281"><ele>655.0</ele><time>2026-04-04T10:55:19.999Z</time></trkpt><trkpt lat="45.772060992228084" lon="9.906455180261919"><ele>656.0</ele><time>2026-04-04T10:55:21.999Z</time></trkpt><trkpt lat="45.772081430816414" lon="9.906555970938593"><ele>657.0</ele><time>2026-04-04T10:55:23.999Z</time></trkpt><trkpt lat="45.772102649447845" lon="9.906655014345054"><ele>658.0</ele><time>2026-04-04T10:55:25.999Z</time></trkpt><trkpt lat="45.77212811863956" lon="9.906760769124986"><ele>658.0</ele><time>2026-04-04T10:55:27.999Z</time></trkpt><trkpt lat="45.772157842466804" lon="9.906864533728985"><ele>658.0</ele><time>2026-04-04T10:55:29.999Z</time></trkpt><trkpt lat="45.772175627063746" lon="9.906969448875742"><ele>658.0</ele><time>2026-04-04T10:55:31.999Z</time></trkpt><trkpt lat="45.77220107628174" lon="9.907070009408125"><ele>658.0</ele><time>2026-04-04T10:55:33.999Z</time></trkpt><trkpt lat="45.77222407327696" lon="9.907172166998908"><ele>658.0</ele><time>2026-04-04T10:55:35.999Z</time></trkpt><trkpt lat="45.77225299707093" lon="9.907271999392028"><ele>658.0</ele><time>2026-04-04T10:55:37.999Z</time></trkpt><trkpt lat="45.77228205365455" lon="9.90736335319348"><ele>658.0</ele><time>2026-04-04T10:55:39.999Z</time></trkpt><trkpt lat="45.772315270449674" lon="9.907457311042188"><ele>658.0</ele><time>2026-04-04T10:55:41.999Z</time></trkpt><trkpt lat="45.77235477736158" lon="9.907549225294535"><ele>658.0</ele><time>2026-04-04T10:55:43.999Z</time></trkpt><trkpt lat="45.77240654120143" lon="9.907639648565558"><ele>658.0</ele><time>2026-04-04T10:55:45.999Z</time></trkpt><trkpt lat="45.772459853859736" lon="9.90772748440698"><ele>658.0</ele><time>2026-04-04T10:55:47.999Z</time></trkpt><trkpt lat="45.772509339782935" lon="9.907814083904906"><ele>658.0</ele><time>2026-04-04T10:55:49.999Z</time></trkpt><trkpt lat="45.772562081146944" lon="9.907899006859537"><ele>658.0</ele><time>2026-04-04T10:55:51.999Z</time></trkpt><trkpt lat="45.77261247089796" lon="9.907983286572192"><ele>658.5</ele><time>2026-04-04T10:55:53.998Z</time></trkpt><trkpt lat="45.772660064529546" lon="9.908067466735272"><ele>659.0</ele><time>2026-04-04T10:55:55.998Z</time></trkpt><trkpt lat="45.772704463331316" lon="9.908155914595396"><ele>659.5</ele><time>2026-04-04T10:55:57.998Z</time></trkpt><trkpt lat="45.77274821261367" lon="9.908249831207323"><ele>660.0</ele><time>2026-04-04T10:55:59.998Z</time></trkpt><trkpt lat="45.77279088956211" lon="9.908347985026621"><ele>660.5</ele><time>2026-04-04T10:56:01.998Z</time></trkpt><trkpt lat="45.7728306934772" lon="9.90844740309106"><ele>661.0</ele><time>2026-04-04T10:56:03.998Z</time></trkpt><trkpt lat="45.772875318692726" lon="9.90854032117678"><ele>664.1666666666667</ele><time>2026-04-04T10:56:05.998Z</time></trkpt><trkpt lat="45.7729253013534" lon="9.908634167811552"><ele>667.3333333333334</ele><time>2026-04-04T10:56:07.998Z</time></trkpt><trkpt lat="45.77297184668149" lon="9.908719441670687"><ele>670.5</ele><time>2026-04-04T10:56:10Z</time></trkpt><trkpt lat="45.77301662453072" lon="9.908807186364806"><ele>673.6666666666666</ele><time>2026-04-04T10:56:12Z</time></trkpt><trkpt lat="45.773056284181614" lon="9.908901038412145"><ele>676.8333333333333</ele><time>2026-04-04T10:56:14Z</time></trkpt><trkpt lat="45.77304234165747" lon="9.909010899231443"><ele>680.0</ele><time>2026-04-04T10:56:16Z</time></trkpt><trkpt lat="45.77298395002242" lon="9.909092319647879"><ele>680.0</ele><time>2026-04-04T10:56:18Z</time></trkpt><trkpt lat="45.77290298058919" lon="9.909105697137646"><ele>680.0</ele><time>2026-04-04T10:56:20Z</time></trkpt><trkpt lat="45.77283453457098" lon="9.908988224709436"><ele>680.0</ele><time>2026-04-04T10:56:22Z</time></trkpt><trkpt lat="45.772786833230896" lon="9.908884404237462"><ele>680.0</ele><time>2026-04-04T10:56:24Z</time></trkpt><trkpt lat="45.77273301140268" lon="9.908789845221172"><ele>680.0</ele><time>2026-04-04T10:56:26Z</time></trkpt><trkpt lat="45.772665844077906" lon="9.90871215179315"><ele>680.0</ele><time>2026-04-04T10:56:28Z</time></trkpt><trkpt lat="45.772598841982045" lon="9.908649350865455"><ele>679.6666666666666</ele><time>2026-04-04T10:56:30Z</time></trkpt><trkpt lat="45.77253895710406" lon="9.908580152584726"><ele>679.3333333333333</ele><time>2026-04-04T10:56:32Z</time></trkpt><trkpt lat="45.77248181884793" lon="9.908508975605223"><ele>679.0</ele><time>2026-04-04T10:56:34Z</time></trkpt><trkpt lat="45.77241782001547" lon="9.90844065634644"><ele>678.6666666666666</ele><time>2026-04-04T10:56:36Z</time></trkpt><trkpt lat="45.77235401761792" lon="9.908366940049874"><ele>678.3333333333334</ele><time>2026-04-04T10:56:38Z</time></trkpt><trkpt lat="45.77229090009088" lon="9.908293761004956"><ele>678.0</ele><time>2026-04-04T10:56:40Z</time></trkpt><trkpt lat="45.77222505982062" lon="9.908236926142585"><ele>676.0</ele><time>2026-04-04T10:56:42Z</time></trkpt><trkpt lat="45.77215767345642" lon="9.908191532273845"><ele>674.0</ele><time>2026-04-04T10:56:44Z</time></trkpt><trkpt lat="45.772089367244696" lon="9.9081571426853"><ele>672.0</ele><time>2026-04-04T10:56:46Z</time></trkpt><trkpt lat="45.7720157994151" lon="9.908141789350404"><ele>670.0</ele><time>2026-04-04T10:56:48Z</time></trkpt><trkpt lat="45.77194094507135" lon="9.908133762218213"><ele>668.0</ele><time>2026-04-04T10:56:50Z</time></trkpt><trkpt lat="45.77186131845203" lon="9.90814384640692"><ele>666.0</ele><time>2026-04-04T10:56:52Z</time></trkpt><trkpt lat="45.77178693699747" lon="9.908165172196036"><ele>666.0</ele><time>2026-04-04T10:56:54Z</time></trkpt><trkpt lat="45.77171045336007" lon="9.908193930992324"><ele>666.0</ele><time>2026-04-04T10:56:56Z</time></trkpt><trkpt lat="45.77163590632961" lon="9.908206972570419"><ele>666.0</ele><time>2026-04-04T10:56:58Z</time></trkpt><trkpt lat="45.77156342362897" lon="9.908225613473116"><ele>666.0</ele><time>2026-04-04T10:57:00Z</time></trkpt><trkpt lat="45.77149374423385" lon="9.908255593149978"><ele>666.0</ele><time>2026-04-04T10:57:01.999Z</time></trkpt><trkpt lat="45.77142467143413" lon="9.908299377591335"><ele>666.0</ele><time>2026-04-04T10:57:03.999Z</time></trkpt><trkpt lat="45.77138012893457" lon="9.90837157315356"><ele>666.0</ele><time>2026-04-04T10:57:05.999Z</time></trkpt><trkpt lat="45.77131720438079" lon="9.908450742342772"><ele>666.6666666666666</ele><time>2026-04-04T10:57:07.999Z</time></trkpt><trkpt lat="45.771263511739285" lon="9.908545140854056"><ele>667.3333333333334</ele><time>2026-04-04T10:57:09.999Z</time></trkpt><trkpt lat="45.771250049691645" lon="9.908684255265676"><ele>668.0</ele><time>2026-04-04T10:57:11.999Z</time></trkpt><trkpt lat="45.77124042712072" lon="9.908803215721063"><ele>668.6666666666667</ele><time>2026-04-04T10:57:13.999Z</time></trkpt><trkpt lat="45.77119274089012" lon="9.908897261571799"><ele>669.3333333333334</ele><time>2026-04-04T10:57:15.999Z</time></trkpt><trkpt lat="45.77114719270487" lon="9.908970137493936"><ele>670.0</ele><time>2026-04-04T10:57:17.999Z</time></trkpt><trkpt lat="45.7711015290188" lon="9.909039855011102"><ele>666.8333333333334</ele><time>2026-04-04T10:57:20.999Z</time></trkpt><trkpt lat="45.771019944597796" lon="9.90904800202956"><ele>663.6666666666667</ele><time>2026-04-04T11:07:37.999Z</time></trkpt><trkpt lat="45.77093883338041" lon="9.909046983401083"><ele>660.5</ele><time>2026-04-04T11:07:41.999Z</time></trkpt><trkpt lat="45.770872955657545" lon="9.909001933277981"><ele>657.3333333333334</ele><time>2026-04-04T11:07:44.999Z</time></trkpt><trkpt lat="45.77081113819332" lon="9.908933889475684"><ele>654.1666666666666</ele><time>2026-04-04T11:07:46.999Z</time></trkpt><trkpt lat="45.77073154290369" lon="9.908859247695634"><ele>651.0</ele><time>2026-04-04T11:07:48.999Z</time></trkpt><trkpt lat="45.77064296793566" lon="9.908757232514642"><ele>651.0</ele><time>2026-04-04T11:07:50.999Z</time></trkpt><trkpt lat="45.77056226707192" lon="9.9086195484506"><ele>651.0</ele><time>2026-04-04T11:07:52.999Z</time></trkpt><trkpt lat="45.77052452859387" lon="9.908546011042116"><ele>651.0</ele><time>2026-04-04T11:07:53.999Z</time></trkpt><trkpt lat="45.770504845428356" lon="9.90844780672423"><ele>651.0</ele><time>2026-04-04T11:07:54.999Z</time></trkpt><trkpt lat="45.77047622379961" lon="9.908352432197946"><ele>651.0</ele><time>2026-04-04T11:07:55.999Z</time></trkpt><trkpt lat="45.77042131924517" lon="9.90829399031482"><ele>651.0</ele><time>2026-04-04T11:07:56.999Z</time></trkpt><trkpt lat="45.770338872786944" lon="9.908300231014117"><ele>651.0</ele><time>2026-04-04T11:07:57.999Z</time></trkpt><trkpt lat="45.770267448572156" lon="9.908387241042144"><ele>651.0</ele><time>2026-04-04T11:07:58.999Z</time></trkpt><trkpt lat="45.77024682721803" lon="9.908516524009556"><ele>651.0</ele><time>2026-04-04T11:07:59.999Z</time></trkpt><trkpt lat="45.77029325740689" lon="9.908637644484019"><ele>651.0</ele><time>2026-04-04T11:08:00.999Z</time></trkpt><trkpt lat="45.77036550740225" lon="9.908726526610748"><ele>651.0</ele><time>2026-04-04T11:08:01.999Z</time></trkpt><trkpt lat="45.770439661313866" lon="9.908799353356976"><ele>651.0</ele><time>2026-04-04T11:08:02.999Z</time></trkpt><trkpt lat="45.770500096503746" lon="9.908890094294623"><ele>651.0</ele><time>2026-04-04T11:08:03.999Z</time></trkpt><trkpt lat="45.77054706651037" lon="9.908999129019273"><ele>651.0</ele><time>2026-04-04T11:08:04.999Z</time></trkpt><trkpt lat="45.77059827620335" lon="9.909109392725453"><ele>651.0</ele><time>2026-04-04T11:08:05.998Z</time></trkpt><trkpt lat="45.7706518518618" lon="9.909218967110395"><ele>651.0</ele><time>2026-04-04T11:08:06.998Z</time></trkpt><trkpt lat="45.770708912798355" lon="9.909330053573115"><ele>647.5999999999999</ele><time>2026-04-04T11:08:07.998Z</time></trkpt><trkpt lat="45.770764759082596" lon="9.909445814442648"><ele>644.1999999999999</ele><time>2026-04-04T11:08:08.998Z</time></trkpt><trkpt lat="45.77081940056313" lon="9.909564132670193"><ele>640.8</ele><time>2026-04-04T11:08:09.998Z</time></trkpt><trkpt lat="45.77087308027397" lon="9.909684757528003"><ele>637.4</ele><time>2026-04-04T11:08:10.998Z</time></trkpt><trkpt lat="45.77092315890316" lon="9.909808548267144"><ele>634.0</ele><time>2026-04-04T11:08:11.998Z</time></trkpt><trkpt lat="45.77097567654822" lon="9.909930429563593"><ele>638.8</ele><time>2026-04-04T11:08:12.998Z</time></trkpt><trkpt lat="45.7710311222802" lon="9.910053439029989"><ele>643.5999999999999</ele><time>2026-04-04T11:08:13.998Z</time></trkpt><trkpt lat="45.77108570278345" lon="9.91017815468239"><ele>648.4</ele><time>2026-04-04T11:08:14.998Z</time></trkpt><trkpt lat="45.771140317680384" lon="9.910303510265912"><ele>653.1999999999999</ele><time>2026-04-04T11:08:15.998Z</time></trkpt><trkpt lat="45.771197081382425" lon="9.910435751859058"><ele>658.0</ele><time>2026-04-04T11:08:16.998Z</time></trkpt><trkpt lat="45.77125434803367" lon="9.910564405920772"><ele>658.0</ele><time>2026-04-04T11:08:17.998Z</time></trkpt><trkpt lat="45.771311721935646" lon="9.910698288978079"><ele>658.0</ele><time>2026-04-04T11:08:18.998Z</time></trkpt><trkpt lat="45.77136899054581" lon="9.910833130061139"><ele>658.0</ele><time>2026-04-04T11:08:19.998Z</time></trkpt><trkpt lat="45.771425586691684" lon="9.910970121077128"><ele>658.0</ele><time>2026-04-04T11:08:20.998Z</time></trkpt><trkpt lat="45.7714703436118" lon="9.911114087959469"><ele>658.0</ele><time>2026-04-04T11:08:21.998Z</time></trkpt><trkpt lat="45.77150135245695" lon="9.911265786253816"><ele>655.0</ele><time>2026-04-04T11:08:22.998Z</time></trkpt><trkpt lat="45.771518841301756" lon="9.911427166174974"><ele>652.0</ele><time>2026-04-04T11:08:23.998Z</time></trkpt><trkpt lat="45.77153603159894" lon="9.91158697690269"><ele>649.0</ele><time>2026-04-04T11:08:24.998Z</time></trkpt><trkpt lat="45.771557716211774" lon="9.911747040105594"><ele>646.0</ele><time>2026-04-04T11:08:25.998Z</time></trkpt><trkpt lat="45.77157667276844" lon="9.911909698484466"><ele>642.75</ele><time>2026-04-04T11:08:26.998Z</time></trkpt><trkpt lat="45.77159953268059" lon="9.912072644241324"><ele>639.5</ele><time>2026-04-04T11:08:27.998Z</time></trkpt><trkpt lat="45.77162692911177" lon="9.91223118274603"><ele>636.25</ele><time>2026-04-04T11:08:28.998Z</time></trkpt><trkpt lat="45.771657850430614" lon="9.912385535673197"><ele>633.0</ele><time>2026-04-04T11:08:29.998Z</time></trkpt><trkpt lat="45.7716980461352" lon="9.912538361578562"><ele>635.0</ele><time>2026-04-04T11:08:30.998Z</time></trkpt><trkpt lat="45.771743533654586" lon="9.912694465504122"><ele>637.0</ele><time>2026-04-04T11:08:31.998Z</time></trkpt><trkpt lat="45.77178767153657" lon="9.912849133633838"><ele>639.0</ele><time>2026-04-04T11:08:32.998Z</time></trkpt><trkpt lat="45.77183677817494" lon="9.913002906456665"><ele>641.0</ele><time>2026-04-04T11:08:33.998Z</time></trkpt><trkpt lat="45.7718822856731" lon="9.913161034982437"><ele>641.0</ele><time>2026-04-04T11:08:34.998Z</time></trkpt><trkpt lat="45.7719279785865" lon="9.913319236987226"><ele>641.0</ele><time>2026-04-04T11:08:35.998Z</time></trkpt><trkpt lat="45.771979554861645" lon="9.913467067906144"><ele>641.0</ele><time>2026-04-04T11:08:36.998Z</time></trkpt><trkpt lat="45.77203184347604" lon="9.9136032365925"><ele>641.0</ele><time>2026-04-04T11:08:37.998Z</time></trkpt><trkpt lat="45.772090484418094" lon="9.913725003525311"><ele>641.0</ele><time>2026-04-04T11:08:38.998Z</time></trkpt><trkpt lat="45.77216168645652" lon="9.913826662433523"><ele>639.2857142857143</ele><time>2026-04-04T11:08:39.998Z</time></trkpt><trkpt lat="45.77221975460747" lon="9.91392453010252"><ele>637.5714285714286</ele><time>2026-04-04T11:08:40.998Z</time></trkpt><trkpt lat="45.772254294265885" lon="9.914014045893369"><ele>635.8571428571429</ele><time>2026-04-04T11:08:41.998Z</time></trkpt><trkpt lat="45.77225412811748" lon="9.914107568281233"><ele>634.1428571428571</ele><time>2026-04-04T11:08:42.998Z</time></trkpt><trkpt lat="45.772198158364894" lon="9.914164565153566"><ele>632.4285714285714</ele><time>2026-04-04T11:08:44Z</time></trkpt><trkpt lat="45.7721298711859" lon="9.914171868121555"><ele>630.7142857142857</ele><time>2026-04-04T11:08:45Z</time></trkpt><trkpt lat="45.77207379352838" lon="9.914124022053056"><ele>629.0</ele><time>2026-04-04T11:08:46Z</time></trkpt><trkpt lat="45.7720046442508" lon="9.914081589298918"><ele>629.0</ele><time>2026-04-04T11:08:47Z</time></trkpt><trkpt lat="45.77192912252762" lon="9.914040144416031"><ele>629.0</ele><time>2026-04-04T11:08:48Z</time></trkpt><trkpt lat="45.7718455215954" lon="9.913993906188534"><ele>629.0</ele><time>2026-04-04T11:08:49Z</time></trkpt><trkpt lat="45.77175558687989" lon="9.913962985911931"><ele>629.0</ele><time>2026-04-04T11:08:50Z</time></trkpt><trkpt lat="45.77167178123863" lon="9.913895814762732"><ele>629.0</ele><time>2026-04-04T11:08:51Z</time></trkpt><trkpt lat="45.77159746452635" lon="9.913810190920435"><ele>626.0</ele><time>2026-04-04T11:08:52Z</time></trkpt><trkpt lat="45.77153406130368" lon="9.913716414172121"><ele>623.0</ele><time>2026-04-04T11:08:53Z</time></trkpt><trkpt lat="45.771455465065074" lon="9.913683498013224"><ele>620.0</ele><time>2026-04-04T11:08:54Z</time></trkpt><trkpt lat="45.7713702534015" lon="9.913702383611623"><ele>617.0</ele><time>2026-04-04T11:08:55Z</time></trkpt><trkpt lat="45.771298901382536" lon="9.913802601303772"><ele>614.0</ele><time>2026-04-04T11:08:56Z</time></trkpt><trkpt lat="45.77129378837736" lon="9.913953338308009"><ele>614.0</ele><time>2026-04-04T11:08:57Z</time></trkpt><trkpt lat="45.77132454437275" lon="9.91407250471439"><ele>614.0</ele><time>2026-04-04T11:08:58Z</time></trkpt><trkpt lat="45.77138701554133" lon="9.914183029270855"><ele>614.0</ele><time>2026-04-04T11:08:59Z</time></trkpt><trkpt lat="45.771438330094306" lon="9.914294818401661"><ele>614.0</ele><time>2026-04-04T11:09:00Z</time></trkpt><trkpt lat="45.77149963133728" lon="9.914408200038595"><ele>614.0</ele><time>2026-04-04T11:09:01Z</time></trkpt><trkpt lat="45.77156114578374" lon="9.91452594056913"><ele>613.4</ele><time>2026-04-04T11:09:02Z</time></trkpt><trkpt lat="45.77162485817936" lon="9.914645870074002"><ele>612.8</ele><time>2026-04-04T11:09:03Z</time></trkpt><trkpt lat="45.77170550450749" lon="9.914755702401562"><ele>612.2</ele><time>2026-04-04T11:09:04Z</time></trkpt><trkpt lat="45.77180078590223" lon="9.914844628108847"><ele>611.6</ele><time>2026-04-04T11:09:05Z</time></trkpt><trkpt lat="45.77189895410338" lon="9.914939439415013"><ele>611.0</ele><time>2026-04-04T11:09:06Z</time></trkpt><trkpt lat="45.7719946816679" lon="9.915028119268108"><ele>607.5</ele><time>2026-04-04T11:09:07Z</time></trkpt><trkpt lat="45.772093538375366" lon="9.915112231319243"><ele>604.0</ele><time>2026-04-04T11:09:08Z</time></trkpt><trkpt lat="45.77218316443242" lon="9.91520083790828"><ele>600.5</ele><time>2026-04-04T11:09:09Z</time></trkpt><trkpt lat="45.7722618065975" lon="9.915315535234306"><ele>597.0</ele><time>2026-04-04T11:09:10Z</time></trkpt><trkpt lat="45.77233202540777" lon="9.91544592170264"><ele>597.0</ele><time>2026-04-04T11:09:11Z</time></trkpt><trkpt lat="45.77240590962283" lon="9.915583329079386"><ele>597.0</ele><time>2026-04-04T11:09:12Z</time></trkpt><trkpt lat="45.77247877837364" lon="9.915726269732462"><ele>597.0</ele><time>2026-04-04T11:09:13Z</time></trkpt><trkpt lat="45.77255185978976" lon="9.915871140029134"><ele>597.0</ele><time>2026-04-04T11:09:14Z</time></trkpt><trkpt lat="45.772625625650974" lon="9.916013648842316"><ele>600.0</ele><time>2026-04-04T11:09:15Z</time></trkpt><trkpt lat="45.77269943923062" lon="9.916151762916142"><ele>603.0</ele><time>2026-04-04T11:09:16Z</time></trkpt><trkpt lat="45.77277336627144" lon="9.916295103090844"><ele>606.0</ele><time>2026-04-04T11:09:17Z</time></trkpt><trkpt lat="45.77283701461969" lon="9.91643897967956"><ele>609.0</ele><time>2026-04-04T11:09:18Z</time></trkpt><trkpt lat="45.77288637736512" lon="9.916595143241317"><ele>607.5</ele><time>2026-04-04T11:09:19Z</time></trkpt><trkpt lat="45.772912285545985" lon="9.916766239330947"><ele>606.0</ele><time>2026-04-04T11:09:20Z</time></trkpt><trkpt lat="45.77292839043077" lon="9.91693516556148"><ele>604.5</ele><time>2026-04-04T11:09:21Z</time></trkpt><trkpt lat="45.77293873675005" lon="9.917105581099378"><ele>603.0</ele><time>2026-04-04T11:09:22Z</time></trkpt><trkpt lat="45.772943919386606" lon="9.917273458172485"><ele>603.0</ele><time>2026-04-04T11:09:23Z</time></trkpt><trkpt lat="45.77295254573125" lon="9.917439886565353"><ele>603.0</ele><time>2026-04-04T11:09:24Z</time></trkpt><trkpt lat="45.772959237207786" lon="9.917602537086498"><ele>603.0</ele><time>2026-04-04T11:09:25Z</time></trkpt><trkpt lat="45.7729561267453" lon="9.917757286216636"><ele>603.0</ele><time>2026-04-04T11:09:26Z</time></trkpt><trkpt lat="45.77293385513145" lon="9.91790422918422"><ele>603.0</ele><time>2026-04-04T11:09:27Z</time></trkpt><trkpt lat="45.772883443974436" lon="9.918035233225227"><ele>602.8</ele><time>2026-04-04T11:09:27.999Z</time></trkpt><trkpt lat="45.7728156304354" lon="9.918145432710439"><ele>602.5999999999999</ele><time>2026-04-04T11:09:28.999Z</time></trkpt><trkpt lat="45.77276076403449" lon="9.918260760923642"><ele>602.4000000000001</ele><time>2026-04-04T11:09:29.999Z</time></trkpt><trkpt lat="45.77270670675987" lon="9.918372779393115"><ele>602.2</ele><time>2026-04-04T11:09:30.999Z</time></trkpt><trkpt lat="45.77265518214075" lon="9.91848246454482"><ele>602.0</ele><time>2026-04-04T11:09:31.999Z</time></trkpt><trkpt lat="45.77260564752086" lon="9.91859011646521"><ele>600.0</ele><time>2026-04-04T11:09:32.999Z</time></trkpt><trkpt lat="45.772559153519005" lon="9.918695656617194"><ele>598.0</ele><time>2026-04-04T11:09:33.999Z</time></trkpt><trkpt lat="45.77252357978064" lon="9.918809616842516"><ele>596.0</ele><time>2026-04-04T11:09:34.999Z</time></trkpt><trkpt lat="45.77251292304204" lon="9.918934640116802"><ele>594.0</ele><time>2026-04-04T11:09:35.999Z</time></trkpt><trkpt lat="45.77252002540826" lon="9.919061056013332"><ele>592.0</ele><time>2026-04-04T11:09:36.999Z</time></trkpt><trkpt lat="45.77253760613101" lon="9.919184353361622"><ele>590.0</ele><time>2026-04-04T11:09:37.999Z</time></trkpt><trkpt lat="45.772569624626975" lon="9.919302755870754"><ele>588.6</ele><time>2026-04-04T11:09:38.999Z</time></trkpt><trkpt lat="45.77259642407507" lon="9.919427070284248"><ele>587.2</ele><time>2026-04-04T11:09:39.999Z</time></trkpt><trkpt lat="45.772612394054505" lon="9.91955689338725"><ele>585.8</ele><time>2026-04-04T11:09:40.999Z</time></trkpt><trkpt lat="45.772630887975794" lon="9.919688281953764"><ele>584.4</ele><time>2026-04-04T11:09:41.999Z</time></trkpt><trkpt lat="45.772653086590516" lon="9.919816065272235"><ele>583.0</ele><time>2026-04-04T11:09:42.999Z</time></trkpt><trkpt lat="45.772676797041775" lon="9.919941034451565"><ele>585.5</ele><time>2026-04-04T11:09:43.999Z</time></trkpt><trkpt lat="45.77270313149154" lon="9.920064739949206"><ele>588.0</ele><time>2026-04-04T11:09:44.999Z</time></trkpt><trkpt lat="45.772726425789884" lon="9.920189836312769"><ele>590.5</ele><time>2026-04-04T11:09:45.999Z</time></trkpt><trkpt lat="45.772750654061575" lon="9.920312284883508"><ele>593.0</ele><time>2026-04-04T11:09:46.999Z</time></trkpt><trkpt lat="45.772783909990686" lon="9.920430420941258"><ele>595.5</ele><time>2026-04-04T11:09:47.999Z</time></trkpt><trkpt lat="45.772821668159985" lon="9.920542906371242"><ele>598.0</ele><time>2026-04-04T11:09:48.999Z</time></trkpt><trkpt lat="45.77286392603314" lon="9.920655273370532"><ele>598.0</ele><time>2026-04-04T11:09:49.999Z</time></trkpt><trkpt lat="45.77290705660336" lon="9.920765592978809"><ele>598.0</ele><time>2026-04-04T11:09:50.999Z</time></trkpt><trkpt lat="45.77295168537141" lon="9.920876134240215"><ele>598.0</ele><time>2026-04-04T11:09:51.999Z</time></trkpt><trkpt lat="45.7729940287582" lon="9.920990623446805"><ele>598.0</ele><time>2026-04-04T11:09:52.999Z</time></trkpt><trkpt lat="45.773036915948076" lon="9.921104811882882"><ele>598.0</ele><time>2026-04-04T11:09:53.999Z</time></trkpt><trkpt lat="45.77308301453341" lon="9.921217332702108"><ele>598.0</ele><time>2026-04-04T11:09:54.999Z</time></trkpt><trkpt lat="45.77312799573818" lon="9.921331496751378"><ele>596.8333333333334</ele><time>2026-04-04T11:09:55.999Z</time></trkpt><trkpt lat="45.77317375444473" lon="9.92144294661539"><ele>595.6666666666667</ele><time>2026-04-04T11:09:56.999Z</time></trkpt><trkpt lat="45.7732177654179" lon="9.921551747426006"><ele>594.5</ele><time>2026-04-04T11:09:57.999Z</time></trkpt><trkpt lat="45.77326071410641" lon="9.921660499002797"><ele>593.3333333333334</ele><time>2026-04-04T11:09:58.999Z</time></trkpt><trkpt lat="45.77330315951376" lon="9.921770092993341"><ele>592.1666666666666</ele><time>2026-04-04T11:09:59.999Z</time></trkpt><trkpt lat="45.7733491251324" lon="9.921875511185402"><ele>591.0</ele><time>2026-04-04T11:10:00.999Z</time></trkpt><trkpt lat="45.773403565394254" lon="9.921976080456082"><ele>591.5</ele><time>2026-04-04T11:10:01.999Z</time></trkpt><trkpt lat="45.77345829631443" lon="9.922072939843323"><ele>592.0</ele><time>2026-04-04T11:10:02.999Z</time></trkpt><trkpt lat="45.773517537708884" lon="9.922167727321792"><ele>592.5</ele><time>2026-04-04T11:10:03.999Z</time></trkpt><trkpt lat="45.77357796160116" lon="9.922265167446456"><ele>593.0</ele><time>2026-04-04T11:10:04.999Z</time></trkpt><trkpt lat="45.773637240710656" lon="9.922360968627046"><ele>593.5</ele><time>2026-04-04T11:10:05.999Z</time></trkpt><trkpt lat="45.773694956225384" lon="9.922456688991616"><ele>594.0</ele><time>2026-04-04T11:10:06.999Z</time></trkpt><trkpt lat="45.773754642479666" lon="9.922550470317718"><ele>592.8333333333334</ele><time>2026-04-04T11:10:07.999Z</time></trkpt><trkpt lat="45.77381541493176" lon="9.922642245122004"><ele>591.6666666666666</ele><time>2026-04-04T11:10:08.999Z</time></trkpt><trkpt lat="45.773875436753094" lon="9.922733387340523"><ele>590.5</ele><time>2026-04-04T11:10:09.999Z</time></trkpt><trkpt lat="45.77393485797265" lon="9.922820343456548"><ele>589.3333333333333</ele><time>2026-04-04T11:10:10.999Z</time></trkpt><trkpt lat="45.77399426731699" lon="9.922906373840744"><ele>588.1666666666666</ele><time>2026-04-04T11:10:11.999Z</time></trkpt><trkpt lat="45.77405300578514" lon="9.922988308771487"><ele>587.0</ele><time>2026-04-04T11:10:12.999Z</time></trkpt><trkpt lat="45.77410815224915" lon="9.92307099475205"><ele>587.0</ele><time>2026-04-04T11:10:13.999Z</time></trkpt><trkpt lat="45.774158204396436" lon="9.923157885639087"><ele>587.0</ele><time>2026-04-04T11:10:14.999Z</time></trkpt><trkpt lat="45.77421316965314" lon="9.923237543535746"><ele>587.0</ele><time>2026-04-04T11:10:15.999Z</time></trkpt><trkpt lat="45.77428647417092" lon="9.923280602199597"><ele>587.0</ele><time>2026-04-04T11:10:16.999Z</time></trkpt><trkpt lat="45.77436920832167" lon="9.923279843216264"><ele>587.0</ele><time>2026-04-04T11:10:17.999Z</time></trkpt><trkpt lat="45.774448822814634" lon="9.9232786774866"><ele>587.0</ele><time>2026-04-04T11:10:18.999Z</time></trkpt><trkpt lat="45.774530103257646" lon="9.923298306607618"><ele>588.2</ele><time>2026-04-04T11:10:19.999Z</time></trkpt><trkpt lat="45.77461570472524" lon="9.923321245232472"><ele>589.4000000000001</ele><time>2026-04-04T11:10:20.999Z</time></trkpt><trkpt lat="45.774702169250034" lon="9.923343406484852"><ele>590.5999999999999</ele><time>2026-04-04T11:10:21.999Z</time></trkpt><trkpt lat="45.77479251105604" lon="9.923367522655695"><ele>591.8</ele><time>2026-04-04T11:10:22.999Z</time></trkpt><trkpt lat="45.77488381560699" lon="9.923398376860622"><ele>593.0</ele><time>2026-04-04T11:10:23.999Z</time></trkpt><trkpt lat="45.77497255495982" lon="9.923456662148642"><ele>589.1999999999999</ele><time>2026-04-04T11:10:24.999Z</time></trkpt><trkpt lat="45.775050738848975" lon="9.923549436925413"><ele>585.4</ele><time>2026-04-04T11:10:25.999Z</time></trkpt><trkpt lat="45.77511064469797" lon="9.923671952754344"><ele>581.5999999999999</ele><time>2026-04-04T11:10:26.998Z</time></trkpt><trkpt lat="45.77513718500155" lon="9.923820570124379"><ele>577.8</ele><time>2026-04-04T11:10:27.998Z</time></trkpt><trkpt lat="45.775150455262306" lon="9.923979902927027"><ele>574.0</ele><time>2026-04-04T11:10:28.998Z</time></trkpt><trkpt lat="45.77518719104852" lon="9.924127501409405"><ele>580.25</ele><time>2026-04-04T11:10:29.998Z</time></trkpt><trkpt lat="45.77524113350485" lon="9.924269645421903"><ele>586.5</ele><time>2026-04-04T11:10:30.998Z</time></trkpt><trkpt lat="45.775305728591036" lon="9.924404394093667"><ele>592.75</ele><time>2026-04-04T11:10:31.998Z</time></trkpt><trkpt lat="45.77536726190319" lon="9.924540742778508"><ele>599.0</ele><time>2026-04-04T11:10:32.998Z</time></trkpt><trkpt lat="45.77542503445396" lon="9.924683367684837"><ele>599.0</ele><time>2026-04-04T11:10:33.998Z</time></trkpt><trkpt lat="45.77548404375959" lon="9.924822122985065"><ele>599.0</ele><time>2026-04-04T11:10:34.998Z</time></trkpt><trkpt lat="45.775538796600046" lon="9.92496789543753"><ele>599.0</ele><time>2026-04-04T11:10:35.998Z</time></trkpt><trkpt lat="45.77558429588808" lon="9.925121966052657"><ele>599.0</ele><time>2026-04-04T11:10:36.998Z</time></trkpt><trkpt lat="45.77562314654937" lon="9.925279406415616"><ele>593.0</ele><time>2026-04-04T11:10:37.998Z</time></trkpt><trkpt lat="45.77566038873075" lon="9.925441937755043"><ele>587.0</ele><time>2026-04-04T11:10:38.998Z</time></trkpt><trkpt lat="45.775698293660604" lon="9.925606457004587"><ele>581.0</ele><time>2026-04-04T11:10:39.998Z</time></trkpt><trkpt lat="45.77574586331199" lon="9.925764028502348"><ele>575.0</ele><time>2026-04-04T11:10:40.998Z</time></trkpt><trkpt lat="45.775822252008425" lon="9.925903659382316"><ele>575.25</ele><time>2026-04-04T11:10:41.998Z</time></trkpt><trkpt lat="45.77591880889472" lon="9.9260208269518"><ele>575.5</ele><time>2026-04-04T11:10:42.998Z</time></trkpt><trkpt lat="45.77602477381466" lon="9.926123088327378"><ele>575.75</ele><time>2026-04-04T11:10:43.998Z</time></trkpt><trkpt lat="45.77613345555471" lon="9.926222626135502"><ele>576.0</ele><time>2026-04-04T11:10:44.998Z</time></trkpt><trkpt lat="45.776239584688504" lon="9.926321540874815"><ele>576.0</ele><time>2026-04-04T11:10:45.998Z</time></trkpt><trkpt lat="45.7763438659714" lon="9.926423537521247"><ele>576.0</ele><time>2026-04-04T11:10:46.998Z</time></trkpt><trkpt lat="45.77644713629733" lon="9.926526957394241"><ele>576.0</ele><time>2026-04-04T11:10:47.998Z</time></trkpt><trkpt lat="45.77654282250052" lon="9.926641862334138"><ele>576.0</ele><time>2026-04-04T11:10:48.998Z</time></trkpt><trkpt lat="45.776620402041345" lon="9.926784760635579"><ele>578.5</ele><time>2026-04-04T11:10:50Z</time></trkpt><trkpt lat="45.77667869351684" lon="9.926947201793416"><ele>581.0</ele><time>2026-04-04T11:10:51Z</time></trkpt><trkpt lat="45.77673319073382" lon="9.927111270995653"><ele>583.5</ele><time>2026-04-04T11:10:52Z</time></trkpt><trkpt lat="45.776791201994406" lon="9.92726906949638"><ele>586.0</ele><time>2026-04-04T11:10:53Z</time></trkpt><trkpt lat="45.776861007633606" lon="9.927412995310116"><ele>586.0</ele><time>2026-04-04T11:10:54Z</time></trkpt><trkpt lat="45.77695100700002" lon="9.927532346570459"><ele>586.0</ele><time>2026-04-04T11:10:55Z</time></trkpt><trkpt lat="45.77706106188584" lon="9.927623478313809"><ele>586.0</ele><time>2026-04-04T11:10:56Z</time></trkpt><trkpt lat="45.777181647105316" lon="9.927679025372143"><ele>586.0</ele><time>2026-04-04T11:10:57Z</time></trkpt><trkpt lat="45.77730294781938" lon="9.927731284722933"><ele>583.75</ele><time>2026-04-04T11:10:58Z</time></trkpt><trkpt lat="45.77741325540234" lon="9.92781940868908"><ele>581.5</ele><time>2026-04-04T11:10:59Z</time></trkpt><trkpt lat="45.777514825174634" lon="9.927931714598069"><ele>579.25</ele><time>2026-04-04T11:11:00Z</time></trkpt><trkpt lat="45.77760803116762" lon="9.928059949587235"><ele>577.0</ele><time>2026-04-04T11:11:01Z</time></trkpt><trkpt lat="45.77770303758871" lon="9.928185318058812"><ele>577.0</ele><time>2026-04-04T11:11:02Z</time></trkpt><trkpt lat="45.77780137493073" lon="9.928301575438532"><ele>577.0</ele><time>2026-04-04T11:11:03Z</time></trkpt><trkpt lat="45.7779049322819" lon="9.928408329813346"><ele>577.0</ele><time>2026-04-04T11:11:04Z</time></trkpt><trkpt lat="45.7780144872355" lon="9.928499481395551"><ele>577.0</ele><time>2026-04-04T11:11:05Z</time></trkpt><trkpt lat="45.77813053164712" lon="9.928577741905636"><ele>568.25</ele><time>2026-04-04T11:11:06Z</time></trkpt><trkpt lat="45.77824942857859" lon="9.9286503858594"><ele>559.5</ele><time>2026-04-04T11:11:07Z</time></trkpt><trkpt lat="45.77836719437293" lon="9.928730438628964"><ele>550.75</ele><time>2026-04-04T11:11:08Z</time></trkpt><trkpt lat="45.77848384319265" lon="9.928812001007845"><ele>542.0</ele><time>2026-04-04T11:11:09Z</time></trkpt><trkpt lat="45.77860050286084" lon="9.928888050052379"><ele>542.0</ele><time>2026-04-04T11:11:10Z</time></trkpt><trkpt lat="45.778720419092544" lon="9.928949651455767"><ele>542.0</ele><time>2026-04-04T11:11:11Z</time></trkpt><trkpt lat="45.778845974997715" lon="9.928979176393037"><ele>542.0</ele><time>2026-04-04T11:11:12Z</time></trkpt><trkpt lat="45.77897311535725" lon="9.928976394939069"><ele>542.0</ele><time>2026-04-04T11:11:13Z</time></trkpt><trkpt lat="45.779099187445546" lon="9.928956971767983"><ele>542.0</ele><time>2026-04-04T11:11:14Z</time></trkpt><trkpt lat="45.779225200437516" lon="9.928961876305117"><ele>542.0</ele><time>2026-04-04T11:11:15Z</time></trkpt><trkpt lat="45.77934794323525" lon="9.92900831870874"><ele>542.0</ele><time>2026-04-04T11:11:16Z</time></trkpt><trkpt lat="45.779465554658195" lon="9.929072991454904"><ele>542.0</ele><time>2026-04-04T11:11:17Z</time></trkpt><trkpt lat="45.77957913720795" lon="9.92914519348871"><ele>538.0</ele><time>2026-04-04T11:11:18Z</time></trkpt><trkpt lat="45.779686329058805" lon="9.929232805563323"><ele>534.0</ele><time>2026-04-04T11:11:19Z</time></trkpt><trkpt lat="45.7797885361343" lon="9.929329467345529"><ele>530.0</ele><time>2026-04-04T11:11:20Z</time></trkpt><trkpt lat="45.77988770011612" lon="9.929430653616496"><ele>526.0</ele><time>2026-04-04T11:11:21Z</time></trkpt><trkpt lat="45.77999097739763" lon="9.92951895994848"><ele>526.0</ele><time>2026-04-04T11:11:22Z</time></trkpt><trkpt lat="45.78010338326505" lon="9.929583485270268"><ele>526.0</ele><time>2026-04-04T11:11:23Z</time></trkpt><trkpt lat="45.78021890645959" lon="9.929634000264056"><ele>526.0</ele><time>2026-04-04T11:11:24Z</time></trkpt><trkpt lat="45.78033605531087" lon="9.929677119105829"><ele>526.0</ele><time>2026-04-04T11:11:25Z</time></trkpt><trkpt lat="45.78045740070009" lon="9.929692471636239"><ele>528.5</ele><time>2026-04-04T11:11:26Z</time></trkpt><trkpt lat="45.78058036520591" lon="9.929703073550945"><ele>531.0</ele><time>2026-04-04T11:11:27Z</time></trkpt><trkpt lat="45.780699984953834" lon="9.929742650332432"><ele>533.5</ele><time>2026-04-04T11:11:28Z</time></trkpt><trkpt lat="45.7808129873534" lon="9.929808617606202"><ele>536.0</ele><time>2026-04-04T11:11:29Z</time></trkpt><trkpt lat="45.78092389770594" lon="9.929886258599884"><ele>537.0</ele><time>2026-04-04T11:11:30Z</time></trkpt><trkpt lat="45.781032447937534" lon="9.929962830022411"><ele>538.0</ele><time>2026-04-04T11:11:31Z</time></trkpt><trkpt lat="45.78114412416183" lon="9.930024105680946"><ele>539.0</ele><time>2026-04-04T11:11:32Z</time></trkpt><trkpt lat="45.781259423226096" lon="9.93007153209058"><ele>540.0</ele><time>2026-04-04T11:11:33Z</time></trkpt><trkpt lat="45.781378633979195" lon="9.930092714604914"><ele>533.5</ele><time>2026-04-04T11:11:33.999Z</time></trkpt><trkpt lat="45.78149964748724" lon="9.930093092514792"><ele>527.0</ele><time>2026-04-04T11:11:34.999Z</time></trkpt><trkpt lat="45.78162378699338" lon="9.93009510505248"><ele>520.5</ele><time>2026-04-04T11:11:35.999Z</time></trkpt><trkpt lat="45.781746065040124" lon="9.930112738851191"><ele>514.0</ele><time>2026-04-04T11:11:36.999Z</time></trkpt><trkpt lat="45.78186603636927" lon="9.930150079622926"><ele>514.0</ele><time>2026-04-04T11:11:37.999Z</time></trkpt><trkpt lat="45.78197997675042" lon="9.930203360963125"><ele>514.0</ele><time>2026-04-04T11:11:38.999Z</time></trkpt><trkpt lat="45.78209038454884" lon="9.930272734384749"><ele>514.0</ele><time>2026-04-04T11:11:39.999Z</time></trkpt><trkpt lat="45.782202175770735" lon="9.9303351142165"><ele>514.0</ele><time>2026-04-04T11:11:40.999Z</time></trkpt><trkpt lat="45.78231602720261" lon="9.930383883515866"><ele>514.0</ele><time>2026-04-04T11:11:41.999Z</time></trkpt><trkpt lat="45.78243197143929" lon="9.93042105409251"><ele>514.0</ele><time>2026-04-04T11:11:42.999Z</time></trkpt><trkpt lat="45.78255040207668" lon="9.930438808004222"><ele>514.0</ele><time>2026-04-04T11:11:43.999Z</time></trkpt><trkpt lat="45.78267365960137" lon="9.930450108177986"><ele>514.0</ele><time>2026-04-04T11:11:44.999Z</time></trkpt><trkpt lat="45.78279653146717" lon="9.930464614329976"><ele>515.0</ele><time>2026-04-04T11:11:45.999Z</time></trkpt><trkpt lat="45.78292070427166" lon="9.930479399287103"><ele>516.0</ele><time>2026-04-04T11:11:46.999Z</time></trkpt><trkpt lat="45.78304404950553" lon="9.930488473604871"><ele>517.0</ele><time>2026-04-04T11:11:47.999Z</time></trkpt><trkpt lat="45.78316869076372" lon="9.93049954600422"><ele>518.0</ele><time>2026-04-04T11:11:48.999Z</time></trkpt><trkpt lat="45.783291770396545" lon="9.930519627388698"><ele>518.0</ele><time>2026-04-04T11:11:49.999Z</time></trkpt><trkpt lat="45.7834157181711" lon="9.930535886688173"><ele>518.0</ele><time>2026-04-04T11:11:50.999Z</time></trkpt><trkpt lat="45.78353927990259" lon="9.930549856262425"><ele>518.0</ele><time>2026-04-04T11:11:51.999Z</time></trkpt><trkpt lat="45.78366396079152" lon="9.930559850266267"><ele>518.0</ele><time>2026-04-04T11:11:52.999Z</time></trkpt><trkpt lat="45.78378712299805" lon="9.930576368272751"><ele>518.25</ele><time>2026-04-04T11:11:53.999Z</time></trkpt><trkpt lat="45.78391068973867" lon="9.93058718099196"><ele>518.5</ele><time>2026-04-04T11:11:54.999Z</time></trkpt><trkpt lat="45.78403327601493" lon="9.930581861427745"><ele>518.75</ele><time>2026-04-04T11:11:55.999Z</time></trkpt><trkpt lat="45.78415547663921" lon="9.930566965918219"><ele>519.0</ele><time>2026-04-04T11:11:56.999Z</time></trkpt><trkpt lat="45.78427853882674" lon="9.930548028829282"><ele>519.25</ele><time>2026-04-04T11:11:57.999Z</time></trkpt><trkpt lat="45.7844027130453" lon="9.93054161684488"><ele>519.5</ele><time>2026-04-04T11:11:58.999Z</time></trkpt><trkpt lat="45.78452583556383" lon="9.930551457074504"><ele>519.75</ele><time>2026-04-04T11:11:59.999Z</time></trkpt><trkpt lat="45.78464880447952" lon="9.93058188019007"><ele>520.0</ele><time>2026-04-04T11:12:00.999Z</time></trkpt><trkpt lat="45.784760695465074" lon="9.930634321774543"><ele>520.0</ele><time>2026-04-04T11:12:01.999Z</time></trkpt><trkpt lat="45.78486292611388" lon="9.930671773129022"><ele>520.0</ele><time>2026-04-04T11:12:02.999Z</time></trkpt><trkpt lat="45.78495863757003" lon="9.930690805883543"><ele>520.0</ele><time>2026-04-04T11:12:03.999Z</time></trkpt><trkpt lat="45.785042356300785" lon="9.930716883681331"><ele>520.0</ele><time>2026-04-04T11:12:04.999Z</time></trkpt><trkpt lat="45.78511704100363" lon="9.93073932681666"><ele>520.0</ele><time>2026-04-04T11:12:05.999Z</time></trkpt><trkpt lat="45.78518886941028" lon="9.930756870554838"><ele>520.0</ele><time>2026-04-04T11:12:06.999Z</time></trkpt><trkpt lat="45.785319538976" lon="9.93077220431488"><ele>521.3333333333334</ele><time>2026-04-04T11:12:08.999Z</time></trkpt><trkpt lat="45.78538897311696" lon="9.930763823844584"><ele>522.6666666666667</ele><time>2026-04-04T11:12:09.999Z</time></trkpt><trkpt lat="45.78546122622137" lon="9.930755595278837"><ele>524.0</ele><time>2026-04-04T11:12:10.999Z</time></trkpt><trkpt lat="45.78553669196343" lon="9.930757754670946"><ele>525.3333333333334</ele><time>2026-04-04T11:12:11.999Z</time></trkpt><trkpt lat="45.785616795578385" lon="9.930776626521844"><ele>526.6666666666666</ele><time>2026-04-04T11:12:12.999Z</time></trkpt><trkpt lat="45.785699393009594" lon="9.930797638862067"><ele>528.0</ele><time>2026-04-04T11:12:13.999Z</time></trkpt><trkpt lat="45.78578338924082" lon="9.93083105320593"><ele>528.0</ele><time>2026-04-04T11:12:14.999Z</time></trkpt><trkpt lat="45.785867700833215" lon="9.930876043973427"><ele>528.0</ele><time>2026-04-04T11:12:15.999Z</time></trkpt><trkpt lat="45.78595005403831" lon="9.930932179012013"><ele>528.0</ele><time>2026-04-04T11:12:16.999Z</time></trkpt><trkpt lat="45.786032893597884" lon="9.930996225434932"><ele>528.0</ele><time>2026-04-04T11:12:17.999Z</time></trkpt><trkpt lat="45.78611394954418" lon="9.931068870784129"><ele>528.0</ele><time>2026-04-04T11:12:18.999Z</time></trkpt><trkpt lat="45.786191057606196" lon="9.93115507146571"><ele>526.1999999999999</ele><time>2026-04-04T11:12:19.999Z</time></trkpt><trkpt lat="45.786265103629574" lon="9.931248065187024"><ele>524.4</ele><time>2026-04-04T11:12:20.999Z</time></trkpt><trkpt lat="45.786341585613194" lon="9.931344691374743"><ele>522.5999999999999</ele><time>2026-04-04T11:12:21.999Z</time></trkpt><trkpt lat="45.78641977053924" lon="9.931439057605989"><ele>520.8</ele><time>2026-04-04T11:12:22.999Z</time></trkpt><trkpt lat="45.78649783109088" lon="9.931531349705711"><ele>519.0</ele><time>2026-04-04T11:12:23.999Z</time></trkpt><trkpt lat="45.78657643192242" lon="9.931626344350798"><ele>519.6</ele><time>2026-04-04T11:12:24.999Z</time></trkpt><trkpt lat="45.7866493361404" lon="9.93172582335854"><ele>520.2</ele><time>2026-04-04T11:12:25.999Z</time></trkpt><trkpt lat="45.78671371293031" lon="9.93184381499611"><ele>520.8000000000001</ele><time>2026-04-04T11:12:26.999Z</time></trkpt><trkpt lat="45.786768850309734" lon="9.931971259395599"><ele>521.4</ele><time>2026-04-04T11:12:27.999Z</time></trkpt><trkpt lat="45.78681589591917" lon="9.932093896729208"><ele>522.0</ele><time>2026-04-04T11:12:28.999Z</time></trkpt><trkpt lat="45.786848125548694" lon="9.932236943961602"><ele>522.0</ele><time>2026-04-04T11:12:29.999Z</time></trkpt><trkpt lat="45.786890337612846" lon="9.932372134182353"><ele>522.0</ele><time>2026-04-04T11:12:30.999Z</time></trkpt><trkpt lat="45.78693801728943" lon="9.932508435540187"><ele>522.0</ele><time>2026-04-04T11:12:31.998Z</time></trkpt><trkpt lat="45.786998230053875" lon="9.93263348886612"><ele>522.0</ele><time>2026-04-04T11:12:32.998Z</time></trkpt><trkpt lat="45.78706210917659" lon="9.932753569989403"><ele>522.0</ele><time>2026-04-04T11:12:33.998Z</time></trkpt><trkpt lat="45.78714139401148" lon="9.93285437386271"><ele>518.6</ele><time>2026-04-04T11:12:34.998Z</time></trkpt><trkpt lat="45.787219667532426" lon="9.932955128779426"><ele>515.2</ele><time>2026-04-04T11:12:35.998Z</time></trkpt><trkpt lat="45.78729770790626" lon="9.933055333404681"><ele>511.8</ele><time>2026-04-04T11:12:36.998Z</time></trkpt><trkpt lat="45.78737714904612" lon="9.933156807880495"><ele>508.4</ele><time>2026-04-04T11:12:37.998Z</time></trkpt><trkpt lat="45.787462568981546" lon="9.933249721928856"><ele>505.0</ele><time>2026-04-04T11:12:38.998Z</time></trkpt><trkpt lat="45.7875459152309" lon="9.933345931835674"><ele>504.2</ele><time>2026-04-04T11:12:39.998Z</time></trkpt><trkpt lat="45.78763868691363" lon="9.933426275451824"><ele>503.4</ele><time>2026-04-04T11:12:40.998Z</time></trkpt><trkpt lat="45.78773689258015" lon="9.93349500333596"><ele>502.6</ele><time>2026-04-04T11:12:41.998Z</time></trkpt><trkpt lat="45.78783675500898" lon="9.93356103060769"><ele>501.8</ele><time>2026-04-04T11:12:42.998Z</time></trkpt><trkpt lat="45.78793885732517" lon="9.933620796709569"><ele>501.0</ele><time>2026-04-04T11:12:43.998Z</time></trkpt><trkpt lat="45.78804222793179" lon="9.933674365472921"><ele>501.0</ele><time>2026-04-04T11:12:44.998Z</time></trkpt><trkpt lat="45.788141472371855" lon="9.933724973329062"><ele>501.0</ele><time>2026-04-04T11:12:45.998Z</time></trkpt><trkpt lat="45.78823767409959" lon="9.933774469343849"><ele>501.0</ele><time>2026-04-04T11:12:46.998Z</time></trkpt><trkpt lat="45.78833476410799" lon="9.933821363882375"><ele>501.0</ele><time>2026-04-04T11:12:47.998Z</time></trkpt><trkpt lat="45.78842692406438" lon="9.93387235698131"><ele>501.0</ele><time>2026-04-04T11:12:48.998Z</time></trkpt><trkpt lat="45.7885114692479" lon="9.93393300199877"><ele>502.1666666666667</ele><time>2026-04-04T11:12:49.998Z</time></trkpt><trkpt lat="45.78858347595519" lon="9.934012667401936"><ele>503.33333333333337</ele><time>2026-04-04T11:12:50.998Z</time></trkpt><trkpt lat="45.7886497665277" lon="9.934100205720345"><ele>504.5</ele><time>2026-04-04T11:12:51.998Z</time></trkpt><trkpt lat="45.78871265006586" lon="9.934181921582866"><ele>505.6666666666667</ele><time>2026-04-04T11:12:52.998Z</time></trkpt><trkpt lat="45.78876389013292" lon="9.934272745413676"><ele>506.83333333333337</ele><time>2026-04-04T11:12:53.998Z</time></trkpt><trkpt lat="45.78881708804807" lon="9.934364865240102"><ele>508.0</ele><time>2026-04-04T11:12:54.998Z</time></trkpt><trkpt lat="45.78887253586569" lon="9.934450754658828"><ele>508.00000000000006</ele><time>2026-04-04T11:12:56Z</time></trkpt><trkpt lat="45.788924544884466" lon="9.934527564766364"><ele>508.0</ele><time>2026-04-04T11:12:57Z</time></trkpt><trkpt lat="45.78895993796456" lon="9.934625970611428"><ele>508.0</ele><time>2026-04-04T11:12:58Z</time></trkpt><trkpt lat="45.789005484762576" lon="9.934718172324152"><ele>508.0</ele><time>2026-04-04T11:12:59Z</time></trkpt><trkpt lat="45.789053005536246" lon="9.934809680209652"><ele>508.00000000000006</ele><time>2026-04-04T11:13:00Z</time></trkpt><trkpt lat="45.78908849224058" lon="9.934904427535377"><ele>508.0</ele><time>2026-04-04T11:13:01Z</time></trkpt><trkpt lat="45.78913388771556" lon="9.934988555525292"><ele>507.42857142857144</ele><time>2026-04-04T11:13:02Z</time></trkpt><trkpt lat="45.78917889901844" lon="9.935069098464739"><ele>506.85714285714283</ele><time>2026-04-04T11:13:03Z</time></trkpt><trkpt lat="45.789220909995045" lon="9.935147692006801"><ele>506.2857142857143</ele><time>2026-04-04T11:13:04Z</time></trkpt><trkpt lat="45.78925298463818" lon="9.935237526257124"><ele>505.7142857142857</ele><time>2026-04-04T11:13:05Z</time></trkpt><trkpt lat="45.78928975610826" lon="9.935311055469809"><ele>505.1428571428571</ele><time>2026-04-04T11:13:06Z</time></trkpt><trkpt lat="45.789341385517446" lon="9.935417722385113"><ele>504.57142857142856</ele><time>2026-04-04T11:13:08Z</time></trkpt><trkpt lat="45.78932436225264" lon="9.935528713531093"><ele>504.0</ele><time>2026-04-04T11:13:11Z</time></trkpt><trkpt lat="45.789253487689734" lon="9.93557749582004"><ele>504.0</ele><time>2026-04-04T11:13:13Z</time></trkpt><trkpt lat="45.789172703383755" lon="9.935577379670132"><ele>504.0</ele><time>2026-04-04T11:13:16Z</time></trkpt><trkpt lat="45.78923651130755" lon="9.935764997505192"><ele>504.0</ele><time>2026-04-04T11:13:19Z</time></trkpt><trkpt lat="45.78930521465304" lon="9.935850220050325"><ele>504.0</ele><time>2026-04-04T11:13:22Z</time></trkpt><trkpt lat="45.78936938167406" lon="9.935909640108493"><ele>504.0</ele><time>2026-04-04T11:13:25Z</time></trkpt><trkpt lat="45.78945564328664" lon="9.935886881777336"><ele>503.3333333333333</ele><time>2026-04-04T11:13:28Z</time></trkpt><trkpt lat="45.789538295362846" lon="9.935826746662812"><ele>502.66666666666663</ele><time>2026-04-04T11:13:31Z</time></trkpt><trkpt lat="45.78962069997983" lon="9.935850018335639"><ele>502.0</ele><time>2026-04-04T11:13:39.999Z</time></trkpt><trkpt lat="45.78970490772793" lon="9.93584540698516"><ele>501.3333333333333</ele><time>2026-04-04T11:13:41.999Z</time></trkpt><trkpt lat="45.78976530351637" lon="9.935903579066345"><ele>500.66666666666663</ele><time>2026-04-04T11:13:43.999Z</time></trkpt><trkpt lat="45.78981916033003" lon="9.935960698501358"><ele>500.0</ele><time>2026-04-04T11:13:45.999Z</time></trkpt><trkpt lat="45.78988434516869" lon="9.936038266670247"><ele>499.99999999999994</ele><time>2026-04-04T11:13:47.999Z</time></trkpt><trkpt lat="45.78995224242836" lon="9.936133300804244"><ele>500.0</ele><time>2026-04-04T11:13:49.999Z</time></trkpt><trkpt lat="45.79001700015777" lon="9.93619393549458"><ele>500.0</ele><time>2026-04-04T11:13:51.999Z</time></trkpt><trkpt lat="45.790085482892316" lon="9.936228858419117"><ele>500.0</ele><time>2026-04-04T11:13:53.999Z</time></trkpt><trkpt lat="45.79017173627862" lon="9.936233835113793"><ele>499.99999999999994</ele><time>2026-04-04T11:13:55.999Z</time></trkpt><trkpt lat="45.79024363391712" lon="9.936253087479537"><ele>500.0</ele><time>2026-04-04T11:13:57.999Z</time></trkpt><trkpt lat="45.79031690540544" lon="9.936280427343313"><ele>501.66666666666663</ele><time>2026-04-04T11:13:59.999Z</time></trkpt><trkpt lat="45.79040287228038" lon="9.936317884220061"><ele>503.3333333333333</ele><time>2026-04-04T11:14:01.999Z</time></trkpt><trkpt lat="45.79048281321212" lon="9.936348069407563"><ele>505.0</ele><time>2026-04-04T11:14:03.999Z</time></trkpt><trkpt lat="45.790546742614254" lon="9.936354225007248"><ele>506.66666666666663</ele><time>2026-04-04T11:14:05.999Z</time></trkpt><trkpt lat="45.79061434750099" lon="9.936375261678295"><ele>508.3333333333333</ele><time>2026-04-04T11:14:07.999Z</time></trkpt><trkpt lat="45.790718472687" lon="9.936395556751606"><ele>510.0</ele><time>2026-04-04T11:14:09.999Z</time></trkpt><trkpt lat="45.79080135146437" lon="9.936483208334673"><ele>510.0</ele><time>2026-04-04T11:14:11.999Z</time></trkpt><trkpt lat="45.790877833786915" lon="9.936622150549145"><ele>510.0</ele><time>2026-04-04T11:14:14.999Z</time></trkpt><trkpt lat="45.79096676012129" lon="9.936745454451362"><ele>510.0</ele><time>2026-04-04T11:14:16.999Z</time></trkpt><trkpt lat="45.79106739271362" lon="9.936835894508077"><ele>510.0</ele><time>2026-04-04T11:14:18.999Z</time></trkpt><trkpt lat="45.79116326293711" lon="9.93693341430048"><ele>510.5</ele><time>2026-04-04T11:14:20.999Z</time></trkpt><trkpt lat="45.791239093193795" lon="9.937050364178274"><ele>511.0</ele><time>2026-04-04T11:14:22.999Z</time></trkpt><trkpt lat="45.79133322028163" lon="9.937151352864959"><ele>511.5</ele><time>2026-04-04T11:14:24.999Z</time></trkpt><trkpt lat="45.79142828956487" lon="9.937261808564683"><ele>512.0</ele><time>2026-04-04T11:14:26.999Z</time></trkpt><trkpt lat="45.791502406319" lon="9.937396035918955"><ele>510.75</ele><time>2026-04-04T11:14:28.999Z</time></trkpt><trkpt lat="45.79155701569955" lon="9.937555216788683"><ele>509.5</ele><time>2026-04-04T11:14:30.999Z</time></trkpt><trkpt lat="45.791597168002276" lon="9.937717137027064"><ele>508.25</ele><time>2026-04-04T11:14:32.999Z</time></trkpt><trkpt lat="45.79163096475275" lon="9.937876542500485"><ele>507.0</ele><time>2026-04-04T11:14:34.998Z</time></trkpt><trkpt lat="45.791664965219994" lon="9.938024355070556"><ele>507.0</ele><time>2026-04-04T11:14:36.998Z</time></trkpt><trkpt lat="45.79171137738584" lon="9.938171565306895"><ele>507.00000000000006</ele><time>2026-04-04T11:14:38.998Z</time></trkpt><trkpt lat="45.79176425967718" lon="9.938307150915314"><ele>507.00000000000006</ele><time>2026-04-04T11:14:40.998Z</time></trkpt><trkpt lat="45.79182374694276" lon="9.938438092447814"><ele>507.0</ele><time>2026-04-04T11:14:42.998Z</time></trkpt><trkpt lat="45.791875104103454" lon="9.938560808472575"><ele>507.0</ele><time>2026-04-04T11:14:44.998Z</time></trkpt><trkpt lat="45.79191705644178" lon="9.938691045109366"><ele>509.6</ele><time>2026-04-04T11:14:46.998Z</time></trkpt><trkpt lat="45.79195403179157" lon="9.938817524752734"><ele>512.2</ele><time>2026-04-04T11:14:48.998Z</time></trkpt><trkpt lat="45.79198539550105" lon="9.938938603352607"><ele>514.8</ele><time>2026-04-04T11:14:50.998Z</time></trkpt><trkpt lat="45.79202133164828" lon="9.939059614698348"><ele>517.4</ele><time>2026-04-04T11:14:52.998Z</time></trkpt><trkpt lat="45.79205390966262" lon="9.939185291455692"><ele>520.0</ele><time>2026-04-04T11:14:54.998Z</time></trkpt><trkpt lat="45.79208257009265" lon="9.939311670354067"><ele>520.0</ele><time>2026-04-04T11:14:56.998Z</time></trkpt><trkpt lat="45.79212517350838" lon="9.93944456116056"><ele>520.0</ele><time>2026-04-04T11:14:58.998Z</time></trkpt><trkpt lat="45.79217599815299" lon="9.939585879924131"><ele>520.0</ele><time>2026-04-04T11:15:00.998Z</time></trkpt><trkpt lat="45.79224031006195" lon="9.939719220664264"><ele>520.0</ele><time>2026-04-04T11:15:03Z</time></trkpt><trkpt lat="45.792315220177414" lon="9.939854662983219"><ele>520.0</ele><time>2026-04-04T11:15:05Z</time></trkpt><trkpt lat="45.79235364164678" lon="9.939930142295887"><ele>521.0</ele><time>2026-04-04T11:15:06Z</time></trkpt><trkpt lat="45.7923863407688" lon="9.940102659093718"><ele>522.0</ele><time>2026-04-04T11:15:08Z</time></trkpt><trkpt lat="45.792402297860846" lon="9.940195945108009"><ele>523.0</ele><time>2026-04-04T11:15:09Z</time></trkpt><trkpt lat="45.79237148772408" lon="9.94035488028891"><ele>524.0</ele><time>2026-04-04T11:15:11Z</time></trkpt><trkpt lat="45.79232955867522" lon="9.940509086657592"><ele>525.0</ele><time>2026-04-04T11:15:13Z</time></trkpt><trkpt lat="45.792252593274426" lon="9.940601135305593"><ele>525.0</ele><time>2026-04-04T11:15:15Z</time></trkpt><trkpt lat="45.79220863750961" lon="9.94070997650103"><ele>525.0</ele><time>2026-04-04T11:15:17Z</time></trkpt><trkpt lat="45.792170298925136" lon="9.9408158171436"><ele>525.0</ele><time>2026-04-04T11:15:19Z</time></trkpt><trkpt lat="45.79216092172825" lon="9.940933238357248"><ele>525.0</ele><time>2026-04-04T11:15:21Z</time></trkpt><trkpt lat="45.79219946655397" lon="9.941045850377368"><ele>525.0</ele><time>2026-04-04T11:15:23Z</time></trkpt><trkpt lat="45.792239470539606" lon="9.941156548322157"><ele>525.0</ele><time>2026-04-04T11:15:25Z</time></trkpt><trkpt lat="45.79226039247816" lon="9.941293046093941"><ele>524.0</ele><time>2026-04-04T11:15:27Z</time></trkpt><trkpt lat="45.79231062670546" lon="9.941450626166667"><ele>523.0</ele><time>2026-04-04T11:15:29Z</time></trkpt><trkpt lat="45.79235212543602" lon="9.941611644084805"><ele>522.0</ele><time>2026-04-04T11:15:31Z</time></trkpt><trkpt lat="45.79237661641214" lon="9.941784766549366"><ele>521.0</ele><time>2026-04-04T11:15:33Z</time></trkpt><trkpt lat="45.79239152723638" lon="9.941955606549183"><ele>519.4</ele><time>2026-04-04T11:15:35Z</time></trkpt><trkpt lat="45.79241597411821" lon="9.942109973395668"><ele>517.8</ele><time>2026-04-04T11:15:37Z</time></trkpt><trkpt lat="45.792446303942164" lon="9.942256456892123"><ele>516.1999999999999</ele><time>2026-04-04T11:15:39Z</time></trkpt><trkpt lat="45.79248046659061" lon="9.942396950715867"><ele>514.6</ele><time>2026-04-04T11:15:41Z</time></trkpt><trkpt lat="45.79251672548949" lon="9.94253912758334"><ele>513.0</ele><time>2026-04-04T11:15:43Z</time></trkpt><trkpt lat="45.79256758751705" lon="9.942686799061258"><ele>511.57142857142867</ele><time>2026-04-04T11:15:44.999Z</time></trkpt><trkpt lat="45.79259607855813" lon="9.942769261593496"><ele>510.14285714285717</ele><time>2026-04-04T11:15:45.999Z</time></trkpt><trkpt lat="45.79263483806137" lon="9.942851303516477"><ele>508.7142857142858</ele><time>2026-04-04T11:15:46.999Z</time></trkpt><trkpt lat="45.792675423475515" lon="9.94293014664839"><ele>507.28571428571433</ele><time>2026-04-04T11:15:47.999Z</time></trkpt><trkpt lat="45.7927118851985" lon="9.943017511381433"><ele>505.8571428571429</ele><time>2026-04-04T11:15:48.999Z</time></trkpt><trkpt lat="45.79274582405621" lon="9.943106747506711"><ele>504.42857142857144</ele><time>2026-04-04T11:15:49.999Z</time></trkpt><trkpt lat="45.79277649153561" lon="9.943200783243148"><ele>503.0</ele><time>2026-04-04T11:15:50.999Z</time></trkpt><trkpt lat="45.79280589936695" lon="9.943293820462518"><ele>504.66666666666663</ele><time>2026-04-04T11:15:51.999Z</time></trkpt><trkpt lat="45.79283784364995" lon="9.943392340996697"><ele>506.3333333333333</ele><time>2026-04-04T11:15:52.999Z</time></trkpt><trkpt lat="45.79286792475589" lon="9.943491917004526"><ele>508.0</ele><time>2026-04-04T11:15:53.999Z</time></trkpt><trkpt lat="45.79289770434064" lon="9.943593056281884"><ele>509.66666666666663</ele><time>2026-04-04T11:15:54.999Z</time></trkpt><trkpt lat="45.792924735215806" lon="9.943695865576975"><ele>511.3333333333333</ele><time>2026-04-04T11:15:55.999Z</time></trkpt><trkpt lat="45.792959720500626" lon="9.943792537371507"><ele>513.0</ele><time>2026-04-04T11:15:56.999Z</time></trkpt><trkpt lat="45.79300681965214" lon="9.94388616695134"><ele>513.0</ele><time>2026-04-04T11:15:57.999Z</time></trkpt><trkpt lat="45.79305501124241" lon="9.94397525342642"><ele>513.0</ele><time>2026-04-04T11:15:58.999Z</time></trkpt><trkpt lat="45.79310428818996" lon="9.944066191055946"><ele>513.0</ele><time>2026-04-04T11:15:59.999Z</time></trkpt><trkpt lat="45.79315140251218" lon="9.944153746793308"><ele>513.0</ele><time>2026-04-04T11:16:00.999Z</time></trkpt><trkpt lat="45.7931945101439" lon="9.944250951063475"><ele>513.0</ele><time>2026-04-04T11:16:01.999Z</time></trkpt><trkpt lat="45.793242150739964" lon="9.944336668882448"><ele>513.0</ele><time>2026-04-04T11:16:02.999Z</time></trkpt><trkpt lat="45.79329490528115" lon="9.944415065769087"><ele>511.7142857142858</ele><time>2026-04-04T11:16:03.999Z</time></trkpt><trkpt lat="45.79334391414177" lon="9.944489419153893"><ele>510.42857142857144</ele><time>2026-04-04T11:16:04.999Z</time></trkpt><trkpt lat="45.793391741789236" lon="9.944567221863945"><ele>509.14285714285717</ele><time>2026-04-04T11:16:05.999Z</time></trkpt><trkpt lat="45.793440381913015" lon="9.944640452151932"><ele>507.8571428571429</ele><time>2026-04-04T11:16:06.999Z</time></trkpt><trkpt lat="45.79349026858558" lon="9.944711889080834"><ele>506.57142857142856</ele><time>2026-04-04T11:16:07.999Z</time></trkpt><trkpt lat="45.793543447368315" lon="9.944778622863518"><ele>505.2857142857143</ele><time>2026-04-04T11:16:08.999Z</time></trkpt><trkpt lat="45.79359305478902" lon="9.944851771468024"><ele>504.0</ele><time>2026-04-04T11:16:09.999Z</time></trkpt><trkpt lat="45.793643385553715" lon="9.944920772684029"><ele>505.0</ele><time>2026-04-04T11:16:10.999Z</time></trkpt><trkpt lat="45.793692446609334" lon="9.944991954521644"><ele>506.0</ele><time>2026-04-04T11:16:11.999Z</time></trkpt><trkpt lat="45.79373404858194" lon="9.94506817111793"><ele>507.0</ele><time>2026-04-04T11:16:12.999Z</time></trkpt><trkpt lat="45.79376243422209" lon="9.945162083952383"><ele>508.0</ele><time>2026-04-04T11:16:13.999Z</time></trkpt><trkpt lat="45.79379410513738" lon="9.945252286790017"><ele>509.0</ele><time>2026-04-04T11:16:14.999Z</time></trkpt><trkpt lat="45.79382584310163" lon="9.945344830781536"><ele>510.0</ele><time>2026-04-04T11:16:15.999Z</time></trkpt><trkpt lat="45.79386307887601" lon="9.945427191678736"><ele>511.0</ele><time>2026-04-04T11:16:16.999Z</time></trkpt><trkpt lat="45.79389842077338" lon="9.945517647568767"><ele>511.00000000000006</ele><time>2026-04-04T11:16:17.999Z</time></trkpt><trkpt lat="45.79393147294664" lon="9.945612014309315"><ele>511.0</ele><time>2026-04-04T11:16:18.999Z</time></trkpt><trkpt lat="45.7939636410725" lon="9.945707422243169"><ele>511.0</ele><time>2026-04-04T11:16:19.999Z</time></trkpt><trkpt lat="45.79398792130858" lon="9.945802360715414"><ele>511.0</ele><time>2026-04-04T11:16:20.999Z</time></trkpt><trkpt lat="45.79400366366402" lon="9.945909846271004"><ele>511.00000000000006</ele><time>2026-04-04T11:16:21.999Z</time></trkpt><trkpt lat="45.79401178516828" lon="9.946027360844022"><ele>511.0</ele><time>2026-04-04T11:16:22.999Z</time></trkpt><trkpt lat="45.79401612954352" lon="9.946141662312115"><ele>509.33333333333337</ele><time>2026-04-04T11:16:23.999Z</time></trkpt><trkpt lat="45.79401516596445" lon="9.946251846980228"><ele>507.6666666666667</ele><time>2026-04-04T11:16:24.999Z</time></trkpt><trkpt lat="45.79397481584235" lon="9.946356159597228"><ele>506.0</ele><time>2026-04-04T11:16:25.999Z</time></trkpt><trkpt lat="45.793954056759404" lon="9.94648130833551"><ele>504.33333333333337</ele><time>2026-04-04T11:16:26.999Z</time></trkpt><trkpt lat="45.79392456917896" lon="9.94660391217985"><ele>502.6666666666667</ele><time>2026-04-04T11:16:27.999Z</time></trkpt><trkpt lat="45.7938947402293" lon="9.946723694716457"><ele>501.0</ele><time>2026-04-04T11:16:28.999Z</time></trkpt><trkpt lat="45.793873929053724" lon="9.946847584201162"><ele>499.0</ele><time>2026-04-04T11:16:29.999Z</time></trkpt><trkpt lat="45.79386967335474" lon="9.94697968721343"><ele>497.0</ele><time>2026-04-04T11:16:30.999Z</time></trkpt><trkpt lat="45.793879885437214" lon="9.947103703218582"><ele>495.0</ele><time>2026-04-04T11:16:31.999Z</time></trkpt><trkpt lat="45.793912517991124" lon="9.947219465125386"><ele>493.0</ele><time>2026-04-04T11:16:32.999Z</time></trkpt><trkpt lat="45.79396937570453" lon="9.947329514430475"><ele>491.0</ele><time>2026-04-04T11:16:33.999Z</time></trkpt><trkpt lat="45.79404115525966" lon="9.947434251651666"><ele>490.99999999999994</ele><time>2026-04-04T11:16:34.999Z</time></trkpt><trkpt lat="45.79410580524078" lon="9.947536204298048"><ele>491.0</ele><time>2026-04-04T11:16:35.999Z</time></trkpt><trkpt lat="45.79414967988423" lon="9.947642804824428"><ele>491.0</ele><time>2026-04-04T11:16:36.999Z</time></trkpt><trkpt lat="45.794182049151935" lon="9.947753342434112"><ele>491.0</ele><time>2026-04-04T11:16:37.999Z</time></trkpt><trkpt lat="45.79421222838666" lon="9.947858380993226"><ele>490.99999999999994</ele><time>2026-04-04T11:16:38.999Z</time></trkpt><trkpt lat="45.79423220902485" lon="9.947969029192361"><ele>491.0</ele><time>2026-04-04T11:16:39.999Z</time></trkpt><trkpt lat="45.79423516200397" lon="9.94809179638888"><ele>488.49999999999994</ele><time>2026-04-04T11:16:40.998Z</time></trkpt><trkpt lat="45.79422746296503" lon="9.948218013676335"><ele>486.0</ele><time>2026-04-04T11:16:41.998Z</time></trkpt><trkpt lat="45.79422642625922" lon="9.948344922963724"><ele>483.5</ele><time>2026-04-04T11:16:42.998Z</time></trkpt><trkpt lat="45.79422975881766" lon="9.948467351656129"><ele>481.0</ele><time>2026-04-04T11:16:43.998Z</time></trkpt><trkpt lat="45.794232459146485" lon="9.948584968371732"><ele>478.49999999999994</ele><time>2026-04-04T11:16:44.998Z</time></trkpt><trkpt lat="45.794233329473855" lon="9.948700957869345"><ele>476.0</ele><time>2026-04-04T11:16:45.998Z</time></trkpt><trkpt lat="45.794232688273446" lon="9.94881397632518"><ele>473.8</ele><time>2026-04-04T11:16:46.998Z</time></trkpt><trkpt lat="45.79423980069366" lon="9.948936239115795"><ele>471.6</ele><time>2026-04-04T11:16:47.998Z</time></trkpt><trkpt lat="45.79425743635736" lon="9.94907276222912"><ele>469.4</ele><time>2026-04-04T11:16:48.998Z</time></trkpt><trkpt lat="45.79428061617668" lon="9.94920997548598"><ele>467.2</ele><time>2026-04-04T11:16:49.998Z</time></trkpt><trkpt lat="45.79431068907281" lon="9.949362053995454"><ele>465.0</ele><time>2026-04-04T11:16:50.998Z</time></trkpt><trkpt lat="45.794335948631115" lon="9.949517460464016"><ele>468.0</ele><time>2026-04-04T11:16:51.998Z</time></trkpt><trkpt lat="45.794367860026846" lon="9.94967804749723"><ele>471.0</ele><time>2026-04-04T11:16:52.998Z</time></trkpt><trkpt lat="45.79440082667588" lon="9.949836807917984"><ele>474.0</ele><time>2026-04-04T11:16:53.998Z</time></trkpt><trkpt lat="45.79443982959989" lon="9.949990007314836"><ele>477.0</ele><time>2026-04-04T11:16:54.998Z</time></trkpt><trkpt lat="45.79447018850306" lon="9.950141936049732"><ele>477.0</ele><time>2026-04-04T11:16:55.998Z</time></trkpt><trkpt lat="45.794492544881095" lon="9.950299190108456"><ele>477.00000000000006</ele><time>2026-04-04T11:16:56.998Z</time></trkpt><trkpt lat="45.794520692516265" lon="9.950449230511413"><ele>477.00000000000006</ele><time>2026-04-04T11:16:57.998Z</time></trkpt><trkpt lat="45.794556410961874" lon="9.950589225284117"><ele>477.0</ele><time>2026-04-04T11:16:58.998Z</time></trkpt><trkpt lat="45.794578429678054" lon="9.950727376511704"><ele>477.0</ele><time>2026-04-04T11:16:59.998Z</time></trkpt><trkpt lat="45.79459142913198" lon="9.95086610672422"><ele>476.8</ele><time>2026-04-04T11:17:00.998Z</time></trkpt><trkpt lat="45.79458693854959" lon="9.950998405362174"><ele>476.6</ele><time>2026-04-04T11:17:01.998Z</time></trkpt><trkpt lat="45.79456990665383" lon="9.95112631334041"><ele>476.40000000000003</ele><time>2026-04-04T11:17:02.998Z</time></trkpt><trkpt lat="45.79453305977671" lon="9.95125774619098"><ele>476.20000000000005</ele><time>2026-04-04T11:17:03.998Z</time></trkpt><trkpt lat="45.79449539160295" lon="9.951396161416415"><ele>476.0</ele><time>2026-04-04T11:17:04.998Z</time></trkpt><trkpt lat="45.79446603613829" lon="9.95154700318374"><ele>476.0</ele><time>2026-04-04T11:17:05.998Z</time></trkpt><trkpt lat="45.794444078150924" lon="9.951705194138432"><ele>476.0</ele><time>2026-04-04T11:17:06.998Z</time></trkpt><trkpt lat="45.79442062960847" lon="9.951867330745207"><ele>476.0</ele><time>2026-04-04T11:17:08Z</time></trkpt><trkpt lat="45.794398913421176" lon="9.952031317623094"><ele>476.0</ele><time>2026-04-04T11:17:09Z</time></trkpt><trkpt lat="45.79438442675653" lon="9.952194710919459"><ele>475.0</ele><time>2026-04-04T11:17:10Z</time></trkpt><trkpt lat="45.79436942301132" lon="9.952355077884818"><ele>474.0</ele><time>2026-04-04T11:17:11Z</time></trkpt><trkpt lat="45.7943509328751" lon="9.952512932340014"><ele>473.0</ele><time>2026-04-04T11:17:12Z</time></trkpt><trkpt lat="45.79432769461933" lon="9.95266858748629"><ele>472.0</ele><time>2026-04-04T11:17:13Z</time></trkpt><trkpt lat="45.794315258709304" lon="9.952835344427724"><ele>470.0</ele><time>2026-04-04T11:17:14Z</time></trkpt><trkpt lat="45.79431591450299" lon="9.953010152365309"><ele>468.0</ele><time>2026-04-04T11:17:15Z</time></trkpt><trkpt lat="45.79432013223634" lon="9.953181574234877"><ele>466.0</ele><time>2026-04-04T11:17:16Z</time></trkpt><trkpt lat="45.79433417338436" lon="9.953350048930629"><ele>464.0</ele><time>2026-04-04T11:17:17Z</time></trkpt><trkpt lat="45.794352488033574" lon="9.953517443375604"><ele>464.0</ele><time>2026-04-04T11:17:18Z</time></trkpt><trkpt lat="45.79436488294786" lon="9.95368077803062"><ele>464.0</ele><time>2026-04-04T11:17:19Z</time></trkpt><trkpt lat="45.79436878818689" lon="9.953839535164665"><ele>464.0</ele><time>2026-04-04T11:17:20Z</time></trkpt><trkpt lat="45.79436688217671" lon="9.953995594945756"><ele>464.0</ele><time>2026-04-04T11:17:21Z</time></trkpt><trkpt lat="45.79436020605024" lon="9.954141236246757"><ele>464.0</ele><time>2026-04-04T11:17:22Z</time></trkpt><trkpt lat="45.79434869333118" lon="9.954280125487763"><ele>463.6</ele><time>2026-04-04T11:17:23Z</time></trkpt><trkpt lat="45.79434040448998" lon="9.954428082216271"><ele>463.2</ele><time>2026-04-04T11:17:24Z</time></trkpt><trkpt lat="45.794329737043824" lon="9.954584734838242"><ele>462.80000000000007</ele><time>2026-04-04T11:17:25Z</time></trkpt><trkpt lat="45.79432524631021" lon="9.954747557927378"><ele>462.40000000000003</ele><time>2026-04-04T11:17:26Z</time></trkpt><trkpt lat="45.79432337363568" lon="9.954915664034223"><ele>462.0</ele><time>2026-04-04T11:17:27Z</time></trkpt><trkpt lat="45.79431740498593" lon="9.955085658335069"><ele>451.5</ele><time>2026-04-04T11:17:28Z</time></trkpt><trkpt lat="45.794313569920895" lon="9.955259269284754"><ele>441.0</ele><time>2026-04-04T11:17:29Z</time></trkpt><trkpt lat="45.7943144985154" lon="9.955435802953076"><ele>430.5</ele><time>2026-04-04T11:17:30Z</time></trkpt><trkpt lat="45.79431250009117" lon="9.955607472539155"><ele>420.0</ele><time>2026-04-04T11:17:31Z</time></trkpt><trkpt lat="45.79429905666756" lon="9.955764960365869"><ele>420.2</ele><time>2026-04-04T11:17:32Z</time></trkpt><trkpt lat="45.79428972539255" lon="9.955909205620262"><ele>420.4</ele><time>2026-04-04T11:17:33Z</time></trkpt><trkpt lat="45.79427345152514" lon="9.956045536127135"><ele>420.6</ele><time>2026-04-04T11:17:34Z</time></trkpt><trkpt lat="45.794234237642215" lon="9.956172154735508"><ele>420.8</ele><time>2026-04-04T11:17:35Z</time></trkpt><trkpt lat="45.79418871718119" lon="9.956281147224702"><ele>421.0</ele><time>2026-04-04T11:17:36Z</time></trkpt><trkpt lat="45.79415662840123" lon="9.956384915849332"><ele>421.0</ele><time>2026-04-04T11:17:37Z</time></trkpt><trkpt lat="45.79415704026494" lon="9.956508447715743"><ele>421.0</ele><time>2026-04-04T11:17:38Z</time></trkpt><trkpt lat="45.7941657161534" lon="9.95663741200704"><ele>421.0</ele><time>2026-04-04T11:17:39Z</time></trkpt><trkpt lat="45.79414210883763" lon="9.956764850837839"><ele>421.0</ele><time>2026-04-04T11:17:40Z</time></trkpt><trkpt lat="45.794093707672424" lon="9.956890614913078"><ele>421.0</ele><time>2026-04-04T11:17:41Z</time></trkpt><trkpt lat="45.794035564828185" lon="9.957014735832887"><ele>421.25</ele><time>2026-04-04T11:17:42Z</time></trkpt><trkpt lat="45.793983942059114" lon="9.957148107196398"><ele>421.5</ele><time>2026-04-04T11:17:43Z</time></trkpt><trkpt lat="45.793946512010926" lon="9.957295675753386"><ele>421.75</ele><time>2026-04-04T11:17:44Z</time></trkpt><trkpt lat="45.79392551200483" lon="9.957462982131059"><ele>422.0</ele><time>2026-04-04T11:17:45Z</time></trkpt><trkpt lat="45.79391555147398" lon="9.957636341171401"><ele>421.25</ele><time>2026-04-04T11:17:45.999Z</time></trkpt><trkpt lat="45.793908976980326" lon="9.957813756621857"><ele>420.5</ele><time>2026-04-04T11:17:46.999Z</time></trkpt><trkpt lat="45.793900127214634" lon="9.957992661122155"><ele>419.75</ele><time>2026-04-04T11:17:47.999Z</time></trkpt><trkpt lat="45.79389835010379" lon="9.958162173368624"><ele>419.0</ele><time>2026-04-04T11:17:48.999Z</time></trkpt><trkpt lat="45.793898509332514" lon="9.958323420660735"><ele>418.79999999999995</ele><time>2026-04-04T11:17:49.999Z</time></trkpt><trkpt lat="45.793906290563775" lon="9.958475021020446"><ele>418.59999999999997</ele><time>2026-04-04T11:17:50.999Z</time></trkpt><trkpt lat="45.793908178996766" lon="9.958622446930942"><ele>418.4</ele><time>2026-04-04T11:17:51.999Z</time></trkpt><trkpt lat="45.79389871634687" lon="9.95877233603001"><ele>418.2</ele><time>2026-04-04T11:17:52.999Z</time></trkpt><trkpt lat="45.793890632912074" lon="9.958908766904893"><ele>418.0</ele><time>2026-04-04T11:17:53.999Z</time></trkpt><trkpt lat="45.79388610434347" lon="9.959034289815722"><ele>418.0</ele><time>2026-04-04T11:17:54.999Z</time></trkpt><trkpt lat="45.793880078924055" lon="9.959150356182828"><ele>418.0</ele><time>2026-04-04T11:17:55.999Z</time></trkpt><trkpt lat="45.79384107056993" lon="9.959267931329173"><ele>418.0</ele><time>2026-04-04T11:17:56.999Z</time></trkpt><trkpt lat="45.79379376389017" lon="9.95939537627151"><ele>418.0</ele><time>2026-04-04T11:17:57.999Z</time></trkpt><trkpt lat="45.793767797935395" lon="9.959539254428368"><ele>418.0</ele><time>2026-04-04T11:17:58.999Z</time></trkpt><trkpt lat="45.79374680167673" lon="9.959679995228077"><ele>418.4</ele><time>2026-04-04T11:17:59.999Z</time></trkpt><trkpt lat="45.79371926437818" lon="9.959817503814376"><ele>418.79999999999995</ele><time>2026-04-04T11:18:00.999Z</time></trkpt><trkpt lat="45.79369229006656" lon="9.959949869851249"><ele>419.2</ele><time>2026-04-04T11:18:01.999Z</time></trkpt><trkpt lat="45.7936667719739" lon="9.960084109377977"><ele>419.6</ele><time>2026-04-04T11:18:02.999Z</time></trkpt><trkpt lat="45.79364913091062" lon="9.960224170624276"><ele>420.0</ele><time>2026-04-04T11:18:03.999Z</time></trkpt><trkpt lat="45.7936234141857" lon="9.96035104458954"><ele>420.0</ele><time>2026-04-04T11:18:04.999Z</time></trkpt><trkpt lat="45.793596436026995" lon="9.96046944299517"><ele>420.0</ele><time>2026-04-04T11:18:05.999Z</time></trkpt><trkpt lat="45.79356640991496" lon="9.960578441257015"><ele>420.0</ele><time>2026-04-04T11:18:06.999Z</time></trkpt><trkpt lat="45.79353668161028" lon="9.96068722549977"><ele>420.0</ele><time>2026-04-04T11:18:07.999Z</time></trkpt><trkpt lat="45.79348646416328" lon="9.960775068207935"><ele>420.0</ele><time>2026-04-04T11:18:08.999Z</time></trkpt><trkpt lat="45.793447707686404" lon="9.960860203748778"><ele>420.0</ele><time>2026-04-04T11:18:09.999Z</time></trkpt><trkpt lat="45.79340018452151" lon="9.96093324395692"><ele>413.8333333333333</ele><time>2026-04-04T11:18:10.999Z</time></trkpt><trkpt lat="45.79334122590034" lon="9.960976280670735"><ele>407.6666666666667</ele><time>2026-04-04T11:18:11.999Z</time></trkpt><trkpt lat="45.79327366525862" lon="9.961030317162773"><ele>401.5</ele><time>2026-04-04T11:18:12.999Z</time></trkpt><trkpt lat="45.79321164204599" lon="9.961105644897536"><ele>395.33333333333337</ele><time>2026-04-04T11:18:13.999Z</time></trkpt><trkpt lat="45.793159162965466" lon="9.961214454666651"><ele>389.1666666666667</ele><time>2026-04-04T11:18:14.999Z</time></trkpt><trkpt lat="45.793142194617644" lon="9.961363818499485"><ele>383.0</ele><time>2026-04-04T11:18:15.999Z</time></trkpt><trkpt lat="45.79308946553962" lon="9.961485188096677"><ele>383.0</ele><time>2026-04-04T11:18:16.999Z</time></trkpt><trkpt lat="45.793047761857835" lon="9.961621956456742"><ele>383.0</ele><time>2026-04-04T11:18:17.999Z</time></trkpt><trkpt lat="45.79296808423453" lon="9.961719376265284"><ele>383.0</ele><time>2026-04-04T11:18:18.999Z</time></trkpt><trkpt lat="45.79291417767326" lon="9.961842393419024"><ele>383.0</ele><time>2026-04-04T11:18:19.999Z</time></trkpt><trkpt lat="45.79283522242644" lon="9.961930685106564"><ele>383.0</ele><time>2026-04-04T11:18:20.999Z</time></trkpt><trkpt lat="45.792764028200644" lon="9.962032649996695"><ele>383.5</ele><time>2026-04-04T11:18:21.999Z</time></trkpt><trkpt lat="45.79268660550012" lon="9.962129783000947"><ele>384.0</ele><time>2026-04-04T11:18:22.999Z</time></trkpt><trkpt lat="45.79260754892645" lon="9.962218022031117"><ele>384.5</ele><time>2026-04-04T11:18:23.999Z</time></trkpt><trkpt lat="45.792536304725" lon="9.96228303582687"><ele>385.0</ele><time>2026-04-04T11:18:24.999Z</time></trkpt><trkpt lat="45.7924719539702" lon="9.962331000249767"><ele>385.49999999999994</ele><time>2026-04-04T11:18:25.999Z</time></trkpt><trkpt lat="45.792414689495686" lon="9.962372955793363"><ele>386.0</ele><time>2026-04-04T11:18:26.999Z</time></trkpt><trkpt lat="45.79233228685506" lon="9.962427753793097"><ele>383.0</ele><time>2026-04-04T11:18:28.999Z</time></trkpt><trkpt lat="45.79224944659265" lon="9.962454953996433"><ele>380.0</ele><time>2026-04-04T11:18:31.999Z</time></trkpt><trkpt lat="45.792223614809664" lon="9.96264322566556"><ele>377.0</ele><time>2026-04-04T11:18:33.999Z</time></trkpt><trkpt lat="45.79219103856639" lon="9.962784309796243"><ele>374.0</ele><time>2026-04-04T11:18:35.999Z</time></trkpt><trkpt lat="45.79215243620802" lon="9.962942969255618"><ele>371.0</ele><time>2026-04-04T11:18:37.999Z</time></trkpt><trkpt lat="45.792092938505945" lon="9.963092684372379"><ele>371.0</ele><time>2026-04-04T11:18:39.999Z</time></trkpt><trkpt lat="45.792056815021375" lon="9.963168153060089"><ele>371.0</ele><time>2026-04-04T11:18:40.999Z</time></trkpt><trkpt lat="45.792021313909764" lon="9.96324313622821"><ele>371.0</ele><time>2026-04-04T11:18:41.999Z</time></trkpt><trkpt lat="45.79198910727567" lon="9.963322415386163"><ele>371.0</ele><time>2026-04-04T11:18:42.998Z</time></trkpt><trkpt lat="45.79195992557409" lon="9.963405331530518"><ele>371.0</ele><time>2026-04-04T11:18:43.998Z</time></trkpt><trkpt lat="45.79192990427458" lon="9.963490005375856"><ele>371.0</ele><time>2026-04-04T11:18:44.998Z</time></trkpt><trkpt lat="45.79189675089396" lon="9.963569972018067"><ele>371.0</ele><time>2026-04-04T11:18:45.998Z</time></trkpt><trkpt lat="45.7918623154334" lon="9.963651027854064"><ele>370.42857142857144</ele><time>2026-04-04T11:18:46.998Z</time></trkpt><trkpt lat="45.79183034556607" lon="9.963729746937137"><ele>369.8571428571429</ele><time>2026-04-04T11:18:47.998Z</time></trkpt><trkpt lat="45.7917980267515" lon="9.963812457937395"><ele>369.2857142857143</ele><time>2026-04-04T11:18:48.998Z</time></trkpt><trkpt lat="45.791766417541616" lon="9.963892264915506"><ele>368.7142857142857</ele><time>2026-04-04T11:18:49.998Z</time></trkpt><trkpt lat="45.79173872083593" lon="9.963976242336445"><ele>368.14285714285717</ele><time>2026-04-04T11:18:50.998Z</time></trkpt><trkpt lat="45.79171529576682" lon="9.964061789441581"><ele>367.57142857142856</ele><time>2026-04-04T11:18:51.998Z</time></trkpt><trkpt lat="45.79169147595268" lon="9.964149137597161"><ele>367.0</ele><time>2026-04-04T11:18:52.998Z</time></trkpt><trkpt lat="45.79167247756331" lon="9.964237983228168"><ele>367.0</ele><time>2026-04-04T11:18:53.998Z</time></trkpt><trkpt lat="45.791656429942385" lon="9.96432919977839"><ele>367.0</ele><time>2026-04-04T11:18:54.998Z</time></trkpt><trkpt lat="45.79164211674421" lon="9.964419467490128"><ele>367.0</ele><time>2026-04-04T11:18:55.998Z</time></trkpt><trkpt lat="45.7916296684927" lon="9.964509438955504"><ele>367.0</ele><time>2026-04-04T11:18:56.998Z</time></trkpt><trkpt lat="45.791615233240655" lon="9.96469088741363"><ele>367.0</ele><time>2026-04-04T11:18:58.998Z</time></trkpt><trkpt lat="45.791610561922404" lon="9.964787015828314"><ele>367.0</ele><time>2026-04-04T11:18:59.998Z</time></trkpt><trkpt lat="45.791606175225375" lon="9.964881201364523"><ele>367.0</ele><time>2026-04-04T11:19:00.998Z</time></trkpt><trkpt lat="45.791604856695464" lon="9.964976510309917"><ele>367.0</ele><time>2026-04-04T11:19:01.998Z</time></trkpt><trkpt lat="45.79160961069387" lon="9.96507087904032"><ele>367.0</ele><time>2026-04-04T11:19:02.998Z</time></trkpt><trkpt lat="45.791615134052144" lon="9.965166316266377"><ele>367.0</ele><time>2026-04-04T11:19:03.998Z</time></trkpt><trkpt lat="45.791619739624444" lon="9.965260973501374"><ele>367.0</ele><time>2026-04-04T11:19:04.998Z</time></trkpt><trkpt lat="45.7916209508044" lon="9.965354021847741"><ele>367.0</ele><time>2026-04-04T11:19:05.998Z</time></trkpt><trkpt lat="45.791612750799594" lon="9.965449877034803"><ele>367.0</ele><time>2026-04-04T11:19:06.998Z</time></trkpt><trkpt lat="45.791599673963105" lon="9.965540819407526"><ele>367.1428571428571</ele><time>2026-04-04T11:19:07.998Z</time></trkpt><trkpt lat="45.79158824262461" lon="9.965635657069827"><ele>367.28571428571433</ele><time>2026-04-04T11:19:08.998Z</time></trkpt><trkpt lat="45.7915778901023" lon="9.965729822836716"><ele>367.42857142857144</ele><time>2026-04-04T11:19:09.998Z</time></trkpt><trkpt lat="45.7915632433152" lon="9.965826078376983"><ele>367.57142857142856</ele><time>2026-04-04T11:19:10.998Z</time></trkpt><trkpt lat="45.79155041458076" lon="9.96592078357771"><ele>367.71428571428567</ele><time>2026-04-04T11:19:11.998Z</time></trkpt><trkpt lat="45.791534845508686" lon="9.96601852359226"><ele>367.8571428571429</ele><time>2026-04-04T11:19:13Z</time></trkpt><trkpt lat="45.79151933659662" lon="9.966115805305444"><ele>368.0</ele><time>2026-04-04T11:19:14Z</time></trkpt><trkpt lat="45.79150058212135" lon="9.966211284117621"><ele>368.0</ele><time>2026-04-04T11:19:15Z</time></trkpt><trkpt lat="45.79148257444108" lon="9.966309674380852"><ele>368.0</ele><time>2026-04-04T11:19:16Z</time></trkpt><trkpt lat="45.79146795600821" lon="9.966413329006917"><ele>368.0</ele><time>2026-04-04T11:19:17Z</time></trkpt><trkpt lat="45.791462294776245" lon="9.966518267320803"><ele>368.0</ele><time>2026-04-04T11:19:18Z</time></trkpt><trkpt lat="45.791460058032534" lon="9.966620076785413"><ele>368.0</ele><time>2026-04-04T11:19:19Z</time></trkpt><trkpt lat="45.791466803705525" lon="9.966717558480624"><ele>368.0</ele><time>2026-04-04T11:19:20Z</time></trkpt><trkpt lat="45.79148247109716" lon="9.966810912788715"><ele>368.0</ele><time>2026-04-04T11:19:21Z</time></trkpt><trkpt lat="45.79149261570313" lon="9.966903704172715"><ele>368.0</ele><time>2026-04-04T11:19:22Z</time></trkpt><trkpt lat="45.791515294111804" lon="9.967076829011171"><ele>368.0</ele><time>2026-04-04T11:19:24Z</time></trkpt><trkpt lat="45.79155370298492" lon="9.967239362636471"><ele>368.0</ele><time>2026-04-04T11:19:26Z</time></trkpt><trkpt lat="45.791594499769836" lon="9.96739865499541"><ele>368.0</ele><time>2026-04-04T11:19:28Z</time></trkpt><trkpt lat="45.79161840050599" lon="9.967557032950582"><ele>367.5</ele><time>2026-04-04T11:19:30Z</time></trkpt><trkpt lat="45.79162868633592" lon="9.967717660294829"><ele>367.0</ele><time>2026-04-04T11:19:32Z</time></trkpt><trkpt lat="45.791630590227314" lon="9.967888439234333"><ele>366.5</ele><time>2026-04-04T11:19:34Z</time></trkpt><trkpt lat="45.7916258009427" lon="9.968057102745982"><ele>366.0</ele><time>2026-04-04T11:19:36Z</time></trkpt><trkpt lat="45.79163033286172" lon="9.968222790068866"><ele>365.8</ele><time>2026-04-04T11:19:38Z</time></trkpt><trkpt lat="45.791629673811585" lon="9.968384276461954"><ele>365.6</ele><time>2026-04-04T11:19:40Z</time></trkpt><trkpt lat="45.79163052677323" lon="9.96853799147741"><ele>365.4</ele><time>2026-04-04T11:19:42Z</time></trkpt><trkpt lat="45.79163860178582" lon="9.968703326696636"><ele>365.2</ele><time>2026-04-04T11:19:44Z</time></trkpt><trkpt lat="45.79166601843596" lon="9.968853741431467"><ele>365.0</ele><time>2026-04-04T11:19:46Z</time></trkpt><trkpt lat="45.791705549434916" lon="9.968993945436843"><ele>365.0</ele><time>2026-04-04T11:19:47.999Z</time></trkpt><trkpt lat="45.791754777845476" lon="9.969125930353778"><ele>365.0</ele><time>2026-04-04T11:19:49.999Z</time></trkpt><trkpt lat="45.79180367429898" lon="9.96922059942227"><ele>365.0</ele><time>2026-04-04T11:19:52.999Z</time></trkpt><trkpt lat="45.791861643599844" lon="9.969322920626862"><ele>365.0</ele><time>2026-04-04T11:19:53.999Z</time></trkpt><trkpt lat="45.79190973147589" lon="9.969437206997393"><ele>365.0</ele><time>2026-04-04T11:19:55.999Z</time></trkpt><trkpt lat="45.791970331194435" lon="9.969528052856328"><ele>366.83333333333337</ele><time>2026-04-04T11:19:57.999Z</time></trkpt><trkpt lat="45.79203619483495" lon="9.969619938070602"><ele>368.6666666666667</ele><time>2026-04-04T11:19:59.999Z</time></trkpt><trkpt lat="45.79209868199085" lon="9.969716964766006"><ele>370.5</ele><time>2026-04-04T11:20:01.999Z</time></trkpt><trkpt lat="45.792153292118755" lon="9.969814406102232"><ele>372.3333333333333</ele><time>2026-04-04T11:20:03.999Z</time></trkpt><trkpt lat="45.79220567311014" lon="9.96991746002939"><ele>374.16666666666663</ele><time>2026-04-04T11:20:05.999Z</time></trkpt><trkpt lat="45.79224809585232" lon="9.970025224595034"><ele>376.0</ele><time>2026-04-04T11:20:07.999Z</time></trkpt><trkpt lat="45.79229774588151" lon="9.970119596987109"><ele>376.0</ele><time>2026-04-04T11:20:09.999Z</time></trkpt><trkpt lat="45.79235784415318" lon="9.970236714595668"><ele>376.0</ele><time>2026-04-04T11:20:11.999Z</time></trkpt><trkpt lat="45.792390629604334" lon="9.970340770996527"><ele>376.0</ele><time>2026-04-04T11:20:13.999Z</time></trkpt><trkpt lat="45.79242521372983" lon="9.970481677592776"><ele>376.0</ele><time>2026-04-04T11:20:15.999Z</time></trkpt><trkpt lat="45.79246009037775" lon="9.970610020608216"><ele>376.0</ele><time>2026-04-04T11:20:17.999Z</time></trkpt><trkpt lat="45.79249492709951" lon="9.970741446306784"><ele>376.5</ele><time>2026-04-04T11:20:19.999Z</time></trkpt><trkpt lat="45.792528783328464" lon="9.970877265690355"><ele>377.0</ele><time>2026-04-04T11:20:21.999Z</time></trkpt><trkpt lat="45.792547721078755" lon="9.971004536985486"><ele>377.5</ele><time>2026-04-04T11:20:23.999Z</time></trkpt><trkpt lat="45.79255975336257" lon="9.971129534757546"><ele>378.0</ele><time>2026-04-04T11:20:25.999Z</time></trkpt><trkpt lat="45.79252021818271" lon="9.971232166819687"><ele>378.5</ele><time>2026-04-04T11:20:27.999Z</time></trkpt><trkpt lat="45.79246762833365" lon="9.97130217337778"><ele>379.0</ele><time>2026-04-04T11:20:29.999Z</time></trkpt><trkpt lat="45.792415956586424" lon="9.97136792876545"><ele>379.00000000000006</ele><time>2026-04-04T11:20:31.999Z</time></trkpt><trkpt lat="45.79236831200913" lon="9.971441534634709"><ele>379.0</ele><time>2026-04-04T11:20:33.999Z</time></trkpt><trkpt lat="45.79233983765498" lon="9.971525402175171"><ele>379.0</ele><time>2026-04-04T11:20:35.999Z</time></trkpt><trkpt lat="45.79232630318835" lon="9.971615348197934"><ele>379.0</ele><time>2026-04-04T11:20:37.999Z</time></trkpt><trkpt lat="45.79232053455914" lon="9.97171222596295"><ele>379.0</ele><time>2026-04-04T11:20:39.999Z</time></trkpt><trkpt lat="45.79231708642101" lon="9.97181137976289"><ele>379.00000000000006</ele><time>2026-04-04T11:20:41.999Z</time></trkpt><trkpt lat="45.79232133877883" lon="9.971912587239952"><ele>379.0</ele><time>2026-04-04T11:20:43.998Z</time></trkpt><trkpt lat="45.792341042814506" lon="9.97200489377209"><ele>380.0</ele><time>2026-04-04T11:20:45.998Z</time></trkpt><trkpt lat="45.792352055674115" lon="9.972111281233191"><ele>381.0</ele><time>2026-04-04T11:20:47.998Z</time></trkpt><trkpt lat="45.7923665437566" lon="9.972211125259971"><ele>382.0</ele><time>2026-04-04T11:20:49.998Z</time></trkpt><trkpt lat="45.79238278267104" lon="9.972313282530202"><ele>383.0</ele><time>2026-04-04T11:20:51.998Z</time></trkpt><trkpt lat="45.79236477308357" lon="9.972420121589064"><ele>384.00000000000006</ele><time>2026-04-04T11:20:54.998Z</time></trkpt><trkpt lat="45.79233975456303" lon="9.972534874651815"><ele>385.0</ele><time>2026-04-04T11:20:57.998Z</time></trkpt><trkpt lat="45.79224879381752" lon="9.972739878915878"><ele>385.6</ele><time>2026-04-04T11:21:01.998Z</time></trkpt><trkpt lat="45.79219887878987" lon="9.972868852119799"><ele>386.2</ele><time>2026-04-04T11:21:03.998Z</time></trkpt><trkpt lat="45.79215077299582" lon="9.972993418042714"><ele>386.79999999999995</ele><time>2026-04-04T11:21:05.998Z</time></trkpt><trkpt lat="45.792115595973485" lon="9.973115635964753"><ele>387.4</ele><time>2026-04-04T11:21:07.998Z</time></trkpt><trkpt lat="45.79208761161953" lon="9.97323147811077"><ele>388.0</ele><time>2026-04-04T11:21:09.998Z</time></trkpt><trkpt lat="45.79206178196505" lon="9.973345455521377"><ele>388.50000000000006</ele><time>2026-04-04T11:21:11.998Z</time></trkpt><trkpt lat="45.79203665543428" lon="9.973462989343611"><ele>389.0</ele><time>2026-04-04T11:21:13.998Z</time></trkpt><trkpt lat="45.79200010250276" lon="9.973554459331892"><ele>389.5</ele><time>2026-04-04T11:21:15.998Z</time></trkpt><trkpt lat="45.79195993291906" lon="9.973640978656336"><ele>390.0</ele><time>2026-04-04T11:21:18Z</time></trkpt><trkpt lat="45.79190076672683" lon="9.97371249947186"><ele>390.50000000000006</ele><time>2026-04-04T11:21:20Z</time></trkpt><trkpt lat="45.79183674952903" lon="9.973793718936687"><ele>391.0</ele><time>2026-04-04T11:21:22Z</time></trkpt><trkpt lat="45.791800426391084" lon="9.973893799239962"><ele>387.6</ele><time>2026-04-04T11:21:24Z</time></trkpt><trkpt lat="45.79174584681285" lon="9.974024843771392"><ele>384.20000000000005</ele><time>2026-04-04T11:21:26Z</time></trkpt><trkpt lat="45.791704462820526" lon="9.974168143865745"><ele>380.79999999999995</ele><time>2026-04-04T11:21:28Z</time></trkpt><trkpt lat="45.79162189875645" lon="9.97425872590371"><ele>377.4</ele><time>2026-04-04T11:21:30Z</time></trkpt><trkpt lat="45.791556049223786" lon="9.974359179164278"><ele>374.0</ele><time>2026-04-04T11:21:32Z</time></trkpt><trkpt lat="45.791489450005116" lon="9.974450559559363"><ele>374.0</ele><time>2026-04-04T11:21:34Z</time></trkpt><trkpt lat="45.791448565509555" lon="9.974527454120842"><ele>374.0</ele><time>2026-04-04T11:21:35Z</time></trkpt><trkpt lat="45.791394670739656" lon="9.974635249052627"><ele>374.0</ele><time>2026-04-04T11:21:37Z</time></trkpt><trkpt lat="45.79136562618873" lon="9.974789322266789"><ele>374.0</ele><time>2026-04-04T11:21:39Z</time></trkpt><trkpt lat="45.791302025371884" lon="9.974910195171919"><ele>374.0</ele><time>2026-04-04T11:21:41Z</time></trkpt><trkpt lat="45.791219378794885" lon="9.975024215078788"><ele>374.33333333333337</ele><time>2026-04-04T11:21:43Z</time></trkpt><trkpt lat="45.79115088944411" lon="9.975174484118456"><ele>374.6666666666667</ele><time>2026-04-04T11:21:45Z</time></trkpt><trkpt lat="45.791108550135675" lon="9.97526130105598"><ele>375.0</ele><time>2026-04-04T11:21:46Z</time></trkpt><trkpt lat="45.79106879094051" lon="9.97534395943614"><ele>375.3333333333333</ele><time>2026-04-04T11:21:47Z</time></trkpt><trkpt lat="45.791005263833256" lon="9.97540918254665"><ele>375.66666666666663</ele><time>2026-04-04T11:21:48Z</time></trkpt><trkpt lat="45.79097441063493" lon="9.97550567803623"><ele>376.0</ele><time>2026-04-04T11:21:49Z</time></trkpt><trkpt lat="45.79092371751527" lon="9.975586850974745"><ele>371.8333333333333</ele><time>2026-04-04T11:21:49.999Z</time></trkpt><trkpt lat="45.79089201716536" lon="9.975688115692556"><ele>367.66666666666663</ele><time>2026-04-04T11:21:50.999Z</time></trkpt><trkpt lat="45.79087269043157" lon="9.975795008475346"><ele>363.5</ele><time>2026-04-04T11:21:51.999Z</time></trkpt><trkpt lat="45.79083667925762" lon="9.97589511998522"><ele>359.3333333333333</ele><time>2026-04-04T11:21:52.999Z</time></trkpt><trkpt lat="45.79081116824983" lon="9.976006299267182"><ele>355.1666666666667</ele><time>2026-04-04T11:21:53.999Z</time></trkpt><trkpt lat="45.790804488560475" lon="9.976127885200118"><ele>351.0</ele><time>2026-04-04T11:21:54.999Z</time></trkpt><trkpt lat="45.790818264342825" lon="9.976248448480753"><ele>350.6666666666667</ele><time>2026-04-04T11:21:55.999Z</time></trkpt><trkpt lat="45.790840918340464" lon="9.976368604487835"><ele>350.3333333333333</ele><time>2026-04-04T11:21:56.999Z</time></trkpt><trkpt lat="45.79086045498826" lon="9.976483850773182"><ele>350.0</ele><time>2026-04-04T11:21:57.999Z</time></trkpt><trkpt lat="45.79087626158382" lon="9.976598792599559"><ele>349.66666666666663</ele><time>2026-04-04T11:21:58.999Z</time></trkpt><trkpt lat="45.79089375202363" lon="9.976726714850596"><ele>349.3333333333333</ele><time>2026-04-04T11:21:59.999Z</time></trkpt><trkpt lat="45.79090136528872" lon="9.976853405466699"><ele>349.0</ele><time>2026-04-04T11:22:00.999Z</time></trkpt><trkpt lat="45.79090701322705" lon="9.976985327062156"><ele>349.0</ele><time>2026-04-04T11:22:01.999Z</time></trkpt><trkpt lat="45.79090832751972" lon="9.977113658873765"><ele>349.0</ele><time>2026-04-04T11:22:02.999Z</time></trkpt><trkpt lat="45.79089721894035" lon="9.977244167115634"><ele>349.0</ele><time>2026-04-04T11:22:03.999Z</time></trkpt><trkpt lat="45.79088667069095" lon="9.977376951241393"><ele>349.0</ele><time>2026-04-04T11:22:04.999Z</time></trkpt><trkpt lat="45.79086439021152" lon="9.977505365258963"><ele>349.0</ele><time>2026-04-04T11:22:05.999Z</time></trkpt><trkpt lat="45.790844362813154" lon="9.977640605449729"><ele>349.2</ele><time>2026-04-04T11:22:06.999Z</time></trkpt><trkpt lat="45.79081938392609" lon="9.977775652902272"><ele>349.4</ele><time>2026-04-04T11:22:07.999Z</time></trkpt><trkpt lat="45.79079815490312" lon="9.977912520814082"><ele>349.6</ele><time>2026-04-04T11:22:08.999Z</time></trkpt><trkpt lat="45.79078079257855" lon="9.978048425579502"><ele>349.8</ele><time>2026-04-04T11:22:09.999Z</time></trkpt><trkpt lat="45.79076069561179" lon="9.978184909564488"><ele>350.0</ele><time>2026-04-04T11:22:10.999Z</time></trkpt><trkpt lat="45.7907361998701" lon="9.978311421558612"><ele>349.6666666666667</ele><time>2026-04-04T11:22:11.999Z</time></trkpt><trkpt lat="45.79071670102314" lon="9.978432312322536"><ele>349.33333333333337</ele><time>2026-04-04T11:22:12.999Z</time></trkpt><trkpt lat="45.79070368169398" lon="9.978544333023525"><ele>349.0</ele><time>2026-04-04T11:22:13.999Z</time></trkpt><trkpt lat="45.79069044689023" lon="9.978646897302845"><ele>348.6666666666667</ele><time>2026-04-04T11:22:14.999Z</time></trkpt><trkpt lat="45.790676327895014" lon="9.978735749824557"><ele>348.3333333333333</ele><time>2026-04-04T11:22:15.999Z</time></trkpt><trkpt lat="45.790641209736016" lon="9.978873653936363"><ele>348.0</ele><time>2026-04-04T11:22:17.999Z</time></trkpt><trkpt lat="45.79059256661928" lon="9.978941068369874"><ele>348.0</ele><time>2026-04-04T11:22:20.999Z</time></trkpt><trkpt lat="45.79053905730312" lon="9.978995399358958"><ele>348.0</ele><time>2026-04-04T11:22:36.999Z</time></trkpt><trkpt lat="45.79053414265152" lon="9.979087243923818"><ele>348.0</ele><time>2026-04-04T11:22:38.999Z</time></trkpt><trkpt lat="45.79050153363537" lon="9.979194743056633"><ele>348.0</ele><time>2026-04-04T11:22:40.999Z</time></trkpt><trkpt lat="45.7904847554951" lon="9.97934614479644"><ele>348.0</ele><time>2026-04-04T11:22:42.999Z</time></trkpt><trkpt lat="45.79041637069516" lon="9.979475823051368"><ele>348.0</ele><time>2026-04-04T11:22:44.999Z</time></trkpt><trkpt lat="45.790364760706325" lon="9.979543396302919"><ele>348.57142857142856</ele><time>2026-04-04T11:22:45.999Z</time></trkpt><trkpt lat="45.79031483036639" lon="9.979607895281168"><ele>349.14285714285717</ele><time>2026-04-04T11:22:46.999Z</time></trkpt><trkpt lat="45.79026569495031" lon="9.9796789024587"><ele>349.7142857142857</ele><time>2026-04-04T11:22:47.998Z</time></trkpt><trkpt lat="45.790215400358356" lon="9.979751187101249"><ele>350.2857142857143</ele><time>2026-04-04T11:22:48.998Z</time></trkpt><trkpt lat="45.79016508401456" lon="9.979825326777194"><ele>350.85714285714283</ele><time>2026-04-04T11:22:49.998Z</time></trkpt><trkpt lat="45.79011899683645" lon="9.979911131659424"><ele>351.42857142857144</ele><time>2026-04-04T11:22:50.998Z</time></trkpt><trkpt lat="45.790066576066806" lon="9.979992137039982"><ele>352.0</ele><time>2026-04-04T11:22:51.998Z</time></trkpt><trkpt lat="45.790011338263774" lon="9.980066375342698"><ele>350.57142857142856</ele><time>2026-04-04T11:22:52.998Z</time></trkpt><trkpt lat="45.789955173494334" lon="9.980138238756371"><ele>349.1428571428571</ele><time>2026-04-04T11:22:53.998Z</time></trkpt><trkpt lat="45.78989697695917" lon="9.980206996131356"><ele>347.71428571428567</ele><time>2026-04-04T11:22:54.998Z</time></trkpt><trkpt lat="45.789839142399444" lon="9.980272275636867"><ele>346.2857142857143</ele><time>2026-04-04T11:22:55.998Z</time></trkpt><trkpt lat="45.789778835198945" lon="9.980336581218555"><ele>344.85714285714283</ele><time>2026-04-04T11:22:56.998Z</time></trkpt><trkpt lat="45.78971997526277" lon="9.980397050979674"><ele>343.4285714285714</ele><time>2026-04-04T11:22:57.998Z</time></trkpt><trkpt lat="45.789659529880474" lon="9.980452937991398"><ele>342.0</ele><time>2026-04-04T11:22:58.998Z</time></trkpt><trkpt lat="45.78959806969243" lon="9.980510908035535"><ele>341.99999999999994</ele><time>2026-04-04T11:22:59.998Z</time></trkpt><trkpt lat="45.78953331542193" lon="9.98055917861472"><ele>342.0</ele><time>2026-04-04T11:23:00.998Z</time></trkpt><trkpt lat="45.78946784549076" lon="9.98060787717294"><ele>342.0</ele><time>2026-04-04T11:23:01.998Z</time></trkpt><trkpt lat="45.789403022079235" lon="9.980653759416448"><ele>342.0</ele><time>2026-04-04T11:23:02.998Z</time></trkpt><trkpt lat="45.78933997812905" lon="9.98070019832799"><ele>342.0</ele><time>2026-04-04T11:23:03.998Z</time></trkpt><trkpt lat="45.78927957642834" lon="9.980744480838652"><ele>341.99999999999994</ele><time>2026-04-04T11:23:04.998Z</time></trkpt><trkpt lat="45.78922208462364" lon="9.980789570027348"><ele>342.0</ele><time>2026-04-04T11:23:05.998Z</time></trkpt><trkpt lat="45.7891639624017" lon="9.980834862111712"><ele>341.40000000000003</ele><time>2026-04-04T11:23:06.998Z</time></trkpt><trkpt lat="45.789052774268356" lon="9.9809194835149"><ele>340.8</ele><time>2026-04-04T11:23:08.998Z</time></trkpt><trkpt lat="45.78894169578442" lon="9.981000156830067"><ele>340.2</ele><time>2026-04-04T11:23:10.998Z</time></trkpt><trkpt lat="45.7888836575633" lon="9.981039314939522"><ele>339.6</ele><time>2026-04-04T11:23:11.998Z</time></trkpt><trkpt lat="45.7888264420685" lon="9.981077733562287"><ele>339.0</ele><time>2026-04-04T11:23:12.998Z</time></trkpt><trkpt lat="45.78871792466389" lon="9.981149720420497"><ele>339.0</ele><time>2026-04-04T11:23:14.998Z</time></trkpt><trkpt lat="45.788609020058864" lon="9.981232051486668"><ele>339.0</ele><time>2026-04-04T11:23:16.998Z</time></trkpt><trkpt lat="45.78849614503295" lon="9.981316861001721"><ele>339.0</ele><time>2026-04-04T11:23:18.998Z</time></trkpt><trkpt lat="45.78843776163668" lon="9.98135903914453"><ele>339.0</ele><time>2026-04-04T11:23:19.998Z</time></trkpt><trkpt lat="45.78837691529524" lon="9.981391898391902"><ele>339.0</ele><time>2026-04-04T11:23:20.998Z</time></trkpt><trkpt lat="45.78825795623907" lon="9.981387309029815"><ele>339.1666666666667</ele><time>2026-04-04T11:23:22.998Z</time></trkpt><trkpt lat="45.788154183888906" lon="9.981363486840777"><ele>339.3333333333333</ele><time>2026-04-04T11:23:25Z</time></trkpt><trkpt lat="45.7880999844988" lon="9.981458688908772"><ele>339.5</ele><time>2026-04-04T11:23:26Z</time></trkpt><trkpt lat="45.78802281498032" lon="9.98152874454974"><ele>339.66666666666663</ele><time>2026-04-04T11:23:28Z</time></trkpt><trkpt lat="45.78796320766606" lon="9.981568858714388"><ele>339.8333333333333</ele><time>2026-04-04T11:23:30Z</time></trkpt><trkpt lat="45.787948525550945" lon="9.981474055555214"><ele>340.0</ele><time>2026-04-04T11:23:59.999Z</time></trkpt><trkpt lat="45.78796797956023" lon="9.981561987891762"><ele>340.0</ele><time>2026-04-04T11:32:58.999Z</time></trkpt><trkpt lat="45.78791248082106" lon="9.981619655011247"><ele>340.0</ele><time>2026-04-04T11:33:02.999Z</time></trkpt><trkpt lat="45.78783105853602" lon="9.981664757144689"><ele>340.0</ele><time>2026-04-04T11:33:05.999Z</time></trkpt><trkpt lat="45.78776948872774" lon="9.981697506297415"><ele>340.0</ele><time>2026-04-04T11:33:07.999Z</time></trkpt><trkpt lat="45.787700266181474" lon="9.981719966690319"><ele>340.0</ele><time>2026-04-04T11:33:09.998Z</time></trkpt><trkpt lat="45.78762914140931" lon="9.981752749488015"><ele>340.0</ele><time>2026-04-04T11:33:11.998Z</time></trkpt><trkpt lat="45.787560638569964" lon="9.98179116597038"><ele>340.0</ele><time>2026-04-04T11:33:14.998Z</time></trkpt><trkpt lat="45.78746471322849" lon="9.98184856182056"><ele>339.8333333333333</ele><time>2026-04-04T11:33:17.998Z</time></trkpt><trkpt lat="45.78737927011747" lon="9.981887233821707"><ele>339.66666666666663</ele><time>2026-04-04T11:33:19.998Z</time></trkpt><trkpt lat="45.78729069865904" lon="9.98192902931256"><ele>339.5</ele><time>2026-04-04T11:33:21.998Z</time></trkpt><trkpt lat="45.78723014412092" lon="9.9819591047063"><ele>339.3333333333333</ele><time>2026-04-04T11:33:23.998Z</time></trkpt><trkpt lat="45.78714955130815" lon="9.982000864588608"><ele>339.1666666666667</ele><time>2026-04-04T11:33:25.998Z</time></trkpt><trkpt lat="45.78706253774641" lon="9.982039066421933"><ele>339.0</ele><time>2026-04-04T11:33:27.998Z</time></trkpt><trkpt lat="45.78698423539082" lon="9.982077910296388"><ele>339.0</ele><time>2026-04-04T11:33:29.998Z</time></trkpt><trkpt lat="45.78691005160403" lon="9.982122408114861"><ele>339.0</ele><time>2026-04-04T11:33:31.998Z</time></trkpt><trkpt lat="45.78683419438767" lon="9.982166994713012"><ele>339.0</ele><time>2026-04-04T11:33:33.998Z</time></trkpt><trkpt lat="45.786756086837094" lon="9.982212244896141"><ele>339.0</ele><time>2026-04-04T11:33:35.998Z</time></trkpt><trkpt lat="45.786677856452904" lon="9.982255940752477"><ele>339.0</ele><time>2026-04-04T11:33:37.998Z</time></trkpt><trkpt lat="45.78660223365273" lon="9.982294361625842"><ele>339.0</ele><time>2026-04-04T11:33:39.998Z</time></trkpt><trkpt lat="45.78652937105421" lon="9.982334036234654"><ele>339.0</ele><time>2026-04-04T11:33:41.998Z</time></trkpt><trkpt lat="45.78645942258588" lon="9.982371615135431"><ele>339.0</ele><time>2026-04-04T11:33:43.998Z</time></trkpt><trkpt lat="45.78639176342729" lon="9.982415938136759"><ele>339.0</ele><time>2026-04-04T11:33:46.998Z</time></trkpt><trkpt lat="45.786316266836515" lon="9.982475105938644"><ele>339.0</ele><time>2026-04-04T11:33:49.998Z</time></trkpt><trkpt lat="45.78625418994163" lon="9.982521916032706"><ele>339.0</ele><time>2026-04-04T11:33:51.998Z</time></trkpt><trkpt lat="45.78619290392459" lon="9.982550661951406"><ele>339.0</ele><time>2026-04-04T11:33:53.999Z</time></trkpt><trkpt lat="45.786123037229935" lon="9.982588613401898"><ele>339.0</ele><time>2026-04-04T11:33:55.999Z</time></trkpt><trkpt lat="45.78602809328824" lon="9.982656947122944"><ele>339.6666666666667</ele><time>2026-04-04T11:33:58.999Z</time></trkpt><trkpt lat="45.78594603895335" lon="9.98271608376094"><ele>340.3333333333333</ele><time>2026-04-04T11:34:01.999Z</time></trkpt><trkpt lat="45.78586356778707" lon="9.98276242150435"><ele>341.0</ele><time>2026-04-04T11:34:03.999Z</time></trkpt><trkpt lat="45.7857872195907" lon="9.982817472172943"><ele>341.66666666666663</ele><time>2026-04-04T11:34:05.999Z</time></trkpt><trkpt lat="45.78570283765918" lon="9.982855404138004"><ele>342.3333333333333</ele><time>2026-04-04T11:34:08.999Z</time></trkpt><trkpt lat="45.78561450262062" lon="9.982862189058078"><ele>343.0</ele><time>2026-04-04T11:34:11.999Z</time></trkpt><trkpt lat="45.78553253737437" lon="9.982879786666304"><ele>343.0</ele><time>2026-04-04T11:34:12.999Z</time></trkpt><trkpt lat="45.78546662145366" lon="9.982901628962223"><ele>343.0</ele><time>2026-04-04T11:34:14.999Z</time></trkpt><trkpt lat="45.78537012702624" lon="9.982912490981276"><ele>343.0</ele><time>2026-04-04T11:34:17.999Z</time></trkpt><trkpt lat="45.78528398818434" lon="9.982912370262877"><ele>343.0</ele><time>2026-04-04T11:34:20.999Z</time></trkpt><trkpt lat="45.78520503736671" lon="9.982884940823373"><ele>343.0</ele><time>2026-04-04T11:34:23.999Z</time></trkpt><trkpt lat="45.785120135899234" lon="9.982842226509348"><ele>343.0</ele><time>2026-04-04T11:34:26.999Z</time></trkpt><trkpt lat="45.78503314503402" lon="9.982812453238003"><ele>343.8333333333333</ele><time>2026-04-04T11:34:29.999Z</time></trkpt><trkpt lat="45.78495073774653" lon="9.982814619066366"><ele>344.66666666666663</ele><time>2026-04-04T11:34:32.999Z</time></trkpt><trkpt lat="45.78485977593205" lon="9.982782210822835"><ele>345.5</ele><time>2026-04-04T11:34:35.999Z</time></trkpt><trkpt lat="45.78479282052146" lon="9.982768006388445"><ele>346.3333333333333</ele><time>2026-04-04T11:34:37.999Z</time></trkpt><trkpt lat="45.784706743838726" lon="9.982756489098465"><ele>347.1666666666667</ele><time>2026-04-04T11:34:40.999Z</time></trkpt><trkpt lat="45.78463963492273" lon="9.98275684320932"><ele>348.0</ele><time>2026-04-04T11:34:42.999Z</time></trkpt><trkpt lat="45.784573142608934" lon="9.982768373609538"><ele>348.0</ele><time>2026-04-04T11:34:44.999Z</time></trkpt><trkpt lat="45.78450585272319" lon="9.982751179470291"><ele>348.0</ele><time>2026-04-04T11:34:46.999Z</time></trkpt><trkpt lat="45.78441451911762" lon="9.982762498102836"><ele>348.0</ele><time>2026-04-04T11:34:49.999Z</time></trkpt><trkpt lat="45.784329440121574" lon="9.982766148757921"><ele>348.0</ele><time>2026-04-04T11:34:52.999Z</time></trkpt><trkpt lat="45.78425752970336" lon="9.982776632526074"><ele>348.0</ele><time>2026-04-04T11:34:56.999Z</time></trkpt><trkpt lat="45.78416836942336" lon="9.982789152688085"><ele>348.0</ele><time>2026-04-04T11:34:59.999Z</time></trkpt><trkpt lat="45.78409553151396" lon="9.982784809872776"><ele>349.1666666666667</ele><time>2026-04-04T11:35:02.999Z</time></trkpt><trkpt lat="45.78401225365508" lon="9.982785596988327"><ele>350.3333333333333</ele><time>2026-04-04T11:35:05.999Z</time></trkpt><trkpt lat="45.78392277381603" lon="9.982797562188205"><ele>351.5</ele><time>2026-04-04T11:35:08.999Z</time></trkpt><trkpt lat="45.78384027591348" lon="9.982817591170642"><ele>352.66666666666663</ele><time>2026-04-04T11:35:11.998Z</time></trkpt><trkpt lat="45.7837723972994" lon="9.982829791192463"><ele>353.8333333333333</ele><time>2026-04-04T11:35:13.998Z</time></trkpt><trkpt lat="45.7836884598932" lon="9.982850867255337"><ele>355.0</ele><time>2026-04-04T11:35:16.998Z</time></trkpt><trkpt lat="45.78361871825961" lon="9.98286264004753"><ele>355.0</ele><time>2026-04-04T11:35:18.998Z</time></trkpt><trkpt lat="45.7835271793429" lon="9.982885469979719"><ele>355.0</ele><time>2026-04-04T11:35:21.998Z</time></trkpt><trkpt lat="45.78344652032985" lon="9.982900099261505"><ele>355.0</ele><time>2026-04-04T11:35:24.998Z</time></trkpt><trkpt lat="45.78337901004096" lon="9.98290988586155"><ele>355.0</ele><time>2026-04-04T11:35:27.998Z</time></trkpt><trkpt lat="45.78330777932952" lon="9.982922822798013"><ele>355.0</ele><time>2026-04-04T11:35:30.998Z</time></trkpt><trkpt lat="45.783240289385894" lon="9.982944649364546"><ele>355.0</ele><time>2026-04-04T11:35:33.998Z</time></trkpt><trkpt lat="45.78316877683448" lon="9.982905036185945"><ele>356.0</ele><time>2026-04-04T11:35:36.998Z</time></trkpt><trkpt lat="45.783093584989594" lon="9.982947457883514"><ele>357.0</ele><time>2026-04-04T11:35:39.998Z</time></trkpt><trkpt lat="45.78307716267159" lon="9.983089713037046"><ele>358.0</ele><time>2026-04-04T11:35:42.998Z</time></trkpt><trkpt lat="45.78305803726748" lon="9.983200677076825"><ele>359.0</ele><time>2026-04-04T11:35:44.998Z</time></trkpt><trkpt lat="45.78303859016999" lon="9.98345315814627"><ele>360.0</ele><time>2026-04-04T11:35:46.998Z</time></trkpt><trkpt lat="45.783046183430784" lon="9.98359705237416"><ele>360.0</ele><time>2026-04-04T11:35:48.998Z</time></trkpt><trkpt lat="45.7830721175122" lon="9.98373246058777"><ele>360.0</ele><time>2026-04-04T11:35:50.998Z</time></trkpt><trkpt lat="45.7831023849609" lon="9.983904926792926"><ele>360.0</ele><time>2026-04-04T11:35:52.998Z</time></trkpt><trkpt lat="45.783141046700166" lon="9.984078989677009"><ele>360.0</ele><time>2026-04-04T11:35:54.998Z</time></trkpt><trkpt lat="45.783162535135986" lon="9.984171346640553"><ele>360.0</ele><time>2026-04-04T11:35:55.998Z</time></trkpt><trkpt lat="45.78319362236072" lon="9.984269979374236"><ele>359.3333333333333</ele><time>2026-04-04T11:35:56.998Z</time></trkpt><trkpt lat="45.78322889545369" lon="9.984368371829843"><ele>358.6666666666667</ele><time>2026-04-04T11:35:57.998Z</time></trkpt><trkpt lat="45.78326332270785" lon="9.984466219455086"><ele>358.0</ele><time>2026-04-04T11:35:58.999Z</time></trkpt><trkpt lat="45.78330257387126" lon="9.984573037718517"><ele>357.33333333333337</ele><time>2026-04-04T11:35:59.999Z</time></trkpt><trkpt lat="45.78334861385578" lon="9.984684130748445"><ele>356.6666666666667</ele><time>2026-04-04T11:36:00.999Z</time></trkpt><trkpt lat="45.78339053478364" lon="9.984785343458077"><ele>356.0</ele><time>2026-04-04T11:36:01.999Z</time></trkpt><trkpt lat="45.783424743939015" lon="9.984885712862798"><ele>356.0</ele><time>2026-04-04T11:36:02.999Z</time></trkpt><trkpt lat="45.783462651339704" lon="9.984983374626555"><ele>356.0</ele><time>2026-04-04T11:36:03.999Z</time></trkpt><trkpt lat="45.783502171172074" lon="9.985086595401386"><ele>356.0</ele><time>2026-04-04T11:36:04.999Z</time></trkpt><trkpt lat="45.78353430442958" lon="9.98520077918808"><ele>356.0</ele><time>2026-04-04T11:36:05.999Z</time></trkpt><trkpt lat="45.78356923704154" lon="9.985336446844137"><ele>356.0</ele><time>2026-04-04T11:36:06.999Z</time></trkpt><trkpt lat="45.783580373121715" lon="9.985459425419673"><ele>356.0</ele><time>2026-04-04T11:36:07.999Z</time></trkpt><trkpt lat="45.78358517362217" lon="9.985588949434439"><ele>354.20000000000005</ele><time>2026-04-04T11:36:08.999Z</time></trkpt><trkpt lat="45.78358726243319" lon="9.985719834126519"><ele>352.40000000000003</ele><time>2026-04-04T11:36:09.999Z</time></trkpt><trkpt lat="45.783589472467284" lon="9.98585338406057"><ele>350.6</ele><time>2026-04-04T11:36:10.999Z</time></trkpt><trkpt lat="45.78361095818077" lon="9.985990505926278"><ele>348.8</ele><time>2026-04-04T11:36:11.999Z</time></trkpt><trkpt lat="45.78363219506746" lon="9.986125401682122"><ele>347.0</ele><time>2026-04-04T11:36:12.999Z</time></trkpt><trkpt lat="45.78366667785834" lon="9.98625609667319"><ele>346.20000000000005</ele><time>2026-04-04T11:36:13.999Z</time></trkpt><trkpt lat="45.78370836974628" lon="9.986386629030271"><ele>345.4</ele><time>2026-04-04T11:36:14.999Z</time></trkpt><trkpt lat="45.78375473993246" lon="9.986519663250844"><ele>344.6</ele><time>2026-04-04T11:36:15.999Z</time></trkpt><trkpt lat="45.783796710692684" lon="9.986645515725474"><ele>343.79999999999995</ele><time>2026-04-04T11:36:16.999Z</time></trkpt><trkpt lat="45.78383769691409" lon="9.986779638299986"><ele>343.0</ele><time>2026-04-04T11:36:17.999Z</time></trkpt><trkpt lat="45.78388007624906" lon="9.986917156964147"><ele>343.0</ele><time>2026-04-04T11:36:18.999Z</time></trkpt><trkpt lat="45.78390662839479" lon="9.987060459901974"><ele>343.0</ele><time>2026-04-04T11:36:19.999Z</time></trkpt><trkpt lat="45.78394346349605" lon="9.98719487672833"><ele>343.0</ele><time>2026-04-04T11:36:20.999Z</time></trkpt><trkpt lat="45.78397595602826" lon="9.987335455402544"><ele>343.0</ele><time>2026-04-04T11:36:21.999Z</time></trkpt><trkpt lat="45.78400608752091" lon="9.987475320624075"><ele>343.0</ele><time>2026-04-04T11:36:22.999Z</time></trkpt><trkpt lat="45.78406587832422" lon="9.98759089550075"><ele>343.0</ele><time>2026-04-04T11:36:23.999Z</time></trkpt><trkpt lat="45.784125975824715" lon="9.987703964388542"><ele>343.0</ele><time>2026-04-04T11:36:24.999Z</time></trkpt><trkpt lat="45.784178868585556" lon="9.987824385719346"><ele>343.0</ele><time>2026-04-04T11:36:25.999Z</time></trkpt><trkpt lat="45.784244132458824" lon="9.987926640354583"><ele>343.0</ele><time>2026-04-04T11:36:26.999Z</time></trkpt><trkpt lat="45.784309333205705" lon="9.98802230902915"><ele>343.0</ele><time>2026-04-04T11:36:27.999Z</time></trkpt><trkpt lat="45.78436120374314" lon="9.988129320560066"><ele>342.16666666666663</ele><time>2026-04-04T11:36:28.999Z</time></trkpt><trkpt lat="45.784410008539425" lon="9.988234364665498"><ele>341.3333333333333</ele><time>2026-04-04T11:36:29.999Z</time></trkpt><trkpt lat="45.78443722964141" lon="9.9883445477739"><ele>340.5</ele><time>2026-04-04T11:36:30.999Z</time></trkpt><trkpt lat="45.78445488822861" lon="9.988455525559786"><ele>339.6666666666667</ele><time>2026-04-04T11:36:31.999Z</time></trkpt><trkpt lat="45.78446880613522" lon="9.988559664243452"><ele>338.83333333333337</ele><time>2026-04-04T11:36:32.999Z</time></trkpt><trkpt lat="45.78447142527439" lon="9.988664797655256"><ele>338.0</ele><time>2026-04-04T11:36:33.999Z</time></trkpt><trkpt lat="45.784470810603594" lon="9.988760621269652"><ele>338.0</ele><time>2026-04-04T11:36:34.999Z</time></trkpt><trkpt lat="45.78447912171876" lon="9.988855312178961"><ele>338.0</ele><time>2026-04-04T11:36:35.999Z</time></trkpt><trkpt lat="45.78449381397141" lon="9.988953046747856"><ele>338.0</ele><time>2026-04-04T11:36:36.999Z</time></trkpt><trkpt lat="45.784516222479226" lon="9.989042867555396"><ele>338.0</ele><time>2026-04-04T11:36:37.999Z</time></trkpt><trkpt lat="45.78453032531142" lon="9.989137327914788"><ele>338.0</ele><time>2026-04-04T11:36:38.999Z</time></trkpt><trkpt lat="45.78454112615145" lon="9.989228934446073"><ele>338.0</ele><time>2026-04-04T11:36:39.999Z</time></trkpt><trkpt lat="45.784544258399805" lon="9.98932273136803"><ele>338.0</ele><time>2026-04-04T11:36:40.999Z</time></trkpt><trkpt lat="45.78455623075307" lon="9.989414316776866"><ele>338.2857142857143</ele><time>2026-04-04T11:36:41.999Z</time></trkpt><trkpt lat="45.78457312806263" lon="9.98950164479052"><ele>338.57142857142856</ele><time>2026-04-04T11:36:42.999Z</time></trkpt><trkpt lat="45.7845858856087" lon="9.98959708805269"><ele>338.8571428571429</ele><time>2026-04-04T11:36:43.999Z</time></trkpt><trkpt lat="45.78459003463791" lon="9.989697152646237"><ele>339.1428571428571</ele><time>2026-04-04T11:36:44.999Z</time></trkpt><trkpt lat="45.784599610822106" lon="9.989787755987726"><ele>339.4285714285714</ele><time>2026-04-04T11:36:45.999Z</time></trkpt><trkpt lat="45.784623543713344" lon="9.989873913172586"><ele>339.7142857142857</ele><time>2026-04-04T11:36:46.999Z</time></trkpt><trkpt lat="45.784652239243556" lon="9.989961373092612"><ele>340.0</ele><time>2026-04-04T11:36:47.999Z</time></trkpt><trkpt lat="45.78470422106609" lon="9.990131100629267"><ele>340.8</ele><time>2026-04-04T11:36:49.999Z</time></trkpt><trkpt lat="45.7847333175504" lon="9.990211769865674"><ele>341.6</ele><time>2026-04-04T11:36:50.999Z</time></trkpt><trkpt lat="45.78476296092882" lon="9.990292968929076"><ele>342.4</ele><time>2026-04-04T11:36:51.999Z</time></trkpt><trkpt lat="45.78482004262334" lon="9.99044575233998"><ele>343.2</ele><time>2026-04-04T11:36:53.999Z</time></trkpt><trkpt lat="45.78486715168703" lon="9.990605820410297"><ele>344.0</ele><time>2026-04-04T11:36:55.999Z</time></trkpt><trkpt lat="45.78492386418509" lon="9.99074676095483"><ele>345.0</ele><time>2026-04-04T11:36:57.999Z</time></trkpt><trkpt lat="45.78497861023191" lon="9.990898873308746"><ele>346.0</ele><time>2026-04-04T11:36:59.999Z</time></trkpt><trkpt lat="45.78504982217951" lon="9.991024137907427"><ele>347.0</ele><time>2026-04-04T11:37:01.999Z</time></trkpt><trkpt lat="45.78511218944023" lon="9.991158612221605"><ele>348.0</ele><time>2026-04-04T11:37:03.999Z</time></trkpt><trkpt lat="45.785175491951726" lon="9.99129291879566"><ele>347.0</ele><time>2026-04-04T11:37:05.999Z</time></trkpt><trkpt lat="45.78524148467538" lon="9.99142238679159"><ele>346.0</ele><time>2026-04-04T11:37:07.999Z</time></trkpt><trkpt lat="45.785298399100206" lon="9.991546674037808"><ele>345.0</ele><time>2026-04-04T11:37:09.999Z</time></trkpt><trkpt lat="45.78535620202441" lon="9.99169230841241"><ele>344.0</ele><time>2026-04-04T11:37:11.999Z</time></trkpt><trkpt lat="45.78541064489952" lon="9.991847205100106"><ele>344.0</ele><time>2026-04-04T11:37:13.999Z</time></trkpt><trkpt lat="45.78546908292109" lon="9.991993784015554"><ele>344.0</ele><time>2026-04-04T11:37:15.999Z</time></trkpt><trkpt lat="45.78552756846907" lon="9.992148682709379"><ele>344.0</ele><time>2026-04-04T11:37:17.999Z</time></trkpt><trkpt lat="45.78557380223357" lon="9.992308607765757"><ele>344.0</ele><time>2026-04-04T11:37:19.998Z</time></trkpt><trkpt lat="45.78561670235431" lon="9.992466106347438"><ele>344.75</ele><time>2026-04-04T11:37:21.998Z</time></trkpt><trkpt lat="45.78565554755199" lon="9.992625739592878"><ele>345.5</ele><time>2026-04-04T11:37:23.998Z</time></trkpt><trkpt lat="45.785720785692114" lon="9.99277013741774"><ele>346.25</ele><time>2026-04-04T11:37:25.998Z</time></trkpt><trkpt lat="45.78579922116931" lon="9.9928980618107"><ele>347.0</ele><time>2026-04-04T11:37:27.998Z</time></trkpt><trkpt lat="45.78587039244431" lon="9.99303372502836"><ele>347.0</ele><time>2026-04-04T11:37:29.998Z</time></trkpt><trkpt lat="45.785954403493996" lon="9.99315702158494"><ele>347.0</ele><time>2026-04-04T11:37:31.998Z</time></trkpt><trkpt lat="45.78604013091718" lon="9.99328517569313"><ele>347.0</ele><time>2026-04-04T11:37:33.998Z</time></trkpt><trkpt lat="45.786117083291835" lon="9.993418954091304"><ele>347.0</ele><time>2026-04-04T11:37:35.998Z</time></trkpt><trkpt lat="45.78616641027649" lon="9.993576615154018"><ele>346.8</ele><time>2026-04-04T11:37:37.998Z</time></trkpt><trkpt lat="45.786199740684204" lon="9.993733428585193"><ele>346.6</ele><time>2026-04-04T11:37:39.998Z</time></trkpt><trkpt lat="45.78622661523063" lon="9.993892004582584"><ele>346.40000000000003</ele><time>2026-04-04T11:37:41.998Z</time></trkpt><trkpt lat="45.786259134986025" lon="9.994042356150617"><ele>346.20000000000005</ele><time>2026-04-04T11:37:43.998Z</time></trkpt><trkpt lat="45.78629938366773" lon="9.99418168941898"><ele>346.0</ele><time>2026-04-04T11:37:45.998Z</time></trkpt><trkpt lat="45.786345079036984" lon="9.99433697164068"><ele>346.0</ele><time>2026-04-04T11:37:47.998Z</time></trkpt><trkpt lat="45.7863789064172" lon="9.99450380235651"><ele>346.0</ele><time>2026-04-04T11:37:49.998Z</time></trkpt><trkpt lat="45.786410707245864" lon="9.994673218490886"><ele>346.0</ele><time>2026-04-04T11:37:51.998Z</time></trkpt><trkpt lat="45.78643552729291" lon="9.994836665699543"><ele>346.0</ele><time>2026-04-04T11:37:53.998Z</time></trkpt><trkpt lat="45.78645474029285" lon="9.994922883136711"><ele>346.0</ele><time>2026-04-04T11:37:54.998Z</time></trkpt><trkpt lat="45.78648412807105" lon="9.995095448727275"><ele>346.1428571428571</ele><time>2026-04-04T11:37:56.998Z</time></trkpt><trkpt lat="45.786499262123236" lon="9.995184543869161"><ele>346.28571428571433</ele><time>2026-04-04T11:37:57.998Z</time></trkpt><trkpt lat="45.786509000612476" lon="9.9952801696493"><ele>346.42857142857144</ele><time>2026-04-04T11:37:58.998Z</time></trkpt><trkpt lat="45.78650508730328" lon="9.99538054535713"><ele>346.57142857142856</ele><time>2026-04-04T11:37:59.998Z</time></trkpt><trkpt lat="45.786491523300036" lon="9.995477258778658"><ele>346.71428571428567</ele><time>2026-04-04T11:38:00.998Z</time></trkpt><trkpt lat="45.78648201902597" lon="9.995573314055557"><ele>346.8571428571429</ele><time>2026-04-04T11:38:01.998Z</time></trkpt><trkpt lat="45.78648078287025" lon="9.995668692995638"><ele>347.0</ele><time>2026-04-04T11:38:02.998Z</time></trkpt><trkpt lat="45.786481828461476" lon="9.995762661944639"><ele>347.0</ele><time>2026-04-04T11:38:03.998Z</time></trkpt><trkpt lat="45.786478364451746" lon="9.995853530770486"><ele>347.0</ele><time>2026-04-04T11:38:05Z</time></trkpt><trkpt lat="45.786474991740995" lon="9.995944272673755"><ele>347.0</ele><time>2026-04-04T11:38:06Z</time></trkpt><trkpt lat="45.786475836549506" lon="9.996037164395636"><ele>347.0</ele><time>2026-04-04T11:38:07Z</time></trkpt><trkpt lat="45.786475480828706" lon="9.996129884488225"><ele>347.0</ele><time>2026-04-04T11:38:08Z</time></trkpt><trkpt lat="45.78648282835523" lon="9.996221775448447"><ele>347.0</ele><time>2026-04-04T11:38:09Z</time></trkpt><trkpt lat="45.78648125428147" lon="9.996313001041672"><ele>347.0</ele><time>2026-04-04T11:38:10Z</time></trkpt><trkpt lat="45.78648014590928" lon="9.996409884106235"><ele>347.0</ele><time>2026-04-04T11:38:11Z</time></trkpt><trkpt lat="45.786477922384904" lon="9.996591842415892"><ele>347.0</ele><time>2026-04-04T11:38:13Z</time></trkpt><trkpt lat="45.78647705539869" lon="9.996772633760378"><ele>347.0</ele><time>2026-04-04T11:38:15Z</time></trkpt><trkpt lat="45.78647787910324" lon="9.996865723823019"><ele>347.0</ele><time>2026-04-04T11:38:16Z</time></trkpt><trkpt lat="45.78647544632868" lon="9.99696281192309"><ele>347.0</ele><time>2026-04-04T11:38:17Z</time></trkpt><trkpt lat="45.78646901014295" lon="9.997062517680487"><ele>346.8571428571429</ele><time>2026-04-04T11:38:18Z</time></trkpt><trkpt lat="45.786471967641546" lon="9.997161197389055"><ele>346.71428571428567</ele><time>2026-04-04T11:38:19Z</time></trkpt><trkpt lat="45.786466202680295" lon="9.99726275001309"><ele>346.57142857142856</ele><time>2026-04-04T11:38:20Z</time></trkpt><trkpt lat="45.786469142673575" lon="9.997362038393463"><ele>346.42857142857144</ele><time>2026-04-04T11:38:21Z</time></trkpt><trkpt lat="45.78646909769827" lon="9.997462542648478"><ele>346.28571428571433</ele><time>2026-04-04T11:38:22Z</time></trkpt><trkpt lat="45.78646730799075" lon="9.9975623264684"><ele>346.1428571428571</ele><time>2026-04-04T11:38:23Z</time></trkpt><trkpt lat="45.786474610837466" lon="9.997662898380325"><ele>346.0</ele><time>2026-04-04T11:38:24Z</time></trkpt><trkpt lat="45.78648193220422" lon="9.997763007849066"><ele>345.85714285714283</ele><time>2026-04-04T11:38:25Z</time></trkpt><trkpt lat="45.78649619622438" lon="9.99786449590357"><ele>345.7142857142857</ele><time>2026-04-04T11:38:26Z</time></trkpt><trkpt lat="45.78651187665854" lon="9.997966705964135"><ele>345.57142857142856</ele><time>2026-04-04T11:38:26.999Z</time></trkpt><trkpt lat="45.78652674127567" lon="9.998061359154862"><ele>345.42857142857144</ele><time>2026-04-04T11:38:27.999Z</time></trkpt><trkpt lat="45.78654668621262" lon="9.998154913605916"><ele>345.2857142857143</ele><time>2026-04-04T11:38:28.999Z</time></trkpt><trkpt lat="45.78655994593074" lon="9.998248303861644"><ele>345.14285714285717</ele><time>2026-04-04T11:38:29.999Z</time></trkpt><trkpt lat="45.78658078941857" lon="9.998339913256165"><ele>345.0</ele><time>2026-04-04T11:38:30.999Z</time></trkpt><trkpt lat="45.78659715104335" lon="9.998429057457637"><ele>345.2857142857143</ele><time>2026-04-04T11:38:31.999Z</time></trkpt><trkpt lat="45.78661093937311" lon="9.99852605814334"><ele>345.57142857142856</ele><time>2026-04-04T11:38:32.999Z</time></trkpt><trkpt lat="45.78662626907912" lon="9.998620750640153"><ele>345.8571428571429</ele><time>2026-04-04T11:38:33.999Z</time></trkpt><trkpt lat="45.786648464418214" lon="9.998714378384596"><ele>346.1428571428571</ele><time>2026-04-04T11:38:34.999Z</time></trkpt><trkpt lat="45.78666940872706" lon="9.998808464359675"><ele>346.4285714285714</ele><time>2026-04-04T11:38:35.999Z</time></trkpt><trkpt lat="45.78668345733891" lon="9.998904553603507"><ele>346.7142857142857</ele><time>2026-04-04T11:38:36.999Z</time></trkpt><trkpt lat="45.78669833299406" lon="9.999001296435104"><ele>347.0</ele><time>2026-04-04T11:38:37.999Z</time></trkpt><trkpt lat="45.78671128819288" lon="9.99909697023013"><ele>347.0</ele><time>2026-04-04T11:38:38.999Z</time></trkpt><trkpt lat="45.786727118585894" lon="9.99918984545147"><ele>347.0</ele><time>2026-04-04T11:38:39.999Z</time></trkpt><trkpt lat="45.786744069904564" lon="9.999280804237458"><ele>347.0</ele><time>2026-04-04T11:38:40.999Z</time></trkpt><trkpt lat="45.78675476323135" lon="9.999377331754653"><ele>347.0</ele><time>2026-04-04T11:38:41.999Z</time></trkpt><trkpt lat="45.78676791082079" lon="9.999467378147644"><ele>347.0</ele><time>2026-04-04T11:38:42.999Z</time></trkpt><trkpt lat="45.78677932939038" lon="9.999559564341574"><ele>347.0</ele><time>2026-04-04T11:38:43.999Z</time></trkpt><trkpt lat="45.7867928039599" lon="9.999653459665696"><ele>347.0</ele><time>2026-04-04T11:38:44.999Z</time></trkpt><trkpt lat="45.78680809184736" lon="9.999745463655428"><ele>347.0</ele><time>2026-04-04T11:38:45.999Z</time></trkpt><trkpt lat="45.786830866940946" lon="9.999922480518096"><ele>347.0</ele><time>2026-04-04T11:38:47.999Z</time></trkpt><trkpt lat="45.786862206436886" lon="10.000077764528111"><ele>347.0</ele><time>2026-04-04T11:38:49.999Z</time></trkpt><trkpt lat="45.786962762201085" lon="10.000168764439588"><ele>347.0</ele><time>2026-04-04T11:38:51.999Z</time></trkpt><trkpt lat="45.78705648310615" lon="10.00021180392698"><ele>347.0</ele><time>2026-04-04T11:38:53.999Z</time></trkpt><trkpt lat="45.78711657327796" lon="10.000260478295509"><ele>347.0</ele><time>2026-04-04T11:38:59.999Z</time></trkpt><trkpt lat="45.7870664996434" lon="10.000381128308655"><ele>347.0</ele><time>2026-04-04T11:39:03.999Z</time></trkpt><trkpt lat="45.787026351359515" lon="10.000486296454765"><ele>347.0</ele><time>2026-04-04T11:39:06.999Z</time></trkpt><trkpt lat="45.78699705136335" lon="10.000580816436223"><ele>347.0</ele><time>2026-04-04T11:39:08.999Z</time></trkpt><trkpt lat="45.78696575164382" lon="10.00068541450463"><ele>347.0</ele><time>2026-04-04T11:39:10.999Z</time></trkpt><trkpt lat="45.786938941445975" lon="10.000805631726692"><ele>347.20000000000005</ele><time>2026-04-04T11:39:12.999Z</time></trkpt><trkpt lat="45.78690968605147" lon="10.000941171690744"><ele>347.4</ele><time>2026-04-04T11:39:14.999Z</time></trkpt><trkpt lat="45.78689079445633" lon="10.001079072168409"><ele>347.6</ele><time>2026-04-04T11:39:16.999Z</time></trkpt><trkpt lat="45.786873705183055" lon="10.001228573606332"><ele>347.79999999999995</ele><time>2026-04-04T11:39:18.999Z</time></trkpt><trkpt lat="45.78685971477183" lon="10.001376934847233"><ele>348.0</ele><time>2026-04-04T11:39:20.999Z</time></trkpt><trkpt lat="45.7868479527564" lon="10.001525318234416"><ele>347.59999999999997</ele><time>2026-04-04T11:39:22.999Z</time></trkpt><trkpt lat="45.78682893064359" lon="10.001682494525381"><ele>347.2</ele><time>2026-04-04T11:39:24.999Z</time></trkpt><trkpt lat="45.78679209220515" lon="10.00183578235795"><ele>346.8</ele><time>2026-04-04T11:39:26.999Z</time></trkpt><trkpt lat="45.78677520299543" lon="10.001996202164518"><ele>346.4</ele><time>2026-04-04T11:39:28.998Z</time></trkpt><trkpt lat="45.786760863626526" lon="10.00214369903731"><ele>346.0</ele><time>2026-04-04T11:39:30.998Z</time></trkpt><trkpt lat="45.78674469919494" lon="10.002287956515072"><ele>346.0</ele><time>2026-04-04T11:39:32.998Z</time></trkpt><trkpt lat="45.78673194204314" lon="10.002434511442402"><ele>346.0</ele><time>2026-04-04T11:39:34.998Z</time></trkpt><trkpt lat="45.78672401100339" lon="10.002588651004226"><ele>346.0</ele><time>2026-04-04T11:39:36.998Z</time></trkpt><trkpt lat="45.78672380028801" lon="10.002737933927062"><ele>346.0</ele><time>2026-04-04T11:39:38.998Z</time></trkpt><trkpt lat="45.786725573942434" lon="10.002887190958797"><ele>346.0</ele><time>2026-04-04T11:39:40.998Z</time></trkpt><trkpt lat="45.786737070163724" lon="10.003031007506477"><ele>346.0</ele><time>2026-04-04T11:39:42.998Z</time></trkpt><trkpt lat="45.786749212771916" lon="10.003168588721955"><ele>346.0</ele><time>2026-04-04T11:39:44.998Z</time></trkpt><trkpt lat="45.78676833351888" lon="10.003298958669012"><ele>346.0</ele><time>2026-04-04T11:39:46.998Z</time></trkpt><trkpt lat="45.78678278524688" lon="10.00342807689682"><ele>346.0</ele><time>2026-04-04T11:39:48.998Z</time></trkpt><trkpt lat="45.7867937036517" lon="10.003543710951275"><ele>346.0</ele><time>2026-04-04T11:39:50.998Z</time></trkpt><trkpt lat="45.78679250382187" lon="10.003645463369738"><ele>346.0</ele><time>2026-04-04T11:39:52.998Z</time></trkpt><trkpt lat="45.78678975326641" lon="10.003765721437592"><ele>346.0</ele><time>2026-04-04T11:39:55.998Z</time></trkpt><trkpt lat="45.786796991419315" lon="10.003860411330372"><ele>346.0</ele><time>2026-04-04T11:39:57.998Z</time></trkpt><trkpt lat="45.78679175008517" lon="10.003979937806838"><ele>346.0</ele><time>2026-04-04T11:39:59.998Z</time></trkpt><trkpt lat="45.7867928878131" lon="10.00411081469988"><ele>346.0</ele><time>2026-04-04T11:40:01.998Z</time></trkpt><trkpt lat="45.78678682108704" lon="10.004253031720925"><ele>346.0</ele><time>2026-04-04T11:40:03.998Z</time></trkpt><trkpt lat="45.78678395586061" lon="10.004398168310336"><ele>346.0</ele><time>2026-04-04T11:40:05.998Z</time></trkpt><trkpt lat="45.78677496619558" lon="10.004545370807255"><ele>346.8</ele><time>2026-04-04T11:40:07.998Z</time></trkpt><trkpt lat="45.786775251333395" lon="10.004744991919766"><ele>347.6</ele><time>2026-04-04T11:40:11Z</time></trkpt><trkpt lat="45.786767950886194" lon="10.004884249800794"><ele>348.4</ele><time>2026-04-04T11:40:13Z</time></trkpt><trkpt lat="45.78676778832794" lon="10.004975776085754"><ele>349.2</ele><time>2026-04-04T11:40:14Z</time></trkpt><trkpt lat="45.78677079887122" lon="10.005073819583423"><ele>350.0</ele><time>2026-04-04T11:40:17Z</time></trkpt><trkpt lat="45.78674072994285" lon="10.005266548532841"><ele>350.8</ele><time>2026-04-04T11:40:18Z</time></trkpt><trkpt lat="45.786739003826604" lon="10.005427402074796"><ele>351.6</ele><time>2026-04-04T11:40:20Z</time></trkpt><trkpt lat="45.78674550049956" lon="10.005582233916186"><ele>352.4</ele><time>2026-04-04T11:40:22Z</time></trkpt><trkpt lat="45.78675580486384" lon="10.005738343220376"><ele>353.2</ele><time>2026-04-04T11:40:24Z</time></trkpt><trkpt lat="45.786766426798785" lon="10.005896614425165"><ele>354.0</ele><time>2026-04-04T11:40:26Z</time></trkpt><trkpt lat="45.78678232392213" lon="10.006053094547969"><ele>355.2</ele><time>2026-04-04T11:40:28Z</time></trkpt><trkpt lat="45.78679533954303" lon="10.006202459376915"><ele>356.4</ele><time>2026-04-04T11:40:30Z</time></trkpt><trkpt lat="45.786820335147375" lon="10.006348650201465"><ele>357.6</ele><time>2026-04-04T11:40:32Z</time></trkpt><trkpt lat="45.78685565786191" lon="10.006494010815015"><ele>358.8</ele><time>2026-04-04T11:40:34Z</time></trkpt><trkpt lat="45.78689376985762" lon="10.006638063219523"><ele>360.0</ele><time>2026-04-04T11:40:36Z</time></trkpt><trkpt lat="45.78692210509103" lon="10.006724324562754"><ele>356.5</ele><time>2026-04-04T11:40:37Z</time></trkpt><trkpt lat="45.78696479585567" lon="10.006883702584963"><ele>353.0</ele><time>2026-04-04T11:40:38.999Z</time></trkpt><trkpt lat="45.78700741691884" lon="10.007010648538987"><ele>349.5</ele><time>2026-04-04T11:40:40.999Z</time></trkpt><trkpt lat="45.78705106593294" lon="10.007168080171065"><ele>346.0</ele><time>2026-04-04T11:40:42.999Z</time></trkpt><trkpt lat="45.78709313387832" lon="10.007324017125264"><ele>346.0</ele><time>2026-04-04T11:40:44.999Z</time></trkpt><trkpt lat="45.78713765830965" lon="10.007489937639148"><ele>346.0</ele><time>2026-04-04T11:40:46.999Z</time></trkpt><trkpt lat="45.78718101959568" lon="10.007645099326757"><ele>346.0</ele><time>2026-04-04T11:40:48.999Z</time></trkpt><trkpt lat="45.78722982089784" lon="10.007795600665444"><ele>346.0</ele><time>2026-04-04T11:40:50.999Z</time></trkpt><trkpt lat="45.78727653803714" lon="10.007955487750678"><ele>346.6</ele><time>2026-04-04T11:40:52.999Z</time></trkpt><trkpt lat="45.787319066472854" lon="10.008124160772155"><ele>347.20000000000005</ele><time>2026-04-04T11:40:54.999Z</time></trkpt><trkpt lat="45.78734092587409" lon="10.008211234902305"><ele>347.79999999999995</ele><time>2026-04-04T11:40:55.999Z</time></trkpt><trkpt lat="45.78738526434194" lon="10.008364442548322"><ele>348.4</ele><time>2026-04-04T11:40:57.999Z</time></trkpt><trkpt lat="45.78742645413498" lon="10.008526616630048"><ele>349.0</ele><time>2026-04-04T11:40:59.999Z</time></trkpt><trkpt lat="45.78744864174656" lon="10.008612668321378"><ele>349.4</ele><time>2026-04-04T11:41:00.999Z</time></trkpt><trkpt lat="45.787494906986026" lon="10.008771502694206"><ele>349.79999999999995</ele><time>2026-04-04T11:41:02.999Z</time></trkpt><trkpt lat="45.78751954212" lon="10.008864950709452"><ele>350.20000000000005</ele><time>2026-04-04T11:41:03.999Z</time></trkpt><trkpt lat="45.78756597771993" lon="10.00902174528775"><ele>350.6</ele><time>2026-04-04T11:41:05.999Z</time></trkpt><trkpt lat="45.787589662376796" lon="10.009108666291274"><ele>351.0</ele><time>2026-04-04T11:41:06.999Z</time></trkpt><trkpt lat="45.787632838390024" lon="10.009273191995192"><ele>351.20000000000005</ele><time>2026-04-04T11:41:08.999Z</time></trkpt><trkpt lat="45.78765798890869" lon="10.00936292308989"><ele>351.40000000000003</ele><time>2026-04-04T11:41:09.999Z</time></trkpt><trkpt lat="45.78770274741815" lon="10.009521256364081"><ele>351.6</ele><time>2026-04-04T11:41:11.999Z</time></trkpt><trkpt lat="45.787747544221425" lon="10.009683666331846"><ele>351.8</ele><time>2026-04-04T11:41:13.999Z</time></trkpt><trkpt lat="45.78778619510008" lon="10.009829716840898"><ele>352.0</ele><time>2026-04-04T11:41:15.999Z</time></trkpt><trkpt lat="45.787821058715274" lon="10.009954761606844"><ele>352.14285714285717</ele><time>2026-04-04T11:41:17.999Z</time></trkpt><trkpt lat="45.7878485942615" lon="10.010062347198883"><ele>352.2857142857143</ele><time>2026-04-04T11:41:19.999Z</time></trkpt><trkpt lat="45.78787535252438" lon="10.010171982397097"><ele>352.42857142857144</ele><time>2026-04-04T11:41:21.999Z</time></trkpt><trkpt lat="45.78790502628894" lon="10.010269096183311"><ele>352.57142857142856</ele><time>2026-04-04T11:41:23.999Z</time></trkpt><trkpt lat="45.787927802913444" lon="10.010364986436715"><ele>352.7142857142857</ele><time>2026-04-04T11:41:25.999Z</time></trkpt><trkpt lat="45.78795007090607" lon="10.010456132952758"><ele>352.85714285714283</ele><time>2026-04-04T11:41:27.999Z</time></trkpt><trkpt lat="45.787977810931935" lon="10.010550207650715"><ele>353.0</ele><time>2026-04-04T11:41:29.999Z</time></trkpt><trkpt lat="45.788003091481535" lon="10.010639600064556"><ele>353.0</ele><time>2026-04-04T11:41:31.999Z</time></trkpt><trkpt lat="45.78803931834985" lon="10.010766601385674"><ele>353.0</ele><time>2026-04-04T11:41:34.999Z</time></trkpt><trkpt lat="45.788063769487266" lon="10.010855418901336"><ele>353.0</ele><time>2026-04-04T11:41:36.999Z</time></trkpt><trkpt lat="45.78810811233455" lon="10.0109705972623"><ele>353.0</ele><time>2026-04-04T11:41:39.998Z</time></trkpt><trkpt lat="45.78813999604931" lon="10.011048929489448"><ele>353.0</ele><time>2026-04-04T11:41:41.998Z</time></trkpt><trkpt lat="45.78817774176833" lon="10.011123426737914"><ele>353.0</ele><time>2026-04-04T11:41:43.998Z</time></trkpt><trkpt lat="45.788257068296474" lon="10.011213852092418"><ele>354.2857142857143</ele><time>2026-04-04T11:41:46.998Z</time></trkpt><trkpt lat="45.788323666164516" lon="10.011295662520887"><ele>355.5714285714286</ele><time>2026-04-04T11:41:49.998Z</time></trkpt><trkpt lat="45.78837917765916" lon="10.01134839176761"><ele>356.8571428571429</ele><time>2026-04-04T11:41:51.998Z</time></trkpt><trkpt lat="45.78842994116617" lon="10.011420701650467"><ele>358.1428571428571</ele><time>2026-04-04T11:41:53.998Z</time></trkpt><trkpt lat="45.788465876581384" lon="10.01150292860054"><ele>359.42857142857144</ele><time>2026-04-04T11:41:55.998Z</time></trkpt><trkpt lat="45.788469393622414" lon="10.011597644977433"><ele>360.7142857142857</ele><time>2026-04-04T11:41:57.998Z</time></trkpt><trkpt lat="45.788439270486734" lon="10.011682195065163"><ele>362.0</ele><time>2026-04-04T11:41:59.998Z</time></trkpt><trkpt lat="45.788385556809246" lon="10.011740797160286"><ele>362.0</ele><time>2026-04-04T11:42:01.998Z</time></trkpt><trkpt lat="45.788321517441965" lon="10.011745135756795"><ele>362.0</ele><time>2026-04-04T11:42:03.998Z</time></trkpt><trkpt lat="45.788228999640005" lon="10.01171550568197"><ele>362.0</ele><time>2026-04-04T11:42:06.998Z</time></trkpt><trkpt lat="45.788170299708305" lon="10.011675166030566"><ele>362.0</ele><time>2026-04-04T11:42:08.998Z</time></trkpt><trkpt lat="45.788094506366654" lon="10.011607341494182"><ele>362.0</ele><time>2026-04-04T11:42:11.998Z</time></trkpt><trkpt lat="45.7880214148979" lon="10.01155820769859"><ele>362.0</ele><time>2026-04-04T11:42:14.998Z</time></trkpt><trkpt lat="45.78793675270088" lon="10.011514023359503"><ele>362.0</ele><time>2026-04-04T11:42:18Z</time></trkpt><trkpt lat="45.78785495684076" lon="10.011478706770514"><ele>362.0</ele><time>2026-04-04T11:42:21Z</time></trkpt><trkpt lat="45.787769159830596" lon="10.011442857225093"><ele>362.0</ele><time>2026-04-04T11:42:24Z</time></trkpt><trkpt lat="45.7876889106386" lon="10.01140446671001"><ele>362.0</ele><time>2026-04-04T11:42:27Z</time></trkpt><trkpt lat="45.787602622985474" lon="10.011366678140925"><ele>362.0</ele><time>2026-04-04T11:42:30Z</time></trkpt><trkpt lat="45.78752003795341" lon="10.011323809452932"><ele>362.0</ele><time>2026-04-04T11:42:33Z</time></trkpt><trkpt lat="45.78744009794926" lon="10.011275566555488"><ele>363.1666666666667</ele><time>2026-04-04T11:42:36Z</time></trkpt><trkpt lat="45.78736429364886" lon="10.01122044393162"><ele>364.33333333333337</ele><time>2026-04-04T11:42:39Z</time></trkpt><trkpt lat="45.78729068574633" lon="10.011162217041127"><ele>365.5</ele><time>2026-04-04T11:42:42Z</time></trkpt><trkpt lat="45.787214050606394" lon="10.01110355221166"><ele>366.6666666666667</ele><time>2026-04-04T11:42:45Z</time></trkpt><trkpt lat="45.78714095296555" lon="10.011036040813986"><ele>367.8333333333333</ele><time>2026-04-04T11:42:47.999Z</time></trkpt><trkpt lat="45.7870676589961" lon="10.010963109076549"><ele>369.0</ele><time>2026-04-04T11:42:50.999Z</time></trkpt><trkpt lat="45.786996900975495" lon="10.010895375946847"><ele>369.0</ele><time>2026-04-04T11:42:53.999Z</time></trkpt><trkpt lat="45.78693712251762" lon="10.010829033369417"><ele>369.0</ele><time>2026-04-04T11:42:56.999Z</time></trkpt><trkpt lat="45.78686860013524" lon="10.010757643958181"><ele>369.0</ele><time>2026-04-04T11:42:59.999Z</time></trkpt><trkpt lat="45.78679752145233" lon="10.010678830567244"><ele>369.0</ele><time>2026-04-04T11:43:02.999Z</time></trkpt><trkpt lat="45.786725077573465" lon="10.010610859110855"><ele>369.0</ele><time>2026-04-04T11:43:05.999Z</time></trkpt><trkpt lat="45.78664712223303" lon="10.010568243076708"><ele>369.0</ele><time>2026-04-04T11:43:08.999Z</time></trkpt><trkpt lat="45.78656851161835" lon="10.010532794056598"><ele>370.1666666666667</ele><time>2026-04-04T11:43:11.999Z</time></trkpt><trkpt lat="45.78648205480884" lon="10.01052504684772"><ele>371.3333333333333</ele><time>2026-04-04T11:43:14.999Z</time></trkpt><trkpt lat="45.78639185297304" lon="10.010534292202623"><ele>372.5</ele><time>2026-04-04T11:43:17.999Z</time></trkpt><trkpt lat="45.78630496061691" lon="10.010554645458098"><ele>373.66666666666663</ele><time>2026-04-04T11:43:20.999Z</time></trkpt><trkpt lat="45.78622521631537" lon="10.01059684230196"><ele>374.8333333333333</ele><time>2026-04-04T11:43:23.999Z</time></trkpt><trkpt lat="45.78614144318617" lon="10.010653831183154"><ele>376.0</ele><time>2026-04-04T11:43:26.999Z</time></trkpt><trkpt lat="45.7860854306731" lon="10.010701546130676"><ele>376.0</ele><time>2026-04-04T11:43:28.999Z</time></trkpt><trkpt lat="45.78603850577534" lon="10.010761843356818"><ele>376.0</ele><time>2026-04-04T11:43:30.999Z</time></trkpt><trkpt lat="45.78597546179841" lon="10.010860120266585"><ele>376.0</ele><time>2026-04-04T11:43:33.999Z</time></trkpt><trkpt lat="45.78591853227691" lon="10.01095771529339"><ele>376.0</ele><time>2026-04-04T11:43:36.999Z</time></trkpt><trkpt lat="45.785862188200056" lon="10.011061166861069"><ele>376.0</ele><time>2026-04-04T11:43:39.999Z</time></trkpt><trkpt lat="45.78580707196863" lon="10.011156496080988"><ele>376.0</ele><time>2026-04-04T11:43:42.999Z</time></trkpt><trkpt lat="45.78576739559651" lon="10.011230097403416"><ele>378.0</ele><time>2026-04-04T11:43:44.998Z</time></trkpt><trkpt lat="45.78572735437793" lon="10.011308167105181"><ele>380.0</ele><time>2026-04-04T11:43:46.998Z</time></trkpt><trkpt lat="45.7856834892664" lon="10.011391758138071"><ele>382.0</ele><time>2026-04-04T11:43:48.998Z</time></trkpt><trkpt lat="45.78563744444989" lon="10.011485039761064"><ele>384.0</ele><time>2026-04-04T11:43:50.998Z</time></trkpt><trkpt lat="45.78560460392369" lon="10.011593740098148"><ele>386.00000000000006</ele><time>2026-04-04T11:43:52.998Z</time></trkpt><trkpt lat="45.78555926857458" lon="10.011704042644595"><ele>388.0</ele><time>2026-04-04T11:43:54.998Z</time></trkpt><trkpt lat="45.785518635096196" lon="10.011812247848574"><ele>390.00000000000006</ele><time>2026-04-04T11:43:56.998Z</time></trkpt><trkpt lat="45.78548010456652" lon="10.011920855634548"><ele>392.0</ele><time>2026-04-04T11:43:58.999Z</time></trkpt><trkpt lat="45.785428802626186" lon="10.01201845661339"><ele>394.0</ele><time>2026-04-04T11:44:00.999Z</time></trkpt><trkpt lat="45.78537031895114" lon="10.012115377009764"><ele>396.0</ele><time>2026-04-04T11:44:02.999Z</time></trkpt><trkpt lat="45.78531938835975" lon="10.012218876201295"><ele>398.00000000000006</ele><time>2026-04-04T11:44:04.999Z</time></trkpt><trkpt lat="45.78525264789499" lon="10.012311665921132"><ele>400.0</ele><time>2026-04-04T11:44:06.999Z</time></trkpt><trkpt lat="45.785194383479016" lon="10.012404965955986"><ele>400.50000000000006</ele><time>2026-04-04T11:44:08.999Z</time></trkpt><trkpt lat="45.785131809525964" lon="10.012490881146254"><ele>401.0</ele><time>2026-04-04T11:44:10.999Z</time></trkpt><trkpt lat="45.785071070825126" lon="10.012583672264233"><ele>401.5</ele><time>2026-04-04T11:44:12.999Z</time></trkpt><trkpt lat="45.785013313338425" lon="10.012668777782457"><ele>402.0</ele><time>2026-04-04T11:44:14.999Z</time></trkpt><trkpt lat="45.78495048055805" lon="10.012749736373083"><ele>402.50000000000006</ele><time>2026-04-04T11:44:16.999Z</time></trkpt><trkpt lat="45.7848885883585" lon="10.012825696338103"><ele>403.0</ele><time>2026-04-04T11:44:18.999Z</time></trkpt><trkpt lat="45.78483798189054" lon="10.012909817081866"><ele>403.0</ele><time>2026-04-04T11:44:20.999Z</time></trkpt><trkpt lat="45.78479389191462" lon="10.012997614375335"><ele>403.0</ele><time>2026-04-04T11:44:23.001Z</time></trkpt><trkpt lat="45.78476180063962" lon="10.013085806990665"><ele>403.0</ele><time>2026-04-04T11:44:25.001Z</time></trkpt><trkpt lat="45.78473715339765" lon="10.013173692922187"><ele>403.0</ele><time>2026-04-04T11:44:27.001Z</time></trkpt><trkpt lat="45.784714775819324" lon="10.013267201333068"><ele>403.0</ele><time>2026-04-04T11:44:29.001Z</time></trkpt><trkpt lat="45.78469178350828" lon="10.013354060074464"><ele>403.0</ele><time>2026-04-04T11:44:31.001Z</time></trkpt><trkpt lat="45.78466818067025" lon="10.013443726790891"><ele>403.0</ele><time>2026-04-04T11:44:33.001Z</time></trkpt><trkpt lat="45.78464770934075" lon="10.013532925941465"><ele>404.7142857142857</ele><time>2026-04-04T11:44:35.001Z</time></trkpt><trkpt lat="45.784624632585995" lon="10.013631040892367"><ele>406.4285714285714</ele><time>2026-04-04T11:44:37.001Z</time></trkpt><trkpt lat="45.784606601842654" lon="10.013730814422145"><ele>408.1428571428571</ele><time>2026-04-04T11:44:39.001Z</time></trkpt><trkpt lat="45.78458432842117" lon="10.013828112412078"><ele>409.8571428571429</ele><time>2026-04-04T11:44:41.001Z</time></trkpt><trkpt lat="45.78455996508687" lon="10.01392065540771"><ele>411.57142857142856</ele><time>2026-04-04T11:44:43.001Z</time></trkpt><trkpt lat="45.784537004643724" lon="10.014015965980875"><ele>413.2857142857143</ele><time>2026-04-04T11:44:45.001Z</time></trkpt><trkpt lat="45.78451678927265" lon="10.014107987426978"><ele>415.0</ele><time>2026-04-04T11:44:47.001Z</time></trkpt><trkpt lat="45.78448880990157" lon="10.01419687096695"><ele>415.00000000000006</ele><time>2026-04-04T11:44:49Z</time></trkpt><trkpt lat="45.78445605008937" lon="10.014280071217305"><ele>415.0</ele><time>2026-04-04T11:44:51Z</time></trkpt><trkpt lat="45.78439503279032" lon="10.014385155970105"><ele>415.0</ele><time>2026-04-04T11:44:54Z</time></trkpt><trkpt lat="45.78431352125062" lon="10.01444854847468"><ele>415.0</ele><time>2026-04-04T11:44:57Z</time></trkpt><trkpt lat="45.78422694626008" lon="10.014465428390167"><ele>415.00000000000006</ele><time>2026-04-04T11:45:00Z</time></trkpt><trkpt lat="45.78414493330497" lon="10.01445666928"><ele>415.0</ele><time>2026-04-04T11:45:03Z</time></trkpt><trkpt lat="45.78406100693412" lon="10.014436281986436"><ele>415.00000000000006</ele><time>2026-04-04T11:45:06Z</time></trkpt><trkpt lat="45.7839742430217" lon="10.014435534853334"><ele>415.0</ele><time>2026-04-04T11:45:09Z</time></trkpt><trkpt lat="45.78388255640643" lon="10.014473308346492"><ele>415.0</ele><time>2026-04-04T11:45:12Z</time></trkpt><trkpt lat="45.78383039346091" lon="10.014524018623657"><ele>415.0</ele><time>2026-04-04T11:45:14Z</time></trkpt><trkpt lat="45.78378768329665" lon="10.01459227459119"><ele>415.00000000000006</ele><time>2026-04-04T11:45:16Z</time></trkpt><trkpt lat="45.7837338217579" lon="10.014698848973076"><ele>415.0</ele><time>2026-04-04T11:45:19Z</time></trkpt><trkpt lat="45.78370304425105" lon="10.014778640478436"><ele>415.00000000000006</ele><time>2026-04-04T11:45:21Z</time></trkpt><trkpt lat="45.78366249002516" lon="10.014892134042551"><ele>415.0</ele><time>2026-04-04T11:45:24Z</time></trkpt><trkpt lat="45.78363002233852" lon="10.015009646911645"><ele>415.0</ele><time>2026-04-04T11:45:27Z</time></trkpt><trkpt lat="45.783598886993715" lon="10.015126767750893"><ele>415.0</ele><time>2026-04-04T11:45:30Z</time></trkpt><trkpt lat="45.78356742031515" lon="10.015240370827248"><ele>415.00000000000006</ele><time>2026-04-04T11:45:33Z</time></trkpt><trkpt lat="45.78353459142081" lon="10.01535895238451"><ele>415.0</ele><time>2026-04-04T11:45:36Z</time></trkpt><trkpt lat="45.78350916552447" lon="10.015480210550555"><ele>416.83333333333337</ele><time>2026-04-04T11:45:39Z</time></trkpt><trkpt lat="45.7834825669252" lon="10.015604422691958"><ele>418.6666666666667</ele><time>2026-04-04T11:45:42Z</time></trkpt><trkpt lat="45.78344962348329" lon="10.015728066908597"><ele>420.5</ele><time>2026-04-04T11:45:44.999Z</time></trkpt><trkpt lat="45.783423310544066" lon="10.015848110371476"><ele>422.33333333333337</ele><time>2026-04-04T11:45:47.999Z</time></trkpt><trkpt lat="45.783393279483604" lon="10.015966050650807"><ele>424.1666666666667</ele><time>2026-04-04T11:45:50.999Z</time></trkpt><trkpt lat="45.78335053375197" lon="10.016077351161824"><ele>426.0</ele><time>2026-04-04T11:45:53.999Z</time></trkpt><trkpt lat="45.78330207997555" lon="10.016199136969044"><ele>425.99999999999994</ele><time>2026-04-04T11:45:56.999Z</time></trkpt><trkpt lat="45.78326552633793" lon="10.01628078906462"><ele>426.0</ele><time>2026-04-04T11:45:58.999Z</time></trkpt><trkpt lat="45.783229361373884" lon="10.016366548918255"><ele>426.0</ele><time>2026-04-04T11:46:00.999Z</time></trkpt><trkpt lat="45.78319007981755" lon="10.016448344206616"><ele>426.0</ele><time>2026-04-04T11:46:02.999Z</time></trkpt><trkpt lat="45.783152413150106" lon="10.016536235598279"><ele>426.0</ele><time>2026-04-04T11:46:04.999Z</time></trkpt><trkpt lat="45.783119225903164" lon="10.016620987009535"><ele>425.99999999999994</ele><time>2026-04-04T11:46:06.999Z</time></trkpt><trkpt lat="45.783073745735784" lon="10.016703365761433"><ele>426.0</ele><time>2026-04-04T11:46:08.999Z</time></trkpt><trkpt lat="45.78303409643516" lon="10.016787941152279"><ele>427.4285714285714</ele><time>2026-04-04T11:46:10.999Z</time></trkpt><trkpt lat="45.78299211058446" lon="10.016864123777166"><ele>428.85714285714283</ele><time>2026-04-04T11:46:12.999Z</time></trkpt><trkpt lat="45.78294872541413" lon="10.016941307220748"><ele>430.2857142857143</ele><time>2026-04-04T11:46:14.999Z</time></trkpt><trkpt lat="45.78290745244457" lon="10.017025521936825"><ele>431.71428571428567</ele><time>2026-04-04T11:46:16.999Z</time></trkpt><trkpt lat="45.78286139660411" lon="10.017097157121354"><ele>433.14285714285717</ele><time>2026-04-04T11:46:18.999Z</time></trkpt><trkpt lat="45.782817154433" lon="10.017177892833521"><ele>434.57142857142856</ele><time>2026-04-04T11:46:20.999Z</time></trkpt><trkpt lat="45.78276527702154" lon="10.017266434190581"><ele>436.0</ele><time>2026-04-04T11:46:23.999Z</time></trkpt><trkpt lat="45.78269685671548" lon="10.017355155457656"><ele>435.33333333333337</ele><time>2026-04-04T11:46:27.001Z</time></trkpt><trkpt lat="45.782642315698126" lon="10.017420976315714"><ele>434.6666666666667</ele><time>2026-04-04T11:46:29.001Z</time></trkpt><trkpt lat="45.78258501391618" lon="10.017508911605793"><ele>434.0</ele><time>2026-04-04T11:46:31.001Z</time></trkpt><trkpt lat="45.78249502191549" lon="10.01760954977344"><ele>433.33333333333337</ele><time>2026-04-04T11:46:33.001Z</time></trkpt><trkpt lat="45.78244315087983" lon="10.017688634032636"><ele>432.6666666666667</ele><time>2026-04-04T11:46:35.001Z</time></trkpt><trkpt lat="45.7823933297602" lon="10.01776567357834"><ele>432.0</ele><time>2026-04-04T11:46:37.001Z</time></trkpt><trkpt lat="45.782343837053304" lon="10.017847645148706"><ele>432.0</ele><time>2026-04-04T11:46:39.001Z</time></trkpt><trkpt lat="45.78229698989481" lon="10.017931738099128"><ele>432.0</ele><time>2026-04-04T11:46:41.001Z</time></trkpt><trkpt lat="45.782254917954326" lon="10.018020082916074"><ele>432.0</ele><time>2026-04-04T11:46:43.001Z</time></trkpt><trkpt lat="45.78221249600276" lon="10.01810704634484"><ele>432.0</ele><time>2026-04-04T11:46:45.001Z</time></trkpt><trkpt lat="45.78216796688325" lon="10.01819440069945"><ele>432.0</ele><time>2026-04-04T11:46:47.001Z</time></trkpt><trkpt lat="45.78212723606555" lon="10.018289910446228"><ele>432.0</ele><time>2026-04-04T11:46:49Z</time></trkpt><trkpt lat="45.782084504450566" lon="10.018385350447275"><ele>432.1666666666667</ele><time>2026-04-04T11:46:51Z</time></trkpt><trkpt lat="45.78206220580735" lon="10.018490540534334"><ele>432.33333333333337</ele><time>2026-04-04T11:46:53Z</time></trkpt><trkpt lat="45.78201710476575" lon="10.018586753836747"><ele>432.5</ele><time>2026-04-04T11:46:55Z</time></trkpt><trkpt lat="45.78196806169229" lon="10.018684322263807"><ele>432.6666666666667</ele><time>2026-04-04T11:46:57Z</time></trkpt><trkpt lat="45.78192275056977" lon="10.018785269773408"><ele>432.83333333333337</ele><time>2026-04-04T11:46:59Z</time></trkpt><trkpt lat="45.78188439032109" lon="10.018890925716427"><ele>433.0</ele><time>2026-04-04T11:47:01Z</time></trkpt><trkpt lat="45.78184157731602" lon="10.018993968742"><ele>433.00000000000006</ele><time>2026-04-04T11:47:03Z</time></trkpt><trkpt lat="45.78180197142181" lon="10.019098557062403"><ele>433.0</ele><time>2026-04-04T11:47:05Z</time></trkpt><trkpt lat="45.781759363175375" lon="10.019207696768184"><ele>433.0</ele><time>2026-04-04T11:47:07Z</time></trkpt><trkpt lat="45.78172971970457" lon="10.019325749494493"><ele>433.0</ele><time>2026-04-04T11:47:09Z</time></trkpt><trkpt lat="45.781691740723055" lon="10.019438865196225"><ele>433.00000000000006</ele><time>2026-04-04T11:47:11Z</time></trkpt><trkpt lat="45.78165799791971" lon="10.019555986019036"><ele>433.0</ele><time>2026-04-04T11:47:13Z</time></trkpt><trkpt lat="45.78163855980368" lon="10.019665351661441"><ele>433.50000000000006</ele><time>2026-04-04T11:47:15Z</time></trkpt><trkpt lat="45.78161167716855" lon="10.019784758893492"><ele>434.0</ele><time>2026-04-04T11:47:17Z</time></trkpt><trkpt lat="45.78158713525868" lon="10.019896803779483"><ele>434.5</ele><time>2026-04-04T11:47:19Z</time></trkpt><trkpt lat="45.78156436501344" lon="10.020007315148625"><ele>435.0</ele><time>2026-04-04T11:47:21Z</time></trkpt><trkpt lat="45.78154672582427" lon="10.020122485617476"><ele>435.50000000000006</ele><time>2026-04-04T11:47:23Z</time></trkpt><trkpt lat="45.78152644529996" lon="10.020233353850001"><ele>436.0</ele><time>2026-04-04T11:47:25Z</time></trkpt><trkpt lat="45.78150429985928" lon="10.02034258327761"><ele>436.6666666666667</ele><time>2026-04-04T11:47:27Z</time></trkpt><trkpt lat="45.78148160967541" lon="10.02046108773216"><ele>437.33333333333337</ele><time>2026-04-04T11:47:29Z</time></trkpt><trkpt lat="45.78146479417903" lon="10.020577272449092"><ele>438.0</ele><time>2026-04-04T11:47:31Z</time></trkpt><trkpt lat="45.78145476166729" lon="10.02068146010403"><ele>438.66666666666663</ele><time>2026-04-04T11:47:33Z</time></trkpt><trkpt lat="45.78144062143738" lon="10.020788483678698"><ele>439.3333333333333</ele><time>2026-04-04T11:47:35Z</time></trkpt><trkpt lat="45.78144408342789" lon="10.020936421093367"><ele>440.0</ele><time>2026-04-04T11:47:38Z</time></trkpt><trkpt lat="45.781449941012234" lon="10.021033540338951"><ele>440.71428571428567</ele><time>2026-04-04T11:47:40Z</time></trkpt><trkpt lat="45.78145391606991" lon="10.021151962959397"><ele>441.42857142857144</ele><time>2026-04-04T11:47:42.999Z</time></trkpt><trkpt lat="45.78145709611871" lon="10.021249067729173"><ele>442.1428571428571</ele><time>2026-04-04T11:47:44.999Z</time></trkpt><trkpt lat="45.78145271531555" lon="10.021345305122212"><ele>442.85714285714283</ele><time>2026-04-04T11:47:46.999Z</time></trkpt><trkpt lat="45.78146108091697" lon="10.02144254825894"><ele>443.57142857142856</ele><time>2026-04-04T11:47:48.999Z</time></trkpt><trkpt lat="45.7814633612241" lon="10.021536459359297"><ele>444.2857142857143</ele><time>2026-04-04T11:47:50.999Z</time></trkpt><trkpt lat="45.78147384451939" lon="10.02162932387072"><ele>445.0</ele><time>2026-04-04T11:47:52.999Z</time></trkpt><trkpt lat="45.78148214047028" lon="10.021725256232479"><ele>445.42857142857144</ele><time>2026-04-04T11:47:54.999Z</time></trkpt><trkpt lat="45.78149295554726" lon="10.021819268532749"><ele>445.85714285714283</ele><time>2026-04-04T11:47:56.999Z</time></trkpt><trkpt lat="45.781512231899974" lon="10.021909887521321"><ele>446.2857142857143</ele><time>2026-04-04T11:47:58.999Z</time></trkpt><trkpt lat="45.78153790021276" lon="10.02199919866259"><ele>446.7142857142857</ele><time>2026-04-04T11:48:00.999Z</time></trkpt><trkpt lat="45.78156868198635" lon="10.022084775920227"><ele>447.1428571428571</ele><time>2026-04-04T11:48:02.999Z</time></trkpt><trkpt lat="45.7816051934416" lon="10.022210627177172"><ele>447.57142857142856</ele><time>2026-04-04T11:48:05.999Z</time></trkpt><trkpt lat="45.78163366397254" lon="10.022325980339904"><ele>448.0</ele><time>2026-04-04T11:48:08.999Z</time></trkpt><trkpt lat="45.78167350423204" lon="10.022424442797995"><ele>448.0</ele><time>2026-04-04T11:48:11.999Z</time></trkpt><trkpt lat="45.781711157194145" lon="10.02252204447051"><ele>448.0</ele><time>2026-04-04T11:48:14.999Z</time></trkpt><trkpt lat="45.78174265449625" lon="10.022618341277076"><ele>448.0</ele><time>2026-04-04T11:48:17.999Z</time></trkpt><trkpt lat="45.78176955336805" lon="10.022710073324838"><ele>448.0</ele><time>2026-04-04T11:48:21.999Z</time></trkpt><trkpt lat="45.78168513688393" lon="10.02273777342533"><ele>448.0</ele><time>2026-04-04T11:49:03Z</time></trkpt><trkpt lat="45.781757551307265" lon="10.022770203817112"><ele>448.0</ele><time>2026-04-04T12:15:02.999Z</time></trkpt><trkpt lat="45.78181955284689" lon="10.022796464144669"><ele>448.0</ele><time>2026-04-04T12:15:05.999Z</time></trkpt><trkpt lat="45.78186893917663" lon="10.022926370935295"><ele>449.79999999999995</ele><time>2026-04-04T12:15:08.999Z</time></trkpt><trkpt lat="45.78190306177871" lon="10.02303010399096"><ele>451.59999999999997</ele><time>2026-04-04T12:15:10.999Z</time></trkpt><trkpt lat="45.781942962686635" lon="10.023151509690448"><ele>453.40000000000003</ele><time>2026-04-04T12:15:12.999Z</time></trkpt><trkpt lat="45.781975326430945" lon="10.023296533925008"><ele>455.20000000000005</ele><time>2026-04-04T12:15:14.999Z</time></trkpt><trkpt lat="45.78200144551223" lon="10.023462021763091"><ele>457.0</ele><time>2026-04-04T12:15:16.999Z</time></trkpt><trkpt lat="45.78200887375117" lon="10.02355415092075"><ele>457.00000000000006</ele><time>2026-04-04T12:15:17.999Z</time></trkpt><trkpt lat="45.78201372336286" lon="10.02365340498987"><ele>457.0</ele><time>2026-04-04T12:15:18.999Z</time></trkpt><trkpt lat="45.78201245577996" lon="10.02375772064507"><ele>457.0</ele><time>2026-04-04T12:15:19.999Z</time></trkpt><trkpt lat="45.78200842184871" lon="10.023867137361046"><ele>457.0</ele><time>2026-04-04T12:15:20.999Z</time></trkpt><trkpt lat="45.781997506973504" lon="10.023978173255312"><ele>457.00000000000006</ele><time>2026-04-04T12:15:21.999Z</time></trkpt><trkpt lat="45.781983588546076" lon="10.02409263187427"><ele>457.0</ele><time>2026-04-04T12:15:22.999Z</time></trkpt><trkpt lat="45.78197128762631" lon="10.024210345141334"><ele>457.1666666666667</ele><time>2026-04-04T12:15:23.999Z</time></trkpt><trkpt lat="45.78195802607803" lon="10.024327864237003"><ele>457.33333333333337</ele><time>2026-04-04T12:15:24.999Z</time></trkpt><trkpt lat="45.781949555890314" lon="10.024445404185663"><ele>457.5</ele><time>2026-04-04T12:15:25.999Z</time></trkpt><trkpt lat="45.781935738886105" lon="10.02456118732064"><ele>457.66666666666663</ele><time>2026-04-04T12:15:26.999Z</time></trkpt><trkpt lat="45.78192298676362" lon="10.024680169330969"><ele>457.8333333333333</ele><time>2026-04-04T12:15:27.999Z</time></trkpt><trkpt lat="45.781909852846084" lon="10.024798246569924"><ele>458.0</ele><time>2026-04-04T12:15:28.999Z</time></trkpt><trkpt lat="45.78189486750041" lon="10.024917209344652"><ele>457.8333333333333</ele><time>2026-04-04T12:15:29.999Z</time></trkpt><trkpt lat="45.781876117249034" lon="10.025028571038714"><ele>457.66666666666663</ele><time>2026-04-04T12:15:30.999Z</time></trkpt><trkpt lat="45.78185474781928" lon="10.025145340843352"><ele>457.5</ele><time>2026-04-04T12:15:31.999Z</time></trkpt><trkpt lat="45.781829282269406" lon="10.025259822389692"><ele>457.33333333333337</ele><time>2026-04-04T12:15:32.999Z</time></trkpt><trkpt lat="45.78180620783431" lon="10.025376228431524"><ele>457.1666666666667</ele><time>2026-04-04T12:15:33.999Z</time></trkpt><trkpt lat="45.78178045885729" lon="10.025489485184837"><ele>457.0</ele><time>2026-04-04T12:15:34.999Z</time></trkpt><trkpt lat="45.7817574670594" lon="10.025606956328525"><ele>454.50000000000006</ele><time>2026-04-04T12:15:35.999Z</time></trkpt><trkpt lat="45.78173371682448" lon="10.025722984211676"><ele>452.0</ele><time>2026-04-04T12:15:36.999Z</time></trkpt><trkpt lat="45.7817101222404" lon="10.02583765009624"><ele>449.5</ele><time>2026-04-04T12:15:37.999Z</time></trkpt><trkpt lat="45.78168611970378" lon="10.025953511006387"><ele>447.0</ele><time>2026-04-04T12:15:38.999Z</time></trkpt><trkpt lat="45.78166170316471" lon="10.026071121395242"><ele>444.50000000000006</ele><time>2026-04-04T12:15:39.999Z</time></trkpt><trkpt lat="45.78164015728943" lon="10.026187041304613"><ele>442.0</ele><time>2026-04-04T12:15:40.999Z</time></trkpt><trkpt lat="45.78161657183992" lon="10.026304204800864"><ele>441.83333333333337</ele><time>2026-04-04T12:15:41.999Z</time></trkpt><trkpt lat="45.78158875517886" lon="10.026419279848502"><ele>441.6666666666667</ele><time>2026-04-04T12:15:42.999Z</time></trkpt><trkpt lat="45.78156259275058" lon="10.026535062670835"><ele>441.5</ele><time>2026-04-04T12:15:43.999Z</time></trkpt><trkpt lat="45.78153865154252" lon="10.0266525154529"><ele>441.33333333333337</ele><time>2026-04-04T12:15:44.999Z</time></trkpt><trkpt lat="45.78151537170359" lon="10.026769319992455"><ele>441.1666666666667</ele><time>2026-04-04T12:15:45.999Z</time></trkpt><trkpt lat="45.78149028126135" lon="10.026884543771994"><ele>441.0</ele><time>2026-04-04T12:15:46.999Z</time></trkpt><trkpt lat="45.7814674783003" lon="10.02699904402336"><ele>441.0</ele><time>2026-04-04T12:15:47.998Z</time></trkpt><trkpt lat="45.7814430150352" lon="10.027116916766156"><ele>441.0</ele><time>2026-04-04T12:15:49Z</time></trkpt><trkpt lat="45.781418892360946" lon="10.027235252666017"><ele>441.0</ele><time>2026-04-04T12:15:50Z</time></trkpt><trkpt lat="45.78139330121929" lon="10.0273515468342"><ele>441.0</ele><time>2026-04-04T12:15:51Z</time></trkpt><trkpt lat="45.7813697816626" lon="10.027473039522901"><ele>441.0</ele><time>2026-04-04T12:15:52Z</time></trkpt><trkpt lat="45.78134567652906" lon="10.027592872989807"><ele>441.0</ele><time>2026-04-04T12:15:53Z</time></trkpt><trkpt lat="45.781325556961804" lon="10.027716680067801"><ele>440.8</ele><time>2026-04-04T12:15:54Z</time></trkpt><trkpt lat="45.78131519982059" lon="10.027844357056082"><ele>440.6</ele><time>2026-04-04T12:15:55Z</time></trkpt><trkpt lat="45.781308634217034" lon="10.027973599640763"><ele>440.4</ele><time>2026-04-04T12:15:56Z</time></trkpt><trkpt lat="45.781306892863775" lon="10.028102208233063"><ele>440.2</ele><time>2026-04-04T12:15:57Z</time></trkpt><trkpt lat="45.7813160686811" lon="10.028239964161262"><ele>440.0</ele><time>2026-04-04T12:15:58Z</time></trkpt><trkpt lat="45.7813304157826" lon="10.028379917403164"><ele>439.4</ele><time>2026-04-04T12:15:59Z</time></trkpt><trkpt lat="45.78134097043294" lon="10.02852368995275"><ele>438.8</ele><time>2026-04-04T12:16:00Z</time></trkpt><trkpt lat="45.78135545041223" lon="10.02867045554297"><ele>438.20000000000005</ele><time>2026-04-04T12:16:01Z</time></trkpt><trkpt lat="45.78137290855333" lon="10.028820548898281"><ele>437.6</ele><time>2026-04-04T12:16:02Z</time></trkpt><trkpt lat="45.78139109794617" lon="10.028973133559393"><ele>437.0</ele><time>2026-04-04T12:16:03Z</time></trkpt><trkpt lat="45.781406594087684" lon="10.029126929430253"><ele>436.0</ele><time>2026-04-04T12:16:04Z</time></trkpt><trkpt lat="45.781407224293986" lon="10.029285281848285"><ele>435.0</ele><time>2026-04-04T12:16:05Z</time></trkpt><trkpt lat="45.78139438908016" lon="10.029441843140887"><ele>434.0</ele><time>2026-04-04T12:16:06Z</time></trkpt><trkpt lat="45.78137851942091" lon="10.029603754018982"><ele>433.0</ele><time>2026-04-04T12:16:07Z</time></trkpt><trkpt lat="45.781353192845074" lon="10.029771927249742"><ele>433.0</ele><time>2026-04-04T12:16:08Z</time></trkpt><trkpt lat="45.781325288227315" lon="10.029944996970647"><ele>433.0</ele><time>2026-04-04T12:16:09Z</time></trkpt><trkpt lat="45.78130076773647" lon="10.030124019627765"><ele>433.0</ele><time>2026-04-04T12:16:10Z</time></trkpt><trkpt lat="45.78127706630409" lon="10.030304542603053"><ele>433.0</ele><time>2026-04-04T12:16:11Z</time></trkpt><trkpt lat="45.78124862941583" lon="10.03049072760213"><ele>431.5</ele><time>2026-04-04T12:16:12Z</time></trkpt><trkpt lat="45.78121990501993" lon="10.030679647312947"><ele>430.0</ele><time>2026-04-04T12:16:13Z</time></trkpt><trkpt lat="45.78119827086267" lon="10.030871050121428"><ele>428.5</ele><time>2026-04-04T12:16:14Z</time></trkpt><trkpt lat="45.78117548754308" lon="10.031065028563999"><ele>427.0</ele><time>2026-04-04T12:16:15Z</time></trkpt><trkpt lat="45.7811530992337" lon="10.031260003920936"><ele>425.75</ele><time>2026-04-04T12:16:16Z</time></trkpt><trkpt lat="45.78114417481966" lon="10.031461829316681"><ele>424.5</ele><time>2026-04-04T12:16:17Z</time></trkpt><trkpt lat="45.78114517414886" lon="10.031665594245593"><ele>423.25</ele><time>2026-04-04T12:16:18Z</time></trkpt><trkpt lat="45.78115468366375" lon="10.031870884354452"><ele>422.0</ele><time>2026-04-04T12:16:19Z</time></trkpt><trkpt lat="45.781176153197265" lon="10.03207918781804"><ele>420.3333333333333</ele><time>2026-04-04T12:16:20Z</time></trkpt><trkpt lat="45.781209687085926" lon="10.032287385379647"><ele>418.66666666666663</ele><time>2026-04-04T12:16:21Z</time></trkpt><trkpt lat="45.781260284275255" lon="10.032491532276342"><ele>417.0</ele><time>2026-04-04T12:16:22Z</time></trkpt><trkpt lat="45.78132200690893" lon="10.032689707621747"><ele>413.66666666666663</ele><time>2026-04-04T12:16:23Z</time></trkpt><trkpt lat="45.781393612876386" lon="10.032881403018912"><ele>410.3333333333333</ele><time>2026-04-04T12:16:24Z</time></trkpt><trkpt lat="45.781473052778416" lon="10.033068828557273"><ele>407.0</ele><time>2026-04-04T12:16:25Z</time></trkpt><trkpt lat="45.78155821366082" lon="10.033252453958973"><ele>404.3333333333333</ele><time>2026-04-04T12:16:26Z</time></trkpt><trkpt lat="45.78164020789276" lon="10.033435397390297"><ele>401.66666666666663</ele><time>2026-04-04T12:16:27Z</time></trkpt><trkpt lat="45.78172113529017" lon="10.033617367509658"><ele>399.0</ele><time>2026-04-04T12:16:28Z</time></trkpt><trkpt lat="45.78180116340461" lon="10.033798644562305"><ele>400.25</ele><time>2026-04-04T12:16:29Z</time></trkpt><trkpt lat="45.78188156924764" lon="10.033975339953582"><ele>401.5</ele><time>2026-04-04T12:16:30Z</time></trkpt><trkpt lat="45.78196153538298" lon="10.034147785466375"><ele>402.75</ele><time>2026-04-04T12:16:31Z</time></trkpt><trkpt lat="45.78203987018231" lon="10.034317032733767"><ele>404.0</ele><time>2026-04-04T12:16:32Z</time></trkpt><trkpt lat="45.782114523734286" lon="10.034487017831134"><ele>404.0</ele><time>2026-04-04T12:16:33Z</time></trkpt><trkpt lat="45.78219160389555" lon="10.03465088404902"><ele>404.0</ele><time>2026-04-04T12:16:34Z</time></trkpt><trkpt lat="45.78226442859335" lon="10.034808518638433"><ele>404.0</ele><time>2026-04-04T12:16:35Z</time></trkpt><trkpt lat="45.78233242011744" lon="10.034964112183342"><ele>404.0</ele><time>2026-04-04T12:16:36Z</time></trkpt><trkpt lat="45.78239276657955" lon="10.03511788665607"><ele>402.0</ele><time>2026-04-04T12:16:37Z</time></trkpt><trkpt lat="45.78243700809699" lon="10.03528123626463"><ele>400.0</ele><time>2026-04-04T12:16:38Z</time></trkpt><trkpt lat="45.78245083704247" lon="10.035453945977451"><ele>398.0</ele><time>2026-04-04T12:16:39Z</time></trkpt><trkpt lat="45.78244609599143" lon="10.03563438316116"><ele>396.0</ele><time>2026-04-04T12:16:40Z</time></trkpt><trkpt lat="45.78242793046262" lon="10.035812020090411"><ele>394.5</ele><time>2026-04-04T12:16:41Z</time></trkpt><trkpt lat="45.782384854288274" lon="10.035979329977506"><ele>393.0</ele><time>2026-04-04T12:16:42Z</time></trkpt><trkpt lat="45.782326591251405" lon="10.036140968089319"><ele>391.5</ele><time>2026-04-04T12:16:42.999Z</time></trkpt><trkpt lat="45.782267819577385" lon="10.03629998728751"><ele>390.0</ele><time>2026-04-04T12:16:43.999Z</time></trkpt><trkpt lat="45.78220707407464" lon="10.036463436997733"><ele>389.5</ele><time>2026-04-04T12:16:44.999Z</time></trkpt><trkpt lat="45.78215481450929" lon="10.036636210825897"><ele>389.0</ele><time>2026-04-04T12:16:45.999Z</time></trkpt><trkpt lat="45.782123014949605" lon="10.036820817199656"><ele>388.5</ele><time>2026-04-04T12:16:46.999Z</time></trkpt><trkpt lat="45.78212248373575" lon="10.037011521554481"><ele>388.0</ele><time>2026-04-04T12:16:47.999Z</time></trkpt><trkpt lat="45.78214813422793" lon="10.037196066762222"><ele>388.0</ele><time>2026-04-04T12:16:48.999Z</time></trkpt><trkpt lat="45.78216895346867" lon="10.037380017245853"><ele>388.0</ele><time>2026-04-04T12:16:49.999Z</time></trkpt><trkpt lat="45.78217215277276" lon="10.037564928999183"><ele>388.0</ele><time>2026-04-04T12:16:50.999Z</time></trkpt><trkpt lat="45.78214422032431" lon="10.037743568879446"><ele>388.0</ele><time>2026-04-04T12:16:51.999Z</time></trkpt><trkpt lat="45.78210609590142" lon="10.037922263133986"><ele>387.75</ele><time>2026-04-04T12:16:52.999Z</time></trkpt><trkpt lat="45.78207596594478" lon="10.038106911612823"><ele>387.5</ele><time>2026-04-04T12:16:53.999Z</time></trkpt><trkpt lat="45.782052812310326" lon="10.038294026518225"><ele>387.25</ele><time>2026-04-04T12:16:54.999Z</time></trkpt><trkpt lat="45.782051508117654" lon="10.038484724012825"><ele>387.0</ele><time>2026-04-04T12:16:55.999Z</time></trkpt><trkpt lat="45.78206893685723" lon="10.03867798728116"><ele>386.5</ele><time>2026-04-04T12:16:56.999Z</time></trkpt><trkpt lat="45.78210309908246" lon="10.03886747714549"><ele>386.0</ele><time>2026-04-04T12:16:57.999Z</time></trkpt><trkpt lat="45.78214067781494" lon="10.039057114107816"><ele>385.5</ele><time>2026-04-04T12:16:58.999Z</time></trkpt><trkpt lat="45.78216415981519" lon="10.039245992172766"><ele>385.0</ele><time>2026-04-04T12:16:59.999Z</time></trkpt><trkpt lat="45.78217848999866" lon="10.039419658268107"><ele>383.4</ele><time>2026-04-04T12:17:00.999Z</time></trkpt><trkpt lat="45.78217319307327" lon="10.039573213966028"><ele>381.8</ele><time>2026-04-04T12:17:01.999Z</time></trkpt><trkpt lat="45.78214490789876" lon="10.039708337259505"><ele>380.20000000000005</ele><time>2026-04-04T12:17:02.999Z</time></trkpt><trkpt lat="45.78208852306105" lon="10.03981898688889"><ele>378.6</ele><time>2026-04-04T12:17:03.999Z</time></trkpt><trkpt lat="45.78201133012659" lon="10.039894830011468"><ele>377.0</ele><time>2026-04-04T12:17:04.999Z</time></trkpt><trkpt lat="45.781919796137025" lon="10.039928354038596"><ele>373.40000000000003</ele><time>2026-04-04T12:17:05.999Z</time></trkpt><trkpt lat="45.78181957885685" lon="10.03991023824417"><ele>369.8</ele><time>2026-04-04T12:17:06.999Z</time></trkpt><trkpt lat="45.78173559340211" lon="10.039823756591831"><ele>366.2</ele><time>2026-04-04T12:17:07.999Z</time></trkpt><trkpt lat="45.78165856562527" lon="10.039740547210906"><ele>362.6</ele><time>2026-04-04T12:17:08.999Z</time></trkpt><trkpt lat="45.78157159182137" lon="10.039649429850146"><ele>359.0</ele><time>2026-04-04T12:17:09.999Z</time></trkpt><trkpt lat="45.781484068132066" lon="10.039559566546396"><ele>359.0</ele><time>2026-04-04T12:17:10.999Z</time></trkpt><trkpt lat="45.78139624563155" lon="10.039467361189384"><ele>359.0</ele><time>2026-04-04T12:17:11.999Z</time></trkpt><trkpt lat="45.78131075630132" lon="10.039370493542709"><ele>359.0</ele><time>2026-04-04T12:17:12.999Z</time></trkpt><trkpt lat="45.78122291780821" lon="10.039269053443858"><ele>359.0</ele><time>2026-04-04T12:17:13.999Z</time></trkpt><trkpt lat="45.781156043036624" lon="10.039138093146168"><ele>359.0</ele><time>2026-04-04T12:17:14.999Z</time></trkpt><trkpt lat="45.78109401884726" lon="10.03900071006172"><ele>360.2</ele><time>2026-04-04T12:17:15.999Z</time></trkpt><trkpt lat="45.78103477155844" lon="10.038865314862123"><ele>361.4</ele><time>2026-04-04T12:17:16.999Z</time></trkpt><trkpt lat="45.780971173722705" lon="10.038751482499155"><ele>362.6</ele><time>2026-04-04T12:17:17.999Z</time></trkpt><trkpt lat="45.78089546958988" lon="10.038677032857239"><ele>363.8</ele><time>2026-04-04T12:17:18.999Z</time></trkpt><trkpt lat="45.78082538375392" lon="10.038612520373077"><ele>365.0</ele><time>2026-04-04T12:17:19.999Z</time></trkpt><trkpt lat="45.78072254612723" lon="10.038689198425985"><ele>362.6</ele><time>2026-04-04T12:17:20.999Z</time></trkpt><trkpt lat="45.78068103800985" lon="10.038821290817072"><ele>360.2</ele><time>2026-04-04T12:17:21.999Z</time></trkpt><trkpt lat="45.780705826301784" lon="10.038953827871435"><ele>357.79999999999995</ele><time>2026-04-04T12:17:22.999Z</time></trkpt><trkpt lat="45.78074573255202" lon="10.03906016334948"><ele>355.4</ele><time>2026-04-04T12:17:23.999Z</time></trkpt><trkpt lat="45.7807884317567" lon="10.039164851540944"><ele>353.0</ele><time>2026-04-04T12:17:24.999Z</time></trkpt><trkpt lat="45.7808325520383" lon="10.03927649741016"><ele>354.2</ele><time>2026-04-04T12:17:25.999Z</time></trkpt><trkpt lat="45.780875505175004" lon="10.039398025372256"><ele>355.4</ele><time>2026-04-04T12:17:26.999Z</time></trkpt><trkpt lat="45.78091519829928" lon="10.039524917768988"><ele>356.59999999999997</ele><time>2026-04-04T12:17:27.999Z</time></trkpt><trkpt lat="45.780955366607905" lon="10.03965755812336"><ele>357.79999999999995</ele><time>2026-04-04T12:17:28.999Z</time></trkpt><trkpt lat="45.781001089443706" lon="10.039792280484477"><ele>359.0</ele><time>2026-04-04T12:17:29.999Z</time></trkpt><trkpt lat="45.7810458064291" lon="10.03993473597971"><ele>357.5</ele><time>2026-04-04T12:17:30.999Z</time></trkpt><trkpt lat="45.78109044827878" lon="10.04008545075483"><ele>356.0</ele><time>2026-04-04T12:17:31.999Z</time></trkpt><trkpt lat="45.781137004594356" lon="10.040238315808066"><ele>354.5</ele><time>2026-04-04T12:17:32.999Z</time></trkpt><trkpt lat="45.78118018342361" lon="10.040395311888505"><ele>353.0</ele><time>2026-04-04T12:17:33.999Z</time></trkpt><trkpt lat="45.78121647697678" lon="10.040539131380692"><ele>353.0</ele><time>2026-04-04T12:17:34.999Z</time></trkpt><trkpt lat="45.781232244147986" lon="10.04066292667921"><ele>353.0</ele><time>2026-04-04T12:17:35.999Z</time></trkpt><trkpt lat="45.781201824582126" lon="10.040779215607262"><ele>353.0</ele><time>2026-04-04T12:17:36.999Z</time></trkpt><trkpt lat="45.78113813769613" lon="10.040854252348916"><ele>353.0</ele><time>2026-04-04T12:17:37.999Z</time></trkpt><trkpt lat="45.7810570743304" lon="10.040872219376011"><ele>353.0</ele><time>2026-04-04T12:17:38.999Z</time></trkpt><trkpt lat="45.780980462697954" lon="10.040835730751345"><ele>353.0</ele><time>2026-04-04T12:17:39.999Z</time></trkpt><trkpt lat="45.78091444858132" lon="10.04076019312223"><ele>350.6666666666667</ele><time>2026-04-04T12:17:40.999Z</time></trkpt><trkpt lat="45.78085659545524" lon="10.040685526729414"><ele>348.33333333333337</ele><time>2026-04-04T12:17:41.999Z</time></trkpt><trkpt lat="45.78079231580848" lon="10.040591908888496"><ele>346.0</ele><time>2026-04-04T12:17:42.999Z</time></trkpt><trkpt lat="45.78072771739834" lon="10.040504729943175"><ele>343.6666666666667</ele><time>2026-04-04T12:17:43.999Z</time></trkpt><trkpt lat="45.78064708515704" lon="10.040440894704124"><ele>341.3333333333333</ele><time>2026-04-04T12:17:44.999Z</time></trkpt><trkpt lat="45.78055424308602" lon="10.040403725125744"><ele>339.0</ele><time>2026-04-04T12:17:45.999Z</time></trkpt><trkpt lat="45.78045398702358" lon="10.040391595072688"><ele>339.0</ele><time>2026-04-04T12:17:46.999Z</time></trkpt><trkpt lat="45.780353760003386" lon="10.040393206848275"><ele>339.0</ele><time>2026-04-04T12:17:47.999Z</time></trkpt><trkpt lat="45.780251368831024" lon="10.040404588469839"><ele>339.0</ele><time>2026-04-04T12:17:48.999Z</time></trkpt><trkpt lat="45.780148827437635" lon="10.040406760428914"><ele>339.0</ele><time>2026-04-04T12:17:49.999Z</time></trkpt><trkpt lat="45.78005137856912" lon="10.04034657128904"><ele>339.0</ele><time>2026-04-04T12:17:50.999Z</time></trkpt><trkpt lat="45.779943380054235" lon="10.040310242988593"><ele>336.0</ele><time>2026-04-04T12:17:51.999Z</time></trkpt><trkpt lat="45.77984485498194" lon="10.040230125224767"><ele>333.0</ele><time>2026-04-04T12:17:52.999Z</time></trkpt><trkpt lat="45.77974371214904" lon="10.040150674964304"><ele>330.0</ele><time>2026-04-04T12:17:54Z</time></trkpt><trkpt lat="45.77964665248408" lon="10.040058178585003"><ele>327.0</ele><time>2026-04-04T12:17:55Z</time></trkpt><trkpt lat="45.77954463357052" lon="10.039977667328385"><ele>326.75</ele><time>2026-04-04T12:17:56Z</time></trkpt><trkpt lat="45.77943976767914" lon="10.039896542708822"><ele>326.5</ele><time>2026-04-04T12:17:57Z</time></trkpt><trkpt lat="45.77933553703279" lon="10.039816729164727"><ele>326.25</ele><time>2026-04-04T12:17:58Z</time></trkpt><trkpt lat="45.77922630939516" lon="10.039757093402383"><ele>326.0</ele><time>2026-04-04T12:17:59Z</time></trkpt><trkpt lat="45.77912988279653" lon="10.03966958007954"><ele>326.0</ele><time>2026-04-04T12:18:00Z</time></trkpt><trkpt lat="45.77905070865378" lon="10.039557547892803"><ele>326.0</ele><time>2026-04-04T12:18:01Z</time></trkpt><trkpt lat="45.77899332670664" lon="10.039439898982506"><ele>326.0</ele><time>2026-04-04T12:18:02Z</time></trkpt><trkpt lat="45.77893764748883" lon="10.03934014582767"><ele>326.0</ele><time>2026-04-04T12:18:03Z</time></trkpt><trkpt lat="45.77885847579344" lon="10.039301054050464"><ele>326.0</ele><time>2026-04-04T12:18:04Z</time></trkpt><trkpt lat="45.77877292118489" lon="10.039305929684279"><ele>326.0</ele><time>2026-04-04T12:18:05Z</time></trkpt><trkpt lat="45.77872172396819" lon="10.0394291601197"><ele>326.0</ele><time>2026-04-04T12:18:06Z</time></trkpt><trkpt lat="45.77870117058184" lon="10.039551168713551"><ele>326.0</ele><time>2026-04-04T12:18:07Z</time></trkpt><trkpt lat="45.77876766758447" lon="10.039660068621673"><ele>326.0</ele><time>2026-04-04T12:18:08Z</time></trkpt><trkpt lat="45.77883306964293" lon="10.03974076268426"><ele>326.0</ele><time>2026-04-04T12:18:09Z</time></trkpt><trkpt lat="45.778897476394455" lon="10.039825513011833"><ele>326.0</ele><time>2026-04-04T12:18:10Z</time></trkpt><trkpt lat="45.778957074207476" lon="10.039924965605394"><ele>326.0</ele><time>2026-04-04T12:18:11Z</time></trkpt><trkpt lat="45.77901431868041" lon="10.040037176773508"><ele>326.0</ele><time>2026-04-04T12:18:12Z</time></trkpt><trkpt lat="45.77906759089009" lon="10.04015889243286"><ele>326.0</ele><time>2026-04-04T12:18:13Z</time></trkpt><trkpt lat="45.779124799341474" lon="10.04028258366432"><ele>326.0</ele><time>2026-04-04T12:18:14Z</time></trkpt><trkpt lat="45.77918361647513" lon="10.040406333076099"><ele>326.20000000000005</ele><time>2026-04-04T12:18:15Z</time></trkpt><trkpt lat="45.77923924343357" lon="10.040537801066366"><ele>326.40000000000003</ele><time>2026-04-04T12:18:16Z</time></trkpt><trkpt lat="45.779297979128096" lon="10.040668533163332"><ele>326.6</ele><time>2026-04-04T12:18:17Z</time></trkpt><trkpt lat="45.779359912937856" lon="10.040799242333968"><ele>326.8</ele><time>2026-04-04T12:18:18Z</time></trkpt><trkpt lat="45.77942125458808" lon="10.040931672344588"><ele>327.0</ele><time>2026-04-04T12:18:19Z</time></trkpt><trkpt lat="45.77948366110257" lon="10.041064083856966"><ele>325.8</ele><time>2026-04-04T12:18:20Z</time></trkpt><trkpt lat="45.77954524647202" lon="10.041193653814151"><ele>324.6</ele><time>2026-04-04T12:18:21Z</time></trkpt><trkpt lat="45.77961198435193" lon="10.04131497971402"><ele>323.40000000000003</ele><time>2026-04-04T12:18:22Z</time></trkpt><trkpt lat="45.779687432397296" lon="10.041415402503095"><ele>322.20000000000005</ele><time>2026-04-04T12:18:23Z</time></trkpt><trkpt lat="45.77977013277031" lon="10.041491130586076"><ele>321.0</ele><time>2026-04-04T12:18:24Z</time></trkpt><trkpt lat="45.77985762462094" lon="10.04153162206394"><ele>321.0</ele><time>2026-04-04T12:18:25Z</time></trkpt><trkpt lat="45.77993753417851" lon="10.041553868017667"><ele>321.0</ele><time>2026-04-04T12:18:26Z</time></trkpt><trkpt lat="45.780000701864545" lon="10.041594296206352"><ele>321.0</ele><time>2026-04-04T12:18:27Z</time></trkpt><trkpt lat="45.780032839645436" lon="10.041756911536176"><ele>321.0</ele><time>2026-04-04T12:18:29Z</time></trkpt><trkpt lat="45.77997056467219" lon="10.041807224269904"><ele>321.0</ele><time>2026-04-04T12:18:30Z</time></trkpt><trkpt lat="45.779908088290256" lon="10.041823841982744"><ele>321.0</ele><time>2026-04-04T12:18:31Z</time></trkpt><trkpt lat="45.779867177435726" lon="10.041726247966935"><ele>321.0</ele><time>2026-04-04T12:18:32Z</time></trkpt><trkpt lat="45.779814366149864" lon="10.041659365763103"><ele>321.0</ele><time>2026-04-04T12:18:33Z</time></trkpt><trkpt lat="45.77975568837968" lon="10.041581417023528"><ele>321.0</ele><time>2026-04-04T12:18:34Z</time></trkpt><trkpt lat="45.779682104729545" lon="10.041511305959395"><ele>321.0</ele><time>2026-04-04T12:18:35Z</time></trkpt><trkpt lat="45.77960633073156" lon="10.041447734445796"><ele>321.0</ele><time>2026-04-04T12:18:36Z</time></trkpt><trkpt lat="45.77952213217024" lon="10.04139486550589"><ele>321.0</ele><time>2026-04-04T12:18:37Z</time></trkpt><trkpt lat="45.77943132876158" lon="10.041357712487812"><ele>317.6</ele><time>2026-04-04T12:18:38Z</time></trkpt><trkpt lat="45.77933328529284" lon="10.041346478082168"><ele>314.20000000000005</ele><time>2026-04-04T12:18:39Z</time></trkpt><trkpt lat="45.77924221964876" lon="10.041290937660795"><ele>310.79999999999995</ele><time>2026-04-04T12:18:40Z</time></trkpt><trkpt lat="45.779143828693556" lon="10.041277819463081"><ele>307.4</ele><time>2026-04-04T12:18:41Z</time></trkpt><trkpt lat="45.77905618175272" lon="10.041211657788526"><ele>304.0</ele><time>2026-04-04T12:18:42Z</time></trkpt><trkpt lat="45.77896898735618" lon="10.04114847103608"><ele>304.0</ele><time>2026-04-04T12:18:43Z</time></trkpt><trkpt lat="45.77887774456411" lon="10.041085874463926"><ele>304.0</ele><time>2026-04-04T12:18:44Z</time></trkpt><trkpt lat="45.77880418766721" lon="10.040986989904434"><ele>304.0</ele><time>2026-04-04T12:18:45Z</time></trkpt><trkpt lat="45.7787339430778" lon="10.040885553158207"><ele>304.0</ele><time>2026-04-04T12:18:46Z</time></trkpt><trkpt lat="45.77867608802886" lon="10.040772852510727"><ele>304.0</ele><time>2026-04-04T12:18:47Z</time></trkpt><trkpt lat="45.77862226339527" lon="10.040658830878955"><ele>303.16666666666663</ele><time>2026-04-04T12:18:48Z</time></trkpt><trkpt lat="45.778558185104906" lon="10.040559698226396"><ele>302.3333333333333</ele><time>2026-04-04T12:18:49Z</time></trkpt><trkpt lat="45.77848509684815" lon="10.040494807187237"><ele>301.5</ele><time>2026-04-04T12:18:50Z</time></trkpt><trkpt lat="45.77839790672544" lon="10.040488454976602"><ele>300.6666666666667</ele><time>2026-04-04T12:18:51Z</time></trkpt><trkpt lat="45.778311558872645" lon="10.040515955467283"><ele>299.83333333333337</ele><time>2026-04-04T12:18:51.999Z</time></trkpt><trkpt lat="45.77824538215289" lon="10.040600799171802"><ele>299.0</ele><time>2026-04-04T12:18:52.999Z</time></trkpt><trkpt lat="45.77824231402065" lon="10.04076060651886"><ele>297.4</ele><time>2026-04-04T12:18:53.999Z</time></trkpt><trkpt lat="45.778257767625355" lon="10.040889320670844"><ele>295.79999999999995</ele><time>2026-04-04T12:18:54.999Z</time></trkpt><trkpt lat="45.7783111520195" lon="10.041001127317505"><ele>294.20000000000005</ele><time>2026-04-04T12:18:55.999Z</time></trkpt><trkpt lat="45.778382389641905" lon="10.04108877489919"><ele>292.6</ele><time>2026-04-04T12:18:56.999Z</time></trkpt><trkpt lat="45.778451380289525" lon="10.0411775394087"><ele>291.0</ele><time>2026-04-04T12:18:57.999Z</time></trkpt><trkpt lat="45.77851610380197" lon="10.041277750222033"><ele>291.6</ele><time>2026-04-04T12:18:58.999Z</time></trkpt><trkpt lat="45.778587471671166" lon="10.041371401044906"><ele>292.20000000000005</ele><time>2026-04-04T12:18:59.999Z</time></trkpt><trkpt lat="45.778660335197706" lon="10.041464596281106"><ele>292.79999999999995</ele><time>2026-04-04T12:19:00.999Z</time></trkpt><trkpt lat="45.77873043691642" lon="10.041563614121925"><ele>293.4</ele><time>2026-04-04T12:19:01.999Z</time></trkpt><trkpt lat="45.77880117612073" lon="10.041665899778218"><ele>294.0</ele><time>2026-04-04T12:19:02.999Z</time></trkpt><trkpt lat="45.778870507745125" lon="10.041777091235305"><ele>294.0</ele><time>2026-04-04T12:19:03.999Z</time></trkpt><trkpt lat="45.77893346527725" lon="10.041898365311306"><ele>294.0</ele><time>2026-04-04T12:19:04.999Z</time></trkpt><trkpt lat="45.77898721550207" lon="10.04203241385369"><ele>294.0</ele><time>2026-04-04T12:19:05.999Z</time></trkpt><trkpt lat="45.77904339587681" lon="10.042166048727946"><ele>294.0</ele><time>2026-04-04T12:19:06.999Z</time></trkpt><trkpt lat="45.77910407846596" lon="10.042301140967638"><ele>294.0</ele><time>2026-04-04T12:19:07.999Z</time></trkpt><trkpt lat="45.779161317200845" lon="10.042444982065819"><ele>296.0</ele><time>2026-04-04T12:19:08.999Z</time></trkpt><trkpt lat="45.77922223543999" lon="10.042590930069258"><ele>298.0</ele><time>2026-04-04T12:19:09.999Z</time></trkpt><trkpt lat="45.77928824411578" lon="10.042731911821548"><ele>300.0</ele><time>2026-04-04T12:19:10.999Z</time></trkpt><trkpt lat="45.77934807358873" lon="10.04288025261858"><ele>302.0</ele><time>2026-04-04T12:19:11.999Z</time></trkpt><trkpt lat="45.77938885031202" lon="10.043040848886465"><ele>302.0</ele><time>2026-04-04T12:19:12.999Z</time></trkpt><trkpt lat="45.77941651862535" lon="10.04320485961333"><ele>302.0</ele><time>2026-04-04T12:19:13.999Z</time></trkpt><trkpt lat="45.77944601672388" lon="10.043372664749635"><ele>302.0</ele><time>2026-04-04T12:19:14.999Z</time></trkpt><trkpt lat="45.779483717095026" lon="10.043536721649842"><ele>302.0</ele><time>2026-04-04T12:19:15.999Z</time></trkpt><trkpt lat="45.77952015968637" lon="10.043685195580352"><ele>300.0</ele><time>2026-04-04T12:19:16.999Z</time></trkpt><trkpt lat="45.77955472820598" lon="10.04381582197941"><ele>298.0</ele><time>2026-04-04T12:19:17.999Z</time></trkpt><trkpt lat="45.77958559265695" lon="10.04394013351479"><ele>296.0</ele><time>2026-04-04T12:19:18.999Z</time></trkpt><trkpt lat="45.77959948944125" lon="10.04405596408"><ele>294.0</ele><time>2026-04-04T12:19:19.999Z</time></trkpt><trkpt lat="45.779520634717464" lon="10.044192418975328"><ele>292.0</ele><time>2026-04-04T12:19:21.999Z</time></trkpt><trkpt lat="45.779448238857206" lon="10.04416705312186"><ele>292.0</ele><time>2026-04-04T12:19:22.999Z</time></trkpt><trkpt lat="45.779394187434804" lon="10.044082939153657"><ele>292.0</ele><time>2026-04-04T12:19:23.999Z</time></trkpt><trkpt lat="45.77933964078628" lon="10.044007057001352"><ele>292.0</ele><time>2026-04-04T12:19:24.999Z</time></trkpt><trkpt lat="45.77927708511037" lon="10.043936721080978"><ele>292.0</ele><time>2026-04-04T12:19:25.999Z</time></trkpt><trkpt lat="45.7792100911578" lon="10.043862505073436"><ele>292.0</ele><time>2026-04-04T12:19:26.999Z</time></trkpt><trkpt lat="45.77914094261837" lon="10.04378859715995"><ele>292.0</ele><time>2026-04-04T12:19:27.999Z</time></trkpt><trkpt lat="45.77906632005505" lon="10.04371887714017"><ele>287.6</ele><time>2026-04-04T12:19:28.999Z</time></trkpt><trkpt lat="45.77898517297595" lon="10.043650798313777"><ele>283.2</ele><time>2026-04-04T12:19:29.999Z</time></trkpt><trkpt lat="45.77890150237186" lon="10.043583146872027"><ele>278.8</ele><time>2026-04-04T12:19:30.999Z</time></trkpt><trkpt lat="45.77881649835194" lon="10.043515294938535"><ele>274.4</ele><time>2026-04-04T12:19:31.999Z</time></trkpt><trkpt lat="45.77873014775024" lon="10.043444859184273"><ele>270.0</ele><time>2026-04-04T12:19:32.999Z</time></trkpt><trkpt lat="45.77864266726387" lon="10.043374436398675"><ele>270.0</ele><time>2026-04-04T12:19:33.999Z</time></trkpt><trkpt lat="45.77855149507114" lon="10.043310751486459"><ele>270.0</ele><time>2026-04-04T12:19:34.999Z</time></trkpt><trkpt lat="45.77845887633577" lon="10.043250598254994"><ele>270.0</ele><time>2026-04-04T12:19:35.999Z</time></trkpt><trkpt lat="45.77835848013394" lon="10.043213219840142"><ele>270.0</ele><time>2026-04-04T12:19:36.999Z</time></trkpt><trkpt lat="45.77825913298199" lon="10.043186657031992"><ele>270.0</ele><time>2026-04-04T12:19:37.999Z</time></trkpt><trkpt lat="45.778161789425205" lon="10.043151710122453"><ele>269.4</ele><time>2026-04-04T12:19:38.999Z</time></trkpt><trkpt lat="45.77806352448006" lon="10.043111020217422"><ele>268.8</ele><time>2026-04-04T12:19:39.999Z</time></trkpt><trkpt lat="45.77796522950249" lon="10.043092829509536"><ele>268.2</ele><time>2026-04-04T12:19:40.999Z</time></trkpt><trkpt lat="45.777866672662626" lon="10.043090108688022"><ele>267.6</ele><time>2026-04-04T12:19:41.999Z</time></trkpt><trkpt lat="45.77776558204218" lon="10.04311428004543"><ele>267.0</ele><time>2026-04-04T12:19:42.999Z</time></trkpt><trkpt lat="45.7776745589395" lon="10.043172281069193"><ele>264.2</ele><time>2026-04-04T12:19:43.999Z</time></trkpt><trkpt lat="45.77760148195981" lon="10.043265995929186"><ele>261.4</ele><time>2026-04-04T12:19:44.999Z</time></trkpt><trkpt lat="45.777546078290406" lon="10.04337860374405"><ele>258.6</ele><time>2026-04-04T12:19:45.999Z</time></trkpt><trkpt lat="45.777492423821684" lon="10.043480401506697"><ele>255.8</ele><time>2026-04-04T12:19:46.999Z</time></trkpt><trkpt lat="45.77741649291459" lon="10.043551747797032"><ele>253.0</ele><time>2026-04-04T12:19:47.999Z</time></trkpt><trkpt lat="45.77732366425296" lon="10.0435890377367"><ele>251.8</ele><time>2026-04-04T12:19:48.999Z</time></trkpt><trkpt lat="45.7772265397392" lon="10.043591265116797"><ele>250.60000000000002</ele><time>2026-04-04T12:19:49.999Z</time></trkpt><trkpt lat="45.77712726216949" lon="10.043564457241752"><ele>249.39999999999998</ele><time>2026-04-04T12:19:50.999Z</time></trkpt><trkpt lat="45.77703043878906" lon="10.043533955654546"><ele>248.2</ele><time>2026-04-04T12:19:51.999Z</time></trkpt><trkpt lat="45.77692975086516" lon="10.04350761870553"><ele>247.0</ele><time>2026-04-04T12:19:52.999Z</time></trkpt><trkpt lat="45.7768259349724" lon="10.04348196910698"><ele>247.0</ele><time>2026-04-04T12:19:53.999Z</time></trkpt><trkpt lat="45.77671772584089" lon="10.043458167864168"><ele>247.0</ele><time>2026-04-04T12:19:54.999Z</time></trkpt><trkpt lat="45.776607780765154" lon="10.043430240726305"><ele>247.0</ele><time>2026-04-04T12:19:55.999Z</time></trkpt><trkpt lat="45.776503431594385" lon="10.043382527648252"><ele>247.0</ele><time>2026-04-04T12:19:56.999Z</time></trkpt><trkpt lat="45.776398722961474" lon="10.043330324356779"><ele>247.0</ele><time>2026-04-04T12:19:57.999Z</time></trkpt><trkpt lat="45.776293810076716" lon="10.043281986704645"><ele>247.0</ele><time>2026-04-04T12:19:58.999Z</time></trkpt><trkpt lat="45.77619374377307" lon="10.043223779090896"><ele>247.0</ele><time>2026-04-04T12:20:00Z</time></trkpt><trkpt lat="45.77609505631501" lon="10.043160081901778"><ele>247.0</ele><time>2026-04-04T12:20:01Z</time></trkpt><trkpt lat="45.77600029249035" lon="10.043076432153988"><ele>247.0</ele><time>2026-04-04T12:20:02Z</time></trkpt><trkpt lat="45.775902089659326" lon="10.042985390595234"><ele>247.0</ele><time>2026-04-04T12:20:03Z</time></trkpt><trkpt lat="45.775799672825" lon="10.042903214764648"><ele>242.75</ele><time>2026-04-04T12:20:04Z</time></trkpt><trkpt lat="45.77570175854498" lon="10.042811994428364"><ele>238.5</ele><time>2026-04-04T12:20:05Z</time></trkpt><trkpt lat="45.77560323873738" lon="10.042718379990427"><ele>234.25</ele><time>2026-04-04T12:20:06Z</time></trkpt><trkpt lat="45.77550141115859" lon="10.042636646877709"><ele>230.0</ele><time>2026-04-04T12:20:07Z</time></trkpt><trkpt lat="45.77540158734005" lon="10.042546211031555"><ele>231.5</ele><time>2026-04-04T12:20:08Z</time></trkpt><trkpt lat="45.775305406283536" lon="10.042445402914865"><ele>233.0</ele><time>2026-04-04T12:20:09Z</time></trkpt><trkpt lat="45.77521867084016" lon="10.04232591686523"><ele>234.5</ele><time>2026-04-04T12:20:10Z</time></trkpt><trkpt lat="45.775137190640756" lon="10.042202836678374"><ele>236.0</ele><time>2026-04-04T12:20:11Z</time></trkpt><trkpt lat="45.77506652395434" lon="10.042075347167218"><ele>229.5</ele><time>2026-04-04T12:20:12Z</time></trkpt><trkpt lat="45.77501303999308" lon="10.041934409801346"><ele>223.0</ele><time>2026-04-04T12:20:13Z</time></trkpt><trkpt lat="45.77496938835597" lon="10.041778732674219"><ele>216.5</ele><time>2026-04-04T12:20:14Z</time></trkpt><trkpt lat="45.77494010853441" lon="10.041614369789672"><ele>210.0</ele><time>2026-04-04T12:20:15Z</time></trkpt><trkpt lat="45.77492134944367" lon="10.041442173779469"><ele>208.75</ele><time>2026-04-04T12:20:16Z</time></trkpt><trkpt lat="45.774908383824354" lon="10.041278488596628"><ele>207.5</ele><time>2026-04-04T12:20:17Z</time></trkpt><trkpt lat="45.774912468331586" lon="10.041113440394744"><ele>206.25</ele><time>2026-04-04T12:20:18Z</time></trkpt><trkpt lat="45.774932023355774" lon="10.040944189825654"><ele>205.0</ele><time>2026-04-04T12:20:19Z</time></trkpt><trkpt lat="45.77496163491784" lon="10.040771629155211"><ele>204.8</ele><time>2026-04-04T12:20:20Z</time></trkpt><trkpt lat="45.77499099874235" lon="10.040610431034178"><ele>204.6</ele><time>2026-04-04T12:20:21Z</time></trkpt><trkpt lat="45.775018304562266" lon="10.040463112571288"><ele>204.39999999999998</ele><time>2026-04-04T12:20:22Z</time></trkpt><trkpt lat="45.7750431135858" lon="10.04032442709435"><ele>204.2</ele><time>2026-04-04T12:20:23Z</time></trkpt><trkpt lat="45.77507182077628" lon="10.040203923070617"><ele>204.0</ele><time>2026-04-04T12:20:24Z</time></trkpt><trkpt lat="45.77510636886069" lon="10.040099812881769"><ele>204.0</ele><time>2026-04-04T12:20:25Z</time></trkpt><trkpt lat="45.7751181949797" lon="10.039998673687764"><ele>204.0</ele><time>2026-04-04T12:20:26Z</time></trkpt><trkpt lat="45.77509647271176" lon="10.039911925371257"><ele>204.0</ele><time>2026-04-04T12:20:27Z</time></trkpt><trkpt lat="45.77504268265699" lon="10.03985242440177"><ele>204.0</ele><time>2026-04-04T12:20:28Z</time></trkpt><trkpt lat="45.774937044774596" lon="10.039821645563295"><ele>204.0</ele><time>2026-04-04T12:20:30Z</time></trkpt><trkpt lat="45.77487275014133" lon="10.039848615176735"><ele>204.0</ele><time>2026-04-04T12:20:43Z</time></trkpt><trkpt lat="45.77480670616994" lon="10.039854251504723"><ele>204.0</ele><time>2026-04-04T12:20:46Z</time></trkpt><trkpt lat="45.77480057599704" lon="10.040018332081079"><ele>204.0</ele><time>2026-04-04T12:20:49Z</time></trkpt><trkpt lat="45.774856510983" lon="10.040090451759852"><ele>204.0</ele><time>2026-04-04T12:21:37.999Z</time></trkpt><trkpt lat="45.77485335137541" lon="10.040193489100451"><ele>204.0</ele><time>2026-04-04T12:21:39.999Z</time></trkpt><trkpt lat="45.77484202787105" lon="10.040337183891683"><ele>204.0</ele><time>2026-04-04T12:21:41.999Z</time></trkpt><trkpt lat="45.77482143607087" lon="10.040483033892208"><ele>204.0</ele><time>2026-04-04T12:21:43.999Z</time></trkpt><trkpt lat="45.77479859027088" lon="10.040658090539898"><ele>204.0</ele><time>2026-04-04T12:21:45.999Z</time></trkpt><trkpt lat="45.77479210386341" lon="10.040753719504655"><ele>204.0</ele><time>2026-04-04T12:21:46.999Z</time></trkpt><trkpt lat="45.774784076444035" lon="10.040851388992417"><ele>204.0</ele><time>2026-04-04T12:21:47.999Z</time></trkpt><trkpt lat="45.77477603072561" lon="10.04095363987703"><ele>204.0</ele><time>2026-04-04T12:21:48.999Z</time></trkpt><trkpt lat="45.774771509281685" lon="10.041057577219444"><ele>204.0</ele><time>2026-04-04T12:21:49.999Z</time></trkpt><trkpt lat="45.77476420229569" lon="10.041164638650043"><ele>204.0</ele><time>2026-04-04T12:21:50.999Z</time></trkpt><trkpt lat="45.77475843089946" lon="10.041277394814944"><ele>204.0</ele><time>2026-04-04T12:21:51.999Z</time></trkpt><trkpt lat="45.774764912125065" lon="10.041390549192755"><ele>204.16666666666666</ele><time>2026-04-04T12:21:52.999Z</time></trkpt><trkpt lat="45.77477393369792" lon="10.0415102140509"><ele>204.33333333333331</ele><time>2026-04-04T12:21:53.999Z</time></trkpt><trkpt lat="45.77478858956746" lon="10.041630710356008"><ele>204.5</ele><time>2026-04-04T12:21:54.999Z</time></trkpt><trkpt lat="45.77480671725605" lon="10.041756135242316"><ele>204.66666666666666</ele><time>2026-04-04T12:21:55.999Z</time></trkpt><trkpt lat="45.774800450935885" lon="10.041879237722268"><ele>204.83333333333331</ele><time>2026-04-04T12:21:56.999Z</time></trkpt><trkpt lat="45.77479431864202" lon="10.042003908212576"><ele>205.0</ele><time>2026-04-04T12:21:57.999Z</time></trkpt><trkpt lat="45.77478496197424" lon="10.042130400218129"><ele>204.6</ele><time>2026-04-04T12:21:58.999Z</time></trkpt><trkpt lat="45.77478633530228" lon="10.042253041719983"><ele>204.2</ele><time>2026-04-04T12:21:59.999Z</time></trkpt><trkpt lat="45.774788126577356" lon="10.042385132775355"><ele>203.8</ele><time>2026-04-04T12:22:00.999Z</time></trkpt><trkpt lat="45.7747916810251" lon="10.042517252866887"><ele>203.4</ele><time>2026-04-04T12:22:01.998Z</time></trkpt><trkpt lat="45.77479438041106" lon="10.042648520384287"><ele>203.0</ele><time>2026-04-04T12:22:02.998Z</time></trkpt><trkpt lat="45.77495647322104" lon="10.04276325698344"><ele>203.0</ele><time>2026-04-04T12:22:03.998Z</time></trkpt><trkpt lat="45.775073334365224" lon="10.042941651911947"><ele>203.0</ele><time>2026-04-04T12:22:04.998Z</time></trkpt><trkpt lat="45.77518737309875" lon="10.043002887092001"><ele>203.0</ele><time>2026-04-04T12:22:06Z</time></trkpt><trkpt lat="45.775312057100386" lon="10.043084766193655"><ele>203.0</ele><time>2026-04-04T12:22:07Z</time></trkpt><trkpt lat="45.77538059073873" lon="10.043195479689892"><ele>205.8</ele><time>2026-04-04T12:22:08Z</time></trkpt><trkpt lat="45.77545123057123" lon="10.043303068608736"><ele>208.60000000000002</ele><time>2026-04-04T12:22:09Z</time></trkpt><trkpt lat="45.77552331808023" lon="10.043408482026177"><ele>211.39999999999998</ele><time>2026-04-04T12:22:10Z</time></trkpt><trkpt lat="45.77559408944694" lon="10.043513736243321"><ele>214.2</ele><time>2026-04-04T12:22:11Z</time></trkpt><trkpt lat="45.77566223358437" lon="10.043626411415369"><ele>217.0</ele><time>2026-04-04T12:22:12Z</time></trkpt><trkpt lat="45.7757278022781" lon="10.043748862223403"><ele>217.0</ele><time>2026-04-04T12:22:13Z</time></trkpt><trkpt lat="45.7757717047205" lon="10.04387738926144"><ele>217.0</ele><time>2026-04-04T12:22:14Z</time></trkpt><trkpt lat="45.7758224769804" lon="10.044005358298083"><ele>217.0</ele><time>2026-04-04T12:22:15Z</time></trkpt><trkpt lat="45.775876646661004" lon="10.044136016124229"><ele>217.0</ele><time>2026-04-04T12:22:16Z</time></trkpt><trkpt lat="45.775940633931626" lon="10.044262240278869"><ele>217.0</ele><time>2026-04-04T12:22:17Z</time></trkpt><trkpt lat="45.776007696336464" lon="10.044379497634194"><ele>217.2</ele><time>2026-04-04T12:22:18Z</time></trkpt><trkpt lat="45.77607901271519" lon="10.044490617186009"><ele>217.39999999999998</ele><time>2026-04-04T12:22:19Z</time></trkpt><trkpt lat="45.77615122273489" lon="10.044597343467117"><ele>217.60000000000002</ele><time>2026-04-04T12:22:20Z</time></trkpt><trkpt lat="45.77622523202507" lon="10.044700780933956"><ele>217.8</ele><time>2026-04-04T12:22:21Z</time></trkpt><trkpt lat="45.7762979833345" lon="10.044799316485635"><ele>218.0</ele><time>2026-04-04T12:22:22Z</time></trkpt><trkpt lat="45.77637238053452" lon="10.044894973892132"><ele>214.0</ele><time>2026-04-04T12:22:23Z</time></trkpt><trkpt lat="45.776446864133746" lon="10.044986349229957"><ele>210.0</ele><time>2026-04-04T12:22:24Z</time></trkpt><trkpt lat="45.77652203363256" lon="10.04507945040449"><ele>206.0</ele><time>2026-04-04T12:22:25Z</time></trkpt><trkpt lat="45.77660003467704" lon="10.045171482754675"><ele>202.0</ele><time>2026-04-04T12:22:26Z</time></trkpt><trkpt lat="45.77668214757238" lon="10.045253044130865"><ele>198.0</ele><time>2026-04-04T12:22:27Z</time></trkpt><trkpt lat="45.77676498763573" lon="10.045325789224325"><ele>198.0</ele><time>2026-04-04T12:22:28Z</time></trkpt><trkpt lat="45.77685063855571" lon="10.04539305568724"><ele>198.0</ele><time>2026-04-04T12:22:29Z</time></trkpt><trkpt lat="45.77693306254914" lon="10.045458782549042"><ele>198.0</ele><time>2026-04-04T12:22:30Z</time></trkpt><trkpt lat="45.77701521005788" lon="10.045525968331788"><ele>198.0</ele><time>2026-04-04T12:22:31Z</time></trkpt><trkpt lat="45.777098186165475" lon="10.04559558959217"><ele>198.0</ele><time>2026-04-04T12:22:32Z</time></trkpt><trkpt lat="45.777181072381474" lon="10.04566330822447"><ele>197.8</ele><time>2026-04-04T12:22:33Z</time></trkpt><trkpt lat="45.77726254935035" lon="10.045730209692422"><ele>197.60000000000002</ele><time>2026-04-04T12:22:34Z</time></trkpt><trkpt lat="45.77734227189553" lon="10.045799679678312"><ele>197.39999999999998</ele><time>2026-04-04T12:22:35Z</time></trkpt><trkpt lat="45.77741967352499" lon="10.045873273188192"><ele>197.2</ele><time>2026-04-04T12:22:36Z</time></trkpt><trkpt lat="45.77749503396437" lon="10.0459537733816"><ele>197.0</ele><time>2026-04-04T12:22:37Z</time></trkpt><trkpt lat="45.77756714153691" lon="10.046038915287857"><ele>197.0</ele><time>2026-04-04T12:22:38Z</time></trkpt><trkpt lat="45.77763602884335" lon="10.04612753184313"><ele>197.0</ele><time>2026-04-04T12:22:39Z</time></trkpt><trkpt lat="45.777700990227515" lon="10.046223836098635"><ele>197.0</ele><time>2026-04-04T12:22:40Z</time></trkpt><trkpt lat="45.77776437818086" lon="10.046321433325424"><ele>197.0</ele><time>2026-04-04T12:22:41Z</time></trkpt><trkpt lat="45.77782596092182" lon="10.046420018164765"><ele>197.0</ele><time>2026-04-04T12:22:42Z</time></trkpt><trkpt lat="45.777887652202736" lon="10.046517207655006"><ele>198.6</ele><time>2026-04-04T12:22:43Z</time></trkpt><trkpt lat="45.77794790554563" lon="10.046615890462403"><ele>200.2</ele><time>2026-04-04T12:22:44Z</time></trkpt><trkpt lat="45.77800856532227" lon="10.046717175725028"><ele>201.8</ele><time>2026-04-04T12:22:45Z</time></trkpt><trkpt lat="45.77806870018883" lon="10.046818795134728"><ele>203.4</ele><time>2026-04-04T12:22:46Z</time></trkpt><trkpt lat="45.77813042366247" lon="10.046918813739401"><ele>205.0</ele><time>2026-04-04T12:22:47Z</time></trkpt><trkpt lat="45.77818992394377" lon="10.047021909568649"><ele>205.0</ele><time>2026-04-04T12:22:48Z</time></trkpt><trkpt lat="45.77824516982971" lon="10.047128720806695"><ele>205.0</ele><time>2026-04-04T12:22:49Z</time></trkpt><trkpt lat="45.77829965451141" lon="10.047242868472107"><ele>205.0</ele><time>2026-04-04T12:22:50Z</time></trkpt><trkpt lat="45.77835068781681" lon="10.047355248267689"><ele>205.0</ele><time>2026-04-04T12:22:51Z</time></trkpt><trkpt lat="45.77840148304636" lon="10.047471463424467"><ele>205.0</ele><time>2026-04-04T12:22:52Z</time></trkpt><trkpt lat="45.77845326336295" lon="10.047581849844855"><ele>202.83333333333331</ele><time>2026-04-04T12:22:53Z</time></trkpt><trkpt lat="45.778506568587396" lon="10.047689186819136"><ele>200.66666666666666</ele><time>2026-04-04T12:22:54Z</time></trkpt><trkpt lat="45.77856363616142" lon="10.047788287939992"><ele>198.5</ele><time>2026-04-04T12:22:55Z</time></trkpt><trkpt lat="45.7786248537788" lon="10.047884852475011"><ele>196.33333333333331</ele><time>2026-04-04T12:22:56Z</time></trkpt><trkpt lat="45.77868783527104" lon="10.047971412699441"><ele>194.16666666666666</ele><time>2026-04-04T12:22:57Z</time></trkpt><trkpt lat="45.77875379276404" lon="10.048050457764672"><ele>192.0</ele><time>2026-04-04T12:22:57.999Z</time></trkpt><trkpt lat="45.77882420154319" lon="10.048119000181378"><ele>194.5</ele><time>2026-04-04T12:22:58.999Z</time></trkpt><trkpt lat="45.77889610940722" lon="10.048180186248448"><ele>197.0</ele><time>2026-04-04T12:22:59.999Z</time></trkpt><trkpt lat="45.778964652464495" lon="10.048238251339582"><ele>199.5</ele><time>2026-04-04T12:23:00.999Z</time></trkpt><trkpt lat="45.779033282148916" lon="10.048292247592865"><ele>202.0</ele><time>2026-04-04T12:23:01.999Z</time></trkpt><trkpt lat="45.77910481028429" lon="10.048333196843293"><ele>204.5</ele><time>2026-04-04T12:23:02.999Z</time></trkpt><trkpt lat="45.779175973988984" lon="10.048367880520516"><ele>207.0</ele><time>2026-04-04T12:23:03.999Z</time></trkpt><trkpt lat="45.77924542262961" lon="10.048396278292932"><ele>207.0</ele><time>2026-04-04T12:23:04.999Z</time></trkpt><trkpt lat="45.77931235959501" lon="10.048420271263955"><ele>207.0</ele><time>2026-04-04T12:23:05.999Z</time></trkpt><trkpt lat="45.77937725912343" lon="10.048438015478354"><ele>207.0</ele><time>2026-04-04T12:23:06.999Z</time></trkpt><trkpt lat="45.77944175394324" lon="10.04844657825049"><ele>207.0</ele><time>2026-04-04T12:23:07.999Z</time></trkpt><trkpt lat="45.77950683643111" lon="10.048452817762898"><ele>207.0</ele><time>2026-04-04T12:23:09.074Z</time></trkpt><trkpt lat="45.77961644716044" lon="10.048431853643029"><ele>207.0</ele><time>2026-04-04T12:23:11.056Z</time></trkpt><trkpt lat="45.77971302110099" lon="10.048415035878026"><ele>227.0</ele><time>2026-04-04T12:23:13.045Z</time></trkpt><trkpt lat="45.779786509566534" lon="10.048399882520949"><ele>247.0</ele><time>2026-04-04T12:23:15.033Z</time></trkpt><trkpt lat="45.780603552889644" lon="10.048253041528696"><ele>270.5</ele><time>2026-04-04T12:23:18.08Z</time></trkpt><trkpt lat="45.78087186286421" lon="10.048212657969106"><ele>294.0</ele><time>2026-04-04T12:23:19.08Z</time></trkpt><trkpt lat="45.781142168049904" lon="10.048194140361076"><ele>310.0</ele><time>2026-04-04T12:23:20.08Z</time></trkpt><trkpt lat="45.781409659536244" lon="10.04815205288785"><ele>326.0</ele><time>2026-04-04T12:23:21.078Z</time></trkpt><trkpt lat="45.781677519640745" lon="10.0481065049523"><ele>333.5</ele><time>2026-04-04T12:23:22.079Z</time></trkpt><trkpt lat="45.781946210729544" lon="10.04812791261336"><ele>341.0</ele><time>2026-04-04T12:23:23.077Z</time></trkpt><trkpt lat="45.78221059443596" lon="10.048209487507767"><ele>341.0</ele><time>2026-04-04T12:23:24.08Z</time></trkpt><trkpt lat="45.78247313200769" lon="10.048288865068262"><ele>341.0</ele><time>2026-04-04T12:23:25.078Z</time></trkpt><trkpt lat="45.782725883166265" lon="10.048426267976996"><ele>341.0</ele><time>2026-04-04T12:23:26.08Z</time></trkpt><trkpt lat="45.7828484" lon="10.0485536"><ele>341.0</ele><time>2026-04-04T12:23:27.078Z</time></trkpt><trkpt lat="45.78289818715066" lon="10.049188666714894"><ele>322.33333333333337</ele><time>2026-04-04T12:23:54.999Z</time></trkpt><trkpt lat="45.78283854763708" lon="10.049281410441056"><ele>303.6666666666667</ele><time>2026-04-04T12:23:58.999Z</time></trkpt><trkpt lat="45.782797617473115" lon="10.049371456029387"><ele>285.0</ele><time>2026-04-04T12:23:59.999Z</time></trkpt><trkpt lat="45.78273030361704" lon="10.049521206089421"><ele>266.3333333333333</ele><time>2026-04-04T12:24:00.998Z</time></trkpt><trkpt lat="45.78270533123648" lon="10.049625923479455"><ele>247.66666666666666</ele><time>2026-04-04T12:24:01.998Z</time></trkpt><trkpt lat="45.78265485911486" lon="10.049723911982912"><ele>229.0</ele><time>2026-04-04T12:24:02.998Z</time></trkpt><trkpt lat="45.782623290732026" lon="10.049828715580059"><ele>228.99999999999997</ele><time>2026-04-04T12:24:03.998Z</time></trkpt><trkpt lat="45.78259185321831" lon="10.049931643311961"><ele>229.0</ele><time>2026-04-04T12:24:04.998Z</time></trkpt><trkpt lat="45.7825583325873" lon="10.050037333418572"><ele>229.0</ele><time>2026-04-04T12:24:05.998Z</time></trkpt><trkpt lat="45.78252451178867" lon="10.050143969730248"><ele>229.0</ele><time>2026-04-04T12:24:06.998Z</time></trkpt><trkpt lat="45.78250358382338" lon="10.050253540745297"><ele>228.99999999999997</ele><time>2026-04-04T12:24:07.998Z</time></trkpt><trkpt lat="45.78246369325363" lon="10.050347283257237"><ele>229.0</ele><time>2026-04-04T12:24:08.998Z</time></trkpt><trkpt lat="45.78242841843968" lon="10.050439767313295"><ele>224.33333333333331</ele><time>2026-04-04T12:24:09.998Z</time></trkpt><trkpt lat="45.78238598945136" lon="10.050535332910624"><ele>219.66666666666666</ele><time>2026-04-04T12:24:10.998Z</time></trkpt><trkpt lat="45.7823344828953" lon="10.050620388162837"><ele>215.0</ele><time>2026-04-04T12:24:12Z</time></trkpt><trkpt lat="45.78229438342326" lon="10.050712380880421"><ele>210.33333333333331</ele><time>2026-04-04T12:24:13Z</time></trkpt><trkpt lat="45.7822860944069" lon="10.050818975601715"><ele>205.66666666666666</ele><time>2026-04-04T12:24:14Z</time></trkpt><trkpt lat="45.78231192926189" lon="10.050929198894588"><ele>201.0</ele><time>2026-04-04T12:24:15Z</time></trkpt><trkpt lat="45.782356622632825" lon="10.051028412619676"><ele>201.0</ele><time>2026-04-04T12:24:16Z</time></trkpt><trkpt lat="45.78240495014553" lon="10.051119718636231"><ele>201.0</ele><time>2026-04-04T12:24:17Z</time></trkpt><trkpt lat="45.78243831251222" lon="10.051214127565606"><ele>201.0</ele><time>2026-04-04T12:24:18Z</time></trkpt><trkpt lat="45.7824296793959" lon="10.051316466810048"><ele>201.0</ele><time>2026-04-04T12:24:19Z</time></trkpt><trkpt lat="45.782360558583285" lon="10.051396290503867"><ele>201.0</ele><time>2026-04-04T12:24:20Z</time></trkpt><trkpt lat="45.782295852550526" lon="10.05147299895348"><ele>201.0</ele><time>2026-04-04T12:24:21Z</time></trkpt><trkpt lat="45.782246745146864" lon="10.051571609928352"><ele>201.0</ele><time>2026-04-04T12:24:22Z</time></trkpt><trkpt lat="45.78219419239106" lon="10.051659291012065"><ele>201.0</ele><time>2026-04-04T12:24:23Z</time></trkpt><trkpt lat="45.78215319682347" lon="10.051754824225405"><ele>201.0</ele><time>2026-04-04T12:24:24Z</time></trkpt><trkpt lat="45.7821283824228" lon="10.051861354054878"><ele>201.0</ele><time>2026-04-04T12:24:25Z</time></trkpt><trkpt lat="45.782131132868535" lon="10.051973023122242"><ele>201.0</ele><time>2026-04-04T12:24:26Z</time></trkpt><trkpt lat="45.782148013950575" lon="10.05208810831217"><ele>201.0</ele><time>2026-04-04T12:24:27Z</time></trkpt><trkpt lat="45.78216614115228" lon="10.052200889517666"><ele>197.83333333333334</ele><time>2026-04-04T12:24:28Z</time></trkpt><trkpt lat="45.782186008648104" lon="10.052312871203037"><ele>194.66666666666666</ele><time>2026-04-04T12:24:29Z</time></trkpt><trkpt lat="45.78221048914146" lon="10.052422604119574"><ele>191.5</ele><time>2026-04-04T12:24:30Z</time></trkpt><trkpt lat="45.78224690044111" lon="10.052527627537293"><ele>188.33333333333331</ele><time>2026-04-04T12:24:31Z</time></trkpt><trkpt lat="45.78228705299615" lon="10.052631012147"><ele>185.16666666666666</ele><time>2026-04-04T12:24:32Z</time></trkpt><trkpt lat="45.78232582089915" lon="10.052734327660296"><ele>182.0</ele><time>2026-04-04T12:24:33Z</time></trkpt><trkpt lat="45.782369460002364" lon="10.052837638504835"><ele>182.0</ele><time>2026-04-04T12:24:34Z</time></trkpt><trkpt lat="45.78241369950434" lon="10.052940535399031"><ele>182.0</ele><time>2026-04-04T12:24:35Z</time></trkpt><trkpt lat="45.782461766792814" lon="10.053037295885785"><ele>182.0</ele><time>2026-04-04T12:24:36Z</time></trkpt><trkpt lat="45.78250115124842" lon="10.053141547717818"><ele>182.0</ele><time>2026-04-04T12:24:37Z</time></trkpt><trkpt lat="45.78251715260981" lon="10.053259438006569"><ele>182.0</ele><time>2026-04-04T12:24:38Z</time></trkpt><trkpt lat="45.78257003078565" lon="10.05335156682703"><ele>182.0</ele><time>2026-04-04T12:24:39Z</time></trkpt><trkpt lat="45.782629568731245" lon="10.053436033453067"><ele>192.33333333333331</ele><time>2026-04-04T12:24:40Z</time></trkpt><trkpt lat="45.78270044986826" lon="10.05350218728899"><ele>202.66666666666666</ele><time>2026-04-04T12:24:41Z</time></trkpt><trkpt lat="45.782770351079186" lon="10.053565665802324"><ele>213.0</ele><time>2026-04-04T12:24:42Z</time></trkpt><trkpt lat="45.78283371986785" lon="10.053629389583048"><ele>223.33333333333331</ele><time>2026-04-04T12:24:43Z</time></trkpt><trkpt lat="45.782891829080846" lon="10.053699141588442"><ele>233.66666666666666</ele><time>2026-04-04T12:24:44Z</time></trkpt><trkpt lat="45.78293904524558" lon="10.053783611223329"><ele>244.0</ele><time>2026-04-04T12:24:45Z</time></trkpt><trkpt lat="45.78295779214726" lon="10.053887282479781"><ele>243.99999999999997</ele><time>2026-04-04T12:24:46Z</time></trkpt><trkpt lat="45.782945527050565" lon="10.053996259251326"><ele>244.0</ele><time>2026-04-04T12:24:47Z</time></trkpt><trkpt lat="45.782912097035094" lon="10.0540997547327"><ele>243.99999999999997</ele><time>2026-04-04T12:24:48Z</time></trkpt><trkpt lat="45.782876996061866" lon="10.054197674749123"><ele>243.99999999999997</ele><time>2026-04-04T12:24:49Z</time></trkpt><trkpt lat="45.782843144151684" lon="10.054289795207202"><ele>244.0</ele><time>2026-04-04T12:24:50Z</time></trkpt><trkpt lat="45.78281858194172" lon="10.054381308439249"><ele>243.99999999999997</ele><time>2026-04-04T12:24:51Z</time></trkpt><trkpt lat="45.78281468480073" lon="10.054481601996539"><ele>243.99999999999997</ele><time>2026-04-04T12:24:52Z</time></trkpt><trkpt lat="45.78282485310058" lon="10.054587403999273"><ele>239.49999999999997</ele><time>2026-04-04T12:24:53Z</time></trkpt><trkpt lat="45.78283615865073" lon="10.054693081142364"><ele>235.0</ele><time>2026-04-04T12:24:54Z</time></trkpt><trkpt lat="45.78285212867598" lon="10.0547967530487"><ele>230.5</ele><time>2026-04-04T12:24:55Z</time></trkpt><trkpt lat="45.78287991026291" lon="10.054897895370615"><ele>226.0</ele><time>2026-04-04T12:24:56Z</time></trkpt><trkpt lat="45.78293073635473" lon="10.054987426045964"><ele>221.49999999999997</ele><time>2026-04-04T12:24:57Z</time></trkpt><trkpt lat="45.7830084131213" lon="10.05504673502279"><ele>217.0</ele><time>2026-04-04T12:24:57.999Z</time></trkpt><trkpt lat="45.783093124465225" lon="10.055083827276542"><ele>216.99999999999997</ele><time>2026-04-04T12:24:58.999Z</time></trkpt><trkpt lat="45.783179534498245" lon="10.055101313882641"><ele>217.0</ele><time>2026-04-04T12:24:59.999Z</time></trkpt><trkpt lat="45.78326686631023" lon="10.055095538131225"><ele>217.0</ele><time>2026-04-04T12:25:00.999Z</time></trkpt><trkpt lat="45.78335247967764" lon="10.055059852385517"><ele>217.0</ele><time>2026-04-04T12:25:01.999Z</time></trkpt><trkpt lat="45.78343643188479" lon="10.05501421751143"><ele>216.99999999999997</ele><time>2026-04-04T12:25:02.999Z</time></trkpt><trkpt lat="45.78351587912854" lon="10.054963352216124"><ele>217.0</ele><time>2026-04-04T12:25:03.999Z</time></trkpt><trkpt lat="45.78357975418737" lon="10.054907319005132"><ele>216.99999999999997</ele><time>2026-04-04T12:25:04.999Z</time></trkpt><trkpt lat="45.78364800758498" lon="10.054817839331118"><ele>217.0</ele><time>2026-04-04T12:25:06.999Z</time></trkpt><trkpt lat="45.783692232635744" lon="10.05473151222411"><ele>217.0</ele><time>2026-04-04T12:25:16.999Z</time></trkpt><trkpt lat="45.783736358464104" lon="10.054645499174448"><ele>217.0</ele><time>2026-04-04T12:25:19.999Z</time></trkpt><trkpt lat="45.783784733662955" lon="10.05455550308788"><ele>216.99999999999997</ele><time>2026-04-04T12:25:21.999Z</time></trkpt><trkpt lat="45.783851285260155" lon="10.054459944015626"><ele>217.0</ele><time>2026-04-04T12:25:23.999Z</time></trkpt><trkpt lat="45.78391804579241" lon="10.054340118913524"><ele>216.99999999999997</ele><time>2026-04-04T12:25:25.999Z</time></trkpt><trkpt lat="45.783997148421435" lon="10.054207959026865"><ele>217.0</ele><time>2026-04-04T12:25:27.999Z</time></trkpt><trkpt lat="45.78404267619791" lon="10.054137288935905"><ele>217.0</ele><time>2026-04-04T12:25:28.999Z</time></trkpt><trkpt lat="45.78408078202713" lon="10.054058558472025"><ele>217.0</ele><time>2026-04-04T12:25:29.999Z</time></trkpt><trkpt lat="45.784122775895284" lon="10.053977288931195"><ele>216.99999999999997</ele><time>2026-04-04T12:25:30.999Z</time></trkpt><trkpt lat="45.784162511630385" lon="10.05389124100384"><ele>217.0</ele><time>2026-04-04T12:25:31.999Z</time></trkpt><trkpt lat="45.78420635096596" lon="10.053812893961421"><ele>217.14285714285714</ele><time>2026-04-04T12:25:32.999Z</time></trkpt><trkpt lat="45.784255766133334" lon="10.053735222586267"><ele>217.28571428571428</ele><time>2026-04-04T12:25:33.999Z</time></trkpt><trkpt lat="45.78430028995052" lon="10.053658555073538"><ele>217.42857142857144</ele><time>2026-04-04T12:25:34.999Z</time></trkpt><trkpt lat="45.78435314979388" lon="10.053587024758833"><ele>217.57142857142856</ele><time>2026-04-04T12:25:35.999Z</time></trkpt><trkpt lat="45.7844034804029" lon="10.053514546943573"><ele>217.71428571428572</ele><time>2026-04-04T12:25:36.999Z</time></trkpt><trkpt lat="45.78445307704315" lon="10.053439626741282"><ele>217.85714285714286</ele><time>2026-04-04T12:25:37.999Z</time></trkpt><trkpt lat="45.78450545315488" lon="10.053371741184522"><ele>218.0</ele><time>2026-04-04T12:25:38.999Z</time></trkpt><trkpt lat="45.78456491984029" lon="10.053316671458303"><ele>218.00000000000003</ele><time>2026-04-04T12:25:39.999Z</time></trkpt><trkpt lat="45.784635546050694" lon="10.053311043967696"><ele>218.0</ele><time>2026-04-04T12:25:40.999Z</time></trkpt><trkpt lat="45.78470643057974" lon="10.053355211420204"><ele>218.0</ele><time>2026-04-04T12:25:41.999Z</time></trkpt><trkpt lat="45.78477668246018" lon="10.053403329241103"><ele>218.0</ele><time>2026-04-04T12:25:42.999Z</time></trkpt><trkpt lat="45.78485281375442" lon="10.053406558702953"><ele>218.00000000000003</ele><time>2026-04-04T12:25:43.999Z</time></trkpt><trkpt lat="45.78492968080626" lon="10.053373047687705"><ele>218.0</ele><time>2026-04-04T12:25:44.999Z</time></trkpt><trkpt lat="45.785004840544254" lon="10.053324642053889"><ele>221.00000000000003</ele><time>2026-04-04T12:25:45.999Z</time></trkpt><trkpt lat="45.785082100575536" lon="10.053285757040515"><ele>224.0</ele><time>2026-04-04T12:25:46.999Z</time></trkpt><trkpt lat="45.7851592897282" lon="10.0532523374022"><ele>227.0</ele><time>2026-04-04T12:25:47.999Z</time></trkpt><trkpt lat="45.785239889815884" lon="10.053217082711779"><ele>230.0</ele><time>2026-04-04T12:25:48.999Z</time></trkpt><trkpt lat="45.78532064849574" lon="10.053180666773748"><ele>233.00000000000003</ele><time>2026-04-04T12:25:49.999Z</time></trkpt><trkpt lat="45.785398933319236" lon="10.053138550529649"><ele>236.0</ele><time>2026-04-04T12:25:50.999Z</time></trkpt><trkpt lat="45.78547648136222" lon="10.053086870031436"><ele>236.00000000000003</ele><time>2026-04-04T12:25:51.999Z</time></trkpt><trkpt lat="45.785549817755964" lon="10.053027901120963"><ele>236.0</ele><time>2026-04-04T12:25:52.999Z</time></trkpt><trkpt lat="45.785620697998" lon="10.052968534920309"><ele>236.0</ele><time>2026-04-04T12:25:53.999Z</time></trkpt><trkpt lat="45.785694584299826" lon="10.05290948409752"><ele>236.0</ele><time>2026-04-04T12:25:54.999Z</time></trkpt><trkpt lat="45.78576563453041" lon="10.052861105382659"><ele>236.00000000000003</ele><time>2026-04-04T12:25:55.999Z</time></trkpt><trkpt lat="45.785846254226115" lon="10.052837271238849"><ele>236.0</ele><time>2026-04-04T12:25:56.999Z</time></trkpt><trkpt lat="45.78594151765414" lon="10.052845425787712"><ele>236.20000000000002</ele><time>2026-04-04T12:25:57.999Z</time></trkpt><trkpt lat="45.78603274442885" lon="10.052877166732342"><ele>236.40000000000003</ele><time>2026-04-04T12:25:58.998Z</time></trkpt><trkpt lat="45.786120232042144" lon="10.052905195249805"><ele>236.6</ele><time>2026-04-04T12:25:59.998Z</time></trkpt><trkpt lat="45.78620715695089" lon="10.052937130808386"><ele>236.8</ele><time>2026-04-04T12:26:00.998Z</time></trkpt><trkpt lat="45.78629254016793" lon="10.052981659786127"><ele>237.0</ele><time>2026-04-04T12:26:01.998Z</time></trkpt><trkpt lat="45.78637324700085" lon="10.053038217431792"><ele>237.0</ele><time>2026-04-04T12:26:02.998Z</time></trkpt><trkpt lat="45.78645286133139" lon="10.053091645737391"><ele>237.0</ele><time>2026-04-04T12:26:03.998Z</time></trkpt><trkpt lat="45.78653740456122" lon="10.053141513587384"><ele>237.0</ele><time>2026-04-04T12:26:04.998Z</time></trkpt><trkpt lat="45.7866198443901" lon="10.05319540055269"><ele>237.0</ele><time>2026-04-04T12:26:05.998Z</time></trkpt><trkpt lat="45.786704478378454" lon="10.053240779013688"><ele>237.0</ele><time>2026-04-04T12:26:06.998Z</time></trkpt><trkpt lat="45.78679270650729" lon="10.053269405575831"><ele>240.8</ele><time>2026-04-04T12:26:07.998Z</time></trkpt><trkpt lat="45.78688267460275" lon="10.053280449214665"><ele>244.6</ele><time>2026-04-04T12:26:08.998Z</time></trkpt><trkpt lat="45.78697329269488" lon="10.05328400560694"><ele>248.40000000000003</ele><time>2026-04-04T12:26:09.998Z</time></trkpt><trkpt lat="45.78706353592426" lon="10.053273564054663"><ele>252.20000000000002</ele><time>2026-04-04T12:26:10.998Z</time></trkpt><trkpt lat="45.787151162367124" lon="10.053250567018662"><ele>256.0</ele><time>2026-04-04T12:26:11.998Z</time></trkpt><trkpt lat="45.787242365810506" lon="10.053255836470544"><ele>255.99999999999997</ele><time>2026-04-04T12:26:12.998Z</time></trkpt><trkpt lat="45.787329923794644" lon="10.053282804470062"><ele>256.0</ele><time>2026-04-04T12:26:13.998Z</time></trkpt><trkpt lat="45.787416878053826" lon="10.053305488238864"><ele>256.0</ele><time>2026-04-04T12:26:14.998Z</time></trkpt><trkpt lat="45.78750684658534" lon="10.053311067885673"><ele>256.0</ele><time>2026-04-04T12:26:15.998Z</time></trkpt><trkpt lat="45.787594559367015" lon="10.053312156149065"><ele>255.99999999999997</ele><time>2026-04-04T12:26:17Z</time></trkpt><trkpt lat="45.78768282956924" lon="10.05332290741742"><ele>256.0</ele><time>2026-04-04T12:26:18Z</time></trkpt><trkpt lat="45.78777071662272" lon="10.053339595927106"><ele>250.20000000000002</ele><time>2026-04-04T12:26:19Z</time></trkpt><trkpt lat="45.7878584341289" lon="10.05336646297303"><ele>244.40000000000003</ele><time>2026-04-04T12:26:20Z</time></trkpt><trkpt lat="45.78793429598662" lon="10.053437935067238"><ele>238.6</ele><time>2026-04-04T12:26:21Z</time></trkpt><trkpt lat="45.78800987783333" lon="10.053511721050302"><ele>232.8</ele><time>2026-04-04T12:26:22Z</time></trkpt><trkpt lat="45.78808339192704" lon="10.053582917611156"><ele>227.0</ele><time>2026-04-04T12:26:23Z</time></trkpt><trkpt lat="45.788157184563175" lon="10.053655538890618"><ele>227.0</ele><time>2026-04-04T12:26:24Z</time></trkpt><trkpt lat="45.78823340728241" lon="10.053721907031514"><ele>227.0</ele><time>2026-04-04T12:26:25Z</time></trkpt><trkpt lat="45.78831244350519" lon="10.053778377387047"><ele>227.0</ele><time>2026-04-04T12:26:26Z</time></trkpt><trkpt lat="45.7883942586137" lon="10.053836456205074"><ele>227.0</ele><time>2026-04-04T12:26:27Z</time></trkpt><trkpt lat="45.78847763791826" lon="10.0538969417235"><ele>227.0</ele><time>2026-04-04T12:26:28Z</time></trkpt><trkpt lat="45.78856085864392" lon="10.053950872620694"><ele>222.8</ele><time>2026-04-04T12:26:29Z</time></trkpt><trkpt lat="45.78864455258723" lon="10.054007828311697"><ele>218.6</ele><time>2026-04-04T12:26:30Z</time></trkpt><trkpt lat="45.78873035461224" lon="10.054063405362962"><ele>214.4</ele><time>2026-04-04T12:26:31Z</time></trkpt><trkpt lat="45.7888154562586" lon="10.054118623720935"><ele>210.20000000000002</ele><time>2026-04-04T12:26:32Z</time></trkpt><trkpt lat="45.7889021808723" lon="10.054165380908348"><ele>206.0</ele><time>2026-04-04T12:26:33Z</time></trkpt><trkpt lat="45.788991141091564" lon="10.054207210986087"><ele>206.0</ele><time>2026-04-04T12:26:34Z</time></trkpt><trkpt lat="45.789080340152346" lon="10.054244613984613"><ele>206.0</ele><time>2026-04-04T12:26:35Z</time></trkpt><trkpt lat="45.78916863799047" lon="10.054281661087854"><ele>206.0</ele><time>2026-04-04T12:26:36Z</time></trkpt><trkpt lat="45.78925637385366" lon="10.054318712790922"><ele>206.0</ele><time>2026-04-04T12:26:37Z</time></trkpt><trkpt lat="45.78934971479792" lon="10.05436020089524"><ele>206.0</ele><time>2026-04-04T12:26:38Z</time></trkpt><trkpt lat="45.78944255671429" lon="10.054402414123242"><ele>211.60000000000002</ele><time>2026-04-04T12:26:39Z</time></trkpt><trkpt lat="45.789534129532136" lon="10.054443149340852"><ele>217.2</ele><time>2026-04-04T12:26:40Z</time></trkpt><trkpt lat="45.789623803550974" lon="10.05448927559347"><ele>222.79999999999998</ele><time>2026-04-04T12:26:41Z</time></trkpt><trkpt lat="45.78970985122678" lon="10.054545854175956"><ele>228.39999999999998</ele><time>2026-04-04T12:26:42Z</time></trkpt><trkpt lat="45.789785442148194" lon="10.054624922361814"><ele>234.0</ele><time>2026-04-04T12:26:43Z</time></trkpt><trkpt lat="45.78985824094908" lon="10.054712367543528"><ele>234.0</ele><time>2026-04-04T12:26:44Z</time></trkpt><trkpt lat="45.78992881757874" lon="10.054802620280793"><ele>233.99999999999997</ele><time>2026-04-04T12:26:45Z</time></trkpt><trkpt lat="45.79000332501796" lon="10.054892523947107"><ele>233.99999999999997</ele><time>2026-04-04T12:26:46Z</time></trkpt><trkpt lat="45.79007990575162" lon="10.054978815502944"><ele>234.0</ele><time>2026-04-04T12:26:47Z</time></trkpt><trkpt lat="45.79016363122264" lon="10.055048832620182"><ele>234.0</ele><time>2026-04-04T12:26:48Z</time></trkpt><trkpt lat="45.79025118070795" lon="10.055101665625484"><ele>227.79999999999998</ele><time>2026-04-04T12:26:49Z</time></trkpt><trkpt lat="45.79034084001969" lon="10.055146600617007"><ele>221.59999999999997</ele><time>2026-04-04T12:26:50Z</time></trkpt><trkpt lat="45.790427764314444" lon="10.055191178650945"><ele>215.4</ele><time>2026-04-04T12:26:51Z</time></trkpt><trkpt lat="45.79051785405409" lon="10.055230757088044"><ele>209.2</ele><time>2026-04-04T12:26:52Z</time></trkpt><trkpt lat="45.79060752301154" lon="10.055273539427036"><ele>203.0</ele><time>2026-04-04T12:26:53Z</time></trkpt><trkpt lat="45.790696718229896" lon="10.055325540034078"><ele>203.0</ele><time>2026-04-04T12:26:54Z</time></trkpt><trkpt lat="45.79078801010366" lon="10.055382950912627"><ele>203.0</ele><time>2026-04-04T12:26:55Z</time></trkpt><trkpt lat="45.790875313270305" lon="10.05543985481601"><ele>203.0</ele><time>2026-04-04T12:26:56Z</time></trkpt><trkpt lat="45.79096373454304" lon="10.055495511027638"><ele>203.0</ele><time>2026-04-04T12:26:57Z</time></trkpt><trkpt lat="45.79105323703444" lon="10.05554031491111"><ele>203.0</ele><time>2026-04-04T12:26:58Z</time></trkpt><trkpt lat="45.791144883288844" lon="10.055586916936784"><ele>205.0</ele><time>2026-04-04T12:26:59Z</time></trkpt><trkpt lat="45.79123762571753" lon="10.055624515803547"><ele>207.0</ele><time>2026-04-04T12:26:59.999Z</time></trkpt><trkpt lat="45.791331406123376" lon="10.055654166321341"><ele>209.0</ele><time>2026-04-04T12:27:00.999Z</time></trkpt><trkpt lat="45.79142761665115" lon="10.05567792544076"><ele>211.0</ele><time>2026-04-04T12:27:01.999Z</time></trkpt><trkpt lat="45.79152608742296" lon="10.055688080880861"><ele>213.0</ele><time>2026-04-04T12:27:02.999Z</time></trkpt><trkpt lat="45.791625541132916" lon="10.055689601237466"><ele>213.0</ele><time>2026-04-04T12:27:03.999Z</time></trkpt><trkpt lat="45.79172430048592" lon="10.055686925492067"><ele>213.0</ele><time>2026-04-04T12:27:04.999Z</time></trkpt><trkpt lat="45.791823871963246" lon="10.055688298447041"><ele>213.0</ele><time>2026-04-04T12:27:05.999Z</time></trkpt><trkpt lat="45.79192533479968" lon="10.05568512180467"><ele>213.0</ele><time>2026-04-04T12:27:06.999Z</time></trkpt><trkpt lat="45.792024837085684" lon="10.055683277895529"><ele>213.0</ele><time>2026-04-04T12:27:07.999Z</time></trkpt><trkpt lat="45.792125180639275" lon="10.055680965789778"><ele>215.60000000000002</ele><time>2026-04-04T12:27:08.999Z</time></trkpt><trkpt lat="45.7922250914043" lon="10.055674497923912"><ele>218.20000000000002</ele><time>2026-04-04T12:27:09.999Z</time></trkpt><trkpt lat="45.79232674468083" lon="10.055672274268174"><ele>220.8</ele><time>2026-04-04T12:27:10.999Z</time></trkpt><trkpt lat="45.79242849827784" lon="10.055681533306817"><ele>223.4</ele><time>2026-04-04T12:27:11.999Z</time></trkpt><trkpt lat="45.792531376847805" lon="10.055709293121721"><ele>226.0</ele><time>2026-04-04T12:27:12.999Z</time></trkpt><trkpt lat="45.79263024311296" lon="10.055743398836585"><ele>224.0</ele><time>2026-04-04T12:27:13.999Z</time></trkpt><trkpt lat="45.79272403285689" lon="10.055796998245619"><ele>222.00000000000003</ele><time>2026-04-04T12:27:14.999Z</time></trkpt><trkpt lat="45.79280756722644" lon="10.055860234215773"><ele>220.00000000000003</ele><time>2026-04-04T12:27:15.999Z</time></trkpt><trkpt lat="45.79288619675278" lon="10.055960828364876"><ele>218.0</ele><time>2026-04-04T12:27:16.999Z</time></trkpt><trkpt lat="45.79295630925287" lon="10.056065293235408"><ele>216.0</ele><time>2026-04-04T12:27:17.999Z</time></trkpt><trkpt lat="45.79302283101784" lon="10.056167718248028"><ele>216.0</ele><time>2026-04-04T12:27:18.999Z</time></trkpt><trkpt lat="45.79309256564287" lon="10.05626827193747"><ele>216.00000000000003</ele><time>2026-04-04T12:27:19.999Z</time></trkpt><trkpt lat="45.79316090008812" lon="10.056364172980786"><ele>216.00000000000003</ele><time>2026-04-04T12:27:20.999Z</time></trkpt><trkpt lat="45.79322839894517" lon="10.056459000366953"><ele>216.0</ele><time>2026-04-04T12:27:21.999Z</time></trkpt><trkpt lat="45.793295679511544" lon="10.056558515781592"><ele>216.0</ele><time>2026-04-04T12:27:22.999Z</time></trkpt><trkpt lat="45.793361199985895" lon="10.056659103682037"><ele>211.8</ele><time>2026-04-04T12:27:23.999Z</time></trkpt><trkpt lat="45.793426846776725" lon="10.056759694909228"><ele>207.60000000000002</ele><time>2026-04-04T12:27:24.999Z</time></trkpt><trkpt lat="45.793491012728985" lon="10.056864078890907"><ele>203.4</ele><time>2026-04-04T12:27:25.999Z</time></trkpt><trkpt lat="45.7935529709641" lon="10.056971582389592"><ele>199.2</ele><time>2026-04-04T12:27:26.999Z</time></trkpt><trkpt lat="45.79361885991276" lon="10.057076149182256"><ele>195.0</ele><time>2026-04-04T12:27:27.999Z</time></trkpt><trkpt lat="45.79368216577243" lon="10.057186462031915"><ele>199.4</ele><time>2026-04-04T12:27:28.999Z</time></trkpt><trkpt lat="45.79374209427768" lon="10.057297287268351"><ele>203.8</ele><time>2026-04-04T12:27:29.999Z</time></trkpt><trkpt lat="45.79380126017782" lon="10.057407511425627"><ele>208.2</ele><time>2026-04-04T12:27:30.999Z</time></trkpt><trkpt lat="45.793857252580345" lon="10.05752322728309"><ele>212.6</ele><time>2026-04-04T12:27:31.999Z</time></trkpt><trkpt lat="45.79390885292141" lon="10.057640531626806"><ele>217.0</ele><time>2026-04-04T12:27:32.999Z</time></trkpt><trkpt lat="45.79396149587002" lon="10.05775844263864"><ele>217.0</ele><time>2026-04-04T12:27:33.999Z</time></trkpt><trkpt lat="45.79401692246199" lon="10.057876524594887"><ele>217.0</ele><time>2026-04-04T12:27:34.999Z</time></trkpt><trkpt lat="45.7940743566354" lon="10.057992710827516"><ele>217.0</ele><time>2026-04-04T12:27:35.999Z</time></trkpt><trkpt lat="45.794132733860714" lon="10.058104092520917"><ele>217.0</ele><time>2026-04-04T12:27:36.999Z</time></trkpt><trkpt lat="45.79419365527978" lon="10.058213790526004"><ele>217.0</ele><time>2026-04-04T12:27:37.999Z</time></trkpt><trkpt lat="45.794257686738874" lon="10.058321058273837"><ele>217.0</ele><time>2026-04-04T12:27:38.999Z</time></trkpt><trkpt lat="45.79432104086641" lon="10.058424217672536"><ele>217.0</ele><time>2026-04-04T12:27:39.999Z</time></trkpt><trkpt lat="45.7943842778282" lon="10.058525727888119"><ele>217.0</ele><time>2026-04-04T12:27:40.999Z</time></trkpt><trkpt lat="45.7944625622232" lon="10.05861379391543"><ele>217.0</ele><time>2026-04-04T12:27:41.999Z</time></trkpt><trkpt lat="45.79454007764437" lon="10.058661892845418"><ele>217.0</ele><time>2026-04-04T12:27:42.999Z</time></trkpt><trkpt lat="45.794639018102345" lon="10.058652134305145"><ele>217.0</ele><time>2026-04-04T12:27:43.999Z</time></trkpt><trkpt lat="45.79473391893063" lon="10.058620884595468"><ele>217.0</ele><time>2026-04-04T12:27:44.999Z</time></trkpt><trkpt lat="45.79482560791753" lon="10.058588507775784"><ele>217.0</ele><time>2026-04-04T12:27:45.999Z</time></trkpt><trkpt lat="45.79491567765899" lon="10.058569402594223"><ele>217.0</ele><time>2026-04-04T12:27:46.999Z</time></trkpt><trkpt lat="45.79499900453998" lon="10.058538754627618"><ele>217.0</ele><time>2026-04-04T12:27:47.999Z</time></trkpt><trkpt lat="45.79507700798905" lon="10.058492812922934"><ele>216.99999999999997</ele><time>2026-04-04T12:27:48.999Z</time></trkpt><trkpt lat="45.7951500531287" lon="10.058428902548108"><ele>217.0</ele><time>2026-04-04T12:27:49.999Z</time></trkpt><trkpt lat="45.79522438976429" lon="10.058372980305148"><ele>217.0</ele><time>2026-04-04T12:27:50.999Z</time></trkpt><trkpt lat="45.79530788656201" lon="10.058349018295235"><ele>217.0</ele><time>2026-04-04T12:27:51.999Z</time></trkpt><trkpt lat="45.795393297029385" lon="10.058352556472398"><ele>216.99999999999997</ele><time>2026-04-04T12:27:52.999Z</time></trkpt><trkpt lat="45.79547496331653" lon="10.058365413665376"><ele>217.0</ele><time>2026-04-04T12:27:53.999Z</time></trkpt><trkpt lat="45.795548910444985" lon="10.058404255567776"><ele>219.33333333333331</ele><time>2026-04-04T12:27:54.999Z</time></trkpt><trkpt lat="45.795605005319786" lon="10.058489817593847"><ele>221.66666666666666</ele><time>2026-04-04T12:27:55.999Z</time></trkpt><trkpt lat="45.795674655963964" lon="10.058547233582134"><ele>224.0</ele><time>2026-04-04T12:27:56.999Z</time></trkpt><trkpt lat="45.795738667462565" lon="10.058611416587352"><ele>226.33333333333331</ele><time>2026-04-04T12:27:57.999Z</time></trkpt><trkpt lat="45.7958171888346" lon="10.058641528479713"><ele>228.66666666666666</ele><time>2026-04-04T12:27:58.999Z</time></trkpt><trkpt lat="45.79589345628563" lon="10.058662924131578"><ele>231.0</ele><time>2026-04-04T12:27:59.998Z</time></trkpt><trkpt lat="45.79597088532138" lon="10.058674314157642"><ele>236.20000000000002</ele><time>2026-04-04T12:28:00.998Z</time></trkpt><trkpt lat="45.79604944755283" lon="10.058663367116315"><ele>241.40000000000003</ele><time>2026-04-04T12:28:01.998Z</time></trkpt><trkpt lat="45.79612863162326" lon="10.058651670662412"><ele>246.6</ele><time>2026-04-04T12:28:02.998Z</time></trkpt><trkpt lat="45.79621508823414" lon="10.05867615561178"><ele>251.8</ele><time>2026-04-04T12:28:03.998Z</time></trkpt><trkpt lat="45.796361138117106" lon="10.05871090286105"><ele>257.0</ele><time>2026-04-04T12:28:05.998Z</time></trkpt><trkpt lat="45.79644384399957" lon="10.058741338987758"><ele>257.0</ele><time>2026-04-04T12:28:06.998Z</time></trkpt><trkpt lat="45.796523578853936" lon="10.058763622458848"><ele>257.0</ele><time>2026-04-04T12:28:07.998Z</time></trkpt><trkpt lat="45.79660252564611" lon="10.058775299865923"><ele>257.0</ele><time>2026-04-04T12:28:08.998Z</time></trkpt><trkpt lat="45.796682713232514" lon="10.058795185781458"><ele>257.0</ele><time>2026-04-04T12:28:09.998Z</time></trkpt><trkpt lat="45.79676567519475" lon="10.058818689091112"><ele>257.0</ele><time>2026-04-04T12:28:10.998Z</time></trkpt><trkpt lat="45.79684536703651" lon="10.058842593820941"><ele>257.0</ele><time>2026-04-04T12:28:11.998Z</time></trkpt><trkpt lat="45.79692487917524" lon="10.058868355726458"><ele>262.1666666666667</ele><time>2026-04-04T12:28:12.998Z</time></trkpt><trkpt lat="45.79699941457565" lon="10.058908964987562"><ele>267.33333333333337</ele><time>2026-04-04T12:28:13.998Z</time></trkpt><trkpt lat="45.79706996387967" lon="10.058952164030119"><ele>272.5</ele><time>2026-04-04T12:28:14.998Z</time></trkpt><trkpt lat="45.79713995210597" lon="10.058963569889563"><ele>277.6666666666667</ele><time>2026-04-04T12:28:15.998Z</time></trkpt><trkpt lat="45.797210665546544" lon="10.058915846134786"><ele>282.8333333333333</ele><time>2026-04-04T12:28:16.998Z</time></trkpt><trkpt lat="45.79726941298957" lon="10.058821964837417"><ele>288.0</ele><time>2026-04-04T12:28:17.998Z</time></trkpt><trkpt lat="45.797314121496754" lon="10.058717008124278"><ele>288.0</ele><time>2026-04-04T12:28:18.998Z</time></trkpt><trkpt lat="45.797360134027194" lon="10.058624066555735"><ele>288.0</ele><time>2026-04-04T12:28:19.998Z</time></trkpt><trkpt lat="45.79742207175337" lon="10.058553737935972"><ele>288.0</ele><time>2026-04-04T12:28:20.998Z</time></trkpt><trkpt lat="45.79749151970719" lon="10.058493283748941"><ele>288.0</ele><time>2026-04-04T12:28:21.998Z</time></trkpt><trkpt lat="45.79755949474868" lon="10.058432581009027"><ele>288.0</ele><time>2026-04-04T12:28:23Z</time></trkpt><trkpt lat="45.79762703074375" lon="10.058377079632535"><ele>288.0</ele><time>2026-04-04T12:28:24Z</time></trkpt><trkpt lat="45.79769786738383" lon="10.058321404186826"><ele>301.0</ele><time>2026-04-04T12:28:25Z</time></trkpt><trkpt lat="45.79776223580892" lon="10.058254612622795"><ele>314.0</ele><time>2026-04-04T12:28:26Z</time></trkpt><trkpt lat="45.79781815031846" lon="10.058167898742186"><ele>327.0</ele><time>2026-04-04T12:28:27Z</time></trkpt><trkpt lat="45.79786748213208" lon="10.05807394896381"><ele>340.0</ele><time>2026-04-04T12:28:28Z</time></trkpt><trkpt lat="45.79793060363016" lon="10.058003612633675"><ele>353.0</ele><time>2026-04-04T12:28:29Z</time></trkpt><trkpt lat="45.79801400485262" lon="10.057974455279183"><ele>366.0</ele><time>2026-04-04T12:28:30Z</time></trkpt><trkpt lat="45.79809758168143" lon="10.057958372023702"><ele>366.0</ele><time>2026-04-04T12:28:31Z</time></trkpt><trkpt lat="45.7981810268807" lon="10.057939004073083"><ele>366.0</ele><time>2026-04-04T12:28:32Z</time></trkpt><trkpt lat="45.79826126986917" lon="10.057909016975259"><ele>366.0</ele><time>2026-04-04T12:28:33Z</time></trkpt><trkpt lat="45.798341733437375" lon="10.057879163141749"><ele>366.0</ele><time>2026-04-04T12:28:34Z</time></trkpt><trkpt lat="45.79842281570899" lon="10.057859663411046"><ele>366.0</ele><time>2026-04-04T12:28:35Z</time></trkpt><trkpt lat="45.798502626853555" lon="10.05782541918947"><ele>366.0</ele><time>2026-04-04T12:28:36Z</time></trkpt><trkpt lat="45.79857891893295" lon="10.057780375038467"><ele>376.1666666666667</ele><time>2026-04-04T12:28:37Z</time></trkpt><trkpt lat="45.7986522548098" lon="10.05771896379658"><ele>386.33333333333337</ele><time>2026-04-04T12:28:38Z</time></trkpt><trkpt lat="45.798721467610115" lon="10.057654973391843"><ele>396.5</ele><time>2026-04-04T12:28:39Z</time></trkpt><trkpt lat="45.79879330201689" lon="10.057593765846955"><ele>406.6666666666667</ele><time>2026-04-04T12:28:40Z</time></trkpt><trkpt lat="45.798868872424904" lon="10.057535990183753"><ele>416.83333333333337</ele><time>2026-04-04T12:28:41Z</time></trkpt><trkpt lat="45.798947419571704" lon="10.057480136694977"><ele>427.0</ele><time>2026-04-04T12:28:42Z</time></trkpt><trkpt lat="45.79902324229998" lon="10.057426038496814"><ele>427.00000000000006</ele><time>2026-04-04T12:28:43Z</time></trkpt><trkpt lat="45.79910009219888" lon="10.057372491589698"><ele>427.0</ele><time>2026-04-04T12:28:44Z</time></trkpt><trkpt lat="45.79917243335315" lon="10.057312235863877"><ele>427.0</ele><time>2026-04-04T12:28:45Z</time></trkpt><trkpt lat="45.799250839764355" lon="10.057262248389335"><ele>427.0</ele><time>2026-04-04T12:28:46Z</time></trkpt><trkpt lat="45.79932308716584" lon="10.057209582392968"><ele>427.00000000000006</ele><time>2026-04-04T12:28:47Z</time></trkpt><trkpt lat="45.79939162841186" lon="10.057142887368393"><ele>427.0</ele><time>2026-04-04T12:28:48Z</time></trkpt><trkpt lat="45.79946063509902" lon="10.057072077071089"><ele>421.50000000000006</ele><time>2026-04-04T12:28:49Z</time></trkpt><trkpt lat="45.79953425058947" lon="10.05701571532765"><ele>416.0</ele><time>2026-04-04T12:28:50Z</time></trkpt><trkpt lat="45.799609273683814" lon="10.056964519221795"><ele>410.5</ele><time>2026-04-04T12:28:51Z</time></trkpt><trkpt lat="45.799679765805806" lon="10.056907644937558"><ele>405.0</ele><time>2026-04-04T12:28:52Z</time></trkpt><trkpt lat="45.79974941425278" lon="10.056856111328635"><ele>399.50000000000006</ele><time>2026-04-04T12:28:53Z</time></trkpt><trkpt lat="45.79981489364429" lon="10.056794272461268"><ele>394.0</ele><time>2026-04-04T12:28:54Z</time></trkpt><trkpt lat="45.79988617072668" lon="10.056749456877574"><ele>394.00000000000006</ele><time>2026-04-04T12:28:55Z</time></trkpt><trkpt lat="45.79995968393697" lon="10.056711771693415"><ele>394.0</ele><time>2026-04-04T12:28:56Z</time></trkpt><trkpt lat="45.80003648999204" lon="10.056676206982843"><ele>394.0</ele><time>2026-04-04T12:28:57Z</time></trkpt><trkpt lat="45.80011508574133" lon="10.056654962191477"><ele>394.0</ele><time>2026-04-04T12:28:58Z</time></trkpt><trkpt lat="45.80019809585543" lon="10.056661740009163"><ele>394.00000000000006</ele><time>2026-04-04T12:28:59Z</time></trkpt><trkpt lat="45.80027992220809" lon="10.05667308239256"><ele>394.0</ele><time>2026-04-04T12:29:00Z</time></trkpt><trkpt lat="45.80036078445497" lon="10.056681064948418"><ele>390.6666666666667</ele><time>2026-04-04T12:29:01Z</time></trkpt><trkpt lat="45.80044116811376" lon="10.056681842960534"><ele>387.33333333333337</ele><time>2026-04-04T12:29:01.999Z</time></trkpt><trkpt lat="45.8005201863533" lon="10.056688237702687"><ele>384.0</ele><time>2026-04-04T12:29:02.999Z</time></trkpt><trkpt lat="45.80060035468586" lon="10.056679282156372"><ele>380.6666666666667</ele><time>2026-04-04T12:29:03.999Z</time></trkpt><trkpt lat="45.80067943482653" lon="10.056676659622799"><ele>377.33333333333337</ele><time>2026-04-04T12:29:04.999Z</time></trkpt><trkpt lat="45.80075963190749" lon="10.056682628944396"><ele>374.0</ele><time>2026-04-04T12:29:05.999Z</time></trkpt><trkpt lat="45.80083496835689" lon="10.056714554266739"><ele>374.0</ele><time>2026-04-04T12:29:06.999Z</time></trkpt><trkpt lat="45.80090968494807" lon="10.0567550349496"><ele>374.0</ele><time>2026-04-04T12:29:07.999Z</time></trkpt><trkpt lat="45.8009826630141" lon="10.056799885151781"><ele>374.0</ele><time>2026-04-04T12:29:08.999Z</time></trkpt><trkpt lat="45.80105746038821" lon="10.056825569714904"><ele>374.0</ele><time>2026-04-04T12:29:09.999Z</time></trkpt><trkpt lat="45.80113045676949" lon="10.0568518473106"><ele>374.0</ele><time>2026-04-04T12:29:10.999Z</time></trkpt><trkpt lat="45.80120283016242" lon="10.056901003754396"><ele>374.0</ele><time>2026-04-04T12:29:11.999Z</time></trkpt><trkpt lat="45.80127172965561" lon="10.056947350495376"><ele>374.0</ele><time>2026-04-04T12:29:12.999Z</time></trkpt><trkpt lat="45.80133371083535" lon="10.057015756867266"><ele>374.0</ele><time>2026-04-04T12:29:13.999Z</time></trkpt><trkpt lat="45.80138730766081" lon="10.057093742622"><ele>374.0</ele><time>2026-04-04T12:29:14.999Z</time></trkpt><trkpt lat="45.801438759628084" lon="10.057184367900312"><ele>374.0</ele><time>2026-04-04T12:29:15.999Z</time></trkpt><trkpt lat="45.80148992814029" lon="10.057263571631646"><ele>374.0</ele><time>2026-04-04T12:29:16.999Z</time></trkpt><trkpt lat="45.80153616985646" lon="10.057349504575484"><ele>374.0</ele><time>2026-04-04T12:29:17.999Z</time></trkpt><trkpt lat="45.801584364372324" lon="10.057437562229788"><ele>369.1428571428571</ele><time>2026-04-04T12:29:18.999Z</time></trkpt><trkpt lat="45.80165951249573" lon="10.057468859405438"><ele>364.28571428571433</ele><time>2026-04-04T12:29:19.999Z</time></trkpt><trkpt lat="45.801723650009755" lon="10.057528124239306"><ele>359.42857142857144</ele><time>2026-04-04T12:29:20.999Z</time></trkpt><trkpt lat="45.80177829102753" lon="10.057588564278229"><ele>354.57142857142856</ele><time>2026-04-04T12:29:21.999Z</time></trkpt><trkpt lat="45.801825667030634" lon="10.057650650680353"><ele>349.71428571428567</ele><time>2026-04-04T12:29:22.999Z</time></trkpt><trkpt lat="45.80187987256435" lon="10.057715217649168"><ele>344.8571428571429</ele><time>2026-04-04T12:29:23.999Z</time></trkpt><trkpt lat="45.801898129199614" lon="10.057838165605897"><ele>340.0</ele><time>2026-04-04T12:29:26.045Z</time></trkpt><trkpt lat="45.80193687389346" lon="10.057969159197276"><ele>335.5</ele><time>2026-04-04T12:29:28.045Z</time></trkpt><trkpt lat="45.802302336253874" lon="10.057810101555676"><ele>331.0</ele><time>2026-04-04T12:29:29.044Z</time></trkpt><trkpt lat="45.80202134051221" lon="10.059444844364096"><ele>235.0</ele><time>2026-04-04T12:29:32.074Z</time></trkpt><trkpt lat="45.802030933433564" lon="10.06015872640013"><ele>235.0</ele><time>2026-04-04T12:29:47.999Z</time></trkpt><trkpt lat="45.80194930051623" lon="10.060492056009153"><ele>235.0</ele><time>2026-04-04T12:29:48.999Z</time></trkpt><trkpt lat="45.80196322758496" lon="10.060625074091554"><ele>235.0</ele><time>2026-04-04T12:29:49.999Z</time></trkpt><trkpt lat="45.8019693398177" lon="10.060764471458077"><ele>235.0</ele><time>2026-04-04T12:29:50.999Z</time></trkpt><trkpt lat="45.80194013228053" lon="10.060876425045"><ele>232.8</ele><time>2026-04-04T12:29:51.999Z</time></trkpt><trkpt lat="45.80186109866043" lon="10.061013627364986"><ele>230.6</ele><time>2026-04-04T12:29:52.999Z</time></trkpt><trkpt lat="45.80182933586664" lon="10.06114288979682"><ele>228.39999999999998</ele><time>2026-04-04T12:29:53.999Z</time></trkpt><trkpt lat="45.80178941285245" lon="10.06125689837713"><ele>226.2</ele><time>2026-04-04T12:29:54.999Z</time></trkpt><trkpt lat="45.80175914980386" lon="10.06137892131751"><ele>224.0</ele><time>2026-04-04T12:29:55.999Z</time></trkpt><trkpt lat="45.80174119059976" lon="10.061505126656709"><ele>219.2</ele><time>2026-04-04T12:29:56.999Z</time></trkpt><trkpt lat="45.80171415150768" lon="10.061643223890936"><ele>214.39999999999998</ele><time>2026-04-04T12:29:57.999Z</time></trkpt><trkpt lat="45.801696455819005" lon="10.061783787340513"><ele>209.6</ele><time>2026-04-04T12:29:58.999Z</time></trkpt><trkpt lat="45.80169184503639" lon="10.061929053235385"><ele>204.8</ele><time>2026-04-04T12:29:59.998Z</time></trkpt><trkpt lat="45.80170762650741" lon="10.062080016378355"><ele>200.0</ele><time>2026-04-04T12:30:00.998Z</time></trkpt><trkpt lat="45.801745228431656" lon="10.06222507911449"><ele>200.0</ele><time>2026-04-04T12:30:01.998Z</time></trkpt><trkpt lat="45.80178621543924" lon="10.062371012571566"><ele>200.0</ele><time>2026-04-04T12:30:02.998Z</time></trkpt><trkpt lat="45.80183703911226" lon="10.06250786767351"><ele>200.0</ele><time>2026-04-04T12:30:03.998Z</time></trkpt><trkpt lat="45.80188723121578" lon="10.062644450930046"><ele>200.0</ele><time>2026-04-04T12:30:04.998Z</time></trkpt><trkpt lat="45.8019302497982" lon="10.062785892697848"><ele>200.0</ele><time>2026-04-04T12:30:05.998Z</time></trkpt><trkpt lat="45.80196698260875" lon="10.062932334518383"><ele>199.5</ele><time>2026-04-04T12:30:06.998Z</time></trkpt><trkpt lat="45.801999636968475" lon="10.063087399271861"><ele>199.0</ele><time>2026-04-04T12:30:07.998Z</time></trkpt><trkpt lat="45.80202727868926" lon="10.063250021340425"><ele>198.5</ele><time>2026-04-04T12:30:08.998Z</time></trkpt><trkpt lat="45.80205927802896" lon="10.063416188418921"><ele>198.0</ele><time>2026-04-04T12:30:09.998Z</time></trkpt><trkpt lat="45.80207861986566" lon="10.06358615862627"><ele>198.0</ele><time>2026-04-04T12:30:10.998Z</time></trkpt><trkpt lat="45.8020797362438" lon="10.06376175959273"><ele>198.0</ele><time>2026-04-04T12:30:11.998Z</time></trkpt><trkpt lat="45.802076278004435" lon="10.063938507297532"><ele>198.0</ele><time>2026-04-04T12:30:12.998Z</time></trkpt><trkpt lat="45.80207608607494" lon="10.064118062532925"><ele>198.0</ele><time>2026-04-04T12:30:13.998Z</time></trkpt><trkpt lat="45.80207776182064" lon="10.064301057593608"><ele>197.75</ele><time>2026-04-04T12:30:14.998Z</time></trkpt><trkpt lat="45.80208052733605" lon="10.06448528092081"><ele>197.5</ele><time>2026-04-04T12:30:15.998Z</time></trkpt><trkpt lat="45.80209491258921" lon="10.064667124260593"><ele>197.25</ele><time>2026-04-04T12:30:16.998Z</time></trkpt><trkpt lat="45.80212634018851" lon="10.06484498362954"><ele>197.0</ele><time>2026-04-04T12:30:17.998Z</time></trkpt><trkpt lat="45.802173753701254" lon="10.065017325467196"><ele>196.5</ele><time>2026-04-04T12:30:18.998Z</time></trkpt><trkpt lat="45.802235202867834" lon="10.065179267915868"><ele>196.0</ele><time>2026-04-04T12:30:19.998Z</time></trkpt><trkpt lat="45.802296427911934" lon="10.065334936176807"><ele>195.5</ele><time>2026-04-04T12:30:20.998Z</time></trkpt><trkpt lat="45.80234944815031" lon="10.065493220311335"><ele>195.0</ele><time>2026-04-04T12:30:21.998Z</time></trkpt><trkpt lat="45.80238271683775" lon="10.065655877947895"><ele>194.6</ele><time>2026-04-04T12:30:22.998Z</time></trkpt><trkpt lat="45.8023962808275" lon="10.065819815740339"><ele>194.2</ele><time>2026-04-04T12:30:23.998Z</time></trkpt><trkpt lat="45.80239521577648" lon="10.065982813651214"><ele>193.8</ele><time>2026-04-04T12:30:24.998Z</time></trkpt><trkpt lat="45.802386055404334" lon="10.066141687789584"><ele>193.4</ele><time>2026-04-04T12:30:25.998Z</time></trkpt><trkpt lat="45.80237289384702" lon="10.066296590921832"><ele>193.0</ele><time>2026-04-04T12:30:26.998Z</time></trkpt><trkpt lat="45.80235337403866" lon="10.066452510809272"><ele>193.0</ele><time>2026-04-04T12:30:28Z</time></trkpt><trkpt lat="45.80232899045133" lon="10.066608003285562"><ele>193.0</ele><time>2026-04-04T12:30:29Z</time></trkpt><trkpt lat="45.80230020406535" lon="10.066763629066626"><ele>193.0</ele><time>2026-04-04T12:30:30Z</time></trkpt><trkpt lat="45.80226979639547" lon="10.06691686815029"><ele>193.0</ele><time>2026-04-04T12:30:31Z</time></trkpt><trkpt lat="45.802245764879025" lon="10.067069856414902"><ele>193.0</ele><time>2026-04-04T12:30:32Z</time></trkpt><trkpt lat="45.8022418126641" lon="10.067220073596516"><ele>192.60000000000002</ele><time>2026-04-04T12:30:33Z</time></trkpt><trkpt lat="45.802257898311126" lon="10.06737054199349"><ele>192.20000000000002</ele><time>2026-04-04T12:30:34Z</time></trkpt><trkpt lat="45.802273103239266" lon="10.067517963132135"><ele>191.8</ele><time>2026-04-04T12:30:35Z</time></trkpt><trkpt lat="45.802284217046235" lon="10.067656933307964"><ele>191.4</ele><time>2026-04-04T12:30:36Z</time></trkpt><trkpt lat="45.80227404329277" lon="10.067788573396077"><ele>191.0</ele><time>2026-04-04T12:30:37Z</time></trkpt><trkpt lat="45.802267148205075" lon="10.067919195494754"><ele>190.83333333333331</ele><time>2026-04-04T12:30:38Z</time></trkpt><trkpt lat="45.802294236334774" lon="10.068022225356069"><ele>190.66666666666666</ele><time>2026-04-04T12:30:39Z</time></trkpt><trkpt lat="45.80233354001094" lon="10.068173227923673"><ele>190.5</ele><time>2026-04-04T12:30:41Z</time></trkpt><trkpt lat="45.802325536062604" lon="10.06828334101124"><ele>190.33333333333334</ele><time>2026-04-04T12:30:44Z</time></trkpt><trkpt lat="45.80236370006401" lon="10.068163087132833"><ele>190.16666666666669</ele><time>2026-04-04T12:30:49Z</time></trkpt><trkpt lat="45.80236530540952" lon="10.068056201128963"><ele>190.0</ele><time>2026-04-04T12:30:52Z</time></trkpt><trkpt lat="45.80242073980204" lon="10.067950867208276"><ele>190.0</ele><time>2026-04-04T12:30:55Z</time></trkpt><trkpt lat="45.8024731226065" lon="10.06787198327741"><ele>190.0</ele><time>2026-04-04T12:30:57Z</time></trkpt><trkpt lat="45.802562919035005" lon="10.067828690823346"><ele>190.0</ele><time>2026-04-04T12:30:59Z</time></trkpt><trkpt lat="45.80266503233795" lon="10.067797420764919"><ele>190.0</ele><time>2026-04-04T12:31:01Z</time></trkpt><trkpt lat="45.80277874605161" lon="10.067756873092014"><ele>190.0</ele><time>2026-04-04T12:31:03Z</time></trkpt><trkpt lat="45.80289880764625" lon="10.067718210682733"><ele>190.2</ele><time>2026-04-04T12:31:04.999Z</time></trkpt><trkpt lat="45.803019721804745" lon="10.067684379500548"><ele>190.4</ele><time>2026-04-04T12:31:06.999Z</time></trkpt><trkpt lat="45.80314627627443" lon="10.067651117663793"><ele>190.60000000000002</ele><time>2026-04-04T12:31:08.999Z</time></trkpt><trkpt lat="45.80326811509683" lon="10.067613157165116"><ele>190.8</ele><time>2026-04-04T12:31:10.999Z</time></trkpt><trkpt lat="45.80332961399891" lon="10.067591825777148"><ele>191.0</ele><time>2026-04-04T12:31:11.999Z</time></trkpt><trkpt lat="45.80339189810385" lon="10.06757248230463"><ele>191.4</ele><time>2026-04-04T12:31:12.999Z</time></trkpt><trkpt lat="45.803507710060046" lon="10.06753943086347"><ele>191.8</ele><time>2026-04-04T12:31:14.999Z</time></trkpt><trkpt lat="45.80357112382548" lon="10.067526479947606"><ele>192.20000000000002</ele><time>2026-04-04T12:31:15.999Z</time></trkpt><trkpt lat="45.80368760143616" lon="10.067489196582427"><ele>192.60000000000002</ele><time>2026-04-04T12:31:17.999Z</time></trkpt><trkpt lat="45.8038102097846" lon="10.067471142371554"><ele>193.0</ele><time>2026-04-04T12:31:19.999Z</time></trkpt><trkpt lat="45.803933927554986" lon="10.067453194068866"><ele>193.0</ele><time>2026-04-04T12:31:21.999Z</time></trkpt><trkpt lat="45.80405613295911" lon="10.067446130507367"><ele>193.0</ele><time>2026-04-04T12:31:23.999Z</time></trkpt><trkpt lat="45.804120617234084" lon="10.067440294717544"><ele>193.0</ele><time>2026-04-04T12:31:24.999Z</time></trkpt><trkpt lat="45.804247646289774" lon="10.067424757747839"><ele>193.0</ele><time>2026-04-04T12:31:26.999Z</time></trkpt><trkpt lat="45.804310799450995" lon="10.067416731462732"><ele>193.0</ele><time>2026-04-04T12:31:27.999Z</time></trkpt><trkpt lat="45.80443535158559" lon="10.067400834745923"><ele>193.49999999999997</ele><time>2026-04-04T12:31:29.999Z</time></trkpt><trkpt lat="45.804499844639345" lon="10.067388945663797"><ele>194.0</ele><time>2026-04-04T12:31:30.999Z</time></trkpt><trkpt lat="45.80462584677733" lon="10.067372272120478"><ele>194.5</ele><time>2026-04-04T12:31:32.999Z</time></trkpt><trkpt lat="45.8046909299146" lon="10.067366725171611"><ele>195.0</ele><time>2026-04-04T12:31:33.999Z</time></trkpt><trkpt lat="45.80475720920949" lon="10.067361460006492"><ele>195.49999999999997</ele><time>2026-04-04T12:31:34.999Z</time></trkpt><trkpt lat="45.80482407067645" lon="10.06736316549519"><ele>196.0</ele><time>2026-04-04T12:31:35.999Z</time></trkpt><trkpt lat="45.80488924169582" lon="10.06736576698274"><ele>196.0</ele><time>2026-04-04T12:31:36.999Z</time></trkpt><trkpt lat="45.80495879752999" lon="10.067353084483432"><ele>196.0</ele><time>2026-04-04T12:31:37.999Z</time></trkpt><trkpt lat="45.80502698965578" lon="10.06733076416788"><ele>196.0</ele><time>2026-04-04T12:31:38.999Z</time></trkpt><trkpt lat="45.80509363185371" lon="10.06730659499682"><ele>196.0</ele><time>2026-04-04T12:31:39.999Z</time></trkpt><trkpt lat="45.80516386050793" lon="10.06728678851689"><ele>196.0</ele><time>2026-04-04T12:31:40.999Z</time></trkpt><trkpt lat="45.80523637195872" lon="10.067277907072755"><ele>196.0</ele><time>2026-04-04T12:31:41.999Z</time></trkpt><trkpt lat="45.805310693175706" lon="10.067280213502318"><ele>196.0</ele><time>2026-04-04T12:31:42.999Z</time></trkpt><trkpt lat="45.80538587058126" lon="10.067295177479236"><ele>196.49999999999997</ele><time>2026-04-04T12:31:43.999Z</time></trkpt><trkpt lat="45.805463478511314" lon="10.067304566985344"><ele>197.0</ele><time>2026-04-04T12:31:44.999Z</time></trkpt><trkpt lat="45.805541524707124" lon="10.067317965228433"><ele>197.5</ele><time>2026-04-04T12:31:45.999Z</time></trkpt><trkpt lat="45.80561985295895" lon="10.067330193023482"><ele>198.0</ele><time>2026-04-04T12:31:46.999Z</time></trkpt><trkpt lat="45.80569851078641" lon="10.067350390833871"><ele>198.49999999999997</ele><time>2026-04-04T12:31:47.999Z</time></trkpt><trkpt lat="45.80577782610655" lon="10.067375295243767"><ele>199.0</ele><time>2026-04-04T12:31:48.999Z</time></trkpt><trkpt lat="45.80585206541437" lon="10.067406538252193"><ele>198.99999999999997</ele><time>2026-04-04T12:31:49.999Z</time></trkpt><trkpt lat="45.805931161602125" lon="10.067432827296097"><ele>199.0</ele><time>2026-04-04T12:31:50.999Z</time></trkpt><trkpt lat="45.80601169375469" lon="10.06745641400863"><ele>199.0</ele><time>2026-04-04T12:31:51.999Z</time></trkpt><trkpt lat="45.80608733141287" lon="10.067471723418198"><ele>199.0</ele><time>2026-04-04T12:31:52.999Z</time></trkpt><trkpt lat="45.80616328853143" lon="10.06748699120886"><ele>198.99999999999997</ele><time>2026-04-04T12:31:53.999Z</time></trkpt><trkpt lat="45.80623951213325" lon="10.067511173917103"><ele>199.0</ele><time>2026-04-04T12:31:54.999Z</time></trkpt><trkpt lat="45.806317179803344" lon="10.06753676856513"><ele>198.66666666666666</ele><time>2026-04-04T12:31:55.999Z</time></trkpt><trkpt lat="45.80639904691644" lon="10.067558473939132"><ele>198.33333333333331</ele><time>2026-04-04T12:31:56.999Z</time></trkpt><trkpt lat="45.80647983163538" lon="10.067575964476562"><ele>198.0</ele><time>2026-04-04T12:31:57.999Z</time></trkpt><trkpt lat="45.806563029132406" lon="10.067597827597929"><ele>197.66666666666669</ele><time>2026-04-04T12:31:58.999Z</time></trkpt><trkpt lat="45.806645060134095" lon="10.067618961748218"><ele>197.33333333333334</ele><time>2026-04-04T12:31:59.999Z</time></trkpt><trkpt lat="45.80672667464143" lon="10.067640166627534"><ele>197.0</ele><time>2026-04-04T12:32:00.998Z</time></trkpt><trkpt lat="45.80681104472" lon="10.067662856566306"><ele>198.00000000000003</ele><time>2026-04-04T12:32:01.998Z</time></trkpt><trkpt lat="45.806892099241956" lon="10.067683822274763"><ele>199.0</ele><time>2026-04-04T12:32:02.998Z</time></trkpt><trkpt lat="45.806975442017624" lon="10.067708246198418"><ele>200.0</ele><time>2026-04-04T12:32:03.998Z</time></trkpt><trkpt lat="45.80705695304639" lon="10.067733813010898"><ele>201.0</ele><time>2026-04-04T12:32:04.998Z</time></trkpt><trkpt lat="45.80713744761064" lon="10.067756271068253"><ele>202.00000000000003</ele><time>2026-04-04T12:32:05.998Z</time></trkpt><trkpt lat="45.80721859470368" lon="10.067783181113887"><ele>203.0</ele><time>2026-04-04T12:32:06.998Z</time></trkpt><trkpt lat="45.80729927095343" lon="10.067806424730449"><ele>203.00000000000003</ele><time>2026-04-04T12:32:07.998Z</time></trkpt><trkpt lat="45.80737987162879" lon="10.067828476827195"><ele>203.0</ele><time>2026-04-04T12:32:08.998Z</time></trkpt><trkpt lat="45.807460395279456" lon="10.067848677471531"><ele>203.0</ele><time>2026-04-04T12:32:09.998Z</time></trkpt><trkpt lat="45.80753736821469" lon="10.067868146512623"><ele>203.0</ele><time>2026-04-04T12:32:10.998Z</time></trkpt><trkpt lat="45.80761610302387" lon="10.067890788431423"><ele>203.00000000000003</ele><time>2026-04-04T12:32:11.998Z</time></trkpt><trkpt lat="45.80769499641237" lon="10.067913058075275"><ele>203.0</ele><time>2026-04-04T12:32:12.998Z</time></trkpt><trkpt lat="45.80777356137076" lon="10.067932897825024"><ele>204.50000000000003</ele><time>2026-04-04T12:32:13.998Z</time></trkpt><trkpt lat="45.80784997836982" lon="10.067949044825133"><ele>206.0</ele><time>2026-04-04T12:32:14.998Z</time></trkpt><trkpt lat="45.80792627287718" lon="10.067974961235565"><ele>207.5</ele><time>2026-04-04T12:32:15.998Z</time></trkpt><trkpt lat="45.80800830849116" lon="10.06799564428505"><ele>209.0</ele><time>2026-04-04T12:32:16.998Z</time></trkpt><trkpt lat="45.808090153812344" lon="10.068015225270756"><ele>210.50000000000003</ele><time>2026-04-04T12:32:17.998Z</time></trkpt><trkpt lat="45.80817037711049" lon="10.068037015437039"><ele>212.0</ele><time>2026-04-04T12:32:18.998Z</time></trkpt><trkpt lat="45.808251301538235" lon="10.068064835394486"><ele>212.00000000000003</ele><time>2026-04-04T12:32:19.998Z</time></trkpt><trkpt lat="45.80832672470817" lon="10.068089269023856"><ele>212.0</ele><time>2026-04-04T12:32:20.998Z</time></trkpt><trkpt lat="45.80841175465115" lon="10.068110606586764"><ele>212.0</ele><time>2026-04-04T12:32:21.998Z</time></trkpt><trkpt lat="45.80848836292342" lon="10.06813302212143"><ele>212.0</ele><time>2026-04-04T12:32:22.998Z</time></trkpt><trkpt lat="45.808572094509536" lon="10.068157852782965"><ele>212.00000000000003</ele><time>2026-04-04T12:32:23.998Z</time></trkpt><trkpt lat="45.808651728480314" lon="10.068177949275597"><ele>212.0</ele><time>2026-04-04T12:32:24.998Z</time></trkpt><trkpt lat="45.80873483431658" lon="10.068203606049634"><ele>213.83333333333334</ele><time>2026-04-04T12:32:25.998Z</time></trkpt><trkpt lat="45.80881569135406" lon="10.068227847804561"><ele>215.66666666666669</ele><time>2026-04-04T12:32:26.998Z</time></trkpt><trkpt lat="45.808894514526685" lon="10.068255987842726"><ele>217.5</ele><time>2026-04-04T12:32:27.998Z</time></trkpt><trkpt lat="45.80897134797028" lon="10.068294700512109"><ele>219.33333333333331</ele><time>2026-04-04T12:32:28.998Z</time></trkpt><trkpt lat="45.80904533169325" lon="10.068346337402739"><ele>221.16666666666666</ele><time>2026-04-04T12:32:29.998Z</time></trkpt><trkpt lat="45.80913386445429" lon="10.06837922751717"><ele>223.0</ele><time>2026-04-04T12:32:30.998Z</time></trkpt><trkpt lat="45.809220132719915" lon="10.0684111132557"><ele>220.4</ele><time>2026-04-04T12:32:31.998Z</time></trkpt><trkpt lat="45.80931193728318" lon="10.068435234880138"><ele>217.8</ele><time>2026-04-04T12:32:32.998Z</time></trkpt><trkpt lat="45.809400984057035" lon="10.068456035409577"><ele>215.2</ele><time>2026-04-04T12:32:34Z</time></trkpt><trkpt lat="45.809492439940946" lon="10.068477878858637"><ele>212.6</ele><time>2026-04-04T12:32:35Z</time></trkpt><trkpt lat="45.80958291907458" lon="10.068499815515667"><ele>210.0</ele><time>2026-04-04T12:32:36Z</time></trkpt><trkpt lat="45.80967161105515" lon="10.068524789152313"><ele>210.0</ele><time>2026-04-04T12:32:37Z</time></trkpt><trkpt lat="45.809757907408816" lon="10.068556641325683"><ele>210.0</ele><time>2026-04-04T12:32:38Z</time></trkpt><trkpt lat="45.80983783772938" lon="10.068600663371775"><ele>210.0</ele><time>2026-04-04T12:32:39Z</time></trkpt><trkpt lat="45.809914103305395" lon="10.068655569534412"><ele>210.0</ele><time>2026-04-04T12:32:40Z</time></trkpt><trkpt lat="45.809979445530274" lon="10.068741906259378"><ele>210.0</ele><time>2026-04-04T12:32:41Z</time></trkpt><trkpt lat="45.810041763891846" lon="10.068844735735277"><ele>210.0</ele><time>2026-04-04T12:32:42Z</time></trkpt><trkpt lat="45.810093057264986" lon="10.068950452381108"><ele>210.0</ele><time>2026-04-04T12:32:43Z</time></trkpt><trkpt lat="45.81013901264011" lon="10.06906098216905"><ele>210.0</ele><time>2026-04-04T12:32:44Z</time></trkpt><trkpt lat="45.81018517411381" lon="10.069169915890289"><ele>210.0</ele><time>2026-04-04T12:32:45Z</time></trkpt><trkpt lat="45.81023253459108" lon="10.069281171435364"><ele>210.0</ele><time>2026-04-04T12:32:46Z</time></trkpt><trkpt lat="45.81027672383416" lon="10.069390939573058"><ele>210.0</ele><time>2026-04-04T12:32:47Z</time></trkpt><trkpt lat="45.810314776207534" lon="10.069509545913762"><ele>210.0</ele><time>2026-04-04T12:32:48Z</time></trkpt><trkpt lat="45.81033685825801" lon="10.069633521708527"><ele>208.5</ele><time>2026-04-04T12:32:49Z</time></trkpt><trkpt lat="45.810350835178866" lon="10.069759425275619"><ele>207.0</ele><time>2026-04-04T12:32:50Z</time></trkpt><trkpt lat="45.81036644372521" lon="10.069887251056775"><ele>205.5</ele><time>2026-04-04T12:32:51Z</time></trkpt><trkpt lat="45.81038439212403" lon="10.070005241528595"><ele>204.0</ele><time>2026-04-04T12:32:52Z</time></trkpt><trkpt lat="45.81041795033051" lon="10.070121950586621"><ele>202.5</ele><time>2026-04-04T12:32:53Z</time></trkpt><trkpt lat="45.81046345298816" lon="10.070235815355922"><ele>201.0</ele><time>2026-04-04T12:32:54Z</time></trkpt><trkpt lat="45.81052351826994" lon="10.070334199943483"><ele>199.60000000000002</ele><time>2026-04-04T12:32:55Z</time></trkpt><trkpt lat="45.810600152591974" lon="10.070413783513578"><ele>198.2</ele><time>2026-04-04T12:32:56Z</time></trkpt><trkpt lat="45.81068698235485" lon="10.070471054946974"><ele>196.8</ele><time>2026-04-04T12:32:57Z</time></trkpt><trkpt lat="45.8107743689907" lon="10.070514597261178"><ele>195.39999999999998</ele><time>2026-04-04T12:32:58Z</time></trkpt><trkpt lat="45.810863662540854" lon="10.07055491127645"><ele>194.0</ele><time>2026-04-04T12:32:59Z</time></trkpt><trkpt lat="45.8109516283763" lon="10.070589415950836"><ele>194.66666666666669</ele><time>2026-04-04T12:33:00Z</time></trkpt><trkpt lat="45.81103853837264" lon="10.070625453955655"><ele>195.33333333333334</ele><time>2026-04-04T12:33:01Z</time></trkpt><trkpt lat="45.811118934979625" lon="10.070666819482282"><ele>196.0</ele><time>2026-04-04T12:33:02Z</time></trkpt><trkpt lat="45.81119882796906" lon="10.07070992974785"><ele>196.66666666666669</ele><time>2026-04-04T12:33:03Z</time></trkpt><trkpt lat="45.81127724203876" lon="10.070754379598881"><ele>197.33333333333334</ele><time>2026-04-04T12:33:04Z</time></trkpt><trkpt lat="45.811355838386746" lon="10.070803971517867"><ele>198.0</ele><time>2026-04-04T12:33:05Z</time></trkpt><trkpt lat="45.81143486198389" lon="10.07085230175199"><ele>197.83333333333334</ele><time>2026-04-04T12:33:06Z</time></trkpt><trkpt lat="45.811513367188226" lon="10.070900464980703"><ele>197.66666666666669</ele><time>2026-04-04T12:33:06.999Z</time></trkpt><trkpt lat="45.8115921442456" lon="10.070946491545804"><ele>197.5</ele><time>2026-04-04T12:33:07.999Z</time></trkpt><trkpt lat="45.81166848595103" lon="10.07099463955986"><ele>197.33333333333334</ele><time>2026-04-04T12:33:08.999Z</time></trkpt><trkpt lat="45.811743975696864" lon="10.071041968295425"><ele>197.16666666666669</ele><time>2026-04-04T12:33:09.999Z</time></trkpt><trkpt lat="45.81181489970566" lon="10.071082260924229"><ele>197.0</ele><time>2026-04-04T12:33:10.999Z</time></trkpt><trkpt lat="45.81188074361859" lon="10.071135248088499"><ele>197.0</ele><time>2026-04-04T12:33:11.999Z</time></trkpt><trkpt lat="45.811943155293136" lon="10.071179010206329"><ele>197.0</ele><time>2026-04-04T12:33:12.999Z</time></trkpt><trkpt lat="45.812040599475864" lon="10.07124107123313"><ele>197.0</ele><time>2026-04-04T12:33:14.999Z</time></trkpt><trkpt lat="45.81210483166106" lon="10.071219203170118"><ele>197.0</ele><time>2026-04-04T12:33:19.999Z</time></trkpt><trkpt lat="45.8121941248366" lon="10.071320334467304"><ele>197.0</ele><time>2026-04-04T12:33:21.999Z</time></trkpt><trkpt lat="45.81228614596404" lon="10.071365407861794"><ele>197.00000000000003</ele><time>2026-04-04T12:33:23.999Z</time></trkpt><trkpt lat="45.812389112190544" lon="10.071426721145327"><ele>197.0</ele><time>2026-04-04T12:33:25.999Z</time></trkpt><trkpt lat="45.81250466505589" lon="10.071499419048862"><ele>197.0</ele><time>2026-04-04T12:33:27.999Z</time></trkpt><trkpt lat="45.81256917748713" lon="10.07153504184932"><ele>197.0</ele><time>2026-04-04T12:33:28.999Z</time></trkpt><trkpt lat="45.81263515691624" lon="10.07157587912196"><ele>197.00000000000003</ele><time>2026-04-04T12:33:29.999Z</time></trkpt><trkpt lat="45.81269907628484" lon="10.071615626838616"><ele>197.0</ele><time>2026-04-04T12:33:30.999Z</time></trkpt><trkpt lat="45.8127580897609" lon="10.071648893222699"><ele>196.16666666666669</ele><time>2026-04-04T12:33:31.999Z</time></trkpt><trkpt lat="45.81286595520956" lon="10.07171299655932"><ele>195.33333333333334</ele><time>2026-04-04T12:33:33.999Z</time></trkpt><trkpt lat="45.812974416645744" lon="10.071777765560991"><ele>194.5</ele><time>2026-04-04T12:33:35.999Z</time></trkpt><trkpt lat="45.813031711453576" lon="10.07181564005665"><ele>193.66666666666669</ele><time>2026-04-04T12:33:36.999Z</time></trkpt><trkpt lat="45.81309054093845" lon="10.071854883028925"><ele>192.83333333333334</ele><time>2026-04-04T12:33:37.999Z</time></trkpt><trkpt lat="45.81315267344257" lon="10.071891914739286"><ele>192.0</ele><time>2026-04-04T12:33:38.999Z</time></trkpt><trkpt lat="45.81321756581651" lon="10.071929369971576"><ele>191.99999999999997</ele><time>2026-04-04T12:33:39.999Z</time></trkpt><trkpt lat="45.81328235653195" lon="10.071966733190932"><ele>192.0</ele><time>2026-04-04T12:33:40.999Z</time></trkpt><trkpt lat="45.813348295997194" lon="10.072005050054507"><ele>192.0</ele><time>2026-04-04T12:33:41.999Z</time></trkpt><trkpt lat="45.813415255887406" lon="10.072042402952878"><ele>192.0</ele><time>2026-04-04T12:33:42.999Z</time></trkpt><trkpt lat="45.81348245650296" lon="10.072079658159373"><ele>192.0</ele><time>2026-04-04T12:33:43.999Z</time></trkpt><trkpt lat="45.813549318307594" lon="10.072119692897312"><ele>191.99999999999997</ele><time>2026-04-04T12:33:44.999Z</time></trkpt><trkpt lat="45.81361719159122" lon="10.072158575394264"><ele>192.0</ele><time>2026-04-04T12:33:45.999Z</time></trkpt><trkpt lat="45.813685299912215" lon="10.072198047960068"><ele>192.5</ele><time>2026-04-04T12:33:46.999Z</time></trkpt><trkpt lat="45.813752534433476" lon="10.072238597145061"><ele>193.0</ele><time>2026-04-04T12:33:47.999Z</time></trkpt><trkpt lat="45.813821518029016" lon="10.07227964002503"><ele>193.5</ele><time>2026-04-04T12:33:48.999Z</time></trkpt><trkpt lat="45.81388967700562" lon="10.072323847991774"><ele>194.0</ele><time>2026-04-04T12:33:49.999Z</time></trkpt><trkpt lat="45.813961072863286" lon="10.072364847319463"><ele>194.5</ele><time>2026-04-04T12:33:50.999Z</time></trkpt><trkpt lat="45.81403273761761" lon="10.072409550767736"><ele>195.0</ele><time>2026-04-04T12:33:51.999Z</time></trkpt><trkpt lat="45.81410451801716" lon="10.07245358930851"><ele>195.0</ele><time>2026-04-04T12:33:52.999Z</time></trkpt><trkpt lat="45.81417558337408" lon="10.07249675724913"><ele>195.0</ele><time>2026-04-04T12:33:53.999Z</time></trkpt><trkpt lat="45.81424257113915" lon="10.072554061838085"><ele>195.0</ele><time>2026-04-04T12:33:54.999Z</time></trkpt><trkpt lat="45.814305250510074" lon="10.072622518312947"><ele>195.0</ele><time>2026-04-04T12:33:55.999Z</time></trkpt><trkpt lat="45.81436646221266" lon="10.072695094086603"><ele>195.0</ele><time>2026-04-04T12:33:56.999Z</time></trkpt><trkpt lat="45.81442187636283" lon="10.072777576995565"><ele>195.0</ele><time>2026-04-04T12:33:57.999Z</time></trkpt><trkpt lat="45.81447314683927" lon="10.072865102626809"><ele>195.33333333333334</ele><time>2026-04-04T12:33:58.999Z</time></trkpt><trkpt lat="45.814512348574745" lon="10.072969288852669"><ele>195.66666666666669</ele><time>2026-04-04T12:33:59.999Z</time></trkpt><trkpt lat="45.814557449329506" lon="10.073060090283507"><ele>196.0</ele><time>2026-04-04T12:34:00.999Z</time></trkpt><trkpt lat="45.81460057181143" lon="10.073156623804055"><ele>196.33333333333334</ele><time>2026-04-04T12:34:01.999Z</time></trkpt><trkpt lat="45.814643613980614" lon="10.073252864604537"><ele>196.66666666666669</ele><time>2026-04-04T12:34:02.999Z</time></trkpt><trkpt lat="45.814687264017564" lon="10.073347860461936"><ele>197.0</ele><time>2026-04-04T12:34:03.998Z</time></trkpt><trkpt lat="45.8147348915907" lon="10.073438428628215"><ele>196.16666666666669</ele><time>2026-04-04T12:34:04.998Z</time></trkpt><trkpt lat="45.81479258322208" lon="10.073515624011554"><ele>195.33333333333334</ele><time>2026-04-04T12:34:05.998Z</time></trkpt><trkpt lat="45.81486022179184" lon="10.073574098298245"><ele>194.5</ele><time>2026-04-04T12:34:06.998Z</time></trkpt><trkpt lat="45.81493320432928" lon="10.073615107970253"><ele>193.66666666666669</ele><time>2026-04-04T12:34:07.998Z</time></trkpt><trkpt lat="45.815006838902356" lon="10.073654991212965"><ele>192.83333333333334</ele><time>2026-04-04T12:34:08.998Z</time></trkpt><trkpt lat="45.81508003797693" lon="10.073694243801874"><ele>192.0</ele><time>2026-04-04T12:34:09.998Z</time></trkpt><trkpt lat="45.81515296306774" lon="10.073737580166183"><ele>193.0</ele><time>2026-04-04T12:34:10.998Z</time></trkpt><trkpt lat="45.815224992205806" lon="10.07378258490709"><ele>194.0</ele><time>2026-04-04T12:34:11.998Z</time></trkpt><trkpt lat="45.81529350683866" lon="10.07383755540061"><ele>195.0</ele><time>2026-04-04T12:34:12.998Z</time></trkpt><trkpt lat="45.81535890954893" lon="10.073904252224338"><ele>196.0</ele><time>2026-04-04T12:34:13.998Z</time></trkpt><trkpt lat="45.81542357418587" lon="10.07397386348962"><ele>197.0</ele><time>2026-04-04T12:34:14.998Z</time></trkpt><trkpt lat="45.81548678865369" lon="10.074040694918107"><ele>198.0</ele><time>2026-04-04T12:34:15.998Z</time></trkpt><trkpt lat="45.815549595956135" lon="10.074109274824693"><ele>198.0</ele><time>2026-04-04T12:34:16.998Z</time></trkpt><trkpt lat="45.81560896400935" lon="10.074173507555747"><ele>198.0</ele><time>2026-04-04T12:34:17.998Z</time></trkpt><trkpt lat="45.815661680578906" lon="10.074230915199387"><ele>198.0</ele><time>2026-04-04T12:34:18.998Z</time></trkpt><trkpt lat="45.81574554137676" lon="10.074323741166154"><ele>198.0</ele><time>2026-04-04T12:34:20.998Z</time></trkpt><trkpt lat="45.815799276970765" lon="10.074382497439231"><ele>198.0</ele><time>2026-04-04T12:34:22.998Z</time></trkpt><trkpt lat="45.81585979785482" lon="10.074438743629814"><ele>198.0</ele><time>2026-04-04T12:34:32.998Z</time></trkpt><trkpt lat="45.81592998860605" lon="10.074518038791268"><ele>198.0</ele><time>2026-04-04T12:34:36.998Z</time></trkpt><trkpt lat="45.81597550062703" lon="10.074584945421861"><ele>198.0</ele><time>2026-04-04T12:34:42Z</time></trkpt><trkpt lat="45.8160334184525" lon="10.074666132751007"><ele>198.0</ele><time>2026-04-04T12:34:48Z</time></trkpt><trkpt lat="45.8160926479775" lon="10.074719245439926"><ele>198.0</ele><time>2026-04-04T12:34:51Z</time></trkpt><trkpt lat="45.816148333626785" lon="10.074768496689295"><ele>198.0</ele><time>2026-04-04T12:34:55Z</time></trkpt><trkpt lat="45.816224474197824" lon="10.074821425260524"><ele>198.0</ele><time>2026-04-04T12:34:59Z</time></trkpt><trkpt lat="45.81628572587128" lon="10.074864310882624"><ele>198.0</ele><time>2026-04-04T12:35:01Z</time></trkpt><trkpt lat="45.816353234948046" lon="10.074912363479145"><ele>198.0</ele><time>2026-04-04T12:35:03Z</time></trkpt><trkpt lat="45.816436280146554" lon="10.074968452040434"><ele>198.0</ele><time>2026-04-04T12:35:05Z</time></trkpt><trkpt lat="45.816511297701254" lon="10.075043833384209"><ele>198.0</ele><time>2026-04-04T12:35:07Z</time></trkpt><trkpt lat="45.816578775644004" lon="10.07511692695467"><ele>198.0</ele><time>2026-04-04T12:35:09Z</time></trkpt><trkpt lat="45.816641143860224" lon="10.07520850105722"><ele>198.0</ele><time>2026-04-04T12:35:10.999Z</time></trkpt><trkpt lat="45.81669025936991" lon="10.075300622671561"><ele>198.0</ele><time>2026-04-04T12:35:12.999Z</time></trkpt><trkpt lat="45.81673448444062" lon="10.075397951312642"><ele>198.0</ele><time>2026-04-04T12:35:14.999Z</time></trkpt><trkpt lat="45.81679090912606" lon="10.075504938560027"><ele>198.0</ele><time>2026-04-04T12:35:16.999Z</time></trkpt><trkpt lat="45.81685360920391" lon="10.075628415626264"><ele>198.0</ele><time>2026-04-04T12:35:18.999Z</time></trkpt><trkpt lat="45.81692695201175" lon="10.075762551717395"><ele>198.0</ele><time>2026-04-04T12:35:20.999Z</time></trkpt><trkpt lat="45.81700162181119" lon="10.075896635171244"><ele>198.0</ele><time>2026-04-04T12:35:22.999Z</time></trkpt><trkpt lat="45.817054735940324" lon="10.0759563669572"><ele>197.8</ele><time>2026-04-04T12:35:23.999Z</time></trkpt><trkpt lat="45.817139068691034" lon="10.076090999030555"><ele>197.60000000000002</ele><time>2026-04-04T12:35:25.999Z</time></trkpt><trkpt lat="45.817187404513405" lon="10.076149041601473"><ele>197.39999999999998</ele><time>2026-04-04T12:35:26.999Z</time></trkpt><trkpt lat="45.81728501484582" lon="10.07626103002191"><ele>197.2</ele><time>2026-04-04T12:35:28.999Z</time></trkpt><trkpt lat="45.81737020821923" lon="10.07637720906868"><ele>197.0</ele><time>2026-04-04T12:35:30.999Z</time></trkpt><trkpt lat="45.81746163150571" lon="10.076473867214373"><ele>197.0</ele><time>2026-04-04T12:35:32.999Z</time></trkpt><trkpt lat="45.817543681698375" lon="10.076579484998025"><ele>197.0</ele><time>2026-04-04T12:35:34.999Z</time></trkpt><trkpt lat="45.817618602609926" lon="10.076688798311892"><ele>197.0</ele><time>2026-04-04T12:35:36.999Z</time></trkpt><trkpt lat="45.817686124323714" lon="10.076806525032609"><ele>197.0</ele><time>2026-04-04T12:35:38.999Z</time></trkpt><trkpt lat="45.81776670019666" lon="10.07691360191672"><ele>197.0</ele><time>2026-04-04T12:35:40.999Z</time></trkpt><trkpt lat="45.817816593215234" lon="10.077002241521559"><ele>197.0</ele><time>2026-04-04T12:35:42.999Z</time></trkpt><trkpt lat="45.81787152431996" lon="10.077073159101454"><ele>197.0</ele><time>2026-04-04T12:35:44.999Z</time></trkpt><trkpt lat="45.81791650811309" lon="10.077152924128486"><ele>197.0</ele><time>2026-04-04T12:35:46.999Z</time></trkpt><trkpt lat="45.81796394461669" lon="10.077222724410657"><ele>197.0</ele><time>2026-04-04T12:35:48.999Z</time></trkpt><trkpt lat="45.81799947478386" lon="10.077298483254715"><ele>197.0</ele><time>2026-04-04T12:35:50.999Z</time></trkpt><trkpt lat="45.81805139374198" lon="10.07739426195578"><ele>197.0</ele><time>2026-04-04T12:35:53.999Z</time></trkpt><trkpt lat="45.8180883501348" lon="10.077493125803827"><ele>197.0</ele><time>2026-04-04T12:35:59.999Z</time></trkpt><trkpt lat="45.8181296958448" lon="10.077586124065093"><ele>196.39999999999998</ele><time>2026-04-04T12:36:01.999Z</time></trkpt><trkpt lat="45.81816824276117" lon="10.077682930432761"><ele>195.79999999999998</ele><time>2026-04-04T12:36:03.999Z</time></trkpt><trkpt lat="45.818217065019006" lon="10.077817241041052"><ele>195.2</ele><time>2026-04-04T12:36:05.999Z</time></trkpt><trkpt lat="45.818255417273264" lon="10.077965410038544"><ele>194.6</ele><time>2026-04-04T12:36:07.998Z</time></trkpt><trkpt lat="45.818293357718126" lon="10.078108728754515"><ele>194.0</ele><time>2026-04-04T12:36:09.998Z</time></trkpt><trkpt lat="45.81834527975766" lon="10.07825550524931"><ele>194.33333333333334</ele><time>2026-04-04T12:36:11.998Z</time></trkpt><trkpt lat="45.81839639524715" lon="10.078419496912922"><ele>194.66666666666669</ele><time>2026-04-04T12:36:13.998Z</time></trkpt><trkpt lat="45.81842343126987" lon="10.078506841438184"><ele>195.0</ele><time>2026-04-04T12:36:14.998Z</time></trkpt><trkpt lat="45.81845691032169" lon="10.078591247057274"><ele>195.33333333333331</ele><time>2026-04-04T12:36:15.998Z</time></trkpt><trkpt lat="45.81849357871899" lon="10.078668402803958"><ele>195.66666666666666</ele><time>2026-04-04T12:36:16.998Z</time></trkpt><trkpt lat="45.818538304637364" lon="10.078741585129576"><ele>196.0</ele><time>2026-04-04T12:36:17.998Z</time></trkpt><trkpt lat="45.8185937156437" lon="10.078804959424623"><ele>196.0</ele><time>2026-04-04T12:36:18.998Z</time></trkpt><trkpt lat="45.81865068474309" lon="10.07886533947439"><ele>196.0</ele><time>2026-04-04T12:36:19.998Z</time></trkpt><trkpt lat="45.8187102594422" lon="10.07892357018159"><ele>196.0</ele><time>2026-04-04T12:36:20.998Z</time></trkpt><trkpt lat="45.818775462801995" lon="10.078969086438915"><ele>196.0</ele><time>2026-04-04T12:36:21.998Z</time></trkpt><trkpt lat="45.81883851924166" lon="10.079029431279594"><ele>196.0</ele><time>2026-04-04T12:36:22.998Z</time></trkpt><trkpt lat="45.818904422372256" lon="10.079085388772423"><ele>196.0</ele><time>2026-04-04T12:36:23.998Z</time></trkpt><trkpt lat="45.81897152452772" lon="10.079150200137464"><ele>196.0</ele><time>2026-04-04T12:36:24.998Z</time></trkpt><trkpt lat="45.819045037865884" lon="10.079202587141362"><ele>195.49999999999997</ele><time>2026-04-04T12:36:25.998Z</time></trkpt><trkpt lat="45.81911518314598" lon="10.079259545977347"><ele>195.0</ele><time>2026-04-04T12:36:26.998Z</time></trkpt><trkpt lat="45.81918579397626" lon="10.079311798724259"><ele>194.5</ele><time>2026-04-04T12:36:27.998Z</time></trkpt><trkpt lat="45.81925754450724" lon="10.079359162498452"><ele>194.0</ele><time>2026-04-04T12:36:28.998Z</time></trkpt><trkpt lat="45.81933287815075" lon="10.07940428924342"><ele>193.49999999999997</ele><time>2026-04-04T12:36:29.998Z</time></trkpt><trkpt lat="45.81940955519959" lon="10.079447155032284"><ele>193.0</ele><time>2026-04-04T12:36:30.998Z</time></trkpt><trkpt lat="45.819484729748126" lon="10.079489166626097"><ele>192.99999999999997</ele><time>2026-04-04T12:36:31.998Z</time></trkpt><trkpt lat="45.81956142350036" lon="10.07952043980449"><ele>193.0</ele><time>2026-04-04T12:36:32.998Z</time></trkpt><trkpt lat="45.81963883919722" lon="10.079552351957242"><ele>193.0</ele><time>2026-04-04T12:36:33.998Z</time></trkpt><trkpt lat="45.81971813340586" lon="10.079582680435122"><ele>193.0</ele><time>2026-04-04T12:36:34.998Z</time></trkpt><trkpt lat="45.81979794098083" lon="10.079610369638965"><ele>192.99999999999997</ele><time>2026-04-04T12:36:35.998Z</time></trkpt><trkpt lat="45.81987501515119" lon="10.079627527102195"><ele>193.0</ele><time>2026-04-04T12:36:36.998Z</time></trkpt><trkpt lat="45.81995477934753" lon="10.079641943218762"><ele>192.99999999999997</ele><time>2026-04-04T12:36:37.998Z</time></trkpt><trkpt lat="45.82003199055458" lon="10.079656189818111"><ele>193.0</ele><time>2026-04-04T12:36:38.998Z</time></trkpt><trkpt lat="45.82010960274254" lon="10.079662970445813"><ele>193.0</ele><time>2026-04-04T12:36:39.998Z</time></trkpt><trkpt lat="45.82018670052158" lon="10.079671217226494"><ele>193.0</ele><time>2026-04-04T12:36:40.998Z</time></trkpt><trkpt lat="45.82026244231805" lon="10.079674336566113"><ele>192.99999999999997</ele><time>2026-04-04T12:36:41.998Z</time></trkpt><trkpt lat="45.82034097931644" lon="10.07967204071178"><ele>193.0</ele><time>2026-04-04T12:36:42.998Z</time></trkpt><trkpt lat="45.82041944532141" lon="10.079673444989746"><ele>193.16666666666666</ele><time>2026-04-04T12:36:43.998Z</time></trkpt><trkpt lat="45.82050113071086" lon="10.079670973120257"><ele>193.33333333333331</ele><time>2026-04-04T12:36:45Z</time></trkpt><trkpt lat="45.820583881173505" lon="10.079680318586163"><ele>193.5</ele><time>2026-04-04T12:36:46Z</time></trkpt><trkpt lat="45.82066161257249" lon="10.079685282588937"><ele>193.66666666666669</ele><time>2026-04-04T12:36:47Z</time></trkpt><trkpt lat="45.82073952713775" lon="10.079694609784596"><ele>193.83333333333334</ele><time>2026-04-04T12:36:48Z</time></trkpt><trkpt lat="45.820816195206454" lon="10.079702210095281"><ele>194.0</ele><time>2026-04-04T12:36:49Z</time></trkpt><trkpt lat="45.82089904588043" lon="10.079720229415846"><ele>194.00000000000003</ele><time>2026-04-04T12:36:50Z</time></trkpt><trkpt lat="45.82097923680742" lon="10.079743755022458"><ele>194.0</ele><time>2026-04-04T12:36:51Z</time></trkpt><trkpt lat="45.82105842210992" lon="10.079774633805874"><ele>194.0</ele><time>2026-04-04T12:36:52Z</time></trkpt><trkpt lat="45.821130765605616" lon="10.07982173180466"><ele>194.0</ele><time>2026-04-04T12:36:53Z</time></trkpt><trkpt lat="45.82119824301701" lon="10.079882697743857"><ele>194.00000000000003</ele><time>2026-04-04T12:36:54Z</time></trkpt><trkpt lat="45.82126306795085" lon="10.0799483167673"><ele>194.0</ele><time>2026-04-04T12:36:55Z</time></trkpt><trkpt lat="45.82132356933964" lon="10.080016969912126"><ele>195.0</ele><time>2026-04-04T12:36:56Z</time></trkpt><trkpt lat="45.821379201746005" lon="10.080097032002108"><ele>196.0</ele><time>2026-04-04T12:36:57Z</time></trkpt><trkpt lat="45.82142964651076" lon="10.080186796275578"><ele>197.0</ele><time>2026-04-04T12:36:58Z</time></trkpt><trkpt lat="45.8214779637424" lon="10.080284604878726"><ele>198.0</ele><time>2026-04-04T12:36:59Z</time></trkpt><trkpt lat="45.8215227582279" lon="10.080403207600517"><ele>199.0</ele><time>2026-04-04T12:37:00Z</time></trkpt><trkpt lat="45.82161054055584" lon="10.080556377174975"><ele>198.99999999999997</ele><time>2026-04-04T12:37:02Z</time></trkpt><trkpt lat="45.821646972197094" lon="10.080659919842438"><ele>199.0</ele><time>2026-04-04T12:37:03Z</time></trkpt><trkpt lat="45.8216839924726" lon="10.08076286372232"><ele>199.0</ele><time>2026-04-04T12:37:04Z</time></trkpt><trkpt lat="45.82172123419757" lon="10.080862625168395"><ele>199.0</ele><time>2026-04-04T12:37:05Z</time></trkpt><trkpt lat="45.82176337411406" lon="10.080967351731545"><ele>198.99999999999997</ele><time>2026-04-04T12:37:06Z</time></trkpt><trkpt lat="45.821796329471454" lon="10.081073047175423"><ele>199.0</ele><time>2026-04-04T12:37:07Z</time></trkpt><trkpt lat="45.82182400681377" lon="10.081183308503128"><ele>200.33333333333331</ele><time>2026-04-04T12:37:08Z</time></trkpt><trkpt lat="45.8218465586924" lon="10.08129933957211"><ele>201.66666666666666</ele><time>2026-04-04T12:37:09Z</time></trkpt><trkpt lat="45.82186070363015" lon="10.081417504029002"><ele>203.0</ele><time>2026-04-04T12:37:10Z</time></trkpt><trkpt lat="45.821874275879324" lon="10.081528622568282"><ele>204.33333333333331</ele><time>2026-04-04T12:37:11Z</time></trkpt><trkpt lat="45.821885058747434" lon="10.081648686174507"><ele>205.66666666666666</ele><time>2026-04-04T12:37:11.999Z</time></trkpt><trkpt lat="45.82189433741674" lon="10.081768890518866"><ele>207.0</ele><time>2026-04-04T12:37:12.999Z</time></trkpt><trkpt lat="45.82190165381978" lon="10.081887568159203"><ele>207.0</ele><time>2026-04-04T12:37:13.999Z</time></trkpt><trkpt lat="45.821899768950864" lon="10.08200378296075"><ele>207.0</ele><time>2026-04-04T12:37:14.999Z</time></trkpt><trkpt lat="45.82189650009742" lon="10.082113048720243"><ele>207.0</ele><time>2026-04-04T12:37:15.999Z</time></trkpt><trkpt lat="45.82188256638537" lon="10.082226166773614"><ele>207.0</ele><time>2026-04-04T12:37:16.999Z</time></trkpt><trkpt lat="45.821874605447306" lon="10.082337404809515"><ele>207.0</ele><time>2026-04-04T12:37:17.999Z</time></trkpt><trkpt lat="45.8218716988987" lon="10.082453822682098"><ele>207.0</ele><time>2026-04-04T12:37:18.999Z</time></trkpt><trkpt lat="45.82187609896718" lon="10.08257669060474"><ele>205.83333333333334</ele><time>2026-04-04T12:37:19.999Z</time></trkpt><trkpt lat="45.821906639823666" lon="10.082693140318906"><ele>204.66666666666669</ele><time>2026-04-04T12:37:20.999Z</time></trkpt><trkpt lat="45.82193589358433" lon="10.08280822243119"><ele>203.5</ele><time>2026-04-04T12:37:21.999Z</time></trkpt><trkpt lat="45.82198392073158" lon="10.082916808155213"><ele>202.33333333333334</ele><time>2026-04-04T12:37:22.999Z</time></trkpt><trkpt lat="45.82203902188103" lon="10.083019250506881"><ele>201.16666666666669</ele><time>2026-04-04T12:37:23.999Z</time></trkpt><trkpt lat="45.8220984013502" lon="10.08311987691924"><ele>200.0</ele><time>2026-04-04T12:37:24.999Z</time></trkpt><trkpt lat="45.822159076638265" lon="10.08321097399292"><ele>199.83333333333334</ele><time>2026-04-04T12:37:25.999Z</time></trkpt><trkpt lat="45.822216351713955" lon="10.08329996998761"><ele>199.66666666666669</ele><time>2026-04-04T12:37:26.999Z</time></trkpt><trkpt lat="45.82227223247114" lon="10.083384949247097"><ele>199.5</ele><time>2026-04-04T12:37:27.999Z</time></trkpt><trkpt lat="45.822326601808534" lon="10.08347136778102"><ele>199.33333333333331</ele><time>2026-04-04T12:37:28.999Z</time></trkpt><trkpt lat="45.822381714663145" lon="10.083556201864644"><ele>199.16666666666666</ele><time>2026-04-04T12:37:29.999Z</time></trkpt><trkpt lat="45.82243900993937" lon="10.083637931681627"><ele>199.0</ele><time>2026-04-04T12:37:30.999Z</time></trkpt><trkpt lat="45.82249402719916" lon="10.083717411274415"><ele>198.99999999999997</ele><time>2026-04-04T12:37:31.999Z</time></trkpt><trkpt lat="45.822551107392734" lon="10.083798721256677"><ele>199.0</ele><time>2026-04-04T12:37:32.999Z</time></trkpt><trkpt lat="45.82260820444566" lon="10.083884380535553"><ele>199.0</ele><time>2026-04-04T12:37:33.999Z</time></trkpt><trkpt lat="45.822665759915964" lon="10.083965505967468"><ele>199.0</ele><time>2026-04-04T12:37:34.999Z</time></trkpt><trkpt lat="45.822721512098354" lon="10.084052541653833"><ele>198.99999999999997</ele><time>2026-04-04T12:37:35.999Z</time></trkpt><trkpt lat="45.822773614301795" lon="10.08413985597834"><ele>199.0</ele><time>2026-04-04T12:37:36.999Z</time></trkpt><trkpt lat="45.82282342439023" lon="10.084232564773862"><ele>201.83333333333331</ele><time>2026-04-04T12:37:37.999Z</time></trkpt><trkpt lat="45.82287197285612" lon="10.084326543762819"><ele>204.66666666666666</ele><time>2026-04-04T12:37:38.999Z</time></trkpt><trkpt lat="45.822920562053994" lon="10.084418459287852"><ele>207.5</ele><time>2026-04-04T12:37:39.999Z</time></trkpt><trkpt lat="45.82296738238458" lon="10.084507005283692"><ele>210.33333333333331</ele><time>2026-04-04T12:37:40.999Z</time></trkpt><trkpt lat="45.82301638059004" lon="10.084596706911958"><ele>213.16666666666666</ele><time>2026-04-04T12:37:41.999Z</time></trkpt><trkpt lat="45.8230651204992" lon="10.084682519032308"><ele>216.0</ele><time>2026-04-04T12:37:42.999Z</time></trkpt><trkpt lat="45.8231211359699" lon="10.084765542439428"><ele>216.0</ele><time>2026-04-04T12:37:43.999Z</time></trkpt><trkpt lat="45.823183488567025" lon="10.084840877157538"><ele>216.0</ele><time>2026-04-04T12:37:44.999Z</time></trkpt><trkpt lat="45.823248344207656" lon="10.08491068326286"><ele>216.0</ele><time>2026-04-04T12:37:45.999Z</time></trkpt><trkpt lat="45.82331404163825" lon="10.084978846060363"><ele>216.0</ele><time>2026-04-04T12:37:46.999Z</time></trkpt><trkpt lat="45.82338020614675" lon="10.08505157041131"><ele>216.0</ele><time>2026-04-04T12:37:47.999Z</time></trkpt><trkpt lat="45.82344708703256" lon="10.085120459550225"><ele>216.0</ele><time>2026-04-04T12:37:48.999Z</time></trkpt><trkpt lat="45.8235146621531" lon="10.085192915625303"><ele>217.42857142857142</ele><time>2026-04-04T12:37:49.999Z</time></trkpt><trkpt lat="45.82357649639168" lon="10.085269990606756"><ele>218.85714285714283</ele><time>2026-04-04T12:37:50.999Z</time></trkpt><trkpt lat="45.823636711060736" lon="10.085334922644881"><ele>220.28571428571428</ele><time>2026-04-04T12:37:51.999Z</time></trkpt><trkpt lat="45.82368988814986" lon="10.085400194377176"><ele>221.71428571428572</ele><time>2026-04-04T12:37:52.999Z</time></trkpt><trkpt lat="45.82374227173817" lon="10.08547175695476"><ele>223.14285714285714</ele><time>2026-04-04T12:37:53.999Z</time></trkpt><trkpt lat="45.823788162308546" lon="10.085546805659744"><ele>224.57142857142858</ele><time>2026-04-04T12:37:54.999Z</time></trkpt><trkpt lat="45.82383042070151" lon="10.085626829039736"><ele>226.0</ele><time>2026-04-04T12:37:55.999Z</time></trkpt><trkpt lat="45.82386850423695" lon="10.0857093685238"><ele>221.8</ele><time>2026-04-04T12:37:56.999Z</time></trkpt><trkpt lat="45.82390037085617" lon="10.085790574773915"><ele>217.60000000000002</ele><time>2026-04-04T12:37:57.999Z</time></trkpt><trkpt lat="45.823933810066" lon="10.085872816126377"><ele>213.4</ele><time>2026-04-04T12:37:58.999Z</time></trkpt><trkpt lat="45.823993450174186" lon="10.086027098327614"><ele>209.2</ele><time>2026-04-04T12:38:00.999Z</time></trkpt><trkpt lat="45.82405180886406" lon="10.086175738548784"><ele>205.0</ele><time>2026-04-04T12:38:02.999Z</time></trkpt><trkpt lat="45.82410554050948" lon="10.086325708509754"><ele>204.99999999999997</ele><time>2026-04-04T12:38:04.999Z</time></trkpt><trkpt lat="45.824158735261655" lon="10.086480053027884"><ele>205.0</ele><time>2026-04-04T12:38:06.999Z</time></trkpt><trkpt lat="45.82418293498982" lon="10.086564689217715"><ele>205.0</ele><time>2026-04-04T12:38:07.999Z</time></trkpt><trkpt lat="45.82421022531532" lon="10.086648577745072"><ele>205.0</ele><time>2026-04-04T12:38:08.998Z</time></trkpt><trkpt lat="45.824238007922574" lon="10.08673453905641"><ele>204.99999999999997</ele><time>2026-04-04T12:38:09.998Z</time></trkpt><trkpt lat="45.82426704497017" lon="10.086823770206273"><ele>205.0</ele><time>2026-04-04T12:38:10.998Z</time></trkpt><trkpt lat="45.82429412699191" lon="10.086916270207736"><ele>204.66666666666666</ele><time>2026-04-04T12:38:11.998Z</time></trkpt><trkpt lat="45.82431724145915" lon="10.087012966823046"><ele>204.33333333333331</ele><time>2026-04-04T12:38:12.998Z</time></trkpt><trkpt lat="45.82433717305312" lon="10.087108929954576"><ele>204.0</ele><time>2026-04-04T12:38:13.998Z</time></trkpt><trkpt lat="45.82437121062256" lon="10.087277942962437"><ele>203.66666666666669</ele><time>2026-04-04T12:38:15.998Z</time></trkpt><trkpt lat="45.824384492115286" lon="10.087370468476957"><ele>203.33333333333334</ele><time>2026-04-04T12:38:16.998Z</time></trkpt><trkpt lat="45.824404646035084" lon="10.08746260936842"><ele>203.0</ele><time>2026-04-04T12:38:17.998Z</time></trkpt><trkpt lat="45.824423350077076" lon="10.08755884465591"><ele>203.00000000000003</ele><time>2026-04-04T12:38:18.998Z</time></trkpt><trkpt lat="45.82443966027437" lon="10.087660301098415"><ele>203.0</ele><time>2026-04-04T12:38:19.998Z</time></trkpt><trkpt lat="45.82445662722062" lon="10.087768204842785"><ele>203.0</ele><time>2026-04-04T12:38:20.998Z</time></trkpt><trkpt lat="45.824471484099654" lon="10.087879951820847"><ele>203.0</ele><time>2026-04-04T12:38:21.998Z</time></trkpt><trkpt lat="45.82448482561535" lon="10.087986789871374"><ele>203.00000000000003</ele><time>2026-04-04T12:38:22.998Z</time></trkpt><trkpt lat="45.824500623005434" lon="10.088098418401268"><ele>203.0</ele><time>2026-04-04T12:38:23.998Z</time></trkpt><trkpt lat="45.82452607455462" lon="10.088209511272455"><ele>201.66666666666669</ele><time>2026-04-04T12:38:24.998Z</time></trkpt><trkpt lat="45.82454270544718" lon="10.0883239845966"><ele>200.33333333333334</ele><time>2026-04-04T12:38:25.998Z</time></trkpt><trkpt lat="45.82455969062189" lon="10.088441657110659"><ele>199.0</ele><time>2026-04-04T12:38:26.998Z</time></trkpt><trkpt lat="45.824577590442175" lon="10.088556740056726"><ele>197.66666666666669</ele><time>2026-04-04T12:38:27.998Z</time></trkpt><trkpt lat="45.82459394802144" lon="10.088674512644793"><ele>196.33333333333334</ele><time>2026-04-04T12:38:28.998Z</time></trkpt><trkpt lat="45.82460728060165" lon="10.088788818839392"><ele>195.0</ele><time>2026-04-04T12:38:29.998Z</time></trkpt><trkpt lat="45.82462515595869" lon="10.088905245578847"><ele>195.0</ele><time>2026-04-04T12:38:30.998Z</time></trkpt><trkpt lat="45.824642781394246" lon="10.089021856610879"><ele>195.0</ele><time>2026-04-04T12:38:31.998Z</time></trkpt><trkpt lat="45.82466230570408" lon="10.089137803565466"><ele>195.0</ele><time>2026-04-04T12:38:32.998Z</time></trkpt><trkpt lat="45.82468905633331" lon="10.089253272474577"><ele>195.0</ele><time>2026-04-04T12:38:33.998Z</time></trkpt><trkpt lat="45.824709757696446" lon="10.089373791342652"><ele>195.0</ele><time>2026-04-04T12:38:34.998Z</time></trkpt><trkpt lat="45.824726717953794" lon="10.089497898737752"><ele>195.0</ele><time>2026-04-04T12:38:35.998Z</time></trkpt><trkpt lat="45.82474518258395" lon="10.089620333043392"><ele>195.0</ele><time>2026-04-04T12:38:36.998Z</time></trkpt><trkpt lat="45.824765644676454" lon="10.089741653027273"><ele>195.0</ele><time>2026-04-04T12:38:37.998Z</time></trkpt><trkpt lat="45.824791475229176" lon="10.089863604439767"><ele>195.0</ele><time>2026-04-04T12:38:38.998Z</time></trkpt><trkpt lat="45.82482078471128" lon="10.089983331732462"><ele>195.0</ele><time>2026-04-04T12:38:39.998Z</time></trkpt><trkpt lat="45.8248525015822" lon="10.090099732875482"><ele>195.0</ele><time>2026-04-04T12:38:40.998Z</time></trkpt><trkpt lat="45.82488783948995" lon="10.090214922691565"><ele>195.0</ele><time>2026-04-04T12:38:41.998Z</time></trkpt><trkpt lat="45.824932225431866" lon="10.090321191913878"><ele>194.83333333333334</ele><time>2026-04-04T12:38:42.998Z</time></trkpt><trkpt lat="45.82498707443481" lon="10.090418197633547"><ele>194.66666666666669</ele><time>2026-04-04T12:38:43.998Z</time></trkpt><trkpt lat="45.825040833472535" lon="10.09051665402633"><ele>194.5</ele><time>2026-04-04T12:38:44.998Z</time></trkpt><trkpt lat="45.82509932721928" lon="10.090610806239276"><ele>194.33333333333334</ele><time>2026-04-04T12:38:45.998Z</time></trkpt><trkpt lat="45.82515650824271" lon="10.090706312998092"><ele>194.16666666666669</ele><time>2026-04-04T12:38:46.998Z</time></trkpt><trkpt lat="45.82521003451805" lon="10.090801497854175"><ele>194.0</ele><time>2026-04-04T12:38:47.998Z</time></trkpt><trkpt lat="45.825270443633926" lon="10.090898440085944"><ele>196.2</ele><time>2026-04-04T12:38:48.998Z</time></trkpt><trkpt lat="45.82533530557848" lon="10.090990270121608"><ele>198.39999999999998</ele><time>2026-04-04T12:38:49.998Z</time></trkpt><trkpt lat="45.82540014267827" lon="10.091086734166078"><ele>200.6</ele><time>2026-04-04T12:38:51Z</time></trkpt><trkpt lat="45.82546186376129" lon="10.091183203926006"><ele>202.8</ele><time>2026-04-04T12:38:52Z</time></trkpt><trkpt lat="45.82552614438675" lon="10.091274156589288"><ele>205.0</ele><time>2026-04-04T12:38:53Z</time></trkpt><trkpt lat="45.82559016878332" lon="10.091363304619106"><ele>204.99999999999997</ele><time>2026-04-04T12:38:54Z</time></trkpt><trkpt lat="45.825650844615666" lon="10.091458049217879"><ele>205.0</ele><time>2026-04-04T12:38:55Z</time></trkpt><trkpt lat="45.825712675858135" lon="10.091549384577219"><ele>205.0</ele><time>2026-04-04T12:38:56Z</time></trkpt><trkpt lat="45.82577242713958" lon="10.091644549560579"><ele>205.0</ele><time>2026-04-04T12:38:57Z</time></trkpt><trkpt lat="45.8258317492597" lon="10.091734659872452"><ele>204.99999999999997</ele><time>2026-04-04T12:38:58Z</time></trkpt><trkpt lat="45.825891314803556" lon="10.09182671227509"><ele>205.0</ele><time>2026-04-04T12:38:59Z</time></trkpt><trkpt lat="45.82594759942798" lon="10.09191424018982"><ele>205.49999999999997</ele><time>2026-04-04T12:39:00Z</time></trkpt><trkpt lat="45.826004028325144" lon="10.091999162884658"><ele>206.0</ele><time>2026-04-04T12:39:01Z</time></trkpt><trkpt lat="45.82605779015756" lon="10.092084318659653"><ele>206.5</ele><time>2026-04-04T12:39:02Z</time></trkpt><trkpt lat="45.82610687669499" lon="10.092169820982043"><ele>207.0</ele><time>2026-04-04T12:39:03Z</time></trkpt><trkpt lat="45.82615057480947" lon="10.092261093563952"><ele>207.49999999999997</ele><time>2026-04-04T12:39:04Z</time></trkpt><trkpt lat="45.82618942817538" lon="10.092357823680544"><ele>208.0</ele><time>2026-04-04T12:39:05Z</time></trkpt><trkpt lat="45.826224283521974" lon="10.092456172906513"><ele>207.99999999999997</ele><time>2026-04-04T12:39:06Z</time></trkpt><trkpt lat="45.82625496366659" lon="10.092559735188768"><ele>208.0</ele><time>2026-04-04T12:39:07Z</time></trkpt><trkpt lat="45.82628395313903" lon="10.092665329294057"><ele>208.0</ele><time>2026-04-04T12:39:08Z</time></trkpt><trkpt lat="45.82631460196344" lon="10.092772036422963"><ele>208.0</ele><time>2026-04-04T12:39:09Z</time></trkpt><trkpt lat="45.82634455475421" lon="10.092882424516095"><ele>207.99999999999997</ele><time>2026-04-04T12:39:10Z</time></trkpt><trkpt lat="45.826371876361954" lon="10.092991670680826"><ele>208.0</ele><time>2026-04-04T12:39:11Z</time></trkpt><trkpt lat="45.82639918038147" lon="10.093102630880598"><ele>207.99999999999997</ele><time>2026-04-04T12:39:12Z</time></trkpt><trkpt lat="45.826424810389284" lon="10.093215116519096"><ele>208.0</ele><time>2026-04-04T12:39:13Z</time></trkpt><trkpt lat="45.826450783668726" lon="10.093327246120163"><ele>208.0</ele><time>2026-04-04T12:39:14Z</time></trkpt><trkpt lat="45.82648018911832" lon="10.09343451227328"><ele>208.0</ele><time>2026-04-04T12:39:15Z</time></trkpt><trkpt lat="45.82650248511379" lon="10.093545823977541"><ele>207.99999999999997</ele><time>2026-04-04T12:39:15.999Z</time></trkpt><trkpt lat="45.826522392929846" lon="10.093657777644928"><ele>208.0</ele><time>2026-04-04T12:39:16.999Z</time></trkpt><trkpt lat="45.82653647648338" lon="10.09377120531115"><ele>206.33333333333331</ele><time>2026-04-04T12:39:17.999Z</time></trkpt><trkpt lat="45.82654784176973" lon="10.093884842770779"><ele>204.66666666666666</ele><time>2026-04-04T12:39:18.999Z</time></trkpt><trkpt lat="45.82655218603492" lon="10.094000154155795"><ele>203.0</ele><time>2026-04-04T12:39:19.999Z</time></trkpt><trkpt lat="45.826555549164496" lon="10.094115806645345"><ele>201.33333333333331</ele><time>2026-04-04T12:39:20.999Z</time></trkpt><trkpt lat="45.826559188275404" lon="10.094222985770058"><ele>199.66666666666666</ele><time>2026-04-04T12:39:21.999Z</time></trkpt><trkpt lat="45.82656814617069" lon="10.094327400230865"><ele>198.0</ele><time>2026-04-04T12:39:22.999Z</time></trkpt><trkpt lat="45.82657257199633" lon="10.09442673792178"><ele>197.2</ele><time>2026-04-04T12:39:23.999Z</time></trkpt><trkpt lat="45.82657659330556" lon="10.094520176814537"><ele>196.4</ele><time>2026-04-04T12:39:24.999Z</time></trkpt><trkpt lat="45.82657809691185" lon="10.094673274252388"><ele>195.6</ele><time>2026-04-04T12:39:26.999Z</time></trkpt><trkpt lat="45.826569314204505" lon="10.09481690211253"><ele>194.79999999999998</ele><time>2026-04-04T12:39:28.999Z</time></trkpt><trkpt lat="45.826565914996564" lon="10.094966816821627"><ele>194.0</ele><time>2026-04-04T12:39:30.999Z</time></trkpt><trkpt lat="45.82655958551924" lon="10.095101147835882"><ele>193.6</ele><time>2026-04-04T12:39:32.999Z</time></trkpt><trkpt lat="45.82654580725724" lon="10.095209891329045"><ele>193.2</ele><time>2026-04-04T12:39:34.999Z</time></trkpt><trkpt lat="45.82648784450058" lon="10.095301650978731"><ele>192.79999999999998</ele><time>2026-04-04T12:39:36.999Z</time></trkpt><trkpt lat="45.826432826869045" lon="10.095410600381054"><ele>192.39999999999998</ele><time>2026-04-04T12:39:38.999Z</time></trkpt><trkpt lat="45.82645192544761" lon="10.095560876539839"><ele>192.0</ele><time>2026-04-04T12:39:40.999Z</time></trkpt><trkpt lat="45.82650473737482" lon="10.095696809214955"><ele>192.16666666666666</ele><time>2026-04-04T12:39:42.999Z</time></trkpt><trkpt lat="45.82651790375766" lon="10.095795235540503"><ele>192.33333333333331</ele><time>2026-04-04T12:39:43.999Z</time></trkpt><trkpt lat="45.8265284500399" lon="10.095892557593922"><ele>192.5</ele><time>2026-04-04T12:39:44.999Z</time></trkpt><trkpt lat="45.82653055484912" lon="10.09600003646041"><ele>192.66666666666666</ele><time>2026-04-04T12:39:45.999Z</time></trkpt><trkpt lat="45.82652698107898" lon="10.096112114623148"><ele>192.83333333333331</ele><time>2026-04-04T12:39:46.999Z</time></trkpt><trkpt lat="45.82652628230537" lon="10.096226733101043"><ele>193.0</ele><time>2026-04-04T12:39:47.999Z</time></trkpt><trkpt lat="45.82652269561105" lon="10.096342981045556"><ele>192.99999999999997</ele><time>2026-04-04T12:39:48.999Z</time></trkpt><trkpt lat="45.826528859086324" lon="10.09646141380444"><ele>193.0</ele><time>2026-04-04T12:39:49.999Z</time></trkpt><trkpt lat="45.82652647887243" lon="10.096581720689953"><ele>193.0</ele><time>2026-04-04T12:39:50.999Z</time></trkpt><trkpt lat="45.82652785317704" lon="10.096705208059957"><ele>193.0</ele><time>2026-04-04T12:39:51.999Z</time></trkpt><trkpt lat="45.82652885776479" lon="10.096825394398417"><ele>192.99999999999997</ele><time>2026-04-04T12:39:52.999Z</time></trkpt><trkpt lat="45.82653285571211" lon="10.096945873824271"><ele>193.0</ele><time>2026-04-04T12:39:53.999Z</time></trkpt><trkpt lat="45.82653391032814" lon="10.097063853583457"><ele>192.99999999999997</ele><time>2026-04-04T12:39:54.999Z</time></trkpt><trkpt lat="45.826532995120715" lon="10.097182373741816"><ele>193.0</ele><time>2026-04-04T12:39:55.999Z</time></trkpt><trkpt lat="45.82653269189342" lon="10.097297872398766"><ele>193.0</ele><time>2026-04-04T12:39:56.999Z</time></trkpt><trkpt lat="45.82654006440154" lon="10.097409864916717"><ele>193.0</ele><time>2026-04-04T12:39:57.999Z</time></trkpt><trkpt lat="45.82655045616594" lon="10.097524058932072"><ele>192.99999999999997</ele><time>2026-04-04T12:39:58.999Z</time></trkpt><trkpt lat="45.82657443745654" lon="10.097635608340385"><ele>193.0</ele><time>2026-04-04T12:39:59.999Z</time></trkpt><trkpt lat="45.826601961435486" lon="10.097744104687617"><ele>193.16666666666666</ele><time>2026-04-04T12:40:00.999Z</time></trkpt><trkpt lat="45.82663095598164" lon="10.097856389717146"><ele>193.33333333333331</ele><time>2026-04-04T12:40:01.999Z</time></trkpt><trkpt lat="45.826655502805714" lon="10.097965051056038"><ele>193.5</ele><time>2026-04-04T12:40:02.999Z</time></trkpt><trkpt lat="45.82667735429335" lon="10.098074234873314"><ele>193.66666666666669</ele><time>2026-04-04T12:40:03.999Z</time></trkpt><trkpt lat="45.82669641212857" lon="10.09818138923677"><ele>193.83333333333334</ele><time>2026-04-04T12:40:04.999Z</time></trkpt><trkpt lat="45.82671320057277" lon="10.098276394448586"><ele>194.0</ele><time>2026-04-04T12:40:05.999Z</time></trkpt><trkpt lat="45.82672265245668" lon="10.098418153359876"><ele>194.50000000000003</ele><time>2026-04-04T12:40:07.999Z</time></trkpt><trkpt lat="45.826748595244126" lon="10.098505420128287"><ele>195.0</ele><time>2026-04-04T12:40:12.998Z</time></trkpt><trkpt lat="45.8267690197052" lon="10.098625875174168"><ele>195.5</ele><time>2026-04-04T12:40:15.998Z</time></trkpt><trkpt lat="45.8268095410082" lon="10.098721702174387"><ele>196.0</ele><time>2026-04-04T12:40:17.998Z</time></trkpt><trkpt lat="45.82686037916924" lon="10.098812664196293"><ele>196.50000000000003</ele><time>2026-04-04T12:40:19.998Z</time></trkpt><trkpt lat="45.82689514496766" lon="10.098970466577194"><ele>197.0</ele><time>2026-04-04T12:40:21.998Z</time></trkpt><trkpt lat="45.82693577519913" lon="10.099123365951742"><ele>197.14285714285714</ele><time>2026-04-04T12:40:23.998Z</time></trkpt><trkpt lat="45.826958678798725" lon="10.09921240559014"><ele>197.28571428571428</ele><time>2026-04-04T12:40:24.998Z</time></trkpt><trkpt lat="45.8269904629681" lon="10.099301072277648"><ele>197.42857142857144</ele><time>2026-04-04T12:40:25.998Z</time></trkpt><trkpt lat="45.82701361397439" lon="10.099396822609226"><ele>197.57142857142856</ele><time>2026-04-04T12:40:26.998Z</time></trkpt><trkpt lat="45.82703604457105" lon="10.099494417365085"><ele>197.7142857142857</ele><time>2026-04-04T12:40:27.998Z</time></trkpt><trkpt lat="45.82706572664452" lon="10.099592372553754"><ele>197.85714285714286</ele><time>2026-04-04T12:40:28.998Z</time></trkpt><trkpt lat="45.82709465255264" lon="10.099683033786805"><ele>198.0</ele><time>2026-04-04T12:40:29.998Z</time></trkpt><trkpt lat="45.82712524904631" lon="10.09976730216965"><ele>198.0</ele><time>2026-04-04T12:40:30.998Z</time></trkpt><trkpt lat="45.82716092946648" lon="10.099855836167759"><ele>198.0</ele><time>2026-04-04T12:40:31.998Z</time></trkpt><trkpt lat="45.8272007019505" lon="10.099944403702962"><ele>198.0</ele><time>2026-04-04T12:40:32.998Z</time></trkpt><trkpt lat="45.82723617094274" lon="10.100031148067204"><ele>198.0</ele><time>2026-04-04T12:40:33.998Z</time></trkpt><trkpt lat="45.827273725585265" lon="10.10011586822109"><ele>198.0</ele><time>2026-04-04T12:40:34.998Z</time></trkpt><trkpt lat="45.827305337059734" lon="10.100204295461735"><ele>198.0</ele><time>2026-04-04T12:40:35.998Z</time></trkpt><trkpt lat="45.82733789235235" lon="10.100289000452003"><ele>198.0</ele><time>2026-04-04T12:40:36.998Z</time></trkpt><trkpt lat="45.827369431638616" lon="10.100377559275973"><ele>197.66666666666666</ele><time>2026-04-04T12:40:37.998Z</time></trkpt><trkpt lat="45.82740286581151" lon="10.100466672486617"><ele>197.33333333333331</ele><time>2026-04-04T12:40:38.998Z</time></trkpt><trkpt lat="45.82743934598583" lon="10.100558805004981"><ele>197.0</ele><time>2026-04-04T12:40:39.998Z</time></trkpt><trkpt lat="45.82748028866536" lon="10.100653649222927"><ele>196.66666666666666</ele><time>2026-04-04T12:40:40.998Z</time></trkpt><trkpt lat="45.827518575126895" lon="10.10074889225539"><ele>196.33333333333331</ele><time>2026-04-04T12:40:41.998Z</time></trkpt><trkpt lat="45.82755678487787" lon="10.100849012859834"><ele>196.0</ele><time>2026-04-04T12:40:42.998Z</time></trkpt><trkpt lat="45.82759468703614" lon="10.10094950391361"><ele>196.16666666666666</ele><time>2026-04-04T12:40:43.998Z</time></trkpt><trkpt lat="45.827637414684624" lon="10.10105159738526"><ele>196.33333333333331</ele><time>2026-04-04T12:40:44.998Z</time></trkpt><trkpt lat="45.82767789820236" lon="10.101158311987088"><ele>196.5</ele><time>2026-04-04T12:40:45.998Z</time></trkpt><trkpt lat="45.82771651891866" lon="10.101266530816172"><ele>196.66666666666669</ele><time>2026-04-04T12:40:46.998Z</time></trkpt><trkpt lat="45.82775379225939" lon="10.101370629603357"><ele>196.83333333333334</ele><time>2026-04-04T12:40:47.998Z</time></trkpt><trkpt lat="45.82779547471685" lon="10.101468751697688"><ele>197.0</ele><time>2026-04-04T12:40:48.998Z</time></trkpt><trkpt lat="45.82783312236298" lon="10.101566745883304"><ele>196.50000000000003</ele><time>2026-04-04T12:40:49.998Z</time></trkpt><trkpt lat="45.827870029959946" lon="10.10166124326991"><ele>196.0</ele><time>2026-04-04T12:40:50.998Z</time></trkpt><trkpt lat="45.827910984820534" lon="10.101758142468581"><ele>195.5</ele><time>2026-04-04T12:40:51.998Z</time></trkpt><trkpt lat="45.82795200127202" lon="10.101854986028822"><ele>195.0</ele><time>2026-04-04T12:40:52.998Z</time></trkpt><trkpt lat="45.828002533341916" lon="10.101942413239485"><ele>194.50000000000003</ele><time>2026-04-04T12:40:53.998Z</time></trkpt><trkpt lat="45.82805250109277" lon="10.10203404448172"><ele>194.0</ele><time>2026-04-04T12:40:54.998Z</time></trkpt><trkpt lat="45.82810880038008" lon="10.102113574497684"><ele>194.00000000000003</ele><time>2026-04-04T12:40:55.998Z</time></trkpt><trkpt lat="45.828167858209774" lon="10.102188580906748"><ele>194.0</ele><time>2026-04-04T12:40:57Z</time></trkpt><trkpt lat="45.82822894796134" lon="10.102260318103596"><ele>194.0</ele><time>2026-04-04T12:40:58Z</time></trkpt><trkpt lat="45.82829050947421" lon="10.102326473445466"><ele>194.0</ele><time>2026-04-04T12:40:59Z</time></trkpt><trkpt lat="45.82835549233767" lon="10.102377863229936"><ele>194.00000000000003</ele><time>2026-04-04T12:41:00Z</time></trkpt><trkpt lat="45.828418487914995" lon="10.102436646459202"><ele>194.0</ele><time>2026-04-04T12:41:01Z</time></trkpt><trkpt lat="45.82848766151662" lon="10.102485860907478"><ele>194.33333333333334</ele><time>2026-04-04T12:41:02Z</time></trkpt><trkpt lat="45.82855710957498" lon="10.102529536494211"><ele>194.66666666666669</ele><time>2026-04-04T12:41:03Z</time></trkpt><trkpt lat="45.828627013196076" lon="10.102568245228978"><ele>195.0</ele><time>2026-04-04T12:41:04Z</time></trkpt><trkpt lat="45.82869351599416" lon="10.10260020395512"><ele>195.33333333333331</ele><time>2026-04-04T12:41:05Z</time></trkpt><trkpt lat="45.828754817857536" lon="10.102628517791652"><ele>195.66666666666666</ele><time>2026-04-04T12:41:06Z</time></trkpt><trkpt lat="45.82881275754651" lon="10.102668562587791"><ele>196.0</ele><time>2026-04-04T12:41:07Z</time></trkpt><trkpt lat="45.82892202916296" lon="10.10273500730417"><ele>196.0</ele><time>2026-04-04T12:41:09Z</time></trkpt><trkpt lat="45.82902268759252" lon="10.102828291379064"><ele>196.0</ele><time>2026-04-04T12:41:11Z</time></trkpt><trkpt lat="45.82912044710929" lon="10.102896622292365"><ele>196.0</ele><time>2026-04-04T12:41:13Z</time></trkpt><trkpt lat="45.829202784267174" lon="10.102966056840652"><ele>196.0</ele><time>2026-04-04T12:41:15Z</time></trkpt><trkpt lat="45.829254111404026" lon="10.103107119843608"><ele>196.0</ele><time>2026-04-04T12:41:17Z</time></trkpt><trkpt lat="45.829296595597306" lon="10.103271794103666"><ele>195.71428571428572</ele><time>2026-04-04T12:41:19Z</time></trkpt><trkpt lat="45.82934215907227" lon="10.103338567186904"><ele>195.42857142857144</ele><time>2026-04-04T12:41:20Z</time></trkpt><trkpt lat="45.82934000075182" lon="10.103451350836057"><ele>195.14285714285714</ele><time>2026-04-04T12:41:20.999Z</time></trkpt><trkpt lat="45.82934396865575" lon="10.103548554943814"><ele>194.85714285714286</ele><time>2026-04-04T12:41:21.999Z</time></trkpt><trkpt lat="45.82934549889684" lon="10.10364993975941"><ele>194.57142857142858</ele><time>2026-04-04T12:41:22.999Z</time></trkpt><trkpt lat="45.8293479036916" lon="10.103752287069327"><ele>194.28571428571428</ele><time>2026-04-04T12:41:23.999Z</time></trkpt><trkpt lat="45.829353280700396" lon="10.103857673035016"><ele>194.0</ele><time>2026-04-04T12:41:24.999Z</time></trkpt><trkpt lat="45.82935593406893" lon="10.103968935975406"><ele>194.00000000000003</ele><time>2026-04-04T12:41:25.999Z</time></trkpt><trkpt lat="45.829358231943594" lon="10.104075105738556"><ele>194.0</ele><time>2026-04-04T12:41:26.999Z</time></trkpt><trkpt lat="45.8293597837132" lon="10.104185886365403"><ele>194.0</ele><time>2026-04-04T12:41:27.999Z</time></trkpt><trkpt lat="45.82936208227364" lon="10.104296369252141"><ele>194.0</ele><time>2026-04-04T12:41:28.999Z</time></trkpt><trkpt lat="45.82936414376844" lon="10.104406336368895"><ele>194.00000000000003</ele><time>2026-04-04T12:41:29.999Z</time></trkpt><trkpt lat="45.82936585594642" lon="10.104522410044321"><ele>194.0</ele><time>2026-04-04T12:41:30.999Z</time></trkpt><trkpt lat="45.82937026844054" lon="10.104633120695135"><ele>193.83333333333334</ele><time>2026-04-04T12:41:31.999Z</time></trkpt><trkpt lat="45.82937143428041" lon="10.104746449202098"><ele>193.66666666666669</ele><time>2026-04-04T12:41:32.999Z</time></trkpt><trkpt lat="45.82937527008385" lon="10.104856626152243"><ele>193.5</ele><time>2026-04-04T12:41:33.999Z</time></trkpt><trkpt lat="45.829376624590076" lon="10.104969574379263"><ele>193.33333333333331</ele><time>2026-04-04T12:41:34.999Z</time></trkpt><trkpt lat="45.82937989237268" lon="10.10507913855789"><ele>193.16666666666666</ele><time>2026-04-04T12:41:35.999Z</time></trkpt><trkpt lat="45.82938086487793" lon="10.105194813159773"><ele>193.0</ele><time>2026-04-04T12:41:36.999Z</time></trkpt><trkpt lat="45.82938586971814" lon="10.105308880181305"><ele>192.83333333333331</ele><time>2026-04-04T12:41:37.999Z</time></trkpt><trkpt lat="45.82938793155652" lon="10.10542754133501"><ele>192.66666666666666</ele><time>2026-04-04T12:41:38.999Z</time></trkpt><trkpt lat="45.82939058878512" lon="10.10555222357768"><ele>192.5</ele><time>2026-04-04T12:41:39.999Z</time></trkpt><trkpt lat="45.82939589362364" lon="10.10568144234421"><ele>192.33333333333331</ele><time>2026-04-04T12:41:40.999Z</time></trkpt><trkpt lat="45.82939728311861" lon="10.105814874828747"><ele>192.16666666666666</ele><time>2026-04-04T12:41:41.999Z</time></trkpt><trkpt lat="45.82938997629792" lon="10.105949901392753"><ele>192.0</ele><time>2026-04-04T12:41:42.999Z</time></trkpt><trkpt lat="45.82936688891847" lon="10.106081908022269"><ele>192.0</ele><time>2026-04-04T12:41:43.999Z</time></trkpt><trkpt lat="45.82932529233992" lon="10.106210985481663"><ele>192.0</ele><time>2026-04-04T12:41:44.999Z</time></trkpt><trkpt lat="45.8292603138938" lon="10.10632626193972"><ele>192.0</ele><time>2026-04-04T12:41:45.999Z</time></trkpt><trkpt lat="45.82918774225923" lon="10.106430904710074"><ele>192.0</ele><time>2026-04-04T12:41:46.999Z</time></trkpt><trkpt lat="45.829103177040956" lon="10.106515253456385"><ele>192.0</ele><time>2026-04-04T12:41:47.999Z</time></trkpt><trkpt lat="45.829019029511215" lon="10.106603044914044"><ele>192.2</ele><time>2026-04-04T12:41:48.999Z</time></trkpt><trkpt lat="45.828935345276534" lon="10.106688040603382"><ele>192.39999999999998</ele><time>2026-04-04T12:41:49.999Z</time></trkpt><trkpt lat="45.8288520531248" lon="10.106768485268672"><ele>192.60000000000002</ele><time>2026-04-04T12:41:50.999Z</time></trkpt><trkpt lat="45.82877168657302" lon="10.106847467048155"><ele>192.8</ele><time>2026-04-04T12:41:51.999Z</time></trkpt><trkpt lat="45.82869546215839" lon="10.106923156519777"><ele>193.0</ele><time>2026-04-04T12:41:52.999Z</time></trkpt><trkpt lat="45.82861684494885" lon="10.107001364186353"><ele>193.0</ele><time>2026-04-04T12:41:53.999Z</time></trkpt><trkpt lat="45.82854013664273" lon="10.107077593387633"><ele>193.0</ele><time>2026-04-04T12:41:54.999Z</time></trkpt><trkpt lat="45.82846164050837" lon="10.107140425687774"><ele>193.0</ele><time>2026-04-04T12:41:55.999Z</time></trkpt><trkpt lat="45.82837974841112" lon="10.107209587439772"><ele>193.0</ele><time>2026-04-04T12:41:56.999Z</time></trkpt><trkpt lat="45.82830142617884" lon="10.107282040751038"><ele>193.0</ele><time>2026-04-04T12:41:57.999Z</time></trkpt><trkpt lat="45.828219150569545" lon="10.107344392256069"><ele>192.8</ele><time>2026-04-04T12:41:58.999Z</time></trkpt><trkpt lat="45.82813433905904" lon="10.107400349874908"><ele>192.60000000000002</ele><time>2026-04-04T12:41:59.999Z</time></trkpt><trkpt lat="45.82805214901435" lon="10.10745693079528"><ele>192.39999999999998</ele><time>2026-04-04T12:42:00.999Z</time></trkpt><trkpt lat="45.82796864745242" lon="10.107505895492213"><ele>192.2</ele><time>2026-04-04T12:42:01.999Z</time></trkpt><trkpt lat="45.827884979578236" lon="10.107553427632254"><ele>192.0</ele><time>2026-04-04T12:42:02.999Z</time></trkpt><trkpt lat="45.82779920602471" lon="10.10759368887261"><ele>192.0</ele><time>2026-04-04T12:42:03.999Z</time></trkpt><trkpt lat="45.82771393420298" lon="10.107627237271515"><ele>192.0</ele><time>2026-04-04T12:42:04.999Z</time></trkpt><trkpt lat="45.827626433784715" lon="10.107662541241694"><ele>192.0</ele><time>2026-04-04T12:42:05.999Z</time></trkpt><trkpt lat="45.82754017852729" lon="10.107692898092344"><ele>192.0</ele><time>2026-04-04T12:42:06.999Z</time></trkpt><trkpt lat="45.827457712783236" lon="10.10773489491487"><ele>192.0</ele><time>2026-04-04T12:42:07.999Z</time></trkpt><trkpt lat="45.82738020509266" lon="10.107784244003039"><ele>192.0</ele><time>2026-04-04T12:42:08.999Z</time></trkpt><trkpt lat="45.827284082054284" lon="10.107754152227951"><ele>192.0</ele><time>2026-04-04T12:42:09.999Z</time></trkpt><trkpt lat="45.82719910057841" lon="10.107771372779387"><ele>192.0</ele><time>2026-04-04T12:42:10.999Z</time></trkpt><trkpt lat="45.82711330343481" lon="10.10778572194888"><ele>192.0</ele><time>2026-04-04T12:42:11.999Z</time></trkpt><trkpt lat="45.82702535405833" lon="10.107789247161893"><ele>192.0</ele><time>2026-04-04T12:42:12.999Z</time></trkpt><trkpt lat="45.826939957452744" lon="10.107805961314746"><ele>192.0</ele><time>2026-04-04T12:42:13.999Z</time></trkpt><trkpt lat="45.826854917627834" lon="10.107816578549421"><ele>192.0</ele><time>2026-04-04T12:42:14.999Z</time></trkpt><trkpt lat="45.82677003096974" lon="10.107828820701851"><ele>191.33333333333334</ele><time>2026-04-04T12:42:15.998Z</time></trkpt><trkpt lat="45.82668577025901" lon="10.107836706646124"><ele>190.66666666666666</ele><time>2026-04-04T12:42:16.998Z</time></trkpt><trkpt lat="45.826602353327914" lon="10.107848492319759"><ele>190.0</ele><time>2026-04-04T12:42:17.998Z</time></trkpt><trkpt lat="45.82651905726967" lon="10.107860124330962"><ele>189.33333333333331</ele><time>2026-04-04T12:42:18.998Z</time></trkpt><trkpt lat="45.826435985485816" lon="10.107874696413205"><ele>188.66666666666666</ele><time>2026-04-04T12:42:19.998Z</time></trkpt><trkpt lat="45.826351614075534" lon="10.107887418423651"><ele>188.0</ele><time>2026-04-04T12:42:20.998Z</time></trkpt><trkpt lat="45.82626842365093" lon="10.107902213522696"><ele>188.0</ele><time>2026-04-04T12:42:21.998Z</time></trkpt><trkpt lat="45.82618329532442" lon="10.10790989440885"><ele>188.0</ele><time>2026-04-04T12:42:22.998Z</time></trkpt><trkpt lat="45.82609998362132" lon="10.107922077564877"><ele>188.0</ele><time>2026-04-04T12:42:23.998Z</time></trkpt><trkpt lat="45.82601614691625" lon="10.107937813212512"><ele>188.0</ele><time>2026-04-04T12:42:24.998Z</time></trkpt><trkpt lat="45.825934182020525" lon="10.10795399641569"><ele>188.0</ele><time>2026-04-04T12:42:25.998Z</time></trkpt><trkpt lat="45.825849052406845" lon="10.107958002773072"><ele>188.0</ele><time>2026-04-04T12:42:26.998Z</time></trkpt><trkpt lat="45.82576705040193" lon="10.107972250585556"><ele>188.16666666666666</ele><time>2026-04-04T12:42:27.998Z</time></trkpt><trkpt lat="45.82568459062317" lon="10.107983266125773"><ele>188.33333333333331</ele><time>2026-04-04T12:42:28.998Z</time></trkpt><trkpt lat="45.82560116118093" lon="10.107996107684984"><ele>188.5</ele><time>2026-04-04T12:42:29.998Z</time></trkpt><trkpt lat="45.825516105263496" lon="10.108004062769613"><ele>188.66666666666666</ele><time>2026-04-04T12:42:30.998Z</time></trkpt><trkpt lat="45.825431383968834" lon="10.108005732206854"><ele>188.83333333333334</ele><time>2026-04-04T12:42:31.998Z</time></trkpt><trkpt lat="45.82534816823277" lon="10.10800687207798"><ele>189.0</ele><time>2026-04-04T12:42:32.998Z</time></trkpt><trkpt lat="45.82526572324248" lon="10.10800799854608"><ele>189.0</ele><time>2026-04-04T12:42:33.998Z</time></trkpt><trkpt lat="45.825182738388236" lon="10.108001302881807"><ele>189.0</ele><time>2026-04-04T12:42:34.998Z</time></trkpt><trkpt lat="45.825106234580915" lon="10.108001753350468"><ele>189.0</ele><time>2026-04-04T12:42:35.998Z</time></trkpt><trkpt lat="45.82502313204342" lon="10.107978618504381"><ele>189.0</ele><time>2026-04-04T12:42:36.998Z</time></trkpt><trkpt lat="45.82493960611408" lon="10.107964447446308"><ele>189.0</ele><time>2026-04-04T12:42:37.998Z</time></trkpt><trkpt lat="45.82485801330137" lon="10.107950001738084"><ele>189.0</ele><time>2026-04-04T12:42:38.998Z</time></trkpt><trkpt lat="45.82477652734767" lon="10.107929318299028"><ele>189.16666666666666</ele><time>2026-04-04T12:42:39.998Z</time></trkpt><trkpt lat="45.82469277408326" lon="10.10791431265537"><ele>189.33333333333334</ele><time>2026-04-04T12:42:40.998Z</time></trkpt><trkpt lat="45.82460909948512" lon="10.1078909414264"><ele>189.5</ele><time>2026-04-04T12:42:41.998Z</time></trkpt><trkpt lat="45.82452708066664" lon="10.107862856159766"><ele>189.66666666666669</ele><time>2026-04-04T12:42:42.998Z</time></trkpt><trkpt lat="45.824442449247975" lon="10.107838883041824"><ele>189.83333333333334</ele><time>2026-04-04T12:42:43.998Z</time></trkpt><trkpt lat="45.824359711378094" lon="10.107809882890757"><ele>190.0</ele><time>2026-04-04T12:42:44.998Z</time></trkpt><trkpt lat="45.82427775736901" lon="10.107772191570124"><ele>190.0</ele><time>2026-04-04T12:42:45.998Z</time></trkpt><trkpt lat="45.82419755630249" lon="10.107741066442738"><ele>190.0</ele><time>2026-04-04T12:42:46.998Z</time></trkpt><trkpt lat="45.82411729859247" lon="10.1077064214123"><ele>190.0</ele><time>2026-04-04T12:42:47.998Z</time></trkpt><trkpt lat="45.824036578787855" lon="10.107675098356445"><ele>190.0</ele><time>2026-04-04T12:42:48.998Z</time></trkpt><trkpt lat="45.82395973810933" lon="10.107630490096664"><ele>190.0</ele><time>2026-04-04T12:42:49.998Z</time></trkpt><trkpt lat="45.8238806088329" lon="10.107602499259086"><ele>190.0</ele><time>2026-04-04T12:42:50.998Z</time></trkpt><trkpt lat="45.82380487465678" lon="10.10756308728234"><ele>190.0</ele><time>2026-04-04T12:42:51.998Z</time></trkpt><trkpt lat="45.82372677283361" lon="10.107525423061732"><ele>190.0</ele><time>2026-04-04T12:42:52.998Z</time></trkpt><trkpt lat="45.82365105975726" lon="10.107490744207242"><ele>190.0</ele><time>2026-04-04T12:42:53.998Z</time></trkpt><trkpt lat="45.82357363314715" lon="10.107454045392801"><ele>190.0</ele><time>2026-04-04T12:42:54.998Z</time></trkpt><trkpt lat="45.82349597633008" lon="10.107414688531147"><ele>190.0</ele><time>2026-04-04T12:42:55.998Z</time></trkpt><trkpt lat="45.823416305712456" lon="10.107379416206447"><ele>190.0</ele><time>2026-04-04T12:42:56.998Z</time></trkpt><trkpt lat="45.82333746027445" lon="10.107339067635218"><ele>190.0</ele><time>2026-04-04T12:42:57.998Z</time></trkpt><trkpt lat="45.823257962844515" lon="10.107303318128897"><ele>190.0</ele><time>2026-04-04T12:42:58.998Z</time></trkpt><trkpt lat="45.82317797967625" lon="10.107270896689666"><ele>190.0</ele><time>2026-04-04T12:42:59.998Z</time></trkpt><trkpt lat="45.82310264934458" lon="10.107229931297926"><ele>190.0</ele><time>2026-04-04T12:43:00.998Z</time></trkpt><trkpt lat="45.82302652685674" lon="10.107198591030828"><ele>190.0</ele><time>2026-04-04T12:43:01.998Z</time></trkpt><trkpt lat="45.82295050913104" lon="10.107161341685229"><ele>190.0</ele><time>2026-04-04T12:43:03Z</time></trkpt><trkpt lat="45.82287550794503" lon="10.107124432326138"><ele>190.0</ele><time>2026-04-04T12:43:04Z</time></trkpt><trkpt lat="45.822798467770355" lon="10.107099340085652"><ele>190.0</ele><time>2026-04-04T12:43:05Z</time></trkpt><trkpt lat="45.82272214149591" lon="10.107052667849675"><ele>190.0</ele><time>2026-04-04T12:43:06Z</time></trkpt><trkpt lat="45.82264275613488" lon="10.107020846065444"><ele>190.0</ele><time>2026-04-04T12:43:07Z</time></trkpt><trkpt lat="45.82256297763067" lon="10.1069794823888"><ele>190.0</ele><time>2026-04-04T12:43:08Z</time></trkpt><trkpt lat="45.82248090085784" lon="10.10695244549394"><ele>190.0</ele><time>2026-04-04T12:43:09Z</time></trkpt><trkpt lat="45.822398996853366" lon="10.1069172058779"><ele>190.16666666666669</ele><time>2026-04-04T12:43:10Z</time></trkpt><trkpt lat="45.82232069930705" lon="10.10687352540352"><ele>190.33333333333334</ele><time>2026-04-04T12:43:11Z</time></trkpt><trkpt lat="45.82224110091029" lon="10.106834260005305"><ele>190.5</ele><time>2026-04-04T12:43:12Z</time></trkpt><trkpt lat="45.822162793500496" lon="10.106796398693648"><ele>190.66666666666666</ele><time>2026-04-04T12:43:13Z</time></trkpt><trkpt lat="45.822081827242094" lon="10.106765270248632"><ele>190.83333333333331</ele><time>2026-04-04T12:43:14Z</time></trkpt><trkpt lat="45.822002645902494" lon="10.106726559454364"><ele>191.0</ele><time>2026-04-04T12:43:15Z</time></trkpt><trkpt lat="45.82192449678102" lon="10.106692662810508"><ele>191.0</ele><time>2026-04-04T12:43:16Z</time></trkpt><trkpt lat="45.82184463345727" lon="10.106660927245418"><ele>191.0</ele><time>2026-04-04T12:43:17Z</time></trkpt><trkpt lat="45.82176548297165" lon="10.106621883725623"><ele>191.0</ele><time>2026-04-04T12:43:18Z</time></trkpt><trkpt lat="45.821683794575975" lon="10.106589575776018"><ele>191.0</ele><time>2026-04-04T12:43:19Z</time></trkpt><trkpt lat="45.82160447252415" lon="10.106549850107227"><ele>191.0</ele><time>2026-04-04T12:43:20Z</time></trkpt><trkpt lat="45.82152539919026" lon="10.106520071140146"><ele>191.0</ele><time>2026-04-04T12:43:21Z</time></trkpt><trkpt lat="45.821449573428374" lon="10.106482711194419"><ele>190.5</ele><time>2026-04-04T12:43:22Z</time></trkpt><trkpt lat="45.82137095481519" lon="10.106434506428238"><ele>190.0</ele><time>2026-04-04T12:43:23Z</time></trkpt><trkpt lat="45.82129305981641" lon="10.106397123571645"><ele>189.5</ele><time>2026-04-04T12:43:24Z</time></trkpt><trkpt lat="45.82121569013007" lon="10.106361756136673"><ele>189.0</ele><time>2026-04-04T12:43:25Z</time></trkpt><trkpt lat="45.82113808076631" lon="10.106326251095698"><ele>188.5</ele><time>2026-04-04T12:43:25.999Z</time></trkpt><trkpt lat="45.821063222985984" lon="10.10628726044103"><ele>188.0</ele><time>2026-04-04T12:43:26.999Z</time></trkpt><trkpt lat="45.82098632198226" lon="10.106247299799032"><ele>187.83333333333331</ele><time>2026-04-04T12:43:27.999Z</time></trkpt><trkpt lat="45.82091072448073" lon="10.106216806325708"><ele>187.66666666666666</ele><time>2026-04-04T12:43:28.999Z</time></trkpt><trkpt lat="45.820833711357835" lon="10.106173499386562"><ele>187.5</ele><time>2026-04-04T12:43:29.999Z</time></trkpt><trkpt lat="45.820755030653345" lon="10.106143976173177"><ele>187.33333333333334</ele><time>2026-04-04T12:43:30.999Z</time></trkpt><trkpt lat="45.820677542980086" lon="10.106105526932328"><ele>187.16666666666669</ele><time>2026-04-04T12:43:31.999Z</time></trkpt><trkpt lat="45.820599806785765" lon="10.106065082633073"><ele>187.0</ele><time>2026-04-04T12:43:32.999Z</time></trkpt><trkpt lat="45.82052009691773" lon="10.106031187754443"><ele>187.0</ele><time>2026-04-04T12:43:33.999Z</time></trkpt><trkpt lat="45.82044089613305" lon="10.10600188787016"><ele>187.0</ele><time>2026-04-04T12:43:34.999Z</time></trkpt><trkpt lat="45.82036269520947" lon="10.105955468830214"><ele>187.0</ele><time>2026-04-04T12:43:35.999Z</time></trkpt><trkpt lat="45.82028655337207" lon="10.105924476928273"><ele>187.0</ele><time>2026-04-04T12:43:36.999Z</time></trkpt><trkpt lat="45.820208272541684" lon="10.105887152802772"><ele>187.0</ele><time>2026-04-04T12:43:37.999Z</time></trkpt><trkpt lat="45.820132795020726" lon="10.105854430221612"><ele>187.0</ele><time>2026-04-04T12:43:38.999Z</time></trkpt><trkpt lat="45.82005433998059" lon="10.105817273774093"><ele>186.83333333333334</ele><time>2026-04-04T12:43:39.999Z</time></trkpt><trkpt lat="45.819975610284686" lon="10.105779125527553"><ele>186.66666666666669</ele><time>2026-04-04T12:43:40.999Z</time></trkpt><trkpt lat="45.81989916808238" lon="10.105745524405854"><ele>186.5</ele><time>2026-04-04T12:43:41.999Z</time></trkpt><trkpt lat="45.81982234357662" lon="10.10571190723869"><ele>186.33333333333334</ele><time>2026-04-04T12:43:42.999Z</time></trkpt><trkpt lat="45.8197424086296" lon="10.105676075780952"><ele>186.16666666666666</ele><time>2026-04-04T12:43:43.999Z</time></trkpt><trkpt lat="45.81966392565345" lon="10.105646347653376"><ele>186.0</ele><time>2026-04-04T12:43:44.999Z</time></trkpt><trkpt lat="45.819584735825075" lon="10.105603830469976"><ele>186.0</ele><time>2026-04-04T12:43:45.999Z</time></trkpt><trkpt lat="45.819505747686144" lon="10.105573765757883"><ele>186.0</ele><time>2026-04-04T12:43:46.999Z</time></trkpt><trkpt lat="45.81942719778487" lon="10.105546769781254"><ele>186.0</ele><time>2026-04-04T12:43:47.999Z</time></trkpt><trkpt lat="45.819344870229834" lon="10.105511476153053"><ele>186.0</ele><time>2026-04-04T12:43:48.999Z</time></trkpt><trkpt lat="45.81926412930183" lon="10.105486275486687"><ele>186.0</ele><time>2026-04-04T12:43:49.999Z</time></trkpt><trkpt lat="45.81918227155222" lon="10.105471941579246"><ele>186.0</ele><time>2026-04-04T12:43:50.999Z</time></trkpt><trkpt lat="45.819098467455945" lon="10.10544700303802"><ele>186.33333333333334</ele><time>2026-04-04T12:43:51.999Z</time></trkpt><trkpt lat="45.819017883029446" lon="10.105436747075348"><ele>186.66666666666666</ele><time>2026-04-04T12:43:52.999Z</time></trkpt><trkpt lat="45.81893657074666" lon="10.105419120893274"><ele>187.0</ele><time>2026-04-04T12:43:53.999Z</time></trkpt><trkpt lat="45.81885396269701" lon="10.105401319650259"><ele>187.33333333333331</ele><time>2026-04-04T12:43:54.999Z</time></trkpt><trkpt lat="45.81877098555068" lon="10.105394206727011"><ele>187.66666666666666</ele><time>2026-04-04T12:43:55.999Z</time></trkpt><trkpt lat="45.81869104204104" lon="10.105397016237426"><ele>188.0</ele><time>2026-04-04T12:43:56.999Z</time></trkpt><trkpt lat="45.81860592619564" lon="10.105386039383182"><ele>188.0</ele><time>2026-04-04T12:43:57.999Z</time></trkpt><trkpt lat="45.81852196815769" lon="10.105390370820201"><ele>188.0</ele><time>2026-04-04T12:43:58.999Z</time></trkpt><trkpt lat="45.818434004428426" lon="10.105387132321626"><ele>188.0</ele><time>2026-04-04T12:43:59.999Z</time></trkpt><trkpt lat="45.818349671709996" lon="10.105396898209664"><ele>188.0</ele><time>2026-04-04T12:44:00.999Z</time></trkpt><trkpt lat="45.81826456487517" lon="10.105405901274992"><ele>188.0</ele><time>2026-04-04T12:44:01.999Z</time></trkpt><trkpt lat="45.818181923144216" lon="10.105422814537999"><ele>188.0</ele><time>2026-04-04T12:44:02.999Z</time></trkpt><trkpt lat="45.81809714243099" lon="10.105440707858293"><ele>187.83333333333331</ele><time>2026-04-04T12:44:03.999Z</time></trkpt><trkpt lat="45.81801437867866" lon="10.105460984394801"><ele>187.66666666666666</ele><time>2026-04-04T12:44:04.999Z</time></trkpt><trkpt lat="45.81793468020868" lon="10.105488466696013"><ele>187.5</ele><time>2026-04-04T12:44:05.999Z</time></trkpt><trkpt lat="45.81785374875106" lon="10.105518422231045"><ele>187.33333333333334</ele><time>2026-04-04T12:44:06.999Z</time></trkpt><trkpt lat="45.81777458235522" lon="10.105550875188733"><ele>187.16666666666669</ele><time>2026-04-04T12:44:07.999Z</time></trkpt><trkpt lat="45.817690226548585" lon="10.10556895195356"><ele>187.0</ele><time>2026-04-04T12:44:08.999Z</time></trkpt><trkpt lat="45.81760974961284" lon="10.105587437154876"><ele>187.0</ele><time>2026-04-04T12:44:09.999Z</time></trkpt><trkpt lat="45.81752479197062" lon="10.105612157137905"><ele>187.0</ele><time>2026-04-04T12:44:10.999Z</time></trkpt><trkpt lat="45.817441926213476" lon="10.1056396500014"><ele>187.0</ele><time>2026-04-04T12:44:11.999Z</time></trkpt><trkpt lat="45.81736042514188" lon="10.105666053671507"><ele>187.0</ele><time>2026-04-04T12:44:12.999Z</time></trkpt><trkpt lat="45.817276716571484" lon="10.105689791504087"><ele>187.0</ele><time>2026-04-04T12:44:13.999Z</time></trkpt><trkpt lat="45.817196572924814" lon="10.105724541915297"><ele>187.0</ele><time>2026-04-04T12:44:14.999Z</time></trkpt><trkpt lat="45.81711370372433" lon="10.105745871624292"><ele>187.66666666666669</ele><time>2026-04-04T12:44:15.999Z</time></trkpt><trkpt lat="45.817035352962066" lon="10.105774974125167"><ele>188.33333333333334</ele><time>2026-04-04T12:44:16.999Z</time></trkpt><trkpt lat="45.81695500591108" lon="10.105805536771921"><ele>189.0</ele><time>2026-04-04T12:44:17.999Z</time></trkpt><trkpt lat="45.816872832341026" lon="10.105829095544086"><ele>189.66666666666666</ele><time>2026-04-04T12:44:18.999Z</time></trkpt><trkpt lat="45.8167936673632" lon="10.105852622447713"><ele>190.33333333333331</ele><time>2026-04-04T12:44:19.998Z</time></trkpt><trkpt lat="45.816716253485" lon="10.10588300474697"><ele>191.0</ele><time>2026-04-04T12:44:20.998Z</time></trkpt><trkpt lat="45.816637725917346" lon="10.105912313686169"><ele>191.0</ele><time>2026-04-04T12:44:21.998Z</time></trkpt><trkpt lat="45.81655709406419" lon="10.10593853417736"><ele>191.0</ele><time>2026-04-04T12:44:22.998Z</time></trkpt><trkpt lat="45.81647611949642" lon="10.10596554239649"><ele>191.0</ele><time>2026-04-04T12:44:23.998Z</time></trkpt><trkpt lat="45.8163981646299" lon="10.105993335663385"><ele>191.0</ele><time>2026-04-04T12:44:24.998Z</time></trkpt><trkpt lat="45.81631795984548" lon="10.106016515748486"><ele>191.0</ele><time>2026-04-04T12:44:25.998Z</time></trkpt><trkpt lat="45.81623773026615" lon="10.106039836662058"><ele>191.0</ele><time>2026-04-04T12:44:26.998Z</time></trkpt><trkpt lat="45.81615846261169" lon="10.106063617114037"><ele>191.0</ele><time>2026-04-04T12:44:27.998Z</time></trkpt><trkpt lat="45.81608242170781" lon="10.106092340428244"><ele>191.0</ele><time>2026-04-04T12:44:28.998Z</time></trkpt><trkpt lat="45.816001416945504" lon="10.106116679120401"><ele>191.0</ele><time>2026-04-04T12:44:29.998Z</time></trkpt><trkpt lat="45.81592518163677" lon="10.10614690123794"><ele>191.0</ele><time>2026-04-04T12:44:30.998Z</time></trkpt><trkpt lat="45.815842363191955" lon="10.10617152338868"><ele>191.0</ele><time>2026-04-04T12:44:31.998Z</time></trkpt><trkpt lat="45.815762113813406" lon="10.106197871395967"><ele>191.0</ele><time>2026-04-04T12:44:32.998Z</time></trkpt><trkpt lat="45.81567929359538" lon="10.106225842040367"><ele>190.33333333333331</ele><time>2026-04-04T12:44:33.998Z</time></trkpt><trkpt lat="45.815600971942956" lon="10.106252770100054"><ele>189.66666666666666</ele><time>2026-04-04T12:44:34.998Z</time></trkpt><trkpt lat="45.81551939381117" lon="10.106275838558513"><ele>189.0</ele><time>2026-04-04T12:44:35.998Z</time></trkpt><trkpt lat="45.81544360388354" lon="10.106298339523391"><ele>188.33333333333334</ele><time>2026-04-04T12:44:36.998Z</time></trkpt><trkpt lat="45.81536755379825" lon="10.106324470293806"><ele>187.66666666666669</ele><time>2026-04-04T12:44:37.998Z</time></trkpt><trkpt lat="45.815290433999344" lon="10.106352760625818"><ele>187.0</ele><time>2026-04-04T12:44:38.998Z</time></trkpt><trkpt lat="45.815213825489245" lon="10.106378282755063"><ele>187.14285714285714</ele><time>2026-04-04T12:44:39.998Z</time></trkpt><trkpt lat="45.815139930853526" lon="10.10639100855411"><ele>187.2857142857143</ele><time>2026-04-04T12:44:40.998Z</time></trkpt><trkpt lat="45.81506711653626" lon="10.106391546922847"><ele>187.42857142857144</ele><time>2026-04-04T12:44:41.998Z</time></trkpt><trkpt lat="45.814993570756464" lon="10.106390582180184"><ele>187.57142857142856</ele><time>2026-04-04T12:44:42.998Z</time></trkpt><trkpt lat="45.814936077203114" lon="10.106324474493846"><ele>187.71428571428572</ele><time>2026-04-04T12:44:43.998Z</time></trkpt><trkpt lat="45.814871627622374" lon="10.10628294839095"><ele>187.85714285714286</ele><time>2026-04-04T12:44:44.998Z</time></trkpt><trkpt lat="45.814799529466214" lon="10.106286809671596"><ele>188.0</ele><time>2026-04-04T12:44:45.998Z</time></trkpt><trkpt lat="45.81473397687148" lon="10.106338698910491"><ele>188.0</ele><time>2026-04-04T12:44:46.998Z</time></trkpt><trkpt lat="45.81468420772109" lon="10.106419838304133"><ele>188.0</ele><time>2026-04-04T12:44:47.998Z</time></trkpt><trkpt lat="45.81464947742906" lon="10.106512762465597"><ele>188.0</ele><time>2026-04-04T12:44:48.998Z</time></trkpt><trkpt lat="45.814600447031665" lon="10.10658158663266"><ele>188.0</ele><time>2026-04-04T12:44:49.998Z</time></trkpt><trkpt lat="45.81453162429651" lon="10.106616003731489"><ele>188.0</ele><time>2026-04-04T12:44:50.998Z</time></trkpt><trkpt lat="45.81445452605761" lon="10.106638403711708"><ele>188.0</ele><time>2026-04-04T12:44:51.998Z</time></trkpt><trkpt lat="45.8143820667325" lon="10.106658625384362"><ele>188.0</ele><time>2026-04-04T12:44:52.998Z</time></trkpt><trkpt lat="45.81430439965426" lon="10.106681559204258"><ele>188.16666666666666</ele><time>2026-04-04T12:44:53.998Z</time></trkpt><trkpt lat="45.81422180109663" lon="10.106712383963457"><ele>188.33333333333331</ele><time>2026-04-04T12:44:54.998Z</time></trkpt><trkpt lat="45.81413856096183" lon="10.106729280343288"><ele>188.5</ele><time>2026-04-04T12:44:55.998Z</time></trkpt><trkpt lat="45.81405722588694" lon="10.10676005393206"><ele>188.66666666666666</ele><time>2026-04-04T12:44:56.998Z</time></trkpt><trkpt lat="45.813976405240574" lon="10.106786300962689"><ele>188.83333333333334</ele><time>2026-04-04T12:44:57.998Z</time></trkpt><trkpt lat="45.81389688927182" lon="10.106813815768803"><ele>189.0</ele><time>2026-04-04T12:44:58.998Z</time></trkpt><trkpt lat="45.813817303630806" lon="10.10683935725183"><ele>189.0</ele><time>2026-04-04T12:44:59.998Z</time></trkpt><trkpt lat="45.81374072679685" lon="10.106870614622053"><ele>189.0</ele><time>2026-04-04T12:45:00.998Z</time></trkpt><trkpt lat="45.81365856153981" lon="10.10689556291533"><ele>189.0</ele><time>2026-04-04T12:45:01.998Z</time></trkpt><trkpt lat="45.81357195113595" lon="10.106917965231288"><ele>189.0</ele><time>2026-04-04T12:45:02.998Z</time></trkpt><trkpt lat="45.81348994223774" lon="10.106946804516319"><ele>189.0</ele><time>2026-04-04T12:45:03.998Z</time></trkpt><trkpt lat="45.81340763966305" lon="10.106970014357806"><ele>189.0</ele><time>2026-04-04T12:45:04.998Z</time></trkpt><trkpt lat="45.8133279359846" lon="10.107003462236255"><ele>188.66666666666666</ele><time>2026-04-04T12:45:05.998Z</time></trkpt><trkpt lat="45.81324493881221" lon="10.107029899559834"><ele>188.33333333333334</ele><time>2026-04-04T12:45:06.998Z</time></trkpt><trkpt lat="45.81316362533578" lon="10.107055993456337"><ele>188.0</ele><time>2026-04-04T12:45:07.998Z</time></trkpt><trkpt lat="45.813080712830896" lon="10.107076913010028"><ele>187.66666666666669</ele><time>2026-04-04T12:45:09Z</time></trkpt><trkpt lat="45.81299975084448" lon="10.107106242439174"><ele>187.33333333333334</ele><time>2026-04-04T12:45:10Z</time></trkpt><trkpt lat="45.812918571549964" lon="10.107136486425109"><ele>187.0</ele><time>2026-04-04T12:45:11Z</time></trkpt><trkpt lat="45.81283844798163" lon="10.107163067546429"><ele>187.0</ele><time>2026-04-04T12:45:12Z</time></trkpt><trkpt lat="45.81275875745335" lon="10.107194484833116"><ele>187.0</ele><time>2026-04-04T12:45:13Z</time></trkpt><trkpt lat="45.81267946842419" lon="10.107219677121503"><ele>187.0</ele><time>2026-04-04T12:45:14Z</time></trkpt><trkpt lat="45.812600096918395" lon="10.10724356623671"><ele>187.0</ele><time>2026-04-04T12:45:15Z</time></trkpt><trkpt lat="45.81252192404743" lon="10.107272424067494"><ele>187.0</ele><time>2026-04-04T12:45:16Z</time></trkpt><trkpt lat="45.81244140237657" lon="10.107300510276941"><ele>187.0</ele><time>2026-04-04T12:45:17Z</time></trkpt><trkpt lat="45.81236226896748" lon="10.107327153581219"><ele>187.16666666666669</ele><time>2026-04-04T12:45:18Z</time></trkpt><trkpt lat="45.81228279883922" lon="10.107354275136753"><ele>187.33333333333334</ele><time>2026-04-04T12:45:19Z</time></trkpt><trkpt lat="45.812204007723096" lon="10.107386115675581"><ele>187.5</ele><time>2026-04-04T12:45:20Z</time></trkpt><trkpt lat="45.81212233094953" lon="10.107409829150965"><ele>187.66666666666666</ele><time>2026-04-04T12:45:21Z</time></trkpt><trkpt lat="45.812041725458876" lon="10.107438252766306"><ele>187.83333333333331</ele><time>2026-04-04T12:45:22Z</time></trkpt><trkpt lat="45.81195885675309" lon="10.107458810768767"><ele>188.0</ele><time>2026-04-04T12:45:23Z</time></trkpt><trkpt lat="45.81187465533221" lon="10.107483702967652"><ele>187.5</ele><time>2026-04-04T12:45:24Z</time></trkpt><trkpt lat="45.8117939830986" lon="10.107506612235836"><ele>187.0</ele><time>2026-04-04T12:45:25Z</time></trkpt><trkpt lat="45.81171262256304" lon="10.107532500206045"><ele>186.5</ele><time>2026-04-04T12:45:26Z</time></trkpt><trkpt lat="45.811633740971935" lon="10.107569245020972"><ele>186.0</ele><time>2026-04-04T12:45:27Z</time></trkpt><trkpt lat="45.81155013704186" lon="10.107582945911517"><ele>185.5</ele><time>2026-04-04T12:45:28Z</time></trkpt><trkpt lat="45.811475963980676" lon="10.107613898591548"><ele>185.0</ele><time>2026-04-04T12:45:29Z</time></trkpt><trkpt lat="45.811399024152365" lon="10.107633590199976"><ele>185.0</ele><time>2026-04-04T12:45:30Z</time></trkpt><trkpt lat="45.81131863238048" lon="10.10765816947959"><ele>185.0</ele><time>2026-04-04T12:45:30.999Z</time></trkpt><trkpt lat="45.811240603029894" lon="10.107689620858748"><ele>185.0</ele><time>2026-04-04T12:45:31.999Z</time></trkpt><trkpt lat="45.81115980022693" lon="10.107708709793993"><ele>185.0</ele><time>2026-04-04T12:45:32.999Z</time></trkpt><trkpt lat="45.811079168506495" lon="10.107728366471642"><ele>185.0</ele><time>2026-04-04T12:45:33.999Z</time></trkpt><trkpt lat="45.81099394177428" lon="10.107735953268408"><ele>185.0</ele><time>2026-04-04T12:45:34.999Z</time></trkpt><trkpt lat="45.81091358086729" lon="10.107746417153079"><ele>185.33333333333331</ele><time>2026-04-04T12:45:35.999Z</time></trkpt><trkpt lat="45.81083069465943" lon="10.107757277650977"><ele>185.66666666666666</ele><time>2026-04-04T12:45:36.999Z</time></trkpt><trkpt lat="45.81074837400838" lon="10.107778317438354"><ele>186.0</ele><time>2026-04-04T12:45:37.999Z</time></trkpt><trkpt lat="45.810666527442" lon="10.107791130916844"><ele>186.33333333333334</ele><time>2026-04-04T12:45:38.999Z</time></trkpt><trkpt lat="45.8105866698164" lon="10.107810359635625"><ele>186.66666666666669</ele><time>2026-04-04T12:45:39.999Z</time></trkpt><trkpt lat="45.810504283089394" lon="10.107822655684565"><ele>187.0</ele><time>2026-04-04T12:45:40.999Z</time></trkpt><trkpt lat="45.81042725678932" lon="10.107830427321762"><ele>187.0</ele><time>2026-04-04T12:45:41.999Z</time></trkpt><trkpt lat="45.81035806184359" lon="10.107837755273536"><ele>187.0</ele><time>2026-04-04T12:45:42.999Z</time></trkpt><trkpt lat="45.810249837304106" lon="10.107856865796519"><ele>187.0</ele><time>2026-04-04T12:45:44.999Z</time></trkpt><trkpt lat="45.81017866760147" lon="10.107869492748012"><ele>187.0</ele><time>2026-04-04T12:45:46.999Z</time></trkpt><trkpt lat="45.810090493326534" lon="10.107882502818175"><ele>187.0</ele><time>2026-04-04T12:45:49.999Z</time></trkpt><trkpt lat="45.81000984692391" lon="10.107904087734623"><ele>187.0</ele><time>2026-04-04T12:45:51.999Z</time></trkpt><trkpt lat="45.80990855550413" lon="10.107917379573694"><ele>187.16666666666669</ele><time>2026-04-04T12:45:53.999Z</time></trkpt><trkpt lat="45.80979699968722" lon="10.107937140498898"><ele>187.33333333333334</ele><time>2026-04-04T12:45:55.999Z</time></trkpt><trkpt lat="45.80967293830136" lon="10.107964184178014"><ele>187.5</ele><time>2026-04-04T12:45:57.999Z</time></trkpt><trkpt lat="45.80960473758472" lon="10.107970381499285"><ele>187.66666666666666</ele><time>2026-04-04T12:45:58.999Z</time></trkpt><trkpt lat="45.809539650526794" lon="10.107980798475104"><ele>187.83333333333331</ele><time>2026-04-04T12:45:59.999Z</time></trkpt><trkpt lat="45.80947341755514" lon="10.10799310039754"><ele>188.0</ele><time>2026-04-04T12:46:00.999Z</time></trkpt><trkpt lat="45.809404150566564" lon="10.10800274722655"><ele>188.0</ele><time>2026-04-04T12:46:01.999Z</time></trkpt><trkpt lat="45.8093361074097" lon="10.108016242545789"><ele>188.0</ele><time>2026-04-04T12:46:02.999Z</time></trkpt><trkpt lat="45.80926891881998" lon="10.108024017490848"><ele>188.0</ele><time>2026-04-04T12:46:03.999Z</time></trkpt><trkpt lat="45.80915807844585" lon="10.108046639824265"><ele>188.0</ele><time>2026-04-04T12:46:05.999Z</time></trkpt><trkpt lat="45.80905410717063" lon="10.10807587243146"><ele>188.0</ele><time>2026-04-04T12:46:07.999Z</time></trkpt><trkpt lat="45.80893178458734" lon="10.108056824992357"><ele>187.85714285714286</ele><time>2026-04-04T12:46:09.999Z</time></trkpt><trkpt lat="45.80886519517278" lon="10.108049935956688"><ele>187.71428571428572</ele><time>2026-04-04T12:46:10.999Z</time></trkpt><trkpt lat="45.80879643269678" lon="10.108049700630783"><ele>187.57142857142856</ele><time>2026-04-04T12:46:11.999Z</time></trkpt><trkpt lat="45.80872954990812" lon="10.108022316424837"><ele>187.42857142857144</ele><time>2026-04-04T12:46:12.999Z</time></trkpt><trkpt lat="45.80866646718817" lon="10.107958863240905"><ele>187.2857142857143</ele><time>2026-04-04T12:46:13.999Z</time></trkpt><trkpt lat="45.808614901058775" lon="10.107880433766333"><ele>187.14285714285714</ele><time>2026-04-04T12:46:14.999Z</time></trkpt><trkpt lat="45.80856555470501" lon="10.107798750085015"><ele>187.0</ele><time>2026-04-04T12:46:15.999Z</time></trkpt><trkpt lat="45.80852162771896" lon="10.107710437735342"><ele>187.0</ele><time>2026-04-04T12:46:16.999Z</time></trkpt><trkpt lat="45.808465300628534" lon="10.107634194978813"><ele>187.0</ele><time>2026-04-04T12:46:17.999Z</time></trkpt><trkpt lat="45.80841271072786" lon="10.107549422608123"><ele>187.0</ele><time>2026-04-04T12:46:18.999Z</time></trkpt><trkpt lat="45.80835693997882" lon="10.1074653760198"><ele>187.0</ele><time>2026-04-04T12:46:19.999Z</time></trkpt><trkpt lat="45.80830174821489" lon="10.107381844481786"><ele>187.0</ele><time>2026-04-04T12:46:20.999Z</time></trkpt><trkpt lat="45.808239368072414" lon="10.10730898239966"><ele>187.0</ele><time>2026-04-04T12:46:21.999Z</time></trkpt><trkpt lat="45.80818615500396" lon="10.107226608435893"><ele>187.0</ele><time>2026-04-04T12:46:22.999Z</time></trkpt><trkpt lat="45.80812774911002" lon="10.107155472494549"><ele>187.0</ele><time>2026-04-04T12:46:23.998Z</time></trkpt><trkpt lat="45.80806804757713" lon="10.107077285542209"><ele>187.0</ele><time>2026-04-04T12:46:24.998Z</time></trkpt><trkpt lat="45.80800823000985" lon="10.10700038168221"><ele>187.0</ele><time>2026-04-04T12:46:25.998Z</time></trkpt><trkpt lat="45.80794297393238" lon="10.106931855643236"><ele>187.0</ele><time>2026-04-04T12:46:26.998Z</time></trkpt><trkpt lat="45.80788256109564" lon="10.106857263724091"><ele>187.0</ele><time>2026-04-04T12:46:27.998Z</time></trkpt><trkpt lat="45.807825075676824" lon="10.106780461218808"><ele>187.0</ele><time>2026-04-04T12:46:28.998Z</time></trkpt><trkpt lat="45.80776163197068" lon="10.10670692678009"><ele>187.0</ele><time>2026-04-04T12:46:29.998Z</time></trkpt><trkpt lat="45.80769807534381" lon="10.106628006281692"><ele>187.0</ele><time>2026-04-04T12:46:30.998Z</time></trkpt><trkpt lat="45.807634939622936" lon="10.106554240263916"><ele>187.0</ele><time>2026-04-04T12:46:31.998Z</time></trkpt><trkpt lat="45.80756691067744" lon="10.106480020153663"><ele>187.0</ele><time>2026-04-04T12:46:32.998Z</time></trkpt><trkpt lat="45.80750775419324" lon="10.106404723694181"><ele>187.0</ele><time>2026-04-04T12:46:33.998Z</time></trkpt><trkpt lat="45.807441507379906" lon="10.106329154089902"><ele>187.0</ele><time>2026-04-04T12:46:34.998Z</time></trkpt><trkpt lat="45.80737201862669" lon="10.106259244271795"><ele>187.0</ele><time>2026-04-04T12:46:35.998Z</time></trkpt><trkpt lat="45.80730034075856" lon="10.106197098647351"><ele>187.0</ele><time>2026-04-04T12:46:36.998Z</time></trkpt><trkpt lat="45.807226533100334" lon="10.106140769464492"><ele>187.0</ele><time>2026-04-04T12:46:37.998Z</time></trkpt><trkpt lat="45.807152071335764" lon="10.106092315528908"><ele>187.0</ele><time>2026-04-04T12:46:38.998Z</time></trkpt><trkpt lat="45.80707818560387" lon="10.106046432852255"><ele>187.0</ele><time>2026-04-04T12:46:39.998Z</time></trkpt><trkpt lat="45.80700005138883" lon="10.106002732057222"><ele>187.0</ele><time>2026-04-04T12:46:40.998Z</time></trkpt><trkpt lat="45.80692207061816" lon="10.105965272522699"><ele>187.0</ele><time>2026-04-04T12:46:41.998Z</time></trkpt><trkpt lat="45.80684083210851" lon="10.10594372149499"><ele>187.0</ele><time>2026-04-04T12:46:42.998Z</time></trkpt><trkpt lat="45.806761869872375" lon="10.105910839264174"><ele>187.0</ele><time>2026-04-04T12:46:43.998Z</time></trkpt><trkpt lat="45.806680609601486" lon="10.105892355256271"><ele>187.0</ele><time>2026-04-04T12:46:44.998Z</time></trkpt><trkpt lat="45.80659774751269" lon="10.105881760894212"><ele>187.0</ele><time>2026-04-04T12:46:45.998Z</time></trkpt><trkpt lat="45.806514535569875" lon="10.105877040653269"><ele>186.83333333333334</ele><time>2026-04-04T12:46:46.998Z</time></trkpt><trkpt lat="45.806427908459405" lon="10.105873746079462"><ele>186.66666666666669</ele><time>2026-04-04T12:46:47.998Z</time></trkpt><trkpt lat="45.80634599466782" lon="10.105865680860537"><ele>186.5</ele><time>2026-04-04T12:46:48.998Z</time></trkpt><trkpt lat="45.80626253622901" lon="10.105857079638326"><ele>186.33333333333334</ele><time>2026-04-04T12:46:49.998Z</time></trkpt><trkpt lat="45.80617459059149" lon="10.105850638331729"><ele>186.16666666666666</ele><time>2026-04-04T12:46:50.998Z</time></trkpt><trkpt lat="45.806090128522335" lon="10.105845392877482"><ele>186.0</ele><time>2026-04-04T12:46:51.998Z</time></trkpt><trkpt lat="45.806004519118396" lon="10.10585152989162"><ele>186.16666666666666</ele><time>2026-04-04T12:46:52.998Z</time></trkpt><trkpt lat="45.80592254244497" lon="10.10584649577252"><ele>186.33333333333334</ele><time>2026-04-04T12:46:53.998Z</time></trkpt><trkpt lat="45.8058386537156" lon="10.105844008422288"><ele>186.5</ele><time>2026-04-04T12:46:54.998Z</time></trkpt><trkpt lat="45.805765545665885" lon="10.10584833803987"><ele>186.66666666666669</ele><time>2026-04-04T12:46:55.998Z</time></trkpt><trkpt lat="45.80569024359082" lon="10.105844717904159"><ele>186.83333333333334</ele><time>2026-04-04T12:46:56.998Z</time></trkpt><trkpt lat="45.805581933634535" lon="10.105843548651718"><ele>187.0</ele><time>2026-04-04T12:46:58.998Z</time></trkpt><trkpt lat="45.80548268964541" lon="10.10584449420464"><ele>187.0</ele><time>2026-04-04T12:47:01.998Z</time></trkpt><trkpt lat="45.805394323904295" lon="10.105866573430625"><ele>187.0</ele><time>2026-04-04T12:47:03.998Z</time></trkpt><trkpt lat="45.80529198957163" lon="10.105897638934282"><ele>187.0</ele><time>2026-04-04T12:47:05.998Z</time></trkpt><trkpt lat="45.80517409245532" lon="10.105938864598167"><ele>187.0</ele><time>2026-04-04T12:47:07.998Z</time></trkpt><trkpt lat="45.80511173383699" lon="10.10596082206501"><ele>187.0</ele><time>2026-04-04T12:47:08.998Z</time></trkpt><trkpt lat="45.80504348257771" lon="10.105980852603357"><ele>186.85714285714286</ele><time>2026-04-04T12:47:09.998Z</time></trkpt><trkpt lat="45.80497586567401" lon="10.106006430945568"><ele>186.71428571428572</ele><time>2026-04-04T12:47:10.998Z</time></trkpt><trkpt lat="45.80490519799537" lon="10.106034304439264"><ele>186.57142857142858</ele><time>2026-04-04T12:47:11.998Z</time></trkpt><trkpt lat="45.804835040848815" lon="10.106058094299856"><ele>186.42857142857144</ele><time>2026-04-04T12:47:12.998Z</time></trkpt><trkpt lat="45.80476039411294" lon="10.106081767790469"><ele>186.28571428571428</ele><time>2026-04-04T12:47:13.998Z</time></trkpt><trkpt lat="45.80468503618808" lon="10.106110857902895"><ele>186.14285714285717</ele><time>2026-04-04T12:47:15Z</time></trkpt><trkpt lat="45.80461245648374" lon="10.106136719211051"><ele>186.0</ele><time>2026-04-04T12:47:16Z</time></trkpt><trkpt lat="45.80453694864429" lon="10.106162986579378"><ele>186.00000000000003</ele><time>2026-04-04T12:47:17Z</time></trkpt><trkpt lat="45.80446225665682" lon="10.106192333525353"><ele>186.0</ele><time>2026-04-04T12:47:18Z</time></trkpt><trkpt lat="45.80438960001571" lon="10.106215969323006"><ele>186.0</ele><time>2026-04-04T12:47:19Z</time></trkpt><trkpt lat="45.8043167485118" lon="10.106242438412153"><ele>186.0</ele><time>2026-04-04T12:47:20Z</time></trkpt><trkpt lat="45.80424598484708" lon="10.106270556052284"><ele>186.0</ele><time>2026-04-04T12:47:21Z</time></trkpt><trkpt lat="45.80417489664291" lon="10.106294773896481"><ele>186.00000000000003</ele><time>2026-04-04T12:47:22Z</time></trkpt><trkpt lat="45.8041072318607" lon="10.106315031380769"><ele>186.0</ele><time>2026-04-04T12:47:23Z</time></trkpt><trkpt lat="45.80403998628513" lon="10.106333419939931"><ele>186.00000000000003</ele><time>2026-04-04T12:47:24Z</time></trkpt><trkpt lat="45.80397373141856" lon="10.1063471408323"><ele>186.0</ele><time>2026-04-04T12:47:25Z</time></trkpt><trkpt lat="45.80390309122933" lon="10.106361568798098"><ele>186.0</ele><time>2026-04-04T12:47:26Z</time></trkpt><trkpt lat="45.803833125964296" lon="10.106379611257497"><ele>186.0</ele><time>2026-04-04T12:47:27Z</time></trkpt><trkpt lat="45.803759256173265" lon="10.10637863293612"><ele>186.0</ele><time>2026-04-04T12:47:28Z</time></trkpt><trkpt lat="45.803681727483095" lon="10.106381195806534"><ele>186.00000000000003</ele><time>2026-04-04T12:47:29Z</time></trkpt><trkpt lat="45.803606376004254" lon="10.106374993678406"><ele>186.0</ele><time>2026-04-04T12:47:30Z</time></trkpt><trkpt lat="45.80352704757609" lon="10.106365895392583"><ele>186.0</ele><time>2026-04-04T12:47:31Z</time></trkpt><trkpt lat="45.803446359320574" lon="10.106361402995564"><ele>186.0</ele><time>2026-04-04T12:47:32Z</time></trkpt><trkpt lat="45.803365913348905" lon="10.10636431615439"><ele>186.0</ele><time>2026-04-04T12:47:33Z</time></trkpt><trkpt lat="45.80328062348282" lon="10.1063528668055"><ele>186.0</ele><time>2026-04-04T12:47:34Z</time></trkpt><trkpt lat="45.80319836512522" lon="10.106325079403568"><ele>186.0</ele><time>2026-04-04T12:47:35Z</time></trkpt><trkpt lat="45.80311710342314" lon="10.106283698036911"><ele>186.0</ele><time>2026-04-04T12:47:35.999Z</time></trkpt><trkpt lat="45.80303583539232" lon="10.106259017172906"><ele>186.0</ele><time>2026-04-04T12:47:36.999Z</time></trkpt><trkpt lat="45.802951858822446" lon="10.10624747922715"><ele>186.0</ele><time>2026-04-04T12:47:37.999Z</time></trkpt><trkpt lat="45.802868461811045" lon="10.106218781566076"><ele>186.0</ele><time>2026-04-04T12:47:38.999Z</time></trkpt><trkpt lat="45.80278512801956" lon="10.106207995256582"><ele>186.0</ele><time>2026-04-04T12:47:39.999Z</time></trkpt><trkpt lat="45.802703932650665" lon="10.106176521482013"><ele>186.0</ele><time>2026-04-04T12:47:40.999Z</time></trkpt><trkpt lat="45.80261886837585" lon="10.106158616222151"><ele>186.0</ele><time>2026-04-04T12:47:41.999Z</time></trkpt><trkpt lat="45.802538407086345" lon="10.106140786233295"><ele>185.83333333333334</ele><time>2026-04-04T12:47:42.999Z</time></trkpt><trkpt lat="45.80245476415437" lon="10.10612106278729"><ele>185.66666666666666</ele><time>2026-04-04T12:47:43.999Z</time></trkpt><trkpt lat="45.80237056765915" lon="10.10611376504458"><ele>185.5</ele><time>2026-04-04T12:47:44.999Z</time></trkpt><trkpt lat="45.80229007727821" lon="10.106104484723526"><ele>185.33333333333331</ele><time>2026-04-04T12:47:45.999Z</time></trkpt><trkpt lat="45.80221685758377" lon="10.106101404878745"><ele>185.16666666666666</ele><time>2026-04-04T12:47:46.999Z</time></trkpt><trkpt lat="45.80214920832865" lon="10.106087394314002"><ele>185.0</ele><time>2026-04-04T12:47:47.999Z</time></trkpt><trkpt lat="45.802083200789305" lon="10.106080007814487"><ele>185.0</ele><time>2026-04-04T12:47:48.999Z</time></trkpt><trkpt lat="45.802017654752206" lon="10.106078371816498"><ele>185.0</ele><time>2026-04-04T12:47:49.999Z</time></trkpt><trkpt lat="45.80189432170226" lon="10.106071025560178"><ele>185.0</ele><time>2026-04-04T12:47:51.999Z</time></trkpt><trkpt lat="45.80182551640292" lon="10.10606671583557"><ele>185.0</ele><time>2026-04-04T12:47:52.999Z</time></trkpt><trkpt lat="45.80175169430041" lon="10.10606208597384"><ele>185.0</ele><time>2026-04-04T12:47:53.999Z</time></trkpt><trkpt lat="45.80167378712108" lon="10.10605464230478"><ele>185.0</ele><time>2026-04-04T12:47:54.999Z</time></trkpt><trkpt lat="45.801594840741444" lon="10.106040093917509"><ele>186.0</ele><time>2026-04-04T12:47:55.999Z</time></trkpt><trkpt lat="45.80151448038546" lon="10.106040404492635"><ele>187.0</ele><time>2026-04-04T12:47:56.999Z</time></trkpt><trkpt lat="45.801435283825114" lon="10.106027002653216"><ele>188.0</ele><time>2026-04-04T12:47:57.999Z</time></trkpt><trkpt lat="45.80135901508127" lon="10.106023710437219"><ele>189.0</ele><time>2026-04-04T12:47:58.999Z</time></trkpt><trkpt lat="45.80128007726666" lon="10.106015668943934"><ele>190.0</ele><time>2026-04-04T12:47:59.999Z</time></trkpt><trkpt lat="45.80120668157845" lon="10.106010629756259"><ele>191.0</ele><time>2026-04-04T12:48:00.999Z</time></trkpt><trkpt lat="45.80112986393267" lon="10.105998850594503"><ele>191.0</ele><time>2026-04-04T12:48:01.999Z</time></trkpt><trkpt lat="45.8010557777204" lon="10.10599018402223"><ele>191.0</ele><time>2026-04-04T12:48:02.999Z</time></trkpt><trkpt lat="45.800980894434076" lon="10.105976143731187"><ele>191.0</ele><time>2026-04-04T12:48:03.999Z</time></trkpt><trkpt lat="45.800908228290794" lon="10.105966941529372"><ele>191.0</ele><time>2026-04-04T12:48:04.999Z</time></trkpt><trkpt lat="45.80083252591776" lon="10.10595771929188"><ele>191.0</ele><time>2026-04-04T12:48:05.999Z</time></trkpt><trkpt lat="45.8007590090555" lon="10.105952220775595"><ele>191.0</ele><time>2026-04-04T12:48:06.999Z</time></trkpt><trkpt lat="45.800682958417354" lon="10.10594494936282"><ele>191.0</ele><time>2026-04-04T12:48:07.999Z</time></trkpt><trkpt lat="45.80060979105954" lon="10.105936035140578"><ele>191.0</ele><time>2026-04-04T12:48:08.999Z</time></trkpt><trkpt lat="45.80053597573645" lon="10.10592800277395"><ele>191.0</ele><time>2026-04-04T12:48:09.999Z</time></trkpt><trkpt lat="45.80045965721365" lon="10.105918089753018"><ele>191.0</ele><time>2026-04-04T12:48:10.999Z</time></trkpt><trkpt lat="45.800382122467774" lon="10.105909737923943"><ele>191.0</ele><time>2026-04-04T12:48:11.999Z</time></trkpt><trkpt lat="45.80030293740213" lon="10.10589778140536"><ele>191.0</ele><time>2026-04-04T12:48:12.999Z</time></trkpt><trkpt lat="45.80022145634519" lon="10.105890384158675"><ele>191.0</ele><time>2026-04-04T12:48:13.999Z</time></trkpt><trkpt lat="45.800140322089064" lon="10.105886075739331"><ele>190.66666666666666</ele><time>2026-04-04T12:48:14.999Z</time></trkpt><trkpt lat="45.80006090563647" lon="10.105882723044644"><ele>190.33333333333331</ele><time>2026-04-04T12:48:15.999Z</time></trkpt><trkpt lat="45.79998011473269" lon="10.105870454261224"><ele>190.0</ele><time>2026-04-04T12:48:16.999Z</time></trkpt><trkpt lat="45.79990061465521" lon="10.105865847767491"><ele>189.66666666666666</ele><time>2026-04-04T12:48:17.999Z</time></trkpt><trkpt lat="45.79982343968216" lon="10.105852741116848"><ele>189.33333333333334</ele><time>2026-04-04T12:48:18.999Z</time></trkpt><trkpt lat="45.79974729795705" lon="10.10584489387917"><ele>189.0</ele><time>2026-04-04T12:48:19.999Z</time></trkpt><trkpt lat="45.79967456435544" lon="10.105841863328228"><ele>189.0</ele><time>2026-04-04T12:48:20.999Z</time></trkpt><trkpt lat="45.79960092658491" lon="10.105835552970952"><ele>189.0</ele><time>2026-04-04T12:48:21.999Z</time></trkpt><trkpt lat="45.79952385549564" lon="10.105836497366617"><ele>189.0</ele><time>2026-04-04T12:48:22.999Z</time></trkpt><trkpt lat="45.799446769396916" lon="10.105839891882718"><ele>189.0</ele><time>2026-04-04T12:48:23.999Z</time></trkpt><trkpt lat="45.7993745012975" lon="10.105851405148085"><ele>189.0</ele><time>2026-04-04T12:48:24.999Z</time></trkpt><trkpt lat="45.799304994575756" lon="10.105838686426404"><ele>189.0</ele><time>2026-04-04T12:48:25.999Z</time></trkpt><trkpt lat="45.799233754478706" lon="10.105808971965315"><ele>189.0</ele><time>2026-04-04T12:48:26.999Z</time></trkpt><trkpt lat="45.79915659144919" lon="10.105812098613384"><ele>189.0</ele><time>2026-04-04T12:48:27.998Z</time></trkpt><trkpt lat="45.79907858956084" lon="10.10581787640647"><ele>189.0</ele><time>2026-04-04T12:48:28.998Z</time></trkpt><trkpt lat="45.79899857686903" lon="10.105818563546189"><ele>189.0</ele><time>2026-04-04T12:48:29.998Z</time></trkpt><trkpt lat="45.79891711410527" lon="10.10580180671648"><ele>189.0</ele><time>2026-04-04T12:48:30.998Z</time></trkpt><trkpt lat="45.79884161938067" lon="10.105758838697442"><ele>189.0</ele><time>2026-04-04T12:48:31.998Z</time></trkpt><trkpt lat="45.79876317213765" lon="10.105710354907776"><ele>189.0</ele><time>2026-04-04T12:48:32.998Z</time></trkpt><trkpt lat="45.79868239644399" lon="10.105668118663326"><ele>188.33333333333334</ele><time>2026-04-04T12:48:33.998Z</time></trkpt><trkpt lat="45.798602541780504" lon="10.105632169393465"><ele>187.66666666666666</ele><time>2026-04-04T12:48:34.998Z</time></trkpt><trkpt lat="45.79852203442237" lon="10.105599760496604"><ele>187.0</ele><time>2026-04-04T12:48:35.998Z</time></trkpt><trkpt lat="45.798439615982396" lon="10.10556332903826"><ele>186.33333333333331</ele><time>2026-04-04T12:48:36.998Z</time></trkpt><trkpt lat="45.79836450358641" lon="10.105519097235629"><ele>185.66666666666666</ele><time>2026-04-04T12:48:37.998Z</time></trkpt><trkpt lat="45.79829128904355" lon="10.10547574900766"><ele>185.0</ele><time>2026-04-04T12:48:38.998Z</time></trkpt><trkpt lat="45.798224335295984" lon="10.105429872380682"><ele>185.0</ele><time>2026-04-04T12:48:39.998Z</time></trkpt><trkpt lat="45.79815419397364" lon="10.105386744150287"><ele>185.0</ele><time>2026-04-04T12:48:40.998Z</time></trkpt><trkpt lat="45.79808642728894" lon="10.105333456646749"><ele>185.0</ele><time>2026-04-04T12:48:41.998Z</time></trkpt><trkpt lat="45.79801980897566" lon="10.10528051389708"><ele>185.0</ele><time>2026-04-04T12:48:42.998Z</time></trkpt><trkpt lat="45.797956867866866" lon="10.105221402900762"><ele>185.0</ele><time>2026-04-04T12:48:43.998Z</time></trkpt><trkpt lat="45.79788909638101" lon="10.105161550938659"><ele>185.0</ele><time>2026-04-04T12:48:44.998Z</time></trkpt><trkpt lat="45.7978288149991" lon="10.105094019432737"><ele>185.0</ele><time>2026-04-04T12:48:45.998Z</time></trkpt><trkpt lat="45.7977669930351" lon="10.105022144607727"><ele>185.0</ele><time>2026-04-04T12:48:46.998Z</time></trkpt><trkpt lat="45.79770486856164" lon="10.10495471961886"><ele>185.0</ele><time>2026-04-04T12:48:47.998Z</time></trkpt><trkpt lat="45.797643504727766" lon="10.104881952106899"><ele>185.0</ele><time>2026-04-04T12:48:48.998Z</time></trkpt><trkpt lat="45.79758555322066" lon="10.104800805815668"><ele>185.0</ele><time>2026-04-04T12:48:49.998Z</time></trkpt><trkpt lat="45.797523566765406" lon="10.104719711331416"><ele>185.0</ele><time>2026-04-04T12:48:50.998Z</time></trkpt><trkpt lat="45.797463706717885" lon="10.10463624485041"><ele>185.6</ele><time>2026-04-04T12:48:51.998Z</time></trkpt><trkpt lat="45.797398241280746" lon="10.104543648930703"><ele>186.2</ele><time>2026-04-04T12:48:52.998Z</time></trkpt><trkpt lat="45.79733259442718" lon="10.104449407241189"><ele>186.8</ele><time>2026-04-04T12:48:53.998Z</time></trkpt><trkpt lat="45.797263567462345" lon="10.104353147072358"><ele>187.4</ele><time>2026-04-04T12:48:54.998Z</time></trkpt><trkpt lat="45.7971991332281" lon="10.10425512505313"><ele>188.0</ele><time>2026-04-04T12:48:55.998Z</time></trkpt><trkpt lat="45.797132559976994" lon="10.10415999486162"><ele>188.2</ele><time>2026-04-04T12:48:56.998Z</time></trkpt><trkpt lat="45.797061733497095" lon="10.10407920219143"><ele>188.4</ele><time>2026-04-04T12:48:57.998Z</time></trkpt><trkpt lat="45.79699803944619" lon="10.103984876484809"><ele>188.6</ele><time>2026-04-04T12:48:58.998Z</time></trkpt><trkpt lat="45.79692580966535" lon="10.103904792985144"><ele>188.79999999999998</ele><time>2026-04-04T12:48:59.998Z</time></trkpt><trkpt lat="45.79685544340277" lon="10.103817371186281"><ele>189.0</ele><time>2026-04-04T12:49:00.998Z</time></trkpt><trkpt lat="45.79678280061061" lon="10.103738862021595"><ele>189.0</ele><time>2026-04-04T12:49:01.998Z</time></trkpt><trkpt lat="45.796706884671636" lon="10.103665628465773"><ele>189.0</ele><time>2026-04-04T12:49:02.998Z</time></trkpt><trkpt lat="45.79662756690216" lon="10.103601256929318"><ele>189.0</ele><time>2026-04-04T12:49:03.998Z</time></trkpt><trkpt lat="45.79655211210601" lon="10.10354160020907"><ele>189.0</ele><time>2026-04-04T12:49:04.998Z</time></trkpt><trkpt lat="45.79647657208242" lon="10.103484488025419"><ele>189.0</ele><time>2026-04-04T12:49:05.998Z</time></trkpt><trkpt lat="45.796401885041924" lon="10.103426272444915"><ele>189.0</ele><time>2026-04-04T12:49:06.998Z</time></trkpt><trkpt lat="45.796322258480565" lon="10.103380148154047"><ele>189.0</ele><time>2026-04-04T12:49:07.998Z</time></trkpt><trkpt lat="45.7962426630851" lon="10.103340484779867"><ele>189.0</ele><time>2026-04-04T12:49:08.998Z</time></trkpt><trkpt lat="45.79616307523915" lon="10.103285942832755"><ele>189.0</ele><time>2026-04-04T12:49:09.998Z</time></trkpt><trkpt lat="45.7960816100581" lon="10.103239490689473"><ele>189.0</ele><time>2026-04-04T12:49:10.998Z</time></trkpt><trkpt lat="45.79599904679022" lon="10.103186709448043"><ele>189.0</ele><time>2026-04-04T12:49:11.998Z</time></trkpt><trkpt lat="45.79591985330213" lon="10.103133238618845"><ele>189.0</ele><time>2026-04-04T12:49:12.998Z</time></trkpt><trkpt lat="45.79583644715717" lon="10.103083494494783"><ele>188.5</ele><time>2026-04-04T12:49:13.998Z</time></trkpt><trkpt lat="45.79575621877894" lon="10.103036489319342"><ele>188.0</ele><time>2026-04-04T12:49:14.998Z</time></trkpt><trkpt lat="45.79567742639063" lon="10.102988106078847"><ele>187.5</ele><time>2026-04-04T12:49:15.998Z</time></trkpt><trkpt lat="45.79560289491697" lon="10.10293663478477"><ele>187.0</ele><time>2026-04-04T12:49:16.998Z</time></trkpt><trkpt lat="45.79552922499128" lon="10.102886814666466"><ele>186.5</ele><time>2026-04-04T12:49:17.998Z</time></trkpt><trkpt lat="45.795466396436666" lon="10.10281544219691"><ele>186.0</ele><time>2026-04-04T12:49:18.998Z</time></trkpt><trkpt lat="45.79541819434124" lon="10.102715434911989"><ele>186.0</ele><time>2026-04-04T12:49:20Z</time></trkpt><trkpt lat="45.795380374292115" lon="10.102604944190082"><ele>186.0</ele><time>2026-04-04T12:49:21Z</time></trkpt><trkpt lat="45.79533876184169" lon="10.102500079753247"><ele>186.0</ele><time>2026-04-04T12:49:22Z</time></trkpt><trkpt lat="45.79528791755528" lon="10.10241026058821"><ele>186.0</ele><time>2026-04-04T12:49:23Z</time></trkpt><trkpt lat="45.79523443313194" lon="10.10230572324952"><ele>186.0</ele><time>2026-04-04T12:49:24Z</time></trkpt><trkpt lat="45.79516455929714" lon="10.102222630662293"><ele>186.0</ele><time>2026-04-04T12:49:25Z</time></trkpt><trkpt lat="45.79507918570391" lon="10.102144132296829"><ele>185.4</ele><time>2026-04-04T12:49:26Z</time></trkpt><trkpt lat="45.794990962705405" lon="10.10206649111774"><ele>184.8</ele><time>2026-04-04T12:49:27Z</time></trkpt><trkpt lat="45.7949014430432" lon="10.102001163180512"><ele>184.20000000000002</ele><time>2026-04-04T12:49:28Z</time></trkpt><trkpt lat="45.794816202557215" lon="10.101940239417422"><ele>183.60000000000002</ele><time>2026-04-04T12:49:29Z</time></trkpt><trkpt lat="45.7947324492359" lon="10.101860011989292"><ele>183.0</ele><time>2026-04-04T12:49:30Z</time></trkpt><trkpt lat="45.794661230848604" lon="10.101766562920256"><ele>183.0</ele><time>2026-04-04T12:49:31Z</time></trkpt><trkpt lat="45.794597234333615" lon="10.101663676284835"><ele>183.0</ele><time>2026-04-04T12:49:32Z</time></trkpt><trkpt lat="45.79452698689102" lon="10.101573679597426"><ele>183.0</ele><time>2026-04-04T12:49:33Z</time></trkpt><trkpt lat="45.794464655530966" lon="10.101479123698844"><ele>183.0</ele><time>2026-04-04T12:49:34Z</time></trkpt><trkpt lat="45.79439962141995" lon="10.101391554310036"><ele>183.0</ele><time>2026-04-04T12:49:35Z</time></trkpt><trkpt lat="45.79433320660284" lon="10.101309425319391"><ele>183.66666666666666</ele><time>2026-04-04T12:49:36Z</time></trkpt><trkpt lat="45.79426841380132" lon="10.101217755624154"><ele>184.33333333333334</ele><time>2026-04-04T12:49:37Z</time></trkpt><trkpt lat="45.794203729934225" lon="10.10112839750075"><ele>185.0</ele><time>2026-04-04T12:49:38Z</time></trkpt><trkpt lat="45.794137294408834" lon="10.10103923044715"><ele>185.66666666666669</ele><time>2026-04-04T12:49:38.999Z</time></trkpt><trkpt lat="45.79407453877992" lon="10.100951714604127"><ele>186.33333333333334</ele><time>2026-04-04T12:49:39.999Z</time></trkpt><trkpt lat="45.7940117426604" lon="10.10086225795477"><ele>187.0</ele><time>2026-04-04T12:49:40.999Z</time></trkpt><trkpt lat="45.793951676253" lon="10.100772289820906"><ele>186.16666666666669</ele><time>2026-04-04T12:49:41.999Z</time></trkpt><trkpt lat="45.79389465525576" lon="10.100680132159138"><ele>185.33333333333334</ele><time>2026-04-04T12:49:42.999Z</time></trkpt><trkpt lat="45.793836166022004" lon="10.100588979880401"><ele>184.5</ele><time>2026-04-04T12:49:43.999Z</time></trkpt><trkpt lat="45.793779071363616" lon="10.100490805413678"><ele>183.66666666666666</ele><time>2026-04-04T12:49:44.999Z</time></trkpt><trkpt lat="45.793731875973464" lon="10.100382624346768"><ele>182.83333333333331</ele><time>2026-04-04T12:49:45.999Z</time></trkpt><trkpt lat="45.793683105256925" lon="10.100273755612294"><ele>182.0</ele><time>2026-04-04T12:49:46.999Z</time></trkpt><trkpt lat="45.793629708419815" lon="10.100167506628747"><ele>182.0</ele><time>2026-04-04T12:49:47.999Z</time></trkpt><trkpt lat="45.79357644696628" lon="10.100066523539391"><ele>182.0</ele><time>2026-04-04T12:49:48.999Z</time></trkpt><trkpt lat="45.793525621902255" lon="10.099966513373397"><ele>182.0</ele><time>2026-04-04T12:49:49.999Z</time></trkpt><trkpt lat="45.793473382861826" lon="10.099871513142364"><ele>182.0</ele><time>2026-04-04T12:49:50.999Z</time></trkpt><trkpt lat="45.793425054655756" lon="10.09976888072705"><ele>182.0</ele><time>2026-04-04T12:49:51.999Z</time></trkpt><trkpt lat="45.79337382217516" lon="10.099668809819441"><ele>182.0</ele><time>2026-04-04T12:49:52.999Z</time></trkpt><trkpt lat="45.793328170288305" lon="10.099563655910579"><ele>182.0</ele><time>2026-04-04T12:49:53.999Z</time></trkpt><trkpt lat="45.79330842712157" lon="10.099444660619348"><ele>182.0</ele><time>2026-04-04T12:49:54.999Z</time></trkpt><trkpt lat="45.79331249361024" lon="10.099320487764048"><ele>182.0</ele><time>2026-04-04T12:49:55.999Z</time></trkpt><trkpt lat="45.79332105409178" lon="10.099197917471873"><ele>182.0</ele><time>2026-04-04T12:49:56.999Z</time></trkpt><trkpt lat="45.79332590331821" lon="10.099077226148008"><ele>182.0</ele><time>2026-04-04T12:49:57.999Z</time></trkpt><trkpt lat="45.79331969567742" lon="10.098959069441198"><ele>182.0</ele><time>2026-04-04T12:49:58.999Z</time></trkpt><trkpt lat="45.79329296583145" lon="10.098839460526506"><ele>182.0</ele><time>2026-04-04T12:49:59.999Z</time></trkpt><trkpt lat="45.79325657965949" lon="10.09872578802781"><ele>182.0</ele><time>2026-04-04T12:50:00.999Z</time></trkpt><trkpt lat="45.79321527558621" lon="10.09861576009757"><ele>182.0</ele><time>2026-04-04T12:50:01.999Z</time></trkpt><trkpt lat="45.793159282389425" lon="10.098521985765856"><ele>182.0</ele><time>2026-04-04T12:50:02.999Z</time></trkpt><trkpt lat="45.793110492189975" lon="10.098421542345333"><ele>182.0</ele><time>2026-04-04T12:50:03.999Z</time></trkpt><trkpt lat="45.7930508491152" lon="10.098335110090906"><ele>182.0</ele><time>2026-04-04T12:50:04.999Z</time></trkpt><trkpt lat="45.79299056016495" lon="10.098246460387902"><ele>182.0</ele><time>2026-04-04T12:50:06Z</time></trkpt><trkpt lat="45.79293216320098" lon="10.098163478350545"><ele>182.0</ele><time>2026-04-04T12:50:07Z</time></trkpt><trkpt lat="45.79287189372482" lon="10.09808332977757"><ele>182.0</ele><time>2026-04-04T12:50:08Z</time></trkpt><trkpt lat="45.792813535314444" lon="10.098000512860112"><ele>182.0</ele><time>2026-04-04T12:50:09Z</time></trkpt><trkpt lat="45.79275501471275" lon="10.09791922341977"><ele>182.0</ele><time>2026-04-04T12:50:10Z</time></trkpt><trkpt lat="45.79269670862538" lon="10.097832513063201"><ele>182.0</ele><time>2026-04-04T12:50:11Z</time></trkpt><trkpt lat="45.79263580844369" lon="10.09774924728594"><ele>182.0</ele><time>2026-04-04T12:50:12Z</time></trkpt><trkpt lat="45.792574479414114" lon="10.097660440381226"><ele>182.0</ele><time>2026-04-04T12:50:13Z</time></trkpt><trkpt lat="45.79252719030433" lon="10.097555925595385"><ele>182.0</ele><time>2026-04-04T12:50:14Z</time></trkpt><trkpt lat="45.792481158640186" lon="10.097449906775147"><ele>182.0</ele><time>2026-04-04T12:50:15Z</time></trkpt><trkpt lat="45.79243714095968" lon="10.097343584889595"><ele>182.0</ele><time>2026-04-04T12:50:16Z</time></trkpt><trkpt lat="45.79238924717799" lon="10.097241960824434"><ele>182.0</ele><time>2026-04-04T12:50:17Z</time></trkpt><trkpt lat="45.792342656813226" lon="10.097134979932335"><ele>182.0</ele><time>2026-04-04T12:50:18Z</time></trkpt><trkpt lat="45.792296845405865" lon="10.097026540781515"><ele>182.0</ele><time>2026-04-04T12:50:19Z</time></trkpt><trkpt lat="45.79224571687742" lon="10.096928443051628"><ele>182.0</ele><time>2026-04-04T12:50:20Z</time></trkpt><trkpt lat="45.79220169490194" lon="10.096818201900398"><ele>182.0</ele><time>2026-04-04T12:50:21Z</time></trkpt><trkpt lat="45.7921571507416" lon="10.096712022342677"><ele>182.0</ele><time>2026-04-04T12:50:22Z</time></trkpt><trkpt lat="45.79210972058952" lon="10.096610803816553"><ele>182.0</ele><time>2026-04-04T12:50:23Z</time></trkpt><trkpt lat="45.792062508044836" lon="10.096504571767477"><ele>182.0</ele><time>2026-04-04T12:50:24Z</time></trkpt><trkpt lat="45.792016810175475" lon="10.096397527502052"><ele>182.0</ele><time>2026-04-04T12:50:25Z</time></trkpt><trkpt lat="45.79197314883326" lon="10.096289029688664"><ele>182.0</ele><time>2026-04-04T12:50:26Z</time></trkpt><trkpt lat="45.79192627790883" lon="10.096183515514143"><ele>182.0</ele><time>2026-04-04T12:50:27Z</time></trkpt><trkpt lat="45.791876809823556" lon="10.096079535722568"><ele>182.0</ele><time>2026-04-04T12:50:28Z</time></trkpt><trkpt lat="45.791829021200364" lon="10.095979547729247"><ele>182.0</ele><time>2026-04-04T12:50:29Z</time></trkpt><trkpt lat="45.79178415029928" lon="10.095868670135735"><ele>182.83333333333331</ele><time>2026-04-04T12:50:29.999Z</time></trkpt><trkpt lat="45.79173802733862" lon="10.095761440001509"><ele>183.66666666666666</ele><time>2026-04-04T12:50:30.999Z</time></trkpt><trkpt lat="45.79168623804231" lon="10.095660733811561"><ele>184.5</ele><time>2026-04-04T12:50:31.999Z</time></trkpt><trkpt lat="45.7916349356081" lon="10.095556953143788"><ele>185.33333333333334</ele><time>2026-04-04T12:50:32.999Z</time></trkpt><trkpt lat="45.791573273083145" lon="10.095466314754805"><ele>186.16666666666669</ele><time>2026-04-04T12:50:33.999Z</time></trkpt><trkpt lat="45.79151029379808" lon="10.095380047003001"><ele>187.0</ele><time>2026-04-04T12:50:34.999Z</time></trkpt><trkpt lat="45.791454847179835" lon="10.09528426980142"><ele>187.0</ele><time>2026-04-04T12:50:35.999Z</time></trkpt><trkpt lat="45.79139266783681" lon="10.095194785428045"><ele>187.0</ele><time>2026-04-04T12:50:36.999Z</time></trkpt><trkpt lat="45.79133504123835" lon="10.095103160068705"><ele>187.0</ele><time>2026-04-04T12:50:37.999Z</time></trkpt><trkpt lat="45.791276479599205" lon="10.095013112549882"><ele>187.0</ele><time>2026-04-04T12:50:38.999Z</time></trkpt><trkpt lat="45.79121743291243" lon="10.094919995624485"><ele>187.0</ele><time>2026-04-04T12:50:39.999Z</time></trkpt><trkpt lat="45.791164276345064" lon="10.09482969840083"><ele>187.0</ele><time>2026-04-04T12:50:40.999Z</time></trkpt><trkpt lat="45.791124608228195" lon="10.094715885348885"><ele>186.33333333333334</ele><time>2026-04-04T12:50:41.999Z</time></trkpt><trkpt lat="45.7911009752994" lon="10.094591999485028"><ele>185.66666666666669</ele><time>2026-04-04T12:50:42.999Z</time></trkpt><trkpt lat="45.79108676435071" lon="10.094469852510677"><ele>185.0</ele><time>2026-04-04T12:50:43.999Z</time></trkpt><trkpt lat="45.7910655731805" lon="10.094343621318162"><ele>184.33333333333334</ele><time>2026-04-04T12:50:44.999Z</time></trkpt><trkpt lat="45.79103787747117" lon="10.094227450087695"><ele>183.66666666666666</ele><time>2026-04-04T12:50:45.999Z</time></trkpt><trkpt lat="45.7910100240575" lon="10.094110962856979"><ele>183.0</ele><time>2026-04-04T12:50:46.999Z</time></trkpt><trkpt lat="45.79096791247334" lon="10.093998403826715"><ele>184.33333333333334</ele><time>2026-04-04T12:50:47.999Z</time></trkpt><trkpt lat="45.79092178365231" lon="10.093890206905265"><ele>185.66666666666666</ele><time>2026-04-04T12:50:48.999Z</time></trkpt><trkpt lat="45.79087093995041" lon="10.09378372121969"><ele>187.0</ele><time>2026-04-04T12:50:49.999Z</time></trkpt><trkpt lat="45.79081498856684" lon="10.093681561385905"><ele>188.33333333333331</ele><time>2026-04-04T12:50:50.999Z</time></trkpt><trkpt lat="45.790768740071414" lon="10.093570185897448"><ele>189.66666666666666</ele><time>2026-04-04T12:50:51.999Z</time></trkpt><trkpt lat="45.79072928853591" lon="10.093462549521899"><ele>191.0</ele><time>2026-04-04T12:50:52.999Z</time></trkpt><trkpt lat="45.790699605691486" lon="10.093345692075522"><ele>189.83333333333331</ele><time>2026-04-04T12:50:53.999Z</time></trkpt><trkpt lat="45.79067147265668" lon="10.093228633601486"><ele>188.66666666666666</ele><time>2026-04-04T12:50:54.999Z</time></trkpt><trkpt lat="45.7906394411281" lon="10.093114274663156"><ele>187.5</ele><time>2026-04-04T12:50:55.999Z</time></trkpt><trkpt lat="45.790610410028115" lon="10.09299592185526"><ele>186.33333333333334</ele><time>2026-04-04T12:50:56.999Z</time></trkpt><trkpt lat="45.790573098949935" lon="10.092879593133357"><ele>185.16666666666669</ele><time>2026-04-04T12:50:57.999Z</time></trkpt><trkpt lat="45.79054003744628" lon="10.092758511425952"><ele>184.0</ele><time>2026-04-04T12:50:58.999Z</time></trkpt><trkpt lat="45.79049939645764" lon="10.092644815416184"><ele>184.0</ele><time>2026-04-04T12:50:59.999Z</time></trkpt><trkpt lat="45.79045166025643" lon="10.092539979648944"><ele>184.0</ele><time>2026-04-04T12:51:00.999Z</time></trkpt><trkpt lat="45.79040456581907" lon="10.092438912819544"><ele>184.0</ele><time>2026-04-04T12:51:01.999Z</time></trkpt><trkpt lat="45.79035395650536" lon="10.09233937036442"><ele>184.0</ele><time>2026-04-04T12:51:02.999Z</time></trkpt><trkpt lat="45.79030073582735" lon="10.092240844298967"><ele>184.0</ele><time>2026-04-04T12:51:03.999Z</time></trkpt><trkpt lat="45.79024232118613" lon="10.092144456928876"><ele>184.0</ele><time>2026-04-04T12:51:04.999Z</time></trkpt><trkpt lat="45.7901828626965" lon="10.092043171265816"><ele>183.83333333333334</ele><time>2026-04-04T12:51:05.999Z</time></trkpt><trkpt lat="45.79012205837468" lon="10.091951614234288"><ele>183.66666666666669</ele><time>2026-04-04T12:51:06.999Z</time></trkpt><trkpt lat="45.79006465295202" lon="10.091856900011908"><ele>183.5</ele><time>2026-04-04T12:51:07.999Z</time></trkpt><trkpt lat="45.79000994784655" lon="10.091762993100716"><ele>183.33333333333334</ele><time>2026-04-04T12:51:08.999Z</time></trkpt><trkpt lat="45.789953318299034" lon="10.0916679805844"><ele>183.16666666666666</ele><time>2026-04-04T12:51:09.999Z</time></trkpt><trkpt lat="45.789894986950664" lon="10.091577599424905"><ele>183.0</ele><time>2026-04-04T12:51:10.999Z</time></trkpt><trkpt lat="45.78983276579609" lon="10.091488038671137"><ele>183.0</ele><time>2026-04-04T12:51:11.999Z</time></trkpt><trkpt lat="45.789772976142494" lon="10.091395629875452"><ele>183.0</ele><time>2026-04-04T12:51:12.999Z</time></trkpt><trkpt lat="45.789706528994294" lon="10.091305350790776"><ele>183.0</ele><time>2026-04-04T12:51:13.999Z</time></trkpt><trkpt lat="45.78963522201261" lon="10.09122774574895"><ele>183.0</ele><time>2026-04-04T12:51:14.999Z</time></trkpt><trkpt lat="45.78956282384515" lon="10.091142263474302"><ele>183.0</ele><time>2026-04-04T12:51:15.999Z</time></trkpt><trkpt lat="45.789488242720175" lon="10.091070725606436"><ele>183.0</ele><time>2026-04-04T12:51:16.999Z</time></trkpt><trkpt lat="45.78941750732757" lon="10.09099189060316"><ele>183.0</ele><time>2026-04-04T12:51:17.999Z</time></trkpt><trkpt lat="45.789345906807945" lon="10.090919914679343"><ele>183.0</ele><time>2026-04-04T12:51:18.999Z</time></trkpt><trkpt lat="45.78927595335901" lon="10.090846255049884"><ele>183.0</ele><time>2026-04-04T12:51:19.999Z</time></trkpt><trkpt lat="45.789205691243815" lon="10.090768425931087"><ele>183.0</ele><time>2026-04-04T12:51:20.999Z</time></trkpt><trkpt lat="45.78913117084456" lon="10.09070635752639"><ele>183.0</ele><time>2026-04-04T12:51:21.999Z</time></trkpt><trkpt lat="45.78905577835401" lon="10.090632999963958"><ele>182.83333333333334</ele><time>2026-04-04T12:51:22.999Z</time></trkpt><trkpt lat="45.78898112380741" lon="10.090569796189278"><ele>182.66666666666666</ele><time>2026-04-04T12:51:23.998Z</time></trkpt><trkpt lat="45.78890755262807" lon="10.090499581947238"><ele>182.5</ele><time>2026-04-04T12:51:24.998Z</time></trkpt><trkpt lat="45.788831618916184" lon="10.090434114892497"><ele>182.33333333333331</ele><time>2026-04-04T12:51:26.001Z</time></trkpt><trkpt lat="45.788754941478196" lon="10.090369494827089"><ele>182.16666666666666</ele><time>2026-04-04T12:51:27.001Z</time></trkpt><trkpt lat="45.78868229942262" lon="10.090298117427302"><ele>182.0</ele><time>2026-04-04T12:51:28.001Z</time></trkpt><trkpt lat="45.78860640050709" lon="10.090236929141506"><ele>182.0</ele><time>2026-04-04T12:51:29.001Z</time></trkpt><trkpt lat="45.78853259030379" lon="10.090172077422938"><ele>182.0</ele><time>2026-04-04T12:51:30.001Z</time></trkpt><trkpt lat="45.78846082992079" lon="10.090101060847797"><ele>182.0</ele><time>2026-04-04T12:51:31.001Z</time></trkpt><trkpt lat="45.788386321306916" lon="10.090033341391507"><ele>182.0</ele><time>2026-04-04T12:51:32.001Z</time></trkpt><trkpt lat="45.78831971809557" lon="10.089955126143408"><ele>182.0</ele><time>2026-04-04T12:51:33.001Z</time></trkpt><trkpt lat="45.78826526177036" lon="10.089846565963757"><ele>182.0</ele><time>2026-04-04T12:51:34.001Z</time></trkpt><trkpt lat="45.78822796930067" lon="10.089731134208177"><ele>182.33333333333331</ele><time>2026-04-04T12:51:35.001Z</time></trkpt><trkpt lat="45.788210363100234" lon="10.089604330078597"><ele>182.66666666666666</ele><time>2026-04-04T12:51:36.001Z</time></trkpt><trkpt lat="45.78819651032486" lon="10.089480211521312"><ele>183.0</ele><time>2026-04-04T12:51:37.001Z</time></trkpt><trkpt lat="45.78818112472043" lon="10.089363911821208"><ele>183.33333333333334</ele><time>2026-04-04T12:51:38.001Z</time></trkpt><trkpt lat="45.78816480116016" lon="10.08924977971699"><ele>183.66666666666669</ele><time>2026-04-04T12:51:39.001Z</time></trkpt><trkpt lat="45.78815457124684" lon="10.089134937443191"><ele>184.0</ele><time>2026-04-04T12:51:40.001Z</time></trkpt><trkpt lat="45.78813979584868" lon="10.08901881678675"><ele>184.0</ele><time>2026-04-04T12:51:41.001Z</time></trkpt><trkpt lat="45.78811931912505" lon="10.088909219960044"><ele>184.0</ele><time>2026-04-04T12:51:42Z</time></trkpt><trkpt lat="45.788096997933174" lon="10.088798661497414"><ele>184.0</ele><time>2026-04-04T12:51:43Z</time></trkpt><trkpt lat="45.78807165255069" lon="10.088688949831797"><ele>184.0</ele><time>2026-04-04T12:51:44Z</time></trkpt><trkpt lat="45.78803525376199" lon="10.088583982440108"><ele>184.0</ele><time>2026-04-04T12:51:45Z</time></trkpt><trkpt lat="45.7879986706389" lon="10.088478276034163"><ele>184.0</ele><time>2026-04-04T12:51:46Z</time></trkpt><trkpt lat="45.78796183383932" lon="10.088368197067306"><ele>184.0</ele><time>2026-04-04T12:51:47Z</time></trkpt><trkpt lat="45.78791784094297" lon="10.088274317449319"><ele>184.0</ele><time>2026-04-04T12:51:48Z</time></trkpt><trkpt lat="45.787872776473684" lon="10.088175909808495"><ele>184.0</ele><time>2026-04-04T12:51:49Z</time></trkpt><trkpt lat="45.787829156637166" lon="10.088076192281783"><ele>184.0</ele><time>2026-04-04T12:51:50Z</time></trkpt><trkpt lat="45.7877849231866" lon="10.087974633056321"><ele>184.0</ele><time>2026-04-04T12:51:51Z</time></trkpt><trkpt lat="45.787743226095984" lon="10.08787532988129"><ele>184.0</ele><time>2026-04-04T12:51:52Z</time></trkpt><trkpt lat="45.78769874145254" lon="10.08777941141211"><ele>183.85714285714286</ele><time>2026-04-04T12:51:53Z</time></trkpt><trkpt lat="45.78765302649161" lon="10.087683786180115"><ele>183.7142857142857</ele><time>2026-04-04T12:51:54Z</time></trkpt><trkpt lat="45.787608477984904" lon="10.087590677963489"><ele>183.57142857142856</ele><time>2026-04-04T12:51:55Z</time></trkpt><trkpt lat="45.787566233027995" lon="10.087498834953802"><ele>183.42857142857144</ele><time>2026-04-04T12:51:56Z</time></trkpt><trkpt lat="45.787519628774035" lon="10.08741616285537"><ele>183.28571428571428</ele><time>2026-04-04T12:51:57Z</time></trkpt><trkpt lat="45.78747419881173" lon="10.087341121832564"><ele>183.14285714285714</ele><time>2026-04-04T12:51:58Z</time></trkpt><trkpt lat="45.78743053374964" lon="10.0872674357122"><ele>183.0</ele><time>2026-04-04T12:51:59Z</time></trkpt><trkpt lat="45.78739630266637" lon="10.087185641536523"><ele>183.0</ele><time>2026-04-04T12:52:00Z</time></trkpt><trkpt lat="45.78731946832738" lon="10.087049704341002"><ele>183.0</ele><time>2026-04-04T12:52:02Z</time></trkpt><trkpt lat="45.78727715570473" lon="10.086981659082225"><ele>183.0</ele><time>2026-04-04T12:52:03Z</time></trkpt><trkpt lat="45.787161227982054" lon="10.086892016928202"><ele>183.0</ele><time>2026-04-04T12:52:05Z</time></trkpt><trkpt lat="45.787091624790285" lon="10.086781704322647"><ele>183.0</ele><time>2026-04-04T12:52:07Z</time></trkpt><trkpt lat="45.78701618675578" lon="10.086677971039881"><ele>183.0</ele><time>2026-04-04T12:52:09Z</time></trkpt><trkpt lat="45.78693333277532" lon="10.086573835338122"><ele>183.0</ele><time>2026-04-04T12:52:11Z</time></trkpt><trkpt lat="45.786849212320504" lon="10.086477928910103"><ele>183.0</ele><time>2026-04-04T12:52:13Z</time></trkpt><trkpt lat="45.786776556520266" lon="10.086396644857295"><ele>183.0</ele><time>2026-04-04T12:52:15Z</time></trkpt><trkpt lat="45.786749713196095" lon="10.086293443328541"><ele>183.0</ele><time>2026-04-04T12:52:17Z</time></trkpt><trkpt lat="45.78669959479874" lon="10.086229455628404"><ele>183.0</ele><time>2026-04-04T12:52:20Z</time></trkpt><trkpt lat="45.786645570818955" lon="10.086165275611974"><ele>183.0</ele><time>2026-04-04T12:52:23Z</time></trkpt><trkpt lat="45.786592214792236" lon="10.086107703830587"><ele>183.0</ele><time>2026-04-04T12:52:25Z</time></trkpt><trkpt lat="45.78653786722225" lon="10.086040257820944"><ele>183.0</ele><time>2026-04-04T12:52:27Z</time></trkpt><trkpt lat="45.78648200840326" lon="10.085963925477161"><ele>183.0</ele><time>2026-04-04T12:52:29Z</time></trkpt><trkpt lat="45.7864124663125" lon="10.085865015715909"><ele>183.0</ele><time>2026-04-04T12:52:31Z</time></trkpt><trkpt lat="45.786330554737845" lon="10.085769732432027"><ele>182.83333333333334</ele><time>2026-04-04T12:52:33Z</time></trkpt><trkpt lat="45.78619331037839" lon="10.085760650307687"><ele>182.66666666666666</ele><time>2026-04-04T12:52:34.999Z</time></trkpt><trkpt lat="45.78614354831674" lon="10.085700826642025"><ele>182.5</ele><time>2026-04-04T12:52:35.999Z</time></trkpt><trkpt lat="45.78609584531932" lon="10.085634776675617"><ele>182.33333333333331</ele><time>2026-04-04T12:52:36.999Z</time></trkpt><trkpt lat="45.78604861729699" lon="10.085568550149588"><ele>182.16666666666666</ele><time>2026-04-04T12:52:37.999Z</time></trkpt><trkpt lat="45.78600373861232" lon="10.08547725840688"><ele>182.0</ele><time>2026-04-04T12:52:38.999Z</time></trkpt><trkpt lat="45.785963583815835" lon="10.085389656933536"><ele>182.2</ele><time>2026-04-04T12:52:39.999Z</time></trkpt><trkpt lat="45.78590118833455" lon="10.08522399437897"><ele>182.39999999999998</ele><time>2026-04-04T12:52:41.999Z</time></trkpt><trkpt lat="45.78587248056661" lon="10.085136090924983"><ele>182.60000000000002</ele><time>2026-04-04T12:52:42.999Z</time></trkpt><trkpt lat="45.78580721077353" lon="10.085005378570274"><ele>182.8</ele><time>2026-04-04T12:52:44.999Z</time></trkpt><trkpt lat="45.78585212688875" lon="10.084848216856187"><ele>183.0</ele><time>2026-04-04T12:52:45.999Z</time></trkpt><trkpt lat="45.785791595541475" lon="10.084693352237244"><ele>183.0</ele><time>2026-04-04T12:52:47.999Z</time></trkpt><trkpt lat="45.785748811635614" lon="10.084622343086323"><ele>183.0</ele><time>2026-04-04T12:52:48.999Z</time></trkpt><trkpt lat="45.78570387906648" lon="10.084547789722324"><ele>183.0</ele><time>2026-04-04T12:52:49.999Z</time></trkpt><trkpt lat="45.785617426861386" lon="10.084422202774322"><ele>183.0</ele><time>2026-04-04T12:52:51.999Z</time></trkpt><trkpt lat="45.785580565708614" lon="10.084344666915818"><ele>183.0</ele><time>2026-04-04T12:52:52.999Z</time></trkpt><trkpt lat="45.78553921396058" lon="10.084273147583534"><ele>183.0</ele><time>2026-04-04T12:52:53.999Z</time></trkpt><trkpt lat="45.78549829038315" lon="10.084196051573779"><ele>183.0</ele><time>2026-04-04T12:52:54.999Z</time></trkpt><trkpt lat="45.78545621244382" lon="10.084124078844555"><ele>183.0</ele><time>2026-04-04T12:52:55.999Z</time></trkpt><trkpt lat="45.785418730865736" lon="10.084037925744445"><ele>183.0</ele><time>2026-04-04T12:52:56.999Z</time></trkpt><trkpt lat="45.785380293886725" lon="10.08395620230793"><ele>183.0</ele><time>2026-04-04T12:52:57.999Z</time></trkpt><trkpt lat="45.785346636559815" lon="10.083864133087381"><ele>183.0</ele><time>2026-04-04T12:52:58.999Z</time></trkpt><trkpt lat="45.78530981694415" lon="10.083786477676377"><ele>183.0</ele><time>2026-04-04T12:52:59.999Z</time></trkpt><trkpt lat="45.78527983304012" lon="10.083699131679209"><ele>183.0</ele><time>2026-04-04T12:53:00.999Z</time></trkpt><trkpt lat="45.78524349835644" lon="10.08353319422942"><ele>182.83333333333334</ele><time>2026-04-04T12:53:02.999Z</time></trkpt><trkpt lat="45.785218618613676" lon="10.083376356196013"><ele>182.66666666666666</ele><time>2026-04-04T12:53:04.999Z</time></trkpt><trkpt lat="45.78520178136652" lon="10.083285488887915"><ele>182.5</ele><time>2026-04-04T12:53:06.999Z</time></trkpt><trkpt lat="45.78516957076403" lon="10.083180476017226"><ele>182.33333333333331</ele><time>2026-04-04T12:53:10.999Z</time></trkpt><trkpt lat="45.785149427734495" lon="10.083091372386164"><ele>182.16666666666666</ele><time>2026-04-04T12:53:12.999Z</time></trkpt><trkpt lat="45.78513881520539" lon="10.082995247354265"><ele>182.0</ele><time>2026-04-04T12:53:14.999Z</time></trkpt><trkpt lat="45.78511184460362" lon="10.082876871862625"><ele>182.6</ele><time>2026-04-04T12:53:16.999Z</time></trkpt><trkpt lat="45.78508453203057" lon="10.082736507395884"><ele>183.2</ele><time>2026-04-04T12:53:18.999Z</time></trkpt><trkpt lat="45.785052836349465" lon="10.082591243594676"><ele>183.8</ele><time>2026-04-04T12:53:20.999Z</time></trkpt><trkpt lat="45.78500867965718" lon="10.0824566635204"><ele>184.4</ele><time>2026-04-04T12:53:22.999Z</time></trkpt><trkpt lat="45.78496995696219" lon="10.082298662612091"><ele>185.0</ele><time>2026-04-04T12:53:24.999Z</time></trkpt><trkpt lat="45.78488187342258" lon="10.08215757114512"><ele>184.99999999999997</ele><time>2026-04-04T12:53:26.998Z</time></trkpt><trkpt lat="45.78483519310634" lon="10.082075540401688"><ele>185.0</ele><time>2026-04-04T12:53:27.998Z</time></trkpt><trkpt lat="45.78479428429941" lon="10.081984296524354"><ele>185.0</ele><time>2026-04-04T12:53:28.998Z</time></trkpt><trkpt lat="45.78475854002119" lon="10.0818942516317"><ele>185.0</ele><time>2026-04-04T12:53:29.998Z</time></trkpt><trkpt lat="45.78473309527359" lon="10.081798396218227"><ele>185.0</ele><time>2026-04-04T12:53:30.998Z</time></trkpt><trkpt lat="45.784701350771606" lon="10.08171290270082"><ele>184.99999999999997</ele><time>2026-04-04T12:53:32.001Z</time></trkpt><trkpt lat="45.78466778517172" lon="10.081627947661488"><ele>185.0</ele><time>2026-04-04T12:53:33.001Z</time></trkpt><trkpt lat="45.78462095442665" lon="10.081551957906978"><ele>184.57142857142856</ele><time>2026-04-04T12:53:34Z</time></trkpt><trkpt lat="45.78457665645639" lon="10.081479701745382"><ele>184.14285714285714</ele><time>2026-04-04T12:53:35.001Z</time></trkpt><trkpt lat="45.784532731976334" lon="10.08140122935693"><ele>183.71428571428572</ele><time>2026-04-04T12:53:36.001Z</time></trkpt><trkpt lat="45.78449385811883" lon="10.081326419955978"><ele>183.28571428571428</ele><time>2026-04-04T12:53:37Z</time></trkpt><trkpt lat="45.78445287578348" lon="10.081256047688566"><ele>182.85714285714286</ele><time>2026-04-04T12:53:38Z</time></trkpt><trkpt lat="45.78440990292978" lon="10.081190068106121"><ele>182.42857142857142</ele><time>2026-04-04T12:53:39.001Z</time></trkpt><trkpt lat="45.784363350435356" lon="10.0811254541154"><ele>182.0</ele><time>2026-04-04T12:53:40Z</time></trkpt><trkpt lat="45.78431801610218" lon="10.081059907553827"><ele>182.66666666666666</ele><time>2026-04-04T12:53:41Z</time></trkpt><trkpt lat="45.784273186067225" lon="10.080995543299048"><ele>183.33333333333331</ele><time>2026-04-04T12:53:42.001Z</time></trkpt><trkpt lat="45.784230491989426" lon="10.080928987626537"><ele>184.0</ele><time>2026-04-04T12:53:43Z</time></trkpt><trkpt lat="45.784179709196636" lon="10.08087454998769"><ele>184.66666666666666</ele><time>2026-04-04T12:53:44Z</time></trkpt><trkpt lat="45.78413128278605" lon="10.080814612370421"><ele>185.33333333333334</ele><time>2026-04-04T12:53:45Z</time></trkpt><trkpt lat="45.78404536836032" lon="10.080688095471924"><ele>186.0</ele><time>2026-04-04T12:53:47Z</time></trkpt><trkpt lat="45.783957634857714" lon="10.080572496020423"><ele>186.0</ele><time>2026-04-04T12:53:49Z</time></trkpt><trkpt lat="45.78391229697116" lon="10.08041819650094"><ele>186.0</ele><time>2026-04-04T12:53:51Z</time></trkpt><trkpt lat="45.78388000022387" lon="10.080260112892617"><ele>186.0</ele><time>2026-04-04T12:53:53Z</time></trkpt><trkpt lat="45.78382982759248" lon="10.080125424864367"><ele>186.0</ele><time>2026-04-04T12:53:55Z</time></trkpt><trkpt lat="45.783793775479424" lon="10.080011419876557"><ele>186.0</ele><time>2026-04-04T12:53:57Z</time></trkpt><trkpt lat="45.78379231724691" lon="10.079900679115754"><ele>187.8</ele><time>2026-04-04T12:54:00Z</time></trkpt><trkpt lat="45.78376613211825" lon="10.079777320976078"><ele>189.60000000000002</ele><time>2026-04-04T12:54:03Z</time></trkpt><trkpt lat="45.78374580375484" lon="10.079658721247325"><ele>191.4</ele><time>2026-04-04T12:54:05Z</time></trkpt><trkpt lat="45.78373779705536" lon="10.079528894263262"><ele>193.2</ele><time>2026-04-04T12:54:07Z</time></trkpt><trkpt lat="45.7837234810004" lon="10.079379523743286"><ele>195.0</ele><time>2026-04-04T12:54:09Z</time></trkpt><trkpt lat="45.783737238185715" lon="10.079264709291685"><ele>195.0</ele><time>2026-04-04T12:54:11Z</time></trkpt><trkpt lat="45.78373498243426" lon="10.079114253564377"><ele>195.0</ele><time>2026-04-04T12:54:13Z</time></trkpt><trkpt lat="45.78373269577662" lon="10.078943502563456"><ele>195.0</ele><time>2026-04-04T12:54:15Z</time></trkpt><trkpt lat="45.783721402713226" lon="10.078787864493062"><ele>195.0</ele><time>2026-04-04T12:54:17Z</time></trkpt><trkpt lat="45.783707864161904" lon="10.078650020470167"><ele>195.0</ele><time>2026-04-04T12:54:19Z</time></trkpt><trkpt lat="45.78369457153139" lon="10.078514878822894"><ele>198.5</ele><time>2026-04-04T12:54:21Z</time></trkpt><trkpt lat="45.78367897990054" lon="10.078356364197646"><ele>202.0</ele><time>2026-04-04T12:54:23Z</time></trkpt><trkpt lat="45.78366374020887" lon="10.078201426901684"><ele>205.5</ele><time>2026-04-04T12:54:25Z</time></trkpt><trkpt lat="45.78364953019131" lon="10.078061767280639"><ele>209.0</ele><time>2026-04-04T12:54:27Z</time></trkpt><trkpt lat="45.78404110077399" lon="10.077921507375136"><ele>206.83333333333334</ele><time>2026-04-04T12:54:28Z</time></trkpt><trkpt lat="45.784150865880804" lon="10.077824752301257"><ele>204.66666666666669</ele><time>2026-04-04T12:54:30Z</time></trkpt><trkpt lat="45.78420952525615" lon="10.077775129390373"><ele>202.5</ele><time>2026-04-04T12:54:31Z</time></trkpt><trkpt lat="45.784248843710735" lon="10.077684694829006"><ele>200.33333333333331</ele><time>2026-04-04T12:54:32Z</time></trkpt><trkpt lat="45.78428281996671" lon="10.077591816310436"><ele>198.16666666666666</ele><time>2026-04-04T12:54:33Z</time></trkpt><trkpt lat="45.784321958637264" lon="10.077505802037788"><ele>196.0</ele><time>2026-04-04T12:54:34Z</time></trkpt><trkpt lat="45.78436696413053" lon="10.077428678365802"><ele>196.0</ele><time>2026-04-04T12:54:35Z</time></trkpt><trkpt lat="45.78442146322177" lon="10.07736591069944"><ele>196.0</ele><time>2026-04-04T12:54:36Z</time></trkpt><trkpt lat="45.784478853271835" lon="10.077308534427823"><ele>196.0</ele><time>2026-04-04T12:54:37Z</time></trkpt><trkpt lat="45.78452289897054" lon="10.077234098461894"><ele>196.0</ele><time>2026-04-04T12:54:37.999Z</time></trkpt><trkpt lat="45.78455044277189" lon="10.077141463079956"><ele>196.0</ele><time>2026-04-04T12:54:38.999Z</time></trkpt><trkpt lat="45.784566508250094" lon="10.077040646818233"><ele>196.0</ele><time>2026-04-04T12:54:39.999Z</time></trkpt><trkpt lat="45.78458063907191" lon="10.07694113963169"><ele>196.0</ele><time>2026-04-04T12:54:40.999Z</time></trkpt><trkpt lat="45.784597126132134" lon="10.076840661200338"><ele>196.0</ele><time>2026-04-04T12:54:41.999Z</time></trkpt><trkpt lat="45.78461060676524" lon="10.07674080959564"><ele>196.0</ele><time>2026-04-04T12:54:42.999Z</time></trkpt><trkpt lat="45.784627079963705" lon="10.076642165988012"><ele>196.0</ele><time>2026-04-04T12:54:43.999Z</time></trkpt><trkpt lat="45.784643566048615" lon="10.076545484559624"><ele>196.0</ele><time>2026-04-04T12:54:44.999Z</time></trkpt><trkpt lat="45.78466378755257" lon="10.076453186617085"><ele>196.0</ele><time>2026-04-04T12:54:45.999Z</time></trkpt><trkpt lat="45.78468432744232" lon="10.076361825899744"><ele>196.0</ele><time>2026-04-04T12:54:46.999Z</time></trkpt><trkpt lat="45.78470496046848" lon="10.076274089252415"><ele>196.0</ele><time>2026-04-04T12:54:47.999Z</time></trkpt><trkpt lat="45.78473200282426" lon="10.07618163470585"><ele>196.71428571428572</ele><time>2026-04-04T12:54:48.999Z</time></trkpt><trkpt lat="45.78475112278054" lon="10.076087986178303"><ele>197.42857142857144</ele><time>2026-04-04T12:54:49.999Z</time></trkpt><trkpt lat="45.784769580215325" lon="10.075992840987693"><ele>198.14285714285714</ele><time>2026-04-04T12:54:50.999Z</time></trkpt><trkpt lat="45.784788154446716" lon="10.075895949742874"><ele>198.85714285714286</ele><time>2026-04-04T12:54:51.999Z</time></trkpt><trkpt lat="45.784807791245555" lon="10.07579948444792"><ele>199.57142857142858</ele><time>2026-04-04T12:54:52.999Z</time></trkpt><trkpt lat="45.78483117450856" lon="10.075704656194072"><ele>200.28571428571428</ele><time>2026-04-04T12:54:53.999Z</time></trkpt><trkpt lat="45.784850415356985" lon="10.075609235908605"><ele>201.0</ele><time>2026-04-04T12:54:54.999Z</time></trkpt><trkpt lat="45.78487069471975" lon="10.075512525996203"><ele>201.42857142857142</ele><time>2026-04-04T12:54:55.999Z</time></trkpt><trkpt lat="45.78489408241285" lon="10.075414218396583"><ele>201.85714285714286</ele><time>2026-04-04T12:54:56.999Z</time></trkpt><trkpt lat="45.78491560717194" lon="10.07531697625262"><ele>202.28571428571428</ele><time>2026-04-04T12:54:57.999Z</time></trkpt><trkpt lat="45.78494742794709" lon="10.07522488220697"><ele>202.71428571428572</ele><time>2026-04-04T12:54:58.999Z</time></trkpt><trkpt lat="45.7849764964625" lon="10.075132873847462"><ele>203.14285714285717</ele><time>2026-04-04T12:54:59.999Z</time></trkpt><trkpt lat="45.785007440968116" lon="10.075042551317514"><ele>203.57142857142858</ele><time>2026-04-04T12:55:00.999Z</time></trkpt><trkpt lat="45.78503412807145" lon="10.074952568930867"><ele>204.0</ele><time>2026-04-04T12:55:01.999Z</time></trkpt><trkpt lat="45.785066036717346" lon="10.074861144759693"><ele>204.71428571428572</ele><time>2026-04-04T12:55:02.999Z</time></trkpt><trkpt lat="45.78509684347642" lon="10.074759945048639"><ele>205.42857142857144</ele><time>2026-04-04T12:55:03.999Z</time></trkpt><trkpt lat="45.785115498338726" lon="10.074655157578547"><ele>206.14285714285714</ele><time>2026-04-04T12:55:04.999Z</time></trkpt><trkpt lat="45.78512253069271" lon="10.074545203403353"><ele>206.85714285714286</ele><time>2026-04-04T12:55:05.999Z</time></trkpt><trkpt lat="45.78512428516253" lon="10.074439438990611"><ele>207.57142857142856</ele><time>2026-04-04T12:55:06.999Z</time></trkpt><trkpt lat="45.78513214744465" lon="10.074337587199135"><ele>208.28571428571428</ele><time>2026-04-04T12:55:07.999Z</time></trkpt><trkpt lat="45.78514947624494" lon="10.074237053910684"><ele>209.0</ele><time>2026-04-04T12:55:08.999Z</time></trkpt><trkpt lat="45.78516157931502" lon="10.074138990117364"><ele>206.0</ele><time>2026-04-04T12:55:09.999Z</time></trkpt><trkpt lat="45.78515393350986" lon="10.074035484973834"><ele>203.0</ele><time>2026-04-04T12:55:10.999Z</time></trkpt><trkpt lat="45.78512087539115" lon="10.073936731290862"><ele>200.0</ele><time>2026-04-04T12:55:11.999Z</time></trkpt><trkpt lat="45.78508555994371" lon="10.073840200423298"><ele>197.0</ele><time>2026-04-04T12:55:12.999Z</time></trkpt><trkpt lat="45.78505089330181" lon="10.07374635223502"><ele>194.0</ele><time>2026-04-04T12:55:13.999Z</time></trkpt><trkpt lat="45.78501561263915" lon="10.073656630720041"><ele>191.0</ele><time>2026-04-04T12:55:14.999Z</time></trkpt><trkpt lat="45.784974659306556" lon="10.073568005775227"><ele>188.0</ele><time>2026-04-04T12:55:15.999Z</time></trkpt><trkpt lat="45.784922668419426" lon="10.073495767068128"><ele>188.0</ele><time>2026-04-04T12:55:16.999Z</time></trkpt><trkpt lat="45.784862225219555" lon="10.07343423876428"><ele>188.0</ele><time>2026-04-04T12:55:17.999Z</time></trkpt><trkpt lat="45.784800363472584" lon="10.073374566022204"><ele>188.0</ele><time>2026-04-04T12:55:18.999Z</time></trkpt><trkpt lat="45.78474116856773" lon="10.073313255070092"><ele>188.0</ele><time>2026-04-04T12:55:19.999Z</time></trkpt><trkpt lat="45.784680778328024" lon="10.073252519571868"><ele>188.0</ele><time>2026-04-04T12:55:20.999Z</time></trkpt><trkpt lat="45.7846243318822" lon="10.073184287585022"><ele>188.0</ele><time>2026-04-04T12:55:21.999Z</time></trkpt><trkpt lat="45.78456573281115" lon="10.07312085871052"><ele>188.0</ele><time>2026-04-04T12:55:22.999Z</time></trkpt><trkpt lat="45.78450611588732" lon="10.07306139938937"><ele>187.66666666666666</ele><time>2026-04-04T12:55:23.999Z</time></trkpt><trkpt lat="45.78445085323912" lon="10.073002376501382"><ele>187.33333333333331</ele><time>2026-04-04T12:55:24.999Z</time></trkpt><trkpt lat="45.784396936485784" lon="10.072945604572569"><ele>187.0</ele><time>2026-04-04T12:55:25.999Z</time></trkpt><trkpt lat="45.78434607397863" lon="10.072890646830064"><ele>186.66666666666666</ele><time>2026-04-04T12:55:26.999Z</time></trkpt><trkpt lat="45.78426266357269" lon="10.072800845585697"><ele>186.33333333333334</ele><time>2026-04-04T12:55:28.999Z</time></trkpt><trkpt lat="45.78420221032407" lon="10.072732044816728"><ele>186.0</ele><time>2026-04-04T12:55:30.998Z</time></trkpt><trkpt lat="45.78413910518441" lon="10.072667840788073"><ele>186.0</ele><time>2026-04-04T12:55:32.998Z</time></trkpt><trkpt lat="45.78407149454221" lon="10.072614713346137"><ele>186.0</ele><time>2026-04-04T12:55:34.998Z</time></trkpt><trkpt lat="45.78400783867466" lon="10.072551159849729"><ele>186.0</ele><time>2026-04-04T12:55:36.998Z</time></trkpt><trkpt lat="45.78392058595869" lon="10.072493118025655"><ele>186.0</ele><time>2026-04-04T12:55:39Z</time></trkpt><trkpt lat="45.78381769338547" lon="10.072458672930024"><ele>186.0</ele><time>2026-04-04T12:55:41Z</time></trkpt><trkpt lat="45.78369674776236" lon="10.072438593400113"><ele>186.0</ele><time>2026-04-04T12:55:43Z</time></trkpt><trkpt lat="45.78363419045745" lon="10.072448921406346"><ele>186.0</ele><time>2026-04-04T12:55:44Z</time></trkpt><trkpt lat="45.78350798926741" lon="10.072466684070314"><ele>186.0</ele><time>2026-04-04T12:55:46Z</time></trkpt><trkpt lat="45.78344436972" lon="10.072466407372408"><ele>186.0</ele><time>2026-04-04T12:55:47Z</time></trkpt><trkpt lat="45.783321361055286" lon="10.072468265885734"><ele>186.0</ele><time>2026-04-04T12:55:49Z</time></trkpt><trkpt lat="45.78320586001641" lon="10.072490405649107"><ele>187.75</ele><time>2026-04-04T12:55:51Z</time></trkpt><trkpt lat="45.78309172513816" lon="10.072521279149086"><ele>189.5</ele><time>2026-04-04T12:55:53Z</time></trkpt><trkpt lat="45.78297659513283" lon="10.072532288717424"><ele>191.25</ele><time>2026-04-04T12:55:55Z</time></trkpt><trkpt lat="45.78286165436203" lon="10.07256979133765"><ele>193.0</ele><time>2026-04-04T12:55:57Z</time></trkpt><trkpt lat="45.782740657988285" lon="10.072594350096868"><ele>191.8</ele><time>2026-04-04T12:55:59Z</time></trkpt><trkpt lat="45.78267667393607" lon="10.072600056562123"><ele>190.60000000000002</ele><time>2026-04-04T12:56:00Z</time></trkpt><trkpt lat="45.78261170501439" lon="10.072606908009638"><ele>189.39999999999998</ele><time>2026-04-04T12:56:01Z</time></trkpt><trkpt lat="45.782492326545196" lon="10.07266005465099"><ele>188.2</ele><time>2026-04-04T12:56:03Z</time></trkpt><trkpt lat="45.78238661072012" lon="10.072757676071339"><ele>187.0</ele><time>2026-04-04T12:56:05Z</time></trkpt><trkpt lat="45.78229968524185" lon="10.072889009946705"><ele>187.0</ele><time>2026-04-04T12:56:07Z</time></trkpt><trkpt lat="45.78225402949141" lon="10.072951846508692"><ele>187.0</ele><time>2026-04-04T12:56:08Z</time></trkpt><trkpt lat="45.782160204732655" lon="10.073074244628229"><ele>187.0</ele><time>2026-04-04T12:56:10Z</time></trkpt><trkpt lat="45.78210977238137" lon="10.073133675436514"><ele>187.0</ele><time>2026-04-04T12:56:11Z</time></trkpt><trkpt lat="45.782056037661896" lon="10.073186598132686"><ele>187.0</ele><time>2026-04-04T12:56:12Z</time></trkpt><trkpt lat="45.782002118597426" lon="10.073236879054067"><ele>187.0</ele><time>2026-04-04T12:56:13Z</time></trkpt><trkpt lat="45.781946241069406" lon="10.073286371306791"><ele>193.6</ele><time>2026-04-04T12:56:14Z</time></trkpt><trkpt lat="45.78184579289799" lon="10.073391868749097"><ele>200.2</ele><time>2026-04-04T12:56:16Z</time></trkpt><trkpt lat="45.78178794358995" lon="10.07343306248642"><ele>206.8</ele><time>2026-04-04T12:56:17Z</time></trkpt><trkpt lat="45.781717125396916" lon="10.073440639913391"><ele>213.4</ele><time>2026-04-04T12:56:18Z</time></trkpt><trkpt lat="45.781646701135" lon="10.07341953071356"><ele>220.0</ele><time>2026-04-04T12:56:19Z</time></trkpt><trkpt lat="45.781536183004" lon="10.073587355032496"><ele>219.99999999999997</ele><time>2026-04-04T12:56:20Z</time></trkpt><trkpt lat="45.78147014168267" lon="10.073557735429162"><ele>220.0</ele><time>2026-04-04T12:56:21Z</time></trkpt><trkpt lat="45.781403819307165" lon="10.073529244864442"><ele>220.0</ele><time>2026-04-04T12:56:22Z</time></trkpt><trkpt lat="45.781335585661466" lon="10.073499841375698"><ele>220.0</ele><time>2026-04-04T12:56:23Z</time></trkpt><trkpt lat="45.781268763149335" lon="10.073473737496188"><ele>220.0</ele><time>2026-04-04T12:56:24Z</time></trkpt><trkpt lat="45.78120242624229" lon="10.073447297610354"><ele>219.99999999999997</ele><time>2026-04-04T12:56:25Z</time></trkpt><trkpt lat="45.78113646484841" lon="10.07342100734003"><ele>220.0</ele><time>2026-04-04T12:56:26Z</time></trkpt><trkpt lat="45.78107260195122" lon="10.073395553379783"><ele>226.75</ele><time>2026-04-04T12:56:27Z</time></trkpt><trkpt lat="45.78095542935443" lon="10.073352779735867"><ele>233.5</ele><time>2026-04-04T12:56:29Z</time></trkpt><trkpt lat="45.780852291422896" lon="10.073317050973628"><ele>240.25</ele><time>2026-04-04T12:56:31Z</time></trkpt><trkpt lat="45.780746769413746" lon="10.07328357248857"><ele>247.0</ele><time>2026-04-04T12:56:33Z</time></trkpt><trkpt lat="45.7806312438932" lon="10.073251562414166"><ele>238.6</ele><time>2026-04-04T12:56:35Z</time></trkpt><trkpt lat="45.78050439876422" lon="10.073218180543734"><ele>230.2</ele><time>2026-04-04T12:56:37Z</time></trkpt><trkpt lat="45.78038384708674" lon="10.073188445247819"><ele>221.8</ele><time>2026-04-04T12:56:39Z</time></trkpt><trkpt lat="45.78026676753205" lon="10.073161972986405"><ele>213.4</ele><time>2026-04-04T12:56:40.999Z</time></trkpt><trkpt lat="45.78020232001992" lon="10.073147890159031"><ele>205.0</ele><time>2026-04-04T12:56:41.999Z</time></trkpt><trkpt lat="45.78008070616176" lon="10.073125295920486"><ele>204.99999999999997</ele><time>2026-04-04T12:56:43.999Z</time></trkpt><trkpt lat="45.779959529849556" lon="10.073105999668563"><ele>205.0</ele><time>2026-04-04T12:56:45.999Z</time></trkpt><trkpt lat="45.779893967529915" lon="10.073097035536762"><ele>205.0</ele><time>2026-04-04T12:56:46.999Z</time></trkpt><trkpt lat="45.77982881136799" lon="10.073088126913726"><ele>205.0</ele><time>2026-04-04T12:56:47.999Z</time></trkpt><trkpt lat="45.7797619538521" lon="10.073078985672675"><ele>204.99999999999997</ele><time>2026-04-04T12:56:48.999Z</time></trkpt><trkpt lat="45.779691959630426" lon="10.073069143719303"><ele>205.0</ele><time>2026-04-04T12:56:49.999Z</time></trkpt><trkpt lat="45.77962702197249" lon="10.073059440688269"><ele>205.0</ele><time>2026-04-04T12:56:50.999Z</time></trkpt><trkpt lat="45.779562118378365" lon="10.07304974278889"><ele>205.0</ele><time>2026-04-04T12:56:51.999Z</time></trkpt><trkpt lat="45.77949818434692" lon="10.07304018971288"><ele>205.0</ele><time>2026-04-04T12:56:52.999Z</time></trkpt><trkpt lat="45.77937603210101" lon="10.073022269209435"><ele>205.0</ele><time>2026-04-04T12:56:54.999Z</time></trkpt><trkpt lat="45.77931271904997" lon="10.073013009224596"><ele>205.0</ele><time>2026-04-04T12:56:55.999Z</time></trkpt><trkpt lat="45.77924807680512" lon="10.073003554829715"><ele>205.0</ele><time>2026-04-04T12:56:56.999Z</time></trkpt><trkpt lat="45.77918266217933" lon="10.072993987457478"><ele>205.0</ele><time>2026-04-04T12:56:57.999Z</time></trkpt><trkpt lat="45.77911655437511" lon="10.072984318734058"><ele>206.57142857142858</ele><time>2026-04-04T12:56:58.999Z</time></trkpt><trkpt lat="45.77905322280721" lon="10.072975056032167"><ele>208.14285714285714</ele><time>2026-04-04T12:56:59.999Z</time></trkpt><trkpt lat="45.77898881645265" lon="10.072965636134366"><ele>209.71428571428572</ele><time>2026-04-04T12:57:00.999Z</time></trkpt><trkpt lat="45.778862750342235" lon="10.072947198090569"><ele>211.28571428571428</ele><time>2026-04-04T12:57:02.999Z</time></trkpt><trkpt lat="45.77879898526479" lon="10.072937871980429"><ele>212.85714285714283</ele><time>2026-04-04T12:57:03.999Z</time></trkpt><trkpt lat="45.778735019411016" lon="10.07292851652983"><ele>214.42857142857142</ele><time>2026-04-04T12:57:04.999Z</time></trkpt><trkpt lat="45.77867177413506" lon="10.072919633897008"><ele>216.0</ele><time>2026-04-04T12:57:05.999Z</time></trkpt><trkpt lat="45.77854777694719" lon="10.072902303451425"><ele>223.14285714285714</ele><time>2026-04-04T12:57:07.999Z</time></trkpt><trkpt lat="45.77848413221697" lon="10.072893408139947"><ele>230.28571428571428</ele><time>2026-04-04T12:57:08.999Z</time></trkpt><trkpt lat="45.77842142040893" lon="10.072884643242105"><ele>237.42857142857144</ele><time>2026-04-04T12:57:09.999Z</time></trkpt><trkpt lat="45.7783557293049" lon="10.072875461934759"><ele>244.57142857142856</ele><time>2026-04-04T12:57:10.999Z</time></trkpt><trkpt lat="45.778288101266504" lon="10.072866250764108"><ele>251.71428571428572</ele><time>2026-04-04T12:57:11.999Z</time></trkpt><trkpt lat="45.778221986233426" lon="10.072857252620675"><ele>258.85714285714283</ele><time>2026-04-04T12:57:12.999Z</time></trkpt><trkpt lat="45.77815714647152" lon="10.072848428042716"><ele>266.0</ele><time>2026-04-04T12:57:13.999Z</time></trkpt><trkpt lat="45.778028309046455" lon="10.072830865425855"><ele>266.0</ele><time>2026-04-04T12:57:15.999Z</time></trkpt><trkpt lat="45.777964043923085" lon="10.072820218425157"><ele>266.0</ele><time>2026-04-04T12:57:16.999Z</time></trkpt><trkpt lat="45.77784032401859" lon="10.072799721402784"><ele>266.0</ele><time>2026-04-04T12:57:18.999Z</time></trkpt><trkpt lat="45.77776671142457" lon="10.07278710088684"><ele>266.0</ele><time>2026-04-04T12:57:19.999Z</time></trkpt><trkpt lat="45.777685410406605" lon="10.072772700111294"><ele>266.0</ele><time>2026-04-04T12:57:20.999Z</time></trkpt><trkpt lat="45.77760656653597" lon="10.072755510735227"><ele>266.0</ele><time>2026-04-04T12:57:21.999Z</time></trkpt><trkpt lat="45.777523549516275" lon="10.072733228817171"><ele>266.83333333333337</ele><time>2026-04-04T12:57:22.999Z</time></trkpt><trkpt lat="45.77745463903389" lon="10.072710076256563"><ele>267.6666666666667</ele><time>2026-04-04T12:57:23.999Z</time></trkpt><trkpt lat="45.77738576537782" lon="10.072686948785542"><ele>268.5</ele><time>2026-04-04T12:57:24.999Z</time></trkpt><trkpt lat="45.777313517789615" lon="10.072660819694715"><ele>269.3333333333333</ele><time>2026-04-04T12:57:25.999Z</time></trkpt><trkpt lat="45.77722008675705" lon="10.07262257485877"><ele>270.16666666666663</ele><time>2026-04-04T12:57:26.999Z</time></trkpt><trkpt lat="45.777136533885525" lon="10.072582557866859"><ele>271.0</ele><time>2026-04-04T12:57:27.999Z</time></trkpt><trkpt lat="45.77705375572721" lon="10.072534285557104"><ele>271.0</ele><time>2026-04-04T12:57:28.999Z</time></trkpt><trkpt lat="45.77696906527621" lon="10.072479160049587"><ele>271.0</ele><time>2026-04-04T12:57:29.999Z</time></trkpt><trkpt lat="45.77690633539933" lon="10.072432902680566"><ele>271.0</ele><time>2026-04-04T12:57:30.999Z</time></trkpt><trkpt lat="45.776837287350354" lon="10.072379952135117"><ele>271.0</ele><time>2026-04-04T12:57:31.999Z</time></trkpt><trkpt lat="45.77676411484531" lon="10.072319563471108"><ele>271.0</ele><time>2026-04-04T12:57:32.998Z</time></trkpt><trkpt lat="45.776691676172874" lon="10.072256415247269"><ele>271.0</ele><time>2026-04-04T12:57:33.998Z</time></trkpt><trkpt lat="45.77662272111463" lon="10.072192902733708"><ele>264.5</ele><time>2026-04-04T12:57:34.998Z</time></trkpt><trkpt lat="45.776552227643734" lon="10.0721244943866"><ele>258.0</ele><time>2026-04-04T12:57:35.998Z</time></trkpt><trkpt lat="45.77648330006931" lon="10.072052471994594"><ele>251.5</ele><time>2026-04-04T12:57:36.998Z</time></trkpt><trkpt lat="45.776417911596376" lon="10.071980582484061"><ele>245.0</ele><time>2026-04-04T12:57:37.998Z</time></trkpt><trkpt lat="45.77635219802079" lon="10.071905906917154"><ele>238.49999999999997</ele><time>2026-04-04T12:57:38.998Z</time></trkpt><trkpt lat="45.77629588584214" lon="10.07184047431102"><ele>232.0</ele><time>2026-04-04T12:57:39.998Z</time></trkpt><trkpt lat="45.77624208679183" lon="10.07177796206263"><ele>231.99999999999997</ele><time>2026-04-04T12:57:40.998Z</time></trkpt><trkpt lat="45.77618716449061" lon="10.071714144638717"><ele>232.0</ele><time>2026-04-04T12:57:41.998Z</time></trkpt><trkpt lat="45.77613001116101" lon="10.071648166167648"><ele>232.0</ele><time>2026-04-04T12:57:42.998Z</time></trkpt><trkpt lat="45.77607745175707" lon="10.071587703090382"><ele>232.0</ele><time>2026-04-04T12:57:44Z</time></trkpt><trkpt lat="45.776027554133535" lon="10.071530302018525"><ele>231.99999999999997</ele><time>2026-04-04T12:57:45Z</time></trkpt><trkpt lat="45.77597585488019" lon="10.071470828535926"><ele>232.0</ele><time>2026-04-04T12:57:46Z</time></trkpt><trkpt lat="45.77586886506971" lon="10.071347750009453"><ele>234.5714285714286</ele><time>2026-04-04T12:57:48Z</time></trkpt><trkpt lat="45.775819481629384" lon="10.0712909404189"><ele>237.14285714285717</ele><time>2026-04-04T12:57:49Z</time></trkpt><trkpt lat="45.775755835780494" lon="10.071217723930635"><ele>239.71428571428572</ele><time>2026-04-04T12:57:50Z</time></trkpt><trkpt lat="45.775697781942135" lon="10.071151544879617"><ele>242.2857142857143</ele><time>2026-04-04T12:57:51Z</time></trkpt><trkpt lat="45.7756395077027" lon="10.071085319961144"><ele>244.8571428571429</ele><time>2026-04-04T12:57:52Z</time></trkpt><trkpt lat="45.775581751913414" lon="10.071019684062756"><ele>247.42857142857142</ele><time>2026-04-04T12:57:53Z</time></trkpt><trkpt lat="45.77552454038224" lon="10.070954666747818"><ele>250.0</ele><time>2026-04-04T12:57:54Z</time></trkpt><trkpt lat="45.77546668171217" lon="10.070888913816262"><ele>250.0</ele><time>2026-04-04T12:57:55Z</time></trkpt><trkpt lat="45.77541157266198" lon="10.070826285868863"><ele>250.0</ele><time>2026-04-04T12:57:56Z</time></trkpt><trkpt lat="45.77535562384196" lon="10.070762703460911"><ele>250.0</ele><time>2026-04-04T12:57:57Z</time></trkpt><trkpt lat="45.77530175912042" lon="10.07070148958311"><ele>250.0</ele><time>2026-04-04T12:57:58Z</time></trkpt><trkpt lat="45.775491673562556" lon="10.070206353164084"><ele>263.66666666666663</ele><time>2026-04-04T12:57:59Z</time></trkpt><trkpt lat="45.775443650644206" lon="10.070131128764066"><ele>277.3333333333333</ele><time>2026-04-04T12:58:00Z</time></trkpt><trkpt lat="45.77538842290149" lon="10.070063361384301"><ele>291.0</ele><time>2026-04-04T12:58:01Z</time></trkpt><trkpt lat="45.77507726953865" lon="10.070447265044823"><ele>291.0</ele><time>2026-04-04T12:58:02Z</time></trkpt><trkpt lat="45.775023278808185" lon="10.07038430579209"><ele>291.0</ele><time>2026-04-04T12:58:03Z</time></trkpt><trkpt lat="45.77497307977769" lon="10.07032576795071"><ele>291.0</ele><time>2026-04-04T12:58:04Z</time></trkpt><trkpt lat="45.774931019644995" lon="10.070253868873657"><ele>291.0</ele><time>2026-04-04T12:58:05Z</time></trkpt><trkpt lat="45.77481866804038" lon="10.070148221465569"><ele>291.0</ele><time>2026-04-04T12:58:07Z</time></trkpt><trkpt lat="45.7747385917911" lon="10.070065837807073"><ele>291.0</ele><time>2026-04-04T12:58:09Z</time></trkpt><trkpt lat="45.774643842877154" lon="10.069976551836834"><ele>287.0</ele><time>2026-04-04T12:58:11Z</time></trkpt><trkpt lat="45.77454085800138" lon="10.069887425187222"><ele>283.0</ele><time>2026-04-04T12:58:13Z</time></trkpt><trkpt lat="45.7744428661646" lon="10.069809001475157"><ele>279.0</ele><time>2026-04-04T12:58:15Z</time></trkpt><trkpt lat="45.774382478871985" lon="10.069763272314866"><ele>275.0</ele><time>2026-04-04T12:58:16Z</time></trkpt><trkpt lat="45.774276826276704" lon="10.069687129822581"><ele>271.0</ele><time>2026-04-04T12:58:18Z</time></trkpt><trkpt lat="45.77416653927291" lon="10.069611882887722"><ele>271.0</ele><time>2026-04-04T12:58:20Z</time></trkpt><trkpt lat="45.77405755515857" lon="10.069541461963755"><ele>271.0</ele><time>2026-04-04T12:58:22Z</time></trkpt><trkpt lat="45.77399587627673" lon="10.069505348310864"><ele>271.0</ele><time>2026-04-04T12:58:23Z</time></trkpt><trkpt lat="45.77389170365549" lon="10.069447661419751"><ele>271.0</ele><time>2026-04-04T12:58:25Z</time></trkpt><trkpt lat="45.77380096578691" lon="10.069403619462749"><ele>271.0</ele><time>2026-04-04T12:58:27Z</time></trkpt><trkpt lat="45.77368167124805" lon="10.06935357153707"><ele>271.0</ele><time>2026-04-04T12:58:29Z</time></trkpt><trkpt lat="45.77366230871242" lon="10.069053877393456"><ele>271.0</ele><time>2026-04-04T12:58:30Z</time></trkpt><trkpt lat="45.77359371809154" lon="10.069121474720106"><ele>271.0</ele><time>2026-04-04T12:58:31Z</time></trkpt><trkpt lat="45.77350110381173" lon="10.069282843199916"><ele>271.0</ele><time>2026-04-04T12:58:32Z</time></trkpt><trkpt lat="45.7734327745031" lon="10.069255812654268"><ele>275.3333333333333</ele><time>2026-04-04T12:58:33Z</time></trkpt><trkpt lat="45.77336558386195" lon="10.069229232541145"><ele>279.66666666666663</ele><time>2026-04-04T12:58:34Z</time></trkpt><trkpt lat="45.77330203828759" lon="10.069204094386285"><ele>284.0</ele><time>2026-04-04T12:58:35Z</time></trkpt><trkpt lat="45.7732353017922" lon="10.069177693935558"><ele>288.3333333333333</ele><time>2026-04-04T12:58:36Z</time></trkpt><trkpt lat="45.77313957652344" lon="10.0691402754602"><ele>292.6666666666667</ele><time>2026-04-04T12:58:37Z</time></trkpt><trkpt lat="45.77304013637768" lon="10.069101581800474"><ele>297.0</ele><time>2026-04-04T12:58:38Z</time></trkpt><trkpt lat="45.77296138242793" lon="10.069070949297277"><ele>277.5</ele><time>2026-04-04T12:58:40Z</time></trkpt><trkpt lat="45.772885056092456" lon="10.069041249408233"><ele>258.0</ele><time>2026-04-04T12:58:41Z</time></trkpt><trkpt lat="45.772772599170075" lon="10.068983384472826"><ele>238.5</ele><time>2026-04-04T12:58:43Z</time></trkpt><trkpt lat="45.7726922283483" lon="10.068911573088632"><ele>219.0</ele><time>2026-04-04T12:58:44.999Z</time></trkpt><trkpt lat="45.77278943282759" lon="10.068216610026086"><ele>213.71428571428572</ele><time>2026-04-04T12:58:45.999Z</time></trkpt><trkpt lat="45.772752322167605" lon="10.068133295093599"><ele>208.42857142857142</ele><time>2026-04-04T12:58:46.999Z</time></trkpt><trkpt lat="45.77269941830483" lon="10.068064271200692"><ele>203.14285714285714</ele><time>2026-04-04T12:58:47.999Z</time></trkpt><trkpt lat="45.77263239835407" lon="10.06801693893985"><ele>197.85714285714286</ele><time>2026-04-04T12:58:48.999Z</time></trkpt><trkpt lat="45.77256447980293" lon="10.067983759308902"><ele>192.57142857142856</ele><time>2026-04-04T12:58:49.999Z</time></trkpt><trkpt lat="45.772492280946956" lon="10.06797181933527"><ele>187.28571428571428</ele><time>2026-04-04T12:58:50.999Z</time></trkpt><trkpt lat="45.77242668885575" lon="10.067939296788266"><ele>182.0</ele><time>2026-04-04T12:58:51.999Z</time></trkpt><trkpt lat="45.772358038848544" lon="10.06792861747416"><ele>182.0</ele><time>2026-04-04T12:58:52.999Z</time></trkpt><trkpt lat="45.772294213866495" lon="10.067911549242677"><ele>182.0</ele><time>2026-04-04T12:58:53.999Z</time></trkpt><trkpt lat="45.77222796195813" lon="10.067914680031624"><ele>182.0</ele><time>2026-04-04T12:58:54.999Z</time></trkpt><trkpt lat="45.77216291801855" lon="10.067915745947028"><ele>182.0</ele><time>2026-04-04T12:58:55.999Z</time></trkpt><trkpt lat="45.77209599377985" lon="10.067931686310502"><ele>182.0</ele><time>2026-04-04T12:58:56.999Z</time></trkpt><trkpt lat="45.77202910937376" lon="10.067938046777268"><ele>182.0</ele><time>2026-04-04T12:58:57.999Z</time></trkpt><trkpt lat="45.77196328135341" lon="10.067935545749782"><ele>182.0</ele><time>2026-04-04T12:58:58.999Z</time></trkpt><trkpt lat="45.77189996508769" lon="10.06793385763353"><ele>183.85714285714286</ele><time>2026-04-04T12:58:59.999Z</time></trkpt><trkpt lat="45.771832212312596" lon="10.067911199508007"><ele>185.71428571428572</ele><time>2026-04-04T12:59:00.999Z</time></trkpt><trkpt lat="45.771764953677234" lon="10.067893086740987"><ele>187.57142857142856</ele><time>2026-04-04T12:59:01.999Z</time></trkpt><trkpt lat="45.77169686494885" lon="10.067883708466702"><ele>189.42857142857144</ele><time>2026-04-04T12:59:02.999Z</time></trkpt><trkpt lat="45.77163034533588" lon="10.067888045772131"><ele>191.28571428571428</ele><time>2026-04-04T12:59:03.999Z</time></trkpt><trkpt lat="45.771561654836326" lon="10.067870236411446"><ele>193.14285714285714</ele><time>2026-04-04T12:59:04.999Z</time></trkpt><trkpt lat="45.771492011911796" lon="10.067870035439345"><ele>195.0</ele><time>2026-04-04T12:59:05.999Z</time></trkpt><trkpt lat="45.771422282999815" lon="10.067857481210346"><ele>195.0</ele><time>2026-04-04T12:59:06.999Z</time></trkpt><trkpt lat="45.77135279551024" lon="10.067847778740731"><ele>195.0</ele><time>2026-04-04T12:59:07.999Z</time></trkpt><trkpt lat="45.77128474780607" lon="10.067836697971954"><ele>195.0</ele><time>2026-04-04T12:59:08.999Z</time></trkpt><trkpt lat="45.771217313141136" lon="10.067825912984574"><ele>195.0</ele><time>2026-04-04T12:59:09.999Z</time></trkpt><trkpt lat="45.771152170369646" lon="10.067802330382973"><ele>195.0</ele><time>2026-04-04T12:59:10.999Z</time></trkpt><trkpt lat="45.77108336207257" lon="10.067786876841838"><ele>195.0</ele><time>2026-04-04T12:59:11.999Z</time></trkpt><trkpt lat="45.77101318042886" lon="10.067793475894973"><ele>195.0</ele><time>2026-04-04T12:59:12.999Z</time></trkpt><trkpt lat="45.77094803031057" lon="10.067803052001533"><ele>193.83333333333334</ele><time>2026-04-04T12:59:13.999Z</time></trkpt><trkpt lat="45.77087855875394" lon="10.067807955047344"><ele>192.66666666666666</ele><time>2026-04-04T12:59:14.999Z</time></trkpt><trkpt lat="45.77074922264312" lon="10.067827759263475"><ele>191.5</ele><time>2026-04-04T12:59:16.999Z</time></trkpt><trkpt lat="45.77068643296631" lon="10.067838905022612"><ele>190.33333333333331</ele><time>2026-04-04T12:59:17.999Z</time></trkpt><trkpt lat="45.770623896039325" lon="10.06786425003603"><ele>189.16666666666666</ele><time>2026-04-04T12:59:18.999Z</time></trkpt><trkpt lat="45.77056625946029" lon="10.067904044123713"><ele>188.0</ele><time>2026-04-04T12:59:19.999Z</time></trkpt><trkpt lat="45.770514354609624" lon="10.067960539780373"><ele>188.0</ele><time>2026-04-04T12:59:20.999Z</time></trkpt><trkpt lat="45.770458020675036" lon="10.068007237621282"><ele>188.0</ele><time>2026-04-04T12:59:21.999Z</time></trkpt><trkpt lat="45.77039869874458" lon="10.068051687276176"><ele>188.0</ele><time>2026-04-04T12:59:22.999Z</time></trkpt><trkpt lat="45.77033977440818" lon="10.068094658999962"><ele>188.0</ele><time>2026-04-04T12:59:23.999Z</time></trkpt><trkpt lat="45.77028316122246" lon="10.068140093451973"><ele>188.0</ele><time>2026-04-04T12:59:24.999Z</time></trkpt><trkpt lat="45.77022186680535" lon="10.068170050793578"><ele>188.0</ele><time>2026-04-04T12:59:25.999Z</time></trkpt><trkpt lat="45.77016148436362" lon="10.068205136176973"><ele>188.0</ele><time>2026-04-04T12:59:26.999Z</time></trkpt><trkpt lat="45.77009640722435" lon="10.068236433113784"><ele>194.85714285714286</ele><time>2026-04-04T12:59:27.999Z</time></trkpt><trkpt lat="45.770033992739876" lon="10.068276618124903"><ele>201.71428571428572</ele><time>2026-04-04T12:59:28.999Z</time></trkpt><trkpt lat="45.769968953288014" lon="10.06830259062449"><ele>208.57142857142856</ele><time>2026-04-04T12:59:29.999Z</time></trkpt><trkpt lat="45.76990138073566" lon="10.068326187117693"><ele>215.42857142857144</ele><time>2026-04-04T12:59:30.999Z</time></trkpt><trkpt lat="45.76983190394041" lon="10.068343062022391"><ele>222.2857142857143</ele><time>2026-04-04T12:59:31.999Z</time></trkpt><trkpt lat="45.76976362510476" lon="10.068348403170429"><ele>229.14285714285714</ele><time>2026-04-04T12:59:32.999Z</time></trkpt><trkpt lat="45.76969732976051" lon="10.06835619267858"><ele>236.0</ele><time>2026-04-04T12:59:33.999Z</time></trkpt><trkpt lat="45.769631079078735" lon="10.068362620184423"><ele>236.00000000000003</ele><time>2026-04-04T12:59:34.999Z</time></trkpt><trkpt lat="45.76955368139164" lon="10.068354665003001"><ele>236.0</ele><time>2026-04-04T12:59:35.999Z</time></trkpt><trkpt lat="45.769473905752086" lon="10.068339680077862"><ele>236.0</ele><time>2026-04-04T12:59:36.998Z</time></trkpt><trkpt lat="45.769334999625706" lon="10.068314327887704"><ele>236.0</ele><time>2026-04-04T12:59:38.998Z</time></trkpt><trkpt lat="45.769278903120586" lon="10.0683782186772"><ele>236.00000000000003</ele><time>2026-04-04T12:59:39.998Z</time></trkpt><trkpt lat="45.769209520622404" lon="10.068389555226702"><ele>236.0</ele><time>2026-04-04T12:59:40.998Z</time></trkpt><trkpt lat="45.769139165364635" lon="10.068395346920873"><ele>233.0</ele><time>2026-04-04T12:59:41.998Z</time></trkpt><trkpt lat="45.76907304676716" lon="10.068417739141102"><ele>230.0</ele><time>2026-04-04T12:59:42.998Z</time></trkpt><trkpt lat="45.769013655291864" lon="10.06846018560105"><ele>227.0</ele><time>2026-04-04T12:59:43.998Z</time></trkpt><trkpt lat="45.76895130681987" lon="10.06851524017551"><ele>224.0</ele><time>2026-04-04T12:59:44.998Z</time></trkpt><trkpt lat="45.768890403996096" lon="10.068558140600473"><ele>221.0</ele><time>2026-04-04T12:59:45.998Z</time></trkpt><trkpt lat="45.76882623950115" lon="10.068597748605644"><ele>218.0</ele><time>2026-04-04T12:59:46.998Z</time></trkpt><trkpt lat="45.768763355797304" lon="10.068637437086648"><ele>215.0</ele><time>2026-04-04T12:59:47.998Z</time></trkpt><trkpt lat="45.76869701143126" lon="10.068673646893137"><ele>215.0</ele><time>2026-04-04T12:59:49Z</time></trkpt><trkpt lat="45.76862749088204" lon="10.068690714050497"><ele>215.0</ele><time>2026-04-04T12:59:50Z</time></trkpt><trkpt lat="45.76855663765801" lon="10.068701918283882"><ele>215.0</ele><time>2026-04-04T12:59:51Z</time></trkpt><trkpt lat="45.768486805042954" lon="10.068703545808543"><ele>215.0</ele><time>2026-04-04T12:59:52Z</time></trkpt><trkpt lat="45.768417672777545" lon="10.06871819256274"><ele>215.0</ele><time>2026-04-04T12:59:53Z</time></trkpt><trkpt lat="45.76835326601169" lon="10.068742044159603"><ele>215.0</ele><time>2026-04-04T12:59:54Z</time></trkpt><trkpt lat="45.768287316632225" lon="10.068761739873711"><ele>215.0</ele><time>2026-04-04T12:59:55Z</time></trkpt><trkpt lat="45.76822714839979" lon="10.068798360246358"><ele>210.33333333333334</ele><time>2026-04-04T12:59:56Z</time></trkpt><trkpt lat="45.76816390893488" lon="10.068822878736281"><ele>205.66666666666669</ele><time>2026-04-04T12:59:57Z</time></trkpt><trkpt lat="45.76809914042676" lon="10.068849132335078"><ele>201.0</ele><time>2026-04-04T12:59:58Z</time></trkpt><trkpt lat="45.76803432063497" lon="10.0688751740293"><ele>196.33333333333334</ele><time>2026-04-04T12:59:59Z</time></trkpt><trkpt lat="45.76797061031251" lon="10.068897798476256"><ele>191.66666666666669</ele><time>2026-04-04T13:00:00Z</time></trkpt><trkpt lat="45.76785529708096" lon="10.068968874058445"><ele>187.0</ele><time>2026-04-04T13:00:02Z</time></trkpt><trkpt lat="45.76780456456099" lon="10.069029564365787"><ele>187.0</ele><time>2026-04-04T13:00:03Z</time></trkpt><trkpt lat="45.76776237961801" lon="10.06910073150128"><ele>187.0</ele><time>2026-04-04T13:00:04Z</time></trkpt><trkpt lat="45.76772213371883" lon="10.069177653940821"><ele>187.0</ele><time>2026-04-04T13:00:05Z</time></trkpt><trkpt lat="45.767678657158996" lon="10.069253609151838"><ele>187.0</ele><time>2026-04-04T13:00:06Z</time></trkpt><trkpt lat="45.76763921939356" lon="10.069330227475628"><ele>187.0</ele><time>2026-04-04T13:00:07Z</time></trkpt><trkpt lat="45.76759751603214" lon="10.069411736926488"><ele>187.0</ele><time>2026-04-04T13:00:08Z</time></trkpt><trkpt lat="45.76755809730025" lon="10.069495784511371"><ele>187.0</ele><time>2026-04-04T13:00:09Z</time></trkpt><trkpt lat="45.76751587980244" lon="10.069573294600884"><ele>186.85714285714286</ele><time>2026-04-04T13:00:10Z</time></trkpt><trkpt lat="45.76746501130716" lon="10.069643621306135"><ele>186.71428571428572</ele><time>2026-04-04T13:00:11Z</time></trkpt><trkpt lat="45.76739995066632" lon="10.069694547784849"><ele>186.57142857142858</ele><time>2026-04-04T13:00:12Z</time></trkpt><trkpt lat="45.767331573145064" lon="10.069725054045158"><ele>186.42857142857144</ele><time>2026-04-04T13:00:13Z</time></trkpt><trkpt lat="45.76725927143395" lon="10.069746555732777"><ele>186.28571428571428</ele><time>2026-04-04T13:00:14Z</time></trkpt><trkpt lat="45.76719739253667" lon="10.069791699792647"><ele>186.14285714285717</ele><time>2026-04-04T13:00:15Z</time></trkpt><trkpt lat="45.76713180080495" lon="10.06982715870353"><ele>186.0</ele><time>2026-04-04T13:00:16Z</time></trkpt><trkpt lat="45.767052540883974" lon="10.06985507595924"><ele>186.00000000000003</ele><time>2026-04-04T13:00:17Z</time></trkpt><trkpt lat="45.7669838163305" lon="10.069887564319107"><ele>186.0</ele><time>2026-04-04T13:00:18Z</time></trkpt><trkpt lat="45.766915050820465" lon="10.06992242249504"><ele>186.0</ele><time>2026-04-04T13:00:19Z</time></trkpt><trkpt lat="45.76684412682804" lon="10.069950163971923"><ele>186.0</ele><time>2026-04-04T13:00:20Z</time></trkpt><trkpt lat="45.76677194029681" lon="10.069983888447867"><ele>186.0</ele><time>2026-04-04T13:00:21Z</time></trkpt><trkpt lat="45.76670871773029" lon="10.070026237072238"><ele>186.00000000000003</ele><time>2026-04-04T13:00:22Z</time></trkpt><trkpt lat="45.766636928138034" lon="10.07005012706168"><ele>186.0</ele><time>2026-04-04T13:00:23Z</time></trkpt><trkpt lat="45.76656937607609" lon="10.07008040748406"><ele>188.14285714285717</ele><time>2026-04-04T13:00:24Z</time></trkpt><trkpt lat="45.766497405480784" lon="10.070108623661778"><ele>190.28571428571428</ele><time>2026-04-04T13:00:25Z</time></trkpt><trkpt lat="45.76643671761387" lon="10.070136409693601"><ele>192.42857142857144</ele><time>2026-04-04T13:00:26Z</time></trkpt><trkpt lat="45.766373204428696" lon="10.07018580028702"><ele>194.57142857142858</ele><time>2026-04-04T13:00:27Z</time></trkpt><trkpt lat="45.7663176068653" lon="10.070247449625628"><ele>196.71428571428572</ele><time>2026-04-04T13:00:28Z</time></trkpt><trkpt lat="45.766270399357566" lon="10.070323798437878"><ele>198.85714285714286</ele><time>2026-04-04T13:00:29Z</time></trkpt><trkpt lat="45.76622920708995" lon="10.07040811003311"><ele>201.0</ele><time>2026-04-04T13:00:30Z</time></trkpt><trkpt lat="45.76619971040372" lon="10.070504541934154"><ele>201.0</ele><time>2026-04-04T13:00:31Z</time></trkpt><trkpt lat="45.76617508432893" lon="10.070598044185656"><ele>201.0</ele><time>2026-04-04T13:00:32Z</time></trkpt><trkpt lat="45.76614424637863" lon="10.070686786603707"><ele>201.0</ele><time>2026-04-04T13:00:33Z</time></trkpt><trkpt lat="45.766113283701806" lon="10.07077485519098"><ele>201.0</ele><time>2026-04-04T13:00:34Z</time></trkpt><trkpt lat="45.76608680870936" lon="10.070862008269737"><ele>201.0</ele><time>2026-04-04T13:00:35Z</time></trkpt><trkpt lat="45.76604089119587" lon="10.070936681435485"><ele>201.0</ele><time>2026-04-04T13:00:36Z</time></trkpt><trkpt lat="45.76598613496679" lon="10.070996221174848"><ele>201.0</ele><time>2026-04-04T13:00:37Z</time></trkpt><trkpt lat="45.765924523552165" lon="10.071044962833502"><ele>200.28571428571428</ele><time>2026-04-04T13:00:38Z</time></trkpt><trkpt lat="45.76587092285794" lon="10.071106298160133"><ele>199.57142857142858</ele><time>2026-04-04T13:00:39Z</time></trkpt><trkpt lat="45.76582228656763" lon="10.071178692528102"><ele>198.85714285714286</ele><time>2026-04-04T13:00:40Z</time></trkpt><trkpt lat="45.76579682143327" lon="10.071273680858718"><ele>198.14285714285714</ele><time>2026-04-04T13:00:41Z</time></trkpt><trkpt lat="45.76578986413394" lon="10.071378670222211"><ele>197.42857142857144</ele><time>2026-04-04T13:00:42Z</time></trkpt><trkpt lat="45.76577834778647" lon="10.071479460645694"><ele>196.71428571428572</ele><time>2026-04-04T13:00:43Z</time></trkpt><trkpt lat="45.765758574697486" lon="10.071572969020492"><ele>196.0</ele><time>2026-04-04T13:00:44Z</time></trkpt><trkpt lat="45.76571335587987" lon="10.071661188228664"><ele>200.16666666666666</ele><time>2026-04-04T13:00:45Z</time></trkpt><trkpt lat="45.76565961543044" lon="10.071738752779448"><ele>204.33333333333331</ele><time>2026-04-04T13:00:46Z</time></trkpt><trkpt lat="45.76559918298915" lon="10.071805733331285"><ele>208.5</ele><time>2026-04-04T13:00:46.999Z</time></trkpt><trkpt lat="45.76552897456016" lon="10.071865215875611"><ele>212.66666666666669</ele><time>2026-04-04T13:00:47.999Z</time></trkpt><trkpt lat="45.765467075214154" lon="10.071925222019853"><ele>216.83333333333334</ele><time>2026-04-04T13:00:48.999Z</time></trkpt><trkpt lat="45.765396002408316" lon="10.071972097570384"><ele>221.0</ele><time>2026-04-04T13:00:49.999Z</time></trkpt><trkpt lat="45.76533277217577" lon="10.072036240252238"><ele>221.00000000000003</ele><time>2026-04-04T13:00:50.999Z</time></trkpt><trkpt lat="45.765273773802576" lon="10.072102209953858"><ele>221.0</ele><time>2026-04-04T13:00:51.999Z</time></trkpt><trkpt lat="45.76521488073721" lon="10.072168742235771"><ele>221.0</ele><time>2026-04-04T13:00:52.999Z</time></trkpt><trkpt lat="45.76515290086222" lon="10.072224844389233"><ele>221.0</ele><time>2026-04-04T13:00:53.999Z</time></trkpt><trkpt lat="45.765088141253074" lon="10.072271583666387"><ele>221.0</ele><time>2026-04-04T13:00:54.999Z</time></trkpt><trkpt lat="45.76502959188312" lon="10.072316121282562"><ele>221.00000000000003</ele><time>2026-04-04T13:00:55.999Z</time></trkpt><trkpt lat="45.764977747887755" lon="10.072372736360098"><ele>221.0</ele><time>2026-04-04T13:00:56.999Z</time></trkpt><trkpt lat="45.76487779922409" lon="10.07248026105855"><ele>221.71428571428572</ele><time>2026-04-04T13:00:58.999Z</time></trkpt><trkpt lat="45.764810144260764" lon="10.072516078182572"><ele>222.42857142857144</ele><time>2026-04-04T13:00:59.999Z</time></trkpt><trkpt lat="45.764733786229414" lon="10.072538784694142"><ele>223.14285714285717</ele><time>2026-04-04T13:01:00.999Z</time></trkpt><trkpt lat="45.76466333899713" lon="10.072576290882525"><ele>223.85714285714286</ele><time>2026-04-04T13:01:01.999Z</time></trkpt><trkpt lat="45.764592708173645" lon="10.072608775917017"><ele>224.57142857142856</ele><time>2026-04-04T13:01:02.999Z</time></trkpt><trkpt lat="45.76452320883717" lon="10.07265368801254"><ele>225.2857142857143</ele><time>2026-04-04T13:01:03.999Z</time></trkpt><trkpt lat="45.76445660789846" lon="10.072697572013482"><ele>226.0</ele><time>2026-04-04T13:01:04.999Z</time></trkpt><trkpt lat="45.76438848991233" lon="10.07273618551402"><ele>222.57142857142858</ele><time>2026-04-04T13:01:05.999Z</time></trkpt><trkpt lat="45.76432275193484" lon="10.072773757812678"><ele>219.14285714285714</ele><time>2026-04-04T13:01:06.999Z</time></trkpt><trkpt lat="45.76424812263131" lon="10.07279596749866"><ele>215.71428571428572</ele><time>2026-04-04T13:01:07.999Z</time></trkpt><trkpt lat="45.76418034119694" lon="10.07283166205924"><ele>212.28571428571428</ele><time>2026-04-04T13:01:08.999Z</time></trkpt><trkpt lat="45.764113966807805" lon="10.072869675041346"><ele>208.85714285714283</ele><time>2026-04-04T13:01:09.999Z</time></trkpt><trkpt lat="45.76405536829703" lon="10.07292090214386"><ele>205.42857142857142</ele><time>2026-04-04T13:01:10.999Z</time></trkpt><trkpt lat="45.7639920351418" lon="10.07296094479136"><ele>202.0</ele><time>2026-04-04T13:01:11.999Z</time></trkpt><trkpt lat="45.763934571060744" lon="10.073002375520002"><ele>202.0</ele><time>2026-04-04T13:01:12.999Z</time></trkpt><trkpt lat="45.76387081801886" lon="10.073032993918375"><ele>202.0</ele><time>2026-04-04T13:01:13.999Z</time></trkpt><trkpt lat="45.7637996970178" lon="10.07304521949389"><ele>202.0</ele><time>2026-04-04T13:01:14.999Z</time></trkpt><trkpt lat="45.763724374806955" lon="10.07304655442995"><ele>202.0</ele><time>2026-04-04T13:01:15.999Z</time></trkpt><trkpt lat="45.76365308275073" lon="10.073051846535709"><ele>202.0</ele><time>2026-04-04T13:01:16.999Z</time></trkpt><trkpt lat="45.763580174629475" lon="10.073077338891588"><ele>202.0</ele><time>2026-04-04T13:01:17.999Z</time></trkpt><trkpt lat="45.7635216334463" lon="10.073147217818596"><ele>202.0</ele><time>2026-04-04T13:01:18.999Z</time></trkpt><trkpt lat="45.763463133246624" lon="10.073215082323083"><ele>202.28571428571428</ele><time>2026-04-04T13:01:19.999Z</time></trkpt><trkpt lat="45.76339910440642" lon="10.073272096679553"><ele>202.57142857142856</ele><time>2026-04-04T13:01:20.999Z</time></trkpt><trkpt lat="45.7633380408452" lon="10.073323080210224"><ele>202.85714285714286</ele><time>2026-04-04T13:01:21.999Z</time></trkpt><trkpt lat="45.76327417483464" lon="10.07336758748984"><ele>203.14285714285714</ele><time>2026-04-04T13:01:22.999Z</time></trkpt><trkpt lat="45.76320699140004" lon="10.073395932932765"><ele>203.42857142857144</ele><time>2026-04-04T13:01:23.999Z</time></trkpt><trkpt lat="45.76313805043749" lon="10.073428516921277"><ele>203.71428571428572</ele><time>2026-04-04T13:01:24.999Z</time></trkpt><trkpt lat="45.76307498840606" lon="10.07346786478409"><ele>204.0</ele><time>2026-04-04T13:01:25.999Z</time></trkpt><trkpt lat="45.76301056051199" lon="10.073508037850413"><ele>204.0</ele><time>2026-04-04T13:01:26.999Z</time></trkpt><trkpt lat="45.76295154656699" lon="10.073562928070492"><ele>204.0</ele><time>2026-04-04T13:01:27.999Z</time></trkpt><trkpt lat="45.76289862304006" lon="10.073632755746155"><ele>204.0</ele><time>2026-04-04T13:01:28.999Z</time></trkpt><trkpt lat="45.76284352230326" lon="10.073705713173187"><ele>204.0</ele><time>2026-04-04T13:01:29.999Z</time></trkpt><trkpt lat="45.76279665685241" lon="10.073778454685613"><ele>204.0</ele><time>2026-04-04T13:01:30.999Z</time></trkpt><trkpt lat="45.762740224123746" lon="10.073852374472553"><ele>204.0</ele><time>2026-04-04T13:01:31.999Z</time></trkpt><trkpt lat="45.76268017658208" lon="10.073899661804182"><ele>204.0</ele><time>2026-04-04T13:01:32.999Z</time></trkpt><trkpt lat="45.76260103318984" lon="10.073911007424194"><ele>200.83333333333334</ele><time>2026-04-04T13:01:33.999Z</time></trkpt><trkpt lat="45.76252063205932" lon="10.073912516459798"><ele>197.66666666666666</ele><time>2026-04-04T13:01:34.999Z</time></trkpt><trkpt lat="45.76244481884372" lon="10.073905989289056"><ele>194.5</ele><time>2026-04-04T13:01:35.999Z</time></trkpt><trkpt lat="45.76236842896046" lon="10.073909179032624"><ele>191.33333333333331</ele><time>2026-04-04T13:01:36.999Z</time></trkpt><trkpt lat="45.762293806135546" lon="10.073909486077174"><ele>188.16666666666666</ele><time>2026-04-04T13:01:37.999Z</time></trkpt><trkpt lat="45.762219414945775" lon="10.073911666081818"><ele>185.0</ele><time>2026-04-04T13:01:38.999Z</time></trkpt><trkpt lat="45.762145965632754" lon="10.07392061990509"><ele>185.0</ele><time>2026-04-04T13:01:39.998Z</time></trkpt><trkpt lat="45.76207022328601" lon="10.073927029799785"><ele>185.0</ele><time>2026-04-04T13:01:40.998Z</time></trkpt><trkpt lat="45.76199829304477" lon="10.073933654550347"><ele>185.0</ele><time>2026-04-04T13:01:41.998Z</time></trkpt><trkpt lat="45.76192226229182" lon="10.073944507440421"><ele>185.0</ele><time>2026-04-04T13:01:42.998Z</time></trkpt><trkpt lat="45.76185162173789" lon="10.073971621717696"><ele>185.0</ele><time>2026-04-04T13:01:43.998Z</time></trkpt><trkpt lat="45.76177821717471" lon="10.07399921324597"><ele>185.0</ele><time>2026-04-04T13:01:44.998Z</time></trkpt><trkpt lat="45.76170565176305" lon="10.074032970920495"><ele>184.57142857142856</ele><time>2026-04-04T13:01:45.998Z</time></trkpt><trkpt lat="45.76164373981189" lon="10.07409096898193"><ele>184.14285714285714</ele><time>2026-04-04T13:01:46.998Z</time></trkpt><trkpt lat="45.76157838190908" lon="10.07414480353676"><ele>183.71428571428572</ele><time>2026-04-04T13:01:47.998Z</time></trkpt><trkpt lat="45.761531745068254" lon="10.074221277555191"><ele>183.28571428571428</ele><time>2026-04-04T13:01:48.998Z</time></trkpt><trkpt lat="45.761490736885676" lon="10.074291239343708"><ele>182.85714285714286</ele><time>2026-04-04T13:01:49.998Z</time></trkpt><trkpt lat="45.76143851766047" lon="10.074342570041566"><ele>182.42857142857142</ele><time>2026-04-04T13:01:50.998Z</time></trkpt><trkpt lat="45.76137593953972" lon="10.074390036952437"><ele>182.0</ele><time>2026-04-04T13:01:51.998Z</time></trkpt><trkpt lat="45.761309677340115" lon="10.074431792424319"><ele>182.71428571428572</ele><time>2026-04-04T13:01:52.998Z</time></trkpt><trkpt lat="45.76123866786292" lon="10.07446186838198"><ele>183.42857142857144</ele><time>2026-04-04T13:01:53.998Z</time></trkpt><trkpt lat="45.76117484981333" lon="10.074499716800103"><ele>184.14285714285714</ele><time>2026-04-04T13:01:55Z</time></trkpt><trkpt lat="45.76110748748569" lon="10.074538480986625"><ele>184.85714285714286</ele><time>2026-04-04T13:01:56Z</time></trkpt><trkpt lat="45.761040341345485" lon="10.074572571635708"><ele>185.57142857142858</ele><time>2026-04-04T13:01:57Z</time></trkpt><trkpt lat="45.76097085380159" lon="10.07459763956112"><ele>186.28571428571428</ele><time>2026-04-04T13:01:58Z</time></trkpt><trkpt lat="45.76089976797931" lon="10.074615811090746"><ele>187.0</ele><time>2026-04-04T13:01:59Z</time></trkpt><trkpt lat="45.760828630513544" lon="10.074620963954013"><ele>187.0</ele><time>2026-04-04T13:02:00Z</time></trkpt><trkpt lat="45.76075795752934" lon="10.074608691107334"><ele>187.0</ele><time>2026-04-04T13:02:01Z</time></trkpt><trkpt lat="45.76068725954911" lon="10.074594382772997"><ele>187.0</ele><time>2026-04-04T13:02:02Z</time></trkpt><trkpt lat="45.760617177877236" lon="10.074602080752971"><ele>187.0</ele><time>2026-04-04T13:02:03Z</time></trkpt><trkpt lat="45.76055280829389" lon="10.074644755011382"><ele>187.0</ele><time>2026-04-04T13:02:04Z</time></trkpt><trkpt lat="45.760499324967306" lon="10.074720968573354"><ele>187.0</ele><time>2026-04-04T13:02:05Z</time></trkpt><trkpt lat="45.760450429394325" lon="10.074802696585897"><ele>187.0</ele><time>2026-04-04T13:02:06Z</time></trkpt><trkpt lat="45.760393164217795" lon="10.074859337086561"><ele>187.0</ele><time>2026-04-04T13:02:07Z</time></trkpt><trkpt lat="45.76033102833723" lon="10.074905693846604"><ele>187.0</ele><time>2026-04-04T13:02:08Z</time></trkpt><trkpt lat="45.76026150211866" lon="10.074939819217128"><ele>187.0</ele><time>2026-04-04T13:02:09Z</time></trkpt><trkpt lat="45.76019599962216" lon="10.074981528060144"><ele>187.0</ele><time>2026-04-04T13:02:10Z</time></trkpt><trkpt lat="45.76012677508017" lon="10.075021841568267"><ele>187.0</ele><time>2026-04-04T13:02:11Z</time></trkpt><trkpt lat="45.76005984512539" lon="10.075060750602994"><ele>187.0</ele><time>2026-04-04T13:02:12Z</time></trkpt><trkpt lat="45.75999127270662" lon="10.075101221209417"><ele>187.0</ele><time>2026-04-04T13:02:13Z</time></trkpt><trkpt lat="45.759921360709036" lon="10.075137123496198"><ele>188.85714285714286</ele><time>2026-04-04T13:02:14Z</time></trkpt><trkpt lat="45.759853239353625" lon="10.075181190726045"><ele>190.71428571428572</ele><time>2026-04-04T13:02:15Z</time></trkpt><trkpt lat="45.75978336146829" lon="10.075220435792003"><ele>192.57142857142858</ele><time>2026-04-04T13:02:16Z</time></trkpt><trkpt lat="45.759712771297714" lon="10.075260473916973"><ele>194.42857142857144</ele><time>2026-04-04T13:02:17Z</time></trkpt><trkpt lat="45.75965255520896" lon="10.075303927525647"><ele>196.28571428571428</ele><time>2026-04-04T13:02:18Z</time></trkpt><trkpt lat="45.759592302100195" lon="10.075354724324786"><ele>198.14285714285717</ele><time>2026-04-04T13:02:19Z</time></trkpt><trkpt lat="45.75952647290043" lon="10.075417840284592"><ele>200.0</ele><time>2026-04-04T13:02:20Z</time></trkpt><trkpt lat="45.75957569569822" lon="10.075743405476006"><ele>202.16666666666669</ele><time>2026-04-04T13:02:21Z</time></trkpt><trkpt lat="45.75948135538946" lon="10.075828949961688"><ele>204.33333333333334</ele><time>2026-04-04T13:02:23Z</time></trkpt><trkpt lat="45.759426524368" lon="10.075880064220687"><ele>206.5</ele><time>2026-04-04T13:02:24Z</time></trkpt><trkpt lat="45.75935679642023" lon="10.075957787669793"><ele>208.66666666666669</ele><time>2026-04-04T13:02:26Z</time></trkpt><trkpt lat="45.75930557916599" lon="10.076015628207456"><ele>210.83333333333334</ele><time>2026-04-04T13:02:28Z</time></trkpt><trkpt lat="45.75924518750607" lon="10.076087459733518"><ele>213.0</ele><time>2026-04-04T13:02:30Z</time></trkpt><trkpt lat="45.75919488996123" lon="10.07614750575003"><ele>213.0</ele><time>2026-04-04T13:02:31Z</time></trkpt><trkpt lat="45.75914215431234" lon="10.076223176661887"><ele>213.0</ele><time>2026-04-04T13:02:34Z</time></trkpt><trkpt lat="45.75908081559558" lon="10.076310576217558"><ele>213.0</ele><time>2026-04-04T13:02:36Z</time></trkpt><trkpt lat="45.75901240872642" lon="10.076422366323277"><ele>213.0</ele><time>2026-04-04T13:02:38Z</time></trkpt><trkpt lat="45.7589567007864" lon="10.076520922476968"><ele>213.0</ele><time>2026-04-04T13:02:40Z</time></trkpt><trkpt lat="45.758896907194476" lon="10.076641793497293"><ele>211.33333333333334</ele><time>2026-04-04T13:02:42.079Z</time></trkpt><trkpt lat="45.758829746274394" lon="10.076708954191794"><ele>209.66666666666669</ele><time>2026-04-04T13:02:45Z</time></trkpt><trkpt lat="45.758760751234334" lon="10.076708129943311"><ele>208.0</ele><time>2026-04-04T13:02:46Z</time></trkpt><trkpt lat="45.75867394381931" lon="10.076740900238681"><ele>206.33333333333334</ele><time>2026-04-04T13:02:47Z</time></trkpt><trkpt lat="45.75857705972556" lon="10.076788492109985"><ele>204.66666666666669</ele><time>2026-04-04T13:02:48Z</time></trkpt><trkpt lat="45.75850823517493" lon="10.076843901251483"><ele>203.0</ele><time>2026-04-04T13:02:49Z</time></trkpt><trkpt lat="45.75844684549809" lon="10.076899222180918"><ele>203.0</ele><time>2026-04-04T13:02:50Z</time></trkpt><trkpt lat="45.758382516713894" lon="10.076961835847401"><ele>203.0</ele><time>2026-04-04T13:02:51Z</time></trkpt><trkpt lat="45.758314463989194" lon="10.077023842072334"><ele>203.0</ele><time>2026-04-04T13:02:52Z</time></trkpt><trkpt lat="45.758280637494686" lon="10.077113094763726"><ele>203.0</ele><time>2026-04-04T13:02:52.999Z</time></trkpt><trkpt lat="45.75822650230313" lon="10.077177393884957"><ele>203.0</ele><time>2026-04-04T13:02:53.999Z</time></trkpt><trkpt lat="45.75817030292457" lon="10.077238084154644"><ele>203.0</ele><time>2026-04-04T13:02:54.999Z</time></trkpt><trkpt lat="45.75811692041206" lon="10.077295781047093"><ele>203.0</ele><time>2026-04-04T13:02:55.999Z</time></trkpt><trkpt lat="45.758058910722546" lon="10.077352128755429"><ele>203.0</ele><time>2026-04-04T13:02:56.999Z</time></trkpt><trkpt lat="45.75800594234226" lon="10.077409291721397"><ele>203.0</ele><time>2026-04-04T13:02:57.999Z</time></trkpt><trkpt lat="45.75795346843294" lon="10.077466811523674"><ele>203.0</ele><time>2026-04-04T13:02:58.999Z</time></trkpt><trkpt lat="45.75790275263111" lon="10.077528383510375"><ele>203.0</ele><time>2026-04-04T13:02:59.999Z</time></trkpt><trkpt lat="45.75785285587383" lon="10.07759353992221"><ele>203.0</ele><time>2026-04-04T13:03:00.999Z</time></trkpt><trkpt lat="45.75779952935834" lon="10.077657725842489"><ele>203.0</ele><time>2026-04-04T13:03:01.999Z</time></trkpt><trkpt lat="45.75774754914067" lon="10.077723363873798"><ele>203.0</ele><time>2026-04-04T13:03:02.999Z</time></trkpt><trkpt lat="45.75769538673288" lon="10.077780636861291"><ele>200.42857142857142</ele><time>2026-04-04T13:03:03.999Z</time></trkpt><trkpt lat="45.75764725315623" lon="10.077840223117294"><ele>197.85714285714286</ele><time>2026-04-04T13:03:04.999Z</time></trkpt><trkpt lat="45.757600089341025" lon="10.077909946504223"><ele>195.28571428571428</ele><time>2026-04-04T13:03:05.999Z</time></trkpt><trkpt lat="45.75755370538255" lon="10.077978881915918"><ele>192.71428571428572</ele><time>2026-04-04T13:03:06.999Z</time></trkpt><trkpt lat="45.757502280114245" lon="10.078048291718256"><ele>190.14285714285714</ele><time>2026-04-04T13:03:07.999Z</time></trkpt><trkpt lat="45.75745504607943" lon="10.078116435730653"><ele>187.57142857142856</ele><time>2026-04-04T13:03:08.999Z</time></trkpt><trkpt lat="45.75740590612373" lon="10.078183416425684"><ele>185.0</ele><time>2026-04-04T13:03:09.999Z</time></trkpt><trkpt lat="45.757352143664136" lon="10.07824737045573"><ele>185.42857142857142</ele><time>2026-04-04T13:03:10.999Z</time></trkpt><trkpt lat="45.757291340791795" lon="10.078297692639437"><ele>185.85714285714286</ele><time>2026-04-04T13:03:11.999Z</time></trkpt><trkpt lat="45.757233816928235" lon="10.078347003873391"><ele>186.28571428571428</ele><time>2026-04-04T13:03:12.999Z</time></trkpt><trkpt lat="45.75717326685151" lon="10.078386871808144"><ele>186.71428571428572</ele><time>2026-04-04T13:03:13.999Z</time></trkpt><trkpt lat="45.75710951441748" lon="10.078425183533605"><ele>187.14285714285714</ele><time>2026-04-04T13:03:14.999Z</time></trkpt><trkpt lat="45.7570485117526" lon="10.07846060080201"><ele>187.57142857142856</ele><time>2026-04-04T13:03:15.999Z</time></trkpt><trkpt lat="45.75695825000416" lon="10.078523051220671"><ele>188.0</ele><time>2026-04-04T13:03:17.999Z</time></trkpt><trkpt lat="45.75686727614006" lon="10.078576864937556"><ele>188.0</ele><time>2026-04-04T13:03:19.999Z</time></trkpt><trkpt lat="45.75677864384789" lon="10.07863808651955"><ele>188.0</ele><time>2026-04-04T13:03:21.999Z</time></trkpt><trkpt lat="45.75668308938202" lon="10.078698968812509"><ele>188.0</ele><time>2026-04-04T13:03:23.999Z</time></trkpt><trkpt lat="45.75659104574822" lon="10.078757601783721"><ele>188.0</ele><time>2026-04-04T13:03:25.999Z</time></trkpt><trkpt lat="45.75650740228553" lon="10.078822697004238"><ele>188.0</ele><time>2026-04-04T13:03:27.999Z</time></trkpt><trkpt lat="45.75642191881349" lon="10.078872980778565"><ele>188.0</ele><time>2026-04-04T13:03:29.999Z</time></trkpt><trkpt lat="45.75634857987404" lon="10.078932581681531"><ele>188.0</ele><time>2026-04-04T13:03:31.999Z</time></trkpt><trkpt lat="45.75628495318809" lon="10.078987338001411"><ele>188.0</ele><time>2026-04-04T13:03:33.999Z</time></trkpt><trkpt lat="45.75620836760729" lon="10.07903671082287"><ele>188.0</ele><time>2026-04-04T13:03:35.999Z</time></trkpt><trkpt lat="45.756124058748775" lon="10.079108439471192"><ele>188.0</ele><time>2026-04-04T13:03:37.999Z</time></trkpt><trkpt lat="45.75603532982217" lon="10.079166733041495"><ele>188.0</ele><time>2026-04-04T13:03:39.999Z</time></trkpt><trkpt lat="45.755949017477995" lon="10.079232345659156"><ele>188.0</ele><time>2026-04-04T13:03:41.999Z</time></trkpt><trkpt lat="45.75585791012727" lon="10.079307741949679"><ele>188.0</ele><time>2026-04-04T13:03:43.999Z</time></trkpt><trkpt lat="45.755766998407054" lon="10.079374769510245"><ele>188.0</ele><time>2026-04-04T13:03:45.998Z</time></trkpt><trkpt lat="45.75569919126097" lon="10.079441507364857"><ele>188.0</ele><time>2026-04-04T13:03:47.998Z</time></trkpt><trkpt lat="45.75562601235063" lon="10.079473378262842"><ele>188.0</ele><time>2026-04-04T13:03:49.998Z</time></trkpt><trkpt lat="45.75556511158417" lon="10.079529836292691"><ele>188.0</ele><time>2026-04-04T13:03:51.998Z</time></trkpt><trkpt lat="45.75550639033515" lon="10.079580148045297"><ele>188.0</ele><time>2026-04-04T13:03:53.998Z</time></trkpt><trkpt lat="45.755449592048016" lon="10.079630741596366"><ele>188.0</ele><time>2026-04-04T13:03:56.998Z</time></trkpt><trkpt lat="45.75539381075388" lon="10.079681857081807"><ele>188.0</ele><time>2026-04-04T13:03:59.998Z</time></trkpt><trkpt lat="45.75534399150735" lon="10.079742475299168"><ele>188.0</ele><time>2026-04-04T13:04:02Z</time></trkpt><trkpt lat="45.75529607202949" lon="10.07982123423102"><ele>188.0</ele><time>2026-04-04T13:04:04Z</time></trkpt><trkpt lat="45.75524061097228" lon="10.079907359172505"><ele>188.0</ele><time>2026-04-04T13:04:06Z</time></trkpt><trkpt lat="45.755183631393336" lon="10.080009518991783"><ele>188.0</ele><time>2026-04-04T13:04:08Z</time></trkpt><trkpt lat="45.75511743669177" lon="10.080141099605715"><ele>187.8</ele><time>2026-04-04T13:04:10Z</time></trkpt><trkpt lat="45.75503647208983" lon="10.080278340060548"><ele>187.60000000000002</ele><time>2026-04-04T13:04:12Z</time></trkpt><trkpt lat="45.75493585957491" lon="10.080399078119417"><ele>187.39999999999998</ele><time>2026-04-04T13:04:14Z</time></trkpt><trkpt lat="45.7548805762772" lon="10.080459013555577"><ele>187.2</ele><time>2026-04-04T13:04:15Z</time></trkpt><trkpt lat="45.75482551207765" lon="10.080507030206476"><ele>187.0</ele><time>2026-04-04T13:04:16Z</time></trkpt><trkpt lat="45.75477517027102" lon="10.080570867924123"><ele>187.0</ele><time>2026-04-04T13:04:17Z</time></trkpt><trkpt lat="45.754685347959864" lon="10.080672605532184"><ele>187.0</ele><time>2026-04-04T13:04:19Z</time></trkpt><trkpt lat="45.75459005432635" lon="10.080756817966138"><ele>187.0</ele><time>2026-04-04T13:04:21Z</time></trkpt><trkpt lat="45.75453840026205" lon="10.080820083458912"><ele>187.0</ele><time>2026-04-04T13:04:24Z</time></trkpt><trkpt lat="45.75449759516118" lon="10.080909586687662"><ele>187.0</ele><time>2026-04-04T13:04:32Z</time></trkpt><trkpt lat="45.75443573428633" lon="10.080962664976722"><ele>187.0</ele><time>2026-04-04T13:04:34Z</time></trkpt><trkpt lat="45.754371553027354" lon="10.081044537880842"><ele>187.2</ele><time>2026-04-04T13:04:36Z</time></trkpt><trkpt lat="45.754301371185996" lon="10.081156809394308"><ele>187.39999999999998</ele><time>2026-04-04T13:04:38Z</time></trkpt><trkpt lat="45.75422472558613" lon="10.081275372702292"><ele>187.60000000000002</ele><time>2026-04-04T13:04:40Z</time></trkpt><trkpt lat="45.75413431410324" lon="10.081397756506012"><ele>187.8</ele><time>2026-04-04T13:04:42Z</time></trkpt><trkpt lat="45.754076854241276" lon="10.081435590645027"><ele>188.0</ele><time>2026-04-04T13:04:43Z</time></trkpt><trkpt lat="45.75401080696536" lon="10.081459424762778"><ele>188.0</ele><time>2026-04-04T13:04:44Z</time></trkpt><trkpt lat="45.753946810593504" lon="10.08147155730407"><ele>188.0</ele><time>2026-04-04T13:04:45Z</time></trkpt><trkpt lat="45.75388299889767" lon="10.081487024858683"><ele>188.0</ele><time>2026-04-04T13:04:46Z</time></trkpt><trkpt lat="45.75381901317286" lon="10.08150724355524"><ele>188.0</ele><time>2026-04-04T13:04:47Z</time></trkpt><trkpt lat="45.75375205300484" lon="10.081527966267986"><ele>188.0</ele><time>2026-04-04T13:04:48Z</time></trkpt><trkpt lat="45.753689371835605" lon="10.081566276092525"><ele>188.0</ele><time>2026-04-04T13:04:49Z</time></trkpt><trkpt lat="45.753625108937854" lon="10.081611054991814"><ele>188.0</ele><time>2026-04-04T13:04:50Z</time></trkpt><trkpt lat="45.75356429093616" lon="10.081654989982724"><ele>188.0</ele><time>2026-04-04T13:04:51Z</time></trkpt><trkpt lat="45.75351005709434" lon="10.081707574283845"><ele>188.0</ele><time>2026-04-04T13:04:52Z</time></trkpt><trkpt lat="45.753459303739064" lon="10.081764212610395"><ele>188.0</ele><time>2026-04-04T13:04:53Z</time></trkpt><trkpt lat="45.7534128007199" lon="10.08183346390318"><ele>188.0</ele><time>2026-04-04T13:04:54Z</time></trkpt><trkpt lat="45.7533737408697" lon="10.08190759966753"><ele>188.0</ele><time>2026-04-04T13:04:55Z</time></trkpt><trkpt lat="45.753327750050026" lon="10.081984001327463"><ele>188.0</ele><time>2026-04-04T13:04:55.999Z</time></trkpt><trkpt lat="45.75328205947342" lon="10.082053497821068"><ele>188.0</ele><time>2026-04-04T13:04:56.999Z</time></trkpt><trkpt lat="45.75323727804429" lon="10.082123850874467"><ele>188.0</ele><time>2026-04-04T13:04:57.999Z</time></trkpt><trkpt lat="45.75319714306948" lon="10.082200918367434"><ele>188.0</ele><time>2026-04-04T13:04:58.999Z</time></trkpt><trkpt lat="45.75315375387482" lon="10.082278674852452"><ele>188.0</ele><time>2026-04-04T13:04:59.999Z</time></trkpt><trkpt lat="45.75311423431445" lon="10.08235164230993"><ele>188.0</ele><time>2026-04-04T13:05:00.999Z</time></trkpt><trkpt lat="45.75306941547913" lon="10.082426589653913"><ele>188.0</ele><time>2026-04-04T13:05:01.999Z</time></trkpt><trkpt lat="45.75302575235061" lon="10.082502321097328"><ele>188.0</ele><time>2026-04-04T13:05:02.999Z</time></trkpt><trkpt lat="45.75297853583544" lon="10.08257452609691"><ele>188.0</ele><time>2026-04-04T13:05:03.999Z</time></trkpt><trkpt lat="45.75293033728289" lon="10.082641459240294"><ele>187.28571428571428</ele><time>2026-04-04T13:05:04.999Z</time></trkpt><trkpt lat="45.75288128508496" lon="10.082712035284134"><ele>186.57142857142856</ele><time>2026-04-04T13:05:05.999Z</time></trkpt><trkpt lat="45.75283388823572" lon="10.082776603296285"><ele>185.85714285714286</ele><time>2026-04-04T13:05:06.999Z</time></trkpt><trkpt lat="45.7527859011061" lon="10.08284535829758"><ele>185.14285714285714</ele><time>2026-04-04T13:05:07.999Z</time></trkpt><trkpt lat="45.75273646409385" lon="10.082911492904385"><ele>184.42857142857144</ele><time>2026-04-04T13:05:08.999Z</time></trkpt><trkpt lat="45.75268463390294" lon="10.082976821955091"><ele>183.71428571428572</ele><time>2026-04-04T13:05:09.999Z</time></trkpt><trkpt lat="45.75263568766374" lon="10.083038889639473"><ele>183.0</ele><time>2026-04-04T13:05:10.999Z</time></trkpt><trkpt lat="45.75258715014891" lon="10.083101556897088"><ele>183.0</ele><time>2026-04-04T13:05:11.999Z</time></trkpt><trkpt lat="45.75253828220286" lon="10.083161793228985"><ele>183.0</ele><time>2026-04-04T13:05:12.999Z</time></trkpt><trkpt lat="45.752492789742675" lon="10.083224673543283"><ele>183.0</ele><time>2026-04-04T13:05:13.999Z</time></trkpt><trkpt lat="45.75240962255241" lon="10.083351438146195"><ele>183.0</ele><time>2026-04-04T13:05:15.999Z</time></trkpt><trkpt lat="45.75233630870664" lon="10.083485703087216"><ele>183.0</ele><time>2026-04-04T13:05:17.999Z</time></trkpt><trkpt lat="45.75226798747806" lon="10.08363603907012"><ele>184.28571428571428</ele><time>2026-04-04T13:05:19.999Z</time></trkpt><trkpt lat="45.752233305451554" lon="10.083711637296215"><ele>185.57142857142858</ele><time>2026-04-04T13:05:20.999Z</time></trkpt><trkpt lat="45.752199635348724" lon="10.083789183966381"><ele>186.85714285714283</ele><time>2026-04-04T13:05:21.999Z</time></trkpt><trkpt lat="45.75216153508467" lon="10.083867782461716"><ele>188.14285714285714</ele><time>2026-04-04T13:05:22.999Z</time></trkpt><trkpt lat="45.75213306498813" lon="10.083948268652483"><ele>189.42857142857142</ele><time>2026-04-04T13:05:23.999Z</time></trkpt><trkpt lat="45.75209759388066" lon="10.08402855314613"><ele>190.7142857142857</ele><time>2026-04-04T13:05:24.999Z</time></trkpt><trkpt lat="45.75206560523005" lon="10.08411093966355"><ele>192.0</ele><time>2026-04-04T13:05:25.999Z</time></trkpt><trkpt lat="45.75202879595671" lon="10.084192406584139"><ele>191.14285714285714</ele><time>2026-04-04T13:05:26.999Z</time></trkpt><trkpt lat="45.751993355893525" lon="10.084272611020907"><ele>190.28571428571428</ele><time>2026-04-04T13:05:27.999Z</time></trkpt><trkpt lat="45.751953545612395" lon="10.08435449115792"><ele>189.42857142857144</ele><time>2026-04-04T13:05:28.999Z</time></trkpt><trkpt lat="45.7519121215364" lon="10.08443121559051"><ele>188.57142857142856</ele><time>2026-04-04T13:05:29.999Z</time></trkpt><trkpt lat="45.75186869013613" lon="10.084506442987276"><ele>187.71428571428572</ele><time>2026-04-04T13:05:30.999Z</time></trkpt><trkpt lat="45.75182053479879" lon="10.08457316637953"><ele>186.85714285714286</ele><time>2026-04-04T13:05:31.999Z</time></trkpt><trkpt lat="45.75176522192886" lon="10.084626490448242"><ele>186.0</ele><time>2026-04-04T13:05:32.999Z</time></trkpt><trkpt lat="45.751705490714016" lon="10.084671844096354"><ele>186.00000000000003</ele><time>2026-04-04T13:05:33.999Z</time></trkpt><trkpt lat="45.751644532709136" lon="10.084712038368936"><ele>186.0</ele><time>2026-04-04T13:05:34.999Z</time></trkpt><trkpt lat="45.75158172615354" lon="10.084754023994629"><ele>186.0</ele><time>2026-04-04T13:05:35.999Z</time></trkpt><trkpt lat="45.751520096278476" lon="10.084795010694283"><ele>186.0</ele><time>2026-04-04T13:05:36.999Z</time></trkpt><trkpt lat="45.751459689316306" lon="10.084838962302927"><ele>186.0</ele><time>2026-04-04T13:05:37.999Z</time></trkpt><trkpt lat="45.75140010728424" lon="10.08488499634827"><ele>186.00000000000003</ele><time>2026-04-04T13:05:38.999Z</time></trkpt><trkpt lat="45.75133954387941" lon="10.084928957318287"><ele>186.0</ele><time>2026-04-04T13:05:39.999Z</time></trkpt><trkpt lat="45.751279527602335" lon="10.084973129322705"><ele>186.00000000000003</ele><time>2026-04-04T13:05:40.999Z</time></trkpt><trkpt lat="45.75122062559215" lon="10.085023625240957"><ele>186.0</ele><time>2026-04-04T13:05:41.999Z</time></trkpt><trkpt lat="45.751161311517386" lon="10.085072996335743"><ele>186.0</ele><time>2026-04-04T13:05:42.999Z</time></trkpt><trkpt lat="45.75110928874778" lon="10.085130257528576"><ele>186.0</ele><time>2026-04-04T13:05:43.999Z</time></trkpt><trkpt lat="45.75105471657401" lon="10.085190186130928"><ele>186.0</ele><time>2026-04-04T13:05:44.999Z</time></trkpt><trkpt lat="45.7509988471076" lon="10.085249645114574"><ele>186.00000000000003</ele><time>2026-04-04T13:05:45.999Z</time></trkpt><trkpt lat="45.750941838016004" lon="10.085302805467645"><ele>186.0</ele><time>2026-04-04T13:05:46.999Z</time></trkpt><trkpt lat="45.750886729606144" lon="10.085361296770245"><ele>186.00000000000003</ele><time>2026-04-04T13:05:47.999Z</time></trkpt><trkpt lat="45.75083064406084" lon="10.085419088490092"><ele>186.0</ele><time>2026-04-04T13:05:48.999Z</time></trkpt><trkpt lat="45.750776046949845" lon="10.08547703961317"><ele>186.0</ele><time>2026-04-04T13:05:49.998Z</time></trkpt><trkpt lat="45.75072164370202" lon="10.085533195620245"><ele>186.0</ele><time>2026-04-04T13:05:50.998Z</time></trkpt><trkpt lat="45.75066595103236" lon="10.085582414745216"><ele>186.0</ele><time>2026-04-04T13:05:51.998Z</time></trkpt><trkpt lat="45.750615007245976" lon="10.085643625841668"><ele>186.00000000000003</ele><time>2026-04-04T13:05:52.998Z</time></trkpt><trkpt lat="45.7505608334724" lon="10.08569267584259"><ele>186.0</ele><time>2026-04-04T13:05:53.998Z</time></trkpt><trkpt lat="45.75050649458916" lon="10.085747957691858"><ele>185.71428571428572</ele><time>2026-04-04T13:05:54.998Z</time></trkpt><trkpt lat="45.75045335354546" lon="10.085804755017623"><ele>185.42857142857144</ele><time>2026-04-04T13:05:55.998Z</time></trkpt><trkpt lat="45.750399869172696" lon="10.085859772853404"><ele>185.14285714285717</ele><time>2026-04-04T13:05:56.998Z</time></trkpt><trkpt lat="45.75034616572487" lon="10.085916539256013"><ele>184.85714285714286</ele><time>2026-04-04T13:05:57.998Z</time></trkpt><trkpt lat="45.75028738453609" lon="10.08596538959765"><ele>184.57142857142856</ele><time>2026-04-04T13:05:58.998Z</time></trkpt><trkpt lat="45.750232789143595" lon="10.086019987937068"><ele>184.2857142857143</ele><time>2026-04-04T13:05:59.998Z</time></trkpt><trkpt lat="45.75017860522025" lon="10.086073560334336"><ele>184.0</ele><time>2026-04-04T13:06:00.998Z</time></trkpt><trkpt lat="45.7501248079057" lon="10.086124216850962"><ele>184.0</ele><time>2026-04-04T13:06:01.998Z</time></trkpt><trkpt lat="45.75003697524956" lon="10.086224573553416"><ele>184.0</ele><time>2026-04-04T13:06:03.998Z</time></trkpt><trkpt lat="45.749955743540504" lon="10.086305454916035"><ele>184.0</ele><time>2026-04-04T13:06:06Z</time></trkpt><trkpt lat="45.74988356536456" lon="10.086385020759435"><ele>184.0</ele><time>2026-04-04T13:06:08Z</time></trkpt><trkpt lat="45.74982097222133" lon="10.086481845808226"><ele>184.0</ele><time>2026-04-04T13:06:10Z</time></trkpt><trkpt lat="45.749813742358796" lon="10.08661878489278"><ele>186.0</ele><time>2026-04-04T13:06:12Z</time></trkpt><trkpt lat="45.74973486643356" lon="10.08664659802775"><ele>188.0</ele><time>2026-04-04T13:06:13Z</time></trkpt><trkpt lat="45.74964090623617" lon="10.086746128030564"><ele>190.0</ele><time>2026-04-04T13:06:15Z</time></trkpt><trkpt lat="45.74958890072232" lon="10.086804258128282"><ele>192.0</ele><time>2026-04-04T13:06:16Z</time></trkpt><trkpt lat="45.74953569160719" lon="10.086861495082367"><ele>193.99999999999997</ele><time>2026-04-04T13:06:17Z</time></trkpt><trkpt lat="45.7494768140243" lon="10.086916007811718"><ele>196.0</ele><time>2026-04-04T13:06:18Z</time></trkpt><trkpt lat="45.74941571800084" lon="10.086971011354388"><ele>194.14285714285714</ele><time>2026-04-04T13:06:19Z</time></trkpt><trkpt lat="45.749358657421936" lon="10.087029326051185"><ele>192.28571428571428</ele><time>2026-04-04T13:06:20Z</time></trkpt><trkpt lat="45.749301823188055" lon="10.087085021578975"><ele>190.42857142857144</ele><time>2026-04-04T13:06:21Z</time></trkpt><trkpt lat="45.74923678718527" lon="10.087138592099597"><ele>188.57142857142856</ele><time>2026-04-04T13:06:22Z</time></trkpt><trkpt lat="45.74917604295006" lon="10.08720013441728"><ele>186.71428571428572</ele><time>2026-04-04T13:06:23Z</time></trkpt><trkpt lat="45.74911269035488" lon="10.087258435140212"><ele>184.85714285714286</ele><time>2026-04-04T13:06:24Z</time></trkpt><trkpt lat="45.749048992610184" lon="10.087318547290444"><ele>183.0</ele><time>2026-04-04T13:06:25Z</time></trkpt><trkpt lat="45.74898617062152" lon="10.087377359005846"><ele>184.14285714285714</ele><time>2026-04-04T13:06:26Z</time></trkpt><trkpt lat="45.74892839958401" lon="10.087440099891582"><ele>185.28571428571428</ele><time>2026-04-04T13:06:27Z</time></trkpt><trkpt lat="45.748862625705826" lon="10.087490378881217"><ele>186.42857142857144</ele><time>2026-04-04T13:06:28Z</time></trkpt><trkpt lat="45.74880037676054" lon="10.087551454833816"><ele>187.57142857142856</ele><time>2026-04-04T13:06:29Z</time></trkpt><trkpt lat="45.74873429396216" lon="10.087607548570125"><ele>188.7142857142857</ele><time>2026-04-04T13:06:30Z</time></trkpt><trkpt lat="45.74867132698934" lon="10.087665574172453"><ele>189.85714285714286</ele><time>2026-04-04T13:06:31Z</time></trkpt><trkpt lat="45.74860838316212" lon="10.087724543483354"><ele>191.0</ele><time>2026-04-04T13:06:32Z</time></trkpt><trkpt lat="45.748543248722406" lon="10.087779033026617"><ele>189.83333333333331</ele><time>2026-04-04T13:06:33Z</time></trkpt><trkpt lat="45.748478356212445" lon="10.087836254526811"><ele>188.66666666666666</ele><time>2026-04-04T13:06:34Z</time></trkpt><trkpt lat="45.748418470492474" lon="10.087894281545653"><ele>187.5</ele><time>2026-04-04T13:06:35Z</time></trkpt><trkpt lat="45.74835515009956" lon="10.087954154826033"><ele>186.33333333333334</ele><time>2026-04-04T13:06:36Z</time></trkpt><trkpt lat="45.748290419945604" lon="10.088011171310498"><ele>185.16666666666669</ele><time>2026-04-04T13:06:37Z</time></trkpt><trkpt lat="45.74822388833211" lon="10.088067518914425"><ele>184.0</ele><time>2026-04-04T13:06:38Z</time></trkpt><trkpt lat="45.7481545696794" lon="10.088125483895258"><ele>184.0</ele><time>2026-04-04T13:06:39Z</time></trkpt><trkpt lat="45.748085296460964" lon="10.088178192093228"><ele>184.0</ele><time>2026-04-04T13:06:40Z</time></trkpt><trkpt lat="45.74801347578679" lon="10.08822582872393"><ele>184.0</ele><time>2026-04-04T13:06:41Z</time></trkpt><trkpt lat="45.747938611567314" lon="10.088264802852716"><ele>184.0</ele><time>2026-04-04T13:06:42Z</time></trkpt><trkpt lat="45.74786784094393" lon="10.088308819226297"><ele>184.0</ele><time>2026-04-04T13:06:43Z</time></trkpt><trkpt lat="45.747796336508316" lon="10.088348297278118"><ele>184.0</ele><time>2026-04-04T13:06:44Z</time></trkpt><trkpt lat="45.74772258690532" lon="10.08837667055639"><ele>185.0</ele><time>2026-04-04T13:06:45Z</time></trkpt><trkpt lat="45.747649812008824" lon="10.08841238425687"><ele>186.0</ele><time>2026-04-04T13:06:46Z</time></trkpt><trkpt lat="45.74757416700065" lon="10.088446737874051"><ele>187.0</ele><time>2026-04-04T13:06:47Z</time></trkpt><trkpt lat="45.74750070271935" lon="10.088478694691725"><ele>188.0</ele><time>2026-04-04T13:06:48Z</time></trkpt><trkpt lat="45.74742426893367" lon="10.088505567056982"><ele>189.0</ele><time>2026-04-04T13:06:49Z</time></trkpt><trkpt lat="45.7473499231836" lon="10.08853485197706"><ele>190.0</ele><time>2026-04-04T13:06:50Z</time></trkpt><trkpt lat="45.74727881046228" lon="10.088567038098057"><ele>190.0</ele><time>2026-04-04T13:06:51Z</time></trkpt><trkpt lat="45.74720362899938" lon="10.088597459451474"><ele>190.0</ele><time>2026-04-04T13:06:52Z</time></trkpt><trkpt lat="45.74713155474764" lon="10.08863143445956"><ele>190.0</ele><time>2026-04-04T13:06:53Z</time></trkpt><trkpt lat="45.74705778404329" lon="10.08866058535505"><ele>190.0</ele><time>2026-04-04T13:06:54Z</time></trkpt><trkpt lat="45.746987729911" lon="10.088694563555983"><ele>190.0</ele><time>2026-04-04T13:06:55Z</time></trkpt><trkpt lat="45.746914226747066" lon="10.088725576544062"><ele>190.0</ele><time>2026-04-04T13:06:56Z</time></trkpt><trkpt lat="45.74684440666209" lon="10.088762376045334"><ele>189.0</ele><time>2026-04-04T13:06:57Z</time></trkpt><trkpt lat="45.746772953083784" lon="10.08879426804231"><ele>188.0</ele><time>2026-04-04T13:06:58Z</time></trkpt><trkpt lat="45.746703988909324" lon="10.088824621495386"><ele>187.0</ele><time>2026-04-04T13:06:59Z</time></trkpt><trkpt lat="45.74663204431741" lon="10.088852017542642"><ele>186.0</ele><time>2026-04-04T13:06:59.999Z</time></trkpt><trkpt lat="45.74656247914502" lon="10.088888072528885"><ele>185.0</ele><time>2026-04-04T13:07:00.999Z</time></trkpt><trkpt lat="45.74649299948449" lon="10.088915813844679"><ele>184.0</ele><time>2026-04-04T13:07:01.999Z</time></trkpt><trkpt lat="45.74642462329887" lon="10.088951635626437"><ele>183.0</ele><time>2026-04-04T13:07:02.999Z</time></trkpt><trkpt lat="45.746356766842915" lon="10.088993151488452"><ele>183.0</ele><time>2026-04-04T13:07:03.999Z</time></trkpt><trkpt lat="45.74628835313087" lon="10.089030709057594"><ele>183.0</ele><time>2026-04-04T13:07:04.999Z</time></trkpt><trkpt lat="45.74621759291699" lon="10.089068859821062"><ele>183.0</ele><time>2026-04-04T13:07:05.999Z</time></trkpt><trkpt lat="45.746149125261056" lon="10.089104526432052"><ele>183.0</ele><time>2026-04-04T13:07:06.999Z</time></trkpt><trkpt lat="45.74607390917579" lon="10.089136209971645"><ele>183.0</ele><time>2026-04-04T13:07:07.999Z</time></trkpt><trkpt lat="45.74600984312709" lon="10.08917623763403"><ele>183.0</ele><time>2026-04-04T13:07:08.999Z</time></trkpt><trkpt lat="45.74593980642929" lon="10.089213964574824"><ele>183.0</ele><time>2026-04-04T13:07:09.999Z</time></trkpt><trkpt lat="45.74587614686393" lon="10.089251330875602"><ele>183.71428571428572</ele><time>2026-04-04T13:07:10.999Z</time></trkpt><trkpt lat="45.745807703235535" lon="10.089287969677654"><ele>184.42857142857144</ele><time>2026-04-04T13:07:11.999Z</time></trkpt><trkpt lat="45.74574560598" lon="10.089322647045133"><ele>185.14285714285714</ele><time>2026-04-04T13:07:12.999Z</time></trkpt><trkpt lat="45.745681526155956" lon="10.089360258065042"><ele>185.85714285714286</ele><time>2026-04-04T13:07:13.999Z</time></trkpt><trkpt lat="45.74561412159861" lon="10.089395111987686"><ele>186.57142857142856</ele><time>2026-04-04T13:07:14.999Z</time></trkpt><trkpt lat="45.74555159583446" lon="10.089431647322257"><ele>187.28571428571428</ele><time>2026-04-04T13:07:15.999Z</time></trkpt><trkpt lat="45.745493368717945" lon="10.089467147809819"><ele>188.0</ele><time>2026-04-04T13:07:16.999Z</time></trkpt><trkpt lat="45.74537626208034" lon="10.089537174131884"><ele>188.0</ele><time>2026-04-04T13:07:18.999Z</time></trkpt><trkpt lat="45.74525479150529" lon="10.08959480072372"><ele>188.0</ele><time>2026-04-04T13:07:20.999Z</time></trkpt><trkpt lat="45.745194019452036" lon="10.089629585653935"><ele>188.0</ele><time>2026-04-04T13:07:21.999Z</time></trkpt><trkpt lat="45.74512608174942" lon="10.08965157991407"><ele>188.0</ele><time>2026-04-04T13:07:22.999Z</time></trkpt><trkpt lat="45.745067561187746" lon="10.089689806774288"><ele>188.0</ele><time>2026-04-04T13:07:23.999Z</time></trkpt><trkpt lat="45.74500448116292" lon="10.089718705646717"><ele>188.0</ele><time>2026-04-04T13:07:24.999Z</time></trkpt><trkpt lat="45.74493660367246" lon="10.089744353804045"><ele>187.33333333333331</ele><time>2026-04-04T13:07:25.999Z</time></trkpt><trkpt lat="45.7448756113912" lon="10.089769395587364"><ele>186.66666666666666</ele><time>2026-04-04T13:07:26.999Z</time></trkpt><trkpt lat="45.74475580402144" lon="10.089816301171675"><ele>186.0</ele><time>2026-04-04T13:07:28.999Z</time></trkpt><trkpt lat="45.744634048803825" lon="10.08985922974192"><ele>185.33333333333334</ele><time>2026-04-04T13:07:30.999Z</time></trkpt><trkpt lat="45.74457136237698" lon="10.08988622002114"><ele>184.66666666666669</ele><time>2026-04-04T13:07:31.999Z</time></trkpt><trkpt lat="45.74450639013249" lon="10.089910862293307"><ele>184.0</ele><time>2026-04-04T13:07:32.999Z</time></trkpt><trkpt lat="45.74444508617389" lon="10.089938639216115"><ele>187.42857142857144</ele><time>2026-04-04T13:07:33.999Z</time></trkpt><trkpt lat="45.74437936136204" lon="10.089956288231814"><ele>190.85714285714283</ele><time>2026-04-04T13:07:34.999Z</time></trkpt><trkpt lat="45.744317317233346" lon="10.089987781480342"><ele>194.28571428571428</ele><time>2026-04-04T13:07:35.999Z</time></trkpt><trkpt lat="45.744252302332434" lon="10.090019779772996"><ele>197.71428571428572</ele><time>2026-04-04T13:07:36.999Z</time></trkpt><trkpt lat="45.74418910994562" lon="10.090059228121701"><ele>201.14285714285717</ele><time>2026-04-04T13:07:37.999Z</time></trkpt><trkpt lat="45.7441254735468" lon="10.090100043024002"><ele>204.57142857142856</ele><time>2026-04-04T13:07:38.999Z</time></trkpt><trkpt lat="45.74406309459462" lon="10.090138767413094"><ele>208.0</ele><time>2026-04-04T13:07:39.999Z</time></trkpt><trkpt lat="45.74399313504817" lon="10.090174608332767"><ele>208.0</ele><time>2026-04-04T13:07:40.999Z</time></trkpt><trkpt lat="45.74392557150025" lon="10.090204364075895"><ele>208.0</ele><time>2026-04-04T13:07:41.999Z</time></trkpt><trkpt lat="45.743848280292596" lon="10.090214944842549"><ele>208.0</ele><time>2026-04-04T13:07:42.999Z</time></trkpt><trkpt lat="45.74378025949926" lon="10.090247703010554"><ele>208.0</ele><time>2026-04-04T13:07:43.999Z</time></trkpt><trkpt lat="45.74370486472913" lon="10.090271318355587"><ele>208.0</ele><time>2026-04-04T13:07:44.999Z</time></trkpt><trkpt lat="45.74365030030187" lon="10.090332013721305"><ele>208.0</ele><time>2026-04-04T13:07:45.999Z</time></trkpt><trkpt lat="45.74357947721709" lon="10.090361581687036"><ele>208.0</ele><time>2026-04-04T13:07:46.999Z</time></trkpt><trkpt lat="45.74350571131613" lon="10.090398501447671"><ele>208.2</ele><time>2026-04-04T13:07:47.999Z</time></trkpt><trkpt lat="45.743433960416844" lon="10.09043339769556"><ele>208.4</ele><time>2026-04-04T13:07:48.999Z</time></trkpt><trkpt lat="45.74331009322848" lon="10.090485043426197"><ele>208.6</ele><time>2026-04-04T13:07:50.999Z</time></trkpt><trkpt lat="45.74320092853701" lon="10.090528404673616"><ele>208.79999999999998</ele><time>2026-04-04T13:07:52.999Z</time></trkpt><trkpt lat="45.74312500468852" lon="10.090559925529185"><ele>209.0</ele><time>2026-04-04T13:07:53.998Z</time></trkpt><trkpt lat="45.74305164578047" lon="10.090581973306335"><ele>209.0</ele><time>2026-04-04T13:07:54.998Z</time></trkpt><trkpt lat="45.7429720742553" lon="10.090593296591024"><ele>209.0</ele><time>2026-04-04T13:07:55.998Z</time></trkpt><trkpt lat="45.74290040275431" lon="10.090626360703475"><ele>209.0</ele><time>2026-04-04T13:07:56.998Z</time></trkpt><trkpt lat="45.74282669114159" lon="10.090635560190549"><ele>209.0</ele><time>2026-04-04T13:07:57.998Z</time></trkpt><trkpt lat="45.742756642783114" lon="10.090661703949175"><ele>209.0</ele><time>2026-04-04T13:07:58.998Z</time></trkpt><trkpt lat="45.742688417377316" lon="10.090687060568149"><ele>209.0</ele><time>2026-04-04T13:07:59.998Z</time></trkpt><trkpt lat="45.74261988963889" lon="10.090724924536232"><ele>209.0</ele><time>2026-04-04T13:08:00.998Z</time></trkpt><trkpt lat="45.742557933183775" lon="10.090772125323495"><ele>210.33333333333334</ele><time>2026-04-04T13:08:01.998Z</time></trkpt><trkpt lat="45.74249140657208" lon="10.090820152826355"><ele>211.66666666666669</ele><time>2026-04-04T13:08:02.998Z</time></trkpt><trkpt lat="45.742428545207254" lon="10.09086849599869"><ele>213.0</ele><time>2026-04-04T13:08:03.998Z</time></trkpt><trkpt lat="45.74237112234484" lon="10.0909071530253"><ele>214.33333333333331</ele><time>2026-04-04T13:08:04.998Z</time></trkpt><trkpt lat="45.7423102242852" lon="10.0909599764024"><ele>215.66666666666666</ele><time>2026-04-04T13:08:05.998Z</time></trkpt><trkpt lat="45.742252408175474" lon="10.091010440017774"><ele>217.0</ele><time>2026-04-04T13:08:06.998Z</time></trkpt><trkpt lat="45.742141911947954" lon="10.091108271474326"><ele>217.0</ele><time>2026-04-04T13:08:09.063Z</time></trkpt><trkpt lat="45.74203294707619" lon="10.091211011032755"><ele>217.0</ele><time>2026-04-04T13:08:11.056Z</time></trkpt><trkpt lat="45.74196106794085" lon="10.091279651216015"><ele>217.0</ele><time>2026-04-04T13:08:13.048Z</time></trkpt><trkpt lat="45.741585261337875" lon="10.091737297072797"><ele>215.0</ele><time>2026-04-04T13:08:18.998Z</time></trkpt><trkpt lat="45.74153341883471" lon="10.09179129870169"><ele>213.0</ele><time>2026-04-04T13:08:19.998Z</time></trkpt><trkpt lat="45.74147642694768" lon="10.091863141039513"><ele>211.0</ele><time>2026-04-04T13:08:20.998Z</time></trkpt><trkpt lat="45.74138728429158" lon="10.09189527532188"><ele>209.0</ele><time>2026-04-04T13:08:22Z</time></trkpt><trkpt lat="45.74130738885452" lon="10.091871954587834"><ele>207.0</ele><time>2026-04-04T13:08:23Z</time></trkpt><trkpt lat="45.74124330263548" lon="10.091871316350122"><ele>205.0</ele><time>2026-04-04T13:08:24Z</time></trkpt><trkpt lat="45.74117416211696" lon="10.091884586845426"><ele>203.0</ele><time>2026-04-04T13:08:25Z</time></trkpt><trkpt lat="45.74110566486072" lon="10.091870362561743"><ele>201.00000000000003</ele><time>2026-04-04T13:08:26Z</time></trkpt><trkpt lat="45.74104182179192" lon="10.091859074773089"><ele>199.0</ele><time>2026-04-04T13:08:27Z</time></trkpt><trkpt lat="45.74097882914909" lon="10.091848019970422"><ele>197.0</ele><time>2026-04-04T13:08:28Z</time></trkpt><trkpt lat="45.7408601204355" lon="10.09183536107649"><ele>195.0</ele><time>2026-04-04T13:08:30Z</time></trkpt><trkpt lat="45.74079318102969" lon="10.091824977589594"><ele>193.0</ele><time>2026-04-04T13:08:31Z</time></trkpt><trkpt lat="45.740690391581765" lon="10.09180528884712"><ele>191.0</ele><time>2026-04-04T13:08:33Z</time></trkpt><trkpt lat="45.74058169337768" lon="10.091791604657054"><ele>191.0</ele><time>2026-04-04T13:08:35Z</time></trkpt><trkpt lat="45.7404858736134" lon="10.091782021191333"><ele>191.0</ele><time>2026-04-04T13:08:37Z</time></trkpt><trkpt lat="45.740395324032896" lon="10.09176967402909"><ele>191.0</ele><time>2026-04-04T13:08:39Z</time></trkpt><trkpt lat="45.740294558616526" lon="10.091758339760819"><ele>191.0</ele><time>2026-04-04T13:08:41Z</time></trkpt><trkpt lat="45.74019453728256" lon="10.091758489226548"><ele>191.0</ele><time>2026-04-04T13:08:43Z</time></trkpt><trkpt lat="45.74008907931075" lon="10.091747755370724"><ele>191.5</ele><time>2026-04-04T13:08:45Z</time></trkpt><trkpt lat="45.73998683592176" lon="10.091742722635683"><ele>192.0</ele><time>2026-04-04T13:08:47Z</time></trkpt><trkpt lat="45.73986859937985" lon="10.091751849118888"><ele>192.5</ele><time>2026-04-04T13:08:49Z</time></trkpt><trkpt lat="45.73975917366044" lon="10.09180330581775"><ele>193.0</ele><time>2026-04-04T13:08:51Z</time></trkpt><trkpt lat="45.73965234382717" lon="10.091873782337672"><ele>193.0</ele><time>2026-04-04T13:08:53Z</time></trkpt><trkpt lat="45.739539780243184" lon="10.091944523766271"><ele>193.0</ele><time>2026-04-04T13:08:55Z</time></trkpt><trkpt lat="45.73942943141948" lon="10.09203279415092"><ele>193.0</ele><time>2026-04-04T13:08:57Z</time></trkpt><trkpt lat="45.73937273941238" lon="10.092076064363038"><ele>193.0</ele><time>2026-04-04T13:08:58Z</time></trkpt><trkpt lat="45.73931031399606" lon="10.092109139843965"><ele>193.0</ele><time>2026-04-04T13:08:59Z</time></trkpt><trkpt lat="45.739188228219376" lon="10.092172615793158"><ele>192.99999999999997</ele><time>2026-04-04T13:09:01Z</time></trkpt><trkpt lat="45.739125801783466" lon="10.092200585478652"><ele>193.0</ele><time>2026-04-04T13:09:02Z</time></trkpt><trkpt lat="45.73906521339849" lon="10.09222625318826"><ele>193.0</ele><time>2026-04-04T13:09:03Z</time></trkpt><trkpt lat="45.73899703835786" lon="10.09224637088722"><ele>193.0</ele><time>2026-04-04T13:09:04Z</time></trkpt><trkpt lat="45.73893281383643" lon="10.092255349908532"><ele>192.99999999999997</ele><time>2026-04-04T13:09:05Z</time></trkpt><trkpt lat="45.73881584710957" lon="10.092277773637313"><ele>193.0</ele><time>2026-04-04T13:09:07Z</time></trkpt><trkpt lat="45.73870426734092" lon="10.09228278636569"><ele>193.0</ele><time>2026-04-04T13:09:09Z</time></trkpt><trkpt lat="45.738594558507835" lon="10.092270221554145"><ele>193.0</ele><time>2026-04-04T13:09:11Z</time></trkpt><trkpt lat="45.73849629387234" lon="10.092262587659741"><ele>193.0</ele><time>2026-04-04T13:09:13Z</time></trkpt><trkpt lat="45.738397733419845" lon="10.092243964327372"><ele>193.0</ele><time>2026-04-04T13:09:14.999Z</time></trkpt><trkpt lat="45.738308967703894" lon="10.092231456918103"><ele>193.0</ele><time>2026-04-04T13:09:16.999Z</time></trkpt><trkpt lat="45.73821710981494" lon="10.092222043044046"><ele>192.66666666666666</ele><time>2026-04-04T13:09:18.999Z</time></trkpt><trkpt lat="45.73812903346378" lon="10.092215496166677"><ele>192.33333333333331</ele><time>2026-04-04T13:09:20.999Z</time></trkpt><trkpt lat="45.73805634828064" lon="10.092209861161487"><ele>192.0</ele><time>2026-04-04T13:09:22.999Z</time></trkpt><trkpt lat="45.7379830660993" lon="10.092232362044237"><ele>191.66666666666666</ele><time>2026-04-04T13:09:28.999Z</time></trkpt><trkpt lat="45.73798678775578" lon="10.092343955634965"><ele>191.33333333333331</ele><time>2026-04-04T13:09:30.999Z</time></trkpt><trkpt lat="45.737989875402846" lon="10.092477055510408"><ele>191.0</ele><time>2026-04-04T13:09:33.999Z</time></trkpt><trkpt lat="45.737984368089755" lon="10.092570836047699"><ele>191.71428571428572</ele><time>2026-04-04T13:09:35.999Z</time></trkpt><trkpt lat="45.73797530690707" lon="10.092663156828449"><ele>192.42857142857142</ele><time>2026-04-04T13:09:37.999Z</time></trkpt><trkpt lat="45.73796427049701" lon="10.092763366951356"><ele>193.14285714285714</ele><time>2026-04-04T13:09:39.999Z</time></trkpt><trkpt lat="45.737950316589476" lon="10.09286269284078"><ele>193.85714285714286</ele><time>2026-04-04T13:09:41.999Z</time></trkpt><trkpt lat="45.73794060036928" lon="10.092960875417935"><ele>194.57142857142856</ele><time>2026-04-04T13:09:43.999Z</time></trkpt><trkpt lat="45.73793830618613" lon="10.09305881141202"><ele>195.28571428571428</ele><time>2026-04-04T13:09:45.999Z</time></trkpt><trkpt lat="45.73793688046479" lon="10.093185461646415"><ele>196.0</ele><time>2026-04-04T13:09:48.999Z</time></trkpt><trkpt lat="45.737946383308994" lon="10.093277269045876"><ele>196.33333333333331</ele><time>2026-04-04T13:09:50.999Z</time></trkpt><trkpt lat="45.73793725491936" lon="10.09339678161971"><ele>196.66666666666666</ele><time>2026-04-04T13:09:53.999Z</time></trkpt><trkpt lat="45.73791686135961" lon="10.093482755012396"><ele>197.0</ele><time>2026-04-04T13:09:55.999Z</time></trkpt><trkpt lat="45.73786780292355" lon="10.093591998135059"><ele>197.33333333333331</ele><time>2026-04-04T13:09:58.999Z</time></trkpt><trkpt lat="45.737799762093424" lon="10.09366829548398"><ele>197.66666666666666</ele><time>2026-04-04T13:10:00.999Z</time></trkpt><trkpt lat="45.73773148751289" lon="10.093742196151327"><ele>198.0</ele><time>2026-04-04T13:10:03.999Z</time></trkpt><trkpt lat="45.737665164091915" lon="10.093809703740675"><ele>198.33333333333334</ele><time>2026-04-04T13:10:06.999Z</time></trkpt><trkpt lat="45.73760331888205" lon="10.093878689014602"><ele>198.66666666666669</ele><time>2026-04-04T13:10:09.998Z</time></trkpt><trkpt lat="45.73753821681588" lon="10.093949691420153"><ele>199.0</ele><time>2026-04-04T13:10:12.998Z</time></trkpt><trkpt lat="45.73747802685554" lon="10.094000907514994"><ele>199.33333333333334</ele><time>2026-04-04T13:10:15.998Z</time></trkpt><trkpt lat="45.73741888042628" lon="10.0940642273082"><ele>199.66666666666669</ele><time>2026-04-04T13:10:18.998Z</time></trkpt><trkpt lat="45.73734671800912" lon="10.094129577443256"><ele>200.0</ele><time>2026-04-04T13:10:22.998Z</time></trkpt><trkpt lat="45.73727043948866" lon="10.094181965559711"><ele>200.42857142857144</ele><time>2026-04-04T13:10:25.998Z</time></trkpt><trkpt lat="45.73720513013778" lon="10.094211029645185"><ele>200.85714285714286</ele><time>2026-04-04T13:10:29Z</time></trkpt><trkpt lat="45.7371285110214" lon="10.094235851085829"><ele>201.28571428571428</ele><time>2026-04-04T13:10:32Z</time></trkpt><trkpt lat="45.737044074701096" lon="10.094265232256005"><ele>201.71428571428572</ele><time>2026-04-04T13:10:36Z</time></trkpt><trkpt lat="45.73698166698982" lon="10.094279426823123"><ele>202.14285714285714</ele><time>2026-04-04T13:10:39Z</time></trkpt><trkpt lat="45.73691262635532" lon="10.094295950947766"><ele>202.57142857142858</ele><time>2026-04-04T13:10:42Z</time></trkpt><trkpt lat="45.736848185402216" lon="10.09431164514061"><ele>203.0</ele><time>2026-04-04T13:10:44Z</time></trkpt><trkpt lat="45.73678399223003" lon="10.09433260094624"><ele>203.50000000000003</ele><time>2026-04-04T13:10:47Z</time></trkpt><trkpt lat="45.73671281341852" lon="10.094354021080555"><ele>204.0</ele><time>2026-04-04T13:10:50Z</time></trkpt><trkpt lat="45.73665435391266" lon="10.09438954364667"><ele>204.5</ele><time>2026-04-04T13:10:52Z</time></trkpt><trkpt lat="45.73658647046575" lon="10.094445690356727"><ele>205.0</ele><time>2026-04-04T13:10:55Z</time></trkpt><trkpt lat="45.736515873335826" lon="10.094521830022629"><ele>205.50000000000003</ele><time>2026-04-04T13:10:58Z</time></trkpt><trkpt lat="45.73646822973853" lon="10.094608976693873"><ele>206.0</ele><time>2026-04-04T13:11:01Z</time></trkpt><trkpt lat="45.73643133687335" lon="10.094706838278764"><ele>205.99999999999997</ele><time>2026-04-04T13:11:04Z</time></trkpt><trkpt lat="45.736404252595996" lon="10.09479859098414"><ele>206.0</ele><time>2026-04-04T13:11:06Z</time></trkpt><trkpt lat="45.73637772742736" lon="10.094902913428406"><ele>206.0</ele><time>2026-04-04T13:11:09Z</time></trkpt><trkpt lat="45.736358489637915" lon="10.09499792968235"><ele>206.0</ele><time>2026-04-04T13:11:12Z</time></trkpt><trkpt lat="45.73633990049636" lon="10.095088416532567"><ele>206.0</ele><time>2026-04-04T13:11:14Z</time></trkpt><trkpt lat="45.736325703197274" lon="10.095182561105922"><ele>205.99999999999997</ele><time>2026-04-04T13:11:16.999Z</time></trkpt><trkpt lat="45.73631723324645" lon="10.095275865158223"><ele>206.0</ele><time>2026-04-04T13:11:18.999Z</time></trkpt><trkpt lat="45.736311530933" lon="10.095381812310443"><ele>207.16666666666669</ele><time>2026-04-04T13:11:21.999Z</time></trkpt><trkpt lat="45.736297591099614" lon="10.095477593637666"><ele>208.33333333333334</ele><time>2026-04-04T13:11:24.999Z</time></trkpt><trkpt lat="45.73628597772994" lon="10.095583300181891"><ele>209.5</ele><time>2026-04-04T13:11:27.999Z</time></trkpt><trkpt lat="45.736277224328006" lon="10.095686311373822"><ele>210.66666666666669</ele><time>2026-04-04T13:11:30.999Z</time></trkpt><trkpt lat="45.736270799361364" lon="10.095799599402037"><ele>211.83333333333334</ele><time>2026-04-04T13:11:33.999Z</time></trkpt><trkpt lat="45.73626626512561" lon="10.095907762917523"><ele>213.0</ele><time>2026-04-04T13:11:36.999Z</time></trkpt><trkpt lat="45.73626008184762" lon="10.096022203463946"><ele>213.42857142857142</ele><time>2026-04-04T13:11:39.999Z</time></trkpt><trkpt lat="45.736251401018464" lon="10.096144994424352"><ele>213.85714285714286</ele><time>2026-04-04T13:11:42.999Z</time></trkpt><trkpt lat="45.73624005920447" lon="10.096246332982695"><ele>214.28571428571428</ele><time>2026-04-04T13:11:45.999Z</time></trkpt><trkpt lat="45.7362280713846" lon="10.096338590190419"><ele>214.71428571428572</ele><time>2026-04-04T13:11:48.999Z</time></trkpt><trkpt lat="45.736217371534615" lon="10.09644137042221"><ele>215.14285714285714</ele><time>2026-04-04T13:11:51.999Z</time></trkpt><trkpt lat="45.73620272888598" lon="10.096538462475703"><ele>215.57142857142856</ele><time>2026-04-04T13:11:54.999Z</time></trkpt><trkpt lat="45.736182230134666" lon="10.096641721513173"><ele>216.0</ele><time>2026-04-04T13:11:57.999Z</time></trkpt><trkpt lat="45.73615816117069" lon="10.096766785632566"><ele>217.16666666666666</ele><time>2026-04-04T13:12:00.999Z</time></trkpt><trkpt lat="45.736139322619444" lon="10.096886230936011"><ele>218.33333333333331</ele><time>2026-04-04T13:12:03.999Z</time></trkpt><trkpt lat="45.736114685699874" lon="10.096993419950184"><ele>219.5</ele><time>2026-04-04T13:12:06.999Z</time></trkpt><trkpt lat="45.736094555232995" lon="10.097102027078376"><ele>220.66666666666666</ele><time>2026-04-04T13:12:09.998Z</time></trkpt><trkpt lat="45.73608680510505" lon="10.097217069646016"><ele>221.83333333333331</ele><time>2026-04-04T13:12:12.998Z</time></trkpt><trkpt lat="45.736089473212914" lon="10.097328473297175"><ele>223.0</ele><time>2026-04-04T13:12:15.998Z</time></trkpt><trkpt lat="45.73610082640193" lon="10.09743795012323"><ele>224.66666666666666</ele><time>2026-04-04T13:12:18.998Z</time></trkpt><trkpt lat="45.736119369822546" lon="10.097543806681776"><ele>226.33333333333331</ele><time>2026-04-04T13:12:21.998Z</time></trkpt><trkpt lat="45.73615364566332" lon="10.097651363334608"><ele>228.0</ele><time>2026-04-04T13:12:24.998Z</time></trkpt><trkpt lat="45.73619683053935" lon="10.097745511084634"><ele>229.66666666666669</ele><time>2026-04-04T13:12:27.998Z</time></trkpt><trkpt lat="45.73627787775944" lon="10.09776707526743"><ele>231.33333333333334</ele><time>2026-04-04T13:12:30.998Z</time></trkpt><trkpt lat="45.736344704290346" lon="10.097733544463829"><ele>233.0</ele><time>2026-04-04T13:12:34Z</time></trkpt><trkpt lat="45.73640589322077" lon="10.097698982653222"><ele>233.00000000000003</ele><time>2026-04-04T13:12:38Z</time></trkpt><trkpt lat="45.73646391234708" lon="10.097620686485977"><ele>233.0</ele><time>2026-04-04T13:12:54Z</time></trkpt><trkpt lat="45.73652109284579" lon="10.097558588191196"><ele>233.0</ele><time>2026-04-04T13:12:57Z</time></trkpt><trkpt lat="45.73658290761708" lon="10.097480246636957"><ele>233.0</ele><time>2026-04-04T13:13:00Z</time></trkpt><trkpt lat="45.73665184221872" lon="10.097410585556027"><ele>233.00000000000003</ele><time>2026-04-04T13:13:03Z</time></trkpt><trkpt lat="45.73672434540044" lon="10.09745214990302"><ele>233.0</ele><time>2026-04-04T13:13:06Z</time></trkpt><trkpt lat="45.73679922164317" lon="10.097494946100356"><ele>234.33333333333334</ele><time>2026-04-04T13:13:09Z</time></trkpt><trkpt lat="45.73688743510089" lon="10.097530490453524"><ele>235.66666666666669</ele><time>2026-04-04T13:13:12Z</time></trkpt><trkpt lat="45.73697703101707" lon="10.097524915531542"><ele>237.0</ele><time>2026-04-04T13:13:15Z</time></trkpt><trkpt lat="45.737069081827514" lon="10.09750677146474"><ele>238.33333333333331</ele><time>2026-04-04T13:13:18Z</time></trkpt><trkpt lat="45.73712980854124" lon="10.097482039386819"><ele>239.66666666666666</ele><time>2026-04-04T13:13:21Z</time></trkpt><trkpt lat="45.737212256464666" lon="10.097482276471732"><ele>241.0</ele><time>2026-04-04T13:13:23.999Z</time></trkpt><trkpt lat="45.73729287234131" lon="10.097473237216823"><ele>240.99999999999997</ele><time>2026-04-04T13:13:26.999Z</time></trkpt><trkpt lat="45.73737399430227" lon="10.09745338286733"><ele>241.0</ele><time>2026-04-04T13:13:29.999Z</time></trkpt><trkpt lat="45.73745810318034" lon="10.0974488508622"><ele>241.0</ele><time>2026-04-04T13:13:32.999Z</time></trkpt><trkpt lat="45.73753370249423" lon="10.097435544895767"><ele>241.0</ele><time>2026-04-04T13:13:34.999Z</time></trkpt><trkpt lat="45.73762563952076" lon="10.097412225025835"><ele>240.99999999999997</ele><time>2026-04-04T13:13:37.999Z</time></trkpt><trkpt lat="45.7376918631589" lon="10.09739209814012"><ele>241.0</ele><time>2026-04-04T13:13:39.999Z</time></trkpt><trkpt lat="45.73776083735382" lon="10.097376298493511"><ele>241.85714285714286</ele><time>2026-04-04T13:13:41.999Z</time></trkpt><trkpt lat="45.73783310585298" lon="10.097365865557274"><ele>242.71428571428572</ele><time>2026-04-04T13:13:43.999Z</time></trkpt><trkpt lat="45.737907871257214" lon="10.097344455727386"><ele>243.57142857142858</ele><time>2026-04-04T13:13:45.999Z</time></trkpt><trkpt lat="45.737975952844785" lon="10.097322883185512"><ele>244.42857142857144</ele><time>2026-04-04T13:13:47.999Z</time></trkpt><trkpt lat="45.73803826735207" lon="10.097287799210946"><ele>245.28571428571428</ele><time>2026-04-04T13:13:49.999Z</time></trkpt><trkpt lat="45.73810050737572" lon="10.097244999639852"><ele>246.14285714285717</ele><time>2026-04-04T13:13:51.999Z</time></trkpt><trkpt lat="45.73815706655083" lon="10.097197927764"><ele>247.0</ele><time>2026-04-04T13:13:53.999Z</time></trkpt><trkpt lat="45.738211188011334" lon="10.097146939205288"><ele>247.0</ele><time>2026-04-04T13:13:55.999Z</time></trkpt><trkpt lat="45.738267588953164" lon="10.097096975907277"><ele>247.0</ele><time>2026-04-04T13:13:57.999Z</time></trkpt><trkpt lat="45.73832463865608" lon="10.097039783866936"><ele>247.0</ele><time>2026-04-04T13:13:59.999Z</time></trkpt><trkpt lat="45.73837763194665" lon="10.096980881431636"><ele>247.0</ele><time>2026-04-04T13:14:01.999Z</time></trkpt><trkpt lat="45.738427960266954" lon="10.096917622676324"><ele>247.0</ele><time>2026-04-04T13:14:03.999Z</time></trkpt><trkpt lat="45.73847095212329" lon="10.096845520220079"><ele>247.0</ele><time>2026-04-04T13:14:05.999Z</time></trkpt><trkpt lat="45.73851228184659" lon="10.096774356013944"><ele>247.0</ele><time>2026-04-04T13:14:07.999Z</time></trkpt><trkpt lat="45.73856493214269" lon="10.096720099061734"><ele>248.99999999999997</ele><time>2026-04-04T13:14:09.999Z</time></trkpt><trkpt lat="45.738611100763315" lon="10.096613380148728"><ele>251.0</ele><time>2026-04-04T13:14:12.999Z</time></trkpt><trkpt lat="45.738668294522455" lon="10.096518765669119"><ele>253.0</ele><time>2026-04-04T13:14:15.998Z</time></trkpt><trkpt lat="45.738714234443144" lon="10.096412773582657"><ele>255.0</ele><time>2026-04-04T13:14:18.998Z</time></trkpt><trkpt lat="45.73876047951525" lon="10.096315275308577"><ele>257.0</ele><time>2026-04-04T13:14:21.998Z</time></trkpt><trkpt lat="45.73881643723883" lon="10.096228166608029"><ele>259.0</ele><time>2026-04-04T13:14:24.998Z</time></trkpt><trkpt lat="45.738871624135946" lon="10.09614778911419"><ele>259.0</ele><time>2026-04-04T13:14:27.998Z</time></trkpt><trkpt lat="45.73893687868058" lon="10.09608663986054"><ele>259.0</ele><time>2026-04-04T13:14:30.998Z</time></trkpt><trkpt lat="45.73900236410207" lon="10.096036431086516"><ele>259.0</ele><time>2026-04-04T13:14:33.998Z</time></trkpt><trkpt lat="45.73906558944285" lon="10.095992237201674"><ele>259.0</ele><time>2026-04-04T13:14:36.998Z</time></trkpt><trkpt lat="45.73913502573928" lon="10.09594918858604"><ele>259.0</ele><time>2026-04-04T13:14:40Z</time></trkpt><trkpt lat="45.73919983368693" lon="10.095885898525964"><ele>259.0</ele><time>2026-04-04T13:14:43Z</time></trkpt><trkpt lat="45.73926457969382" lon="10.095830537475992"><ele>259.0</ele><time>2026-04-04T13:14:46Z</time></trkpt><trkpt lat="45.739327180937984" lon="10.095764201182217"><ele>259.0</ele><time>2026-04-04T13:14:49Z</time></trkpt><trkpt lat="45.73939116636253" lon="10.095710404873229"><ele>259.0</ele><time>2026-04-04T13:14:52Z</time></trkpt><trkpt lat="45.7394486322881" lon="10.09565780138287"><ele>259.0</ele><time>2026-04-04T13:14:55Z</time></trkpt><trkpt lat="45.739508999925945" lon="10.095605588450832"><ele>259.0</ele><time>2026-04-04T13:14:58Z</time></trkpt><trkpt lat="45.7395797796141" lon="10.095530866868355"><ele>259.0</ele><time>2026-04-04T13:15:02Z</time></trkpt><trkpt lat="45.73963773734188" lon="10.095472336045031"><ele>260.42857142857144</ele><time>2026-04-04T13:15:06Z</time></trkpt><trkpt lat="45.73970356866396" lon="10.095523739593556"><ele>261.8571428571429</ele><time>2026-04-04T13:15:09Z</time></trkpt><trkpt lat="45.73969783735734" lon="10.095625155935574"><ele>263.2857142857143</ele><time>2026-04-04T13:15:12Z</time></trkpt><trkpt lat="45.73966204924993" lon="10.095743326379544"><ele>264.7142857142857</ele><time>2026-04-04T13:15:15Z</time></trkpt><trkpt lat="45.739626502383004" lon="10.095820465024776"><ele>266.14285714285717</ele><time>2026-04-04T13:15:18Z</time></trkpt><trkpt lat="45.73959338312029" lon="10.095904019035839"><ele>267.57142857142856</ele><time>2026-04-04T13:15:21Z</time></trkpt><trkpt lat="45.739556753106136" lon="10.095990666211529"><ele>269.0</ele><time>2026-04-04T13:15:24Z</time></trkpt><trkpt lat="45.73952302952329" lon="10.096077589507798"><ele>269.0</ele><time>2026-04-04T13:15:26.999Z</time></trkpt><trkpt lat="45.739479187504436" lon="10.096156709363672"><ele>269.0</ele><time>2026-04-04T13:15:29.999Z</time></trkpt><trkpt lat="45.73941797352678" lon="10.096227316752937"><ele>269.0</ele><time>2026-04-04T13:15:32.999Z</time></trkpt><trkpt lat="45.73935930234126" lon="10.096290067118447"><ele>269.0</ele><time>2026-04-04T13:15:35.999Z</time></trkpt><trkpt lat="45.739307223379996" lon="10.096360407119802"><ele>269.0</ele><time>2026-04-04T13:15:38.999Z</time></trkpt><trkpt lat="45.7392589886205" lon="10.096420377156067"><ele>269.0</ele><time>2026-04-04T13:15:41.999Z</time></trkpt><trkpt lat="45.739199979625255" lon="10.096476352169887"><ele>269.0</ele><time>2026-04-04T13:15:44.999Z</time></trkpt><trkpt lat="45.73913297135794" lon="10.096537396749236"><ele>270.33333333333337</ele><time>2026-04-04T13:15:48.999Z</time></trkpt><trkpt lat="45.73906511470153" lon="10.096595672816807"><ele>271.6666666666667</ele><time>2026-04-04T13:15:52.999Z</time></trkpt><trkpt lat="45.73898976624984" lon="10.09667258021542"><ele>273.0</ele><time>2026-04-04T13:15:56.999Z</time></trkpt><trkpt lat="45.738935676869076" lon="10.096732837700355"><ele>274.3333333333333</ele><time>2026-04-04T13:15:59.999Z</time></trkpt><trkpt lat="45.73888474651492" lon="10.096787166659741"><ele>275.66666666666663</ele><time>2026-04-04T13:16:02.999Z</time></trkpt><trkpt lat="45.738831384994626" lon="10.096847533427152"><ele>277.0</ele><time>2026-04-04T13:16:05.999Z</time></trkpt><trkpt lat="45.73878142681975" lon="10.096949181815985"><ele>277.0</ele><time>2026-04-04T13:16:08.999Z</time></trkpt><trkpt lat="45.73874248537381" lon="10.097034032159788"><ele>277.0</ele><time>2026-04-04T13:16:11.999Z</time></trkpt><trkpt lat="45.73870897355382" lon="10.097127449756703"><ele>277.0</ele><time>2026-04-04T13:16:14.999Z</time></trkpt><trkpt lat="45.738667242985194" lon="10.097213730417321"><ele>277.0</ele><time>2026-04-04T13:16:17.999Z</time></trkpt><trkpt lat="45.738632726554485" lon="10.097308418509387"><ele>277.0</ele><time>2026-04-04T13:16:20.998Z</time></trkpt><trkpt lat="45.73859732976042" lon="10.097402551604292"><ele>277.0</ele><time>2026-04-04T13:16:23.998Z</time></trkpt><trkpt lat="45.738564469899536" lon="10.097493842531623"><ele>277.0</ele><time>2026-04-04T13:16:26.998Z</time></trkpt><trkpt lat="45.73852853315726" lon="10.097581256385068"><ele>275.85714285714283</ele><time>2026-04-04T13:16:29.998Z</time></trkpt><trkpt lat="45.738492588301874" lon="10.09766724473082"><ele>274.71428571428567</ele><time>2026-04-04T13:16:32.998Z</time></trkpt><trkpt lat="45.73845074434218" lon="10.097752842512444"><ele>273.57142857142856</ele><time>2026-04-04T13:16:35.998Z</time></trkpt><trkpt lat="45.738410539573714" lon="10.09783414258387"><ele>272.42857142857144</ele><time>2026-04-04T13:16:38.998Z</time></trkpt><trkpt lat="45.738369038817936" lon="10.097917542393612"><ele>271.28571428571433</ele><time>2026-04-04T13:16:41.998Z</time></trkpt><trkpt lat="45.73832731444061" lon="10.09800007282905"><ele>270.14285714285717</ele><time>2026-04-04T13:16:45Z</time></trkpt><trkpt lat="45.738288382678526" lon="10.098089327688731"><ele>269.0</ele><time>2026-04-04T13:16:48Z</time></trkpt><trkpt lat="45.73824563543271" lon="10.098172761947282"><ele>272.2857142857143</ele><time>2026-04-04T13:16:51Z</time></trkpt><trkpt lat="45.73821199652595" lon="10.098270277257141"><ele>275.5714285714286</ele><time>2026-04-04T13:16:54Z</time></trkpt><trkpt lat="45.738181138396136" lon="10.098362912448454"><ele>278.8571428571429</ele><time>2026-04-04T13:16:57Z</time></trkpt><trkpt lat="45.73815041602803" lon="10.098453603125849"><ele>282.14285714285717</ele><time>2026-04-04T13:17:00Z</time></trkpt><trkpt lat="45.738114528096474" lon="10.098540521134003"><ele>285.42857142857144</ele><time>2026-04-04T13:17:03Z</time></trkpt><trkpt lat="45.738075578793776" lon="10.098624411826204"><ele>288.7142857142857</ele><time>2026-04-04T13:17:06Z</time></trkpt><trkpt lat="45.73802692971587" lon="10.098697786256896"><ele>292.0</ele><time>2026-04-04T13:17:09Z</time></trkpt><trkpt lat="45.73796791308039" lon="10.098764737464494"><ele>292.0</ele><time>2026-04-04T13:17:12Z</time></trkpt><trkpt lat="45.73791161907157" lon="10.098828422285424"><ele>292.0</ele><time>2026-04-04T13:17:15Z</time></trkpt><trkpt lat="45.737855514163435" lon="10.098897760832246"><ele>292.0</ele><time>2026-04-04T13:17:18Z</time></trkpt><trkpt lat="45.737792806540924" lon="10.09895347846706"><ele>292.0</ele><time>2026-04-04T13:17:21Z</time></trkpt><trkpt lat="45.73773073007094" lon="10.099003488927156"><ele>292.0</ele><time>2026-04-04T13:17:24Z</time></trkpt><trkpt lat="45.73766918310128" lon="10.099057667494458"><ele>292.0</ele><time>2026-04-04T13:17:27Z</time></trkpt><trkpt lat="45.73761497749299" lon="10.099120430125728"><ele>292.0</ele><time>2026-04-04T13:17:29.999Z</time></trkpt><trkpt lat="45.737574794727585" lon="10.099227528475987"><ele>291.42857142857144</ele><time>2026-04-04T13:17:32.999Z</time></trkpt><trkpt lat="45.737546430762976" lon="10.099326724651803"><ele>290.8571428571429</ele><time>2026-04-04T13:17:35.999Z</time></trkpt><trkpt lat="45.73751438417414" lon="10.099423051596347"><ele>290.28571428571433</ele><time>2026-04-04T13:17:38.999Z</time></trkpt><trkpt lat="45.73748912340183" lon="10.099526635068854"><ele>289.7142857142857</ele><time>2026-04-04T13:17:41.999Z</time></trkpt><trkpt lat="45.73746297396571" lon="10.099621764843642"><ele>289.14285714285717</ele><time>2026-04-04T13:17:44.999Z</time></trkpt><trkpt lat="45.7374387630289" lon="10.099720620004291"><ele>288.5714285714286</ele><time>2026-04-04T13:17:47.999Z</time></trkpt><trkpt lat="45.73742183021478" lon="10.09982461175554"><ele>288.0</ele><time>2026-04-04T13:17:50.999Z</time></trkpt><trkpt lat="45.73743081556652" lon="10.099936547832767"><ele>290.5714285714286</ele><time>2026-04-04T13:17:53.999Z</time></trkpt><trkpt lat="45.73745025921101" lon="10.100039092587851"><ele>293.14285714285717</ele><time>2026-04-04T13:17:56.999Z</time></trkpt><trkpt lat="45.737468536846414" lon="10.100139686680773"><ele>295.7142857142857</ele><time>2026-04-04T13:17:59.999Z</time></trkpt><trkpt lat="45.737497882026915" lon="10.100238427208218"><ele>298.28571428571433</ele><time>2026-04-04T13:18:02.999Z</time></trkpt><trkpt lat="45.737528782866534" lon="10.10033013183947"><ele>300.8571428571429</ele><time>2026-04-04T13:18:05.999Z</time></trkpt><trkpt lat="45.73756967233997" lon="10.100417619751614"><ele>303.42857142857144</ele><time>2026-04-04T13:18:08.999Z</time></trkpt><trkpt lat="45.73760162779145" lon="10.100507531225201"><ele>306.0</ele><time>2026-04-04T13:18:11.999Z</time></trkpt><trkpt lat="45.73758180387587" lon="10.100601048216198"><ele>306.0</ele><time>2026-04-04T13:18:14.999Z</time></trkpt><trkpt lat="45.737524524727775" lon="10.100664109178481"><ele>306.0</ele><time>2026-04-04T13:18:17.999Z</time></trkpt><trkpt lat="45.73746633619412" lon="10.100720758332553"><ele>306.0</ele><time>2026-04-04T13:18:20.999Z</time></trkpt><trkpt lat="45.737404676830984" lon="10.100770715954047"><ele>306.0</ele><time>2026-04-04T13:18:23.998Z</time></trkpt><trkpt lat="45.737343436959925" lon="10.100828539980533"><ele>306.0</ele><time>2026-04-04T13:18:26.998Z</time></trkpt><trkpt lat="45.7372893287534" lon="10.100878736238188"><ele>306.0</ele><time>2026-04-04T13:18:29.998Z</time></trkpt><trkpt lat="45.73722959744369" lon="10.10093573512854"><ele>306.0</ele><time>2026-04-04T13:18:32.998Z</time></trkpt><trkpt lat="45.737156875932286" lon="10.100987469351058"><ele>307.6666666666667</ele><time>2026-04-04T13:18:36.998Z</time></trkpt><trkpt lat="45.73707867360035" lon="10.101048859386117"><ele>309.3333333333333</ele><time>2026-04-04T13:18:39.998Z</time></trkpt><trkpt lat="45.737013292149136" lon="10.101111939961667"><ele>311.0</ele><time>2026-04-04T13:18:42.998Z</time></trkpt><trkpt lat="45.736961747325736" lon="10.101170449548732"><ele>312.66666666666663</ele><time>2026-04-04T13:18:45.998Z</time></trkpt><trkpt lat="45.73691380184047" lon="10.101253455030365"><ele>314.3333333333333</ele><time>2026-04-04T13:18:49Z</time></trkpt><trkpt lat="45.73687092199612" lon="10.10134679819327"><ele>316.0</ele><time>2026-04-04T13:18:52Z</time></trkpt><trkpt lat="45.73684294638636" lon="10.10144855810585"><ele>317.3333333333333</ele><time>2026-04-04T13:18:55Z</time></trkpt><trkpt lat="45.736827219724695" lon="10.101554499557983"><ele>318.66666666666663</ele><time>2026-04-04T13:18:58Z</time></trkpt><trkpt lat="45.736824426493286" lon="10.101663215158899"><ele>320.0</ele><time>2026-04-04T13:19:01Z</time></trkpt><trkpt lat="45.73683094034389" lon="10.101771592524686"><ele>321.3333333333333</ele><time>2026-04-04T13:19:04Z</time></trkpt><trkpt lat="45.73684826337574" lon="10.101901049180299"><ele>322.6666666666667</ele><time>2026-04-04T13:19:07Z</time></trkpt><trkpt lat="45.73687336454056" lon="10.10199720333738"><ele>324.0</ele><time>2026-04-04T13:19:10Z</time></trkpt><trkpt lat="45.736911688770434" lon="10.102087427969028"><ele>324.0</ele><time>2026-04-04T13:19:13Z</time></trkpt><trkpt lat="45.73696338678328" lon="10.102162252859971"><ele>324.0</ele><time>2026-04-04T13:19:16Z</time></trkpt><trkpt lat="45.73702513566962" lon="10.102218795838077"><ele>324.0</ele><time>2026-04-04T13:19:19Z</time></trkpt><trkpt lat="45.73709550454053" lon="10.102249328971817"><ele>324.0</ele><time>2026-04-04T13:19:22Z</time></trkpt><trkpt lat="45.7371694653397" lon="10.102250977314304"><ele>324.0</ele><time>2026-04-04T13:19:25Z</time></trkpt><trkpt lat="45.737242387460036" lon="10.102228719086032"><ele>324.0</ele><time>2026-04-04T13:19:28Z</time></trkpt><trkpt lat="45.73731455167347" lon="10.102198154279053"><ele>324.0</ele><time>2026-04-04T13:19:31Z</time></trkpt><trkpt lat="45.737387256927654" lon="10.102167923082956"><ele>324.0</ele><time>2026-04-04T13:19:33.999Z</time></trkpt><trkpt lat="45.73745741131386" lon="10.102133519456709"><ele>324.0</ele><time>2026-04-04T13:19:36.999Z</time></trkpt><trkpt lat="45.73752609076244" lon="10.102096321640412"><ele>324.0</ele><time>2026-04-04T13:19:39.999Z</time></trkpt><trkpt lat="45.737592706256926" lon="10.102058384988641"><ele>324.0</ele><time>2026-04-04T13:19:42.999Z</time></trkpt><trkpt lat="45.73766217430115" lon="10.10202103828382"><ele>324.0</ele><time>2026-04-04T13:19:45.999Z</time></trkpt><trkpt lat="45.737739791753114" lon="10.101981842709764"><ele>324.0</ele><time>2026-04-04T13:19:48.999Z</time></trkpt><trkpt lat="45.73782983486123" lon="10.101946141463575"><ele>325.2857142857143</ele><time>2026-04-04T13:19:51.999Z</time></trkpt><trkpt lat="45.73789057389842" lon="10.101921345267696"><ele>326.57142857142856</ele><time>2026-04-04T13:19:53.999Z</time></trkpt><trkpt lat="45.73795221849786" lon="10.101893130829794"><ele>327.8571428571429</ele><time>2026-04-04T13:19:55.999Z</time></trkpt><trkpt lat="45.738016240161336" lon="10.10186418067478"><ele>329.1428571428571</ele><time>2026-04-04T13:19:57.999Z</time></trkpt><trkpt lat="45.73808203534436" lon="10.101836755617352"><ele>330.4285714285714</ele><time>2026-04-04T13:19:59.999Z</time></trkpt><trkpt lat="45.73814967628204" lon="10.101807024350334"><ele>331.7142857142857</ele><time>2026-04-04T13:20:01.999Z</time></trkpt><trkpt lat="45.738216097492746" lon="10.101778533889918"><ele>333.0</ele><time>2026-04-04T13:20:03.999Z</time></trkpt><trkpt lat="45.73828434780446" lon="10.101747163173789"><ele>333.0</ele><time>2026-04-04T13:20:05.999Z</time></trkpt><trkpt lat="45.738348503682445" lon="10.101711815795682"><ele>333.0</ele><time>2026-04-04T13:20:07.999Z</time></trkpt><trkpt lat="45.73841889370557" lon="10.101692786200577"><ele>333.0</ele><time>2026-04-04T13:20:09.999Z</time></trkpt><trkpt lat="45.73848232073045" lon="10.101650804902848"><ele>333.0</ele><time>2026-04-04T13:20:11.999Z</time></trkpt><trkpt lat="45.738549864317214" lon="10.101609131797092"><ele>333.0</ele><time>2026-04-04T13:20:13.999Z</time></trkpt><trkpt lat="45.73861636946573" lon="10.101559279162007"><ele>333.0</ele><time>2026-04-04T13:20:15.999Z</time></trkpt><trkpt lat="45.73868452638409" lon="10.101507563645416"><ele>333.0</ele><time>2026-04-04T13:20:17.999Z</time></trkpt><trkpt lat="45.73875076585696" lon="10.101451061089747"><ele>334.0</ele><time>2026-04-04T13:20:19.999Z</time></trkpt><trkpt lat="45.73881450481622" lon="10.101390737921049"><ele>335.0</ele><time>2026-04-04T13:20:21.999Z</time></trkpt><trkpt lat="45.73888187937224" lon="10.10132871759024"><ele>336.0</ele><time>2026-04-04T13:20:23.999Z</time></trkpt><trkpt lat="45.738945285300076" lon="10.101268903922874"><ele>337.0</ele><time>2026-04-04T13:20:25.999Z</time></trkpt><trkpt lat="45.73900826562278" lon="10.101211719341874"><ele>338.0</ele><time>2026-04-04T13:20:27.998Z</time></trkpt><trkpt lat="45.739071167470634" lon="10.101147939988195"><ele>339.0</ele><time>2026-04-04T13:20:29.998Z</time></trkpt><trkpt lat="45.73912692174708" lon="10.101065481969812"><ele>339.0</ele><time>2026-04-04T13:20:31.998Z</time></trkpt><trkpt lat="45.73917333386744" lon="10.100971843354856"><ele>339.0</ele><time>2026-04-04T13:20:33.998Z</time></trkpt><trkpt lat="45.7392126308884" lon="10.100868157155595"><ele>339.0</ele><time>2026-04-04T13:20:35.998Z</time></trkpt><trkpt lat="45.7392419463428" lon="10.10075752433336"><ele>339.0</ele><time>2026-04-04T13:20:37.998Z</time></trkpt><trkpt lat="45.739252410030986" lon="10.10064013525692"><ele>339.0</ele><time>2026-04-04T13:20:39.998Z</time></trkpt><trkpt lat="45.73925941560337" lon="10.100518262854617"><ele>339.0</ele><time>2026-04-04T13:20:41.998Z</time></trkpt><trkpt lat="45.73926244344037" lon="10.100394047022535"><ele>338.8333333333333</ele><time>2026-04-04T13:20:43.998Z</time></trkpt><trkpt lat="45.7392692639169" lon="10.100269777268295"><ele>338.6666666666667</ele><time>2026-04-04T13:20:45.998Z</time></trkpt><trkpt lat="45.739277944678726" lon="10.100149128436907"><ele>338.5</ele><time>2026-04-04T13:20:47.998Z</time></trkpt><trkpt lat="45.739286724254356" lon="10.10002993871749"><ele>338.33333333333337</ele><time>2026-04-04T13:20:49.998Z</time></trkpt><trkpt lat="45.739296291008905" lon="10.099914427789233"><ele>338.1666666666667</ele><time>2026-04-04T13:20:51.998Z</time></trkpt><trkpt lat="45.73931306828805" lon="10.099808640391974"><ele>338.0</ele><time>2026-04-04T13:20:53.998Z</time></trkpt><trkpt lat="45.73933824027694" lon="10.099712193447647"><ele>339.0</ele><time>2026-04-04T13:20:56Z</time></trkpt><trkpt lat="45.739371740515466" lon="10.099621906146753"><ele>340.0</ele><time>2026-04-04T13:20:58Z</time></trkpt><trkpt lat="45.73940454792696" lon="10.099543577565859"><ele>341.0</ele><time>2026-04-04T13:21:00Z</time></trkpt><trkpt lat="45.7394411747016" lon="10.09946856724311"><ele>342.0</ele><time>2026-04-04T13:21:02Z</time></trkpt><trkpt lat="45.7394955066239" lon="10.099364626845606"><ele>343.0</ele><time>2026-04-04T13:21:05Z</time></trkpt><trkpt lat="45.73954930440307" lon="10.099262875926716"><ele>344.0</ele><time>2026-04-04T13:21:08Z</time></trkpt><trkpt lat="45.739603846192225" lon="10.09916847718474"><ele>345.6666666666667</ele><time>2026-04-04T13:21:11Z</time></trkpt><trkpt lat="45.739652179599524" lon="10.099074166387311"><ele>347.33333333333337</ele><time>2026-04-04T13:21:14Z</time></trkpt><trkpt lat="45.73969737547041" lon="10.09896925079599"><ele>349.0</ele><time>2026-04-04T13:21:17Z</time></trkpt><trkpt lat="45.73974089866955" lon="10.098863453983242"><ele>350.6666666666667</ele><time>2026-04-04T13:21:20Z</time></trkpt><trkpt lat="45.7397565857655" lon="10.098760567615075"><ele>352.3333333333333</ele><time>2026-04-04T13:21:23Z</time></trkpt><trkpt lat="45.73979050854333" lon="10.09864400579364"><ele>354.0</ele><time>2026-04-04T13:21:26Z</time></trkpt><trkpt lat="45.73983816248746" lon="10.09854528595703"><ele>354.0</ele><time>2026-04-04T13:21:29Z</time></trkpt><trkpt lat="45.739889615014334" lon="10.098456800620175"><ele>354.0</ele><time>2026-04-04T13:21:32Z</time></trkpt><trkpt lat="45.73995860001206" lon="10.098383821453938"><ele>354.0</ele><time>2026-04-04T13:21:35Z</time></trkpt><trkpt lat="45.7400274756575" lon="10.098321223158308"><ele>354.0</ele><time>2026-04-04T13:21:37.999Z</time></trkpt><trkpt lat="45.74009297979674" lon="10.098259452950105"><ele>354.0</ele><time>2026-04-04T13:21:40.999Z</time></trkpt><trkpt lat="45.74016251711266" lon="10.098202444223917"><ele>354.0</ele><time>2026-04-04T13:21:43.999Z</time></trkpt><trkpt lat="45.74023396488291" lon="10.09815235695977"><ele>351.14285714285717</ele><time>2026-04-04T13:21:46.999Z</time></trkpt><trkpt lat="45.74030688351934" lon="10.09812442037777"><ele>348.2857142857143</ele><time>2026-04-04T13:21:49.999Z</time></trkpt><trkpt lat="45.740377263233604" lon="10.098097522393969"><ele>345.42857142857144</ele><time>2026-04-04T13:21:52.999Z</time></trkpt><trkpt lat="45.74044749174419" lon="10.098080720425925"><ele>342.57142857142856</ele><time>2026-04-04T13:21:55.999Z</time></trkpt><trkpt lat="45.74051445302081" lon="10.098071948473466"><ele>339.7142857142857</ele><time>2026-04-04T13:21:58.999Z</time></trkpt><trkpt lat="45.74058216894176" lon="10.098075658568689"><ele>336.85714285714283</ele><time>2026-04-04T13:22:01.999Z</time></trkpt><trkpt lat="45.740651385384744" lon="10.098083525735108"><ele>334.0</ele><time>2026-04-04T13:22:04.999Z</time></trkpt><trkpt lat="45.740720390768274" lon="10.098106593452586"><ele>334.0</ele><time>2026-04-04T13:22:07.999Z</time></trkpt><trkpt lat="45.740792634896" lon="10.098138430537798"><ele>334.0</ele><time>2026-04-04T13:22:10.999Z</time></trkpt><trkpt lat="45.74085566548128" lon="10.098196356762335"><ele>334.0</ele><time>2026-04-04T13:22:13.999Z</time></trkpt><trkpt lat="45.74090789384714" lon="10.098279174640014"><ele>334.0</ele><time>2026-04-04T13:22:16.999Z</time></trkpt><trkpt lat="45.74094627758933" lon="10.098369093273686"><ele>334.0</ele><time>2026-04-04T13:22:19.999Z</time></trkpt><trkpt lat="45.740982747761656" lon="10.09847359247358"><ele>334.0</ele><time>2026-04-04T13:22:22.999Z</time></trkpt><trkpt lat="45.74102971039994" lon="10.098562005962485"><ele>335.66666666666663</ele><time>2026-04-04T13:22:25.999Z</time></trkpt><trkpt lat="45.74108747574924" lon="10.098642905819942"><ele>337.3333333333333</ele><time>2026-04-04T13:22:28.999Z</time></trkpt><trkpt lat="45.74114937999221" lon="10.098714267163006"><ele>339.0</ele><time>2026-04-04T13:22:31.998Z</time></trkpt><trkpt lat="45.741218922783595" lon="10.0987702179588"><ele>340.6666666666667</ele><time>2026-04-04T13:22:34.998Z</time></trkpt><trkpt lat="45.7413002895293" lon="10.09881678263956"><ele>342.33333333333337</ele><time>2026-04-04T13:22:37.998Z</time></trkpt><trkpt lat="45.74138134594503" lon="10.098865376205529"><ele>344.0</ele><time>2026-04-04T13:22:40.998Z</time></trkpt><trkpt lat="45.741446362878094" lon="10.098952701900636"><ele>344.0</ele><time>2026-04-04T13:22:43.998Z</time></trkpt><trkpt lat="45.7414461695061" lon="10.099076115074514"><ele>344.0</ele><time>2026-04-04T13:22:46.998Z</time></trkpt><trkpt lat="45.74136908235914" lon="10.099134284052019"><ele>344.0</ele><time>2026-04-04T13:22:49.998Z</time></trkpt><trkpt lat="45.74128699028082" lon="10.09907430093475"><ele>344.0</ele><time>2026-04-04T13:22:52.998Z</time></trkpt><trkpt lat="45.74122356992602" lon="10.098986843193904"><ele>344.0</ele><time>2026-04-04T13:22:55.998Z</time></trkpt><trkpt lat="45.74116147671556" lon="10.098894087358685"><ele>344.0</ele><time>2026-04-04T13:22:58.998Z</time></trkpt><trkpt lat="45.74110061262352" lon="10.098800748717885"><ele>344.00000000000006</ele><time>2026-04-04T13:23:02Z</time></trkpt><trkpt lat="45.74105018797255" lon="10.098741414115377"><ele>344.0</ele><time>2026-04-04T13:23:04Z</time></trkpt><trkpt lat="45.74099891962026" lon="10.098685579106744"><ele>344.0</ele><time>2026-04-04T13:23:06Z</time></trkpt><trkpt lat="45.740945788835305" lon="10.098627419543355"><ele>344.0</ele><time>2026-04-04T13:23:08Z</time></trkpt><trkpt lat="45.740879413327264" lon="10.09856330441308"><ele>344.0</ele><time>2026-04-04T13:23:11Z</time></trkpt><trkpt lat="45.74080504548576" lon="10.098518720627762"><ele>344.00000000000006</ele><time>2026-04-04T13:23:14Z</time></trkpt><trkpt lat="45.74072632815206" lon="10.098509807630274"><ele>344.0</ele><time>2026-04-04T13:23:17Z</time></trkpt><trkpt lat="45.740639636520406" lon="10.098544195130907"><ele>347.0</ele><time>2026-04-04T13:23:20Z</time></trkpt><trkpt lat="45.74056993003387" lon="10.098610256024182"><ele>350.0</ele><time>2026-04-04T13:23:23Z</time></trkpt><trkpt lat="45.74052190381914" lon="10.098704838428375"><ele>353.0</ele><time>2026-04-04T13:23:26Z</time></trkpt><trkpt lat="45.74048167217419" lon="10.098814217603984"><ele>356.0</ele><time>2026-04-04T13:23:29Z</time></trkpt><trkpt lat="45.7404730103149" lon="10.098947061822033"><ele>359.0</ele><time>2026-04-04T13:23:32Z</time></trkpt><trkpt lat="45.740494740433796" lon="10.099031914458402"><ele>362.0</ele><time>2026-04-04T13:23:34Z</time></trkpt><trkpt lat="45.74054497188759" lon="10.099139160534794"><ele>364.33333333333337</ele><time>2026-04-04T13:23:37Z</time></trkpt><trkpt lat="45.74058924405193" lon="10.099203887189498"><ele>366.6666666666667</ele><time>2026-04-04T13:23:39Z</time></trkpt><trkpt lat="45.74065527606379" lon="10.099294392986858"><ele>369.0</ele><time>2026-04-04T13:23:41.999Z</time></trkpt><trkpt lat="45.74071987607527" lon="10.09938606395532"><ele>371.3333333333333</ele><time>2026-04-04T13:23:44.999Z</time></trkpt><trkpt lat="45.74078852857601" lon="10.099475946485601"><ele>373.66666666666663</ele><time>2026-04-04T13:23:47.999Z</time></trkpt><trkpt lat="45.74085490988967" lon="10.099567149007648"><ele>376.0</ele><time>2026-04-04T13:23:50.999Z</time></trkpt><trkpt lat="45.74092211626663" lon="10.099648561569728"><ele>376.0</ele><time>2026-04-04T13:23:53.999Z</time></trkpt><trkpt lat="45.740994121692715" lon="10.099722469805931"><ele>376.0</ele><time>2026-04-04T13:23:56.999Z</time></trkpt><trkpt lat="45.74106819003948" lon="10.099789558080094"><ele>376.0</ele><time>2026-04-04T13:23:59.999Z</time></trkpt><trkpt lat="45.74114806707452" lon="10.099839054770072"><ele>376.0</ele><time>2026-04-04T13:24:02.999Z</time></trkpt><trkpt lat="45.74122819376659" lon="10.09987002714285"><ele>376.0</ele><time>2026-04-04T13:24:05.999Z</time></trkpt><trkpt lat="45.74130372378562" lon="10.099874555545751"><ele>376.0</ele><time>2026-04-04T13:24:08.999Z</time></trkpt><trkpt lat="45.741383046093006" lon="10.09989037502464"><ele>374.3333333333333</ele><time>2026-04-04T13:24:11.999Z</time></trkpt><trkpt lat="45.74144918243484" lon="10.099890158436692"><ele>372.66666666666663</ele><time>2026-04-04T13:24:14.999Z</time></trkpt><trkpt lat="45.74152635710616" lon="10.099915590847049"><ele>371.0</ele><time>2026-04-04T13:24:17.999Z</time></trkpt><trkpt lat="45.741607869088924" lon="10.0999349737952"><ele>369.3333333333333</ele><time>2026-04-04T13:24:20.999Z</time></trkpt><trkpt lat="45.741696801721204" lon="10.099954616290066"><ele>367.6666666666667</ele><time>2026-04-04T13:24:23.999Z</time></trkpt><trkpt lat="45.741778892111775" lon="10.099994543115137"><ele>366.0</ele><time>2026-04-04T13:24:26.999Z</time></trkpt><trkpt lat="45.74184282508336" lon="10.100068162118104"><ele>366.5</ele><time>2026-04-04T13:24:28.999Z</time></trkpt><trkpt lat="45.74189431628189" lon="10.100141309969105"><ele>367.0</ele><time>2026-04-04T13:24:30.999Z</time></trkpt><trkpt lat="45.74193608335861" lon="10.100216461235275"><ele>367.5</ele><time>2026-04-04T13:24:32.999Z</time></trkpt><trkpt lat="45.741982623842496" lon="10.100325157137634"><ele>368.0</ele><time>2026-04-04T13:24:35.998Z</time></trkpt><trkpt lat="45.74201670769504" lon="10.100402452424255"><ele>368.5</ele><time>2026-04-04T13:24:37.998Z</time></trkpt><trkpt lat="45.74205767369463" lon="10.10050864390613"><ele>369.0</ele><time>2026-04-04T13:24:40.998Z</time></trkpt><trkpt lat="45.7421057744161" lon="10.100616024978853"><ele>369.0</ele><time>2026-04-04T13:24:43.998Z</time></trkpt><trkpt lat="45.742157634658334" lon="10.1007282100255"><ele>369.0</ele><time>2026-04-04T13:24:46.998Z</time></trkpt><trkpt lat="45.742201193102034" lon="10.100800459686702"><ele>369.0</ele><time>2026-04-04T13:24:48.998Z</time></trkpt><trkpt lat="45.74225145526876" lon="10.10086035593818"><ele>369.0</ele><time>2026-04-04T13:24:50.998Z</time></trkpt><trkpt lat="45.742309519434016" lon="10.10091337662386"><ele>369.0</ele><time>2026-04-04T13:24:52.998Z</time></trkpt><trkpt lat="45.74239156557849" lon="10.100958689937917"><ele>369.0</ele><time>2026-04-04T13:24:55.998Z</time></trkpt><trkpt lat="45.742466237197085" lon="10.100998793066978"><ele>372.0</ele><time>2026-04-04T13:24:58.998Z</time></trkpt><trkpt lat="45.742529947906235" lon="10.101044625775478"><ele>375.0</ele><time>2026-04-04T13:25:01.998Z</time></trkpt><trkpt lat="45.742597919872196" lon="10.101113709806226"><ele>378.0</ele><time>2026-04-04T13:25:04.998Z</time></trkpt><trkpt lat="45.74266811275604" lon="10.101183431695521"><ele>381.0</ele><time>2026-04-04T13:25:08Z</time></trkpt><trkpt lat="45.74270946725209" lon="10.101266925196928"><ele>384.0</ele><time>2026-04-04T13:25:11Z</time></trkpt><trkpt lat="45.742773589033945" lon="10.101352079442176"><ele>387.0</ele><time>2026-04-04T13:25:14Z</time></trkpt><trkpt lat="45.74282914538861" lon="10.101431098946133"><ele>387.0</ele><time>2026-04-04T13:25:17Z</time></trkpt><trkpt lat="45.742871365745124" lon="10.101521457547326"><ele>387.0</ele><time>2026-04-04T13:25:20Z</time></trkpt><trkpt lat="45.7429177181844" lon="10.101611590671869"><ele>387.0</ele><time>2026-04-04T13:25:23Z</time></trkpt><trkpt lat="45.742973325153585" lon="10.101694010352771"><ele>387.0</ele><time>2026-04-04T13:25:26Z</time></trkpt><trkpt lat="45.74302603506071" lon="10.10176792454839"><ele>387.0</ele><time>2026-04-04T13:25:29Z</time></trkpt><trkpt lat="45.74308035757499" lon="10.101828400035183"><ele>387.0</ele><time>2026-04-04T13:25:32Z</time></trkpt><trkpt lat="45.74315303148537" lon="10.101877144011672"><ele>389.0</ele><time>2026-04-04T13:25:36Z</time></trkpt><trkpt lat="45.74321206043534" lon="10.101919303586715"><ele>391.0</ele><time>2026-04-04T13:25:40Z</time></trkpt><trkpt lat="45.743275503737756" lon="10.10194819850456"><ele>393.0</ele><time>2026-04-04T13:25:43Z</time></trkpt><trkpt lat="45.74334015282495" lon="10.10199500011983"><ele>395.0</ele><time>2026-04-04T13:25:45.999Z</time></trkpt><trkpt lat="45.743399438757486" lon="10.102031023706477"><ele>397.0</ele><time>2026-04-04T13:25:47.999Z</time></trkpt><trkpt lat="45.743452063390414" lon="10.10208382441839"><ele>399.0</ele><time>2026-04-04T13:25:49.999Z</time></trkpt><trkpt lat="45.74350906441049" lon="10.102132283612825"><ele>401.0</ele><time>2026-04-04T13:25:51.999Z</time></trkpt><trkpt lat="45.743577138932224" lon="10.10219243520298"><ele>401.0</ele><time>2026-04-04T13:25:54.999Z</time></trkpt><trkpt lat="45.743645805862336" lon="10.102241119907845"><ele>401.0</ele><time>2026-04-04T13:25:57.999Z</time></trkpt><trkpt lat="45.74370893115689" lon="10.102285179192336"><ele>401.0</ele><time>2026-04-04T13:26:00.999Z</time></trkpt><trkpt lat="45.74377785383518" lon="10.102311251910814"><ele>401.0</ele><time>2026-04-04T13:26:03.999Z</time></trkpt><trkpt lat="45.74384983413992" lon="10.102319904877557"><ele>401.0</ele><time>2026-04-04T13:26:06.999Z</time></trkpt><trkpt lat="45.74392315245834" lon="10.102311111481642"><ele>401.0</ele><time>2026-04-04T13:26:09.999Z</time></trkpt><trkpt lat="45.74399873482329" lon="10.102307489292885"><ele>401.0</ele><time>2026-04-04T13:26:12.999Z</time></trkpt><trkpt lat="45.74407378778992" lon="10.102304918192978"><ele>400.99999999999994</ele><time>2026-04-04T13:26:15.999Z</time></trkpt><trkpt lat="45.744149255159094" lon="10.102320570581233"><ele>401.0</ele><time>2026-04-04T13:26:18.999Z</time></trkpt><trkpt lat="45.74422493852816" lon="10.10233003801995"><ele>401.0</ele><time>2026-04-04T13:26:21.999Z</time></trkpt><trkpt lat="45.7443053880097" lon="10.10237566721208"><ele>401.0</ele><time>2026-04-04T13:26:24.999Z</time></trkpt><trkpt lat="45.74438038716452" lon="10.102419535072919"><ele>400.99999999999994</ele><time>2026-04-04T13:26:27.999Z</time></trkpt><trkpt lat="45.74445894984806" lon="10.102453884846918"><ele>401.0</ele><time>2026-04-04T13:26:30.999Z</time></trkpt><trkpt lat="45.74452688511485" lon="10.102494526226488"><ele>401.99999999999994</ele><time>2026-04-04T13:26:33.999Z</time></trkpt><trkpt lat="45.7446007054595" lon="10.10253020948542"><ele>403.0</ele><time>2026-04-04T13:26:36.998Z</time></trkpt><trkpt lat="45.74467111654332" lon="10.102578606031235"><ele>404.0</ele><time>2026-04-04T13:26:39.998Z</time></trkpt><trkpt lat="45.744746770004845" lon="10.102634328634855"><ele>405.0</ele><time>2026-04-04T13:26:42.998Z</time></trkpt><trkpt lat="45.74481372645662" lon="10.102708731996815"><ele>405.99999999999994</ele><time>2026-04-04T13:26:45.998Z</time></trkpt><trkpt lat="45.744870707862205" lon="10.102789822035735"><ele>407.0</ele><time>2026-04-04T13:26:48.998Z</time></trkpt><trkpt lat="45.74491068548467" lon="10.10290331904221"><ele>406.99999999999994</ele><time>2026-04-04T13:26:51.998Z</time></trkpt><trkpt lat="45.7449216900041" lon="10.10301875015933"><ele>407.0</ele><time>2026-04-04T13:26:54.998Z</time></trkpt><trkpt lat="45.74487044605962" lon="10.103128137210485"><ele>407.0</ele><time>2026-04-04T13:26:58.998Z</time></trkpt><trkpt lat="45.74479958776455" lon="10.103106930743145"><ele>407.0</ele><time>2026-04-04T13:27:01.998Z</time></trkpt><trkpt lat="45.74477339169" lon="10.103021099106146"><ele>406.99999999999994</ele><time>2026-04-04T13:27:04.998Z</time></trkpt><trkpt lat="45.744752620412434" lon="10.10293266043648"><ele>407.0</ele><time>2026-04-04T13:27:06.998Z</time></trkpt><trkpt lat="45.74471362623174" lon="10.10282598767302"><ele>406.99999999999994</ele><time>2026-04-04T13:27:09.998Z</time></trkpt><trkpt lat="45.74466193705099" lon="10.10275898146877"><ele>407.0</ele><time>2026-04-04T13:27:13Z</time></trkpt><trkpt lat="45.744589148759474" lon="10.1027097952186"><ele>407.0</ele><time>2026-04-04T13:27:16Z</time></trkpt><trkpt lat="45.74450655619961" lon="10.102694430852042"><ele>407.0</ele><time>2026-04-04T13:27:19Z</time></trkpt><trkpt lat="45.74442450237955" lon="10.102682200347749"><ele>406.99999999999994</ele><time>2026-04-04T13:27:22Z</time></trkpt><trkpt lat="45.74435266704318" lon="10.102690873192179"><ele>407.0</ele><time>2026-04-04T13:27:25Z</time></trkpt><trkpt lat="45.74428423036745" lon="10.102685664559031"><ele>408.8333333333333</ele><time>2026-04-04T13:27:27Z</time></trkpt><trkpt lat="45.74420974871101" lon="10.102655571233274"><ele>410.66666666666663</ele><time>2026-04-04T13:27:29Z</time></trkpt><trkpt lat="45.74412761569298" lon="10.102603460895647"><ele>412.5</ele><time>2026-04-04T13:27:32Z</time></trkpt><trkpt lat="45.74405703747267" lon="10.102573450849025"><ele>414.33333333333337</ele><time>2026-04-04T13:27:35Z</time></trkpt><trkpt lat="45.74396401170171" lon="10.102575017414468"><ele>416.1666666666667</ele><time>2026-04-04T13:27:38Z</time></trkpt><trkpt lat="45.74389871954653" lon="10.102601350574773"><ele>418.0</ele><time>2026-04-04T13:27:40Z</time></trkpt><trkpt lat="45.74383792453595" lon="10.102638740721861"><ele>418.00000000000006</ele><time>2026-04-04T13:27:42Z</time></trkpt><trkpt lat="45.74378259016457" lon="10.102691342150665"><ele>418.0</ele><time>2026-04-04T13:27:44Z</time></trkpt><trkpt lat="45.74373030491673" lon="10.102744041203636"><ele>418.0</ele><time>2026-04-04T13:27:46Z</time></trkpt><trkpt lat="45.7436621037756" lon="10.102821601890023"><ele>418.0</ele><time>2026-04-04T13:27:49Z</time></trkpt><trkpt lat="45.74358472301759" lon="10.102870633505526"><ele>418.00000000000006</ele><time>2026-04-04T13:27:51.999Z</time></trkpt><trkpt lat="45.743502666315266" lon="10.10288751570277"><ele>418.0</ele><time>2026-04-04T13:27:54.999Z</time></trkpt><trkpt lat="45.74341889738636" lon="10.102884417599"><ele>419.33333333333337</ele><time>2026-04-04T13:27:57.999Z</time></trkpt><trkpt lat="45.743345182922326" lon="10.102922358893053"><ele>420.6666666666667</ele><time>2026-04-04T13:28:00.999Z</time></trkpt><trkpt lat="45.74330481481001" lon="10.103014717861416"><ele>422.0</ele><time>2026-04-04T13:28:03.999Z</time></trkpt><trkpt lat="45.743300727130105" lon="10.10311373784232"><ele>423.33333333333337</ele><time>2026-04-04T13:28:05.999Z</time></trkpt><trkpt lat="45.74335130805294" lon="10.10321000214321"><ele>424.6666666666667</ele><time>2026-04-04T13:28:08.999Z</time></trkpt><trkpt lat="45.7434194858243" lon="10.103212068123591"><ele>426.0</ele><time>2026-04-04T13:28:11.999Z</time></trkpt><trkpt lat="45.743486836910215" lon="10.103166127692237"><ele>424.6666666666667</ele><time>2026-04-04T13:28:14.999Z</time></trkpt><trkpt lat="45.74354717901442" lon="10.10312725501267"><ele>423.33333333333337</ele><time>2026-04-04T13:28:16.999Z</time></trkpt><trkpt lat="45.74362010604081" lon="10.103069997617508"><ele>422.0</ele><time>2026-04-04T13:28:19.999Z</time></trkpt><trkpt lat="45.74368043201695" lon="10.103030971163824"><ele>420.6666666666667</ele><time>2026-04-04T13:28:21.999Z</time></trkpt><trkpt lat="45.743749034140095" lon="10.102991088904233"><ele>419.33333333333337</ele><time>2026-04-04T13:28:24.999Z</time></trkpt><trkpt lat="45.74384818217576" lon="10.102980744273314"><ele>418.0</ele><time>2026-04-04T13:28:27.999Z</time></trkpt><trkpt lat="45.74393979538776" lon="10.103013372885014"><ele>418.0</ele><time>2026-04-04T13:28:30.999Z</time></trkpt><trkpt lat="45.744022246177224" lon="10.103073990214526"><ele>418.0</ele><time>2026-04-04T13:28:33.999Z</time></trkpt><trkpt lat="45.74408673871382" lon="10.103133073382912"><ele>418.0</ele><time>2026-04-04T13:28:36.999Z</time></trkpt><trkpt lat="45.744135422247055" lon="10.103193233988407"><ele>418.0</ele><time>2026-04-04T13:28:38.999Z</time></trkpt><trkpt lat="45.74419059412436" lon="10.103242259772099"><ele>418.0</ele><time>2026-04-04T13:28:40.999Z</time></trkpt><trkpt lat="45.74424894738505" lon="10.10329710230975"><ele>418.0</ele><time>2026-04-04T13:28:42.998Z</time></trkpt><trkpt lat="45.74430972062647" lon="10.103341990557224"><ele>418.0</ele><time>2026-04-04T13:28:44.998Z</time></trkpt><trkpt lat="45.74437025882073" lon="10.103422136571378"><ele>419.85714285714283</ele><time>2026-04-04T13:28:47.998Z</time></trkpt><trkpt lat="45.74441980531571" lon="10.103504946761278"><ele>421.71428571428567</ele><time>2026-04-04T13:28:50.998Z</time></trkpt><trkpt lat="45.744472618238895" lon="10.103581200126232"><ele>423.57142857142856</ele><time>2026-04-04T13:28:53.998Z</time></trkpt><trkpt lat="45.74451895449118" lon="10.10366044890732"><ele>425.42857142857144</ele><time>2026-04-04T13:28:55.998Z</time></trkpt><trkpt lat="45.74458943733786" lon="10.103715837616367"><ele>427.2857142857143</ele><time>2026-04-04T13:28:57.998Z</time></trkpt><trkpt lat="45.744648760142226" lon="10.103770876385324"><ele>429.14285714285717</ele><time>2026-04-04T13:28:59.998Z</time></trkpt><trkpt lat="45.74470156155857" lon="10.103831127299642"><ele>431.0</ele><time>2026-04-04T13:29:01.998Z</time></trkpt><trkpt lat="45.74476987100048" lon="10.103898778434429"><ele>430.99999999999994</ele><time>2026-04-04T13:29:04.998Z</time></trkpt><trkpt lat="45.74484653615444" lon="10.10395520958653"><ele>431.0</ele><time>2026-04-04T13:29:07.998Z</time></trkpt><trkpt lat="45.74495895029018" lon="10.103987014959738"><ele>431.0</ele><time>2026-04-04T13:29:11.998Z</time></trkpt><trkpt lat="45.74504239305089" lon="10.103983072578274"><ele>431.0</ele><time>2026-04-04T13:29:15.998Z</time></trkpt><trkpt lat="45.74511655003345" lon="10.103993932718774"><ele>430.99999999999994</ele><time>2026-04-04T13:29:19Z</time></trkpt><trkpt lat="45.745186563296954" lon="10.104029497616448"><ele>431.0</ele><time>2026-04-04T13:29:22Z</time></trkpt><trkpt lat="45.745245045587396" lon="10.104070274025322"><ele>435.16666666666663</ele><time>2026-04-04T13:29:24Z</time></trkpt><trkpt lat="45.745317424499206" lon="10.104102966455814"><ele>439.3333333333333</ele><time>2026-04-04T13:29:26Z</time></trkpt><trkpt lat="45.74541338122046" lon="10.104115161294141"><ele>443.5</ele><time>2026-04-04T13:29:29Z</time></trkpt><trkpt lat="45.74548694920551" lon="10.104143719496866"><ele>447.66666666666663</ele><time>2026-04-04T13:29:32Z</time></trkpt><trkpt lat="45.74556666164471" lon="10.104145855960677"><ele>451.8333333333333</ele><time>2026-04-04T13:29:35Z</time></trkpt><trkpt lat="45.74564585397227" lon="10.10415595023425"><ele>456.0</ele><time>2026-04-04T13:29:38Z</time></trkpt><trkpt lat="45.74571619885148" lon="10.104149912188927"><ele>456.0</ele><time>2026-04-04T13:29:41Z</time></trkpt><trkpt lat="45.745787562072465" lon="10.10417407156272"><ele>456.0</ele><time>2026-04-04T13:29:44Z</time></trkpt><trkpt lat="45.74585983523481" lon="10.104222503441422"><ele>456.0</ele><time>2026-04-04T13:29:47Z</time></trkpt><trkpt lat="45.74593025628514" lon="10.104239279665116"><ele>456.0</ele><time>2026-04-04T13:29:50Z</time></trkpt><trkpt lat="45.74599801360093" lon="10.104259693513052"><ele>456.0</ele><time>2026-04-04T13:29:53Z</time></trkpt><trkpt lat="45.74608120029419" lon="10.104284611836837"><ele>456.0</ele><time>2026-04-04T13:29:55.999Z</time></trkpt><trkpt lat="45.74616372515856" lon="10.104327698302091"><ele>453.3333333333333</ele><time>2026-04-04T13:29:58.999Z</time></trkpt><trkpt lat="45.746227441596076" lon="10.104342141682734"><ele>450.66666666666663</ele><time>2026-04-04T13:30:00.999Z</time></trkpt><trkpt lat="45.746311873371226" lon="10.10438965587213"><ele>448.0</ele><time>2026-04-04T13:30:03.999Z</time></trkpt><trkpt lat="45.74639274537434" lon="10.10443448312144"><ele>445.3333333333333</ele><time>2026-04-04T13:30:06.999Z</time></trkpt><trkpt lat="45.7464615831442" lon="10.104488969692039"><ele>442.66666666666663</ele><time>2026-04-04T13:30:09.999Z</time></trkpt><trkpt lat="45.746528703174" lon="10.104565481301824"><ele>440.0</ele><time>2026-04-04T13:30:12.999Z</time></trkpt><trkpt lat="45.74660066198777" lon="10.10461704673316"><ele>439.99999999999994</ele><time>2026-04-04T13:30:15.999Z</time></trkpt><trkpt lat="45.746669749580455" lon="10.104694882637991"><ele>440.0</ele><time>2026-04-04T13:30:18.999Z</time></trkpt><trkpt lat="45.74672762849044" lon="10.104771659333796"><ele>440.0</ele><time>2026-04-04T13:30:21.999Z</time></trkpt><trkpt lat="45.74679927802462" lon="10.104847154325858"><ele>440.0</ele><time>2026-04-04T13:30:24.999Z</time></trkpt><trkpt lat="45.74685840978507" lon="10.10491548305412"><ele>439.99999999999994</ele><time>2026-04-04T13:30:27.999Z</time></trkpt><trkpt lat="45.746934697613824" lon="10.104987440625617"><ele>440.0</ele><time>2026-04-04T13:30:30.999Z</time></trkpt><trkpt lat="45.746990582522116" lon="10.105053879029978"><ele>441.8333333333333</ele><time>2026-04-04T13:30:33.999Z</time></trkpt><trkpt lat="45.74705580711455" lon="10.105126168164226"><ele>443.66666666666663</ele><time>2026-04-04T13:30:36.999Z</time></trkpt><trkpt lat="45.74712507674261" lon="10.105173454414308"><ele>445.5</ele><time>2026-04-04T13:30:39.999Z</time></trkpt><trkpt lat="45.747206081166794" lon="10.105212005731444"><ele>447.33333333333337</ele><time>2026-04-04T13:30:42.999Z</time></trkpt><trkpt lat="45.74728333691401" lon="10.105241567816723"><ele>449.1666666666667</ele><time>2026-04-04T13:30:45.998Z</time></trkpt><trkpt lat="45.74735893694128" lon="10.105268946044937"><ele>451.0</ele><time>2026-04-04T13:30:48.998Z</time></trkpt><trkpt lat="45.74742715809331" lon="10.105295425598355"><ele>451.0</ele><time>2026-04-04T13:30:51.998Z</time></trkpt><trkpt lat="45.74746761790395" lon="10.105366200039263"><ele>451.0</ele><time>2026-04-04T13:30:54.998Z</time></trkpt><trkpt lat="45.74743669458328" lon="10.105456118073935"><ele>451.0</ele><time>2026-04-04T13:30:57.998Z</time></trkpt><trkpt lat="45.74736946595423" lon="10.105450620360251"><ele>451.0</ele><time>2026-04-04T13:31:00.998Z</time></trkpt><trkpt lat="45.74730499102253" lon="10.10541912479961"><ele>451.0</ele><time>2026-04-04T13:31:03.998Z</time></trkpt><trkpt lat="45.74723530358041" lon="10.105374558579372"><ele>451.0</ele><time>2026-04-04T13:31:06.998Z</time></trkpt><trkpt lat="45.74716722074466" lon="10.105328652621354"><ele>451.0</ele><time>2026-04-04T13:31:08.998Z</time></trkpt><trkpt lat="45.74709008543185" lon="10.1052836805867"><ele>451.00000000000006</ele><time>2026-04-04T13:31:11.998Z</time></trkpt><trkpt lat="45.74701599887957" lon="10.105233279883791"><ele>451.0</ele><time>2026-04-04T13:31:14.998Z</time></trkpt><trkpt lat="45.74694283841946" lon="10.105187845506478"><ele>451.0</ele><time>2026-04-04T13:31:17.998Z</time></trkpt><trkpt lat="45.74686545047115" lon="10.105140759787194"><ele>451.0</ele><time>2026-04-04T13:31:20.998Z</time></trkpt><trkpt lat="45.7467827554907" lon="10.10509983712549"><ele>451.00000000000006</ele><time>2026-04-04T13:31:24Z</time></trkpt><trkpt lat="45.74670603877079" lon="10.105056541944911"><ele>451.0</ele><time>2026-04-04T13:31:27Z</time></trkpt><trkpt lat="45.74662932617269" lon="10.1050104477648"><ele>449.1666666666667</ele><time>2026-04-04T13:31:30Z</time></trkpt><trkpt lat="45.74655183130546" lon="10.10497057093398"><ele>447.33333333333337</ele><time>2026-04-04T13:31:33Z</time></trkpt><trkpt lat="45.74647372500396" lon="10.104932261617895"><ele>445.5</ele><time>2026-04-04T13:31:37Z</time></trkpt><trkpt lat="45.746392623363256" lon="10.10490055637399"><ele>443.66666666666663</ele><time>2026-04-04T13:31:40Z</time></trkpt><trkpt lat="45.746304875631026" lon="10.104867818593176"><ele>441.8333333333333</ele><time>2026-04-04T13:31:43Z</time></trkpt><trkpt lat="45.746219847338715" lon="10.10484755728142"><ele>440.0</ele><time>2026-04-04T13:31:46Z</time></trkpt><trkpt lat="45.746132457035856" lon="10.104823406108533"><ele>439.99999999999994</ele><time>2026-04-04T13:31:49Z</time></trkpt><trkpt lat="45.74605281934501" lon="10.104797587968092"><ele>440.0</ele><time>2026-04-04T13:31:52Z</time></trkpt><trkpt lat="45.7459666467275" lon="10.104771439212417"><ele>440.0</ele><time>2026-04-04T13:31:55Z</time></trkpt><trkpt lat="45.74588316968235" lon="10.104749809233093"><ele>440.0</ele><time>2026-04-04T13:31:57.999Z</time></trkpt><trkpt lat="45.74580407275602" lon="10.104729922950247"><ele>439.99999999999994</ele><time>2026-04-04T13:32:00.999Z</time></trkpt><trkpt lat="45.7457249542158" lon="10.104714838579442"><ele>440.0</ele><time>2026-04-04T13:32:03.999Z</time></trkpt><trkpt lat="45.74565996930939" lon="10.104709178115298"><ele>442.66666666666663</ele><time>2026-04-04T13:32:06.999Z</time></trkpt><trkpt lat="45.745581042143904" lon="10.104700400924079"><ele>445.3333333333333</ele><time>2026-04-04T13:32:09.999Z</time></trkpt><trkpt lat="45.7454774294179" lon="10.104702218769939"><ele>448.0</ele><time>2026-04-04T13:32:12.999Z</time></trkpt><trkpt lat="45.745412098220335" lon="10.10471704588162"><ele>450.66666666666663</ele><time>2026-04-04T13:32:14.999Z</time></trkpt><trkpt lat="45.74534897919384" lon="10.104732051223563"><ele>453.3333333333333</ele><time>2026-04-04T13:32:16.999Z</time></trkpt><trkpt lat="45.74526002272639" lon="10.104762841245762"><ele>456.0</ele><time>2026-04-04T13:32:19.999Z</time></trkpt><trkpt lat="45.74517178211407" lon="10.104798054101545"><ele>456.6666666666667</ele><time>2026-04-04T13:32:22.999Z</time></trkpt><trkpt lat="45.7450893686285" lon="10.104820443847665"><ele>457.33333333333337</ele><time>2026-04-04T13:32:25.999Z</time></trkpt><trkpt lat="45.74501313227769" lon="10.10483809729863"><ele>458.0</ele><time>2026-04-04T13:32:28.999Z</time></trkpt><trkpt lat="45.744936936954126" lon="10.10486051808693"><ele>458.6666666666667</ele><time>2026-04-04T13:32:31.999Z</time></trkpt><trkpt lat="45.74486091200401" lon="10.104872621785086"><ele>459.33333333333337</ele><time>2026-04-04T13:32:34.999Z</time></trkpt><trkpt lat="45.74478205701931" lon="10.104898540608609"><ele>460.0</ele><time>2026-04-04T13:32:37.999Z</time></trkpt><trkpt lat="45.74470788524447" lon="10.104924823560925"><ele>465.33333333333337</ele><time>2026-04-04T13:32:40.999Z</time></trkpt><trkpt lat="45.744645286555794" lon="10.10495085774515"><ele>470.6666666666667</ele><time>2026-04-04T13:32:43.999Z</time></trkpt><trkpt lat="45.74457185124347" lon="10.104966376863462"><ele>476.0</ele><time>2026-04-04T13:32:45.999Z</time></trkpt><trkpt lat="45.74448719713971" lon="10.104987157419059"><ele>481.33333333333337</ele><time>2026-04-04T13:32:48.999Z</time></trkpt><trkpt lat="45.74440373552564" lon="10.10499664746525"><ele>486.6666666666667</ele><time>2026-04-04T13:32:51.998Z</time></trkpt><trkpt lat="45.74431957348657" lon="10.104990831158988"><ele>492.0</ele><time>2026-04-04T13:32:54.998Z</time></trkpt><trkpt lat="45.74423955885498" lon="10.104978047318575"><ele>492.3333333333333</ele><time>2026-04-04T13:32:57.998Z</time></trkpt><trkpt lat="45.744162925363575" lon="10.104958957438592"><ele>492.66666666666663</ele><time>2026-04-04T13:33:00.998Z</time></trkpt><trkpt lat="45.74408524945706" lon="10.10493490582466"><ele>493.0</ele><time>2026-04-04T13:33:03.998Z</time></trkpt><trkpt lat="45.74400930923748" lon="10.104912110411018"><ele>493.3333333333333</ele><time>2026-04-04T13:33:06.998Z</time></trkpt><trkpt lat="45.74393525216058" lon="10.104891237031369"><ele>493.66666666666663</ele><time>2026-04-04T13:33:09.998Z</time></trkpt><trkpt lat="45.74385403446588" lon="10.104869165520798"><ele>494.0</ele><time>2026-04-04T13:33:12.998Z</time></trkpt><trkpt lat="45.74376972680873" lon="10.10488833001996"><ele>493.99999999999994</ele><time>2026-04-04T13:33:15.998Z</time></trkpt><trkpt lat="45.743707345480416" lon="10.104972222758702"><ele>494.0</ele><time>2026-04-04T13:33:18.998Z</time></trkpt><trkpt lat="45.74369473984407" lon="10.105099262191368"><ele>494.0</ele><time>2026-04-04T13:33:21.998Z</time></trkpt><trkpt lat="45.74373401292995" lon="10.105210275495741"><ele>494.0</ele><time>2026-04-04T13:33:24.998Z</time></trkpt><trkpt lat="45.743810148366755" lon="10.105267178639382"><ele>493.99999999999994</ele><time>2026-04-04T13:33:27.998Z</time></trkpt><trkpt lat="45.74387738981759" lon="10.105265296859917"><ele>494.0</ele><time>2026-04-04T13:33:31Z</time></trkpt><trkpt lat="45.74394565585748" lon="10.105271279408681"><ele>493.99999999999994</ele><time>2026-04-04T13:33:33Z</time></trkpt><trkpt lat="45.74403513284758" lon="10.105277173898136"><ele>494.0</ele><time>2026-04-04T13:33:36Z</time></trkpt><trkpt lat="45.74411654841995" lon="10.105293579635006"><ele>494.0</ele><time>2026-04-04T13:33:39Z</time></trkpt><trkpt lat="45.74419349727999" lon="10.105327363366968"><ele>494.0</ele><time>2026-04-04T13:33:42Z</time></trkpt><trkpt lat="45.74425810561716" lon="10.105338624365508"><ele>493.99999999999994</ele><time>2026-04-04T13:33:45Z</time></trkpt><trkpt lat="45.744327312832155" lon="10.105365697121796"><ele>494.0</ele><time>2026-04-04T13:33:48Z</time></trkpt><trkpt lat="45.744392623579216" lon="10.105381760641606"><ele>493.66666666666663</ele><time>2026-04-04T13:33:51Z</time></trkpt><trkpt lat="45.74446652523667" lon="10.105398388218415"><ele>493.3333333333333</ele><time>2026-04-04T13:33:55Z</time></trkpt><trkpt lat="45.74456418223037" lon="10.105396165799196"><ele>493.0</ele><time>2026-04-04T13:33:58Z</time></trkpt><trkpt lat="45.74465486972799" lon="10.10539297751344"><ele>492.66666666666663</ele><time>2026-04-04T13:34:01Z</time></trkpt><trkpt lat="45.7447207276738" lon="10.105381392207319"><ele>492.3333333333333</ele><time>2026-04-04T13:34:03.999Z</time></trkpt><trkpt lat="45.74478292377618" lon="10.10539661071547"><ele>492.0</ele><time>2026-04-04T13:34:05.999Z</time></trkpt><trkpt lat="45.7448620504432" lon="10.105386116527827"><ele>492.0</ele><time>2026-04-04T13:34:08.999Z</time></trkpt><trkpt lat="45.744942397964564" lon="10.105389339182283"><ele>492.0</ele><time>2026-04-04T13:34:11.999Z</time></trkpt><trkpt lat="45.745026072723824" lon="10.105395290960923"><ele>492.0</ele><time>2026-04-04T13:34:14.999Z</time></trkpt><trkpt lat="45.74508920590253" lon="10.105393025012951"><ele>492.0</ele><time>2026-04-04T13:34:17.999Z</time></trkpt><trkpt lat="45.74517200706073" lon="10.105411249786854"><ele>492.0</ele><time>2026-04-04T13:34:20.999Z</time></trkpt><trkpt lat="45.74524806003646" lon="10.1054465023926"><ele>492.0</ele><time>2026-04-04T13:34:23.999Z</time></trkpt><trkpt lat="45.74532546195049" lon="10.105472324755016"><ele>491.28571428571433</ele><time>2026-04-04T13:34:26.999Z</time></trkpt><trkpt lat="45.74538762135812" lon="10.105506930254817"><ele>490.57142857142856</ele><time>2026-04-04T13:34:29.999Z</time></trkpt><trkpt lat="45.74544624380633" lon="10.1055680825431"><ele>489.8571428571429</ele><time>2026-04-04T13:34:35.999Z</time></trkpt><trkpt lat="45.74551099748135" lon="10.10559183258094"><ele>489.14285714285717</ele><time>2026-04-04T13:35:23.998Z</time></trkpt><trkpt lat="45.74557129561047" lon="10.105633811545175"><ele>488.42857142857144</ele><time>2026-04-04T13:35:27.998Z</time></trkpt><trkpt lat="45.74563388919023" lon="10.105687709609152"><ele>487.7142857142857</ele><time>2026-04-04T13:35:30.998Z</time></trkpt><trkpt lat="45.74569977338084" lon="10.105747311305073"><ele>487.0</ele><time>2026-04-04T13:35:33.998Z</time></trkpt><trkpt lat="45.745754579460986" lon="10.105803807186609"><ele>488.50000000000006</ele><time>2026-04-04T13:35:37Z</time></trkpt><trkpt lat="45.745817385086085" lon="10.105857790994088"><ele>490.0</ele><time>2026-04-04T13:35:40Z</time></trkpt><trkpt lat="45.745884812925944" lon="10.105902047762994"><ele>491.5</ele><time>2026-04-04T13:35:43Z</time></trkpt><trkpt lat="45.74595760959719" lon="10.105958541806002"><ele>493.0</ele><time>2026-04-04T13:35:46Z</time></trkpt><trkpt lat="45.74603313311277" lon="10.106008295342551"><ele>494.50000000000006</ele><time>2026-04-04T13:35:49Z</time></trkpt><trkpt lat="45.746105862671676" lon="10.106057932350357"><ele>496.0</ele><time>2026-04-04T13:35:52Z</time></trkpt><trkpt lat="45.746171522313944" lon="10.106120856250932"><ele>496.00000000000006</ele><time>2026-04-04T13:35:55Z</time></trkpt><trkpt lat="45.74623451300922" lon="10.106185694233375"><ele>496.0</ele><time>2026-04-04T13:35:58Z</time></trkpt><trkpt lat="45.74629272920988" lon="10.106242278131145"><ele>496.0</ele><time>2026-04-04T13:36:01Z</time></trkpt><trkpt lat="45.746358455948425" lon="10.10630681030781"><ele>496.0</ele><time>2026-04-04T13:36:04Z</time></trkpt><trkpt lat="45.746415461483814" lon="10.10636159934629"><ele>496.00000000000006</ele><time>2026-04-04T13:36:06.999Z</time></trkpt><trkpt lat="45.74647400105108" lon="10.106427630978464"><ele>496.0</ele><time>2026-04-04T13:36:09.999Z</time></trkpt><trkpt lat="45.74653367887668" lon="10.10650249752921"><ele>496.0</ele><time>2026-04-04T13:36:12.999Z</time></trkpt><trkpt lat="45.74658334031565" lon="10.10655816317086"><ele>496.00000000000006</ele><time>2026-04-04T13:36:14.999Z</time></trkpt><trkpt lat="45.74664144344403" lon="10.106617944725379"><ele>496.0</ele><time>2026-04-04T13:36:17.999Z</time></trkpt><trkpt lat="45.746702246300266" lon="10.106680593999721"><ele>496.0</ele><time>2026-04-04T13:36:20.999Z</time></trkpt><trkpt lat="45.7467582796692" lon="10.10675056011277"><ele>496.00000000000006</ele><time>2026-04-04T13:36:23.999Z</time></trkpt><trkpt lat="45.74682188887238" lon="10.106822401364754"><ele>496.0</ele><time>2026-04-04T13:36:26.999Z</time></trkpt><trkpt lat="45.746883267961906" lon="10.106890093066529"><ele>496.0</ele><time>2026-04-04T13:36:29.999Z</time></trkpt><trkpt lat="45.74694458121115" lon="10.106957255680092"><ele>497.50000000000006</ele><time>2026-04-04T13:36:32.999Z</time></trkpt><trkpt lat="45.74701809560237" lon="10.107031337694272"><ele>499.0</ele><time>2026-04-04T13:36:35.999Z</time></trkpt><trkpt lat="45.74707341535402" lon="10.107093292505198"><ele>500.5</ele><time>2026-04-04T13:36:38.999Z</time></trkpt><trkpt lat="45.747134899275295" lon="10.107154531612302"><ele>502.0</ele><time>2026-04-04T13:36:41.999Z</time></trkpt><trkpt lat="45.747193450522815" lon="10.107218010693625"><ele>503.50000000000006</ele><time>2026-04-04T13:36:44.999Z</time></trkpt><trkpt lat="45.74725114170275" lon="10.107284278919044"><ele>505.0</ele><time>2026-04-04T13:36:47.999Z</time></trkpt><trkpt lat="45.747308676534836" lon="10.1073514633285"><ele>509.33333333333337</ele><time>2026-04-04T13:36:50.999Z</time></trkpt><trkpt lat="45.74737116501162" lon="10.107416916098863"><ele>513.6666666666667</ele><time>2026-04-04T13:36:53.999Z</time></trkpt><trkpt lat="45.74743360875792" lon="10.107478634895044"><ele>518.0</ele><time>2026-04-04T13:36:56.999Z</time></trkpt><trkpt lat="45.747497646879545" lon="10.10754084229732"><ele>522.3333333333334</ele><time>2026-04-04T13:36:59.999Z</time></trkpt><trkpt lat="45.74756019941701" lon="10.107605102038756"><ele>526.6666666666666</ele><time>2026-04-04T13:37:02.998Z</time></trkpt><trkpt lat="45.7476307408733" lon="10.107681773100301"><ele>531.0</ele><time>2026-04-04T13:37:05.998Z</time></trkpt><trkpt lat="45.74768995182954" lon="10.107742595986117"><ele>527.7142857142858</ele><time>2026-04-04T13:37:08.998Z</time></trkpt><trkpt lat="45.747744824703574" lon="10.107798369642573"><ele>524.4285714285714</ele><time>2026-04-04T13:37:11.998Z</time></trkpt><trkpt lat="45.74780196095519" lon="10.10784975341447"><ele>521.1428571428571</ele><time>2026-04-04T13:37:14.998Z</time></trkpt><trkpt lat="45.74786322765982" lon="10.107901811835541"><ele>517.8571428571429</ele><time>2026-04-04T13:37:17.998Z</time></trkpt><trkpt lat="45.74791811851834" lon="10.107952952380504"><ele>514.5714285714286</ele><time>2026-04-04T13:37:20.998Z</time></trkpt><trkpt lat="45.747984488600245" lon="10.10800978283969"><ele>511.28571428571433</ele><time>2026-04-04T13:37:23.998Z</time></trkpt><trkpt lat="45.74803758396341" lon="10.108069768061888"><ele>508.0</ele><time>2026-04-04T13:37:26.998Z</time></trkpt><trkpt lat="45.748096715264026" lon="10.108122986724812"><ele>508.0</ele><time>2026-04-04T13:37:29.998Z</time></trkpt><trkpt lat="45.748155351330766" lon="10.108173682032557"><ele>508.0</ele><time>2026-04-04T13:37:32.998Z</time></trkpt><trkpt lat="45.748218554428526" lon="10.10823028809777"><ele>508.0</ele><time>2026-04-04T13:37:35.998Z</time></trkpt><trkpt lat="45.74828172629693" lon="10.10827565282513"><ele>508.0</ele><time>2026-04-04T13:37:38.998Z</time></trkpt><trkpt lat="45.748347858179045" lon="10.108338870184246"><ele>508.0</ele><time>2026-04-04T13:37:42Z</time></trkpt><trkpt lat="45.74840145378162" lon="10.108404261410797"><ele>508.0</ele><time>2026-04-04T13:37:45Z</time></trkpt><trkpt lat="45.74845904118665" lon="10.108465447008095"><ele>508.0</ele><time>2026-04-04T13:37:48Z</time></trkpt><trkpt lat="45.748521082886704" lon="10.108526588624747"><ele>509.83333333333337</ele><time>2026-04-04T13:37:51Z</time></trkpt><trkpt lat="45.748583202727815" lon="10.10860656621134"><ele>511.6666666666667</ele><time>2026-04-04T13:37:54Z</time></trkpt><trkpt lat="45.74864999469799" lon="10.108664830745711"><ele>513.5</ele><time>2026-04-04T13:37:57Z</time></trkpt><trkpt lat="45.74870958180709" lon="10.10873232430973"><ele>515.3333333333334</ele><time>2026-04-04T13:38:00Z</time></trkpt><trkpt lat="45.74875885236363" lon="10.108822567812814"><ele>517.1666666666666</ele><time>2026-04-04T13:38:03Z</time></trkpt><trkpt lat="45.74879870064702" lon="10.108913782575444"><ele>519.0</ele><time>2026-04-04T13:38:06Z</time></trkpt><trkpt lat="45.748833315107085" lon="10.108999265824941"><ele>519.0</ele><time>2026-04-04T13:38:09Z</time></trkpt><trkpt lat="45.74887739941336" lon="10.109068694667627"><ele>519.0</ele><time>2026-04-04T13:38:11.999Z</time></trkpt><trkpt lat="45.74893323060906" lon="10.109143041536477"><ele>519.0</ele><time>2026-04-04T13:38:14.999Z</time></trkpt><trkpt lat="45.74901193952843" lon="10.109195102288856"><ele>519.0</ele><time>2026-04-04T13:38:17.999Z</time></trkpt><trkpt lat="45.74908855749245" lon="10.109206649320859"><ele>519.0</ele><time>2026-04-04T13:38:20.999Z</time></trkpt><trkpt lat="45.74915364286439" lon="10.10922066360249"><ele>519.0</ele><time>2026-04-04T13:38:23.999Z</time></trkpt><trkpt lat="45.74922194793309" lon="10.109233761451621"><ele>519.0</ele><time>2026-04-04T13:38:26.999Z</time></trkpt><trkpt lat="45.74929285447121" lon="10.109253718858643"><ele>521.2857142857142</ele><time>2026-04-04T13:38:29.999Z</time></trkpt><trkpt lat="45.74936535053684" lon="10.10927291722909"><ele>523.5714285714286</ele><time>2026-04-04T13:38:32.999Z</time></trkpt><trkpt lat="45.74943914778098" lon="10.109284110433446"><ele>525.8571428571429</ele><time>2026-04-04T13:38:35.999Z</time></trkpt><trkpt lat="45.749511324959535" lon="10.10929249065454"><ele>528.1428571428571</ele><time>2026-04-04T13:38:38.999Z</time></trkpt><trkpt lat="45.7495776317004" lon="10.109332540738942"><ele>530.4285714285714</ele><time>2026-04-04T13:38:41.999Z</time></trkpt><trkpt lat="45.74959962875311" lon="10.109427834151276"><ele>532.7142857142857</ele><time>2026-04-04T13:38:44.999Z</time></trkpt><trkpt lat="45.74954475108504" lon="10.109499856956116"><ele>535.0</ele><time>2026-04-04T13:38:47.999Z</time></trkpt><trkpt lat="45.749478839293005" lon="10.10947654038266"><ele>535.0</ele><time>2026-04-04T13:38:50.999Z</time></trkpt><trkpt lat="45.74941354505273" lon="10.109447570168461"><ele>535.0</ele><time>2026-04-04T13:38:52.999Z</time></trkpt><trkpt lat="45.74934453420493" lon="10.109412697264721"><ele>535.0</ele><time>2026-04-04T13:38:55.999Z</time></trkpt><trkpt lat="45.74927320415193" lon="10.109380233800426"><ele>535.0</ele><time>2026-04-04T13:38:58.999Z</time></trkpt><trkpt lat="45.749195500755775" lon="10.1093558359641"><ele>535.0</ele><time>2026-04-04T13:39:01.999Z</time></trkpt><trkpt lat="45.749116376212996" lon="10.109348116589777"><ele>535.0</ele><time>2026-04-04T13:39:04.998Z</time></trkpt><trkpt lat="45.74903229052884" lon="10.10936103176744"><ele>537.3333333333334</ele><time>2026-04-04T13:39:07.998Z</time></trkpt><trkpt lat="45.74895632454322" lon="10.109372799442298"><ele>539.6666666666667</ele><time>2026-04-04T13:39:10.998Z</time></trkpt><trkpt lat="45.748875813770645" lon="10.109359704960076"><ele>542.0</ele><time>2026-04-04T13:39:13.998Z</time></trkpt><trkpt lat="45.74879814252106" lon="10.109336681036469"><ele>544.3333333333334</ele><time>2026-04-04T13:39:16.998Z</time></trkpt><trkpt lat="45.748732618827596" lon="10.109290651394035"><ele>546.6666666666666</ele><time>2026-04-04T13:39:19.998Z</time></trkpt><trkpt lat="45.74866612120579" lon="10.10923748017235"><ele>549.0</ele><time>2026-04-04T13:39:22.998Z</time></trkpt><trkpt lat="45.748597395241205" lon="10.109185932596125"><ele>548.1666666666666</ele><time>2026-04-04T13:39:25.998Z</time></trkpt><trkpt lat="45.74852852579155" lon="10.10913261792228"><ele>547.3333333333334</ele><time>2026-04-04T13:39:28.998Z</time></trkpt><trkpt lat="45.74845890827241" lon="10.109073738662637"><ele>546.5</ele><time>2026-04-04T13:39:31.998Z</time></trkpt><trkpt lat="45.748393136429954" lon="10.109022027999655"><ele>545.6666666666667</ele><time>2026-04-04T13:39:34.998Z</time></trkpt><trkpt lat="45.748320624084734" lon="10.108968874754831"><ele>544.8333333333334</ele><time>2026-04-04T13:39:37.998Z</time></trkpt><trkpt lat="45.748254338406824" lon="10.1089187867721"><ele>544.0</ele><time>2026-04-04T13:39:40.998Z</time></trkpt><trkpt lat="45.7481815352255" lon="10.108868992023648"><ele>544.0</ele><time>2026-04-04T13:39:43.998Z</time></trkpt><trkpt lat="45.74811676672817" lon="10.108813395285205"><ele>544.0</ele><time>2026-04-04T13:39:46.998Z</time></trkpt><trkpt lat="45.74805568584483" lon="10.10876604683773"><ele>544.0</ele><time>2026-04-04T13:39:50Z</time></trkpt><trkpt lat="45.74798124465894" lon="10.10871630266833"><ele>544.0</ele><time>2026-04-04T13:39:53Z</time></trkpt><trkpt lat="45.74790022433656" lon="10.108723289317483"><ele>544.0</ele><time>2026-04-04T13:39:56Z</time></trkpt><trkpt lat="45.74784328897893" lon="10.10880863028966"><ele>544.0</ele><time>2026-04-04T13:39:59Z</time></trkpt><trkpt lat="45.74785174463871" lon="10.108925631800048"><ele>543.9999999999999</ele><time>2026-04-04T13:40:02Z</time></trkpt><trkpt lat="45.747896053899524" lon="10.109001148678992"><ele>544.0</ele><time>2026-04-04T13:40:04Z</time></trkpt><trkpt lat="45.74795312080296" lon="10.109045374577212"><ele>544.0</ele><time>2026-04-04T13:40:06Z</time></trkpt><trkpt lat="45.74801656787116" lon="10.109071633433242"><ele>544.0</ele><time>2026-04-04T13:40:08Z</time></trkpt><trkpt lat="45.7480875251016" lon="10.109122029711232"><ele>544.0</ele><time>2026-04-04T13:40:10Z</time></trkpt><trkpt lat="45.74815714503569" lon="10.109168447529598"><ele>543.9999999999999</ele><time>2026-04-04T13:40:12Z</time></trkpt><trkpt lat="45.74821245581632" lon="10.109226217339147"><ele>544.0</ele><time>2026-04-04T13:40:14Z</time></trkpt><trkpt lat="45.748271947719914" lon="10.10927311617884"><ele>544.8333333333334</ele><time>2026-04-04T13:40:15.999Z</time></trkpt><trkpt lat="45.74831137919941" lon="10.109353001014899"><ele>545.6666666666667</ele><time>2026-04-04T13:40:17.999Z</time></trkpt><trkpt lat="45.74835384979805" lon="10.109432011003737"><ele>546.5</ele><time>2026-04-04T13:40:19.999Z</time></trkpt><trkpt lat="45.74841355902981" lon="10.109526725886427"><ele>547.3333333333334</ele><time>2026-04-04T13:40:22.999Z</time></trkpt><trkpt lat="45.74845770772177" lon="10.109591116730734"><ele>548.1666666666666</ele><time>2026-04-04T13:40:25.999Z</time></trkpt><trkpt lat="45.748518468457235" lon="10.109661698919542"><ele>549.0</ele><time>2026-04-04T13:40:28.999Z</time></trkpt><trkpt lat="45.74859097512761" lon="10.10973107379861"><ele>549.0</ele><time>2026-04-04T13:40:31.999Z</time></trkpt><trkpt lat="45.748666103586295" lon="10.109776782948826"><ele>549.0</ele><time>2026-04-04T13:40:34.999Z</time></trkpt><trkpt lat="45.748743522185826" lon="10.10981996430571"><ele>549.0</ele><time>2026-04-04T13:40:36.999Z</time></trkpt><trkpt lat="45.748832550942126" lon="10.109862813601074"><ele>549.0</ele><time>2026-04-04T13:40:39.999Z</time></trkpt><trkpt lat="45.748894277878485" lon="10.109896023597596"><ele>549.0</ele><time>2026-04-04T13:40:41.999Z</time></trkpt><trkpt lat="45.74896164112591" lon="10.109923369540136"><ele>549.0</ele><time>2026-04-04T13:40:43.999Z</time></trkpt><trkpt lat="45.749046810707384" lon="10.109971369451868"><ele>551.2857142857142</ele><time>2026-04-04T13:40:46.999Z</time></trkpt><trkpt lat="45.74910523487092" lon="10.110009094934817"><ele>553.5714285714286</ele><time>2026-04-04T13:40:48.999Z</time></trkpt><trkpt lat="45.749169074547154" lon="10.110037949060748"><ele>555.8571428571429</ele><time>2026-04-04T13:40:50.999Z</time></trkpt><trkpt lat="45.74922918008066" lon="10.110068352839212"><ele>558.1428571428571</ele><time>2026-04-04T13:40:52.999Z</time></trkpt><trkpt lat="45.74931357936335" lon="10.11012229418747"><ele>560.4285714285714</ele><time>2026-04-04T13:40:55.999Z</time></trkpt><trkpt lat="45.74937429715338" lon="10.110162090113292"><ele>562.7142857142857</ele><time>2026-04-04T13:40:58.999Z</time></trkpt><trkpt lat="45.749444507889834" lon="10.110221508462647"><ele>565.0</ele><time>2026-04-04T13:41:01.999Z</time></trkpt><trkpt lat="45.74951175523611" lon="10.11027288871799"><ele>565.0</ele><time>2026-04-04T13:41:04.999Z</time></trkpt><trkpt lat="45.74957955892419" lon="10.11033493997787"><ele>565.0</ele><time>2026-04-04T13:41:07.999Z</time></trkpt><trkpt lat="45.749644708503496" lon="10.110379368383676"><ele>565.0</ele><time>2026-04-04T13:41:09.998Z</time></trkpt><trkpt lat="45.74969845634231" lon="10.11043991384477"><ele>565.0</ele><time>2026-04-04T13:41:11.998Z</time></trkpt><trkpt lat="45.74975335529843" lon="10.110486647625942"><ele>565.0</ele><time>2026-04-04T13:41:13.998Z</time></trkpt><trkpt lat="45.74982675474781" lon="10.110555656310888"><ele>565.0</ele><time>2026-04-04T13:41:16.998Z</time></trkpt><trkpt lat="45.749899677162816" lon="10.110626196498972"><ele>565.0</ele><time>2026-04-04T13:41:19.998Z</time></trkpt><trkpt lat="45.74995782741484" lon="10.110703933391768"><ele>565.0</ele><time>2026-04-04T13:41:22.998Z</time></trkpt><trkpt lat="45.75000946624919" lon="10.110763572398014"><ele>565.0</ele><time>2026-04-04T13:41:24.998Z</time></trkpt><trkpt lat="45.75007617290703" lon="10.11084120222524"><ele>565.0</ele><time>2026-04-04T13:41:27.998Z</time></trkpt><trkpt lat="45.750150040421545" lon="10.110907860827934"><ele>565.0</ele><time>2026-04-04T13:41:30.998Z</time></trkpt><trkpt lat="45.75022040091065" lon="10.1109594869329"><ele>565.0</ele><time>2026-04-04T13:41:33.998Z</time></trkpt><trkpt lat="45.750295350617" lon="10.111010873235928"><ele>568.0</ele><time>2026-04-04T13:41:36.998Z</time></trkpt><trkpt lat="45.750373175112195" lon="10.111055923614451"><ele>571.0</ele><time>2026-04-04T13:41:39.998Z</time></trkpt><trkpt lat="45.75045572628661" lon="10.111104392356172"><ele>574.0</ele><time>2026-04-04T13:41:42.998Z</time></trkpt><trkpt lat="45.75053888335744" lon="10.111158069613621"><ele>577.0</ele><time>2026-04-04T13:41:45.998Z</time></trkpt><trkpt lat="45.750619858828514" lon="10.111212438005294"><ele>580.0</ele><time>2026-04-04T13:41:48.998Z</time></trkpt><trkpt lat="45.750700518111934" lon="10.111254313653541"><ele>583.0</ele><time>2026-04-04T13:41:51.998Z</time></trkpt><trkpt lat="45.75077772148464" lon="10.111296658763356"><ele>583.0</ele><time>2026-04-04T13:41:55Z</time></trkpt><trkpt lat="45.750856319565095" lon="10.111342631992411"><ele>583.0</ele><time>2026-04-04T13:41:58Z</time></trkpt><trkpt lat="45.750938197879464" lon="10.11136258344355"><ele>583.0</ele><time>2026-04-04T13:42:01Z</time></trkpt><trkpt lat="45.75101992167601" lon="10.111390775236393"><ele>583.0</ele><time>2026-04-04T13:42:04Z</time></trkpt><trkpt lat="45.751093897971096" lon="10.111399254268349"><ele>583.0</ele><time>2026-04-04T13:42:07Z</time></trkpt><trkpt lat="45.751172368764585" lon="10.111415314313847"><ele>583.0</ele><time>2026-04-04T13:42:10Z</time></trkpt><trkpt lat="45.751247054297366" lon="10.111425963535288"><ele>584.0</ele><time>2026-04-04T13:42:13Z</time></trkpt><trkpt lat="45.7513228049078" lon="10.111435682298413"><ele>585.0</ele><time>2026-04-04T13:42:16Z</time></trkpt><trkpt lat="45.75140135161596" lon="10.111442622793481"><ele>586.0</ele><time>2026-04-04T13:42:19Z</time></trkpt><trkpt lat="45.751471666335306" lon="10.111453167129607"><ele>587.0</ele><time>2026-04-04T13:42:21.999Z</time></trkpt><trkpt lat="45.75154758396187" lon="10.111470053326984"><ele>588.0</ele><time>2026-04-04T13:42:24.999Z</time></trkpt><trkpt lat="45.75162453155629" lon="10.111499179765351"><ele>589.0</ele><time>2026-04-04T13:42:27.999Z</time></trkpt><trkpt lat="45.75169269543246" lon="10.111533900816726"><ele>591.8333333333334</ele><time>2026-04-04T13:42:30.999Z</time></trkpt><trkpt lat="45.75175408587651" lon="10.111583128333365"><ele>594.6666666666667</ele><time>2026-04-04T13:42:33.999Z</time></trkpt><trkpt lat="45.751824136422826" lon="10.111613801443019"><ele>597.5</ele><time>2026-04-04T13:42:36.999Z</time></trkpt><trkpt lat="45.75188925280845" lon="10.111645048329096"><ele>600.3333333333334</ele><time>2026-04-04T13:42:39.999Z</time></trkpt><trkpt lat="45.751963031983244" lon="10.11171138935182"><ele>603.1666666666666</ele><time>2026-04-04T13:42:42.999Z</time></trkpt><trkpt lat="45.75202959583805" lon="10.111780226024838"><ele>606.0</ele><time>2026-04-04T13:42:45.999Z</time></trkpt><trkpt lat="45.75208984542132" lon="10.111840504558025"><ele>606.5</ele><time>2026-04-04T13:42:48.999Z</time></trkpt><trkpt lat="45.7521584196659" lon="10.11190874376629"><ele>607.0</ele><time>2026-04-04T13:42:51.999Z</time></trkpt><trkpt lat="45.752222743621495" lon="10.111965090943343"><ele>607.5</ele><time>2026-04-04T13:42:54.999Z</time></trkpt><trkpt lat="45.752278769638046" lon="10.112008012088411"><ele>608.0</ele><time>2026-04-04T13:42:56.999Z</time></trkpt><trkpt lat="45.75234862037437" lon="10.112079275547375"><ele>608.5</ele><time>2026-04-04T13:42:59.999Z</time></trkpt><trkpt lat="45.75242078021001" lon="10.11214711379624"><ele>609.0</ele><time>2026-04-04T13:43:02.999Z</time></trkpt><trkpt lat="45.7524740043012" lon="10.11224978405091"><ele>609.0</ele><time>2026-04-04T13:43:05.999Z</time></trkpt><trkpt lat="45.752513781809206" lon="10.112359898112414"><ele>609.0</ele><time>2026-04-04T13:43:08.999Z</time></trkpt><trkpt lat="45.75254941780492" lon="10.11247981440117"><ele>609.0</ele><time>2026-04-04T13:43:12.998Z</time></trkpt><trkpt lat="45.75257824360576" lon="10.112589837973438"><ele>609.0</ele><time>2026-04-04T13:43:15.998Z</time></trkpt><trkpt lat="45.752604317749615" lon="10.112672045196332"><ele>609.0</ele><time>2026-04-04T13:43:17.998Z</time></trkpt><trkpt lat="45.75262749972887" lon="10.112756617551332"><ele>609.0</ele><time>2026-04-04T13:43:19.998Z</time></trkpt><trkpt lat="45.75265385946115" lon="10.11285227143581"><ele>608.8333333333334</ele><time>2026-04-04T13:43:21.998Z</time></trkpt><trkpt lat="45.752670631930826" lon="10.11295057232013"><ele>608.6666666666666</ele><time>2026-04-04T13:43:23.998Z</time></trkpt><trkpt lat="45.752701967356195" lon="10.113075558701002"><ele>608.5</ele><time>2026-04-04T13:43:25.998Z</time></trkpt><trkpt lat="45.75271553305207" lon="10.113169492168096"><ele>608.3333333333333</ele><time>2026-04-04T13:43:27.998Z</time></trkpt><trkpt lat="45.752727907635865" lon="10.113290015068765"><ele>608.1666666666666</ele><time>2026-04-04T13:43:29.998Z</time></trkpt><trkpt lat="45.75272745290176" lon="10.113398491659048"><ele>608.0</ele><time>2026-04-04T13:43:32.998Z</time></trkpt><trkpt lat="45.75272706810521" lon="10.113515348850312"><ele>608.0</ele><time>2026-04-04T13:43:34.998Z</time></trkpt><trkpt lat="45.75273938081914" lon="10.1136521066638"><ele>608.0</ele><time>2026-04-04T13:43:36.998Z</time></trkpt><trkpt lat="45.752744508790904" lon="10.113749897267686"><ele>608.0</ele><time>2026-04-04T13:43:38.998Z</time></trkpt><trkpt lat="45.752745992763536" lon="10.113872493841113"><ele>608.0</ele><time>2026-04-04T13:43:40.998Z</time></trkpt><trkpt lat="45.7527535888518" lon="10.114001743586119"><ele>608.0</ele><time>2026-04-04T13:43:42.998Z</time></trkpt><trkpt lat="45.75274511122757" lon="10.114112438919525"><ele>608.0</ele><time>2026-04-04T13:43:44.998Z</time></trkpt><trkpt lat="45.752736522521815" lon="10.114228101360013"><ele>607.6666666666666</ele><time>2026-04-04T13:43:46.998Z</time></trkpt><trkpt lat="45.75272767005041" lon="10.11434285759779"><ele>607.3333333333333</ele><time>2026-04-04T13:43:48.998Z</time></trkpt><trkpt lat="45.75271445125504" lon="10.114455758385242"><ele>607.0</ele><time>2026-04-04T13:43:50.998Z</time></trkpt><trkpt lat="45.75270342176267" lon="10.114570444462728"><ele>606.6666666666666</ele><time>2026-04-04T13:43:52.998Z</time></trkpt><trkpt lat="45.7526932737225" lon="10.114677966122201"><ele>606.3333333333334</ele><time>2026-04-04T13:43:54.998Z</time></trkpt><trkpt lat="45.752685570895636" lon="10.11478960937283"><ele>606.0</ele><time>2026-04-04T13:43:56.998Z</time></trkpt><trkpt lat="45.75267923732451" lon="10.114901366629757"><ele>609.3333333333334</ele><time>2026-04-04T13:43:58.998Z</time></trkpt><trkpt lat="45.75267080218939" lon="10.115015920655063"><ele>612.6666666666666</ele><time>2026-04-04T13:44:01Z</time></trkpt><trkpt lat="45.752658803546275" lon="10.115131055516668"><ele>616.0</ele><time>2026-04-04T13:44:03Z</time></trkpt><trkpt lat="45.752654577105496" lon="10.115248443572098"><ele>619.3333333333333</ele><time>2026-04-04T13:44:05Z</time></trkpt><trkpt lat="45.75264407695925" lon="10.115367361297988"><ele>622.6666666666666</ele><time>2026-04-04T13:44:07Z</time></trkpt><trkpt lat="45.75263405897816" lon="10.11548634535272"><ele>626.0</ele><time>2026-04-04T13:44:09Z</time></trkpt><trkpt lat="45.75262010508581" lon="10.11560374503887"><ele>626.0</ele><time>2026-04-04T13:44:11Z</time></trkpt><trkpt lat="45.75261568068219" lon="10.115717407954987"><ele>626.0</ele><time>2026-04-04T13:44:13Z</time></trkpt><trkpt lat="45.75261787956322" lon="10.115844469812593"><ele>626.0</ele><time>2026-04-04T13:44:15Z</time></trkpt><trkpt lat="45.75262676373121" lon="10.115962963894345"><ele>626.0</ele><time>2026-04-04T13:44:17Z</time></trkpt><trkpt lat="45.752651569278605" lon="10.11608641365472"><ele>626.0</ele><time>2026-04-04T13:44:19Z</time></trkpt><trkpt lat="45.752679358393564" lon="10.116201994447511"><ele>626.0</ele><time>2026-04-04T13:44:21Z</time></trkpt><trkpt lat="45.75272315418213" lon="10.116320581709804"><ele>624.0</ele><time>2026-04-04T13:44:23Z</time></trkpt><trkpt lat="45.75276650577101" lon="10.116466576214627"><ele>622.0</ele><time>2026-04-04T13:44:24.999Z</time></trkpt><trkpt lat="45.75282773056786" lon="10.116557996516509"><ele>620.0</ele><time>2026-04-04T13:44:26.999Z</time></trkpt><trkpt lat="45.75289148313232" lon="10.116652885434956"><ele>618.0</ele><time>2026-04-04T13:44:28.999Z</time></trkpt><trkpt lat="45.75296314049856" lon="10.11674289048787"><ele>616.0</ele><time>2026-04-04T13:44:30.999Z</time></trkpt><trkpt lat="45.75303465650612" lon="10.116824316378551"><ele>616.0</ele><time>2026-04-04T13:44:32.999Z</time></trkpt><trkpt lat="45.7531116676063" lon="10.116900752241953"><ele>616.0</ele><time>2026-04-04T13:44:34.999Z</time></trkpt><trkpt lat="45.753192602790314" lon="10.116974885062353"><ele>616.0</ele><time>2026-04-04T13:44:36.999Z</time></trkpt><trkpt lat="45.753271969261256" lon="10.117050590397328"><ele>616.0</ele><time>2026-04-04T13:44:38.999Z</time></trkpt><trkpt lat="45.75335653820794" lon="10.117131089167916"><ele>616.0</ele><time>2026-04-04T13:44:40.999Z</time></trkpt><trkpt lat="45.75344482976167" lon="10.117214032470212"><ele>616.0</ele><time>2026-04-04T13:44:42.999Z</time></trkpt><trkpt lat="45.75353573472011" lon="10.11729863248527"><ele>616.0</ele><time>2026-04-04T13:44:44.999Z</time></trkpt><trkpt lat="45.75362888261996" lon="10.117382748795011"><ele>616.0</ele><time>2026-04-04T13:44:46.999Z</time></trkpt><trkpt lat="45.7537216678735" lon="10.117472656428442"><ele>616.0</ele><time>2026-04-04T13:44:48.999Z</time></trkpt><trkpt lat="45.75381479072566" lon="10.117553993522968"><ele>616.0</ele><time>2026-04-04T13:44:50.999Z</time></trkpt><trkpt lat="45.75390807418193" lon="10.117633466968481"><ele>616.4</ele><time>2026-04-04T13:44:52.999Z</time></trkpt><trkpt lat="45.75399900237346" lon="10.117706128566605"><ele>616.8</ele><time>2026-04-04T13:44:54.999Z</time></trkpt><trkpt lat="45.754098751750355" lon="10.11777933904143"><ele>617.1999999999999</ele><time>2026-04-04T13:44:56.999Z</time></trkpt><trkpt lat="45.75419575399484" lon="10.117837678431226"><ele>617.6</ele><time>2026-04-04T13:44:58.999Z</time></trkpt><trkpt lat="45.75429619033684" lon="10.117897858599147"><ele>618.0</ele><time>2026-04-04T13:45:00.999Z</time></trkpt><trkpt lat="45.75439783819459" lon="10.117955874577808"><ele>618.0</ele><time>2026-04-04T13:45:02.999Z</time></trkpt><trkpt lat="45.75450329304695" lon="10.11800895763999"><ele>618.0</ele><time>2026-04-04T13:45:04.999Z</time></trkpt><trkpt lat="45.754609764195024" lon="10.11805197925253"><ele>618.0</ele><time>2026-04-04T13:45:06.999Z</time></trkpt><trkpt lat="45.754718592957886" lon="10.118096689670674"><ele>618.0</ele><time>2026-04-04T13:45:08.999Z</time></trkpt><trkpt lat="45.75482945854114" lon="10.118129805131355"><ele>618.0</ele><time>2026-04-04T13:45:10.999Z</time></trkpt><trkpt lat="45.75494153558854" lon="10.118161972529444"><ele>618.0</ele><time>2026-04-04T13:45:12.999Z</time></trkpt><trkpt lat="45.75505370896109" lon="10.118190321449926"><ele>618.0</ele><time>2026-04-04T13:45:14.999Z</time></trkpt><trkpt lat="45.75516323520984" lon="10.11820945088194"><ele>618.0</ele><time>2026-04-04T13:45:16.998Z</time></trkpt><trkpt lat="45.755276673641696" lon="10.118231306905198"><ele>618.0</ele><time>2026-04-04T13:45:18.998Z</time></trkpt><trkpt lat="45.755385857684914" lon="10.118256799297582"><ele>618.0</ele><time>2026-04-04T13:45:20.998Z</time></trkpt><trkpt lat="45.755495282573" lon="10.118278677979758"><ele>619.8</ele><time>2026-04-04T13:45:22.998Z</time></trkpt><trkpt lat="45.755606435019494" lon="10.11829781937825"><ele>621.5999999999999</ele><time>2026-04-04T13:45:24.998Z</time></trkpt><trkpt lat="45.75571797520774" lon="10.118320251344791"><ele>623.4000000000001</ele><time>2026-04-04T13:45:26.998Z</time></trkpt><trkpt lat="45.755825301166986" lon="10.118341076326828"><ele>625.2</ele><time>2026-04-04T13:45:28.998Z</time></trkpt><trkpt lat="45.75593598620235" lon="10.11836875769641"><ele>627.0</ele><time>2026-04-04T13:45:30.998Z</time></trkpt><trkpt lat="45.75604325395374" lon="10.118389773273906"><ele>627.6</ele><time>2026-04-04T13:45:32.998Z</time></trkpt><trkpt lat="45.75615477715013" lon="10.118421697761057"><ele>628.2</ele><time>2026-04-04T13:45:34.998Z</time></trkpt><trkpt lat="45.75626467981185" lon="10.118446197743792"><ele>628.8</ele><time>2026-04-04T13:45:36.998Z</time></trkpt><trkpt lat="45.756376611005464" lon="10.118470333904982"><ele>629.4</ele><time>2026-04-04T13:45:38.998Z</time></trkpt><trkpt lat="45.75648408972951" lon="10.118493841419404"><ele>630.0</ele><time>2026-04-04T13:45:40.998Z</time></trkpt><trkpt lat="45.75658802557788" lon="10.118514159992033"><ele>630.0</ele><time>2026-04-04T13:45:42.998Z</time></trkpt><trkpt lat="45.75669186927179" lon="10.118532798367838"><ele>630.0</ele><time>2026-04-04T13:45:44.998Z</time></trkpt><trkpt lat="45.75679161068232" lon="10.118554319473937"><ele>630.0</ele><time>2026-04-04T13:45:46.998Z</time></trkpt><trkpt lat="45.756891707165515" lon="10.118572401397014"><ele>630.0</ele><time>2026-04-04T13:45:48.998Z</time></trkpt><trkpt lat="45.756988696288985" lon="10.118589651538985"><ele>630.0</ele><time>2026-04-04T13:45:50.998Z</time></trkpt><trkpt lat="45.75707365230894" lon="10.118604813777193"><ele>630.0</ele><time>2026-04-04T13:45:52.998Z</time></trkpt><trkpt lat="45.75716582241495" lon="10.118615459085827"><ele>630.0</ele><time>2026-04-04T13:45:54.998Z</time></trkpt><trkpt lat="45.75725302591679" lon="10.118617105150836"><ele>630.0</ele><time>2026-04-04T13:45:56.998Z</time></trkpt><trkpt lat="45.75733486833628" lon="10.118622776961839"><ele>630.0</ele><time>2026-04-04T13:45:58.998Z</time></trkpt><trkpt lat="45.75743303490765" lon="10.118615269777905"><ele>630.0</ele><time>2026-04-04T13:46:01.998Z</time></trkpt><trkpt lat="45.75749719554794" lon="10.118608075851714"><ele>630.0</ele><time>2026-04-04T13:46:02.998Z</time></trkpt><trkpt lat="45.75757891231988" lon="10.118600306497836"><ele>630.0</ele><time>2026-04-04T13:46:04.998Z</time></trkpt><trkpt lat="45.75765444544694" lon="10.118591294964592"><ele>630.0</ele><time>2026-04-04T13:46:07Z</time></trkpt><trkpt lat="45.75772578552272" lon="10.11858763662935"><ele>630.0</ele><time>2026-04-04T13:46:09Z</time></trkpt><trkpt lat="45.75780998822632" lon="10.118577599637975"><ele>630.0</ele><time>2026-04-04T13:46:12Z</time></trkpt><trkpt lat="45.75790315122829" lon="10.118571880429714"><ele>630.0</ele><time>2026-04-04T13:46:14Z</time></trkpt><trkpt lat="45.757967237001616" lon="10.118564424620818"><ele>630.0</ele><time>2026-04-04T13:46:16Z</time></trkpt><trkpt lat="45.75803726317523" lon="10.11856182327178"><ele>630.4285714285714</ele><time>2026-04-04T13:46:18Z</time></trkpt><trkpt lat="45.758131435045556" lon="10.118556620920474"><ele>630.8571428571429</ele><time>2026-04-04T13:46:21Z</time></trkpt><trkpt lat="45.75819927918337" lon="10.118549393307694"><ele>631.2857142857142</ele><time>2026-04-04T13:46:23Z</time></trkpt><trkpt lat="45.75826440281605" lon="10.118541371833523"><ele>631.7142857142858</ele><time>2026-04-04T13:46:25Z</time></trkpt><trkpt lat="45.75833332946307" lon="10.118537414832147"><ele>632.1428571428571</ele><time>2026-04-04T13:46:27Z</time></trkpt><trkpt lat="45.758400078098994" lon="10.11852638683331"><ele>632.5714285714286</ele><time>2026-04-04T13:46:28.999Z</time></trkpt><trkpt lat="45.75846426218487" lon="10.118527145019005"><ele>633.0</ele><time>2026-04-04T13:46:30.999Z</time></trkpt><trkpt lat="45.758529863548354" lon="10.118523096951478"><ele>633.7142857142857</ele><time>2026-04-04T13:46:32.999Z</time></trkpt><trkpt lat="45.75859331113385" lon="10.118527555669965"><ele>634.4285714285714</ele><time>2026-04-04T13:46:34.999Z</time></trkpt><trkpt lat="45.758687800310156" lon="10.118541940611276"><ele>635.1428571428571</ele><time>2026-04-04T13:46:37.999Z</time></trkpt><trkpt lat="45.758751158974526" lon="10.11855196534589"><ele>635.8571428571429</ele><time>2026-04-04T13:46:39.999Z</time></trkpt><trkpt lat="45.75882114260125" lon="10.118560932132093"><ele>636.5714285714286</ele><time>2026-04-04T13:46:41.999Z</time></trkpt><trkpt lat="45.75889238519966" lon="10.118558234037454"><ele>637.2857142857143</ele><time>2026-04-04T13:46:43.999Z</time></trkpt><trkpt lat="45.75895687973389" lon="10.118531947373624"><ele>638.0</ele><time>2026-04-04T13:46:45.999Z</time></trkpt><trkpt lat="45.75902817421884" lon="10.118493145443939"><ele>638.0</ele><time>2026-04-04T13:46:47.999Z</time></trkpt><trkpt lat="45.759097329472596" lon="10.11844596507198"><ele>638.0</ele><time>2026-04-04T13:46:49.999Z</time></trkpt><trkpt lat="45.7591701157235" lon="10.118406417157138"><ele>638.0</ele><time>2026-04-04T13:46:51.999Z</time></trkpt><trkpt lat="45.75924824821053" lon="10.118376340669588"><ele>638.0</ele><time>2026-04-04T13:46:53.999Z</time></trkpt><trkpt lat="45.7593229334583" lon="10.118369297321495"><ele>638.0</ele><time>2026-04-04T13:46:55.999Z</time></trkpt><trkpt lat="45.759411807873725" lon="10.118390284530022"><ele>638.0</ele><time>2026-04-04T13:46:58.999Z</time></trkpt><trkpt lat="45.75950585174301" lon="10.11840324298849"><ele>639.6666666666666</ele><time>2026-04-04T13:47:01.999Z</time></trkpt><trkpt lat="45.759739888268335" lon="10.118418340321321"><ele>641.3333333333334</ele><time>2026-04-04T13:47:03.999Z</time></trkpt><trkpt lat="45.75985533511642" lon="10.118427709309284"><ele>643.0</ele><time>2026-04-04T13:47:05.999Z</time></trkpt><trkpt lat="45.759970221268865" lon="10.118428564795366"><ele>643.0</ele><time>2026-04-04T13:47:07.999Z</time></trkpt><trkpt lat="45.76008537661169" lon="10.118425149860405"><ele>643.0</ele><time>2026-04-04T13:47:09.999Z</time></trkpt><trkpt lat="45.76020235702784" lon="10.118415198589016"><ele>643.0</ele><time>2026-04-04T13:47:11.999Z</time></trkpt><trkpt lat="45.760315389345465" lon="10.118399445024979"><ele>643.0</ele><time>2026-04-04T13:47:13.999Z</time></trkpt><trkpt lat="45.76043081316911" lon="10.11836526014345"><ele>644.0</ele><time>2026-04-04T13:47:15.999Z</time></trkpt><trkpt lat="45.76054770996459" lon="10.11833396812807"><ele>645.0</ele><time>2026-04-04T13:47:17.999Z</time></trkpt><trkpt lat="45.76066261667725" lon="10.118280311725506"><ele>646.0</ele><time>2026-04-04T13:47:19.999Z</time></trkpt><trkpt lat="45.76076564097188" lon="10.118173066342354"><ele>647.0</ele><time>2026-04-04T13:47:21.999Z</time></trkpt><trkpt lat="45.76081526701762" lon="10.118107825439099"><ele>648.0</ele><time>2026-04-04T13:47:22.998Z</time></trkpt><trkpt lat="45.760826860074964" lon="10.118002616523937"><ele>648.0</ele><time>2026-04-04T13:47:23.998Z</time></trkpt><trkpt lat="45.7608257160875" lon="10.11790162983548"><ele>648.0</ele><time>2026-04-04T13:47:24.998Z</time></trkpt><trkpt lat="45.76080159315259" lon="10.117810389994476"><ele>648.0</ele><time>2026-04-04T13:47:25.998Z</time></trkpt><trkpt lat="45.76071234610396" lon="10.117733919944804"><ele>648.0</ele><time>2026-04-04T13:47:26.998Z</time></trkpt><trkpt lat="45.76066762089146" lon="10.117667742254461"><ele>648.0</ele><time>2026-04-04T13:47:27.998Z</time></trkpt><trkpt lat="45.76056933123379" lon="10.117558111193752"><ele>648.0</ele><time>2026-04-04T13:47:29.998Z</time></trkpt><trkpt lat="45.7604854762442" lon="10.117445068887768"><ele>647.5999999999999</ele><time>2026-04-04T13:47:31.998Z</time></trkpt><trkpt lat="45.76040283670801" lon="10.117337327832978"><ele>647.1999999999999</ele><time>2026-04-04T13:47:33.998Z</time></trkpt><trkpt lat="45.76031781567619" lon="10.117241507170004"><ele>646.8</ele><time>2026-04-04T13:47:35.998Z</time></trkpt><trkpt lat="45.76022549546435" lon="10.117188858566621"><ele>646.4</ele><time>2026-04-04T13:47:37.998Z</time></trkpt><trkpt lat="45.7601244568494" lon="10.117159292596376"><ele>646.0</ele><time>2026-04-04T13:47:39.998Z</time></trkpt><trkpt lat="45.76003028239247" lon="10.117109966388531"><ele>646.0</ele><time>2026-04-04T13:47:41.998Z</time></trkpt><trkpt lat="45.760028803074036" lon="10.116956628534224"><ele>646.0</ele><time>2026-04-04T13:47:43.998Z</time></trkpt><trkpt lat="45.76007631691775" lon="10.116820593246725"><ele>646.0</ele><time>2026-04-04T13:47:45.998Z</time></trkpt><trkpt lat="45.760112275517116" lon="10.116683109515947"><ele>646.0</ele><time>2026-04-04T13:47:47.998Z</time></trkpt><trkpt lat="45.76015804559518" lon="10.116545434896441"><ele>646.0</ele><time>2026-04-04T13:47:49.998Z</time></trkpt><trkpt lat="45.76020758766815" lon="10.116408379362447"><ele>648.0</ele><time>2026-04-04T13:47:51.998Z</time></trkpt><trkpt lat="45.760250621939065" lon="10.116261476929157"><ele>650.0</ele><time>2026-04-04T13:47:53.998Z</time></trkpt><trkpt lat="45.760297930589736" lon="10.116113806609059"><ele>652.0</ele><time>2026-04-04T13:47:55.998Z</time></trkpt><trkpt lat="45.76034985899015" lon="10.115966326149525"><ele>654.0</ele><time>2026-04-04T13:47:57.998Z</time></trkpt><trkpt lat="45.76039394939496" lon="10.115815741017423"><ele>652.5</ele><time>2026-04-04T13:47:59.998Z</time></trkpt><trkpt lat="45.76044293575495" lon="10.115662951224094"><ele>651.0</ele><time>2026-04-04T13:48:01.998Z</time></trkpt><trkpt lat="45.76049086077599" lon="10.115508097034077"><ele>649.5</ele><time>2026-04-04T13:48:03.998Z</time></trkpt><trkpt lat="45.76053777089171" lon="10.11535020525939"><ele>648.0</ele><time>2026-04-04T13:48:05.998Z</time></trkpt><trkpt lat="45.76058485555058" lon="10.11519771878443"><ele>648.0</ele><time>2026-04-04T13:48:07.998Z</time></trkpt><trkpt lat="45.760612830507974" lon="10.115041851922438"><ele>648.0</ele><time>2026-04-04T13:48:09.998Z</time></trkpt><trkpt lat="45.76063207588695" lon="10.114878880628424"><ele>648.0</ele><time>2026-04-04T13:48:12Z</time></trkpt><trkpt lat="45.76064341970135" lon="10.114718573051002"><ele>648.0</ele><time>2026-04-04T13:48:14Z</time></trkpt><trkpt lat="45.7606388103433" lon="10.114565198603293"><ele>648.0</ele><time>2026-04-04T13:48:16Z</time></trkpt><trkpt lat="45.76063650396822" lon="10.114418000509762"><ele>649.0</ele><time>2026-04-04T13:48:18Z</time></trkpt><trkpt lat="45.760625249523656" lon="10.114282271773543"><ele>650.0</ele><time>2026-04-04T13:48:20Z</time></trkpt><trkpt lat="45.76060594906146" lon="10.11414938744447"><ele>651.0</ele><time>2026-04-04T13:48:22Z</time></trkpt><trkpt lat="45.760578649846" lon="10.114035257206908"><ele>652.0</ele><time>2026-04-04T13:48:24Z</time></trkpt><trkpt lat="45.76055124457133" lon="10.11391832505579"><ele>653.0</ele><time>2026-04-04T13:48:26Z</time></trkpt><trkpt lat="45.76050578359901" lon="10.113808208982407"><ele>654.3333333333333</ele><time>2026-04-04T13:48:28Z</time></trkpt><trkpt lat="45.76046500867886" lon="10.113695781704221"><ele>655.6666666666666</ele><time>2026-04-04T13:48:30Z</time></trkpt><trkpt lat="45.76042585750681" lon="10.11359934044494"><ele>657.0</ele><time>2026-04-04T13:48:32Z</time></trkpt><trkpt lat="45.760384124143734" lon="10.113495802774924"><ele>658.3333333333334</ele><time>2026-04-04T13:48:33.999Z</time></trkpt><trkpt lat="45.76034555217785" lon="10.11339383518682"><ele>659.6666666666667</ele><time>2026-04-04T13:48:35.999Z</time></trkpt><trkpt lat="45.760295585610784" lon="10.113271179562737"><ele>661.0</ele><time>2026-04-04T13:48:38.999Z</time></trkpt><trkpt lat="45.76025426108451" lon="10.113177262078791"><ele>660.1666666666667</ele><time>2026-04-04T13:48:40.999Z</time></trkpt><trkpt lat="45.760208277152216" lon="10.113075268666302"><ele>659.3333333333334</ele><time>2026-04-04T13:48:42.999Z</time></trkpt><trkpt lat="45.76016817425352" lon="10.112974951246242"><ele>658.5</ele><time>2026-04-04T13:48:44.999Z</time></trkpt><trkpt lat="45.760122260241786" lon="10.112876298456895"><ele>657.6666666666666</ele><time>2026-04-04T13:48:46.999Z</time></trkpt><trkpt lat="45.76006494469791" lon="10.112736121738074"><ele>656.8333333333333</ele><time>2026-04-04T13:48:48.999Z</time></trkpt><trkpt lat="45.76003958440408" lon="10.112632555670753"><ele>656.0</ele><time>2026-04-04T13:48:50.999Z</time></trkpt><trkpt lat="45.7600123696684" lon="10.112527178429922"><ele>656.0</ele><time>2026-04-04T13:48:52.999Z</time></trkpt><trkpt lat="45.759989295513556" lon="10.112430093858949"><ele>656.0</ele><time>2026-04-04T13:48:54.999Z</time></trkpt><trkpt lat="45.759975060882525" lon="10.112336324703158"><ele>656.0</ele><time>2026-04-04T13:48:56.999Z</time></trkpt><trkpt lat="45.75996014375038" lon="10.112244702973669"><ele>656.0</ele><time>2026-04-04T13:48:58.999Z</time></trkpt><trkpt lat="45.75994712296689" lon="10.11210953037871"><ele>656.0</ele><time>2026-04-04T13:49:01.999Z</time></trkpt><trkpt lat="45.759944214711304" lon="10.11198411800981"><ele>656.0</ele><time>2026-04-04T13:49:04.999Z</time></trkpt><trkpt lat="45.75994131391463" lon="10.111891692151556"><ele>656.6666666666666</ele><time>2026-04-04T13:49:06.999Z</time></trkpt><trkpt lat="45.75994726292295" lon="10.11175959451351"><ele>657.3333333333333</ele><time>2026-04-04T13:49:09.999Z</time></trkpt><trkpt lat="45.7599492601169" lon="10.111668674145603"><ele>658.0</ele><time>2026-04-04T13:49:11.999Z</time></trkpt><trkpt lat="45.75995803083822" lon="10.111538811186241"><ele>658.6666666666666</ele><time>2026-04-04T13:49:14.999Z</time></trkpt><trkpt lat="45.75997079578686" lon="10.11141026092487"><ele>659.3333333333334</ele><time>2026-04-04T13:49:17.999Z</time></trkpt><trkpt lat="45.75998977590985" lon="10.111284626944098"><ele>660.0</ele><time>2026-04-04T13:49:20.999Z</time></trkpt><trkpt lat="45.760007483323214" lon="10.11117009628266"><ele>660.1666666666666</ele><time>2026-04-04T13:49:23.999Z</time></trkpt><trkpt lat="45.760021688153806" lon="10.111053671536215"><ele>660.3333333333334</ele><time>2026-04-04T13:49:26.998Z</time></trkpt><trkpt lat="45.76004056999048" lon="10.110937165611425"><ele>660.5</ele><time>2026-04-04T13:49:29.998Z</time></trkpt><trkpt lat="45.76006435783466" lon="10.110803861462708"><ele>660.6666666666667</ele><time>2026-04-04T13:49:31.998Z</time></trkpt><trkpt lat="45.76008253579011" lon="10.110699022109117"><ele>660.8333333333334</ele><time>2026-04-04T13:49:33.998Z</time></trkpt><trkpt lat="45.76010025259301" lon="10.110612097278553"><ele>661.0</ele><time>2026-04-04T13:49:35.998Z</time></trkpt><trkpt lat="45.76011371387832" lon="10.110518345165826"><ele>661.0</ele><time>2026-04-04T13:49:37.998Z</time></trkpt><trkpt lat="45.76012268714655" lon="10.110428865568908"><ele>661.0</ele><time>2026-04-04T13:49:39.998Z</time></trkpt><trkpt lat="45.76014006579849" lon="10.110335960441128"><ele>661.0</ele><time>2026-04-04T13:49:41.998Z</time></trkpt><trkpt lat="45.76015776381125" lon="10.110244694053389"><ele>661.0</ele><time>2026-04-04T13:49:43.998Z</time></trkpt><trkpt lat="45.76017227302332" lon="10.11015190182771"><ele>661.0</ele><time>2026-04-04T13:49:45.998Z</time></trkpt><trkpt lat="45.76019155213781" lon="10.110059478248665"><ele>661.0</ele><time>2026-04-04T13:49:47.998Z</time></trkpt><trkpt lat="45.760207914704196" lon="10.109965625720058"><ele>661.0</ele><time>2026-04-04T13:49:49.998Z</time></trkpt><trkpt lat="45.760229563587004" lon="10.109867567271456"><ele>663.1428571428571</ele><time>2026-04-04T13:49:51.998Z</time></trkpt><trkpt lat="45.760245996611495" lon="10.109775587427022"><ele>665.2857142857143</ele><time>2026-04-04T13:49:53.998Z</time></trkpt><trkpt lat="45.76025774575325" lon="10.109677064623348"><ele>667.4285714285714</ele><time>2026-04-04T13:49:55.998Z</time></trkpt><trkpt lat="45.76027326507131" lon="10.109579234060044"><ele>669.5714285714286</ele><time>2026-04-04T13:49:57.998Z</time></trkpt><trkpt lat="45.76028676632424" lon="10.109485571487994"><ele>671.7142857142857</ele><time>2026-04-04T13:49:59.998Z</time></trkpt><trkpt lat="45.76030122550322" lon="10.109396032532604"><ele>673.8571428571429</ele><time>2026-04-04T13:50:01.998Z</time></trkpt><trkpt lat="45.760314580176086" lon="10.109307210244115"><ele>676.0</ele><time>2026-04-04T13:50:03.998Z</time></trkpt><trkpt lat="45.760330482030255" lon="10.10921812194346"><ele>676.0</ele><time>2026-04-04T13:50:05.998Z</time></trkpt><trkpt lat="45.76035256943358" lon="10.109120391292144"><ele>676.0</ele><time>2026-04-04T13:50:07.998Z</time></trkpt><trkpt lat="45.7603664549835" lon="10.10903201441768"><ele>676.0</ele><time>2026-04-04T13:50:09.998Z</time></trkpt><trkpt lat="45.76038924676897" lon="10.108901342885952"><ele>676.0</ele><time>2026-04-04T13:50:12.998Z</time></trkpt><trkpt lat="45.76041203870294" lon="10.108777232050896"><ele>676.0</ele><time>2026-04-04T13:50:15.998Z</time></trkpt><trkpt lat="45.76043536677474" lon="10.108654896368662"><ele>676.0</ele><time>2026-04-04T13:50:19Z</time></trkpt><trkpt lat="45.76045433268671" lon="10.108530951080677"><ele>676.5</ele><time>2026-04-04T13:50:22Z</time></trkpt><trkpt lat="45.76048279430153" lon="10.108415587851542"><ele>677.0</ele><time>2026-04-04T13:50:25Z</time></trkpt><trkpt lat="45.76051751771658" lon="10.108305308512834"><ele>677.5</ele><time>2026-04-04T13:50:28Z</time></trkpt><trkpt lat="45.76055472357759" lon="10.108201058744925"><ele>678.0</ele><time>2026-04-04T13:50:31Z</time></trkpt><trkpt lat="45.7605919637091" lon="10.108104466932177"><ele>678.5</ele><time>2026-04-04T13:50:34Z</time></trkpt><trkpt lat="45.76063812376113" lon="10.108019866973384"><ele>679.0</ele><time>2026-04-04T13:50:36.999Z</time></trkpt><trkpt lat="45.760685421735424" lon="10.107937323505856"><ele>679.4285714285714</ele><time>2026-04-04T13:50:39.999Z</time></trkpt><trkpt lat="45.7607342794378" lon="10.107865758000907"><ele>679.8571428571429</ele><time>2026-04-04T13:50:42.999Z</time></trkpt><trkpt lat="45.76078396705899" lon="10.1077955006849"><ele>680.2857142857142</ele><time>2026-04-04T13:50:45.999Z</time></trkpt><trkpt lat="45.760846379724235" lon="10.107753878240315"><ele>680.7142857142858</ele><time>2026-04-04T13:50:48.999Z</time></trkpt><trkpt lat="45.76090918404494" lon="10.107797699376627"><ele>681.1428571428571</ele><time>2026-04-04T13:50:52.999Z</time></trkpt><trkpt lat="45.760909197122" lon="10.107894826028161"><ele>681.5714285714286</ele><time>2026-04-04T13:50:55.999Z</time></trkpt><trkpt lat="45.76094278583974" lon="10.107973518081211"><ele>682.0</ele><time>2026-04-04T13:50:58.999Z</time></trkpt><trkpt lat="45.76100460726859" lon="10.10801387555574"><ele>682.0</ele><time>2026-04-04T13:51:03.999Z</time></trkpt><trkpt lat="45.76105541225046" lon="10.107942411177746"><ele>682.0</ele><time>2026-04-04T13:51:08.999Z</time></trkpt><trkpt lat="45.76106133384669" lon="10.107847599272658"><ele>682.0</ele><time>2026-04-04T13:51:12.999Z</time></trkpt><trkpt lat="45.76105667301759" lon="10.10773997046991"><ele>682.0</ele><time>2026-04-04T13:51:15.999Z</time></trkpt><trkpt lat="45.76101988085495" lon="10.10765889680386"><ele>682.0</ele><time>2026-04-04T13:51:18.999Z</time></trkpt><trkpt lat="45.76095832327533" lon="10.10762860317146"><ele>682.0</ele><time>2026-04-04T13:51:21.999Z</time></trkpt><trkpt lat="45.760875668258365" lon="10.107670250930722"><ele>682.0</ele><time>2026-04-04T13:54:35Z</time></trkpt><trkpt lat="45.76079856694206" lon="10.107704918458136"><ele>682.0</ele><time>2026-04-04T13:54:36.999Z</time></trkpt><trkpt lat="45.76070662728906" lon="10.107773610672865"><ele>682.0</ele><time>2026-04-04T13:54:39Z</time></trkpt><trkpt lat="45.76062687954926" lon="10.107915021341773"><ele>682.0</ele><time>2026-04-04T13:54:41Z</time></trkpt><trkpt lat="45.76058292609366" lon="10.10800141746546"><ele>682.0</ele><time>2026-04-04T13:54:42Z</time></trkpt><trkpt lat="45.760536936857726" lon="10.108092849696844"><ele>682.0</ele><time>2026-04-04T13:54:43Z</time></trkpt><trkpt lat="45.76049151984407" lon="10.108198379620983"><ele>681.4000000000001</ele><time>2026-04-04T13:54:43.999Z</time></trkpt><trkpt lat="45.76045122447865" lon="10.108314661825379"><ele>680.8000000000001</ele><time>2026-04-04T13:54:44.999Z</time></trkpt><trkpt lat="45.760413226763724" lon="10.10843812093592"><ele>680.2</ele><time>2026-04-04T13:54:45.999Z</time></trkpt><trkpt lat="45.760381338000784" lon="10.108574698328525"><ele>679.6</ele><time>2026-04-04T13:54:46.999Z</time></trkpt><trkpt lat="45.76036128220882" lon="10.108719820937157"><ele>679.0</ele><time>2026-04-04T13:54:47.999Z</time></trkpt><trkpt lat="45.760342581522195" lon="10.108875356303308"><ele>679.0</ele><time>2026-04-04T13:54:48.999Z</time></trkpt><trkpt lat="45.760315497888186" lon="10.109027252363024"><ele>679.0</ele><time>2026-04-04T13:54:49.999Z</time></trkpt><trkpt lat="45.760286267537396" lon="10.109185344298606"><ele>679.0</ele><time>2026-04-04T13:54:50.999Z</time></trkpt><trkpt lat="45.7602567920426" lon="10.109346886057244"><ele>679.0</ele><time>2026-04-04T13:54:51.999Z</time></trkpt><trkpt lat="45.76022758076825" lon="10.109508124335052"><ele>678.25</ele><time>2026-04-04T13:54:52.999Z</time></trkpt><trkpt lat="45.760205192272075" lon="10.109667234272152"><ele>677.5</ele><time>2026-04-04T13:54:53.999Z</time></trkpt><trkpt lat="45.760179492376864" lon="10.109824910861407"><ele>676.75</ele><time>2026-04-04T13:54:54.999Z</time></trkpt><trkpt lat="45.76015140679465" lon="10.109979197088208"><ele>676.0</ele><time>2026-04-04T13:54:55.999Z</time></trkpt><trkpt lat="45.760121729124066" lon="10.11013515203464"><ele>673.0</ele><time>2026-04-04T13:54:56.999Z</time></trkpt><trkpt lat="45.76009525421933" lon="10.11028790521316"><ele>670.0</ele><time>2026-04-04T13:54:57.999Z</time></trkpt><trkpt lat="45.76006882149351" lon="10.110443585489696"><ele>667.0</ele><time>2026-04-04T13:54:58.999Z</time></trkpt><trkpt lat="45.76004679083014" lon="10.110599761492713"><ele>664.0</ele><time>2026-04-04T13:54:59.999Z</time></trkpt><trkpt lat="45.76001876285938" lon="10.110753154324252"><ele>661.0</ele><time>2026-04-04T13:55:00.999Z</time></trkpt><trkpt lat="45.75998794874584" lon="10.1109028080249"><ele>661.0</ele><time>2026-04-04T13:55:01.999Z</time></trkpt><trkpt lat="45.759963513978235" lon="10.111053557115236"><ele>661.0</ele><time>2026-04-04T13:55:02.999Z</time></trkpt><trkpt lat="45.75993964349864" lon="10.111199189404001"><ele>661.0</ele><time>2026-04-04T13:55:03.999Z</time></trkpt><trkpt lat="45.75991444739939" lon="10.111340458430364"><ele>661.0</ele><time>2026-04-04T13:55:04.999Z</time></trkpt><trkpt lat="45.75989402206855" lon="10.1114817533864"><ele>661.0</ele><time>2026-04-04T13:55:05.999Z</time></trkpt><trkpt lat="45.759881874027364" lon="10.111623147382687"><ele>660.8</ele><time>2026-04-04T13:55:06.999Z</time></trkpt><trkpt lat="45.75987722507241" lon="10.111763269935894"><ele>660.5999999999999</ele><time>2026-04-04T13:55:07.999Z</time></trkpt><trkpt lat="45.75987771477015" lon="10.111912159064982"><ele>660.4</ele><time>2026-04-04T13:55:08.999Z</time></trkpt><trkpt lat="45.759885238947895" lon="10.112064311984563"><ele>660.2</ele><time>2026-04-04T13:55:09.999Z</time></trkpt><trkpt lat="45.759899920505276" lon="10.112215415409672"><ele>660.0</ele><time>2026-04-04T13:55:10.999Z</time></trkpt><trkpt lat="45.7599232394386" lon="10.11236928835081"><ele>659.0</ele><time>2026-04-04T13:55:11.999Z</time></trkpt><trkpt lat="45.75995519924545" lon="10.112524938834193"><ele>658.0</ele><time>2026-04-04T13:55:12.999Z</time></trkpt><trkpt lat="45.7599919264675" lon="10.112679383259998"><ele>657.0</ele><time>2026-04-04T13:55:13.999Z</time></trkpt><trkpt lat="45.76003800583987" lon="10.112831837431091"><ele>656.0</ele><time>2026-04-04T13:55:14.999Z</time></trkpt><trkpt lat="45.76009281056525" lon="10.11297954201795"><ele>656.0</ele><time>2026-04-04T13:55:15.999Z</time></trkpt><trkpt lat="45.760153432616754" lon="10.113119746952679"><ele>656.0</ele><time>2026-04-04T13:55:16.999Z</time></trkpt><trkpt lat="45.76021591406919" lon="10.113256631741299"><ele>656.0</ele><time>2026-04-04T13:55:17.999Z</time></trkpt><trkpt lat="45.760275824315926" lon="10.113395043524754"><ele>656.0</ele><time>2026-04-04T13:55:18.999Z</time></trkpt><trkpt lat="45.760333721714346" lon="10.11353326198694"><ele>655.25</ele><time>2026-04-04T13:55:19.999Z</time></trkpt><trkpt lat="45.76039164211414" lon="10.113671944975753"><ele>654.5</ele><time>2026-04-04T13:55:20.999Z</time></trkpt><trkpt lat="45.76045240343897" lon="10.113808210955595"><ele>653.75</ele><time>2026-04-04T13:55:21.999Z</time></trkpt><trkpt lat="45.76050990089036" lon="10.113948183760312"><ele>653.0</ele><time>2026-04-04T13:55:22.999Z</time></trkpt><trkpt lat="45.76054838321613" lon="10.114103730352998"><ele>653.0</ele><time>2026-04-04T13:55:23.999Z</time></trkpt><trkpt lat="45.76057580615372" lon="10.11426963891651"><ele>653.0</ele><time>2026-04-04T13:55:24.999Z</time></trkpt><trkpt lat="45.76059670165521" lon="10.11443910873057"><ele>653.0</ele><time>2026-04-04T13:55:25.999Z</time></trkpt><trkpt lat="45.760602451866085" lon="10.114610720506143"><ele>653.0</ele><time>2026-04-04T13:55:26.999Z</time></trkpt><trkpt lat="45.760597490137435" lon="10.114774249672294"><ele>652.0</ele><time>2026-04-04T13:55:27.999Z</time></trkpt><trkpt lat="45.760584391870864" lon="10.11491739232394"><ele>651.0</ele><time>2026-04-04T13:55:28.999Z</time></trkpt><trkpt lat="45.760564386266665" lon="10.115050413916245"><ele>650.0</ele><time>2026-04-04T13:55:29.999Z</time></trkpt><trkpt lat="45.76053943863666" lon="10.115182170483115"><ele>649.0</ele><time>2026-04-04T13:55:30.999Z</time></trkpt><trkpt lat="45.760508198086384" lon="10.115309060372184"><ele>648.0</ele><time>2026-04-04T13:55:31.999Z</time></trkpt><trkpt lat="45.76046720922386" lon="10.11542729149964"><ele>648.0</ele><time>2026-04-04T13:55:32.999Z</time></trkpt><trkpt lat="45.760428389702355" lon="10.115542725141106"><ele>648.0</ele><time>2026-04-04T13:55:33.999Z</time></trkpt><trkpt lat="45.760395905979316" lon="10.115660208949354"><ele>648.0</ele><time>2026-04-04T13:55:34.999Z</time></trkpt><trkpt lat="45.760364225337725" lon="10.115775314833684"><ele>648.0</ele><time>2026-04-04T13:55:35.999Z</time></trkpt><trkpt lat="45.760331323900964" lon="10.115879727163014"><ele>648.0</ele><time>2026-04-04T13:55:36.999Z</time></trkpt><trkpt lat="45.76030005762139" lon="10.11597637530892"><ele>648.0</ele><time>2026-04-04T13:55:37.999Z</time></trkpt><trkpt lat="45.76027177567163" lon="10.116076485125443"><ele>647.7142857142858</ele><time>2026-04-04T13:55:38.998Z</time></trkpt><trkpt lat="45.760238438998776" lon="10.116170996346426"><ele>647.4285714285714</ele><time>2026-04-04T13:55:39.998Z</time></trkpt><trkpt lat="45.760205192453036" lon="10.116262398639604"><ele>647.1428571428571</ele><time>2026-04-04T13:55:40.998Z</time></trkpt><trkpt lat="45.76017221193006" lon="10.116352680550662"><ele>646.8571428571429</ele><time>2026-04-04T13:55:41.998Z</time></trkpt><trkpt lat="45.76014299764305" lon="10.11644379009082"><ele>646.5714285714286</ele><time>2026-04-04T13:55:42.998Z</time></trkpt><trkpt lat="45.76011446359657" lon="10.116530705815467"><ele>646.2857142857143</ele><time>2026-04-04T13:55:43.998Z</time></trkpt><trkpt lat="45.76008623407305" lon="10.116614236146733"><ele>646.0</ele><time>2026-04-04T13:55:44.998Z</time></trkpt><trkpt lat="45.76003585127195" lon="10.116766259010085"><ele>646.0</ele><time>2026-04-04T13:55:46.998Z</time></trkpt><trkpt lat="45.75999126001465" lon="10.116922810444276"><ele>646.0</ele><time>2026-04-04T13:55:48.998Z</time></trkpt><trkpt lat="45.759987913619966" lon="10.117094490502412"><ele>646.0</ele><time>2026-04-04T13:55:50.998Z</time></trkpt><trkpt lat="45.76011717589915" lon="10.11711679929192"><ele>646.0</ele><time>2026-04-04T13:55:52.998Z</time></trkpt><trkpt lat="45.76016348067709" lon="10.117227145183085"><ele>646.3333333333334</ele><time>2026-04-04T13:55:53.998Z</time></trkpt><trkpt lat="45.760233306354976" lon="10.117243154584747"><ele>646.6666666666667</ele><time>2026-04-04T13:55:54.998Z</time></trkpt><trkpt lat="45.760300242604025" lon="10.117284564185697"><ele>647.0</ele><time>2026-04-04T13:55:55.998Z</time></trkpt><trkpt lat="45.76036383127531" lon="10.117347411689908"><ele>647.3333333333334</ele><time>2026-04-04T13:55:56.998Z</time></trkpt><trkpt lat="45.76042048825624" lon="10.117429183782123"><ele>647.6666666666666</ele><time>2026-04-04T13:55:57.998Z</time></trkpt><trkpt lat="45.760477595586195" lon="10.117509688467594"><ele>648.0</ele><time>2026-04-04T13:55:58.998Z</time></trkpt><trkpt lat="45.76053928656189" lon="10.11758703664473"><ele>648.0</ele><time>2026-04-04T13:55:59.998Z</time></trkpt><trkpt lat="45.760602785474696" lon="10.117657891013415"><ele>648.0</ele><time>2026-04-04T13:56:00.998Z</time></trkpt><trkpt lat="45.760665171104534" lon="10.117729097262393"><ele>648.0</ele><time>2026-04-04T13:56:01.998Z</time></trkpt><trkpt lat="45.760719690773556" lon="10.117806395785175"><ele>648.0</ele><time>2026-04-04T13:56:02.998Z</time></trkpt><trkpt lat="45.76076325256518" lon="10.11789595311846"><ele>648.0</ele><time>2026-04-04T13:56:03.998Z</time></trkpt><trkpt lat="45.76078050096359" lon="10.117998382976271"><ele>648.0</ele><time>2026-04-04T13:56:04.998Z</time></trkpt><trkpt lat="45.76076372730755" lon="10.118102299869234"><ele>648.0</ele><time>2026-04-04T13:56:05.998Z</time></trkpt><trkpt lat="45.76071440753458" lon="10.11818185132106"><ele>648.0</ele><time>2026-04-04T13:56:06.998Z</time></trkpt><trkpt lat="45.76065223095842" lon="10.1182382482918"><ele>648.0</ele><time>2026-04-04T13:56:07.998Z</time></trkpt><trkpt lat="45.76058902248816" lon="10.118278206869762"><ele>648.0</ele><time>2026-04-04T13:56:08.998Z</time></trkpt><trkpt lat="45.76052432650815" lon="10.11829716009152"><ele>648.0</ele><time>2026-04-04T13:56:09.998Z</time></trkpt><trkpt lat="45.76046022769335" lon="10.11831086593995"><ele>648.0</ele><time>2026-04-04T13:56:10.998Z</time></trkpt><trkpt lat="45.760392393129095" lon="10.118326731883313"><ele>648.0</ele><time>2026-04-04T13:56:11.998Z</time></trkpt><trkpt lat="45.76032100551622" lon="10.118340079647387"><ele>648.0</ele><time>2026-04-04T13:56:12.998Z</time></trkpt><trkpt lat="45.760247724376875" lon="10.118353850499343"><ele>648.0</ele><time>2026-04-04T13:56:13.998Z</time></trkpt><trkpt lat="45.760173666573614" lon="10.118366332789098"><ele>648.0</ele><time>2026-04-04T13:56:14.998Z</time></trkpt><trkpt lat="45.760097662844636" lon="10.11837812991898"><ele>648.0</ele><time>2026-04-04T13:56:15.998Z</time></trkpt><trkpt lat="45.760024451154436" lon="10.11838176606016"><ele>648.0</ele><time>2026-04-04T13:56:16.998Z</time></trkpt><trkpt lat="45.75994848745928" lon="10.11838363122236"><ele>648.0</ele><time>2026-04-04T13:56:17.998Z</time></trkpt><trkpt lat="45.759872177117025" lon="10.11837772193665"><ele>647.1666666666666</ele><time>2026-04-04T13:56:18.998Z</time></trkpt><trkpt lat="45.75979833684907" lon="10.118366775648923"><ele>646.3333333333334</ele><time>2026-04-04T13:56:19.998Z</time></trkpt><trkpt lat="45.75972100915395" lon="10.118354943342188"><ele>645.5</ele><time>2026-04-04T13:56:20.998Z</time></trkpt><trkpt lat="45.759641780772405" lon="10.11834506179803"><ele>644.6666666666667</ele><time>2026-04-04T13:56:21.998Z</time></trkpt><trkpt lat="45.75956694289047" lon="10.118339389463907"><ele>643.8333333333334</ele><time>2026-04-04T13:56:22.998Z</time></trkpt><trkpt lat="45.75948503165981" lon="10.118322914721992"><ele>643.0</ele><time>2026-04-04T13:56:23.998Z</time></trkpt><trkpt lat="45.759405207030774" lon="10.118316914520284"><ele>642.1666666666667</ele><time>2026-04-04T13:56:24.998Z</time></trkpt><trkpt lat="45.759322079195414" lon="10.11830026191374"><ele>641.3333333333334</ele><time>2026-04-04T13:56:25.998Z</time></trkpt><trkpt lat="45.75924380636637" lon="10.11829950952923"><ele>640.5</ele><time>2026-04-04T13:56:26.998Z</time></trkpt><trkpt lat="45.75916741627396" lon="10.118319463914807"><ele>639.6666666666666</ele><time>2026-04-04T13:56:27.998Z</time></trkpt><trkpt lat="45.75909213700604" lon="10.118363699223067"><ele>638.8333333333333</ele><time>2026-04-04T13:56:28.998Z</time></trkpt><trkpt lat="45.75901962356932" lon="10.118419809459104"><ele>638.0</ele><time>2026-04-04T13:56:29.998Z</time></trkpt><trkpt lat="45.75894641697937" lon="10.118472447982569"><ele>638.0</ele><time>2026-04-04T13:56:30.998Z</time></trkpt><trkpt lat="45.75886482758218" lon="10.118496261075745"><ele>638.0</ele><time>2026-04-04T13:56:31.998Z</time></trkpt><trkpt lat="45.758778276697264" lon="10.118492574228696"><ele>638.0</ele><time>2026-04-04T13:56:32.997Z</time></trkpt><trkpt lat="45.75869400417645" lon="10.11846650453096"><ele>638.0</ele><time>2026-04-04T13:56:33.997Z</time></trkpt><trkpt lat="45.75860717341709" lon="10.118440043162849"><ele>638.0</ele><time>2026-04-04T13:56:35Z</time></trkpt><trkpt lat="45.75851773126562" lon="10.118426411139765"><ele>638.0</ele><time>2026-04-04T13:56:36Z</time></trkpt><trkpt lat="45.758422333123" lon="10.118432245021506"><ele>637.0</ele><time>2026-04-04T13:56:37Z</time></trkpt><trkpt lat="45.75832194687495" lon="10.118442379155528"><ele>636.0</ele><time>2026-04-04T13:56:38Z</time></trkpt><trkpt lat="45.758219209841315" lon="10.11845326884659"><ele>635.0</ele><time>2026-04-04T13:56:39Z</time></trkpt><trkpt lat="45.758112387343594" lon="10.11846096687914"><ele>634.0</ele><time>2026-04-04T13:56:40Z</time></trkpt><trkpt lat="45.75800143210058" lon="10.118471353447399"><ele>633.0</ele><time>2026-04-04T13:56:41Z</time></trkpt><trkpt lat="45.75789031773717" lon="10.118480116956858"><ele>633.0</ele><time>2026-04-04T13:56:42Z</time></trkpt><trkpt lat="45.75777484539353" lon="10.1184901065502"><ele>633.0</ele><time>2026-04-04T13:56:43Z</time></trkpt><trkpt lat="45.75765661522805" lon="10.118501896052146"><ele>633.0</ele><time>2026-04-04T13:56:44Z</time></trkpt><trkpt lat="45.757537098183036" lon="10.11851174376247"><ele>633.0</ele><time>2026-04-04T13:56:45Z</time></trkpt><trkpt lat="45.757415703224694" lon="10.118521695181967"><ele>632.25</ele><time>2026-04-04T13:56:46Z</time></trkpt><trkpt lat="45.75729209002277" lon="10.118530809786058"><ele>631.5</ele><time>2026-04-04T13:56:47Z</time></trkpt><trkpt lat="45.757169285443275" lon="10.118532389560276"><ele>630.75</ele><time>2026-04-04T13:56:48Z</time></trkpt><trkpt lat="45.757045446387096" lon="10.118528591465514"><ele>630.0</ele><time>2026-04-04T13:56:49Z</time></trkpt><trkpt lat="45.75692360079875" lon="10.118507085960612"><ele>630.0</ele><time>2026-04-04T13:56:50Z</time></trkpt><trkpt lat="45.75680161291129" lon="10.118474922031728"><ele>630.0</ele><time>2026-04-04T13:56:51Z</time></trkpt><trkpt lat="45.75668022466547" lon="10.11844362987581"><ele>630.0</ele><time>2026-04-04T13:56:51.999Z</time></trkpt><trkpt lat="45.75655884096863" lon="10.118418544776562"><ele>630.0</ele><time>2026-04-04T13:56:52.999Z</time></trkpt><trkpt lat="45.75643909924367" lon="10.118395810623154"><ele>630.0</ele><time>2026-04-04T13:56:53.999Z</time></trkpt><trkpt lat="45.75631906256507" lon="10.11837222639261"><ele>630.0</ele><time>2026-04-04T13:56:54.999Z</time></trkpt><trkpt lat="45.756200176250736" lon="10.118346360989605"><ele>630.0</ele><time>2026-04-04T13:56:55.999Z</time></trkpt><trkpt lat="45.7560848344497" lon="10.118320377569077"><ele>630.0</ele><time>2026-04-04T13:56:56.999Z</time></trkpt><trkpt lat="45.755969681427814" lon="10.118293140910042"><ele>629.4</ele><time>2026-04-04T13:56:57.999Z</time></trkpt><trkpt lat="45.755856333537075" lon="10.118267876319129"><ele>628.8</ele><time>2026-04-04T13:56:58.999Z</time></trkpt><trkpt lat="45.755745185437995" lon="10.11824560009915"><ele>628.2</ele><time>2026-04-04T13:56:59.999Z</time></trkpt><trkpt lat="45.75563591057055" lon="10.11822569269183"><ele>627.6</ele><time>2026-04-04T13:57:00.999Z</time></trkpt><trkpt lat="45.755528866100875" lon="10.118204039807242"><ele>627.0</ele><time>2026-04-04T13:57:01.999Z</time></trkpt><trkpt lat="45.75542271113725" lon="10.118181224701788"><ele>625.2</ele><time>2026-04-04T13:57:02.999Z</time></trkpt><trkpt lat="45.75531780527923" lon="10.118156467954378"><ele>623.4000000000001</ele><time>2026-04-04T13:57:03.999Z</time></trkpt><trkpt lat="45.755213621571066" lon="10.118131699900193"><ele>621.5999999999999</ele><time>2026-04-04T13:57:04.999Z</time></trkpt><trkpt lat="45.755111537690695" lon="10.118110576657273"><ele>619.8</ele><time>2026-04-04T13:57:05.999Z</time></trkpt><trkpt lat="45.755008830314324" lon="10.118090665569405"><ele>618.0</ele><time>2026-04-04T13:57:06.999Z</time></trkpt><trkpt lat="45.75490826182611" lon="10.118066887157182"><ele>618.0</ele><time>2026-04-04T13:57:07.999Z</time></trkpt><trkpt lat="45.75480868567935" lon="10.118041603235438"><ele>618.0</ele><time>2026-04-04T13:57:08.999Z</time></trkpt><trkpt lat="45.75471491679044" lon="10.118012004716592"><ele>618.0</ele><time>2026-04-04T13:57:09.999Z</time></trkpt><trkpt lat="45.754625557777366" lon="10.117978577059722"><ele>618.0</ele><time>2026-04-04T13:57:10.999Z</time></trkpt><trkpt lat="45.754538884118816" lon="10.117943528480266"><ele>618.0</ele><time>2026-04-04T13:57:11.999Z</time></trkpt><trkpt lat="45.75445593526278" lon="10.117900766974042"><ele>618.0</ele><time>2026-04-04T13:57:12.999Z</time></trkpt><trkpt lat="45.75437371160811" lon="10.117855857802333"><ele>618.0</ele><time>2026-04-04T13:57:13.999Z</time></trkpt><trkpt lat="45.75429147879094" lon="10.117810750152987"><ele>618.0</ele><time>2026-04-04T13:57:14.999Z</time></trkpt><trkpt lat="45.754208603596354" lon="10.117760308296656"><ele>618.0</ele><time>2026-04-04T13:57:15.999Z</time></trkpt><trkpt lat="45.754129720558296" lon="10.117705387446566"><ele>618.0</ele><time>2026-04-04T13:57:16.999Z</time></trkpt><trkpt lat="45.754051918276616" lon="10.117647987583913"><ele>618.0</ele><time>2026-04-04T13:57:17.999Z</time></trkpt><trkpt lat="45.75397553339206" lon="10.117593632453302"><ele>618.1666666666666</ele><time>2026-04-04T13:57:18.999Z</time></trkpt><trkpt lat="45.75390182677044" lon="10.117530965207962"><ele>618.3333333333334</ele><time>2026-04-04T13:57:19.999Z</time></trkpt><trkpt lat="45.753829011575334" lon="10.117466233347995"><ele>618.5</ele><time>2026-04-04T13:57:20.999Z</time></trkpt><trkpt lat="45.75375455202882" lon="10.11740707388951"><ele>618.6666666666667</ele><time>2026-04-04T13:57:21.999Z</time></trkpt><trkpt lat="45.753684617647" lon="10.117343741070748"><ele>618.8333333333334</ele><time>2026-04-04T13:57:22.999Z</time></trkpt><trkpt lat="45.75361401202348" lon="10.117276955383435"><ele>619.0</ele><time>2026-04-04T13:57:23.999Z</time></trkpt><trkpt lat="45.75354559671142" lon="10.117212230254392"><ele>618.5</ele><time>2026-04-04T13:57:24.999Z</time></trkpt><trkpt lat="45.75347801976076" lon="10.117150894735204"><ele>618.0</ele><time>2026-04-04T13:57:25.999Z</time></trkpt><trkpt lat="45.753414472743394" lon="10.117089907224406"><ele>617.5</ele><time>2026-04-04T13:57:26.999Z</time></trkpt><trkpt lat="45.75334870478782" lon="10.117027829891851"><ele>617.0</ele><time>2026-04-04T13:57:27.999Z</time></trkpt><trkpt lat="45.75328568163806" lon="10.116966543383764"><ele>616.5</ele><time>2026-04-04T13:57:28.999Z</time></trkpt><trkpt lat="45.75322220099039" lon="10.116902529781449"><ele>616.0</ele><time>2026-04-04T13:57:29.999Z</time></trkpt><trkpt lat="45.753156084821754" lon="10.116837777546236"><ele>616.0</ele><time>2026-04-04T13:57:30.999Z</time></trkpt><trkpt lat="45.75309127135185" lon="10.116771414571394"><ele>616.0</ele><time>2026-04-04T13:57:31.999Z</time></trkpt><trkpt lat="45.75302697315595" lon="10.1167058834361"><ele>616.0</ele><time>2026-04-04T13:57:32.999Z</time></trkpt><trkpt lat="45.75296435186117" lon="10.116639144991211"><ele>616.0</ele><time>2026-04-04T13:57:33.999Z</time></trkpt><trkpt lat="45.75290670694294" lon="10.116560839788624"><ele>616.0</ele><time>2026-04-04T13:57:34.999Z</time></trkpt><trkpt lat="45.752856578985515" lon="10.11647337929009"><ele>616.0</ele><time>2026-04-04T13:57:35.999Z</time></trkpt><trkpt lat="45.75281136627608" lon="10.11637941208985"><ele>616.0</ele><time>2026-04-04T13:57:36.999Z</time></trkpt><trkpt lat="45.75277224185396" lon="10.116280671053826"><ele>616.0</ele><time>2026-04-04T13:57:37.999Z</time></trkpt><trkpt lat="45.752739242604" lon="10.11617433606029"><ele>616.0</ele><time>2026-04-04T13:57:38.999Z</time></trkpt><trkpt lat="45.75271222088947" lon="10.116062569778707"><ele>616.0</ele><time>2026-04-04T13:57:39.999Z</time></trkpt><trkpt lat="45.75269217526998" lon="10.11594893859066"><ele>616.0</ele><time>2026-04-04T13:57:40.999Z</time></trkpt><trkpt lat="45.75267831450967" lon="10.115832045093116"><ele>616.0</ele><time>2026-04-04T13:57:41.999Z</time></trkpt><trkpt lat="45.75267447617918" lon="10.1157172133854"><ele>615.3333333333334</ele><time>2026-04-04T13:57:42.999Z</time></trkpt><trkpt lat="45.75267666592422" lon="10.11560132831067"><ele>614.6666666666667</ele><time>2026-04-04T13:57:43.999Z</time></trkpt><trkpt lat="45.752688431070894" lon="10.11548412446161"><ele>614.0</ele><time>2026-04-04T13:57:44.998Z</time></trkpt><trkpt lat="45.75269886746826" lon="10.115365392791924"><ele>613.3333333333334</ele><time>2026-04-04T13:57:45.998Z</time></trkpt><trkpt lat="45.752711283138346" lon="10.115247181206737"><ele>612.6666666666666</ele><time>2026-04-04T13:57:46.998Z</time></trkpt><trkpt lat="45.752723369105475" lon="10.11512829058559"><ele>612.0</ele><time>2026-04-04T13:57:47.998Z</time></trkpt><trkpt lat="45.75273569392284" lon="10.115007374563564"><ele>611.0</ele><time>2026-04-04T13:57:48.998Z</time></trkpt><trkpt lat="45.752746911199175" lon="10.114888746016877"><ele>610.0</ele><time>2026-04-04T13:57:49.998Z</time></trkpt><trkpt lat="45.752760100490335" lon="10.114769782882105"><ele>609.0</ele><time>2026-04-04T13:57:50.998Z</time></trkpt><trkpt lat="45.75277374408451" lon="10.11465086987311"><ele>608.0</ele><time>2026-04-04T13:57:51.998Z</time></trkpt><trkpt lat="45.7527846168998" lon="10.114531841265313"><ele>607.0</ele><time>2026-04-04T13:57:52.998Z</time></trkpt><trkpt lat="45.75279371528517" lon="10.114412599902407"><ele>606.0</ele><time>2026-04-04T13:57:53.998Z</time></trkpt><trkpt lat="45.752803767673186" lon="10.11429295929844"><ele>606.0</ele><time>2026-04-04T13:57:54.998Z</time></trkpt><trkpt lat="45.752809354119364" lon="10.11417099054121"><ele>606.0</ele><time>2026-04-04T13:57:55.998Z</time></trkpt><trkpt lat="45.75281111608708" lon="10.114051676229545"><ele>606.0</ele><time>2026-04-04T13:57:56.998Z</time></trkpt><trkpt lat="45.75281329876781" lon="10.113932021072628"><ele>606.0</ele><time>2026-04-04T13:57:57.998Z</time></trkpt><trkpt lat="45.75281095412777" lon="10.113812121481846"><ele>606.0</ele><time>2026-04-04T13:57:58.998Z</time></trkpt><trkpt lat="45.7528091320804" lon="10.113692570436406"><ele>606.0</ele><time>2026-04-04T13:57:59.998Z</time></trkpt><trkpt lat="45.75280763152455" lon="10.113583249928006"><ele>606.2857142857143</ele><time>2026-04-04T13:58:00.998Z</time></trkpt><trkpt lat="45.75280719792087" lon="10.113485764675142"><ele>606.5714285714286</ele><time>2026-04-04T13:58:01.998Z</time></trkpt><trkpt lat="45.75280608208117" lon="10.113335424640395"><ele>606.8571428571429</ele><time>2026-04-04T13:58:03.998Z</time></trkpt><trkpt lat="45.75283178034939" lon="10.113235860001566"><ele>607.1428571428571</ele><time>2026-04-04T13:58:06.998Z</time></trkpt><trkpt lat="45.75284067813522" lon="10.113334404642613"><ele>607.4285714285714</ele><time>2026-04-04T13:58:13.998Z</time></trkpt><trkpt lat="45.7528440406063" lon="10.113426960850664"><ele>607.7142857142857</ele><time>2026-04-04T13:58:17.998Z</time></trkpt><trkpt lat="45.75284480817329" lon="10.11352077608079"><ele>608.0</ele><time>2026-04-04T13:58:23.998Z</time></trkpt><trkpt lat="45.75284555278389" lon="10.113611096438861"><ele>608.0</ele><time>2026-04-04T13:58:59Z</time></trkpt><trkpt lat="45.75298146083269" lon="10.113619100483495"><ele>608.0</ele><time>2026-04-04T13:59:08Z</time></trkpt><trkpt lat="45.75304281953602" lon="10.11359228148531"><ele>608.0</ele><time>2026-04-04T13:59:21Z</time></trkpt><trkpt lat="45.75308996005216" lon="10.11352197577545"><ele>608.0</ele><time>2026-04-04T13:59:56.999Z</time></trkpt><trkpt lat="45.7530266569341" lon="10.11354768008313"><ele>608.0</ele><time>2026-04-04T14:23:59Z</time></trkpt><trkpt lat="45.752964050323385" lon="10.113573143568606"><ele>608.0</ele><time>2026-04-04T14:24:23Z</time></trkpt><trkpt lat="45.75289419461903" lon="10.11352809912719"><ele>608.0</ele><time>2026-04-04T14:24:48.999Z</time></trkpt><trkpt lat="45.75288601360304" lon="10.11342663384186"><ele>608.0</ele><time>2026-04-04T14:24:50.999Z</time></trkpt><trkpt lat="45.75286254924499" lon="10.113308303050088"><ele>608.0</ele><time>2026-04-04T14:24:53.999Z</time></trkpt><trkpt lat="45.75282718101753" lon="10.11322615937958"><ele>608.0</ele><time>2026-04-04T14:24:57.999Z</time></trkpt><trkpt lat="45.752765471195005" lon="10.113164829882674"><ele>608.0</ele><time>2026-04-04T14:25:00.999Z</time></trkpt><trkpt lat="45.752744756290845" lon="10.113039103608966"><ele>608.0</ele><time>2026-04-04T14:25:02.999Z</time></trkpt><trkpt lat="45.752716205768074" lon="10.112909480638095"><ele>608.1999999999999</ele><time>2026-04-04T14:25:04.999Z</time></trkpt><trkpt lat="45.75269109544288" lon="10.112782938015707"><ele>608.4</ele><time>2026-04-04T14:25:06.999Z</time></trkpt><trkpt lat="45.75265725402869" lon="10.112649513342262"><ele>608.5999999999999</ele><time>2026-04-04T14:25:08.999Z</time></trkpt><trkpt lat="45.752617553376915" lon="10.112505966893673"><ele>608.8</ele><time>2026-04-04T14:25:10.999Z</time></trkpt><trkpt lat="45.752561317179165" lon="10.112354392439439"><ele>609.0</ele><time>2026-04-04T14:25:12.999Z</time></trkpt><trkpt lat="45.752489510434195" lon="10.112213471808012"><ele>609.0</ele><time>2026-04-04T14:25:14.999Z</time></trkpt><trkpt lat="45.75244595459706" lon="10.112146509876494"><ele>609.0</ele><time>2026-04-04T14:25:15.999Z</time></trkpt><trkpt lat="45.752393367682856" lon="10.112075019671902"><ele>609.0</ele><time>2026-04-04T14:25:16.999Z</time></trkpt><trkpt lat="45.75233309579276" lon="10.112002587895688"><ele>609.0</ele><time>2026-04-04T14:25:17.999Z</time></trkpt><trkpt lat="45.75226997136188" lon="10.111932258536662"><ele>609.0</ele><time>2026-04-04T14:25:18.999Z</time></trkpt><trkpt lat="45.75219915890351" lon="10.11186220192776"><ele>609.0</ele><time>2026-04-04T14:25:19.999Z</time></trkpt><trkpt lat="45.75212228042146" lon="10.111796180651837"><ele>609.0</ele><time>2026-04-04T14:25:20.999Z</time></trkpt><trkpt lat="45.75204498043851" lon="10.111731359876181"><ele>609.0</ele><time>2026-04-04T14:25:21.999Z</time></trkpt><trkpt lat="45.75195489288736" lon="10.111657621881015"><ele>609.0</ele><time>2026-04-04T14:25:22.999Z</time></trkpt><trkpt lat="45.751869825135365" lon="10.11158183390178"><ele>609.0</ele><time>2026-04-04T14:25:23.999Z</time></trkpt><trkpt lat="45.751786438185654" lon="10.11150391382692"><ele>609.0</ele><time>2026-04-04T14:25:24.999Z</time></trkpt><trkpt lat="45.75169169808363" lon="10.111435967066862"><ele>605.0</ele><time>2026-04-04T14:25:25.999Z</time></trkpt><trkpt lat="45.751590732490776" lon="10.111385605861614"><ele>601.0</ele><time>2026-04-04T14:25:26.999Z</time></trkpt><trkpt lat="45.75148187600395" lon="10.11135893017882"><ele>597.0</ele><time>2026-04-04T14:25:27.999Z</time></trkpt><trkpt lat="45.75136707624069" lon="10.111355948591141"><ele>593.0</ele><time>2026-04-04T14:25:28.999Z</time></trkpt><trkpt lat="45.75125296601035" lon="10.111358374417593"><ele>589.0</ele><time>2026-04-04T14:25:29.999Z</time></trkpt><trkpt lat="45.75114273455504" lon="10.11134904548537"><ele>587.5</ele><time>2026-04-04T14:25:30.999Z</time></trkpt><trkpt lat="45.751031921607336" lon="10.11132793201336"><ele>586.0</ele><time>2026-04-04T14:25:31.999Z</time></trkpt><trkpt lat="45.75091788728308" lon="10.111292919977046"><ele>584.5</ele><time>2026-04-04T14:25:32.999Z</time></trkpt><trkpt lat="45.750803285805695" lon="10.111241768982522"><ele>583.0</ele><time>2026-04-04T14:25:33.999Z</time></trkpt><trkpt lat="45.750688841359725" lon="10.111179828330227"><ele>583.0</ele><time>2026-04-04T14:25:34.998Z</time></trkpt><trkpt lat="45.75057117303706" lon="10.111112802195706"><ele>583.0</ele><time>2026-04-04T14:25:35.998Z</time></trkpt><trkpt lat="45.7504531385314" lon="10.111048488257966"><ele>583.0</ele><time>2026-04-04T14:25:36.998Z</time></trkpt><trkpt lat="45.750334801346966" lon="10.110987053594338"><ele>583.0</ele><time>2026-04-04T14:25:37.998Z</time></trkpt><trkpt lat="45.75021988881872" lon="10.110916906413458"><ele>584.5</ele><time>2026-04-04T14:25:38.998Z</time></trkpt><trkpt lat="45.750110146180084" lon="10.110823600884965"><ele>586.0</ele><time>2026-04-04T14:25:39.998Z</time></trkpt><trkpt lat="45.75000372678205" lon="10.110712848555037"><ele>587.5</ele><time>2026-04-04T14:25:40.998Z</time></trkpt><trkpt lat="45.74990124626384" lon="10.110592937318106"><ele>589.0</ele><time>2026-04-04T14:25:41.998Z</time></trkpt><trkpt lat="45.7497963152357" lon="10.110473884000093"><ele>586.25</ele><time>2026-04-04T14:25:42.998Z</time></trkpt><trkpt lat="45.74968710790615" lon="10.110361746947536"><ele>583.5</ele><time>2026-04-04T14:25:43.998Z</time></trkpt><trkpt lat="45.7495751264345" lon="10.110249940372942"><ele>580.75</ele><time>2026-04-04T14:25:44.998Z</time></trkpt><trkpt lat="45.749456772510975" lon="10.110149247930094"><ele>578.0</ele><time>2026-04-04T14:25:45.998Z</time></trkpt><trkpt lat="45.74933311828779" lon="10.110062483711003"><ele>578.0</ele><time>2026-04-04T14:25:46.998Z</time></trkpt><trkpt lat="45.74920546300336" lon="10.109991827550608"><ele>578.0</ele><time>2026-04-04T14:25:47.998Z</time></trkpt><trkpt lat="45.74907597526096" lon="10.10991856671612"><ele>578.0</ele><time>2026-04-04T14:25:48.998Z</time></trkpt><trkpt lat="45.74894599847319" lon="10.109848473771835"><ele>578.0</ele><time>2026-04-04T14:25:49.998Z</time></trkpt><trkpt lat="45.74881812027547" lon="10.109777930879893"><ele>574.75</ele><time>2026-04-04T14:25:50.998Z</time></trkpt><trkpt lat="45.748697132124164" lon="10.109704952829736"><ele>571.5</ele><time>2026-04-04T14:25:51.998Z</time></trkpt><trkpt lat="45.748585983182736" lon="10.109622177132842"><ele>568.25</ele><time>2026-04-04T14:25:52.998Z</time></trkpt><trkpt lat="45.74848633325385" lon="10.109511540849075"><ele>565.0</ele><time>2026-04-04T14:25:53.998Z</time></trkpt><trkpt lat="45.74839535936137" lon="10.109383808676496"><ele>565.0</ele><time>2026-04-04T14:25:54.998Z</time></trkpt><trkpt lat="45.74831419925779" lon="10.109259250729686"><ele>565.0</ele><time>2026-04-04T14:25:55.998Z</time></trkpt><trkpt lat="45.74822825588445" lon="10.1091588497904"><ele>565.0</ele><time>2026-04-04T14:25:57Z</time></trkpt><trkpt lat="45.748133917991886" lon="10.109101031321051"><ele>565.0</ele><time>2026-04-04T14:25:58Z</time></trkpt><trkpt lat="45.74804349432842" lon="10.10907902936596"><ele>565.0</ele><time>2026-04-04T14:25:59Z</time></trkpt><trkpt lat="45.74796396807282" lon="10.10905346430036"><ele>561.5</ele><time>2026-04-04T14:26:00Z</time></trkpt><trkpt lat="45.74789703451784" lon="10.109006613670418"><ele>558.0</ele><time>2026-04-04T14:26:01Z</time></trkpt><trkpt lat="45.74784589330723" lon="10.108943341306842"><ele>554.5</ele><time>2026-04-04T14:26:02Z</time></trkpt><trkpt lat="45.7478726424118" lon="10.108771208697057"><ele>551.0</ele><time>2026-04-04T14:26:04Z</time></trkpt><trkpt lat="45.74794125919151" lon="10.108755656545872"><ele>547.5</ele><time>2026-04-04T14:26:05Z</time></trkpt><trkpt lat="45.74800790177301" lon="10.10880257936137"><ele>544.0</ele><time>2026-04-04T14:26:06Z</time></trkpt><trkpt lat="45.748072919124596" lon="10.108869907487147"><ele>544.0</ele><time>2026-04-04T14:26:07Z</time></trkpt><trkpt lat="45.748145397544114" lon="10.108931795583745"><ele>544.0</ele><time>2026-04-04T14:26:08Z</time></trkpt><trkpt lat="45.74822290992802" lon="10.108993163359363"><ele>544.0</ele><time>2026-04-04T14:26:09Z</time></trkpt><trkpt lat="45.74830633756619" lon="10.109054426937682"><ele>544.0</ele><time>2026-04-04T14:26:10Z</time></trkpt><trkpt lat="45.748392990205694" lon="10.109116651828653"><ele>544.0</ele><time>2026-04-04T14:26:11Z</time></trkpt><trkpt lat="45.74848065247685" lon="10.109186901767252"><ele>545.0</ele><time>2026-04-04T14:26:12Z</time></trkpt><trkpt lat="45.748571017034564" lon="10.109261297276731"><ele>546.0</ele><time>2026-04-04T14:26:13Z</time></trkpt><trkpt lat="45.748665041473984" lon="10.109330965806308"><ele>547.0</ele><time>2026-04-04T14:26:14Z</time></trkpt><trkpt lat="45.74876151148663" lon="10.109397165509883"><ele>548.0</ele><time>2026-04-04T14:26:15Z</time></trkpt><trkpt lat="45.74886457524253" lon="10.10944528938793"><ele>549.0</ele><time>2026-04-04T14:26:16Z</time></trkpt><trkpt lat="45.74897350815224" lon="10.109457905405929"><ele>549.0</ele><time>2026-04-04T14:26:17Z</time></trkpt><trkpt lat="45.74908325382829" lon="10.109443046751089"><ele>549.0</ele><time>2026-04-04T14:26:18Z</time></trkpt><trkpt lat="45.74919447344909" lon="10.109428858280948"><ele>549.0</ele><time>2026-04-04T14:26:19Z</time></trkpt><trkpt lat="45.74929888624624" lon="10.109457400313696"><ele>549.0</ele><time>2026-04-04T14:26:20Z</time></trkpt><trkpt lat="45.74939120543696" lon="10.109506695369637"><ele>549.0</ele><time>2026-04-04T14:26:21Z</time></trkpt><trkpt lat="45.74947486443805" lon="10.109549015842175"><ele>546.6666666666666</ele><time>2026-04-04T14:26:22Z</time></trkpt><trkpt lat="45.74955350132043" lon="10.109566167143495"><ele>544.3333333333334</ele><time>2026-04-04T14:26:23Z</time></trkpt><trkpt lat="45.74962311277368" lon="10.109540971750222"><ele>542.0</ele><time>2026-04-04T14:26:24Z</time></trkpt><trkpt lat="45.74966998026909" lon="10.10947229818053"><ele>539.6666666666667</ele><time>2026-04-04T14:26:25Z</time></trkpt><trkpt lat="45.7496703497263" lon="10.109369987360344"><ele>537.3333333333334</ele><time>2026-04-04T14:26:26Z</time></trkpt><trkpt lat="45.74963703615855" lon="10.109263805260778"><ele>535.0</ele><time>2026-04-04T14:26:27Z</time></trkpt><trkpt lat="45.74954446578316" lon="10.10922628987795"><ele>535.0</ele><time>2026-04-04T14:26:28Z</time></trkpt><trkpt lat="45.74945249076076" lon="10.109224085465373"><ele>535.0</ele><time>2026-04-04T14:26:29Z</time></trkpt><trkpt lat="45.749362219081924" lon="10.109222811865513"><ele>535.0</ele><time>2026-04-04T14:26:30Z</time></trkpt><trkpt lat="45.74926440716247" lon="10.109209425006883"><ele>535.0</ele><time>2026-04-04T14:26:31Z</time></trkpt><trkpt lat="45.749161976876586" lon="10.109191096053221"><ele>535.0</ele><time>2026-04-04T14:26:32Z</time></trkpt><trkpt lat="45.74905734649774" lon="10.109175474956986"><ele>537.8</ele><time>2026-04-04T14:26:33Z</time></trkpt><trkpt lat="45.74896102433086" lon="10.10913283970844"><ele>540.6</ele><time>2026-04-04T14:26:34Z</time></trkpt><trkpt lat="45.74888391446249" lon="10.10903073700078"><ele>543.4</ele><time>2026-04-04T14:26:35Z</time></trkpt><trkpt lat="45.74885879060826" lon="10.108876985275137"><ele>546.2</ele><time>2026-04-04T14:26:36Z</time></trkpt><trkpt lat="45.74879181872815" lon="10.108752454799417"><ele>549.0</ele><time>2026-04-04T14:26:37Z</time></trkpt><trkpt lat="45.74871054690157" lon="10.108639360328453"><ele>547.75</ele><time>2026-04-04T14:26:38Z</time></trkpt><trkpt lat="45.7486167261437" lon="10.10854412688619"><ele>546.5</ele><time>2026-04-04T14:26:39Z</time></trkpt><trkpt lat="45.74851304993614" lon="10.108449091443545"><ele>545.25</ele><time>2026-04-04T14:26:40Z</time></trkpt><trkpt lat="45.7484067357273" lon="10.108349010596873"><ele>544.0</ele><time>2026-04-04T14:26:41Z</time></trkpt><trkpt lat="45.74830102926629" lon="10.108249446389893"><ele>535.0</ele><time>2026-04-04T14:26:42Z</time></trkpt><trkpt lat="45.74819461327092" lon="10.108148429611825"><ele>526.0</ele><time>2026-04-04T14:26:43Z</time></trkpt><trkpt lat="45.74808737662481" lon="10.108046533673162"><ele>517.0</ele><time>2026-04-04T14:26:44Z</time></trkpt><trkpt lat="45.74797991132174" lon="10.107942077875544"><ele>508.0</ele><time>2026-04-04T14:26:45Z</time></trkpt><trkpt lat="45.747870427118684" lon="10.107836596236133"><ele>508.0</ele><time>2026-04-04T14:26:46Z</time></trkpt><trkpt lat="45.747762498006466" lon="10.107728432266434"><ele>508.0</ele><time>2026-04-04T14:26:46.999Z</time></trkpt><trkpt lat="45.74765630129779" lon="10.107619291572949"><ele>508.0</ele><time>2026-04-04T14:26:47.999Z</time></trkpt><trkpt lat="45.747549604706734" lon="10.107510820613646"><ele>508.0</ele><time>2026-04-04T14:26:48.999Z</time></trkpt><trkpt lat="45.74744046860805" lon="10.107401407729881"><ele>507.25</ele><time>2026-04-04T14:26:49.999Z</time></trkpt><trkpt lat="45.747333572499734" lon="10.107287447252146"><ele>506.5</ele><time>2026-04-04T14:26:50.999Z</time></trkpt><trkpt lat="45.747227787408136" lon="10.107174662344441"><ele>505.75</ele><time>2026-04-04T14:26:51.999Z</time></trkpt><trkpt lat="45.747117538657605" lon="10.107059976325125"><ele>505.0</ele><time>2026-04-04T14:26:52.999Z</time></trkpt><trkpt lat="45.74700701910794" lon="10.106940996390668"><ele>505.0</ele><time>2026-04-04T14:26:53.999Z</time></trkpt><trkpt lat="45.746893856596536" lon="10.10681640833724"><ele>505.0</ele><time>2026-04-04T14:26:54.999Z</time></trkpt><trkpt lat="45.74678520806386" lon="10.10669403245309"><ele>505.0</ele><time>2026-04-04T14:26:55.999Z</time></trkpt><trkpt lat="45.74667287480288" lon="10.106571215854773"><ele>505.0</ele><time>2026-04-04T14:26:56.999Z</time></trkpt><trkpt lat="45.74655853021869" lon="10.106452910246585"><ele>502.75</ele><time>2026-04-04T14:26:57.999Z</time></trkpt><trkpt lat="45.746447637095905" lon="10.10633399436996"><ele>500.5</ele><time>2026-04-04T14:26:58.999Z</time></trkpt><trkpt lat="45.74633158962858" lon="10.106220790481126"><ele>498.25</ele><time>2026-04-04T14:26:59.999Z</time></trkpt><trkpt lat="45.746212026045534" lon="10.106120522438024"><ele>496.0</ele><time>2026-04-04T14:27:00.999Z</time></trkpt><trkpt lat="45.7460917101961" lon="10.10601626452452"><ele>493.75</ele><time>2026-04-04T14:27:01.999Z</time></trkpt><trkpt lat="45.745974778568886" lon="10.105908290119661"><ele>491.5</ele><time>2026-04-04T14:27:02.999Z</time></trkpt><trkpt lat="45.745860167780634" lon="10.10579896352774"><ele>489.25</ele><time>2026-04-04T14:27:03.999Z</time></trkpt><trkpt lat="45.745743237314755" lon="10.105693084701398"><ele>487.0</ele><time>2026-04-04T14:27:04.999Z</time></trkpt><trkpt lat="45.745624886498724" lon="10.105590190216283"><ele>487.0</ele><time>2026-04-04T14:27:05.999Z</time></trkpt><trkpt lat="45.74550643500034" lon="10.105495209618578"><ele>487.0</ele><time>2026-04-04T14:27:06.999Z</time></trkpt><trkpt lat="45.74538343177169" lon="10.10542405692944"><ele>487.0</ele><time>2026-04-04T14:27:07.999Z</time></trkpt><trkpt lat="45.745251265255675" lon="10.105380294034767"><ele>487.0</ele><time>2026-04-04T14:27:08.999Z</time></trkpt><trkpt lat="45.74511780690553" lon="10.105349833929294"><ele>488.25</ele><time>2026-04-04T14:27:09.999Z</time></trkpt><trkpt lat="45.74498077785449" lon="10.105335631869746"><ele>489.5</ele><time>2026-04-04T14:27:10.999Z</time></trkpt><trkpt lat="45.74484167914753" lon="10.105334856206854"><ele>490.75</ele><time>2026-04-04T14:27:11.999Z</time></trkpt><trkpt lat="45.744700021216474" lon="10.105333765686352"><ele>492.0</ele><time>2026-04-04T14:27:12.999Z</time></trkpt><trkpt lat="45.7445569525398" lon="10.105331880457063"><ele>492.0</ele><time>2026-04-04T14:27:13.999Z</time></trkpt><trkpt lat="45.74441567096534" lon="10.105331778694303"><ele>492.0</ele><time>2026-04-04T14:27:14.999Z</time></trkpt><trkpt lat="45.74428748173389" lon="10.105312984454502"><ele>492.0</ele><time>2026-04-04T14:27:15.999Z</time></trkpt><trkpt lat="45.744169021104945" lon="10.105274641186664"><ele>492.0</ele><time>2026-04-04T14:27:16.999Z</time></trkpt><trkpt lat="45.74405788027378" lon="10.105246618583655"><ele>492.3333333333333</ele><time>2026-04-04T14:27:17.999Z</time></trkpt><trkpt lat="45.7439598180599" lon="10.10524345601242"><ele>492.66666666666663</ele><time>2026-04-04T14:27:18.999Z</time></trkpt><trkpt lat="45.74387557285977" lon="10.105247050105318"><ele>493.0</ele><time>2026-04-04T14:27:19.999Z</time></trkpt><trkpt lat="45.74380262816585" lon="10.105235732796805"><ele>493.3333333333333</ele><time>2026-04-04T14:27:20.999Z</time></trkpt><trkpt lat="45.74374362546888" lon="10.10518276880454"><ele>493.66666666666663</ele><time>2026-04-04T14:27:21.999Z</time></trkpt><trkpt lat="45.743724054621914" lon="10.105089751087192"><ele>494.0</ele><time>2026-04-04T14:27:22.999Z</time></trkpt><trkpt lat="45.743761340045985" lon="10.10499033327241"><ele>493.99999999999994</ele><time>2026-04-04T14:27:23.999Z</time></trkpt><trkpt lat="45.74383818836126" lon="10.104946227447543"><ele>494.0</ele><time>2026-04-04T14:27:24.999Z</time></trkpt><trkpt lat="45.74392296652627" lon="10.104970379903014"><ele>494.0</ele><time>2026-04-04T14:27:25.999Z</time></trkpt><trkpt lat="45.74399930044032" lon="10.105009006977927"><ele>494.0</ele><time>2026-04-04T14:27:26.999Z</time></trkpt><trkpt lat="45.744083223441685" lon="10.10504299738638"><ele>493.99999999999994</ele><time>2026-04-04T14:27:27.999Z</time></trkpt><trkpt lat="45.74417404928923" lon="10.105066775652569"><ele>494.0</ele><time>2026-04-04T14:27:28.999Z</time></trkpt><trkpt lat="45.74426769418397" lon="10.105088146248224"><ele>494.0</ele><time>2026-04-04T14:27:29.999Z</time></trkpt><trkpt lat="45.7443677481407" lon="10.105093827973224"><ele>494.0</ele><time>2026-04-04T14:27:30.999Z</time></trkpt><trkpt lat="45.744471872006734" lon="10.10508652600201"><ele>494.0</ele><time>2026-04-04T14:27:31.999Z</time></trkpt><trkpt lat="45.744577762949895" lon="10.105068129791208"><ele>494.0</ele><time>2026-04-04T14:27:32.999Z</time></trkpt><trkpt lat="45.74468465663456" lon="10.105033032572623"><ele>494.0</ele><time>2026-04-04T14:27:33.999Z</time></trkpt><trkpt lat="45.74479606565057" lon="10.104992448954688"><ele>493.5</ele><time>2026-04-04T14:27:34.999Z</time></trkpt><trkpt lat="45.744911051150844" lon="10.104956600824636"><ele>493.0</ele><time>2026-04-04T14:27:35.999Z</time></trkpt><trkpt lat="45.74502739072247" lon="10.10491989769592"><ele>492.5</ele><time>2026-04-04T14:27:36.999Z</time></trkpt><trkpt lat="45.7451435765662" lon="10.10488372790909"><ele>492.0</ele><time>2026-04-04T14:27:37.999Z</time></trkpt><trkpt lat="45.745261945910926" lon="10.104847005307347"><ele>483.0</ele><time>2026-04-04T14:27:38.999Z</time></trkpt><trkpt lat="45.74538329853019" lon="10.104810822035276"><ele>474.0</ele><time>2026-04-04T14:27:39.999Z</time></trkpt><trkpt lat="45.74550622689067" lon="10.104785234687082"><ele>465.0</ele><time>2026-04-04T14:27:40.999Z</time></trkpt><trkpt lat="45.74563184451737" lon="10.104778746362218"><ele>456.0</ele><time>2026-04-04T14:27:41.999Z</time></trkpt><trkpt lat="45.74575631652726" lon="10.104820942062982"><ele>456.0</ele><time>2026-04-04T14:27:42.999Z</time></trkpt><trkpt lat="45.74588830345263" lon="10.104849972788786"><ele>456.0</ele><time>2026-04-04T14:27:43.998Z</time></trkpt><trkpt lat="45.746027642420096" lon="10.104865364800048"><ele>456.0</ele><time>2026-04-04T14:27:44.998Z</time></trkpt><trkpt lat="45.74615904843586" lon="10.104904027954491"><ele>456.0</ele><time>2026-04-04T14:27:45.998Z</time></trkpt><trkpt lat="45.74629171019018" lon="10.104935468889298"><ele>460.25</ele><time>2026-04-04T14:27:46.998Z</time></trkpt><trkpt lat="45.7464197927215" lon="10.104978480943474"><ele>464.5</ele><time>2026-04-04T14:27:47.998Z</time></trkpt><trkpt lat="45.746546914916046" lon="10.105037125610496"><ele>468.75</ele><time>2026-04-04T14:27:48.998Z</time></trkpt><trkpt lat="45.74667108457659" lon="10.105101840225457"><ele>473.0</ele><time>2026-04-04T14:27:49.998Z</time></trkpt><trkpt lat="45.74679635832301" lon="10.105171002407962"><ele>467.5</ele><time>2026-04-04T14:27:50.998Z</time></trkpt><trkpt lat="45.746915703503355" lon="10.10523925599535"><ele>462.0</ele><time>2026-04-04T14:27:51.998Z</time></trkpt><trkpt lat="45.74702941515705" lon="10.105303162684857"><ele>456.5</ele><time>2026-04-04T14:27:52.998Z</time></trkpt><trkpt lat="45.74713473412614" lon="10.105362354972687"><ele>451.0</ele><time>2026-04-04T14:27:53.998Z</time></trkpt><trkpt lat="45.74723022053745" lon="10.105424362617754"><ele>451.00000000000006</ele><time>2026-04-04T14:27:54.998Z</time></trkpt><trkpt lat="45.747314882848734" lon="10.105478666330054"><ele>451.0</ele><time>2026-04-04T14:27:55.998Z</time></trkpt><trkpt lat="45.74739429432073" lon="10.105507658452561"><ele>451.0</ele><time>2026-04-04T14:27:56.998Z</time></trkpt><trkpt lat="45.74746297788611" lon="10.105496326317208"><ele>451.0</ele><time>2026-04-04T14:27:57.998Z</time></trkpt><trkpt lat="45.747513237082735" lon="10.105432296334726"><ele>451.00000000000006</ele><time>2026-04-04T14:27:58.998Z</time></trkpt><trkpt lat="45.74752260925801" lon="10.105329080946769"><ele>451.0</ele><time>2026-04-04T14:27:59.998Z</time></trkpt><trkpt lat="45.7474884274487" lon="10.105221023111152"><ele>451.0</ele><time>2026-04-04T14:28:00.998Z</time></trkpt><trkpt lat="45.74739977525632" lon="10.10517098539177"><ele>451.0</ele><time>2026-04-04T14:28:01.998Z</time></trkpt><trkpt lat="45.747304088535486" lon="10.105191207602203"><ele>451.0</ele><time>2026-04-04T14:28:03Z</time></trkpt><trkpt lat="45.74721561205407" lon="10.10516884147517"><ele>451.0</ele><time>2026-04-04T14:28:04Z</time></trkpt><trkpt lat="45.74712399964178" lon="10.1051271288716"><ele>451.0</ele><time>2026-04-04T14:28:05Z</time></trkpt><trkpt lat="45.747038864484026" lon="10.105058138051021"><ele>451.0</ele><time>2026-04-04T14:28:06Z</time></trkpt><trkpt lat="45.74695587688424" lon="10.10496830217022"><ele>451.0</ele><time>2026-04-04T14:28:07Z</time></trkpt><trkpt lat="45.74687132553728" lon="10.104868982152627"><ele>451.0</ele><time>2026-04-04T14:28:08Z</time></trkpt><trkpt lat="45.74678565440158" lon="10.10477364272114"><ele>451.0</ele><time>2026-04-04T14:28:09Z</time></trkpt><trkpt lat="45.74669585242505" lon="10.104674106094278"><ele>451.0</ele><time>2026-04-04T14:28:10Z</time></trkpt><trkpt lat="45.74660207838251" lon="10.104574849532082"><ele>448.25</ele><time>2026-04-04T14:28:11Z</time></trkpt><trkpt lat="45.74650885231508" lon="10.104475674029484"><ele>445.5</ele><time>2026-04-04T14:28:12Z</time></trkpt><trkpt lat="45.7464091879844" lon="10.10438463185277"><ele>442.75</ele><time>2026-04-04T14:28:13Z</time></trkpt><trkpt lat="45.74629737340314" lon="10.104316720260494"><ele>440.0</ele><time>2026-04-04T14:28:14Z</time></trkpt><trkpt lat="45.74617855056246" lon="10.10426740193641"><ele>440.0</ele><time>2026-04-04T14:28:15Z</time></trkpt><trkpt lat="45.74605430894375" lon="10.104231059162094"><ele>440.0</ele><time>2026-04-04T14:28:16Z</time></trkpt><trkpt lat="45.74592770886134" lon="10.104194775424075"><ele>440.0</ele><time>2026-04-04T14:28:17Z</time></trkpt><trkpt lat="45.74579839720035" lon="10.10415874372004"><ele>440.0</ele><time>2026-04-04T14:28:18Z</time></trkpt><trkpt lat="45.74566760278054" lon="10.104126264448844"><ele>437.75</ele><time>2026-04-04T14:28:19Z</time></trkpt><trkpt lat="45.7455353921748" lon="10.104091827594056"><ele>435.5</ele><time>2026-04-04T14:28:20Z</time></trkpt><trkpt lat="45.745401949221815" lon="10.104056801658949"><ele>433.25</ele><time>2026-04-04T14:28:21Z</time></trkpt><trkpt lat="45.74526526843024" lon="10.104024094443398"><ele>431.0</ele><time>2026-04-04T14:28:22Z</time></trkpt><trkpt lat="45.74513202968249" lon="10.103985490766357"><ele>431.0</ele><time>2026-04-04T14:28:23Z</time></trkpt><trkpt lat="45.74500636786129" lon="10.103936734565371"><ele>431.0</ele><time>2026-04-04T14:28:24Z</time></trkpt><trkpt lat="45.74488931704765" lon="10.103868867318914"><ele>431.0</ele><time>2026-04-04T14:28:25Z</time></trkpt><trkpt lat="45.744779795917296" lon="10.10377150783936"><ele>431.0</ele><time>2026-04-04T14:28:26Z</time></trkpt><trkpt lat="45.744680836208786" lon="10.103651131091535"><ele>431.0</ele><time>2026-04-04T14:28:27Z</time></trkpt><trkpt lat="45.744574458497105" lon="10.103541137325886"><ele>431.0</ele><time>2026-04-04T14:28:28Z</time></trkpt><trkpt lat="45.744471365113334" lon="10.103426866995472"><ele>431.0</ele><time>2026-04-04T14:28:29Z</time></trkpt><trkpt lat="45.74437206659027" lon="10.103307227002132"><ele>431.0</ele><time>2026-04-04T14:28:30Z</time></trkpt><trkpt lat="45.74427279939855" lon="10.103189043770717"><ele>427.75</ele><time>2026-04-04T14:28:31Z</time></trkpt><trkpt lat="45.74416834659092" lon="10.103080137831014"><ele>424.5</ele><time>2026-04-04T14:28:32Z</time></trkpt><trkpt lat="45.74406192809057" lon="10.102978916542552"><ele>421.25</ele><time>2026-04-04T14:28:33Z</time></trkpt><trkpt lat="45.743954092255635" lon="10.102918117069805"><ele>418.0</ele><time>2026-04-04T14:28:34Z</time></trkpt><trkpt lat="45.743840565838745" lon="10.102905363218376"><ele>418.0</ele><time>2026-04-04T14:28:35Z</time></trkpt><trkpt lat="45.74373466034176" lon="10.102951285312278"><ele>418.0</ele><time>2026-04-04T14:28:36Z</time></trkpt><trkpt lat="45.743638131449366" lon="10.103037082277133"><ele>418.0</ele><time>2026-04-04T14:28:37Z</time></trkpt><trkpt lat="45.74354982544417" lon="10.103121375231876"><ele>418.0</ele><time>2026-04-04T14:28:38Z</time></trkpt><trkpt lat="45.74346072225718" lon="10.103165192270845"><ele>418.0</ele><time>2026-04-04T14:28:39Z</time></trkpt><trkpt lat="45.74339783836441" lon="10.103211283999354"><ele>418.00000000000006</ele><time>2026-04-04T14:28:40Z</time></trkpt><trkpt lat="45.743330867983396" lon="10.10316466521059"><ele>418.0</ele><time>2026-04-04T14:28:41Z</time></trkpt><trkpt lat="45.74330350983479" lon="10.103069552126152"><ele>418.0</ele><time>2026-04-04T14:28:42Z</time></trkpt><trkpt lat="45.74333176391783" lon="10.102973406275293"><ele>418.0</ele><time>2026-04-04T14:28:43Z</time></trkpt><trkpt lat="45.743408061276156" lon="10.102934414752152"><ele>418.00000000000006</ele><time>2026-04-04T14:28:44Z</time></trkpt><trkpt lat="45.74350485507635" lon="10.102961922447358"><ele>418.0</ele><time>2026-04-04T14:28:45Z</time></trkpt><trkpt lat="45.74358855139553" lon="10.102951840746169"><ele>418.0</ele><time>2026-04-04T14:28:46Z</time></trkpt><trkpt lat="45.74366957522978" lon="10.102884285802276"><ele>418.0</ele><time>2026-04-04T14:28:47Z</time></trkpt><trkpt lat="45.74374857400403" lon="10.102796896188527"><ele>418.0</ele><time>2026-04-04T14:28:48Z</time></trkpt><trkpt lat="45.743827979462786" lon="10.10271107609847"><ele>418.0</ele><time>2026-04-04T14:28:49Z</time></trkpt><trkpt lat="45.74392374545253" lon="10.102657820408059"><ele>418.0</ele><time>2026-04-04T14:28:50Z</time></trkpt><trkpt lat="45.74402893839724" lon="10.102662984975234"><ele>418.0</ele><time>2026-04-04T14:28:51Z</time></trkpt><trkpt lat="45.744134703366875" lon="10.102714246005384"><ele>418.0</ele><time>2026-04-04T14:28:51.999Z</time></trkpt><trkpt lat="45.74424283102486" lon="10.10274479216341"><ele>418.0</ele><time>2026-04-04T14:28:52.999Z</time></trkpt><trkpt lat="45.74436070153162" lon="10.102751341978463"><ele>418.0</ele><time>2026-04-04T14:28:53.999Z</time></trkpt><trkpt lat="45.744476836090335" lon="10.102728143068324"><ele>415.79999999999995</ele><time>2026-04-04T14:28:54.999Z</time></trkpt><trkpt lat="45.744579376569696" lon="10.102741974639853"><ele>413.6</ele><time>2026-04-04T14:28:55.999Z</time></trkpt><trkpt lat="45.7446673968069" lon="10.10279082967798"><ele>411.4</ele><time>2026-04-04T14:28:56.999Z</time></trkpt><trkpt lat="45.744715468287275" lon="10.102901786820478"><ele>409.20000000000005</ele><time>2026-04-04T14:28:57.999Z</time></trkpt><trkpt lat="45.744709792572095" lon="10.10304186527174"><ele>407.0</ele><time>2026-04-04T14:28:58.999Z</time></trkpt><trkpt lat="45.74475165789291" lon="10.103138063925163"><ele>407.0</ele><time>2026-04-04T14:28:59.999Z</time></trkpt><trkpt lat="45.74482237148855" lon="10.103189288702533"><ele>407.0</ele><time>2026-04-04T14:29:00.999Z</time></trkpt><trkpt lat="45.74490498590082" lon="10.103185600258483"><ele>407.0</ele><time>2026-04-04T14:29:01.999Z</time></trkpt><trkpt lat="45.74496692275252" lon="10.103050319954695"><ele>407.0</ele><time>2026-04-04T14:29:02.999Z</time></trkpt><trkpt lat="45.74497438982611" lon="10.10291572385593"><ele>407.0</ele><time>2026-04-04T14:29:03.999Z</time></trkpt><trkpt lat="45.74496104361856" lon="10.102786519732089"><ele>407.0</ele><time>2026-04-04T14:29:04.999Z</time></trkpt><trkpt lat="45.744882293754245" lon="10.102674556657673"><ele>407.0</ele><time>2026-04-04T14:29:05.999Z</time></trkpt><trkpt lat="45.74481979768742" lon="10.102582372293742"><ele>407.0</ele><time>2026-04-04T14:29:06.999Z</time></trkpt><trkpt lat="45.74474486400762" lon="10.102498746880908"><ele>407.0</ele><time>2026-04-04T14:29:07.999Z</time></trkpt><trkpt lat="45.74464207486523" lon="10.102442315746645"><ele>407.0</ele><time>2026-04-04T14:29:08.999Z</time></trkpt><trkpt lat="45.744539981721694" lon="10.102396304755347"><ele>405.5</ele><time>2026-04-04T14:29:09.999Z</time></trkpt><trkpt lat="45.744439949342436" lon="10.102344695842453"><ele>404.0</ele><time>2026-04-04T14:29:10.999Z</time></trkpt><trkpt lat="45.74433415218492" lon="10.102295065482298"><ele>402.5</ele><time>2026-04-04T14:29:11.999Z</time></trkpt><trkpt lat="45.74422636008889" lon="10.102246806999768"><ele>401.0</ele><time>2026-04-04T14:29:12.999Z</time></trkpt><trkpt lat="45.74410675197385" lon="10.10221756919504"><ele>401.0</ele><time>2026-04-04T14:29:13.999Z</time></trkpt><trkpt lat="45.743991546828376" lon="10.10223675872237"><ele>401.0</ele><time>2026-04-04T14:29:14.999Z</time></trkpt><trkpt lat="45.74387820986614" lon="10.10225413749558"><ele>401.0</ele><time>2026-04-04T14:29:15.999Z</time></trkpt><trkpt lat="45.7437644509261" lon="10.102257002308708"><ele>401.0</ele><time>2026-04-04T14:29:16.999Z</time></trkpt><trkpt lat="45.74366250562778" lon="10.102189553053535"><ele>401.0</ele><time>2026-04-04T14:29:17.999Z</time></trkpt><trkpt lat="45.743568919483586" lon="10.102115000238177"><ele>401.0</ele><time>2026-04-04T14:29:18.999Z</time></trkpt><trkpt lat="45.74343917685663" lon="10.102026287010037"><ele>401.0</ele><time>2026-04-04T14:29:19.999Z</time></trkpt><trkpt lat="45.74332124323233" lon="10.101938186027821"><ele>401.0</ele><time>2026-04-04T14:29:20.999Z</time></trkpt><trkpt lat="45.743200827574896" lon="10.101849343245314"><ele>401.5</ele><time>2026-04-04T14:29:21.999Z</time></trkpt><trkpt lat="45.74309118095312" lon="10.101748256674243"><ele>402.0</ele><time>2026-04-04T14:29:22.999Z</time></trkpt><trkpt lat="45.74298704535909" lon="10.101624947629782"><ele>402.5</ele><time>2026-04-04T14:29:23.999Z</time></trkpt><trkpt lat="45.74289486878044" lon="10.101486185650685"><ele>403.0</ele><time>2026-04-04T14:29:24.999Z</time></trkpt><trkpt lat="45.74280817165214" lon="10.101345289734061"><ele>399.75</ele><time>2026-04-04T14:29:25.999Z</time></trkpt><trkpt lat="45.742726034287436" lon="10.101206425633736"><ele>396.5</ele><time>2026-04-04T14:29:26.999Z</time></trkpt><trkpt lat="45.742642599887624" lon="10.101077285319866"><ele>393.25</ele><time>2026-04-04T14:29:27.999Z</time></trkpt><trkpt lat="45.742550792031146" lon="10.100978943562227"><ele>390.0</ele><time>2026-04-04T14:29:28.999Z</time></trkpt><trkpt lat="45.742449934624155" lon="10.100905784132522"><ele>390.0</ele><time>2026-04-04T14:29:29.999Z</time></trkpt><trkpt lat="45.742347006051475" lon="10.100838519192106"><ele>390.0</ele><time>2026-04-04T14:29:30.999Z</time></trkpt><trkpt lat="45.74224899504319" lon="10.100759674190844"><ele>390.0</ele><time>2026-04-04T14:29:31.999Z</time></trkpt><trkpt lat="45.74216879669791" lon="10.100634822976133"><ele>390.0</ele><time>2026-04-04T14:29:32.999Z</time></trkpt><trkpt lat="45.742113168071775" lon="10.100486038870043"><ele>389.6</ele><time>2026-04-04T14:29:33.999Z</time></trkpt><trkpt lat="45.74205429554346" lon="10.100340264564702"><ele>389.2</ele><time>2026-04-04T14:29:34.999Z</time></trkpt><trkpt lat="45.74199475199328" lon="10.100195261466952"><ele>388.79999999999995</ele><time>2026-04-04T14:29:35.999Z</time></trkpt><trkpt lat="45.74193705605245" lon="10.100063736675587"><ele>388.4</ele><time>2026-04-04T14:29:36.999Z</time></trkpt><trkpt lat="45.74185886115945" lon="10.09996381518585"><ele>388.0</ele><time>2026-04-04T14:29:37.999Z</time></trkpt><trkpt lat="45.74176295065708" lon="10.09989659081406"><ele>382.5</ele><time>2026-04-04T14:29:38.999Z</time></trkpt><trkpt lat="45.74165513322812" lon="10.099866016620709"><ele>377.0</ele><time>2026-04-04T14:29:39.999Z</time></trkpt><trkpt lat="45.74154281308632" lon="10.099854250740968"><ele>371.5</ele><time>2026-04-04T14:29:40.999Z</time></trkpt><trkpt lat="45.74142888004351" lon="10.099838166421213"><ele>366.0</ele><time>2026-04-04T14:29:41.999Z</time></trkpt><trkpt lat="45.74131366203347" lon="10.099807812675921"><ele>366.0</ele><time>2026-04-04T14:29:42.999Z</time></trkpt><trkpt lat="45.74119919914077" lon="10.099782806394119"><ele>366.0</ele><time>2026-04-04T14:29:43.999Z</time></trkpt><trkpt lat="45.74108924394449" lon="10.099733197671108"><ele>366.0</ele><time>2026-04-04T14:29:44.999Z</time></trkpt><trkpt lat="45.74098767486038" lon="10.09965492857604"><ele>366.0</ele><time>2026-04-04T14:29:45.999Z</time></trkpt><trkpt lat="45.740906267616914" lon="10.099555860386692"><ele>365.3333333333333</ele><time>2026-04-04T14:29:46.999Z</time></trkpt><trkpt lat="45.74083810172481" lon="10.099455054956504"><ele>364.6666666666667</ele><time>2026-04-04T14:29:47.999Z</time></trkpt><trkpt lat="45.740771582862074" lon="10.099363184129325"><ele>364.0</ele><time>2026-04-04T14:29:48.998Z</time></trkpt><trkpt lat="45.740709866629096" lon="10.099278968257567"><ele>363.33333333333337</ele><time>2026-04-04T14:29:49.998Z</time></trkpt><trkpt lat="45.74065475456473" lon="10.099198096852865"><ele>362.6666666666667</ele><time>2026-04-04T14:29:50.998Z</time></trkpt><trkpt lat="45.74060339577568" lon="10.09911861034248"><ele>362.0</ele><time>2026-04-04T14:29:51.998Z</time></trkpt><trkpt lat="45.740555590234464" lon="10.099033294351711"><ele>362.0</ele><time>2026-04-04T14:29:52.998Z</time></trkpt><trkpt lat="45.74052315832455" lon="10.098931582817862"><ele>362.0</ele><time>2026-04-04T14:29:53.998Z</time></trkpt><trkpt lat="45.740523475903494" lon="10.098810983216147"><ele>362.0</ele><time>2026-04-04T14:29:54.998Z</time></trkpt><trkpt lat="45.74055411210082" lon="10.098708575532843"><ele>362.0</ele><time>2026-04-04T14:29:55.998Z</time></trkpt><trkpt lat="45.74060607200519" lon="10.098625051702435"><ele>362.0</ele><time>2026-04-04T14:29:56.998Z</time></trkpt><trkpt lat="45.74067326525567" lon="10.098566803505356"><ele>362.0</ele><time>2026-04-04T14:29:57.998Z</time></trkpt><trkpt lat="45.740750212240805" lon="10.098546579521088"><ele>362.0</ele><time>2026-04-04T14:29:58.998Z</time></trkpt><trkpt lat="45.74082288645994" lon="10.098561496213184"><ele>362.0</ele><time>2026-04-04T14:29:59.998Z</time></trkpt><trkpt lat="45.74088744738562" lon="10.098618332122935"><ele>362.0</ele><time>2026-04-04T14:30:00.998Z</time></trkpt><trkpt lat="45.740950997952616" lon="10.098682650971908"><ele>362.0</ele><time>2026-04-04T14:30:01.998Z</time></trkpt><trkpt lat="45.7410153982785" lon="10.098744496603263"><ele>362.0</ele><time>2026-04-04T14:30:02.998Z</time></trkpt><trkpt lat="45.7410702112002" lon="10.098811369186846"><ele>362.0</ele><time>2026-04-04T14:30:03.998Z</time></trkpt><trkpt lat="45.74111417310771" lon="10.098880651995485"><ele>362.0</ele><time>2026-04-04T14:30:04.998Z</time></trkpt><trkpt lat="45.74119928055291" lon="10.099014844140243"><ele>362.8</ele><time>2026-04-04T14:30:06.998Z</time></trkpt><trkpt lat="45.74124394635945" lon="10.09907915906973"><ele>363.6</ele><time>2026-04-04T14:30:07.998Z</time></trkpt><trkpt lat="45.74133160071269" lon="10.099180289505602"><ele>364.40000000000003</ele><time>2026-04-04T14:30:10Z</time></trkpt><trkpt lat="45.74143581857668" lon="10.099171877937515"><ele>365.20000000000005</ele><time>2026-04-04T14:30:12Z</time></trkpt><trkpt lat="45.741504136883776" lon="10.09904016204248"><ele>366.0</ele><time>2026-04-04T14:30:14Z</time></trkpt><trkpt lat="45.74147425571134" lon="10.09887148911008"><ele>365.42857142857144</ele><time>2026-04-04T14:30:16Z</time></trkpt><trkpt lat="45.74142068796454" lon="10.09881344686577"><ele>364.8571428571429</ele><time>2026-04-04T14:30:17Z</time></trkpt><trkpt lat="45.74135650422535" lon="10.09877811670788"><ele>364.2857142857143</ele><time>2026-04-04T14:30:18Z</time></trkpt><trkpt lat="45.74129004843485" lon="10.098744908440255"><ele>363.7142857142857</ele><time>2026-04-04T14:30:19Z</time></trkpt><trkpt lat="45.741220803572325" lon="10.09870037845204"><ele>363.1428571428571</ele><time>2026-04-04T14:30:20Z</time></trkpt><trkpt lat="45.74115027597645" lon="10.098645885623466"><ele>362.57142857142856</ele><time>2026-04-04T14:30:21Z</time></trkpt><trkpt lat="45.74108683067025" lon="10.098564987316252"><ele>362.0</ele><time>2026-04-04T14:30:22Z</time></trkpt><trkpt lat="45.74103270916789" lon="10.098470265623966"><ele>362.0</ele><time>2026-04-04T14:30:23Z</time></trkpt><trkpt lat="45.7409902547145" lon="10.098358025107988"><ele>362.0</ele><time>2026-04-04T14:30:24Z</time></trkpt><trkpt lat="45.7409551803398" lon="10.098244311083592"><ele>362.0</ele><time>2026-04-04T14:30:25Z</time></trkpt><trkpt lat="45.74090619347472" lon="10.098146727813438"><ele>362.0</ele><time>2026-04-04T14:30:26Z</time></trkpt><trkpt lat="45.74083619147422" lon="10.098076857046635"><ele>362.0</ele><time>2026-04-04T14:30:27Z</time></trkpt><trkpt lat="45.74075149471551" lon="10.098038063419203"><ele>362.0</ele><time>2026-04-04T14:30:28Z</time></trkpt><trkpt lat="45.74066645530869" lon="10.098014919104894"><ele>356.40000000000003</ele><time>2026-04-04T14:30:29Z</time></trkpt><trkpt lat="45.740577630975565" lon="10.098004977575242"><ele>350.8</ele><time>2026-04-04T14:30:30Z</time></trkpt><trkpt lat="45.74048831793132" lon="10.098011724348835"><ele>345.2</ele><time>2026-04-04T14:30:31Z</time></trkpt><trkpt lat="45.7403985270095" lon="10.098025286065925"><ele>339.6</ele><time>2026-04-04T14:30:32Z</time></trkpt><trkpt lat="45.74030777907614" lon="10.098055049411267"><ele>334.0</ele><time>2026-04-04T14:30:33Z</time></trkpt><trkpt lat="45.74021906638362" lon="10.09809711573637"><ele>334.0</ele><time>2026-04-04T14:30:34Z</time></trkpt><trkpt lat="45.740128809992896" lon="10.098157721150308"><ele>334.0</ele><time>2026-04-04T14:30:35Z</time></trkpt><trkpt lat="45.740040779818465" lon="10.09822450421843"><ele>334.0</ele><time>2026-04-04T14:30:36Z</time></trkpt><trkpt lat="45.73995872770923" lon="10.098307303724036"><ele>334.0</ele><time>2026-04-04T14:30:37Z</time></trkpt><trkpt lat="45.739883527604455" lon="10.098405737943517"><ele>334.0</ele><time>2026-04-04T14:30:38Z</time></trkpt><trkpt lat="45.7398169248131" lon="10.0985213309199"><ele>338.0</ele><time>2026-04-04T14:30:39Z</time></trkpt><trkpt lat="45.73975595448878" lon="10.098653127916583"><ele>342.0</ele><time>2026-04-04T14:30:40Z</time></trkpt><trkpt lat="45.73970774727646" lon="10.098792220240245"><ele>346.0</ele><time>2026-04-04T14:30:41Z</time></trkpt><trkpt lat="45.73966419998304" lon="10.098929461854368"><ele>350.0</ele><time>2026-04-04T14:30:42Z</time></trkpt><trkpt lat="45.739613846851654" lon="10.099060592119661"><ele>354.0</ele><time>2026-04-04T14:30:43Z</time></trkpt><trkpt lat="45.739552410786644" lon="10.099177355318842"><ele>356.0</ele><time>2026-04-04T14:30:44Z</time></trkpt><trkpt lat="45.73948147579636" lon="10.09928749091419"><ele>358.0</ele><time>2026-04-04T14:30:45Z</time></trkpt><trkpt lat="45.739418043503434" lon="10.099401995678203"><ele>360.0</ele><time>2026-04-04T14:30:46Z</time></trkpt><trkpt lat="45.739364164460184" lon="10.099522460073484"><ele>362.0</ele><time>2026-04-04T14:30:47Z</time></trkpt><trkpt lat="45.73931508941353" lon="10.09965266117185"><ele>364.0</ele><time>2026-04-04T14:30:48Z</time></trkpt><trkpt lat="45.73927802699461" lon="10.099795604592783"><ele>358.79999999999995</ele><time>2026-04-04T14:30:49Z</time></trkpt><trkpt lat="45.73925133626499" lon="10.099944647083351"><ele>353.59999999999997</ele><time>2026-04-04T14:30:50Z</time></trkpt><trkpt lat="45.73923654565497" lon="10.100100023381845"><ele>348.4</ele><time>2026-04-04T14:30:51Z</time></trkpt><trkpt lat="45.739234484230245" lon="10.100255998030583"><ele>343.2</ele><time>2026-04-04T14:30:52Z</time></trkpt><trkpt lat="45.73922864574336" lon="10.100399061456278"><ele>338.0</ele><time>2026-04-04T14:30:53Z</time></trkpt><trkpt lat="45.73922154119883" lon="10.100535088573237"><ele>338.0</ele><time>2026-04-04T14:30:54Z</time></trkpt><trkpt lat="45.73921306399939" lon="10.100669634182177"><ele>338.0</ele><time>2026-04-04T14:30:55Z</time></trkpt><trkpt lat="45.73919420892886" lon="10.100803690944248"><ele>338.0</ele><time>2026-04-04T14:30:55.999Z</time></trkpt><trkpt lat="45.73915705352172" lon="10.100931825090905"><ele>338.0</ele><time>2026-04-04T14:30:56.999Z</time></trkpt><trkpt lat="45.73910172822587" lon="10.101046418284769"><ele>338.0</ele><time>2026-04-04T14:30:57.999Z</time></trkpt><trkpt lat="45.739027152894835" lon="10.101134065022608"><ele>338.2</ele><time>2026-04-04T14:30:58.999Z</time></trkpt><trkpt lat="45.73894257501343" lon="10.101198014627968"><ele>338.4</ele><time>2026-04-04T14:30:59.999Z</time></trkpt><trkpt lat="45.7388574515848" lon="10.101261610625242"><ele>338.59999999999997</ele><time>2026-04-04T14:31:00.999Z</time></trkpt><trkpt lat="45.73877838096381" lon="10.101340581946861"><ele>338.79999999999995</ele><time>2026-04-04T14:31:01.999Z</time></trkpt><trkpt lat="45.73869663807577" lon="10.101413529942691"><ele>339.0</ele><time>2026-04-04T14:31:02.999Z</time></trkpt><trkpt lat="45.738612481123155" lon="10.10148452900449"><ele>337.79999999999995</ele><time>2026-04-04T14:31:03.999Z</time></trkpt><trkpt lat="45.73852326726232" lon="10.101547232637996"><ele>336.59999999999997</ele><time>2026-04-04T14:31:04.999Z</time></trkpt><trkpt lat="45.73842955190761" lon="10.10160199029674"><ele>335.4</ele><time>2026-04-04T14:31:05.999Z</time></trkpt><trkpt lat="45.73833306810025" lon="10.101650267565923"><ele>334.2</ele><time>2026-04-04T14:31:06.999Z</time></trkpt><trkpt lat="45.738233782502526" lon="10.10168871497358"><ele>333.0</ele><time>2026-04-04T14:31:07.999Z</time></trkpt><trkpt lat="45.73813459459785" lon="10.101735415918107"><ele>333.0</ele><time>2026-04-04T14:31:08.999Z</time></trkpt><trkpt lat="45.7380335475784" lon="10.101781026799927"><ele>333.0</ele><time>2026-04-04T14:31:09.999Z</time></trkpt><trkpt lat="45.7379318137361" lon="10.101824011818046"><ele>333.0</ele><time>2026-04-04T14:31:10.999Z</time></trkpt><trkpt lat="45.737833256214664" lon="10.10186658348166"><ele>333.0</ele><time>2026-04-04T14:31:11.999Z</time></trkpt><trkpt lat="45.73773243340704" lon="10.101907784949717"><ele>333.0</ele><time>2026-04-04T14:31:12.999Z</time></trkpt><trkpt lat="45.73763513849562" lon="10.101953477275863"><ele>331.2</ele><time>2026-04-04T14:31:13.999Z</time></trkpt><trkpt lat="45.73754429853931" lon="10.10200239420918"><ele>329.4</ele><time>2026-04-04T14:31:14.999Z</time></trkpt><trkpt lat="45.73745550028188" lon="10.102047603645174"><ele>327.59999999999997</ele><time>2026-04-04T14:31:15.999Z</time></trkpt><trkpt lat="45.73736962659079" lon="10.102094012274765"><ele>325.79999999999995</ele><time>2026-04-04T14:31:16.999Z</time></trkpt><trkpt lat="45.73728938316535" lon="10.102141707605927"><ele>324.0</ele><time>2026-04-04T14:31:17.999Z</time></trkpt><trkpt lat="45.73720763158152" lon="10.102178038631461"><ele>324.0</ele><time>2026-04-04T14:31:18.999Z</time></trkpt><trkpt lat="45.73712600848039" lon="10.102189989753743"><ele>324.0</ele><time>2026-04-04T14:31:19.999Z</time></trkpt><trkpt lat="45.7370438507118" lon="10.102177178985075"><ele>324.0</ele><time>2026-04-04T14:31:20.999Z</time></trkpt><trkpt lat="45.73696952595233" lon="10.102115300500886"><ele>324.0</ele><time>2026-04-04T14:31:21.999Z</time></trkpt><trkpt lat="45.73691013076463" lon="10.102011288112042"><ele>324.0</ele><time>2026-04-04T14:31:22.999Z</time></trkpt><trkpt lat="45.7368697332306" lon="10.101881582120342"><ele>324.0</ele><time>2026-04-04T14:31:23.999Z</time></trkpt><trkpt lat="45.73684935639162" lon="10.101732317955529"><ele>322.4</ele><time>2026-04-04T14:31:24.999Z</time></trkpt><trkpt lat="45.73686524273156" lon="10.101594592016758"><ele>320.79999999999995</ele><time>2026-04-04T14:31:25.999Z</time></trkpt><trkpt lat="45.73687857650302" lon="10.101467342946782"><ele>319.20000000000005</ele><time>2026-04-04T14:31:26.999Z</time></trkpt><trkpt lat="45.73691490245353" lon="10.101357328670785"><ele>317.6</ele><time>2026-04-04T14:31:27.999Z</time></trkpt><trkpt lat="45.73695528786537" lon="10.101244786065097"><ele>316.0</ele><time>2026-04-04T14:31:28.999Z</time></trkpt><trkpt lat="45.73703169271133" lon="10.101157371345275"><ele>316.0</ele><time>2026-04-04T14:31:29.999Z</time></trkpt><trkpt lat="45.737114895242" lon="10.10108281425947"><ele>316.0</ele><time>2026-04-04T14:31:30.999Z</time></trkpt><trkpt lat="45.73720058511632" lon="10.101005511712572"><ele>316.0</ele><time>2026-04-04T14:31:31.999Z</time></trkpt><trkpt lat="45.73728417423148" lon="10.100932929919495"><ele>316.0</ele><time>2026-04-04T14:31:32.999Z</time></trkpt><trkpt lat="45.73736119827865" lon="10.100863167816886"><ele>316.0</ele><time>2026-04-04T14:31:33.999Z</time></trkpt><trkpt lat="45.737436377114086" lon="10.100792604469262"><ele>314.3333333333333</ele><time>2026-04-04T14:31:34.999Z</time></trkpt><trkpt lat="45.737503162900836" lon="10.100736693031697"><ele>312.66666666666663</ele><time>2026-04-04T14:31:35.999Z</time></trkpt><trkpt lat="45.737561012567255" lon="10.100692573118204"><ele>311.0</ele><time>2026-04-04T14:31:36.999Z</time></trkpt><trkpt lat="45.73763163780938" lon="10.100560181416897"><ele>309.3333333333333</ele><time>2026-04-04T14:31:38.999Z</time></trkpt><trkpt lat="45.737651943850494" lon="10.100457039489015"><ele>307.6666666666667</ele><time>2026-04-04T14:31:39.999Z</time></trkpt><trkpt lat="45.73757052889266" lon="10.100354703324001"><ele>306.0</ele><time>2026-04-04T14:31:40.999Z</time></trkpt><trkpt lat="45.73752102113727" lon="10.100254307936472"><ele>306.0</ele><time>2026-04-04T14:31:41.999Z</time></trkpt><trkpt lat="45.73749020950716" lon="10.100126755915605"><ele>306.0</ele><time>2026-04-04T14:31:42.999Z</time></trkpt><trkpt lat="45.73746178851983" lon="10.099994572081373"><ele>306.0</ele><time>2026-04-04T14:31:43.999Z</time></trkpt><trkpt lat="45.73745042577946" lon="10.099869216717718"><ele>306.0</ele><time>2026-04-04T14:31:44.999Z</time></trkpt><trkpt lat="45.737464881525156" lon="10.099741644794255"><ele>306.0</ele><time>2026-04-04T14:31:45.999Z</time></trkpt><trkpt lat="45.737509286825905" lon="10.099617495164862"><ele>303.2</ele><time>2026-04-04T14:31:46.999Z</time></trkpt><trkpt lat="45.73755132522438" lon="10.09948516012242"><ele>300.40000000000003</ele><time>2026-04-04T14:31:47.999Z</time></trkpt><trkpt lat="45.737584358294065" lon="10.099345885144775"><ele>297.6</ele><time>2026-04-04T14:31:48.999Z</time></trkpt><trkpt lat="45.73762162554822" lon="10.099232354239767"><ele>294.8</ele><time>2026-04-04T14:31:49.999Z</time></trkpt><trkpt lat="45.73765897042253" lon="10.099133986240867"><ele>292.0</ele><time>2026-04-04T14:31:50.999Z</time></trkpt><trkpt lat="45.73772557369176" lon="10.099052803351743"><ele>292.0</ele><time>2026-04-04T14:31:51.998Z</time></trkpt><trkpt lat="45.737821121722526" lon="10.099019338196037"><ele>292.0</ele><time>2026-04-04T14:31:52.998Z</time></trkpt><trkpt lat="45.737909292814535" lon="10.098938941787905"><ele>292.0</ele><time>2026-04-04T14:31:53.998Z</time></trkpt><trkpt lat="45.7379871007527" lon="10.098835018714608"><ele>292.0</ele><time>2026-04-04T14:31:54.998Z</time></trkpt><trkpt lat="45.73806255472232" lon="10.09872694790952"><ele>292.0</ele><time>2026-04-04T14:31:55.998Z</time></trkpt><trkpt lat="45.73813665560274" lon="10.098606440017058"><ele>292.0</ele><time>2026-04-04T14:31:56.998Z</time></trkpt><trkpt lat="45.73819895472315" lon="10.098464373592346"><ele>292.0</ele><time>2026-04-04T14:31:57.998Z</time></trkpt><trkpt lat="45.738249978767165" lon="10.09830531140071"><ele>292.0</ele><time>2026-04-04T14:31:58.998Z</time></trkpt><trkpt lat="45.73830939503222" lon="10.09815055222019"><ele>292.0</ele><time>2026-04-04T14:31:59.998Z</time></trkpt><trkpt lat="45.73837474807255" lon="10.097997328228018"><ele>295.5</ele><time>2026-04-04T14:32:00.998Z</time></trkpt><trkpt lat="45.73844768421931" lon="10.097843574476173"><ele>299.0</ele><time>2026-04-04T14:32:01.998Z</time></trkpt><trkpt lat="45.73852368070289" lon="10.097686634183885"><ele>302.5</ele><time>2026-04-04T14:32:02.998Z</time></trkpt><trkpt lat="45.738590344155796" lon="10.097529411951879"><ele>306.0</ele><time>2026-04-04T14:32:03.998Z</time></trkpt><trkpt lat="45.738647908232835" lon="10.097385192307243"><ele>300.2</ele><time>2026-04-04T14:32:04.998Z</time></trkpt><trkpt lat="45.738700564611776" lon="10.097250638884816"><ele>294.40000000000003</ele><time>2026-04-04T14:32:05.998Z</time></trkpt><trkpt lat="45.73875281512296" lon="10.097128930760908"><ele>288.6</ele><time>2026-04-04T14:32:06.998Z</time></trkpt><trkpt lat="45.738798973034534" lon="10.097013194093373"><ele>282.8</ele><time>2026-04-04T14:32:07.998Z</time></trkpt><trkpt lat="45.73884212061324" lon="10.096898442608275"><ele>277.0</ele><time>2026-04-04T14:32:08.998Z</time></trkpt><trkpt lat="45.73890233893898" lon="10.096793525084275"><ele>277.0</ele><time>2026-04-04T14:32:09.998Z</time></trkpt><trkpt lat="45.73898527272633" lon="10.096715999259178"><ele>277.0</ele><time>2026-04-04T14:32:10.998Z</time></trkpt><trkpt lat="45.73907613882807" lon="10.096651576586975"><ele>277.0</ele><time>2026-04-04T14:32:11.998Z</time></trkpt><trkpt lat="45.73916673844293" lon="10.096570518147747"><ele>277.0</ele><time>2026-04-04T14:32:12.998Z</time></trkpt><trkpt lat="45.73926140352264" lon="10.096488871393937"><ele>277.0</ele><time>2026-04-04T14:32:13.998Z</time></trkpt><trkpt lat="45.73935486638937" lon="10.096394388521544"><ele>275.4</ele><time>2026-04-04T14:32:15Z</time></trkpt><trkpt lat="45.73943890364517" lon="10.096277852144933"><ele>273.79999999999995</ele><time>2026-04-04T14:32:16Z</time></trkpt><trkpt lat="45.73952040573901" lon="10.096152017520927"><ele>272.2</ele><time>2026-04-04T14:32:17Z</time></trkpt><trkpt lat="45.739590809138136" lon="10.096030896206933"><ele>270.59999999999997</ele><time>2026-04-04T14:32:18Z</time></trkpt><trkpt lat="45.73964830266865" lon="10.095910661643966"><ele>269.0</ele><time>2026-04-04T14:32:19Z</time></trkpt><trkpt lat="45.73969541121168" lon="10.095807521837894"><ele>264.33333333333337</ele><time>2026-04-04T14:32:20Z</time></trkpt><trkpt lat="45.7397374194747" lon="10.095725362453381"><ele>259.6666666666667</ele><time>2026-04-04T14:32:21Z</time></trkpt><trkpt lat="45.73976352344923" lon="10.09556183627637"><ele>255.0</ele><time>2026-04-04T14:32:23Z</time></trkpt><trkpt lat="45.73970673876249" lon="10.095443872116082"><ele>250.33333333333331</ele><time>2026-04-04T14:32:25Z</time></trkpt><trkpt lat="45.739632687688285" lon="10.0954950851978"><ele>245.66666666666666</ele><time>2026-04-04T14:32:26Z</time></trkpt><trkpt lat="45.73956245868891" lon="10.095539522477424"><ele>241.0</ele><time>2026-04-04T14:32:27Z</time></trkpt><trkpt lat="45.73949600822018" lon="10.095593955008699"><ele>240.99999999999997</ele><time>2026-04-04T14:32:28Z</time></trkpt><trkpt lat="45.739425281970206" lon="10.095656579721938"><ele>241.0</ele><time>2026-04-04T14:32:29Z</time></trkpt><trkpt lat="45.73934976151275" lon="10.095725071954732"><ele>241.0</ele><time>2026-04-04T14:32:30Z</time></trkpt><trkpt lat="45.739279009779324" lon="10.095789239278547"><ele>241.0</ele><time>2026-04-04T14:32:31Z</time></trkpt><trkpt lat="45.739218658086656" lon="10.095843767670337"><ele>240.99999999999997</ele><time>2026-04-04T14:32:32Z</time></trkpt><trkpt lat="45.739151781783114" lon="10.095901575013205"><ele>241.0</ele><time>2026-04-04T14:32:33Z</time></trkpt><trkpt lat="45.73907961306764" lon="10.09595492530987"><ele>244.60000000000002</ele><time>2026-04-04T14:32:34Z</time></trkpt><trkpt lat="45.739006142652045" lon="10.096021893594893"><ele>248.20000000000002</ele><time>2026-04-04T14:32:35Z</time></trkpt><trkpt lat="45.738914727947225" lon="10.096050335860472"><ele>251.79999999999998</ele><time>2026-04-04T14:32:36Z</time></trkpt><trkpt lat="45.73884125237037" lon="10.096158236947456"><ele>255.39999999999998</ele><time>2026-04-04T14:32:37Z</time></trkpt><trkpt lat="45.738770068021815" lon="10.096260347209675"><ele>259.0</ele><time>2026-04-04T14:32:38Z</time></trkpt><trkpt lat="45.738709462336935" lon="10.096382366622327"><ele>259.0</ele><time>2026-04-04T14:32:39Z</time></trkpt><trkpt lat="45.73865673339373" lon="10.09650551722171"><ele>259.0</ele><time>2026-04-04T14:32:40Z</time></trkpt><trkpt lat="45.73860196730634" lon="10.096618587217433"><ele>259.0</ele><time>2026-04-04T14:32:41Z</time></trkpt><trkpt lat="45.73853654826355" lon="10.096720192654013"><ele>259.0</ele><time>2026-04-04T14:32:42Z</time></trkpt><trkpt lat="45.73846261576663" lon="10.096828366819262"><ele>259.0</ele><time>2026-04-04T14:32:43Z</time></trkpt><trkpt lat="45.73838474614121" lon="10.09692837761163"><ele>256.59999999999997</ele><time>2026-04-04T14:32:44Z</time></trkpt><trkpt lat="45.738299950578224" lon="10.097025884739583"><ele>254.2</ele><time>2026-04-04T14:32:45Z</time></trkpt><trkpt lat="45.73821626898047" lon="10.09711885879608"><ele>251.79999999999998</ele><time>2026-04-04T14:32:46Z</time></trkpt><trkpt lat="45.73812967762096" lon="10.097201951916867"><ele>249.39999999999998</ele><time>2026-04-04T14:32:47Z</time></trkpt><trkpt lat="45.73802938828657" lon="10.097261135720766"><ele>247.0</ele><time>2026-04-04T14:32:48Z</time></trkpt><trkpt lat="45.737923294497676" lon="10.097306072277934"><ele>247.0</ele><time>2026-04-04T14:32:49Z</time></trkpt><trkpt lat="45.737814361706036" lon="10.097343562912366"><ele>247.0</ele><time>2026-04-04T14:32:50Z</time></trkpt><trkpt lat="45.73770090336441" lon="10.097367437482921"><ele>247.0</ele><time>2026-04-04T14:32:51Z</time></trkpt><trkpt lat="45.73758908060337" lon="10.097387485217931"><ele>247.0</ele><time>2026-04-04T14:32:52Z</time></trkpt><trkpt lat="45.73747831694502" lon="10.097409416407492"><ele>245.8</ele><time>2026-04-04T14:32:53Z</time></trkpt><trkpt lat="45.73736530850146" lon="10.097425228811856"><ele>244.6</ele><time>2026-04-04T14:32:54Z</time></trkpt><trkpt lat="45.73725550495991" lon="10.097435738926938"><ele>243.40000000000003</ele><time>2026-04-04T14:32:55Z</time></trkpt><trkpt lat="45.73715270554795" lon="10.097448242263479"><ele>242.20000000000002</ele><time>2026-04-04T14:32:56Z</time></trkpt><trkpt lat="45.737056947863316" lon="10.097461580150496"><ele>241.0</ele><time>2026-04-04T14:32:57Z</time></trkpt><trkpt lat="45.73696903622037" lon="10.097474202487103"><ele>240.99999999999997</ele><time>2026-04-04T14:32:58Z</time></trkpt><trkpt lat="45.736887844143524" lon="10.097475745128593"><ele>241.0</ele><time>2026-04-04T14:32:58.999Z</time></trkpt><trkpt lat="45.73680598964746" lon="10.097451144590547"><ele>241.0</ele><time>2026-04-04T14:32:59.999Z</time></trkpt><trkpt lat="45.736731147762676" lon="10.097404057130722"><ele>241.0</ele><time>2026-04-04T14:33:00.999Z</time></trkpt><trkpt lat="45.736658358074465" lon="10.097375574711238"><ele>240.99999999999997</ele><time>2026-04-04T14:33:01.999Z</time></trkpt><trkpt lat="45.736592067253504" lon="10.097358730201421"><ele>241.0</ele><time>2026-04-04T14:33:02.999Z</time></trkpt><trkpt lat="45.73653264362061" lon="10.097445204090974"><ele>239.66666666666666</ele><time>2026-04-04T14:33:03.999Z</time></trkpt><trkpt lat="45.73647876852852" lon="10.097528330967604"><ele>238.33333333333331</ele><time>2026-04-04T14:33:04.999Z</time></trkpt><trkpt lat="45.736420125748445" lon="10.097601762215445"><ele>237.0</ele><time>2026-04-04T14:33:05.999Z</time></trkpt><trkpt lat="45.73636560802467" lon="10.097668790689298"><ele>235.66666666666669</ele><time>2026-04-04T14:33:06.999Z</time></trkpt><trkpt lat="45.73625004610766" lon="10.097716955256004"><ele>234.33333333333334</ele><time>2026-04-04T14:33:08.999Z</time></trkpt><trkpt lat="45.73618623043569" lon="10.097659175677649"><ele>233.0</ele><time>2026-04-04T14:33:09.999Z</time></trkpt><trkpt lat="45.73616227002518" lon="10.097542585165058"><ele>233.00000000000003</ele><time>2026-04-04T14:33:10.999Z</time></trkpt><trkpt lat="45.736131357803195" lon="10.097435378695442"><ele>233.0</ele><time>2026-04-04T14:33:11.999Z</time></trkpt><trkpt lat="45.7361167692745" lon="10.097314377780462"><ele>233.0</ele><time>2026-04-04T14:33:12.999Z</time></trkpt><trkpt lat="45.73611129099583" lon="10.097186350884503"><ele>233.0</ele><time>2026-04-04T14:33:13.999Z</time></trkpt><trkpt lat="45.73614426032518" lon="10.097069713201126"><ele>233.00000000000003</ele><time>2026-04-04T14:33:14.999Z</time></trkpt><trkpt lat="45.736166434743176" lon="10.096944457359278"><ele>233.0</ele><time>2026-04-04T14:33:15.999Z</time></trkpt><trkpt lat="45.73617662991579" lon="10.096804688620177"><ele>231.0</ele><time>2026-04-04T14:33:16.999Z</time></trkpt><trkpt lat="45.73621046970603" lon="10.096670155541306"><ele>229.0</ele><time>2026-04-04T14:33:17.999Z</time></trkpt><trkpt lat="45.736237668081046" lon="10.096531239392673"><ele>227.0</ele><time>2026-04-04T14:33:18.999Z</time></trkpt><trkpt lat="45.7362638200346" lon="10.096382459121529"><ele>225.0</ele><time>2026-04-04T14:33:19.999Z</time></trkpt><trkpt lat="45.73629124889976" lon="10.096234767254181"><ele>223.0</ele><time>2026-04-04T14:33:20.999Z</time></trkpt><trkpt lat="45.73630924998679" lon="10.09608246965648"><ele>221.60000000000002</ele><time>2026-04-04T14:33:21.999Z</time></trkpt><trkpt lat="45.73632087336638" lon="10.09592896201777"><ele>220.20000000000002</ele><time>2026-04-04T14:33:22.999Z</time></trkpt><trkpt lat="45.736328390772236" lon="10.09578014553373"><ele>218.8</ele><time>2026-04-04T14:33:23.999Z</time></trkpt><trkpt lat="45.736336175735524" lon="10.095634884539791"><ele>217.4</ele><time>2026-04-04T14:33:24.999Z</time></trkpt><trkpt lat="45.736352005587506" lon="10.09549703977068"><ele>216.0</ele><time>2026-04-04T14:33:25.999Z</time></trkpt><trkpt lat="45.73637313674024" lon="10.095363235704752"><ele>215.4</ele><time>2026-04-04T14:33:26.999Z</time></trkpt><trkpt lat="45.736392823033405" lon="10.095227097530536"><ele>214.8</ele><time>2026-04-04T14:33:27.999Z</time></trkpt><trkpt lat="45.736418938311" lon="10.095092284265695"><ele>214.20000000000002</ele><time>2026-04-04T14:33:28.999Z</time></trkpt><trkpt lat="45.736443800843226" lon="10.09496309861024"><ele>213.60000000000002</ele><time>2026-04-04T14:33:29.999Z</time></trkpt><trkpt lat="45.736468248888364" lon="10.094829487259677"><ele>213.0</ele><time>2026-04-04T14:33:30.999Z</time></trkpt><trkpt lat="45.73650374899305" lon="10.094699077981053"><ele>211.60000000000002</ele><time>2026-04-04T14:33:31.999Z</time></trkpt><trkpt lat="45.736569003909096" lon="10.094588932059107"><ele>210.20000000000002</ele><time>2026-04-04T14:33:32.999Z</time></trkpt><trkpt lat="45.73664866405587" lon="10.094501688364792"><ele>208.8</ele><time>2026-04-04T14:33:33.999Z</time></trkpt><trkpt lat="45.73674352468926" lon="10.09444402513134"><ele>207.4</ele><time>2026-04-04T14:33:34.999Z</time></trkpt><trkpt lat="45.736846099756846" lon="10.09441259234244"><ele>206.0</ele><time>2026-04-04T14:33:35.999Z</time></trkpt><trkpt lat="45.73695156562248" lon="10.094394969852761"><ele>205.4</ele><time>2026-04-04T14:33:36.999Z</time></trkpt><trkpt lat="45.7370578508508" lon="10.094367665492019"><ele>204.8</ele><time>2026-04-04T14:33:37.999Z</time></trkpt><trkpt lat="45.73716132191514" lon="10.094331714703545"><ele>204.20000000000002</ele><time>2026-04-04T14:33:38.999Z</time></trkpt><trkpt lat="45.73726602439346" lon="10.094292559058927"><ele>203.60000000000002</ele><time>2026-04-04T14:33:39.999Z</time></trkpt><trkpt lat="45.73736668858729" lon="10.094227574322481"><ele>203.0</ele><time>2026-04-04T14:33:40.999Z</time></trkpt><trkpt lat="45.73746145208856" lon="10.094148320356751"><ele>202.4</ele><time>2026-04-04T14:33:41.999Z</time></trkpt><trkpt lat="45.73754733609351" lon="10.09405883545543"><ele>201.8</ele><time>2026-04-04T14:33:42.999Z</time></trkpt><trkpt lat="45.73763093650775" lon="10.093975890013393"><ele>201.2</ele><time>2026-04-04T14:33:43.999Z</time></trkpt><trkpt lat="45.737713566483336" lon="10.093894503617493"><ele>200.6</ele><time>2026-04-04T14:33:44.999Z</time></trkpt><trkpt lat="45.73779185360152" lon="10.093815656737746"><ele>200.0</ele><time>2026-04-04T14:33:45.999Z</time></trkpt><trkpt lat="45.73786495791152" lon="10.093745840374181"><ele>199.71428571428572</ele><time>2026-04-04T14:33:46.999Z</time></trkpt><trkpt lat="45.73792550650103" lon="10.093668729434391"><ele>199.42857142857144</ele><time>2026-04-04T14:33:47.999Z</time></trkpt><trkpt lat="45.737964778912385" lon="10.093577262424233"><ele>199.14285714285717</ele><time>2026-04-04T14:33:48.999Z</time></trkpt><trkpt lat="45.7380020853727" lon="10.09349240899922"><ele>198.85714285714286</ele><time>2026-04-04T14:33:49.999Z</time></trkpt><trkpt lat="45.7380174503949" lon="10.093394191954719"><ele>198.57142857142856</ele><time>2026-04-04T14:33:50.999Z</time></trkpt><trkpt lat="45.7380095625644" lon="10.093302030214542"><ele>198.2857142857143</ele><time>2026-04-04T14:33:51.999Z</time></trkpt><trkpt lat="45.73800392613207" lon="10.093212060284554"><ele>198.0</ele><time>2026-04-04T14:33:52.999Z</time></trkpt><trkpt lat="45.73798917863865" lon="10.093033349102221"><ele>197.66666666666666</ele><time>2026-04-04T14:33:54.998Z</time></trkpt><trkpt lat="45.738001242494754" lon="10.092937608292516"><ele>197.33333333333331</ele><time>2026-04-04T14:33:55.998Z</time></trkpt><trkpt lat="45.73801419817067" lon="10.092836233213513"><ele>197.0</ele><time>2026-04-04T14:33:56.998Z</time></trkpt><trkpt lat="45.73803061200497" lon="10.09273003083352"><ele>196.66666666666666</ele><time>2026-04-04T14:33:57.998Z</time></trkpt><trkpt lat="45.73804228814312" lon="10.092632872828224"><ele>196.33333333333331</ele><time>2026-04-04T14:33:58.998Z</time></trkpt><trkpt lat="45.73805316632341" lon="10.092477211584207"><ele>196.0</ele><time>2026-04-04T14:34:00.998Z</time></trkpt><trkpt lat="45.73806373418365" lon="10.092370894526141"><ele>195.42857142857142</ele><time>2026-04-04T14:34:03.998Z</time></trkpt><trkpt lat="45.738062115191994" lon="10.092275852564153"><ele>194.85714285714286</ele><time>2026-04-04T14:34:20Z</time></trkpt><trkpt lat="45.73799255924958" lon="10.092237153681632"><ele>194.28571428571428</ele><time>2026-04-04T14:34:23Z</time></trkpt><trkpt lat="45.7379217790573" lon="10.092213100849623"><ele>193.71428571428572</ele><time>2026-04-04T14:34:26Z</time></trkpt><trkpt lat="45.73783759037234" lon="10.092185813578194"><ele>193.14285714285714</ele><time>2026-04-04T14:34:31Z</time></trkpt><trkpt lat="45.737773752518194" lon="10.092151932676831"><ele>192.57142857142856</ele><time>2026-04-04T14:34:38Z</time></trkpt><trkpt lat="45.737698388894835" lon="10.092145055942172"><ele>192.0</ele><time>2026-04-04T14:34:41Z</time></trkpt><trkpt lat="45.73760489671592" lon="10.092132807067227"><ele>192.0</ele><time>2026-04-04T14:34:44Z</time></trkpt><trkpt lat="45.73751166382891" lon="10.092113722352163"><ele>192.0</ele><time>2026-04-04T14:34:47Z</time></trkpt><trkpt lat="45.737442026952465" lon="10.092108725687353"><ele>192.0</ele><time>2026-04-04T14:34:49Z</time></trkpt><trkpt lat="45.73735513559515" lon="10.092093665641741"><ele>192.0</ele><time>2026-04-04T14:34:51Z</time></trkpt><trkpt lat="45.737265611780614" lon="10.092073483350898"><ele>192.0</ele><time>2026-04-04T14:34:53Z</time></trkpt><trkpt lat="45.73718869996738" lon="10.092069521343477"><ele>192.0</ele><time>2026-04-04T14:34:55Z</time></trkpt><trkpt lat="45.73711533948949" lon="10.092063866694092"><ele>192.0</ele><time>2026-04-04T14:34:57Z</time></trkpt><trkpt lat="45.737047838852995" lon="10.092065983642417"><ele>192.0</ele><time>2026-04-04T14:34:59Z</time></trkpt><trkpt lat="45.736965281786595" lon="10.092046076765818"><ele>192.0</ele><time>2026-04-04T14:35:01Z</time></trkpt><trkpt lat="45.73686826597288" lon="10.09204130965914"><ele>192.0</ele><time>2026-04-04T14:35:02.999Z</time></trkpt><trkpt lat="45.736764439780046" lon="10.092028518357532"><ele>192.0</ele><time>2026-04-04T14:35:04.999Z</time></trkpt><trkpt lat="45.736658768177264" lon="10.09201292339357"><ele>192.2</ele><time>2026-04-04T14:35:06.999Z</time></trkpt><trkpt lat="45.736561172400975" lon="10.091998356024872"><ele>192.39999999999998</ele><time>2026-04-04T14:35:08.999Z</time></trkpt><trkpt lat="45.73646566734973" lon="10.091986988844397"><ele>192.60000000000002</ele><time>2026-04-04T14:35:10.999Z</time></trkpt><trkpt lat="45.7363501421064" lon="10.09195775142448"><ele>192.8</ele><time>2026-04-04T14:35:12.999Z</time></trkpt><trkpt lat="45.736227754341066" lon="10.09193068329694"><ele>193.0</ele><time>2026-04-04T14:35:14.999Z</time></trkpt><trkpt lat="45.736162386569525" lon="10.091923981007128"><ele>192.99999999999997</ele><time>2026-04-04T14:35:15.999Z</time></trkpt><trkpt lat="45.73609724254828" lon="10.091913100359953"><ele>193.0</ele><time>2026-04-04T14:35:16.999Z</time></trkpt><trkpt lat="45.73603375117201" lon="10.091899897002827"><ele>193.0</ele><time>2026-04-04T14:35:17.999Z</time></trkpt><trkpt lat="45.735971124136434" lon="10.091887935883259"><ele>193.0</ele><time>2026-04-04T14:35:18.999Z</time></trkpt><trkpt lat="45.73584474820322" lon="10.091867518260543"><ele>192.99999999999997</ele><time>2026-04-04T14:35:20.999Z</time></trkpt><trkpt lat="45.73578071558029" lon="10.091853268487897"><ele>193.0</ele><time>2026-04-04T14:35:21.999Z</time></trkpt><trkpt lat="45.735715397621824" lon="10.091843724322054"><ele>193.00000000000003</ele><time>2026-04-04T14:35:22.999Z</time></trkpt><trkpt lat="45.735647638501966" lon="10.091832055185376"><ele>193.0</ele><time>2026-04-04T14:35:23.999Z</time></trkpt><trkpt lat="45.735579696632776" lon="10.091821630132504"><ele>193.0</ele><time>2026-04-04T14:35:24.999Z</time></trkpt><trkpt lat="45.73550993473107" lon="10.091815679758797"><ele>193.0</ele><time>2026-04-04T14:35:25.999Z</time></trkpt><trkpt lat="45.73544130509189" lon="10.091815696376042"><ele>193.0</ele><time>2026-04-04T14:35:26.999Z</time></trkpt><trkpt lat="45.73537205700149" lon="10.091817269465533"><ele>193.00000000000003</ele><time>2026-04-04T14:35:27.999Z</time></trkpt><trkpt lat="45.735301107898934" lon="10.091814047874497"><ele>193.0</ele><time>2026-04-04T14:35:28.999Z</time></trkpt><trkpt lat="45.73522644862674" lon="10.091815985438695"><ele>192.99999999999997</ele><time>2026-04-04T14:35:29.999Z</time></trkpt><trkpt lat="45.73515075791693" lon="10.091823294663971"><ele>193.0</ele><time>2026-04-04T14:35:30.999Z</time></trkpt><trkpt lat="45.73507442592788" lon="10.091833496764036"><ele>193.0</ele><time>2026-04-04T14:35:31.999Z</time></trkpt><trkpt lat="45.73499614832631" lon="10.091844713766287"><ele>193.0</ele><time>2026-04-04T14:35:32.999Z</time></trkpt><trkpt lat="45.734917348800785" lon="10.091852513256468"><ele>192.99999999999997</ele><time>2026-04-04T14:35:33.999Z</time></trkpt><trkpt lat="45.734837916641006" lon="10.091865066575844"><ele>193.0</ele><time>2026-04-04T14:35:34.999Z</time></trkpt><trkpt lat="45.734758361635954" lon="10.091879233013405"><ele>192.99999999999997</ele><time>2026-04-04T14:35:35.999Z</time></trkpt><trkpt lat="45.734678050401435" lon="10.09189544523506"><ele>193.0</ele><time>2026-04-04T14:35:36.999Z</time></trkpt><trkpt lat="45.734597689618155" lon="10.091912057414387"><ele>193.0</ele><time>2026-04-04T14:35:37.999Z</time></trkpt><trkpt lat="45.73452015073241" lon="10.091934791173445"><ele>193.0</ele><time>2026-04-04T14:35:38.999Z</time></trkpt><trkpt lat="45.73443849697155" lon="10.091958477747918"><ele>192.99999999999997</ele><time>2026-04-04T14:35:39.999Z</time></trkpt><trkpt lat="45.73435688042884" lon="10.091988726514947"><ele>193.0</ele><time>2026-04-04T14:35:40.999Z</time></trkpt><trkpt lat="45.7342787657344" lon="10.092021050517639"><ele>192.83333333333331</ele><time>2026-04-04T14:35:41.999Z</time></trkpt><trkpt lat="45.734199588249155" lon="10.092058736280723"><ele>192.66666666666666</ele><time>2026-04-04T14:35:42.999Z</time></trkpt><trkpt lat="45.73412195256877" lon="10.092098883034348"><ele>192.5</ele><time>2026-04-04T14:35:43.999Z</time></trkpt><trkpt lat="45.734041740407434" lon="10.092144375925033"><ele>192.33333333333331</ele><time>2026-04-04T14:35:44.999Z</time></trkpt><trkpt lat="45.73396371847959" lon="10.092187853651026"><ele>192.16666666666666</ele><time>2026-04-04T14:35:45.999Z</time></trkpt><trkpt lat="45.73388658237152" lon="10.092238595830139"><ele>192.0</ele><time>2026-04-04T14:35:46.999Z</time></trkpt><trkpt lat="45.73381096812662" lon="10.092286489731006"><ele>192.0</ele><time>2026-04-04T14:35:47.999Z</time></trkpt><trkpt lat="45.73372894306619" lon="10.092341700686971"><ele>192.0</ele><time>2026-04-04T14:35:48.999Z</time></trkpt><trkpt lat="45.733648993152855" lon="10.09238260858852"><ele>192.0</ele><time>2026-04-04T14:35:49.999Z</time></trkpt><trkpt lat="45.73356634492649" lon="10.092431881492473"><ele>192.0</ele><time>2026-04-04T14:35:50.999Z</time></trkpt><trkpt lat="45.73348723072738" lon="10.092483122466467"><ele>192.0</ele><time>2026-04-04T14:35:51.999Z</time></trkpt><trkpt lat="45.733391028923435" lon="10.092526296239615"><ele>191.66666666666666</ele><time>2026-04-04T14:35:52.999Z</time></trkpt><trkpt lat="45.73332034818198" lon="10.092584991836764"><ele>191.33333333333334</ele><time>2026-04-04T14:35:53.999Z</time></trkpt><trkpt lat="45.73323937795217" lon="10.092640874339857"><ele>191.0</ele><time>2026-04-04T14:35:54.999Z</time></trkpt><trkpt lat="45.733160768334216" lon="10.092697541108572"><ele>190.66666666666669</ele><time>2026-04-04T14:35:55.998Z</time></trkpt><trkpt lat="45.73307962518072" lon="10.092749340081722"><ele>190.33333333333334</ele><time>2026-04-04T14:35:56.998Z</time></trkpt><trkpt lat="45.732995775723836" lon="10.09279927554774"><ele>190.0</ele><time>2026-04-04T14:35:57.998Z</time></trkpt><trkpt lat="45.73291397678076" lon="10.09285254582037"><ele>190.0</ele><time>2026-04-04T14:35:58.998Z</time></trkpt><trkpt lat="45.73283332640401" lon="10.09290717271671"><ele>190.0</ele><time>2026-04-04T14:35:59.998Z</time></trkpt><trkpt lat="45.732754225213334" lon="10.092964715836175"><ele>190.0</ele><time>2026-04-04T14:36:00.998Z</time></trkpt><trkpt lat="45.7326703460362" lon="10.09301261313339"><ele>190.0</ele><time>2026-04-04T14:36:01.998Z</time></trkpt><trkpt lat="45.73258788948892" lon="10.09306457758756"><ele>190.0</ele><time>2026-04-04T14:36:02.998Z</time></trkpt><trkpt lat="45.73251035068521" lon="10.093122933079497"><ele>190.0</ele><time>2026-04-04T14:36:03.998Z</time></trkpt><trkpt lat="45.732427986974194" lon="10.093176860560204"><ele>189.66666666666669</ele><time>2026-04-04T14:36:04.998Z</time></trkpt><trkpt lat="45.73235110996959" lon="10.093231125200775"><ele>189.33333333333334</ele><time>2026-04-04T14:36:05.998Z</time></trkpt><trkpt lat="45.73226997773973" lon="10.093283466036645"><ele>189.0</ele><time>2026-04-04T14:36:06.998Z</time></trkpt><trkpt lat="45.73219166256591" lon="10.093336990253274"><ele>188.66666666666666</ele><time>2026-04-04T14:36:07.998Z</time></trkpt><trkpt lat="45.73211239307457" lon="10.093391277367811"><ele>188.33333333333331</ele><time>2026-04-04T14:36:08.998Z</time></trkpt><trkpt lat="45.73203586751413" lon="10.093445527622823"><ele>188.0</ele><time>2026-04-04T14:36:09.998Z</time></trkpt><trkpt lat="45.731955900807165" lon="10.093498511315001"><ele>188.0</ele><time>2026-04-04T14:36:10.998Z</time></trkpt><trkpt lat="45.731877298503235" lon="10.09355186971577"><ele>188.0</ele><time>2026-04-04T14:36:11.998Z</time></trkpt><trkpt lat="45.73180135570538" lon="10.093613658756285"><ele>188.0</ele><time>2026-04-04T14:36:12.998Z</time></trkpt><trkpt lat="45.73172432770586" lon="10.093676363966598"><ele>188.0</ele><time>2026-04-04T14:36:13.998Z</time></trkpt><trkpt lat="45.731645614199955" lon="10.093737346464893"><ele>188.0</ele><time>2026-04-04T14:36:14.998Z</time></trkpt><trkpt lat="45.73156464694434" lon="10.093792111470426"><ele>188.0</ele><time>2026-04-04T14:36:15.998Z</time></trkpt><trkpt lat="45.73148404779259" lon="10.093845959453244"><ele>188.0</ele><time>2026-04-04T14:36:16.998Z</time></trkpt><trkpt lat="45.73140369288489" lon="10.093899720665698"><ele>188.0</ele><time>2026-04-04T14:36:17.998Z</time></trkpt><trkpt lat="45.73132221698422" lon="10.093952098414338"><ele>188.0</ele><time>2026-04-04T14:36:18.998Z</time></trkpt><trkpt lat="45.731242936559696" lon="10.09400384362775"><ele>188.0</ele><time>2026-04-04T14:36:19.998Z</time></trkpt><trkpt lat="45.731162549075556" lon="10.094058643701842"><ele>188.0</ele><time>2026-04-04T14:36:20.998Z</time></trkpt><trkpt lat="45.7310834827469" lon="10.094113763502204"><ele>188.0</ele><time>2026-04-04T14:36:21.998Z</time></trkpt><trkpt lat="45.731003279458186" lon="10.094170511362433"><ele>188.16666666666666</ele><time>2026-04-04T14:36:22.998Z</time></trkpt><trkpt lat="45.730923610742636" lon="10.094223874089142"><ele>188.33333333333331</ele><time>2026-04-04T14:36:23.998Z</time></trkpt><trkpt lat="45.7308464433202" lon="10.094277708362261"><ele>188.5</ele><time>2026-04-04T14:36:25Z</time></trkpt><trkpt lat="45.73076699856767" lon="10.094333087097025"><ele>188.66666666666666</ele><time>2026-04-04T14:36:26Z</time></trkpt><trkpt lat="45.730687090770616" lon="10.094390971024144"><ele>188.83333333333334</ele><time>2026-04-04T14:36:27Z</time></trkpt><trkpt lat="45.7306093001027" lon="10.094440958307434"><ele>189.0</ele><time>2026-04-04T14:36:28Z</time></trkpt><trkpt lat="45.73053019012255" lon="10.094494784211228"><ele>189.0</ele><time>2026-04-04T14:36:29Z</time></trkpt><trkpt lat="45.73045391379202" lon="10.09454544391296"><ele>189.0</ele><time>2026-04-04T14:36:30Z</time></trkpt><trkpt lat="45.73037259176351" lon="10.094596219345954"><ele>189.0</ele><time>2026-04-04T14:36:31Z</time></trkpt><trkpt lat="45.73029458350142" lon="10.09465043897361"><ele>189.0</ele><time>2026-04-04T14:36:32Z</time></trkpt><trkpt lat="45.73021625392776" lon="10.094705769825206"><ele>189.0</ele><time>2026-04-04T14:36:33Z</time></trkpt><trkpt lat="45.73013979615774" lon="10.094761614404213"><ele>189.0</ele><time>2026-04-04T14:36:34Z</time></trkpt><trkpt lat="45.73006157430247" lon="10.094814756063727"><ele>188.66666666666666</ele><time>2026-04-04T14:36:35Z</time></trkpt><trkpt lat="45.729983225213104" lon="10.094865904898167"><ele>188.33333333333334</ele><time>2026-04-04T14:36:36Z</time></trkpt><trkpt lat="45.72990550894664" lon="10.094918557210859"><ele>188.0</ele><time>2026-04-04T14:36:37Z</time></trkpt><trkpt lat="45.72982712719992" lon="10.094972512619416"><ele>187.66666666666669</ele><time>2026-04-04T14:36:38Z</time></trkpt><trkpt lat="45.72974970660172" lon="10.09502296885455"><ele>187.33333333333334</ele><time>2026-04-04T14:36:39Z</time></trkpt><trkpt lat="45.72967135886906" lon="10.095074657884942"><ele>187.0</ele><time>2026-04-04T14:36:40Z</time></trkpt><trkpt lat="45.729594102346255" lon="10.095127376908787"><ele>187.16666666666669</ele><time>2026-04-04T14:36:41Z</time></trkpt><trkpt lat="45.72951586371267" lon="10.095180952474424"><ele>187.33333333333334</ele><time>2026-04-04T14:36:42Z</time></trkpt><trkpt lat="45.729439041508236" lon="10.095232094953948"><ele>187.5</ele><time>2026-04-04T14:36:43Z</time></trkpt><trkpt lat="45.72936277750366" lon="10.095284630479352"><ele>187.66666666666666</ele><time>2026-04-04T14:36:44Z</time></trkpt><trkpt lat="45.729287379165655" lon="10.095340717296995"><ele>187.83333333333331</ele><time>2026-04-04T14:36:45Z</time></trkpt><trkpt lat="45.72921223454485" lon="10.095400494004906"><ele>188.0</ele><time>2026-04-04T14:36:46Z</time></trkpt><trkpt lat="45.72914247430311" lon="10.095472993527588"><ele>188.0</ele><time>2026-04-04T14:36:47Z</time></trkpt><trkpt lat="45.72907331774574" lon="10.09554869009804"><ele>188.0</ele><time>2026-04-04T14:36:48Z</time></trkpt><trkpt lat="45.72900483024581" lon="10.095622070656356"><ele>188.0</ele><time>2026-04-04T14:36:49Z</time></trkpt><trkpt lat="45.72893544844972" lon="10.095693097562775"><ele>188.0</ele><time>2026-04-04T14:36:50Z</time></trkpt><trkpt lat="45.728866846649204" lon="10.095765656066657"><ele>188.0</ele><time>2026-04-04T14:36:51Z</time></trkpt><trkpt lat="45.72879873659267" lon="10.09584215142208"><ele>188.0</ele><time>2026-04-04T14:36:52Z</time></trkpt><trkpt lat="45.72873081671074" lon="10.095924856688322"><ele>187.66666666666666</ele><time>2026-04-04T14:36:53Z</time></trkpt><trkpt lat="45.72866332293674" lon="10.096003654036995"><ele>187.33333333333331</ele><time>2026-04-04T14:36:54Z</time></trkpt><trkpt lat="45.72859539404552" lon="10.096083164734047"><ele>187.0</ele><time>2026-04-04T14:36:55Z</time></trkpt><trkpt lat="45.72852813266231" lon="10.096160326736115"><ele>186.66666666666666</ele><time>2026-04-04T14:36:56Z</time></trkpt><trkpt lat="45.72845703918895" lon="10.096233314428963"><ele>186.33333333333334</ele><time>2026-04-04T14:36:57Z</time></trkpt><trkpt lat="45.72838612071108" lon="10.096303134212391"><ele>186.0</ele><time>2026-04-04T14:36:58Z</time></trkpt><trkpt lat="45.72831291454816" lon="10.09636914559362"><ele>186.0</ele><time>2026-04-04T14:36:59Z</time></trkpt><trkpt lat="45.72823764008293" lon="10.096427829324817"><ele>186.0</ele><time>2026-04-04T14:37:00Z</time></trkpt><trkpt lat="45.728161910535455" lon="10.096484863226378"><ele>186.0</ele><time>2026-04-04T14:37:01Z</time></trkpt><trkpt lat="45.72808504671068" lon="10.09653775528446"><ele>186.0</ele><time>2026-04-04T14:37:02Z</time></trkpt><trkpt lat="45.7280123196575" lon="10.096598083361757"><ele>186.0</ele><time>2026-04-04T14:37:03Z</time></trkpt><trkpt lat="45.72794139106117" lon="10.09666328391986"><ele>186.0</ele><time>2026-04-04T14:37:03.999Z</time></trkpt><trkpt lat="45.72787342297113" lon="10.09673497039268"><ele>185.66666666666666</ele><time>2026-04-04T14:37:04.999Z</time></trkpt><trkpt lat="45.72780792859671" lon="10.096810856654708"><ele>185.33333333333334</ele><time>2026-04-04T14:37:05.999Z</time></trkpt><trkpt lat="45.727747576932174" lon="10.096895183210519"><ele>185.0</ele><time>2026-04-04T14:37:06.999Z</time></trkpt><trkpt lat="45.727687597553704" lon="10.096978898308556"><ele>184.66666666666669</ele><time>2026-04-04T14:37:07.999Z</time></trkpt><trkpt lat="45.727627245426454" lon="10.09706219339766"><ele>184.33333333333334</ele><time>2026-04-04T14:37:08.999Z</time></trkpt><trkpt lat="45.72756833344226" lon="10.09714756277005"><ele>184.0</ele><time>2026-04-04T14:37:09.999Z</time></trkpt><trkpt lat="45.72750831410011" lon="10.097230262062702"><ele>184.0</ele><time>2026-04-04T14:37:10.999Z</time></trkpt><trkpt lat="45.72745037224837" lon="10.097312797168712"><ele>184.0</ele><time>2026-04-04T14:37:11.999Z</time></trkpt><trkpt lat="45.72739343851004" lon="10.09739729067469"><ele>184.0</ele><time>2026-04-04T14:37:12.999Z</time></trkpt><trkpt lat="45.727338892509195" lon="10.097482681798326"><ele>184.0</ele><time>2026-04-04T14:37:13.999Z</time></trkpt><trkpt lat="45.72728384472931" lon="10.097571135219102"><ele>184.0</ele><time>2026-04-04T14:37:14.999Z</time></trkpt><trkpt lat="45.7272289840854" lon="10.097654387885608"><ele>184.0</ele><time>2026-04-04T14:37:15.999Z</time></trkpt><trkpt lat="45.727175728408966" lon="10.097743145552274"><ele>184.16666666666669</ele><time>2026-04-04T14:37:16.999Z</time></trkpt><trkpt lat="45.727125247137" lon="10.097831981668179"><ele>184.33333333333334</ele><time>2026-04-04T14:37:17.999Z</time></trkpt><trkpt lat="45.727075623365984" lon="10.097923956164552"><ele>184.5</ele><time>2026-04-04T14:37:18.999Z</time></trkpt><trkpt lat="45.72702602208492" lon="10.09801498287217"><ele>184.66666666666666</ele><time>2026-04-04T14:37:19.999Z</time></trkpt><trkpt lat="45.726981503453054" lon="10.098111026175875"><ele>184.83333333333331</ele><time>2026-04-04T14:37:20.999Z</time></trkpt><trkpt lat="45.726936310070386" lon="10.09820908791821"><ele>185.0</ele><time>2026-04-04T14:37:21.999Z</time></trkpt><trkpt lat="45.726893624722216" lon="10.098309316151703"><ele>185.0</ele><time>2026-04-04T14:37:22.999Z</time></trkpt><trkpt lat="45.72685380633539" lon="10.098409470810765"><ele>185.0</ele><time>2026-04-04T14:37:23.999Z</time></trkpt><trkpt lat="45.726812826849965" lon="10.098511605202413"><ele>185.0</ele><time>2026-04-04T14:37:24.999Z</time></trkpt><trkpt lat="45.72677079564965" lon="10.098611999979365"><ele>185.0</ele><time>2026-04-04T14:37:25.999Z</time></trkpt><trkpt lat="45.72673007649009" lon="10.098713860621055"><ele>185.0</ele><time>2026-04-04T14:37:26.999Z</time></trkpt><trkpt lat="45.726693744638915" lon="10.098815357859829"><ele>185.0</ele><time>2026-04-04T14:37:27.999Z</time></trkpt><trkpt lat="45.726657290566486" lon="10.098916044018257"><ele>185.0</ele><time>2026-04-04T14:37:28.999Z</time></trkpt><trkpt lat="45.726625652809766" lon="10.099021886306444"><ele>185.0</ele><time>2026-04-04T14:37:29.999Z</time></trkpt><trkpt lat="45.72659367849616" lon="10.099128007822483"><ele>185.0</ele><time>2026-04-04T14:37:30.999Z</time></trkpt><trkpt lat="45.72656354572869" lon="10.099234391583567"><ele>185.0</ele><time>2026-04-04T14:37:31.999Z</time></trkpt><trkpt lat="45.72653673237054" lon="10.099343639692908"><ele>185.0</ele><time>2026-04-04T14:37:32.999Z</time></trkpt><trkpt lat="45.726504943348104" lon="10.099450284855816"><ele>185.0</ele><time>2026-04-04T14:37:33.999Z</time></trkpt><trkpt lat="45.72647703178132" lon="10.09956146343765"><ele>185.5</ele><time>2026-04-04T14:37:34.999Z</time></trkpt><trkpt lat="45.72644992436961" lon="10.099670265831918"><ele>186.0</ele><time>2026-04-04T14:37:35.999Z</time></trkpt><trkpt lat="45.72642180933601" lon="10.099779150262277"><ele>186.5</ele><time>2026-04-04T14:37:36.999Z</time></trkpt><trkpt lat="45.72639560287622" lon="10.09988863264001"><ele>187.0</ele><time>2026-04-04T14:37:37.999Z</time></trkpt><trkpt lat="45.72636953401041" lon="10.0999987053961"><ele>187.5</ele><time>2026-04-04T14:37:38.999Z</time></trkpt><trkpt lat="45.72634301107225" lon="10.100107799798755"><ele>188.0</ele><time>2026-04-04T14:37:39.999Z</time></trkpt><trkpt lat="45.726315756511205" lon="10.100216347505908"><ele>189.0</ele><time>2026-04-04T14:37:40.999Z</time></trkpt><trkpt lat="45.72628623823366" lon="10.100322368623258"><ele>190.0</ele><time>2026-04-04T14:37:41.999Z</time></trkpt><trkpt lat="45.72625729411755" lon="10.100430191936223"><ele>191.0</ele><time>2026-04-04T14:37:42.999Z</time></trkpt><trkpt lat="45.7262315376942" lon="10.100538992972146"><ele>192.0</ele><time>2026-04-04T14:37:43.999Z</time></trkpt><trkpt lat="45.726204020918495" lon="10.100647029904554"><ele>193.00000000000003</ele><time>2026-04-04T14:37:44.999Z</time></trkpt><trkpt lat="45.7261779170099" lon="10.100754178337612"><ele>194.0</ele><time>2026-04-04T14:37:45.999Z</time></trkpt><trkpt lat="45.726148704732445" lon="10.100862625275242"><ele>194.83333333333334</ele><time>2026-04-04T14:37:46.999Z</time></trkpt><trkpt lat="45.726123591582535" lon="10.100971569994876"><ele>195.66666666666669</ele><time>2026-04-04T14:37:47.999Z</time></trkpt><trkpt lat="45.7260973429355" lon="10.10108145555122"><ele>196.5</ele><time>2026-04-04T14:37:48.999Z</time></trkpt><trkpt lat="45.72607074085174" lon="10.101191164781149"><ele>197.33333333333331</ele><time>2026-04-04T14:37:49.999Z</time></trkpt><trkpt lat="45.72604031867839" lon="10.101297743720282"><ele>198.16666666666666</ele><time>2026-04-04T14:37:50.999Z</time></trkpt><trkpt lat="45.72601513492906" lon="10.101405186241307"><ele>199.0</ele><time>2026-04-04T14:37:51.999Z</time></trkpt><trkpt lat="45.72599422890126" lon="10.101513559127673"><ele>196.66666666666666</ele><time>2026-04-04T14:37:52.999Z</time></trkpt><trkpt lat="45.72596790301925" lon="10.101621539940167"><ele>194.33333333333331</ele><time>2026-04-04T14:37:53.999Z</time></trkpt><trkpt lat="45.725945009365404" lon="10.101729779464929"><ele>192.0</ele><time>2026-04-04T14:37:54.999Z</time></trkpt><trkpt lat="45.725928271051025" lon="10.101839422418795"><ele>189.66666666666666</ele><time>2026-04-04T14:37:55.999Z</time></trkpt><trkpt lat="45.72591209953328" lon="10.101950414363543"><ele>187.33333333333331</ele><time>2026-04-04T14:37:56.999Z</time></trkpt><trkpt lat="45.7258985427393" lon="10.10206165690735"><ele>185.0</ele><time>2026-04-04T14:37:57.998Z</time></trkpt><trkpt lat="45.725884843762685" lon="10.102169876323957"><ele>185.0</ele><time>2026-04-04T14:37:58.998Z</time></trkpt><trkpt lat="45.72587203719453" lon="10.10228079579682"><ele>185.0</ele><time>2026-04-04T14:37:59.998Z</time></trkpt><trkpt lat="45.72586402862726" lon="10.102394029890988"><ele>185.0</ele><time>2026-04-04T14:38:00.998Z</time></trkpt><trkpt lat="45.72585198301094" lon="10.102506707030065"><ele>185.0</ele><time>2026-04-04T14:38:01.998Z</time></trkpt><trkpt lat="45.72584201426347" lon="10.102618845778625"><ele>185.0</ele><time>2026-04-04T14:38:02.998Z</time></trkpt><trkpt lat="45.72583038431545" lon="10.102729089257533"><ele>185.0</ele><time>2026-04-04T14:38:03.998Z</time></trkpt><trkpt lat="45.725821680353505" lon="10.102839361892366"><ele>185.0</ele><time>2026-04-04T14:38:04.998Z</time></trkpt><trkpt lat="45.72581041668838" lon="10.102949952682103"><ele>185.0</ele><time>2026-04-04T14:38:05.998Z</time></trkpt><trkpt lat="45.72579880968307" lon="10.103062028916625"><ele>185.0</ele><time>2026-04-04T14:38:06.998Z</time></trkpt><trkpt lat="45.725785943462256" lon="10.103173167778662"><ele>185.0</ele><time>2026-04-04T14:38:07.998Z</time></trkpt><trkpt lat="45.725772336489904" lon="10.103284620183576"><ele>185.0</ele><time>2026-04-04T14:38:08.998Z</time></trkpt><trkpt lat="45.72576063668696" lon="10.103397705923484"><ele>185.0</ele><time>2026-04-04T14:38:09.998Z</time></trkpt><trkpt lat="45.72573681403138" lon="10.103505973740289"><ele>186.0</ele><time>2026-04-04T14:38:10.998Z</time></trkpt><trkpt lat="45.72570665265259" lon="10.103613072287134"><ele>187.0</ele><time>2026-04-04T14:38:11.998Z</time></trkpt><trkpt lat="45.7256777090056" lon="10.103716245958918"><ele>188.0</ele><time>2026-04-04T14:38:12.998Z</time></trkpt><trkpt lat="45.72564764011188" lon="10.103821940268293"><ele>189.0</ele><time>2026-04-04T14:38:13.998Z</time></trkpt><trkpt lat="45.725613396514774" lon="10.103924621886806"><ele>190.0</ele><time>2026-04-04T14:38:14.998Z</time></trkpt><trkpt lat="45.725573333513175" lon="10.104021485781068"><ele>191.0</ele><time>2026-04-04T14:38:15.998Z</time></trkpt><trkpt lat="45.72552572632602" lon="10.104112627244696"><ele>191.16666666666666</ele><time>2026-04-04T14:38:16.998Z</time></trkpt><trkpt lat="45.725479431701096" lon="10.104204342182642"><ele>191.33333333333331</ele><time>2026-04-04T14:38:17.998Z</time></trkpt><trkpt lat="45.72542713842828" lon="10.104286980048354"><ele>191.5</ele><time>2026-04-04T14:38:18.998Z</time></trkpt><trkpt lat="45.72536502078109" lon="10.10435581032446"><ele>191.66666666666666</ele><time>2026-04-04T14:38:19.998Z</time></trkpt><trkpt lat="45.725298775804674" lon="10.104422818202652"><ele>191.83333333333334</ele><time>2026-04-04T14:38:20.998Z</time></trkpt><trkpt lat="45.725234079037115" lon="10.10448573375196"><ele>192.0</ele><time>2026-04-04T14:38:21.998Z</time></trkpt><trkpt lat="45.72516589064766" lon="10.104552148710304"><ele>192.33333333333334</ele><time>2026-04-04T14:38:22.998Z</time></trkpt><trkpt lat="45.72510203363418" lon="10.104618463600175"><ele>192.66666666666669</ele><time>2026-04-04T14:38:23.998Z</time></trkpt><trkpt lat="45.725038576064314" lon="10.104685257132148"><ele>193.0</ele><time>2026-04-04T14:38:24.998Z</time></trkpt><trkpt lat="45.72497108581198" lon="10.104751421096601"><ele>193.33333333333334</ele><time>2026-04-04T14:38:25.998Z</time></trkpt><trkpt lat="45.72490626496415" lon="10.104814987834878"><ele>193.66666666666669</ele><time>2026-04-04T14:38:26.998Z</time></trkpt><trkpt lat="45.7248401912297" lon="10.104881296413616"><ele>194.0</ele><time>2026-04-04T14:38:27.998Z</time></trkpt><trkpt lat="45.72477475202512" lon="10.104946812594799"><ele>194.00000000000003</ele><time>2026-04-04T14:38:28.998Z</time></trkpt><trkpt lat="45.72470880768865" lon="10.10501034781801"><ele>194.0</ele><time>2026-04-04T14:38:30Z</time></trkpt><trkpt lat="45.724640360058004" lon="10.105074751747559"><ele>194.0</ele><time>2026-04-04T14:38:31Z</time></trkpt><trkpt lat="45.72457547552351" lon="10.10513951020444"><ele>194.0</ele><time>2026-04-04T14:38:32Z</time></trkpt><trkpt lat="45.724509744059795" lon="10.105205322289548"><ele>194.00000000000003</ele><time>2026-04-04T14:38:33Z</time></trkpt><trkpt lat="45.72444435443184" lon="10.105268549598946"><ele>194.0</ele><time>2026-04-04T14:38:34Z</time></trkpt><trkpt lat="45.72438098897591" lon="10.105333916368771"><ele>192.50000000000003</ele><time>2026-04-04T14:38:35Z</time></trkpt><trkpt lat="45.72431312656483" lon="10.105397743277855"><ele>191.0</ele><time>2026-04-04T14:38:36Z</time></trkpt><trkpt lat="45.724247682578515" lon="10.105463520952478"><ele>189.5</ele><time>2026-04-04T14:38:37Z</time></trkpt><trkpt lat="45.72418252226093" lon="10.105524783981856"><ele>188.0</ele><time>2026-04-04T14:38:38Z</time></trkpt><trkpt lat="45.7241174269607" lon="10.105588383369119"><ele>186.5</ele><time>2026-04-04T14:38:39Z</time></trkpt><trkpt lat="45.72405185527262" lon="10.10565194172617"><ele>185.0</ele><time>2026-04-04T14:38:40Z</time></trkpt><trkpt lat="45.72398698718143" lon="10.10571837549264"><ele>186.0</ele><time>2026-04-04T14:38:41Z</time></trkpt><trkpt lat="45.723922132657535" lon="10.105784645555918"><ele>187.0</ele><time>2026-04-04T14:38:42Z</time></trkpt><trkpt lat="45.72385637661058" lon="10.105848603148088"><ele>188.0</ele><time>2026-04-04T14:38:43Z</time></trkpt><trkpt lat="45.723791427774785" lon="10.105911269669708"><ele>189.0</ele><time>2026-04-04T14:38:44Z</time></trkpt><trkpt lat="45.72372516166424" lon="10.105973956640145"><ele>190.0</ele><time>2026-04-04T14:38:45Z</time></trkpt><trkpt lat="45.72365976287003" lon="10.106036707178832"><ele>191.0</ele><time>2026-04-04T14:38:46Z</time></trkpt><trkpt lat="45.72359543404047" lon="10.106101044085372"><ele>189.83333333333331</ele><time>2026-04-04T14:38:47Z</time></trkpt><trkpt lat="45.72352991674679" lon="10.106164909049726"><ele>188.66666666666666</ele><time>2026-04-04T14:38:48Z</time></trkpt><trkpt lat="45.723468497249534" lon="10.10623094340496"><ele>187.5</ele><time>2026-04-04T14:38:49Z</time></trkpt><trkpt lat="45.723403611961345" lon="10.106292639996635"><ele>186.33333333333334</ele><time>2026-04-04T14:38:50Z</time></trkpt><trkpt lat="45.723339153475834" lon="10.10635636925256"><ele>185.16666666666669</ele><time>2026-04-04T14:38:51Z</time></trkpt><trkpt lat="45.723273179757264" lon="10.106417148279903"><ele>184.0</ele><time>2026-04-04T14:38:52Z</time></trkpt><trkpt lat="45.72320923777137" lon="10.106480237878795"><ele>184.0</ele><time>2026-04-04T14:38:53Z</time></trkpt><trkpt lat="45.72314600726964" lon="10.106541787406117"><ele>184.0</ele><time>2026-04-04T14:38:54Z</time></trkpt><trkpt lat="45.72308520528214" lon="10.106605306234336"><ele>184.0</ele><time>2026-04-04T14:38:55Z</time></trkpt><trkpt lat="45.723021940364504" lon="10.106665751607839"><ele>184.0</ele><time>2026-04-04T14:38:56Z</time></trkpt><trkpt lat="45.722959220373596" lon="10.106724773148102"><ele>184.0</ele><time>2026-04-04T14:38:57Z</time></trkpt><trkpt lat="45.7228985241155" lon="10.106788020902279"><ele>184.0</ele><time>2026-04-04T14:38:58Z</time></trkpt><trkpt lat="45.72283598133151" lon="10.106844819498697"><ele>184.0</ele><time>2026-04-04T14:38:59Z</time></trkpt><trkpt lat="45.72277542644792" lon="10.106905652171786"><ele>184.0</ele><time>2026-04-04T14:39:00Z</time></trkpt><trkpt lat="45.722712535700644" lon="10.106963750907397"><ele>184.0</ele><time>2026-04-04T14:39:01Z</time></trkpt><trkpt lat="45.72265004797925" lon="10.107028768103506"><ele>184.0</ele><time>2026-04-04T14:39:02Z</time></trkpt><trkpt lat="45.72258852740021" lon="10.107089216786184"><ele>184.0</ele><time>2026-04-04T14:39:03Z</time></trkpt><trkpt lat="45.722528007247675" lon="10.107150668065213"><ele>184.0</ele><time>2026-04-04T14:39:03.999Z</time></trkpt><trkpt lat="45.72246373161531" lon="10.10721563801193"><ele>184.0</ele><time>2026-04-04T14:39:04.999Z</time></trkpt><trkpt lat="45.722404588120604" lon="10.10728044006601"><ele>184.0</ele><time>2026-04-04T14:39:05.999Z</time></trkpt><trkpt lat="45.722343965039414" lon="10.10734996544116"><ele>184.0</ele><time>2026-04-04T14:39:06.999Z</time></trkpt><trkpt lat="45.722286837183596" lon="10.107421186268034"><ele>184.0</ele><time>2026-04-04T14:39:07.999Z</time></trkpt><trkpt lat="45.72222806290127" lon="10.107494396936303"><ele>184.0</ele><time>2026-04-04T14:39:08.999Z</time></trkpt><trkpt lat="45.72217423617179" lon="10.107570066103365"><ele>184.0</ele><time>2026-04-04T14:39:09.999Z</time></trkpt><trkpt lat="45.722120367382075" lon="10.10764923456318"><ele>183.66666666666669</ele><time>2026-04-04T14:39:10.999Z</time></trkpt><trkpt lat="45.722068219676835" lon="10.107727085436945"><ele>183.33333333333334</ele><time>2026-04-04T14:39:11.999Z</time></trkpt><trkpt lat="45.72201127902402" lon="10.107803491721008"><ele>183.0</ele><time>2026-04-04T14:39:12.999Z</time></trkpt><trkpt lat="45.7219577400967" lon="10.107880044551187"><ele>182.66666666666666</ele><time>2026-04-04T14:39:13.999Z</time></trkpt><trkpt lat="45.72190286655615" lon="10.107961376450676"><ele>182.33333333333331</ele><time>2026-04-04T14:39:14.999Z</time></trkpt><trkpt lat="45.72184510004512" lon="10.108038676671534"><ele>182.0</ele><time>2026-04-04T14:39:15.999Z</time></trkpt><trkpt lat="45.72178943824172" lon="10.108114924305823"><ele>182.0</ele><time>2026-04-04T14:39:16.999Z</time></trkpt><trkpt lat="45.72173175100033" lon="10.108194706355453"><ele>182.0</ele><time>2026-04-04T14:39:17.999Z</time></trkpt><trkpt lat="45.721675760506464" lon="10.108271103809523"><ele>182.0</ele><time>2026-04-04T14:39:18.999Z</time></trkpt><trkpt lat="45.72161575140154" lon="10.108346096814703"><ele>182.0</ele><time>2026-04-04T14:39:19.999Z</time></trkpt><trkpt lat="45.72155305068467" lon="10.108411142390286"><ele>182.0</ele><time>2026-04-04T14:39:20.999Z</time></trkpt><trkpt lat="45.7214854094573" lon="10.108470241283587"><ele>182.0</ele><time>2026-04-04T14:39:21.999Z</time></trkpt><trkpt lat="45.721416545640366" lon="10.108524950638223"><ele>182.16666666666666</ele><time>2026-04-04T14:39:22.999Z</time></trkpt><trkpt lat="45.721343365236" lon="10.108570169314389"><ele>182.33333333333331</ele><time>2026-04-04T14:39:23.999Z</time></trkpt><trkpt lat="45.72127334840854" lon="10.10861578829419"><ele>182.5</ele><time>2026-04-04T14:39:24.999Z</time></trkpt><trkpt lat="45.721201377301625" lon="10.108657699288507"><ele>182.66666666666666</ele><time>2026-04-04T14:39:25.999Z</time></trkpt><trkpt lat="45.721129283560586" lon="10.108700843811649"><ele>182.83333333333334</ele><time>2026-04-04T14:39:26.999Z</time></trkpt><trkpt lat="45.7210583575901" lon="10.10874831537321"><ele>183.0</ele><time>2026-04-04T14:39:27.999Z</time></trkpt><trkpt lat="45.72098626079742" lon="10.108796748196403"><ele>183.0</ele><time>2026-04-04T14:39:28.999Z</time></trkpt><trkpt lat="45.72091603849905" lon="10.10884718987404"><ele>183.0</ele><time>2026-04-04T14:39:29.999Z</time></trkpt><trkpt lat="45.72084601252384" lon="10.108898926176987"><ele>183.0</ele><time>2026-04-04T14:39:30.999Z</time></trkpt><trkpt lat="45.720781081211506" lon="10.108962098273297"><ele>183.0</ele><time>2026-04-04T14:39:31.999Z</time></trkpt><trkpt lat="45.72071599150646" lon="10.109029779408514"><ele>183.0</ele><time>2026-04-04T14:39:32.999Z</time></trkpt><trkpt lat="45.72065272270839" lon="10.10910084093736"><ele>183.0</ele><time>2026-04-04T14:39:33.999Z</time></trkpt><trkpt lat="45.72059604259859" lon="10.109180701846537"><ele>183.0</ele><time>2026-04-04T14:39:34.999Z</time></trkpt><trkpt lat="45.72053695505284" lon="10.109258325917796"><ele>183.0</ele><time>2026-04-04T14:39:35.999Z</time></trkpt><trkpt lat="45.7204804491083" lon="10.109337354218791"><ele>183.0</ele><time>2026-04-04T14:39:36.999Z</time></trkpt><trkpt lat="45.72042625325549" lon="10.109420333326335"><ele>183.0</ele><time>2026-04-04T14:39:37.999Z</time></trkpt><trkpt lat="45.7203705121306" lon="10.109500193303687"><ele>183.0</ele><time>2026-04-04T14:39:38.999Z</time></trkpt><trkpt lat="45.72030575835079" lon="10.10956173710209"><ele>183.0</ele><time>2026-04-04T14:39:39.999Z</time></trkpt><trkpt lat="45.72023278017176" lon="10.10961217538279"><ele>183.0</ele><time>2026-04-04T14:39:40.999Z</time></trkpt><trkpt lat="45.720159770320386" lon="10.109653279074426"><ele>183.0</ele><time>2026-04-04T14:39:41.999Z</time></trkpt><trkpt lat="45.7200815152901" lon="10.109685256941827"><ele>183.0</ele><time>2026-04-04T14:39:42.999Z</time></trkpt><trkpt lat="45.72000324741707" lon="10.109702972976791"><ele>183.0</ele><time>2026-04-04T14:39:43.999Z</time></trkpt><trkpt lat="45.719929063223134" lon="10.109721270800312"><ele>183.0</ele><time>2026-04-04T14:39:44.999Z</time></trkpt><trkpt lat="45.719854222560734" lon="10.10974179259223"><ele>183.0</ele><time>2026-04-04T14:39:45.999Z</time></trkpt><trkpt lat="45.719780908317006" lon="10.109758890038774"><ele>183.0</ele><time>2026-04-04T14:39:46.999Z</time></trkpt><trkpt lat="45.71970829596014" lon="10.10977435843191"><ele>183.0</ele><time>2026-04-04T14:39:47.999Z</time></trkpt><trkpt lat="45.71963732423992" lon="10.109795855976254"><ele>183.0</ele><time>2026-04-04T14:39:48.999Z</time></trkpt><trkpt lat="45.71956938388305" lon="10.109816024794593"><ele>183.0</ele><time>2026-04-04T14:39:49.999Z</time></trkpt><trkpt lat="45.71950327114419" lon="10.109837141672033"><ele>183.0</ele><time>2026-04-04T14:39:50.999Z</time></trkpt><trkpt lat="45.719437765184225" lon="10.109857827143047"><ele>183.0</ele><time>2026-04-04T14:39:51.999Z</time></trkpt><trkpt lat="45.71936991178462" lon="10.1098728749766"><ele>183.0</ele><time>2026-04-04T14:39:52.999Z</time></trkpt><trkpt lat="45.71930687576194" lon="10.10988361596835"><ele>184.0</ele><time>2026-04-04T14:39:53.999Z</time></trkpt><trkpt lat="45.71919293394896" lon="10.10991329201219"><ele>185.0</ele><time>2026-04-04T14:39:55.999Z</time></trkpt><trkpt lat="45.71911078204631" lon="10.109927836997953"><ele>186.0</ele><time>2026-04-04T14:39:57.998Z</time></trkpt><trkpt lat="45.71904237534133" lon="10.109944846480724"><ele>187.0</ele><time>2026-04-04T14:39:59.998Z</time></trkpt><trkpt lat="45.718975137780035" lon="10.109963769439135"><ele>188.0</ele><time>2026-04-04T14:40:01.998Z</time></trkpt><trkpt lat="45.718896417231576" lon="10.110009671927742"><ele>189.0</ele><time>2026-04-04T14:40:04.998Z</time></trkpt><trkpt lat="45.718808324036786" lon="10.110059402996033"><ele>189.0</ele><time>2026-04-04T14:40:07.998Z</time></trkpt><trkpt lat="45.71871814261121" lon="10.110112181112013"><ele>189.0</ele><time>2026-04-04T14:40:09.998Z</time></trkpt><trkpt lat="45.71861973745044" lon="10.110168676116668"><ele>189.0</ele><time>2026-04-04T14:40:11.998Z</time></trkpt><trkpt lat="45.7185071214983" lon="10.110236532326272"><ele>189.0</ele><time>2026-04-04T14:40:13.998Z</time></trkpt><trkpt lat="45.718449368864036" lon="10.110280442098892"><ele>189.0</ele><time>2026-04-04T14:40:14.998Z</time></trkpt><trkpt lat="45.71838513834025" lon="10.110313147140843"><ele>188.85714285714286</ele><time>2026-04-04T14:40:15.998Z</time></trkpt><trkpt lat="45.7183242934836" lon="10.110347560084136"><ele>188.71428571428572</ele><time>2026-04-04T14:40:16.998Z</time></trkpt><trkpt lat="45.71826011804483" lon="10.110382619529469"><ele>188.57142857142856</ele><time>2026-04-04T14:40:17.998Z</time></trkpt><trkpt lat="45.71819680415187" lon="10.110413216632713"><ele>188.42857142857144</ele><time>2026-04-04T14:40:18.998Z</time></trkpt><trkpt lat="45.71813184004338" lon="10.110444813530211"><ele>188.28571428571428</ele><time>2026-04-04T14:40:19.998Z</time></trkpt><trkpt lat="45.718068169878975" lon="10.110468788380356"><ele>188.14285714285714</ele><time>2026-04-04T14:40:20.998Z</time></trkpt><trkpt lat="45.71799809685682" lon="10.11049394385715"><ele>188.0</ele><time>2026-04-04T14:40:21.998Z</time></trkpt><trkpt lat="45.71793253595143" lon="10.110516763914402"><ele>188.0</ele><time>2026-04-04T14:40:22.998Z</time></trkpt><trkpt lat="45.71786486468084" lon="10.110532032435877"><ele>188.0</ele><time>2026-04-04T14:40:23.998Z</time></trkpt><trkpt lat="45.71779197088577" lon="10.110523056222489"><ele>188.0</ele><time>2026-04-04T14:40:24.998Z</time></trkpt><trkpt lat="45.71771737786036" lon="10.110502749983628"><ele>188.0</ele><time>2026-04-04T14:40:25.998Z</time></trkpt><trkpt lat="45.71764404078466" lon="10.110487833117675"><ele>188.0</ele><time>2026-04-04T14:40:26.998Z</time></trkpt><trkpt lat="45.71757108903747" lon="10.11046628873698"><ele>188.0</ele><time>2026-04-04T14:40:27.998Z</time></trkpt><trkpt lat="45.717496347148725" lon="10.110458406329252"><ele>188.0</ele><time>2026-04-04T14:40:28.998Z</time></trkpt><trkpt lat="45.717420259171234" lon="10.110440619765118"><ele>187.83333333333331</ele><time>2026-04-04T14:40:29.998Z</time></trkpt><trkpt lat="45.71734957036431" lon="10.110414774037327"><ele>187.66666666666666</ele><time>2026-04-04T14:40:30.998Z</time></trkpt><trkpt lat="45.717274369986725" lon="10.110407319030166"><ele>187.5</ele><time>2026-04-04T14:40:31.998Z</time></trkpt><trkpt lat="45.71719814344495" lon="10.110396383480863"><ele>187.33333333333334</ele><time>2026-04-04T14:40:32.998Z</time></trkpt><trkpt lat="45.71711921309379" lon="10.110375362502282"><ele>187.16666666666669</ele><time>2026-04-04T14:40:33.998Z</time></trkpt><trkpt lat="45.71703782148421" lon="10.1103382328024"><ele>187.0</ele><time>2026-04-04T14:40:35Z</time></trkpt><trkpt lat="45.71695812748466" lon="10.110303055264962"><ele>186.83333333333334</ele><time>2026-04-04T14:40:36Z</time></trkpt><trkpt lat="45.71687460819224" lon="10.110283728209726"><ele>186.66666666666669</ele><time>2026-04-04T14:40:37Z</time></trkpt><trkpt lat="45.71680893414266" lon="10.110228785466594"><ele>186.5</ele><time>2026-04-04T14:40:38Z</time></trkpt><trkpt lat="45.71672815046508" lon="10.110192249916553"><ele>186.33333333333334</ele><time>2026-04-04T14:40:39Z</time></trkpt><trkpt lat="45.71665777621977" lon="10.110150640199814"><ele>186.16666666666666</ele><time>2026-04-04T14:40:40Z</time></trkpt><trkpt lat="45.71657940664399" lon="10.110112171264099"><ele>186.0</ele><time>2026-04-04T14:40:41Z</time></trkpt><trkpt lat="45.71650493216822" lon="10.11008071007667"><ele>186.0</ele><time>2026-04-04T14:40:42Z</time></trkpt><trkpt lat="45.7164306464468" lon="10.11005766671185"><ele>186.0</ele><time>2026-04-04T14:40:43Z</time></trkpt><trkpt lat="45.716354416986555" lon="10.110037133750987"><ele>186.0</ele><time>2026-04-04T14:40:44Z</time></trkpt><trkpt lat="45.716273139885956" lon="10.11003801116248"><ele>186.0</ele><time>2026-04-04T14:40:45Z</time></trkpt><trkpt lat="45.716190545176794" lon="10.110034243554576"><ele>186.0</ele><time>2026-04-04T14:40:46Z</time></trkpt><trkpt lat="45.71611014308775" lon="10.110030516092218"><ele>186.0</ele><time>2026-04-04T14:40:47Z</time></trkpt><trkpt lat="45.71602886985351" lon="10.11002884331442"><ele>186.66666666666666</ele><time>2026-04-04T14:40:48Z</time></trkpt><trkpt lat="45.71594547809725" lon="10.11002785480775"><ele>187.33333333333334</ele><time>2026-04-04T14:40:49Z</time></trkpt><trkpt lat="45.71586308865185" lon="10.110038504474817"><ele>188.0</ele><time>2026-04-04T14:40:50Z</time></trkpt><trkpt lat="45.71577446064576" lon="10.110054726934806"><ele>188.66666666666669</ele><time>2026-04-04T14:40:51Z</time></trkpt><trkpt lat="45.71568682645351" lon="10.110075679809775"><ele>189.33333333333334</ele><time>2026-04-04T14:40:52Z</time></trkpt><trkpt lat="45.715601545312126" lon="10.110105693213187"><ele>190.0</ele><time>2026-04-04T14:40:53Z</time></trkpt><trkpt lat="45.71551556697141" lon="10.110121108726855"><ele>190.0</ele><time>2026-04-04T14:40:54Z</time></trkpt><trkpt lat="45.71542814102373" lon="10.110146199682065"><ele>190.0</ele><time>2026-04-04T14:40:55Z</time></trkpt><trkpt lat="45.715341244148576" lon="10.110166214774713"><ele>190.0</ele><time>2026-04-04T14:40:56Z</time></trkpt><trkpt lat="45.715254111501636" lon="10.110188613915787"><ele>190.0</ele><time>2026-04-04T14:40:57Z</time></trkpt><trkpt lat="45.715169443491845" lon="10.110203775329387"><ele>190.0</ele><time>2026-04-04T14:40:58Z</time></trkpt><trkpt lat="45.71508430501467" lon="10.110225775833419"><ele>190.0</ele><time>2026-04-04T14:40:59Z</time></trkpt><trkpt lat="45.7149960465802" lon="10.110237838370852"><ele>189.33333333333334</ele><time>2026-04-04T14:41:00Z</time></trkpt><trkpt lat="45.71490989308624" lon="10.110262338917144"><ele>188.66666666666669</ele><time>2026-04-04T14:41:01Z</time></trkpt><trkpt lat="45.714825196235466" lon="10.11028390010352"><ele>188.0</ele><time>2026-04-04T14:41:02Z</time></trkpt><trkpt lat="45.71473766037121" lon="10.110313947476905"><ele>187.33333333333334</ele><time>2026-04-04T14:41:03Z</time></trkpt><trkpt lat="45.71465371531099" lon="10.110344126715596"><ele>186.66666666666666</ele><time>2026-04-04T14:41:04Z</time></trkpt><trkpt lat="45.71456544335918" lon="10.110361595968813"><ele>186.0</ele><time>2026-04-04T14:41:05Z</time></trkpt><trkpt lat="45.7144786373522" lon="10.110394969465489"><ele>185.5</ele><time>2026-04-04T14:41:06Z</time></trkpt><trkpt lat="45.714390300011914" lon="10.1104080481149"><ele>185.0</ele><time>2026-04-04T14:41:06.999Z</time></trkpt><trkpt lat="45.71430447908108" lon="10.110424246686772"><ele>184.5</ele><time>2026-04-04T14:41:07.999Z</time></trkpt><trkpt lat="45.71421878894443" lon="10.11043431771296"><ele>184.0</ele><time>2026-04-04T14:41:08.999Z</time></trkpt><trkpt lat="45.714132478215014" lon="10.110425913750856"><ele>183.5</ele><time>2026-04-04T14:41:09.999Z</time></trkpt><trkpt lat="45.71404739142009" lon="10.11041101477875"><ele>183.0</ele><time>2026-04-04T14:41:10.999Z</time></trkpt><trkpt lat="45.71396251324273" lon="10.110394773304062"><ele>183.0</ele><time>2026-04-04T14:41:11.999Z</time></trkpt><trkpt lat="45.713878959081285" lon="10.110362119717909"><ele>183.0</ele><time>2026-04-04T14:41:12.999Z</time></trkpt><trkpt lat="45.71379549264477" lon="10.110332141855077"><ele>183.0</ele><time>2026-04-04T14:41:13.999Z</time></trkpt><trkpt lat="45.71370811189843" lon="10.110292571769126"><ele>183.0</ele><time>2026-04-04T14:41:14.999Z</time></trkpt><trkpt lat="45.71362223047849" lon="10.11025132230082"><ele>183.0</ele><time>2026-04-04T14:41:15.999Z</time></trkpt><trkpt lat="45.7135378044371" lon="10.110202723525477"><ele>183.0</ele><time>2026-04-04T14:41:16.999Z</time></trkpt><trkpt lat="45.71345015499867" lon="10.11015736925766"><ele>183.60000000000002</ele><time>2026-04-04T14:41:17.999Z</time></trkpt><trkpt lat="45.713366485316456" lon="10.110110780300833"><ele>184.20000000000002</ele><time>2026-04-04T14:41:18.999Z</time></trkpt><trkpt lat="45.7132797184346" lon="10.110070946460462"><ele>184.8</ele><time>2026-04-04T14:41:19.999Z</time></trkpt><trkpt lat="45.71319267172308" lon="10.110031017020104"><ele>185.4</ele><time>2026-04-04T14:41:20.999Z</time></trkpt><trkpt lat="45.71310524067181" lon="10.109985917628908"><ele>186.0</ele><time>2026-04-04T14:41:21.999Z</time></trkpt><trkpt lat="45.71301569053969" lon="10.109950768805334"><ele>186.0</ele><time>2026-04-04T14:41:22.999Z</time></trkpt><trkpt lat="45.71292423202227" lon="10.109922616979095"><ele>186.0</ele><time>2026-04-04T14:41:23.999Z</time></trkpt><trkpt lat="45.71283493829057" lon="10.109893783587584"><ele>186.0</ele><time>2026-04-04T14:41:24.999Z</time></trkpt><trkpt lat="45.71274459424417" lon="10.109872951509404"><ele>186.0</ele><time>2026-04-04T14:41:25.999Z</time></trkpt><trkpt lat="45.712654751767786" lon="10.109847403192934"><ele>186.0</ele><time>2026-04-04T14:41:26.999Z</time></trkpt><trkpt lat="45.71256705373554" lon="10.109818403908983"><ele>185.33333333333334</ele><time>2026-04-04T14:41:27.999Z</time></trkpt><trkpt lat="45.71248087226449" lon="10.109793897502872"><ele>184.66666666666666</ele><time>2026-04-04T14:41:28.999Z</time></trkpt><trkpt lat="45.71239271170542" lon="10.109781353838903"><ele>184.0</ele><time>2026-04-04T14:41:29.999Z</time></trkpt><trkpt lat="45.71230694896938" lon="10.10974830339629"><ele>183.33333333333331</ele><time>2026-04-04T14:41:30.999Z</time></trkpt><trkpt lat="45.71221682734296" lon="10.109722040907814"><ele>182.66666666666666</ele><time>2026-04-04T14:41:31.999Z</time></trkpt><trkpt lat="45.712131851184466" lon="10.109697579088442"><ele>182.0</ele><time>2026-04-04T14:41:32.999Z</time></trkpt><trkpt lat="45.71205870387491" lon="10.109667224659207"><ele>182.0</ele><time>2026-04-04T14:41:33.999Z</time></trkpt><trkpt lat="45.71199372327239" lon="10.1096615657918"><ele>182.0</ele><time>2026-04-04T14:41:34.999Z</time></trkpt><trkpt lat="45.7118893676681" lon="10.109642125681694"><ele>182.0</ele><time>2026-04-04T14:41:35.999Z</time></trkpt><trkpt lat="45.7118018461001" lon="10.109643966692158"><ele>182.0</ele><time>2026-04-04T14:41:36.999Z</time></trkpt><trkpt lat="45.71171433154347" lon="10.109654086352808"><ele>182.0</ele><time>2026-04-04T14:41:37.999Z</time></trkpt><trkpt lat="45.71163591804664" lon="10.1096630563762"><ele>182.0</ele><time>2026-04-04T14:41:38.999Z</time></trkpt><trkpt lat="45.711553380080446" lon="10.109665336200512"><ele>182.66666666666666</ele><time>2026-04-04T14:41:39.999Z</time></trkpt><trkpt lat="45.71147162477335" lon="10.109664299593044"><ele>183.33333333333331</ele><time>2026-04-04T14:41:40.999Z</time></trkpt><trkpt lat="45.71139061069944" lon="10.109655011487536"><ele>184.0</ele><time>2026-04-04T14:41:41.999Z</time></trkpt><trkpt lat="45.71129994604279" lon="10.109665793666398"><ele>184.66666666666666</ele><time>2026-04-04T14:41:42.999Z</time></trkpt><trkpt lat="45.711225783882526" lon="10.109650138862827"><ele>185.33333333333334</ele><time>2026-04-04T14:41:43.999Z</time></trkpt><trkpt lat="45.711141856442616" lon="10.109650083093316"><ele>186.0</ele><time>2026-04-04T14:41:44.999Z</time></trkpt><trkpt lat="45.7110535486347" lon="10.109654365630286"><ele>186.0</ele><time>2026-04-04T14:41:45.999Z</time></trkpt><trkpt lat="45.71096490812823" lon="10.109647199522378"><ele>186.0</ele><time>2026-04-04T14:41:46.999Z</time></trkpt><trkpt lat="45.71087016589611" lon="10.109644540041142"><ele>186.0</ele><time>2026-04-04T14:41:47.999Z</time></trkpt><trkpt lat="45.710780748621" lon="10.109642144662175"><ele>186.0</ele><time>2026-04-04T14:41:48.999Z</time></trkpt><trkpt lat="45.7106930169809" lon="10.109637897574991"><ele>186.0</ele><time>2026-04-04T14:41:49.999Z</time></trkpt><trkpt lat="45.71059997559506" lon="10.109639968611608"><ele>186.0</ele><time>2026-04-04T14:41:50.999Z</time></trkpt><trkpt lat="45.710503767726514" lon="10.109636893211734"><ele>186.0</ele><time>2026-04-04T14:41:51.999Z</time></trkpt><trkpt lat="45.71041023336545" lon="10.109637247762006"><ele>186.0</ele><time>2026-04-04T14:41:52.999Z</time></trkpt><trkpt lat="45.71031758495635" lon="10.109639998443054"><ele>186.0</ele><time>2026-04-04T14:41:53.999Z</time></trkpt><trkpt lat="45.71022119479217" lon="10.109644514404373"><ele>186.0</ele><time>2026-04-04T14:41:54.999Z</time></trkpt><trkpt lat="45.71012506429477" lon="10.109662494194055"><ele>185.4</ele><time>2026-04-04T14:41:55.999Z</time></trkpt><trkpt lat="45.71003198937002" lon="10.109674117260525"><ele>184.8</ele><time>2026-04-04T14:41:56.999Z</time></trkpt><trkpt lat="45.709935081761145" lon="10.109691390424603"><ele>184.20000000000002</ele><time>2026-04-04T14:41:57.999Z</time></trkpt><trkpt lat="45.70983780440879" lon="10.10969686444096"><ele>183.60000000000002</ele><time>2026-04-04T14:41:58.999Z</time></trkpt><trkpt lat="45.70974806347679" lon="10.109704147594634"><ele>183.0</ele><time>2026-04-04T14:41:59.999Z</time></trkpt><trkpt lat="45.70965283945306" lon="10.109713601380921"><ele>183.0</ele><time>2026-04-04T14:42:00.998Z</time></trkpt><trkpt lat="45.70955847405744" lon="10.109715166937939"><ele>183.0</ele><time>2026-04-04T14:42:01.998Z</time></trkpt><trkpt lat="45.70946425530642" lon="10.109715301160215"><ele>183.0</ele><time>2026-04-04T14:42:02.998Z</time></trkpt><trkpt lat="45.709372715101686" lon="10.109720436500565"><ele>183.0</ele><time>2026-04-04T14:42:03.998Z</time></trkpt><trkpt lat="45.7092777721863" lon="10.109718063453304"><ele>183.0</ele><time>2026-04-04T14:42:04.998Z</time></trkpt><trkpt lat="45.70918480748432" lon="10.109712846186449"><ele>183.0</ele><time>2026-04-04T14:42:05.998Z</time></trkpt><trkpt lat="45.70909101288737" lon="10.109708094478075"><ele>183.0</ele><time>2026-04-04T14:42:06.998Z</time></trkpt><trkpt lat="45.708998902481284" lon="10.109701938353949"><ele>183.0</ele><time>2026-04-04T14:42:07.998Z</time></trkpt><trkpt lat="45.70890751698756" lon="10.109702892453495"><ele>183.0</ele><time>2026-04-04T14:42:08.998Z</time></trkpt><trkpt lat="45.70881571362256" lon="10.109699387862925"><ele>183.0</ele><time>2026-04-04T14:42:09.998Z</time></trkpt><trkpt lat="45.70872305333373" lon="10.109699817583753"><ele>183.0</ele><time>2026-04-04T14:42:10.998Z</time></trkpt><trkpt lat="45.70863211891181" lon="10.109693536211783"><ele>183.0</ele><time>2026-04-04T14:42:11.998Z</time></trkpt><trkpt lat="45.70854202777827" lon="10.10968161349725"><ele>183.0</ele><time>2026-04-04T14:42:12.998Z</time></trkpt><trkpt lat="45.70845158804772" lon="10.109663068024174"><ele>183.0</ele><time>2026-04-04T14:42:13.998Z</time></trkpt><trkpt lat="45.708359288629886" lon="10.109644291658343"><ele>183.0</ele><time>2026-04-04T14:42:14.998Z</time></trkpt><trkpt lat="45.70826714188799" lon="10.109625667630912"><ele>183.2</ele><time>2026-04-04T14:42:15.998Z</time></trkpt><trkpt lat="45.708176607760635" lon="10.109604305380575"><ele>183.4</ele><time>2026-04-04T14:42:16.998Z</time></trkpt><trkpt lat="45.708087543125195" lon="10.109581932672578"><ele>183.6</ele><time>2026-04-04T14:42:17.998Z</time></trkpt><trkpt lat="45.70799627277014" lon="10.109562297645624"><ele>183.79999999999998</ele><time>2026-04-04T14:42:18.998Z</time></trkpt><trkpt lat="45.70790798303116" lon="10.109538738471189"><ele>184.0</ele><time>2026-04-04T14:42:19.998Z</time></trkpt><trkpt lat="45.70781616435971" lon="10.109509488855327"><ele>184.0</ele><time>2026-04-04T14:42:20.998Z</time></trkpt><trkpt lat="45.707727972678725" lon="10.1094813874866"><ele>184.0</ele><time>2026-04-04T14:42:21.998Z</time></trkpt><trkpt lat="45.707639102729864" lon="10.10943979122097"><ele>184.0</ele><time>2026-04-04T14:42:22.998Z</time></trkpt><trkpt lat="45.70755630102407" lon="10.109403974811222"><ele>184.0</ele><time>2026-04-04T14:42:23.998Z</time></trkpt><trkpt lat="45.70747424432831" lon="10.109373257621083"><ele>184.0</ele><time>2026-04-04T14:42:24.998Z</time></trkpt><trkpt lat="45.707393792797426" lon="10.109341262311434"><ele>184.0</ele><time>2026-04-04T14:42:25.998Z</time></trkpt><trkpt lat="45.707313146647" lon="10.109303587044767"><ele>184.0</ele><time>2026-04-04T14:42:26.998Z</time></trkpt><trkpt lat="45.707230187907754" lon="10.109278228614015"><ele>184.0</ele><time>2026-04-04T14:42:27.998Z</time></trkpt><trkpt lat="45.707147874657736" lon="10.109240932089094"><ele>184.0</ele><time>2026-04-04T14:42:28.998Z</time></trkpt><trkpt lat="45.70706951246616" lon="10.109211275707777"><ele>184.0</ele><time>2026-04-04T14:42:29.998Z</time></trkpt><trkpt lat="45.70699140515244" lon="10.109177312842366"><ele>184.0</ele><time>2026-04-04T14:42:30.998Z</time></trkpt><trkpt lat="45.70691022948452" lon="10.109148320874043"><ele>184.0</ele><time>2026-04-04T14:42:31.998Z</time></trkpt><trkpt lat="45.70683520168901" lon="10.109118528387663"><ele>184.16666666666669</ele><time>2026-04-04T14:42:32.998Z</time></trkpt><trkpt lat="45.70675978625901" lon="10.10908791145328"><ele>184.33333333333334</ele><time>2026-04-04T14:42:33.998Z</time></trkpt><trkpt lat="45.706684336947404" lon="10.109058478341368"><ele>184.5</ele><time>2026-04-04T14:42:34.998Z</time></trkpt><trkpt lat="45.706609374036056" lon="10.10902836825559"><ele>184.66666666666666</ele><time>2026-04-04T14:42:35.998Z</time></trkpt><trkpt lat="45.70653557058198" lon="10.108999159560911"><ele>184.83333333333331</ele><time>2026-04-04T14:42:36.998Z</time></trkpt><trkpt lat="45.706462470145226" lon="10.108970376386905"><ele>185.0</ele><time>2026-04-04T14:42:37.998Z</time></trkpt><trkpt lat="45.70639282502841" lon="10.108946576093016"><ele>184.99999999999997</ele><time>2026-04-04T14:42:38.998Z</time></trkpt><trkpt lat="45.706318459877316" lon="10.108927614114915"><ele>185.0</ele><time>2026-04-04T14:42:39.998Z</time></trkpt><trkpt lat="45.70624779319568" lon="10.10890881433584"><ele>185.0</ele><time>2026-04-04T14:42:41Z</time></trkpt><trkpt lat="45.706177391599546" lon="10.108888449102691"><ele>185.0</ele><time>2026-04-04T14:42:42Z</time></trkpt><trkpt lat="45.706107069629944" lon="10.108869150335416"><ele>185.0</ele><time>2026-04-04T14:42:43Z</time></trkpt><trkpt lat="45.706038528622244" lon="10.108836075751656"><ele>184.99999999999997</ele><time>2026-04-04T14:42:44Z</time></trkpt><trkpt lat="45.70597322403679" lon="10.108793948025854"><ele>185.0</ele><time>2026-04-04T14:42:45Z</time></trkpt><trkpt lat="45.70590553666739" lon="10.108744439404507"><ele>185.99999999999997</ele><time>2026-04-04T14:42:46Z</time></trkpt><trkpt lat="45.705837617077954" lon="10.108705875474476"><ele>187.0</ele><time>2026-04-04T14:42:47Z</time></trkpt><trkpt lat="45.70576797391595" lon="10.10866818990618"><ele>188.0</ele><time>2026-04-04T14:42:48Z</time></trkpt><trkpt lat="45.70570525374934" lon="10.108629360393225"><ele>189.0</ele><time>2026-04-04T14:42:49Z</time></trkpt><trkpt lat="45.70565093671402" lon="10.10856743557161"><ele>190.0</ele><time>2026-04-04T14:42:50Z</time></trkpt><trkpt lat="45.705592734689866" lon="10.108517244525162"><ele>190.99999999999997</ele><time>2026-04-04T14:42:51Z</time></trkpt><trkpt lat="45.70553070109979" lon="10.108472435066851"><ele>192.0</ele><time>2026-04-04T14:42:52Z</time></trkpt><trkpt lat="45.705467673005124" lon="10.108437185392203"><ele>191.99999999999997</ele><time>2026-04-04T14:42:53Z</time></trkpt><trkpt lat="45.70540493519557" lon="10.10841269173411"><ele>192.0</ele><time>2026-04-04T14:42:54Z</time></trkpt><trkpt lat="45.705341195437136" lon="10.108384483416899"><ele>192.0</ele><time>2026-04-04T14:42:55Z</time></trkpt><trkpt lat="45.70527449012624" lon="10.10835270998446"><ele>192.0</ele><time>2026-04-04T14:42:56Z</time></trkpt><trkpt lat="45.70520833260434" lon="10.108327977154293"><ele>192.0</ele><time>2026-04-04T14:42:57Z</time></trkpt><trkpt lat="45.70513950313382" lon="10.108303390604334"><ele>191.99999999999997</ele><time>2026-04-04T14:42:58Z</time></trkpt><trkpt lat="45.7050681502461" lon="10.108292011423249"><ele>192.0</ele><time>2026-04-04T14:42:59Z</time></trkpt><trkpt lat="45.70499475314143" lon="10.108278080255968"><ele>192.16666666666666</ele><time>2026-04-04T14:43:00Z</time></trkpt><trkpt lat="45.70492036053571" lon="10.108256762754595"><ele>192.33333333333331</ele><time>2026-04-04T14:43:01Z</time></trkpt><trkpt lat="45.70484721098139" lon="10.108237898382912"><ele>192.5</ele><time>2026-04-04T14:43:02Z</time></trkpt><trkpt lat="45.70476438972341" lon="10.108232962944067"><ele>192.66666666666666</ele><time>2026-04-04T14:43:03Z</time></trkpt><trkpt lat="45.704683745342834" lon="10.108224318020337"><ele>192.83333333333331</ele><time>2026-04-04T14:43:04Z</time></trkpt><trkpt lat="45.70459860877229" lon="10.10822241407942"><ele>193.0</ele><time>2026-04-04T14:43:05Z</time></trkpt><trkpt lat="45.704517424224434" lon="10.108222693833147"><ele>192.16666666666666</ele><time>2026-04-04T14:43:06Z</time></trkpt><trkpt lat="45.70443828831247" lon="10.108223364252778"><ele>191.33333333333331</ele><time>2026-04-04T14:43:07Z</time></trkpt><trkpt lat="45.704358393311956" lon="10.108229746595745"><ele>190.5</ele><time>2026-04-04T14:43:08Z</time></trkpt><trkpt lat="45.704281449084384" lon="10.108229568863466"><ele>189.66666666666666</ele><time>2026-04-04T14:43:09Z</time></trkpt><trkpt lat="45.7042061431287" lon="10.108233542263445"><ele>188.83333333333331</ele><time>2026-04-04T14:43:10Z</time></trkpt><trkpt lat="45.70412870625661" lon="10.108238988048145"><ele>188.0</ele><time>2026-04-04T14:43:10.999Z</time></trkpt><trkpt lat="45.70404627583828" lon="10.108241226216327"><ele>188.0</ele><time>2026-04-04T14:43:11.999Z</time></trkpt><trkpt lat="45.7039590389365" lon="10.10822967776094"><ele>188.0</ele><time>2026-04-04T14:43:12.999Z</time></trkpt><trkpt lat="45.703873526802006" lon="10.108232069824282"><ele>188.0</ele><time>2026-04-04T14:43:13.999Z</time></trkpt><trkpt lat="45.70378604361467" lon="10.108228678285299"><ele>188.0</ele><time>2026-04-04T14:43:14.999Z</time></trkpt><trkpt lat="45.70369827910526" lon="10.108233519495233"><ele>188.0</ele><time>2026-04-04T14:43:15.999Z</time></trkpt><trkpt lat="45.70360978237021" lon="10.108237488876563"><ele>188.0</ele><time>2026-04-04T14:43:16.999Z</time></trkpt><trkpt lat="45.70351914560753" lon="10.108238092915524"><ele>187.66666666666666</ele><time>2026-04-04T14:43:17.999Z</time></trkpt><trkpt lat="45.7034274114004" lon="10.108237582871123"><ele>187.33333333333331</ele><time>2026-04-04T14:43:18.999Z</time></trkpt><trkpt lat="45.70333860221576" lon="10.108246661693856"><ele>187.0</ele><time>2026-04-04T14:43:19.999Z</time></trkpt><trkpt lat="45.70324884415089" lon="10.108248763266374"><ele>186.66666666666666</ele><time>2026-04-04T14:43:20.999Z</time></trkpt><trkpt lat="45.70316263546174" lon="10.108257944748958"><ele>186.33333333333334</ele><time>2026-04-04T14:43:21.999Z</time></trkpt><trkpt lat="45.7030748872025" lon="10.10826276348509"><ele>186.0</ele><time>2026-04-04T14:43:22.999Z</time></trkpt><trkpt lat="45.70298623708682" lon="10.10826720133066"><ele>186.66666666666666</ele><time>2026-04-04T14:43:23.999Z</time></trkpt><trkpt lat="45.70289451512524" lon="10.108276567768815"><ele>187.33333333333334</ele><time>2026-04-04T14:43:24.999Z</time></trkpt><trkpt lat="45.70280748206232" lon="10.10827935727098"><ele>188.0</ele><time>2026-04-04T14:43:25.999Z</time></trkpt><trkpt lat="45.702714888056995" lon="10.108280978701409"><ele>188.66666666666669</ele><time>2026-04-04T14:43:26.999Z</time></trkpt><trkpt lat="45.70262824315109" lon="10.108279564464022"><ele>189.33333333333334</ele><time>2026-04-04T14:43:27.999Z</time></trkpt><trkpt lat="45.70253905609286" lon="10.108282119651465"><ele>190.0</ele><time>2026-04-04T14:43:28.999Z</time></trkpt><trkpt lat="45.702451066105795" lon="10.108278824925476"><ele>190.0</ele><time>2026-04-04T14:43:29.999Z</time></trkpt><trkpt lat="45.702366153572605" lon="10.108285894594609"><ele>190.0</ele><time>2026-04-04T14:43:30.999Z</time></trkpt><trkpt lat="45.702278350008704" lon="10.10828946224825"><ele>190.0</ele><time>2026-04-04T14:43:31.999Z</time></trkpt><trkpt lat="45.70219285897715" lon="10.108298892137356"><ele>190.0</ele><time>2026-04-04T14:43:32.999Z</time></trkpt><trkpt lat="45.702107185233444" lon="10.108299303227364"><ele>190.0</ele><time>2026-04-04T14:43:33.999Z</time></trkpt><trkpt lat="45.70201958296067" lon="10.10829335072295"><ele>190.0</ele><time>2026-04-04T14:43:34.999Z</time></trkpt><trkpt lat="45.70192869734349" lon="10.108282578348982"><ele>189.6</ele><time>2026-04-04T14:43:35.999Z</time></trkpt><trkpt lat="45.70183931041453" lon="10.108273007300342"><ele>189.2</ele><time>2026-04-04T14:43:36.999Z</time></trkpt><trkpt lat="45.70174922311416" lon="10.108258983760086"><ele>188.8</ele><time>2026-04-04T14:43:37.999Z</time></trkpt><trkpt lat="45.70165951194029" lon="10.108232764891037"><ele>188.4</ele><time>2026-04-04T14:43:38.999Z</time></trkpt><trkpt lat="45.70156801262832" lon="10.10821382596336"><ele>188.0</ele><time>2026-04-04T14:43:39.999Z</time></trkpt><trkpt lat="45.70147771032431" lon="10.108194601930236"><ele>187.0</ele><time>2026-04-04T14:43:40.999Z</time></trkpt><trkpt lat="45.701389340484624" lon="10.108183535584542"><ele>186.0</ele><time>2026-04-04T14:43:41.999Z</time></trkpt><trkpt lat="45.70129687620412" lon="10.108162175533089"><ele>185.0</ele><time>2026-04-04T14:43:42.999Z</time></trkpt><trkpt lat="45.70120367073579" lon="10.108143839251442"><ele>184.0</ele><time>2026-04-04T14:43:43.999Z</time></trkpt><trkpt lat="45.70110774710722" lon="10.108133471567188"><ele>183.0</ele><time>2026-04-04T14:43:44.999Z</time></trkpt><trkpt lat="45.70101085261256" lon="10.108105131802446"><ele>182.8</ele><time>2026-04-04T14:43:45.999Z</time></trkpt><trkpt lat="45.70091024983668" lon="10.108081356684632"><ele>182.60000000000002</ele><time>2026-04-04T14:43:46.999Z</time></trkpt><trkpt lat="45.70081211292106" lon="10.10805941889632"><ele>182.39999999999998</ele><time>2026-04-04T14:43:47.999Z</time></trkpt><trkpt lat="45.70071581871936" lon="10.108040691174255"><ele>182.2</ele><time>2026-04-04T14:43:48.999Z</time></trkpt><trkpt lat="45.70061818945027" lon="10.108014381240633"><ele>182.0</ele><time>2026-04-04T14:43:49.999Z</time></trkpt><trkpt lat="45.70051989308628" lon="10.107992325821531"><ele>182.0</ele><time>2026-04-04T14:43:50.999Z</time></trkpt><trkpt lat="45.70042250148118" lon="10.107949107353269"><ele>182.0</ele><time>2026-04-04T14:43:51.999Z</time></trkpt><trkpt lat="45.70032911921936" lon="10.107915837407479"><ele>182.0</ele><time>2026-04-04T14:43:52.999Z</time></trkpt><trkpt lat="45.700234851588135" lon="10.10787445816583"><ele>182.0</ele><time>2026-04-04T14:43:53.999Z</time></trkpt><trkpt lat="45.700141691203825" lon="10.107832353023795"><ele>182.0</ele><time>2026-04-04T14:43:54.999Z</time></trkpt><trkpt lat="45.700048055807635" lon="10.107791814949918"><ele>182.2</ele><time>2026-04-04T14:43:55.999Z</time></trkpt><trkpt lat="45.69995600202526" lon="10.107745117499283"><ele>182.39999999999998</ele><time>2026-04-04T14:43:56.999Z</time></trkpt><trkpt lat="45.699866049812854" lon="10.107705115606768"><ele>182.60000000000002</ele><time>2026-04-04T14:43:57.999Z</time></trkpt><trkpt lat="45.69977780325416" lon="10.107655203256394"><ele>182.8</ele><time>2026-04-04T14:43:58.999Z</time></trkpt><trkpt lat="45.699692970857306" lon="10.107600364250743"><ele>183.0</ele><time>2026-04-04T14:43:59.999Z</time></trkpt><trkpt lat="45.69961238339912" lon="10.10753834448938"><ele>183.0</ele><time>2026-04-04T14:44:00.999Z</time></trkpt><trkpt lat="45.699534849799136" lon="10.1074798285643"><ele>183.0</ele><time>2026-04-04T14:44:01.999Z</time></trkpt><trkpt lat="45.699455837011676" lon="10.107427853004387"><ele>183.0</ele><time>2026-04-04T14:44:02.999Z</time></trkpt><trkpt lat="45.699379843661504" lon="10.107368145521988"><ele>183.0</ele><time>2026-04-04T14:44:03.999Z</time></trkpt><trkpt lat="45.699298619649824" lon="10.107318976923363"><ele>183.0</ele><time>2026-04-04T14:44:04.998Z</time></trkpt><trkpt lat="45.699219143200786" lon="10.107267641898494"><ele>183.0</ele><time>2026-04-04T14:44:05.998Z</time></trkpt><trkpt lat="45.699138684501364" lon="10.107209319623852"><ele>183.0</ele><time>2026-04-04T14:44:06.998Z</time></trkpt><trkpt lat="45.699059758106074" lon="10.107143192573263"><ele>183.0</ele><time>2026-04-04T14:44:07.998Z</time></trkpt><trkpt lat="45.69897996334109" lon="10.10708865685068"><ele>183.0</ele><time>2026-04-04T14:44:08.998Z</time></trkpt><trkpt lat="45.69889985420527" lon="10.107029709647689"><ele>183.0</ele><time>2026-04-04T14:44:09.998Z</time></trkpt><trkpt lat="45.69882009307711" lon="10.106972918765337"><ele>183.0</ele><time>2026-04-04T14:44:10.998Z</time></trkpt><trkpt lat="45.69874109607291" lon="10.106920297434698"><ele>183.0</ele><time>2026-04-04T14:44:11.998Z</time></trkpt><trkpt lat="45.69866444180452" lon="10.106865439155285"><ele>183.0</ele><time>2026-04-04T14:44:12.998Z</time></trkpt><trkpt lat="45.69859073724294" lon="10.106806023919463"><ele>183.0</ele><time>2026-04-04T14:44:13.998Z</time></trkpt><trkpt lat="45.698518384996405" lon="10.106737083353154"><ele>183.0</ele><time>2026-04-04T14:44:14.998Z</time></trkpt><trkpt lat="45.698447070502844" lon="10.106666896917247"><ele>183.0</ele><time>2026-04-04T14:44:15.998Z</time></trkpt><trkpt lat="45.69837031454559" lon="10.106599005087618"><ele>183.0</ele><time>2026-04-04T14:44:16.998Z</time></trkpt><trkpt lat="45.69829708670861" lon="10.10652904832287"><ele>183.0</ele><time>2026-04-04T14:44:17.998Z</time></trkpt><trkpt lat="45.69822187689746" lon="10.106466845613225"><ele>183.16666666666666</ele><time>2026-04-04T14:44:18.998Z</time></trkpt><trkpt lat="45.69815151240023" lon="10.106398072229599"><ele>183.33333333333334</ele><time>2026-04-04T14:44:19.998Z</time></trkpt><trkpt lat="45.69807689681895" lon="10.106330724034345"><ele>183.5</ele><time>2026-04-04T14:44:20.998Z</time></trkpt><trkpt lat="45.69800283824872" lon="10.106260277803452"><ele>183.66666666666669</ele><time>2026-04-04T14:44:21.998Z</time></trkpt><trkpt lat="45.69792604682756" lon="10.106189620951966"><ele>183.83333333333334</ele><time>2026-04-04T14:44:22.998Z</time></trkpt><trkpt lat="45.69785091654663" lon="10.106124308584244"><ele>184.0</ele><time>2026-04-04T14:44:23.998Z</time></trkpt><trkpt lat="45.697776388065535" lon="10.106056761937518"><ele>183.83333333333334</ele><time>2026-04-04T14:44:24.998Z</time></trkpt><trkpt lat="45.69770395188264" lon="10.105990341678494"><ele>183.66666666666669</ele><time>2026-04-04T14:44:25.998Z</time></trkpt><trkpt lat="45.697630794236204" lon="10.105922648885185"><ele>183.5</ele><time>2026-04-04T14:44:26.998Z</time></trkpt><trkpt lat="45.69755704492915" lon="10.105846773438687"><ele>183.33333333333334</ele><time>2026-04-04T14:44:27.998Z</time></trkpt><trkpt lat="45.697480062843894" lon="10.105777625277279"><ele>183.16666666666666</ele><time>2026-04-04T14:44:28.998Z</time></trkpt><trkpt lat="45.69740650513311" lon="10.105698940685953"><ele>183.0</ele><time>2026-04-04T14:44:29.998Z</time></trkpt><trkpt lat="45.69733510074634" lon="10.105621214959468"><ele>183.0</ele><time>2026-04-04T14:44:30.998Z</time></trkpt><trkpt lat="45.697264460976484" lon="10.1055356150232"><ele>183.0</ele><time>2026-04-04T14:44:31.998Z</time></trkpt><trkpt lat="45.69719853210623" lon="10.10544416880407"><ele>183.0</ele><time>2026-04-04T14:44:32.998Z</time></trkpt><trkpt lat="45.69714085036249" lon="10.105362120924305"><ele>183.0</ele><time>2026-04-04T14:44:33.998Z</time></trkpt><trkpt lat="45.697064435548675" lon="10.105271371314203"><ele>183.0</ele><time>2026-04-04T14:44:34.998Z</time></trkpt><trkpt lat="45.69699271236659" lon="10.105193629405717"><ele>183.0</ele><time>2026-04-04T14:44:35.998Z</time></trkpt><trkpt lat="45.69692275553237" lon="10.105128805845728"><ele>183.0</ele><time>2026-04-04T14:44:36.998Z</time></trkpt><trkpt lat="45.69684524621485" lon="10.105042371478602"><ele>183.0</ele><time>2026-04-04T14:44:37.998Z</time></trkpt><trkpt lat="45.696766066010454" lon="10.104984286014224"><ele>183.0</ele><time>2026-04-04T14:44:38.998Z</time></trkpt><trkpt lat="45.696688866611794" lon="10.104912089295409"><ele>183.0</ele><time>2026-04-04T14:44:39.998Z</time></trkpt><trkpt lat="45.69660826766515" lon="10.10483980501898"><ele>183.0</ele><time>2026-04-04T14:44:40.998Z</time></trkpt><trkpt lat="45.69652661163635" lon="10.104760866499632"><ele>183.0</ele><time>2026-04-04T14:44:41.998Z</time></trkpt><trkpt lat="45.69644100781252" lon="10.104694828327606"><ele>183.0</ele><time>2026-04-04T14:44:42.998Z</time></trkpt><trkpt lat="45.69636091015431" lon="10.104617268027061"><ele>183.0</ele><time>2026-04-04T14:44:43.998Z</time></trkpt><trkpt lat="45.696277805408975" lon="10.104551718660948"><ele>183.0</ele><time>2026-04-04T14:44:44.998Z</time></trkpt><trkpt lat="45.69619356149592" lon="10.104493114252723"><ele>183.0</ele><time>2026-04-04T14:44:46Z</time></trkpt><trkpt lat="45.696112581822824" lon="10.104411929864263"><ele>183.0</ele><time>2026-04-04T14:44:47Z</time></trkpt><trkpt lat="45.69602862676333" lon="10.104350943506333"><ele>183.0</ele><time>2026-04-04T14:44:48Z</time></trkpt><trkpt lat="45.695940741791524" lon="10.104288279082608"><ele>183.0</ele><time>2026-04-04T14:44:49Z</time></trkpt><trkpt lat="45.69585642526821" lon="10.104226502096932"><ele>183.0</ele><time>2026-04-04T14:44:50Z</time></trkpt><trkpt lat="45.695765698917" lon="10.104167246191299"><ele>182.8</ele><time>2026-04-04T14:44:51Z</time></trkpt><trkpt lat="45.69568208994725" lon="10.104114043772466"><ele>182.60000000000002</ele><time>2026-04-04T14:44:52Z</time></trkpt><trkpt lat="45.69559078519071" lon="10.10406047321939"><ele>182.39999999999998</ele><time>2026-04-04T14:44:53Z</time></trkpt><trkpt lat="45.695497322932425" lon="10.104022555345248"><ele>182.2</ele><time>2026-04-04T14:44:54Z</time></trkpt><trkpt lat="45.695405495783305" lon="10.10398141943176"><ele>182.0</ele><time>2026-04-04T14:44:55Z</time></trkpt><trkpt lat="45.695306729280716" lon="10.103954797695405"><ele>182.39999999999998</ele><time>2026-04-04T14:44:56Z</time></trkpt><trkpt lat="45.69521532392656" lon="10.103906771873941"><ele>182.79999999999998</ele><time>2026-04-04T14:44:57Z</time></trkpt><trkpt lat="45.69512287493396" lon="10.103866095978876"><ele>183.2</ele><time>2026-04-04T14:44:58Z</time></trkpt><trkpt lat="45.69503528061479" lon="10.103827643139821"><ele>183.6</ele><time>2026-04-04T14:44:59Z</time></trkpt><trkpt lat="45.69494574878505" lon="10.103802834203789"><ele>184.0</ele><time>2026-04-04T14:45:00Z</time></trkpt><trkpt lat="45.69486222584904" lon="10.103770507393557"><ele>184.0</ele><time>2026-04-04T14:45:01Z</time></trkpt><trkpt lat="45.69477929511794" lon="10.103746652693301"><ele>184.0</ele><time>2026-04-04T14:45:02Z</time></trkpt><trkpt lat="45.694699780872654" lon="10.103728853792216"><ele>184.0</ele><time>2026-04-04T14:45:03Z</time></trkpt><trkpt lat="45.694620963612046" lon="10.103716856432714"><ele>184.0</ele><time>2026-04-04T14:45:04Z</time></trkpt><trkpt lat="45.69454382326397" lon="10.103699212888817"><ele>184.0</ele><time>2026-04-04T14:45:05Z</time></trkpt><trkpt lat="45.694464800389824" lon="10.10368480656693"><ele>184.0</ele><time>2026-04-04T14:45:06Z</time></trkpt><trkpt lat="45.694383074902454" lon="10.103670601502643"><ele>185.16666666666669</ele><time>2026-04-04T14:45:07Z</time></trkpt><trkpt lat="45.69430656042219" lon="10.103660980902056"><ele>186.33333333333334</ele><time>2026-04-04T14:45:08Z</time></trkpt><trkpt lat="45.69423248036319" lon="10.103654988034222"><ele>187.5</ele><time>2026-04-04T14:45:09Z</time></trkpt><trkpt lat="45.69415701848365" lon="10.103648707885014"><ele>188.66666666666666</ele><time>2026-04-04T14:45:10Z</time></trkpt><trkpt lat="45.69408033258415" lon="10.103636539184716"><ele>189.83333333333331</ele><time>2026-04-04T14:45:11Z</time></trkpt><trkpt lat="45.69400546691774" lon="10.10362155728376"><ele>191.0</ele><time>2026-04-04T14:45:12Z</time></trkpt><trkpt lat="45.6939320964695" lon="10.103619060554484"><ele>191.0</ele><time>2026-04-04T14:45:13Z</time></trkpt><trkpt lat="45.69385643671228" lon="10.103605314598685"><ele>191.0</ele><time>2026-04-04T14:45:14Z</time></trkpt><trkpt lat="45.69377701082676" lon="10.103591238373381"><ele>191.0</ele><time>2026-04-04T14:45:14.999Z</time></trkpt><trkpt lat="45.69369140908489" lon="10.103575042759125"><ele>191.0</ele><time>2026-04-04T14:45:15.999Z</time></trkpt><trkpt lat="45.693608446396205" lon="10.103560151219453"><ele>191.0</ele><time>2026-04-04T14:45:16.999Z</time></trkpt><trkpt lat="45.69352358771012" lon="10.103546027032898"><ele>191.0</ele><time>2026-04-04T14:45:17.999Z</time></trkpt><trkpt lat="45.6934346650545" lon="10.103543635874468"><ele>191.33333333333331</ele><time>2026-04-04T14:45:18.999Z</time></trkpt><trkpt lat="45.69335135885988" lon="10.103529406419273"><ele>191.66666666666666</ele><time>2026-04-04T14:45:19.999Z</time></trkpt><trkpt lat="45.693268450496234" lon="10.103511751995955"><ele>192.0</ele><time>2026-04-04T14:45:20.999Z</time></trkpt><trkpt lat="45.69318733518479" lon="10.103496136971295"><ele>192.33333333333331</ele><time>2026-04-04T14:45:21.999Z</time></trkpt><trkpt lat="45.69310406632808" lon="10.103482709653386"><ele>192.66666666666666</ele><time>2026-04-04T14:45:22.999Z</time></trkpt><trkpt lat="45.69302073781688" lon="10.103469057072054"><ele>193.0</ele><time>2026-04-04T14:45:23.999Z</time></trkpt><trkpt lat="45.692936619982" lon="10.103444818959781"><ele>193.0</ele><time>2026-04-04T14:45:24.999Z</time></trkpt><trkpt lat="45.69285107632793" lon="10.10341046352696"><ele>193.0</ele><time>2026-04-04T14:45:25.999Z</time></trkpt><trkpt lat="45.69276273167573" lon="10.1033710668677"><ele>193.0</ele><time>2026-04-04T14:45:26.999Z</time></trkpt><trkpt lat="45.69267446184294" lon="10.103325136614062"><ele>193.0</ele><time>2026-04-04T14:45:27.999Z</time></trkpt><trkpt lat="45.69258714017056" lon="10.103276258514263"><ele>193.0</ele><time>2026-04-04T14:45:28.999Z</time></trkpt><trkpt lat="45.692501935127055" lon="10.103203587753717"><ele>191.4</ele><time>2026-04-04T14:45:29.999Z</time></trkpt><trkpt lat="45.692420622959915" lon="10.10312653478787"><ele>189.8</ele><time>2026-04-04T14:45:30.999Z</time></trkpt><trkpt lat="45.69234896561394" lon="10.103029804733088"><ele>188.2</ele><time>2026-04-04T14:45:31.999Z</time></trkpt><trkpt lat="45.69228399009888" lon="10.102923074403162"><ele>186.6</ele><time>2026-04-04T14:45:32.999Z</time></trkpt><trkpt lat="45.69222456672651" lon="10.102807979388032"><ele>185.0</ele><time>2026-04-04T14:45:33.999Z</time></trkpt><trkpt lat="45.69216538200046" lon="10.10269728431757"><ele>185.0</ele><time>2026-04-04T14:45:34.999Z</time></trkpt><trkpt lat="45.69210988217591" lon="10.102581683807554"><ele>185.0</ele><time>2026-04-04T14:45:35.999Z</time></trkpt><trkpt lat="45.69206393598972" lon="10.102463340860707"><ele>185.0</ele><time>2026-04-04T14:45:36.999Z</time></trkpt><trkpt lat="45.692022009867344" lon="10.102344592723277"><ele>185.0</ele><time>2026-04-04T14:45:37.999Z</time></trkpt><trkpt lat="45.69197266468313" lon="10.102229555622324"><ele>185.0</ele><time>2026-04-04T14:45:38.999Z</time></trkpt><trkpt lat="45.691921125002644" lon="10.102120567369106"><ele>185.0</ele><time>2026-04-04T14:45:39.999Z</time></trkpt><trkpt lat="45.69187653002017" lon="10.102007394598406"><ele>185.0</ele><time>2026-04-04T14:45:40.999Z</time></trkpt><trkpt lat="45.6918259111618" lon="10.101888934547256"><ele>185.0</ele><time>2026-04-04T14:45:41.999Z</time></trkpt><trkpt lat="45.69177711847848" lon="10.101776471593393"><ele>185.0</ele><time>2026-04-04T14:45:42.999Z</time></trkpt><trkpt lat="45.69173063742966" lon="10.101665308369832"><ele>185.0</ele><time>2026-04-04T14:45:43.999Z</time></trkpt><trkpt lat="45.691682458096736" lon="10.101554255142348"><ele>185.0</ele><time>2026-04-04T14:45:44.999Z</time></trkpt><trkpt lat="45.691632729100505" lon="10.101440836779812"><ele>185.0</ele><time>2026-04-04T14:45:45.999Z</time></trkpt><trkpt lat="45.69158284935092" lon="10.101327678281116"><ele>185.0</ele><time>2026-04-04T14:45:46.999Z</time></trkpt><trkpt lat="45.69153116230948" lon="10.101215602155738"><ele>185.0</ele><time>2026-04-04T14:45:47.999Z</time></trkpt><trkpt lat="45.69147763789814" lon="10.101108428254456"><ele>185.0</ele><time>2026-04-04T14:45:48.999Z</time></trkpt><trkpt lat="45.6914097367894" lon="10.101016713653905"><ele>185.0</ele><time>2026-04-04T14:45:49.999Z</time></trkpt><trkpt lat="45.691333998188256" lon="10.100936558684708"><ele>185.0</ele><time>2026-04-04T14:45:50.999Z</time></trkpt><trkpt lat="45.691248840486544" lon="10.100882198674507"><ele>185.0</ele><time>2026-04-04T14:45:51.999Z</time></trkpt><trkpt lat="45.69116390093957" lon="10.100841684832822"><ele>185.0</ele><time>2026-04-04T14:45:52.999Z</time></trkpt><trkpt lat="45.69108092239019" lon="10.100797677011851"><ele>185.0</ele><time>2026-04-04T14:45:53.999Z</time></trkpt><trkpt lat="45.690991885990066" lon="10.100754220859999"><ele>185.6</ele><time>2026-04-04T14:45:54.999Z</time></trkpt><trkpt lat="45.69090687094354" lon="10.10070026297183"><ele>186.2</ele><time>2026-04-04T14:45:55.999Z</time></trkpt><trkpt lat="45.69082109531432" lon="10.100652902000057"><ele>186.8</ele><time>2026-04-04T14:45:56.999Z</time></trkpt><trkpt lat="45.69074066520116" lon="10.100595804606149"><ele>187.4</ele><time>2026-04-04T14:45:57.999Z</time></trkpt><trkpt lat="45.69065775298309" lon="10.100547929790112"><ele>188.0</ele><time>2026-04-04T14:45:58.999Z</time></trkpt><trkpt lat="45.69057774124316" lon="10.100496502349415"><ele>188.0</ele><time>2026-04-04T14:45:59.999Z</time></trkpt><trkpt lat="45.69049370996856" lon="10.100456957826678"><ele>188.0</ele><time>2026-04-04T14:46:00.999Z</time></trkpt><trkpt lat="45.690419698791445" lon="10.10040524124721"><ele>188.0</ele><time>2026-04-04T14:46:01.999Z</time></trkpt><trkpt lat="45.690348749597" lon="10.100356204270355"><ele>188.0</ele><time>2026-04-04T14:46:02.999Z</time></trkpt><trkpt lat="45.690277209552455" lon="10.100300516961196"><ele>188.0</ele><time>2026-04-04T14:46:03.999Z</time></trkpt><trkpt lat="45.690203662793024" lon="10.10023609180851"><ele>188.0</ele><time>2026-04-04T14:46:04.999Z</time></trkpt><trkpt lat="45.69013374727258" lon="10.10016526120672"><ele>188.33333333333331</ele><time>2026-04-04T14:46:05.999Z</time></trkpt><trkpt lat="45.69005961725639" lon="10.10010861608809"><ele>188.66666666666666</ele><time>2026-04-04T14:46:06.999Z</time></trkpt><trkpt lat="45.68998718095477" lon="10.100053226990932"><ele>189.0</ele><time>2026-04-04T14:46:07.999Z</time></trkpt><trkpt lat="45.68991534285185" lon="10.099994692614299"><ele>189.33333333333334</ele><time>2026-04-04T14:46:08.998Z</time></trkpt><trkpt lat="45.68983747110391" lon="10.099951333612154"><ele>189.66666666666669</ele><time>2026-04-04T14:46:09.998Z</time></trkpt><trkpt lat="45.689753557682536" lon="10.09991822460899"><ele>190.0</ele><time>2026-04-04T14:46:10.998Z</time></trkpt><trkpt lat="45.689668617932675" lon="10.099896000106131"><ele>190.0</ele><time>2026-04-04T14:46:11.998Z</time></trkpt><trkpt lat="45.68958727050967" lon="10.09986391861014"><ele>190.0</ele><time>2026-04-04T14:46:12.998Z</time></trkpt><trkpt lat="45.68949957041401" lon="10.099840110655313"><ele>190.0</ele><time>2026-04-04T14:46:13.998Z</time></trkpt><trkpt lat="45.68941325147479" lon="10.099803251999472"><ele>190.0</ele><time>2026-04-04T14:46:14.998Z</time></trkpt><trkpt lat="45.689330507921795" lon="10.099759819089282"><ele>190.0</ele><time>2026-04-04T14:46:15.998Z</time></trkpt><trkpt lat="45.68924676445931" lon="10.099708737551566"><ele>190.0</ele><time>2026-04-04T14:46:16.998Z</time></trkpt><trkpt lat="45.68916758791059" lon="10.099665956283761"><ele>190.66666666666669</ele><time>2026-04-04T14:46:17.998Z</time></trkpt><trkpt lat="45.68908501048787" lon="10.099611513678656"><ele>191.33333333333334</ele><time>2026-04-04T14:46:18.998Z</time></trkpt><trkpt lat="45.68901465550324" lon="10.099570445750087"><ele>192.0</ele><time>2026-04-04T14:46:19.998Z</time></trkpt><trkpt lat="45.688939769018006" lon="10.099529997479516"><ele>192.66666666666669</ele><time>2026-04-04T14:46:20.998Z</time></trkpt><trkpt lat="45.68887160175978" lon="10.099485454752887"><ele>193.33333333333334</ele><time>2026-04-04T14:46:21.998Z</time></trkpt><trkpt lat="45.68880101932915" lon="10.099457010492904"><ele>194.0</ele><time>2026-04-04T14:46:22.998Z</time></trkpt><trkpt lat="45.688734291196255" lon="10.099427070858479"><ele>194.0</ele><time>2026-04-04T14:46:23.998Z</time></trkpt><trkpt lat="45.68862998908929" lon="10.099346999343776"><ele>194.0</ele><time>2026-04-04T14:46:25.998Z</time></trkpt><trkpt lat="45.68853662606814" lon="10.099292312082131"><ele>194.0</ele><time>2026-04-04T14:46:27.998Z</time></trkpt><trkpt lat="45.688444863741594" lon="10.099241830277537"><ele>194.0</ele><time>2026-04-04T14:46:29.998Z</time></trkpt><trkpt lat="45.68833755297989" lon="10.09919344523238"><ele>194.0</ele><time>2026-04-04T14:46:31.998Z</time></trkpt><trkpt lat="45.68822742716988" lon="10.099139854209648"><ele>192.75</ele><time>2026-04-04T14:46:33.998Z</time></trkpt><trkpt lat="45.68812295027735" lon="10.099076512566846"><ele>191.5</ele><time>2026-04-04T14:46:35.998Z</time></trkpt><trkpt lat="45.688009812291824" lon="10.099030475926211"><ele>190.25</ele><time>2026-04-04T14:46:37.998Z</time></trkpt><trkpt lat="45.68790731968173" lon="10.098967962164783"><ele>189.0</ele><time>2026-04-04T14:46:39.998Z</time></trkpt><trkpt lat="45.687806260466694" lon="10.098902319241668"><ele>189.6</ele><time>2026-04-04T14:46:41.998Z</time></trkpt><trkpt lat="45.687708418178445" lon="10.098891203455139"><ele>190.2</ele><time>2026-04-04T14:46:43.998Z</time></trkpt><trkpt lat="45.68759481497025" lon="10.098827793315596"><ele>190.79999999999998</ele><time>2026-04-04T14:46:45.998Z</time></trkpt><trkpt lat="45.68748296085112" lon="10.09873716742615"><ele>191.39999999999998</ele><time>2026-04-04T14:46:47.998Z</time></trkpt><trkpt lat="45.68741257147409" lon="10.098684903140862"><ele>192.0</ele><time>2026-04-04T14:46:48.998Z</time></trkpt><trkpt lat="45.68734017002989" lon="10.098636380461931"><ele>192.0</ele><time>2026-04-04T14:46:49.998Z</time></trkpt><trkpt lat="45.687267634348096" lon="10.098593934479325"><ele>192.0</ele><time>2026-04-04T14:46:50.998Z</time></trkpt><trkpt lat="45.68720008571007" lon="10.09854577888982"><ele>192.0</ele><time>2026-04-04T14:46:52Z</time></trkpt><trkpt lat="45.687131110609485" lon="10.098494403000101"><ele>192.0</ele><time>2026-04-04T14:46:53Z</time></trkpt><trkpt lat="45.68706211468294" lon="10.09845144786649"><ele>192.0</ele><time>2026-04-04T14:46:54Z</time></trkpt><trkpt lat="45.68699070851615" lon="10.098401998611802"><ele>192.0</ele><time>2026-04-04T14:46:55Z</time></trkpt><trkpt lat="45.68692184999914" lon="10.098359054835873"><ele>191.66666666666666</ele><time>2026-04-04T14:46:56Z</time></trkpt><trkpt lat="45.6868506673801" lon="10.098315122798782"><ele>191.33333333333334</ele><time>2026-04-04T14:46:57Z</time></trkpt><trkpt lat="45.68677706442848" lon="10.09827441785998"><ele>191.0</ele><time>2026-04-04T14:46:58Z</time></trkpt><trkpt lat="45.68670199971556" lon="10.098229565148875"><ele>190.66666666666669</ele><time>2026-04-04T14:46:59Z</time></trkpt><trkpt lat="45.68662386923471" lon="10.098175082881454"><ele>190.33333333333334</ele><time>2026-04-04T14:47:00Z</time></trkpt><trkpt lat="45.686546373431945" lon="10.098129659959422"><ele>190.0</ele><time>2026-04-04T14:47:01Z</time></trkpt><trkpt lat="45.68646594865461" lon="10.098089222468653"><ele>190.33333333333334</ele><time>2026-04-04T14:47:02Z</time></trkpt><trkpt lat="45.686389698513665" lon="10.09804426251456"><ele>190.66666666666669</ele><time>2026-04-04T14:47:03Z</time></trkpt><trkpt lat="45.686312791838866" lon="10.097993800575743"><ele>191.0</ele><time>2026-04-04T14:47:04Z</time></trkpt><trkpt lat="45.68623428329202" lon="10.097937505260663"><ele>191.33333333333334</ele><time>2026-04-04T14:47:05Z</time></trkpt><trkpt lat="45.68615696136312" lon="10.097882043866724"><ele>191.66666666666666</ele><time>2026-04-04T14:47:06Z</time></trkpt><trkpt lat="45.68608317244769" lon="10.0978188943256"><ele>192.0</ele><time>2026-04-04T14:47:07Z</time></trkpt><trkpt lat="45.6860115231204" lon="10.097745570705502"><ele>192.0</ele><time>2026-04-04T14:47:08Z</time></trkpt><trkpt lat="45.68594167771236" lon="10.097679465571916"><ele>192.0</ele><time>2026-04-04T14:47:09Z</time></trkpt><trkpt lat="45.68587358517249" lon="10.097600024531188"><ele>192.0</ele><time>2026-04-04T14:47:10Z</time></trkpt><trkpt lat="45.68580306524611" lon="10.097527116860448"><ele>192.0</ele><time>2026-04-04T14:47:11Z</time></trkpt><trkpt lat="45.68573510452422" lon="10.097442290657044"><ele>192.0</ele><time>2026-04-04T14:47:12Z</time></trkpt><trkpt lat="45.68566374535347" lon="10.097364550193978"><ele>192.0</ele><time>2026-04-04T14:47:13Z</time></trkpt><trkpt lat="45.68560072563221" lon="10.097268246005035"><ele>190.6</ele><time>2026-04-04T14:47:14Z</time></trkpt><trkpt lat="45.68554424342659" lon="10.097172615903482"><ele>189.2</ele><time>2026-04-04T14:47:15Z</time></trkpt><trkpt lat="45.68549719594308" lon="10.097057440874503"><ele>187.8</ele><time>2026-04-04T14:47:16Z</time></trkpt><trkpt lat="45.68544967395653" lon="10.096945514231273"><ele>186.4</ele><time>2026-04-04T14:47:17Z</time></trkpt><trkpt lat="45.68540450263076" lon="10.096826560240007"><ele>185.0</ele><time>2026-04-04T14:47:18Z</time></trkpt><trkpt lat="45.68535825709311" lon="10.09670754530878"><ele>184.6</ele><time>2026-04-04T14:47:19Z</time></trkpt><trkpt lat="45.68532309565051" lon="10.096586158433391"><ele>184.2</ele><time>2026-04-04T14:47:20Z</time></trkpt><trkpt lat="45.68528448206875" lon="10.09646582113926"><ele>183.8</ele><time>2026-04-04T14:47:20.999Z</time></trkpt><trkpt lat="45.68525055787298" lon="10.096340438530762"><ele>183.4</ele><time>2026-04-04T14:47:21.999Z</time></trkpt><trkpt lat="45.68520711195193" lon="10.096222093467013"><ele>183.0</ele><time>2026-04-04T14:47:22.999Z</time></trkpt><trkpt lat="45.685162180639665" lon="10.096102197154057"><ele>183.4</ele><time>2026-04-04T14:47:23.999Z</time></trkpt><trkpt lat="45.68510094913128" lon="10.095995737219056"><ele>183.8</ele><time>2026-04-04T14:47:24.999Z</time></trkpt><trkpt lat="45.68503504648625" lon="10.095899082676976"><ele>184.2</ele><time>2026-04-04T14:47:25.999Z</time></trkpt><trkpt lat="45.68496455167824" lon="10.095803330048566"><ele>184.6</ele><time>2026-04-04T14:47:26.999Z</time></trkpt><trkpt lat="45.684888824450994" lon="10.095716639348408"><ele>185.0</ele><time>2026-04-04T14:47:27.999Z</time></trkpt><trkpt lat="45.68481623616366" lon="10.095623604208617"><ele>185.0</ele><time>2026-04-04T14:47:28.999Z</time></trkpt><trkpt lat="45.68474639107106" lon="10.095527247830617"><ele>185.0</ele><time>2026-04-04T14:47:29.999Z</time></trkpt><trkpt lat="45.68467680725197" lon="10.095428282358272"><ele>185.0</ele><time>2026-04-04T14:47:30.999Z</time></trkpt><trkpt lat="45.684617490755095" lon="10.095316863106046"><ele>185.0</ele><time>2026-04-04T14:47:31.999Z</time></trkpt><trkpt lat="45.684567700007115" lon="10.095194590626992"><ele>185.0</ele><time>2026-04-04T14:47:32.999Z</time></trkpt><trkpt lat="45.684518076955996" lon="10.09507233895584"><ele>185.0</ele><time>2026-04-04T14:47:33.999Z</time></trkpt><trkpt lat="45.684464829945604" lon="10.094952435753111"><ele>185.0</ele><time>2026-04-04T14:47:34.999Z</time></trkpt><trkpt lat="45.684408717558334" lon="10.094829514190359"><ele>185.0</ele><time>2026-04-04T14:47:35.999Z</time></trkpt><trkpt lat="45.68435792847375" lon="10.094697180362092"><ele>185.0</ele><time>2026-04-04T14:47:36.999Z</time></trkpt><trkpt lat="45.68430495159636" lon="10.0945732240419"><ele>185.0</ele><time>2026-04-04T14:47:37.999Z</time></trkpt><trkpt lat="45.684236963729816" lon="10.09445519238753"><ele>184.6</ele><time>2026-04-04T14:47:38.999Z</time></trkpt><trkpt lat="45.684162964901475" lon="10.094340866672933"><ele>184.2</ele><time>2026-04-04T14:47:39.999Z</time></trkpt><trkpt lat="45.684082855842945" lon="10.094239229709206"><ele>183.8</ele><time>2026-04-04T14:47:40.999Z</time></trkpt><trkpt lat="45.683995949734935" lon="10.094149604395989"><ele>183.4</ele><time>2026-04-04T14:47:41.999Z</time></trkpt><trkpt lat="45.683911731358755" lon="10.094056726725706"><ele>183.0</ele><time>2026-04-04T14:47:42.999Z</time></trkpt><trkpt lat="45.683828607459894" lon="10.09396505222677"><ele>183.0</ele><time>2026-04-04T14:47:43.999Z</time></trkpt><trkpt lat="45.68374963644207" lon="10.093861331820545"><ele>183.0</ele><time>2026-04-04T14:47:44.999Z</time></trkpt><trkpt lat="45.6836662577568" lon="10.093764732709964"><ele>183.0</ele><time>2026-04-04T14:47:45.999Z</time></trkpt><trkpt lat="45.68357930117478" lon="10.093679685983782"><ele>183.0</ele><time>2026-04-04T14:47:46.999Z</time></trkpt><trkpt lat="45.68349462792312" lon="10.093592254124726"><ele>183.0</ele><time>2026-04-04T14:47:47.999Z</time></trkpt><trkpt lat="45.68340907956551" lon="10.093495610930914"><ele>183.0</ele><time>2026-04-04T14:47:48.999Z</time></trkpt><trkpt lat="45.68332542964052" lon="10.093398607052954"><ele>183.0</ele><time>2026-04-04T14:47:49.999Z</time></trkpt><trkpt lat="45.68324071536344" lon="10.093299245747527"><ele>183.0</ele><time>2026-04-04T14:47:50.999Z</time></trkpt><trkpt lat="45.683152674709994" lon="10.093209154070781"><ele>183.0</ele><time>2026-04-04T14:47:51.999Z</time></trkpt><trkpt lat="45.68306203014363" lon="10.09311451308929"><ele>183.0</ele><time>2026-04-04T14:47:52.999Z</time></trkpt><trkpt lat="45.682973921974344" lon="10.093020805330326"><ele>183.0</ele><time>2026-04-04T14:47:53.999Z</time></trkpt><trkpt lat="45.682877836816445" lon="10.092935506021307"><ele>183.0</ele><time>2026-04-04T14:47:54.999Z</time></trkpt><trkpt lat="45.68279014403325" lon="10.092844540938051"><ele>183.0</ele><time>2026-04-04T14:47:55.999Z</time></trkpt><trkpt lat="45.68269837212072" lon="10.092756583320785"><ele>183.0</ele><time>2026-04-04T14:47:56.999Z</time></trkpt><trkpt lat="45.682612804051494" lon="10.092673331682859"><ele>183.0</ele><time>2026-04-04T14:47:57.999Z</time></trkpt><trkpt lat="45.68252398729086" lon="10.092594231792392"><ele>182.8</ele><time>2026-04-04T14:47:58.999Z</time></trkpt><trkpt lat="45.68243762057285" lon="10.092516173976794"><ele>182.60000000000002</ele><time>2026-04-04T14:47:59.999Z</time></trkpt><trkpt lat="45.68235602338515" lon="10.09243521076001"><ele>182.39999999999998</ele><time>2026-04-04T14:48:00.999Z</time></trkpt><trkpt lat="45.682270856109604" lon="10.0923660195245"><ele>182.2</ele><time>2026-04-04T14:48:01.999Z</time></trkpt><trkpt lat="45.682184467058775" lon="10.092306068986574"><ele>182.0</ele><time>2026-04-04T14:48:02.999Z</time></trkpt><trkpt lat="45.68209750211336" lon="10.092240594982405"><ele>182.0</ele><time>2026-04-04T14:48:03.999Z</time></trkpt><trkpt lat="45.68201638030991" lon="10.092173490464255"><ele>182.0</ele><time>2026-04-04T14:48:04.999Z</time></trkpt><trkpt lat="45.68193805323179" lon="10.092107494765687"><ele>182.0</ele><time>2026-04-04T14:48:05.999Z</time></trkpt><trkpt lat="45.6818615116284" lon="10.092038711638056"><ele>182.0</ele><time>2026-04-04T14:48:06.999Z</time></trkpt><trkpt lat="45.68177935357331" lon="10.091981039952191"><ele>182.0</ele><time>2026-04-04T14:48:07.999Z</time></trkpt><trkpt lat="45.681701823447824" lon="10.091923905694753"><ele>182.0</ele><time>2026-04-04T14:48:08.999Z</time></trkpt><trkpt lat="45.68161857875524" lon="10.091861985789908"><ele>182.0</ele><time>2026-04-04T14:48:09.999Z</time></trkpt><trkpt lat="45.68154196201642" lon="10.091789764027865"><ele>182.0</ele><time>2026-04-04T14:48:10.999Z</time></trkpt><trkpt lat="45.68146260721051" lon="10.091723168317776"><ele>182.0</ele><time>2026-04-04T14:48:11.999Z</time></trkpt><trkpt lat="45.681385755342696" lon="10.091652326704013"><ele>182.0</ele><time>2026-04-04T14:48:12.999Z</time></trkpt><trkpt lat="45.6813123410497" lon="10.091575238898368"><ele>182.0</ele><time>2026-04-04T14:48:13.998Z</time></trkpt><trkpt lat="45.68123183202672" lon="10.091509913140216"><ele>182.0</ele><time>2026-04-04T14:48:14.998Z</time></trkpt><trkpt lat="45.681158715498455" lon="10.091421314861373"><ele>182.0</ele><time>2026-04-04T14:48:15.998Z</time></trkpt><trkpt lat="45.681086997308185" lon="10.09133856510482"><ele>182.0</ele><time>2026-04-04T14:48:16.998Z</time></trkpt><trkpt lat="45.68102183843668" lon="10.091245825312367"><ele>182.0</ele><time>2026-04-04T14:48:17.998Z</time></trkpt><trkpt lat="45.68095696878804" lon="10.091158009424259"><ele>182.39999999999998</ele><time>2026-04-04T14:48:18.998Z</time></trkpt><trkpt lat="45.68089063365818" lon="10.091071958596805"><ele>182.79999999999998</ele><time>2026-04-04T14:48:19.998Z</time></trkpt><trkpt lat="45.680819711069454" lon="10.090987657266961"><ele>183.2</ele><time>2026-04-04T14:48:20.998Z</time></trkpt><trkpt lat="45.68074554005431" lon="10.090903470223815"><ele>183.6</ele><time>2026-04-04T14:48:21.998Z</time></trkpt><trkpt lat="45.6806787138188" lon="10.09081815392619"><ele>184.0</ele><time>2026-04-04T14:48:22.998Z</time></trkpt><trkpt lat="45.68061150957754" lon="10.090743192581733"><ele>184.0</ele><time>2026-04-04T14:48:23.998Z</time></trkpt><trkpt lat="45.680545101199044" lon="10.090670409703689"><ele>184.0</ele><time>2026-04-04T14:48:24.998Z</time></trkpt><trkpt lat="45.68048243737509" lon="10.090587925084193"><ele>184.0</ele><time>2026-04-04T14:48:25.998Z</time></trkpt><trkpt lat="45.680416267507546" lon="10.090504913207447"><ele>184.0</ele><time>2026-04-04T14:48:26.998Z</time></trkpt><trkpt lat="45.680355855594165" lon="10.09042003087294"><ele>184.0</ele><time>2026-04-04T14:48:27.998Z</time></trkpt><trkpt lat="45.680290093829456" lon="10.090335870441342"><ele>184.0</ele><time>2026-04-04T14:48:28.998Z</time></trkpt><trkpt lat="45.680228056226206" lon="10.090251009643348"><ele>184.16666666666669</ele><time>2026-04-04T14:48:29.998Z</time></trkpt><trkpt lat="45.680158824033214" lon="10.090174998358897"><ele>184.33333333333334</ele><time>2026-04-04T14:48:30.998Z</time></trkpt><trkpt lat="45.68009550504392" lon="10.090095011928481"><ele>184.5</ele><time>2026-04-04T14:48:31.998Z</time></trkpt><trkpt lat="45.680020226594095" lon="10.090026113799649"><ele>184.66666666666666</ele><time>2026-04-04T14:48:32.998Z</time></trkpt><trkpt lat="45.67996097768004" lon="10.089948529005142"><ele>184.83333333333331</ele><time>2026-04-04T14:48:33.998Z</time></trkpt><trkpt lat="45.67990259108835" lon="10.08986999122045"><ele>185.0</ele><time>2026-04-04T14:48:34.998Z</time></trkpt><trkpt lat="45.67983590721997" lon="10.08979975273563"><ele>185.0</ele><time>2026-04-04T14:48:35.998Z</time></trkpt><trkpt lat="45.67977679687886" lon="10.089714792610522"><ele>185.0</ele><time>2026-04-04T14:48:36.998Z</time></trkpt><trkpt lat="45.679716915115435" lon="10.089632646758412"><ele>185.0</ele><time>2026-04-04T14:48:37.998Z</time></trkpt><trkpt lat="45.67965127148589" lon="10.089552711538603"><ele>185.0</ele><time>2026-04-04T14:48:38.998Z</time></trkpt><trkpt lat="45.679590646500706" lon="10.089471514909656"><ele>185.0</ele><time>2026-04-04T14:48:39.998Z</time></trkpt><trkpt lat="45.679528668981426" lon="10.089389569197246"><ele>185.0</ele><time>2026-04-04T14:48:40.998Z</time></trkpt><trkpt lat="45.679459259100284" lon="10.089319657282605"><ele>185.0</ele><time>2026-04-04T14:48:41.998Z</time></trkpt><trkpt lat="45.67939607855463" lon="10.089238502828831"><ele>185.0</ele><time>2026-04-04T14:48:42.998Z</time></trkpt><trkpt lat="45.6793354657336" lon="10.089159691820894"><ele>185.0</ele><time>2026-04-04T14:48:43.998Z</time></trkpt><trkpt lat="45.67927207181352" lon="10.089077258481359"><ele>185.0</ele><time>2026-04-04T14:48:44.998Z</time></trkpt><trkpt lat="45.67921784364454" lon="10.088983639746695"><ele>185.0</ele><time>2026-04-04T14:48:45.998Z</time></trkpt><trkpt lat="45.67917402118459" lon="10.088887843173108"><ele>185.0</ele><time>2026-04-04T14:48:46.998Z</time></trkpt><trkpt lat="45.679123792332824" lon="10.08879013098001"><ele>185.0</ele><time>2026-04-04T14:48:47.998Z</time></trkpt><trkpt lat="45.67907453512622" lon="10.088692411392943"><ele>185.0</ele><time>2026-04-04T14:48:48.998Z</time></trkpt><trkpt lat="45.67902220749812" lon="10.088601932187048"><ele>185.0</ele><time>2026-04-04T14:48:49.998Z</time></trkpt><trkpt lat="45.678969007827675" lon="10.088511441429489"><ele>185.0</ele><time>2026-04-04T14:48:50.998Z</time></trkpt><trkpt lat="45.678922441672185" lon="10.08841650171368"><ele>185.0</ele><time>2026-04-04T14:48:51.998Z</time></trkpt><trkpt lat="45.67887619178714" lon="10.08832091291793"><ele>185.0</ele><time>2026-04-04T14:48:52.998Z</time></trkpt><trkpt lat="45.67882824986174" lon="10.088226389631261"><ele>184.66666666666666</ele><time>2026-04-04T14:48:53.998Z</time></trkpt><trkpt lat="45.67878667909934" lon="10.088126245620618"><ele>184.33333333333331</ele><time>2026-04-04T14:48:54.998Z</time></trkpt><trkpt lat="45.67874549056207" lon="10.088027641657867"><ele>184.0</ele><time>2026-04-04T14:48:55.998Z</time></trkpt><trkpt lat="45.67871342180338" lon="10.087921480634973"><ele>183.66666666666666</ele><time>2026-04-04T14:48:56.998Z</time></trkpt><trkpt lat="45.67869118708214" lon="10.087806783942357"><ele>183.33333333333334</ele><time>2026-04-04T14:48:58Z</time></trkpt><trkpt lat="45.678674467393016" lon="10.087693536953948"><ele>183.0</ele><time>2026-04-04T14:48:59Z</time></trkpt><trkpt lat="45.67866118069394" lon="10.08757946825902"><ele>183.0</ele><time>2026-04-04T14:49:00Z</time></trkpt><trkpt lat="45.6786409323251" lon="10.087469470648431"><ele>183.0</ele><time>2026-04-04T14:49:01Z</time></trkpt><trkpt lat="45.678622959920254" lon="10.087353935989132"><ele>183.0</ele><time>2026-04-04T14:49:02Z</time></trkpt><trkpt lat="45.67860066308557" lon="10.087244542127172"><ele>183.0</ele><time>2026-04-04T14:49:03Z</time></trkpt><trkpt lat="45.67857877557673" lon="10.087140375718949"><ele>183.0</ele><time>2026-04-04T14:49:04Z</time></trkpt><trkpt lat="45.67855686839746" lon="10.087028706733506"><ele>183.0</ele><time>2026-04-04T14:49:05Z</time></trkpt><trkpt lat="45.67852996871464" lon="10.08692086001281"><ele>184.0</ele><time>2026-04-04T14:49:06Z</time></trkpt><trkpt lat="45.67849770717693" lon="10.08681399524047"><ele>185.0</ele><time>2026-04-04T14:49:07Z</time></trkpt><trkpt lat="45.67846299890466" lon="10.086710987751779"><ele>186.0</ele><time>2026-04-04T14:49:08Z</time></trkpt><trkpt lat="45.67842405479686" lon="10.086612082831895"><ele>187.0</ele><time>2026-04-04T14:49:09Z</time></trkpt><trkpt lat="45.678391186992194" lon="10.08651518739166"><ele>188.0</ele><time>2026-04-04T14:49:10Z</time></trkpt><trkpt lat="45.67835374870647" lon="10.086418189160185"><ele>189.0</ele><time>2026-04-04T14:49:11Z</time></trkpt><trkpt lat="45.6783231463749" lon="10.086314163460548"><ele>189.0</ele><time>2026-04-04T14:49:12Z</time></trkpt><trkpt lat="45.678286917121646" lon="10.08621671566979"><ele>189.0</ele><time>2026-04-04T14:49:13Z</time></trkpt><trkpt lat="45.67824919436213" lon="10.086118979620997"><ele>189.0</ele><time>2026-04-04T14:49:14Z</time></trkpt><trkpt lat="45.67821291915066" lon="10.086023162442066"><ele>189.0</ele><time>2026-04-04T14:49:15Z</time></trkpt><trkpt lat="45.6781810591768" lon="10.085921593462386"><ele>189.0</ele><time>2026-04-04T14:49:16Z</time></trkpt><trkpt lat="45.67815042999828" lon="10.0858237661592"><ele>189.0</ele><time>2026-04-04T14:49:17Z</time></trkpt><trkpt lat="45.67811813724616" lon="10.085722453053384"><ele>188.66666666666666</ele><time>2026-04-04T14:49:18Z</time></trkpt><trkpt lat="45.678083680163844" lon="10.085626377012012"><ele>188.33333333333334</ele><time>2026-04-04T14:49:19Z</time></trkpt><trkpt lat="45.67804924604282" lon="10.085530832201572"><ele>188.0</ele><time>2026-04-04T14:49:20Z</time></trkpt><trkpt lat="45.67801344090886" lon="10.08543617440702"><ele>187.66666666666669</ele><time>2026-04-04T14:49:21Z</time></trkpt><trkpt lat="45.67796831995678" lon="10.085349691897887"><ele>187.33333333333334</ele><time>2026-04-04T14:49:22Z</time></trkpt><trkpt lat="45.67792306881639" lon="10.08526163261216"><ele>187.0</ele><time>2026-04-04T14:49:23Z</time></trkpt><trkpt lat="45.67788216586885" lon="10.085174696458248"><ele>187.0</ele><time>2026-04-04T14:49:24Z</time></trkpt><trkpt lat="45.677842389848415" lon="10.085080892962031"><ele>187.0</ele><time>2026-04-04T14:49:24.999Z</time></trkpt><trkpt lat="45.67779821036478" lon="10.084995512542992"><ele>187.0</ele><time>2026-04-04T14:49:25.999Z</time></trkpt><trkpt lat="45.67775158638865" lon="10.084910650868997"><ele>187.0</ele><time>2026-04-04T14:49:26.999Z</time></trkpt><trkpt lat="45.67770179906566" lon="10.084834212055862"><ele>187.0</ele><time>2026-04-04T14:49:27.999Z</time></trkpt><trkpt lat="45.67765773101167" lon="10.084754627325935"><ele>187.0</ele><time>2026-04-04T14:49:28.999Z</time></trkpt><trkpt lat="45.67761585625554" lon="10.084685089964704"><ele>187.0</ele><time>2026-04-04T14:49:29.999Z</time></trkpt><trkpt lat="45.67757107328561" lon="10.084611401791056"><ele>187.42857142857142</ele><time>2026-04-04T14:49:30.999Z</time></trkpt><trkpt lat="45.67752789759392" lon="10.084536165477102"><ele>187.85714285714286</ele><time>2026-04-04T14:49:31.999Z</time></trkpt><trkpt lat="45.67748265922003" lon="10.08445909994636"><ele>188.28571428571428</ele><time>2026-04-04T14:49:32.999Z</time></trkpt><trkpt lat="45.67743701088837" lon="10.08438125486665"><ele>188.71428571428572</ele><time>2026-04-04T14:49:33.999Z</time></trkpt><trkpt lat="45.67738182260199" lon="10.084313113066449"><ele>189.14285714285717</ele><time>2026-04-04T14:49:34.999Z</time></trkpt><trkpt lat="45.6773269353522" lon="10.084258784260216"><ele>189.57142857142858</ele><time>2026-04-04T14:49:35.999Z</time></trkpt><trkpt lat="45.6772698312182" lon="10.084215506193102"><ele>190.0</ele><time>2026-04-04T14:49:36.999Z</time></trkpt><trkpt lat="45.677155120147205" lon="10.084142121915646"><ele>190.0</ele><time>2026-04-04T14:49:38.999Z</time></trkpt><trkpt lat="45.67709460899028" lon="10.084112427187357"><ele>190.0</ele><time>2026-04-04T14:49:39.999Z</time></trkpt><trkpt lat="45.67700783854231" lon="10.083997436622932"><ele>190.0</ele><time>2026-04-04T14:49:41.999Z</time></trkpt><trkpt lat="45.676967248180894" lon="10.083919072435712"><ele>190.0</ele><time>2026-04-04T14:49:42.999Z</time></trkpt><trkpt lat="45.676924615503005" lon="10.083842249441124"><ele>190.0</ele><time>2026-04-04T14:49:43.999Z</time></trkpt><trkpt lat="45.67688301917633" lon="10.083765912142196"><ele>190.0</ele><time>2026-04-04T14:49:44.999Z</time></trkpt><trkpt lat="45.67684196988034" lon="10.083692215072215"><ele>190.42857142857144</ele><time>2026-04-04T14:49:45.999Z</time></trkpt><trkpt lat="45.67680419598189" lon="10.083619159177783"><ele>190.85714285714286</ele><time>2026-04-04T14:49:46.999Z</time></trkpt><trkpt lat="45.676763182428076" lon="10.083546888499995"><ele>191.28571428571428</ele><time>2026-04-04T14:49:47.999Z</time></trkpt><trkpt lat="45.67672745163856" lon="10.083470098589816"><ele>191.71428571428572</ele><time>2026-04-04T14:49:48.999Z</time></trkpt><trkpt lat="45.676684698116915" lon="10.083399473122125"><ele>192.14285714285714</ele><time>2026-04-04T14:49:49.999Z</time></trkpt><trkpt lat="45.676609600830844" lon="10.083255606529718"><ele>192.57142857142858</ele><time>2026-04-04T14:49:51.999Z</time></trkpt><trkpt lat="45.676567941465294" lon="10.08318554776357"><ele>193.0</ele><time>2026-04-04T14:49:52.999Z</time></trkpt><trkpt lat="45.67648414190939" lon="10.083050809515278"><ele>193.25</ele><time>2026-04-04T14:49:54.999Z</time></trkpt><trkpt lat="45.67639451618048" lon="10.082923928936083"><ele>193.5</ele><time>2026-04-04T14:49:56.999Z</time></trkpt><trkpt lat="45.676310109292196" lon="10.082807178772676"><ele>193.75</ele><time>2026-04-04T14:49:58.999Z</time></trkpt><trkpt lat="45.67623475067666" lon="10.082688684223632"><ele>194.0</ele><time>2026-04-04T14:50:00.999Z</time></trkpt><trkpt lat="45.676154403117636" lon="10.082571357506861"><ele>193.79999999999998</ele><time>2026-04-04T14:50:02.999Z</time></trkpt><trkpt lat="45.67608092865769" lon="10.082456851980197"><ele>193.6</ele><time>2026-04-04T14:50:04.999Z</time></trkpt><trkpt lat="45.67601249820998" lon="10.082345910061324"><ele>193.4</ele><time>2026-04-04T14:50:06.999Z</time></trkpt><trkpt lat="45.67595151040197" lon="10.082233464165249"><ele>193.2</ele><time>2026-04-04T14:50:08.999Z</time></trkpt><trkpt lat="45.67589320250575" lon="10.082126682863967"><ele>193.0</ele><time>2026-04-04T14:50:10.999Z</time></trkpt><trkpt lat="45.67585066358299" lon="10.082044499413248"><ele>191.0</ele><time>2026-04-04T14:50:12.999Z</time></trkpt></trkseg></trk></gpx>